
Distance (Route):
Temperature : 1.9°C
Humidity : 49.6%
Pressure : 696.7hPa| Receiver | Frames | First received | Last received |
|---|---|---|---|
| DO3MHA-11 | 418 | 2026-08-31 10:47:39 | 2026-08-31 13:06:54 |
| DM0DOS-11 | 373 | 2026-08-31 11:19:10 | 2026-08-31 12:53:48 |
| AA1-15 | 247 | 2026-08-31 11:58:25 | 2026-08-31 12:47:26 |
| DF8AY | 229 | 2026-08-31 11:38:54 | 2026-08-31 12:50:23 |
| DL1XH-west | 208 | 2026-08-31 11:59:29 | 2026-08-31 12:45:49 |
| OE5MMP-10 | 198 | 2026-08-31 11:27:03 | 2026-08-31 13:02:40 |
| HSKMA3-T | 179 | 2026-08-31 12:03:47 | 2026-08-31 12:44:58 |
| DL1XH1-15 | 171 | 2026-08-31 12:04:15 | 2026-08-31 12:45:58 |
| DB0NH | 128 | 2026-08-31 10:48:44 | 2026-08-31 13:07:07 |
| DL6DJ-15 | 103 | 2026-08-31 10:52:11 | 2026-08-31 12:56:58 |
| NBG1-10 | 101 | 2026-08-31 10:47:37 | 2026-08-31 13:07:53 |
| DO8TBO-1 | 81 | 2026-08-31 10:57:11 | 2026-08-31 13:02:47 |
| PG1ADW-2 | 80 | 2026-08-31 11:19:46 | 2026-08-31 12:59:04 |
| OE5DRO-10 | 77 | 2026-08-31 11:15:20 | 2026-08-31 13:02:45 |
| EDDB2-11 | 72 | 2026-08-31 11:16:15 | 2026-08-31 13:05:25 |
| DL9SK-14 | 68 | 2026-08-31 11:13:10 | 2026-08-31 12:54:37 |
| SONDE2-11 | 60 | 2026-08-31 11:28:22 | 2026-08-31 13:03:36 |
| DK5PH-5 | 59 | 2026-08-31 11:17:23 | 2026-08-31 12:51:07 |
| DO9HM | 54 | 2026-08-31 10:52:53 | 2026-08-31 11:24:29 |
| ANDY1245 | 54 | 2026-08-31 11:20:24 | 2026-08-31 12:48:17 |
| EDDB2-12 | 53 | 2026-08-31 11:33:02 | 2026-08-31 13:05:08 |
| DF2AP-13 | 52 | 2026-08-31 11:04:31 | 2026-08-31 12:58:13 |
| DB0ND-19 | 50 | 2026-08-31 11:01:20 | 2026-08-31 12:52:35 |
| SONCRA | 49 | 2026-08-31 11:06:56 | 2026-08-31 13:01:51 |
| DB0UT-7 | 48 | 2026-08-31 11:04:10 | 2026-08-31 12:59:13 |
| DL1NUX | 46 | 2026-08-31 11:10:57 | 2026-08-31 12:55:54 |
| DB0UT-9 | 43 | 2026-08-31 11:02:38 | 2026-08-31 12:59:17 |
| OE5DXL-15 | 43 | 2026-08-31 11:04:53 | 2026-08-31 12:57:45 |
| DL1XH-15 | 42 | 2026-08-31 12:30:46 | 2026-08-31 12:41:18 |
| PETON7-10 | 41 | 2026-08-31 11:58:11 | 2026-08-31 12:49:48 |
| DF7PN | 36 | 2026-08-31 11:03:33 | 2026-08-31 12:55:56 |
| DJ2DS-15 | 27 | 2026-08-31 12:07:06 | 2026-08-31 12:45:25 |
| BIOWL1-15 | 23 | 2026-08-31 11:20:36 | 2026-08-31 11:31:43 |
| SP3BTT-10 | 17 | 2026-08-31 11:27:06 | 2026-08-31 12:57:41 |
| DL1JEZ-13 | 15 | 2026-08-31 11:25:25 | 2026-08-31 12:59:01 |
| OE5WHR-10 | 14 | 2026-08-31 11:12:22 | 2026-08-31 12:15:45 |
| AM1SDL-15 | 13 | 2026-08-31 11:13:36 | 2026-08-31 12:55:31 |
| BAUMI2-15 | 13 | 2026-08-31 12:29:42 | 2026-08-31 12:41:12 |
| DL1JHR | 8 | 2026-08-31 12:17:33 | 2026-08-31 12:52:31 |
| OE3JTB-15 | 6 | 2026-08-31 12:51:05 | 2026-08-31 13:06:41 |
| DL3JIN-12 | 5 | 2026-08-31 13:06:08 | 2026-08-31 13:07:44 |
| SO1NDE-10 | 4 | 2026-08-31 11:11:27 | 2026-08-31 12:53:07 |
| SFWM-10 | 4 | 2026-08-31 12:19:07 | 2026-08-31 12:41:25 |
| S52SK | 3 | 2026-08-31 11:36:40 | 2026-08-31 11:37:25 |
| DJTTGO | 3 | 2026-08-31 11:58:20 | 2026-08-31 12:32:34 |
| DF3TZ-5 | 3 | 2026-08-31 11:58:25 | 2026-08-31 12:23:16 |
| DF9NV-10 | 1 | 2026-08-31 11:33:42 | 2026-08-31 11:33:42 |
| DL2RXE-15 | 1 | 2026-08-31 13:01:14 | 2026-08-31 13:01:14 |
| Receiver | Date | Latitude | Longitude | Direction | Speed | Altitude | Climb | Temperature | Humidity | Pressure | Voltage | Killtimer | Uptime | BKT | XDATA |
|---|---|---|---|---|---|---|---|---|---|---|---|---|---|---|---|
| NBG1-10 | 2026-08-31 13:07:53 | 50.03236 | 13.59821 | 76° | 58km/h | 3190m | -13.4m/s | 1.9°C | 49.6% | 696.7hPa | 2.7V | 02:59:00 | 02:50:46 | 00:00:00 | |
| DL3JIN-12 | 2026-08-31 13:07:44 | 50.03207 | 13.59640 | 76° | 62km/h | 3292m | -13.4m/s | 0°C | 0% | 687.9hPa | 2.7V | 00:00:00 | 00:00:00 | 00:00:00 | |
| NBG1-10 | 2026-08-31 13:07:25 | 50.03139 | 13.59192 | 83° | 57km/h | 3534m | -11.1m/s | 0.2°C | 22.5% | 667.6hPa | 2.7V | 00:00:00 | 02:50:18 | 00:00:00 | |
| DL3JIN-12 | 2026-08-31 13:07:23 | 50.03137 | 13.59171 | 83° | 53km/h | 3545m | -11.2m/s | 0°C | 0% | 666.7hPa | 2.7V | 00:00:00 | 00:00:00 | 00:00:00 | |
| DB0NH | 2026-08-31 13:07:07 | 50.03102 | 13.58823 | 79° | 62km/h | 3739m | -10.8m/s | 0.1°C | 5.9% | 650.4hPa | 2.7V | 00:00:00 | 02:50:00 | 00:00:00 | |
| DL3JIN-12 | 2026-08-31 13:06:59 | 50.03077 | 13.58658 | 78° | 60km/h | 3818m | -11.0m/s | 0°C | 0% | 644.3hPa | 2.7V | 03:01:00 | 00:00:00 | 00:00:00 | |
| DO3MHA-11 | 2026-08-31 13:06:54 | 50.03054 | 13.58515 | 75° | 66km/h | 3887m | -12.6m/s | -0.1°C | 4.5% | 638.6hPa | 2.7V | 03:00:00 | 02:49:47 | 00:00:00 | |
| NBG1-10 | 2026-08-31 13:06:52 | 50.03045 | 13.58466 | 73° | 62km/h | 3912m | -12.9m/s | -0.0°C | 4.1% | 636.8hPa | 2.7V | 00:00:00 | 02:49:45 | 00:00:00 | |
| DO3MHA-11 | 2026-08-31 13:06:49 | 50.03029 | 13.58392 | 71° | 64km/h | 3950m | -12.5m/s | 0.2°C | 3.6% | 633.8hPa | 2.7V | 00:00:00 | 02:49:42 | 00:00:00 | |
| DO3MHA-11 | 2026-08-31 13:06:44 | 50.02999 | 13.58273 | 68° | 62km/h | 4013m | -12.0m/s | 0.1°C | 3.4% | 629.0hPa | 2.6V | 00:00:00 | 02:49:37 | 00:00:00 | |
| OE3JTB-15 | 2026-08-31 13:06:41 | 50.02981 | 13.58204 | 68° | 60km/h | 4050m | -11.7m/s | -0.1°C | 3.6% | 626.0hPa | 2.6V | 00:00:00 | 00:00:00 | 00:00:00 | |
| DO3MHA-11 | 2026-08-31 13:06:39 | 50.02969 | 13.58159 | 69° | 60km/h | 4073m | -12.2m/s | -0.3°C | 3.7% | 624.1hPa | 2.6V | 00:00:00 | 02:49:32 | 00:00:00 | |
| DL3JIN-12 | 2026-08-31 13:06:38 | 50.02969 | 13.58159 | 70° | 60km/h | 4073m | -12.2m/s | 0°C | 0% | 0hPa | 2.6V | 03:01:00 | 00:00:00 | 00:00:00 | |
| DB0NH | 2026-08-31 13:06:37 | 50.02957 | 13.58114 | 68° | 62km/h | 4097m | -12.2m/s | -0.6°C | 3.7% | 622.2hPa | 2.6V | 00:00:00 | 02:49:30 | 00:00:00 | |
| DO3MHA-11 | 2026-08-31 13:06:29 | 50.02911 | 13.57940 | 67° | 60km/h | 4195m | -12.5m/s | -1.3°C | 4.5% | 614.5hPa | 2.6V | 03:00:00 | 02:49:22 | 00:00:00 | |
| DO3MHA-11 | 2026-08-31 13:06:24 | 50.02880 | 13.57829 | 68° | 60km/h | 4257m | -12.1m/s | -1.8°C | 4.7% | 609.9hPa | 2.7V | 00:00:00 | 02:49:17 | 00:00:00 | |
| NBG1-10 | 2026-08-31 13:06:19 | 50.02851 | 13.57718 | 69° | 69km/h | 4319m | -11.5m/s | -2.1°C | 4.6% | 605.3hPa | 2.7V | 03:01:00 | 02:49:12 | 00:00:00 | |
| DO3MHA-11 | 2026-08-31 13:06:14 | 50.02822 | 13.57602 | 69° | 66km/h | 4377m | -11.3m/s | -2.6°C | 4.8% | 600.8hPa | 2.7V | 00:00:00 | 02:49:07 | 00:00:00 | |
| OE3JTB-15 | 2026-08-31 13:06:12 | 50.02810 | 13.57554 | 70° | 73km/h | 4399m | -11.4m/s | -2.8°C | 4.8% | 599.0hPa | 2.7V | 00:00:00 | 00:00:00 | 00:00:00 | |
| DO3MHA-11 | 2026-08-31 13:06:09 | 50.02792 | 13.57480 | 71° | 71km/h | 4433m | -11.9m/s | -3.1°C | 5.0% | 596.3hPa | 2.7V | 03:01:00 | 02:49:02 | 00:00:00 | |
| DL3JIN-12 | 2026-08-31 13:06:08 | 50.02793 | 13.57480 | 71° | 68km/h | 4433m | -12.0m/s | 0°C | 0% | 0hPa | 2.7V | 00:00:00 | 00:00:00 | 00:00:00 | |
| DB0NH | 2026-08-31 13:06:07 | 50.02780 | 13.57430 | 70° | 73km/h | 4456m | -11.9m/s | -3.2°C | 5.1% | 594.5hPa | 2.7V | 03:01:00 | 02:49:00 | 00:00:00 | |
| DO3MHA-11 | 2026-08-31 13:06:04 | 50.02760 | 13.57351 | 69° | 73km/h | 4492m | -12.0m/s | -3.4°C | 5.3% | 591.9hPa | 2.7V | 00:00:00 | 02:48:57 | 00:00:00 | |
| DO3MHA-11 | 2026-08-31 13:05:59 | 50.02726 | 13.57218 | 70° | 73km/h | 4551m | -11.4m/s | -3.7°C | 5.7% | 587.5hPa | 2.7V | 00:00:00 | 02:48:52 | 00:00:00 | |
| DO3MHA-11 | 2026-08-31 13:05:54 | 50.02693 | 13.57081 | 70° | 73km/h | 4611m | -12.6m/s | -4.3°C | 5.7% | 583.0hPa | 2.7V | 00:00:00 | 02:48:47 | 00:00:00 | |
| DO3MHA-11 | 2026-08-31 13:05:49 | 50.02661 | 13.56945 | 71° | 73km/h | 4671m | -11.6m/s | -4.8°C | 5.7% | 578.6hPa | 2.7V | 03:01:00 | 02:48:42 | 00:00:00 | |
| NBG1-10 | 2026-08-31 13:05:46 | 50.02642 | 13.56865 | 70° | 73km/h | 4705m | -11.9m/s | -5.1°C | 5.8% | 575.8hPa | 2.7V | 00:00:00 | 02:48:39 | 00:00:00 | |
| DO3MHA-11 | 2026-08-31 13:05:44 | 50.02629 | 13.56810 | 69° | 73km/h | 4729m | -12.6m/s | -5.3°C | 6.0% | 574.1hPa | 2.7V | 00:00:00 | 02:48:37 | 00:00:00 | |
| OE3JTB-15 | 2026-08-31 13:05:41 | 50.02608 | 13.56729 | 69° | 75km/h | 4765m | -12.4m/s | -5.5°C | 6.0% | 571.4hPa | 2.7V | 03:01:00 | 02:48:34 | 00:00:00 | |
| DO3MHA-11 | 2026-08-31 13:05:39 | 50.02594 | 13.56676 | 67° | 73km/h | 4789m | -12.0m/s | -5.7°C | 5.6% | 569.8hPa | 2.7V | 00:00:00 | 02:48:32 | 00:00:00 | |
| DO3MHA-11 | 2026-08-31 13:05:34 | 50.02557 | 13.56546 | 67° | 71km/h | 4848m | -12.2m/s | -6.1°C | 5.2% | 565.4hPa | 2.7V | 00:00:00 | 02:48:27 | 00:00:00 | |
| DO3MHA-11 | 2026-08-31 13:05:29 | 50.02521 | 13.56416 | 69° | 75km/h | 4909m | -12.4m/s | -6.5°C | 6.1% | 561.1hPa | 2.7V | 03:01:00 | 02:48:22 | 00:00:00 | |
| EDDB2-11 | 2026-08-31 13:05:25 | 50.02491 | 13.56308 | 66° | 73km/h | 4959m | -13.0m/s | -7.0°C | 5.5% | 557.5hPa | 2.7V | 00:00:00 | 00:00:00 | 00:00:00 | |
| DO3MHA-11 | 2026-08-31 13:05:24 | 50.02484 | 13.56281 | 68° | 75km/h | 4972m | -12.9m/s | -7.0°C | 5.8% | 556.5hPa | 2.7V | 00:00:00 | 02:48:17 | 00:00:00 | |
| DO3MHA-11 | 2026-08-31 13:05:19 | 50.02445 | 13.56145 | 66° | 75km/h | 5034m | -12.9m/s | -7.5°C | 5.5% | 552.3hPa | 2.7V | 00:00:00 | 02:48:12 | 00:00:00 | |
| NBG1-10 | 2026-08-31 13:05:13 | 50.02396 | 13.55986 | 66° | 78km/h | 5106m | -11.8m/s | -8.1°C | 6.4% | 546.9hPa | 2.7V | 00:00:00 | 02:48:06 | 00:00:00 | |
| DO3MHA-11 | 2026-08-31 13:05:09 | 50.02364 | 13.55878 | 63° | 78km/h | 5154m | -12.9m/s | -8.5°C | 6.9% | 543.5hPa | 2.7V | 00:00:00 | 02:48:02 | 00:00:00 | |
| EDDB2-12 | 2026-08-31 13:05:08 | 50.02355 | 13.55851 | 62° | 77km/h | 5165m | -11.9m/s | -8.6°C | 6.5% | 542.8hPa | 2.7V | 00:00:00 | 00:00:00 | 00:00:00 | |
| EDDB2-11 | 2026-08-31 13:04:54 | 50.02225 | 13.55465 | 65° | 78km/h | 5335m | -11.6m/s | -10.1°C | 7.5% | 531.2hPa | 2.7V | 00:00:00 | 00:00:00 | 00:00:00 | |
| DO3MHA-11 | 2026-08-31 13:04:49 | 50.02183 | 13.55326 | 65° | 78km/h | 5392m | -11.5m/s | -10.6°C | 8.9% | 527.1hPa | 2.7V | 00:00:00 | 02:47:42 | 00:00:00 | |
| NBG1-10 | 2026-08-31 13:04:40 | 50.02100 | 13.55080 | 63° | 78km/h | 5490m | -11.0m/s | -11.4°C | 8.9% | 520.3hPa | 2.7V | 00:00:00 | 02:47:33 | 00:00:00 | |
| DO3MHA-11 | 2026-08-31 13:04:39 | 50.02091 | 13.55052 | 64° | 80km/h | 5500m | -11.3m/s | -11.5°C | 8.9% | 519.5hPa | 2.7V | 00:00:00 | 02:47:32 | 00:00:00 | |
| OE3JTB-15 | 2026-08-31 13:04:38 | 50.02082 | 13.55024 | 63° | 80km/h | 5511m | -11.2m/s | -11.6°C | 8.8% | 518.8hPa | 2.7V | 00:00:00 | 00:00:00 | 00:00:00 | |
| EDDB2-12 | 2026-08-31 13:04:37 | 50.02072 | 13.54996 | 62° | 80km/h | 5522m | -11.4m/s | -11.8°C | 8.3% | 518.1hPa | 2.6V | 00:00:00 | 00:00:00 | 00:00:00 | |
| DO3MHA-11 | 2026-08-31 13:04:29 | 50.01998 | 13.54773 | 63° | 77km/h | 5609m | -10.6m/s | -12.5°C | 10.5% | 512.3hPa | 2.6V | 00:00:00 | 02:47:22 | 00:00:00 | |
| DB0NH | 2026-08-31 13:04:23 | 50.01942 | 13.54612 | 62° | 80km/h | 5672m | -10.7m/s | -13.1°C | 11.4% | 508.0hPa | 2.6V | 00:00:00 | 02:47:16 | 00:00:00 | |
| DO3MHA-11 | 2026-08-31 13:04:19 | 50.01905 | 13.54506 | 60° | 80km/h | 5713m | -10.5m/s | -13.5°C | 11.6% | 505.3hPa | 2.6V | 03:03:00 | 02:47:12 | 00:00:00 | |
| DO3MHA-11 | 2026-08-31 13:04:09 | 50.01808 | 13.54232 | 62° | 80km/h | 5813m | -10.6m/s | -14.4°C | 17.3% | 498.4hPa | 2.6V | 00:00:00 | 02:47:02 | 00:00:00 | |
| NBG1-10 | 2026-08-31 13:04:07 | 50.01788 | 13.54176 | 62° | 80km/h | 5833m | -9.5m/s | -14.6°C | 17.5% | 497.2hPa | 2.6V | 03:03:00 | 02:47:00 | 00:00:00 | |
| EDDB2-12 | 2026-08-31 13:04:06 | 50.01770 | 13.54122 | 61° | 77km/h | 5851m | -9.9m/s | -14.8°C | 16.7% | 495.9hPa | 2.6V | 00:00:00 | 00:00:00 | 00:00:00 | |
| DO3MHA-11 | 2026-08-31 13:03:59 | 50.01711 | 13.53954 | 63° | 80km/h | 5912m | -10.4m/s | -15.3°C | 18.5% | 491.9hPa | 2.6V | 00:00:00 | 02:46:52 | 00:00:00 | |
| DB0NH | 2026-08-31 13:03:53 | 50.01654 | 13.53786 | 63° | 82km/h | 5970m | -9.4m/s | -15.9°C | 19.6% | 488.0hPa | 2.6V | 03:03:00 | 02:46:46 | 00:00:00 | |
| DO3MHA-11 | 2026-08-31 13:03:49 | 50.01616 | 13.53674 | 64° | 82km/h | 6010m | -9.5m/s | -16.3°C | 20.7% | 485.4hPa | 2.7V | 00:00:00 | 02:46:42 | 00:00:00 | |
| DO3MHA-11 | 2026-08-31 13:03:39 | 50.01522 | 13.53386 | 61° | 80km/h | 6108m | -9.3m/s | -17.2°C | 26.9% | 479.0hPa | 2.7V | 03:03:00 | 02:46:32 | 00:00:00 | |
| SONDE2-11 | 2026-08-31 13:03:36 | 50.01492 | 13.53303 | 62° | 78km/h | 6138m | -10.0m/s | -17.6°C | 26.2% | 477.2hPa | 2.6V | 00:00:00 | 00:00:00 | 00:00:00 | |
| EDDB2-12 | 2026-08-31 13:03:35 | 50.01474 | 13.53247 | 65° | 77km/h | 6158m | -9.4m/s | -17.7°C | 26.8% | 475.9hPa | 2.6V | 00:00:00 | 00:00:00 | 00:00:00 | |
| NBG1-10 | 2026-08-31 13:03:34 | 50.01474 | 13.53247 | 66° | 82km/h | 6158m | -9.4m/s | -17.7°C | 28.4% | 475.9hPa | 2.6V | 00:00:00 | 02:46:27 | 00:00:00 | |
| DO3MHA-11 | 2026-08-31 13:03:29 | 50.01434 | 13.53102 | 67° | 82km/h | 6207m | -9.6m/s | -18.2°C | 29.5% | 472.7hPa | 2.6V | 00:00:00 | 02:46:22 | 00:00:00 | |
| DB0NH | 2026-08-31 13:03:23 | 50.01377 | 13.52927 | 64° | 80km/h | 6267m | -10.2m/s | -18.7°C | 30.6% | 469.1hPa | 2.6V | 00:00:00 | 02:46:16 | 00:00:00 | |
| EDDB2-11 | 2026-08-31 13:03:21 | 50.01359 | 13.52871 | 63° | 80km/h | 6287m | -10.0m/s | -18.9°C | 28.7% | 467.9hPa | 2.6V | 00:00:00 | 00:00:00 | 00:00:00 | |
| DO3MHA-11 | 2026-08-31 13:03:19 | 50.01340 | 13.52814 | 62° | 82km/h | 6307m | -9.8m/s | -18.9°C | 30.3% | 466.7hPa | 2.6V | 00:00:00 | 02:46:12 | 00:00:00 | |
| DO3MHA-11 | 2026-08-31 13:03:09 | 50.01236 | 13.52533 | 61° | 82km/h | 6405m | -10.1m/s | -19.7°C | 29.0% | 460.6hPa | 2.6V | 00:00:00 | 02:46:02 | 00:00:00 | |
| SONDE2-11 | 2026-08-31 13:03:05 | 50.01192 | 13.52419 | 57° | 82km/h | 6443m | -9.8m/s | -20.1°C | 27.2% | 458.1hPa | 2.6V | 00:00:00 | 00:00:00 | 00:00:00 | |
| EDDB2-12 | 2026-08-31 13:03:04 | 50.01169 | 13.52366 | 56° | 78km/h | 6463m | -9.8m/s | -20.2°C | 27.2% | 457.0hPa | 2.6V | 00:00:00 | 00:00:00 | 00:00:00 | |
| EDDB2-11 | 2026-08-31 13:02:50 | 50.01023 | 13.52009 | 59° | 80km/h | 6590m | -10.0m/s | -21.3°C | 26.7% | 449.2hPa | 2.6V | 00:00:00 | 00:00:00 | 00:00:00 | |
| DO3MHA-11 | 2026-08-31 13:02:49 | 50.01012 | 13.51981 | 60° | 86km/h | 6600m | -10.1m/s | -21.3°C | 28.6% | 448.6hPa | 2.6V | 00:00:00 | 02:45:42 | 00:00:00 | |
| DO8TBO-1 | 2026-08-31 13:02:47 | 50.00991 | 13.51925 | 60° | 86km/h | 6620m | -9.5m/s | -21.4°C | 28.8% | 447.3hPa | 2.6V | 00:00:00 | 02:45:40 | 00:00:00 | |
| OE5DRO-10 | 2026-08-31 13:02:45 | 50.00968 | 13.51868 | 57° | 86km/h | 6639m | -9.9m/s | -21.5°C | 28.5% | 446.1hPa | 2.6V | 00:00:00 | 00:00:00 | 00:00:00 | |
| OE5MMP-10 | 2026-08-31 13:02:40 | 50.00905 | 13.51730 | 57° | 86km/h | 6688m | -9.6m/s | -21.9°C | 28.1% | 443.2hPa | 2.6V | 00:00:00 | 02:45:33 | 00:00:00 | |
| DO3MHA-11 | 2026-08-31 13:02:39 | 50.00893 | 13.51702 | 58° | 86km/h | 6698m | -9.9m/s | -21.9°C | 27.9% | 442.6hPa | 2.6V | 00:00:00 | 02:45:32 | 00:00:00 | |
| SONDE2-11 | 2026-08-31 13:02:34 | 50.00838 | 13.51558 | 59° | 88km/h | 6747m | -9.6m/s | -22.3°C | 24.4% | 439.8hPa | 2.6V | 00:00:00 | 00:00:00 | 00:00:00 | |
| EDDB2-12 | 2026-08-31 13:02:33 | 50.00814 | 13.51499 | 58° | 88km/h | 6766m | -9.9m/s | -22.4°C | 23.3% | 438.6hPa | 2.6V | 00:00:00 | 00:00:00 | 00:00:00 | |
| OE5MMP-10 | 2026-08-31 13:02:30 | 50.00792 | 13.51441 | 60° | 86km/h | 6785m | -9.6m/s | -22.5°C | 22.2% | 437.4hPa | 2.6V | 00:00:00 | 02:45:23 | 00:00:00 | |
| DO3MHA-11 | 2026-08-31 13:02:29 | 50.00781 | 13.51412 | 61° | 86km/h | 6794m | -9.2m/s | -22.5°C | 21.3% | 436.8hPa | 2.6V | 00:00:00 | 02:45:22 | 00:00:00 | |
| NBG1-10 | 2026-08-31 13:02:28 | 50.00770 | 13.51384 | 62° | 88km/h | 6803m | -9.7m/s | -22.5°C | 21.5% | 436.3hPa | 2.6V | 00:00:00 | 02:45:21 | 00:00:00 | |
| OE5DRO-10 | 2026-08-31 13:02:26 | 50.00750 | 13.51325 | 62° | 88km/h | 6823m | -9.7m/s | -22.7°C | 22.3% | 435.2hPa | 2.6V | 00:00:00 | 00:00:00 | 00:00:00 | |
| OE5MMP-10 | 2026-08-31 13:02:20 | 50.00683 | 13.51146 | 58° | 86km/h | 6881m | -9.9m/s | -22.7°C | 20.1% | 431.8hPa | 2.6V | 00:00:00 | 02:45:13 | 00:00:00 | |
| DO3MHA-11 | 2026-08-31 13:02:19 | 50.00671 | 13.51118 | 58° | 88km/h | 6891m | -9.9m/s | -22.7°C | 20.3% | 431.2hPa | 2.6V | 03:05:00 | 02:45:12 | 00:00:00 | |
| DO8TBO-1 | 2026-08-31 13:02:15 | 50.00629 | 13.51003 | 63° | 88km/h | 6929m | -9.1m/s | -22.9°C | 25.9% | 428.8hPa | 2.6V | 00:00:00 | 02:45:08 | 00:00:00 | |
| OE5MMP-10 | 2026-08-31 13:02:10 | 50.00572 | 13.50852 | 58° | 86km/h | 6977m | -9.9m/s | -23.3°C | 23.6% | 426.1hPa | 2.6V | 03:05:00 | 02:45:03 | 00:00:00 | |
| DO3MHA-11 | 2026-08-31 13:02:09 | 50.00560 | 13.50823 | 58° | 86km/h | 6987m | -9.8m/s | -23.4°C | 24.6% | 425.5hPa | 2.6V | 00:00:00 | 02:45:02 | 00:00:00 | |
| OE5DRO-10 | 2026-08-31 13:02:07 | 50.00537 | 13.50767 | 59° | 88km/h | 7006m | -9.4m/s | -23.6°C | 27.0% | 424.4hPa | 2.6V | 00:00:00 | 00:00:00 | 00:00:00 | |
| SONDE2-11 | 2026-08-31 13:02:03 | 50.00494 | 13.50652 | 60° | 86km/h | 7044m | -9.5m/s | -24.0°C | 21.6% | 422.3hPa | 2.6V | 00:00:00 | 00:00:00 | 00:00:00 | |
| EDDB2-12 | 2026-08-31 13:02:02 | 50.00472 | 13.50591 | 59° | 91km/h | 7063m | -9.6m/s | -24.2°C | 19.8% | 421.2hPa | 2.6V | 00:00:00 | 00:00:00 | 00:00:00 | |
| SONCRA | 2026-08-31 13:01:51 | 50.00341 | 13.50271 | 59° | 89km/h | 7167m | -9.4m/s | -25.1°C | 18.4% | 415.1hPa | 2.6V | 00:00:00 | 00:00:00 | 00:00:00 | |
| OE5MMP-10 | 2026-08-31 13:01:50 | 50.00330 | 13.50240 | 60° | 95km/h | 7177m | -9.2m/s | -25.1°C | 21.3% | 414.6hPa | 2.6V | 00:00:00 | 02:44:42 | 00:00:00 | |
| DO3MHA-11 | 2026-08-31 13:01:49 | 50.00330 | 13.50240 | 60° | 91km/h | 7177m | -9.2m/s | -25.1°C | 21.3% | 414.6hPa | 2.6V | 00:00:00 | 02:44:42 | 00:00:00 | |
| OE5DRO-10 | 2026-08-31 13:01:48 | 50.00318 | 13.50209 | 59° | 95km/h | 7186m | -9.4m/s | -25.1°C | 23.6% | 414.0hPa | 2.6V | 03:05:00 | 00:00:00 | 00:00:00 | |
| DO8TBO-1 | 2026-08-31 13:01:45 | 50.00278 | 13.50115 | 56° | 95km/h | 7215m | -9.5m/s | -25.2°C | 24.9% | 412.3hPa | 2.6V | 03:05:00 | 02:44:38 | 00:00:00 | |
| DO3MHA-11 | 2026-08-31 13:01:39 | 50.00202 | 13.49939 | 60° | 97km/h | 7272m | -9.6m/s | -25.7°C | 23.7% | 409.1hPa | 2.6V | 03:05:00 | 02:44:32 | 00:00:00 | |
| SONDE2-11 | 2026-08-31 13:01:32 | 50.00115 | 13.49713 | 56° | 97km/h | 7337m | -9.6m/s | -26.3°C | 21.6% | 405.4hPa | 2.6V | 00:00:00 | 00:00:00 | 00:00:00 | |
| EDDB2-12 | 2026-08-31 13:01:31 | 50.00086 | 13.49650 | 53° | 97km/h | 7356m | -9.9m/s | -26.5°C | 21.1% | 404.2hPa | 2.6V | 00:00:00 | 00:00:00 | 00:00:00 | |
| DO3MHA-11 | 2026-08-31 13:01:29 | 50.00072 | 13.49620 | 55° | 93km/h | 7366m | -10.0m/s | -26.5°C | 23.0% | 403.7hPa | 2.6V | 00:00:00 | 02:44:22 | 00:00:00 | |
| OE5MMP-10 | 2026-08-31 13:01:27 | 50.00045 | 13.49560 | 55° | 95km/h | 7386m | -9.4m/s | -26.6°C | 22.9% | 402.6hPa | 2.6V | 00:00:00 | 02:44:20 | 00:00:00 | |
| NBG1-10 | 2026-08-31 13:01:22 | 49.99983 | 13.49409 | 60° | 93km/h | 7433m | -10.1m/s | -26.8°C | 21.6% | 400.0hPa | 2.6V | 00:00:00 | 02:44:15 | 00:00:00 | |
| SONCRA | 2026-08-31 13:01:20 | 49.99958 | 13.49344 | 58° | 97km/h | 7453m | -9.6m/s | -26.9°C | 19.4% | 398.9hPa | 2.6V | 00:00:00 | 00:00:00 | 00:00:00 | |
| DO3MHA-11 | 2026-08-31 13:01:19 | 49.99944 | 13.49312 | 58° | 93km/h | 7462m | -9.8m/s | -26.8°C | 21.7% | 398.4hPa | 2.6V | 00:00:00 | 02:44:12 | 00:00:00 | |
| EDDB2-11 | 2026-08-31 13:01:17 | 49.99917 | 13.49248 | 55° | 95km/h | 7481m | -9.3m/s | -27.1°C | 20.0% | 397.3hPa | 2.6V | 00:00:00 | 00:00:00 | 00:00:00 | |
| OE5MMP-10 | 2026-08-31 13:01:16 | 49.99903 | 13.49217 | 55° | 91km/h | 7490m | -9.5m/s | -27.1°C | 22.4% | 396.7hPa | 2.6V | 03:06:00 | 02:44:09 | 00:00:00 | |
| DO8TBO-1 | 2026-08-31 13:01:15 | 49.99890 | 13.49187 | 54° | 91km/h | 7500m | -10.1m/s | -27.2°C | 22.6% | 396.1hPa | 2.6V | 00:00:00 | 02:44:08 | 00:00:00 | |
| DL2RXE-15 | 2026-08-31 13:01:14 | 49.99889 | 13.49187 | 55° | 95km/h | 7500m | -10.1m/s | -27.2°C | 20.5% | 396.1hPa | 2.6V | 00:00:00 | 00:00:00 | 00:00:00 | |
| OE5DRO-10 | 2026-08-31 13:01:10 | 49.99823 | 13.49045 | 55° | 91km/h | 7548m | -9.9m/s | -27.6°C | 23.6% | 393.5hPa | 2.6V | 00:00:00 | 00:00:00 | 00:00:00 | |
| DO3MHA-11 | 2026-08-31 13:01:09 | 49.99810 | 13.49018 | 55° | 91km/h | 7558m | -9.8m/s | -27.7°C | 23.8% | 392.9hPa | 2.6V | 00:00:00 | 02:44:02 | 00:00:00 | |
| SONDE2-11 | 2026-08-31 13:01:01 | 49.99710 | 13.48778 | 55° | 93km/h | 7634m | -9.2m/s | -28.4°C | 22.2% | 388.9hPa | 2.6V | 00:00:00 | 00:00:00 | 00:00:00 | |
| EDDB2-12 | 2026-08-31 13:01:00 | 49.99682 | 13.48718 | 53° | 93km/h | 7652m | -9.8m/s | -28.5°C | 20.9% | 387.7hPa | 2.6V | 00:00:00 | 00:00:00 | 00:00:00 | |
| SONCRA | 2026-08-31 13:00:49 | 49.99474 | 13.48269 | 50° | 93km/h | 7799m | -10.4m/s | -29.4°C | 17.9% | 380.0hPa | 2.6V | 00:00:00 | 00:00:00 | 00:00:00 | |
| EDDB2-11 | 2026-08-31 13:00:47 | 49.99474 | 13.48269 | 50° | 93km/h | 7799m | -10.4m/s | -29.4°C | 17.9% | 380.0hPa | 2.6V | 00:00:00 | 00:00:00 | 00:00:00 | |
| DO8TBO-1 | 2026-08-31 13:00:45 | 49.99490 | 13.48298 | 51° | 93km/h | 7789m | -10.5m/s | -29.3°C | 20.0% | 380.5hPa | 2.6V | 00:00:00 | 02:43:38 | 00:00:00 | |
| DO3MHA-11 | 2026-08-31 13:00:39 | 49.99402 | 13.48131 | 52° | 88km/h | 7849m | -9.6m/s | -29.7°C | 21.0% | 377.4hPa | 2.7V | 00:00:00 | 02:43:32 | 00:00:00 | |
| OE5DRO-10 | 2026-08-31 13:00:32 | 49.99310 | 13.47937 | 53° | 95km/h | 7915m | -9.7m/s | -30.3°C | 20.9% | 373.8hPa | 2.6V | 03:06:00 | 00:00:00 | 00:00:00 | |
| SONDE2-11 | 2026-08-31 13:00:30 | 49.99283 | 13.47882 | 52° | 88km/h | 7934m | -9.8m/s | -30.5°C | 18.7% | 372.9hPa | 2.6V | 00:00:00 | 00:00:00 | 00:00:00 | |
| DO3MHA-11 | 2026-08-31 13:00:29 | 49.99269 | 13.47854 | 54° | 99km/h | 7944m | -10.1m/s | -30.5°C | 20.7% | 372.3hPa | 2.6V | 00:00:00 | 02:43:22 | 00:00:00 | |
| EDDB2-12 | 2026-08-31 13:00:28 | 49.99256 | 13.47825 | 54° | 91km/h | 7954m | -9.8m/s | -30.6°C | 18.0% | 371.9hPa | 2.6V | 00:00:00 | 00:00:00 | 00:00:00 | |
| OE5MMP-10 | 2026-08-31 13:00:27 | 49.99242 | 13.47795 | 55° | 99km/h | 7964m | -9.9m/s | -30.6°C | 20.1% | 371.3hPa | 2.6V | 00:00:00 | 02:43:20 | 00:00:00 | |
| DB0NH | 2026-08-31 13:00:22 | 49.99167 | 13.47639 | 51° | 93km/h | 8013m | -10.0m/s | -31.0°C | 18.4% | 368.8hPa | 2.6V | 00:00:00 | 02:43:15 | 00:00:00 | |
| DO3MHA-11 | 2026-08-31 13:00:19 | 49.99118 | 13.47549 | 48° | 93km/h | 8043m | -10.1m/s | -31.3°C | 18.2% | 367.2hPa | 2.6V | 03:07:00 | 02:43:12 | 00:00:00 | |
| SONCRA | 2026-08-31 13:00:18 | 49.99070 | 13.47466 | 48° | 91km/h | 8073m | -10.3m/s | -31.6°C | 16.1% | 365.7hPa | 2.6V | 00:00:00 | 00:00:00 | 00:00:00 | |
| DO8TBO-1 | 2026-08-31 13:00:17 | 49.99055 | 13.47438 | 50° | 93km/h | 8083m | -9.8m/s | -31.6°C | 18.3% | 365.2hPa | 2.6V | 00:00:00 | 02:43:08 | 00:00:00 | |
| OE5DRO-10 | 2026-08-31 13:00:13 | 49.99026 | 13.47383 | 53° | 93km/h | 8102m | -9.9m/s | -31.7°C | 18.6% | 364.2hPa | 2.6V | 00:00:00 | 00:00:00 | 00:00:00 | |
| DO3MHA-11 | 2026-08-31 13:00:09 | 49.98969 | 13.47267 | 54° | 95km/h | 8141m | -9.8m/s | -32.0°C | 19.1% | 362.1hPa | 2.6V | 00:00:00 | 02:43:02 | 00:00:00 | |
| SONDE2-11 | 2026-08-31 12:59:59 | 49.98813 | 13.46940 | 51° | 88km/h | 8247m | -10.0m/s | -33.0°C | 16.9% | 356.7hPa | 2.6V | 00:00:00 | 00:00:00 | 00:00:00 | |
| EDDB2-12 | 2026-08-31 12:59:57 | 49.98799 | 13.46913 | 51° | 88km/h | 8257m | -10.1m/s | -33.1°C | 16.7% | 356.2hPa | 2.6V | 00:00:00 | 00:00:00 | 00:00:00 | |
| EDDB2-11 | 2026-08-31 12:59:44 | 49.98606 | 13.46522 | 48° | 97km/h | 8387m | -10.1m/s | -34.1°C | 16.1% | 349.8hPa | 2.6V | 00:00:00 | 00:00:00 | 00:00:00 | |
| NBG1-10 | 2026-08-31 12:59:43 | 49.98590 | 13.46494 | 49° | 104km/h | 8398m | -10.2m/s | -34.1°C | 18.4% | 349.2hPa | 2.6V | 03:07:00 | 02:42:36 | 00:00:00 | |
| DO3MHA-11 | 2026-08-31 12:59:39 | 49.98528 | 13.46377 | 53° | 102km/h | 8437m | -9.4m/s | -34.3°C | 18.3% | 347.3hPa | 2.6V | 03:07:00 | 02:42:32 | 00:00:00 | |
| OE5MMP-10 | 2026-08-31 12:59:38 | 49.98514 | 13.46347 | 55° | 102km/h | 8447m | -9.4m/s | -34.4°C | 18.3% | 346.8hPa | 2.6V | 00:00:00 | 02:42:31 | 00:00:00 | |
| OE5DRO-10 | 2026-08-31 12:59:35 | 49.98470 | 13.46250 | 55° | 104km/h | 8476m | -10.3m/s | -34.6°C | 18.6% | 345.3hPa | 2.6V | 00:00:00 | 00:00:00 | 00:00:00 | |
| DO3MHA-11 | 2026-08-31 12:59:29 | 49.98375 | 13.46053 | 52° | 104km/h | 8537m | -10.5m/s | -35.0°C | 18.1% | 342.4hPa | 2.6V | 00:00:00 | 02:42:22 | 00:00:00 | |
| SONDE2-11 | 2026-08-31 12:59:28 | 49.98344 | 13.45990 | 53° | 99km/h | 8557m | -10.0m/s | -35.2°C | 15.4% | 341.5hPa | 2.6V | 00:00:00 | 00:00:00 | 00:00:00 | |
| EDDB2-12 | 2026-08-31 12:59:26 | 49.98330 | 13.45958 | 54° | 99km/h | 8567m | -10.1m/s | -35.2°C | 15.1% | 341.0hPa | 2.6V | 00:00:00 | 00:00:00 | 00:00:00 | |
| DB0NH | 2026-08-31 12:59:22 | 49.98272 | 13.45823 | 57° | 111km/h | 8607m | -9.7m/s | -35.5°C | 16.8% | 339.0hPa | 2.6V | 00:00:00 | 02:42:15 | 00:00:00 | |
| DO3MHA-11 | 2026-08-31 12:59:19 | 49.98226 | 13.45718 | 56° | 110km/h | 8636m | -9.3m/s | -35.8°C | 16.2% | 337.6hPa | 2.6V | 00:00:00 | 02:42:12 | 00:00:00 | |
| OE5MMP-10 | 2026-08-31 12:59:18 | 49.98210 | 13.45683 | 55° | 110km/h | 8646m | -9.8m/s | -35.9°C | 15.7% | 337.1hPa | 2.6V | 00:00:00 | 02:42:11 | 00:00:00 | |
| DB0UT-9 | 2026-08-31 12:59:17 | 49.98210 | 13.45683 | 55° | 110km/h | 8646m | -9.9m/s | -35.9°C | 13.3% | 337.1hPa | 2.6V | 03:08:00 | 00:00:00 | 00:00:00 | |
| OE5DRO-10 | 2026-08-31 12:59:16 | 49.98178 | 13.45613 | 56° | 111km/h | 8666m | -10.1m/s | -36.0°C | 14.2% | 336.2hPa | 2.6V | 03:08:00 | 00:00:00 | 00:00:00 | |
| DB0UT-7 | 2026-08-31 12:59:13 | 49.98132 | 13.45506 | 58° | 111km/h | 8696m | -10.7m/s | -36.2°C | 11.8% | 334.7hPa | 2.6V | 00:00:00 | 00:00:00 | 00:00:00 | |
| DO8TBO-1 | 2026-08-31 12:59:12 | 49.98103 | 13.45434 | 59° | 111km/h | 8717m | -10.3m/s | -36.2°C | 11.0% | 333.7hPa | 2.6V | 00:00:00 | 02:42:04 | 00:00:00 | |
| NBG1-10 | 2026-08-31 12:59:10 | 49.98089 | 13.45398 | 60° | 111km/h | 8728m | -10.4m/s | -36.2°C | 10.8% | 333.3hPa | 2.6V | 00:00:00 | 02:42:03 | 00:00:00 | |
| DO3MHA-11 | 2026-08-31 12:59:09 | 49.98075 | 13.45361 | 60° | 111km/h | 8738m | -10.6m/s | -36.3°C | 10.6% | 332.8hPa | 2.6V | 00:00:00 | 02:42:02 | 00:00:00 | |
| OE5MMP-10 | 2026-08-31 12:59:08 | 49.98060 | 13.45323 | 60° | 111km/h | 8749m | -10.7m/s | -36.3°C | 10.4% | 332.3hPa | 2.6V | 00:00:00 | 02:42:01 | 00:00:00 | |
| PG1ADW-2 | 2026-08-31 12:59:04 | 49.98003 | 13.45174 | 61° | 113km/h | 8791m | -10.5m/s | -36.5°C | 10.2% | 330.3hPa | 2.6V | 03:08:00 | 00:00:00 | 00:00:00 | |
| DL1JEZ-13 | 2026-08-31 12:59:01 | 49.97975 | 13.45098 | 61° | 111km/h | 8811m | -9.9m/s | -36.8°C | 8.3% | 329.4hPa | 2.6V | 00:00:00 | 00:00:00 | 00:00:00 | |
| SONDE2-11 | 2026-08-31 12:58:57 | 49.97888 | 13.44868 | 60° | 111km/h | 8873m | -10.1m/s | -37.2°C | 9.0% | 326.4hPa | 2.6V | 00:00:00 | 00:00:00 | 00:00:00 | |
| EDDB2-12 | 2026-08-31 12:58:55 | 49.97874 | 13.44829 | 60° | 113km/h | 8883m | -10.6m/s | -37.3°C | 9.1% | 326.0hPa | 2.6V | 00:00:00 | 00:00:00 | 00:00:00 | |
| DB0NH | 2026-08-31 12:58:52 | 49.97832 | 13.44714 | 61° | 111km/h | 8914m | -10.3m/s | -37.5°C | 11.7% | 324.5hPa | 2.6V | 00:00:00 | 02:41:45 | 00:00:00 | |
| DO3MHA-11 | 2026-08-31 12:58:49 | 49.97789 | 13.44597 | 60° | 111km/h | 8944m | -10.0m/s | -37.7°C | 12.2% | 323.1hPa | 2.6V | 00:00:00 | 02:41:42 | 00:00:00 | |
| OE5MMP-10 | 2026-08-31 12:58:48 | 49.97775 | 13.44558 | 60° | 111km/h | 8954m | -10.2m/s | -37.8°C | 12.3% | 322.6hPa | 2.6V | 03:08:00 | 02:41:41 | 00:00:00 | |
| PG1ADW-2 | 2026-08-31 12:58:44 | 49.97716 | 13.44407 | 60° | 111km/h | 8994m | -9.6m/s | -38.2°C | 12.8% | 320.7hPa | 2.6V | 00:00:00 | 00:00:00 | 00:00:00 | |
| DB0UT-7 | 2026-08-31 12:58:43 | 49.97702 | 13.44369 | 60° | 111km/h | 9003m | -9.7m/s | -38.3°C | 13.0% | 320.3hPa | 2.7V | 00:00:00 | 02:41:36 | 00:00:00 | |
| DO8TBO-1 | 2026-08-31 12:58:42 | 49.97687 | 13.44332 | 60° | 111km/h | 9013m | -9.7m/s | -38.3°C | 13.2% | 319.8hPa | 2.7V | 00:00:00 | 02:41:35 | 00:00:00 | |
| DO3MHA-11 | 2026-08-31 12:58:39 | 49.97645 | 13.44219 | 61° | 111km/h | 9043m | -9.8m/s | -38.6°C | 13.9% | 318.4hPa | 2.7V | 00:00:00 | 02:41:32 | 00:00:00 | |
| OE5MMP-10 | 2026-08-31 12:58:38 | 49.97631 | 13.44181 | 60° | 111km/h | 9052m | -9.8m/s | -38.7°C | 14.2% | 317.9hPa | 2.6V | 00:00:00 | 02:41:31 | 00:00:00 | |
| NBG1-10 | 2026-08-31 12:58:37 | 49.97617 | 13.44143 | 60° | 111km/h | 9062m | -9.9m/s | -38.8°C | 14.4% | 317.4hPa | 2.6V | 00:00:00 | 02:41:30 | 00:00:00 | |
| DB0UT-9 | 2026-08-31 12:58:35 | 49.97602 | 13.44105 | 60° | 111km/h | 9072m | -10.1m/s | -38.9°C | 12.2% | 317.0hPa | 2.6V | 00:00:00 | 00:00:00 | 00:00:00 | |
| DO3MHA-11 | 2026-08-31 12:58:29 | 49.97503 | 13.43840 | 61° | 111km/h | 9142m | -9.8m/s | -39.5°C | 15.2% | 313.8hPa | 2.6V | 00:00:00 | 02:41:22 | 00:00:00 | |
| OE5MMP-10 | 2026-08-31 12:58:28 | 49.97489 | 13.43802 | 61° | 111km/h | 9152m | -9.6m/s | -39.5°C | 15.3% | 313.3hPa | 2.6V | 00:00:00 | 02:41:21 | 00:00:00 | |
| SONDE2-11 | 2026-08-31 12:58:26 | 49.97448 | 13.43690 | 59° | 110km/h | 9181m | -10.0m/s | -39.9°C | 13.0% | 312.0hPa | 2.6V | 00:00:00 | 00:00:00 | 00:00:00 | |
| PG1ADW-2 | 2026-08-31 12:58:24 | 49.97434 | 13.43653 | 60° | 111km/h | 9191m | -10.1m/s | -39.9°C | 15.9% | 311.4hPa | 2.6V | 00:00:00 | 02:41:17 | 00:00:00 | |
| DB0NH | 2026-08-31 12:58:22 | 49.97406 | 13.43578 | 60° | 111km/h | 9211m | -10.2m/s | -40.1°C | 16.2% | 310.5hPa | 2.6V | 00:00:00 | 02:41:15 | 00:00:00 | |
| DO3MHA-11 | 2026-08-31 12:58:19 | 49.97364 | 13.43465 | 60° | 111km/h | 9242m | -10.6m/s | -40.3°C | 16.7% | 309.1hPa | 2.6V | 03:09:00 | 02:41:12 | 00:00:00 | |
| OE5MMP-10 | 2026-08-31 12:58:18 | 49.97349 | 13.43427 | 60° | 111km/h | 9253m | -10.5m/s | -40.4°C | 16.7% | 308.6hPa | 2.6V | 00:00:00 | 02:41:11 | 00:00:00 | |
| DF2AP-13 | 2026-08-31 12:58:13 | 49.97276 | 13.43240 | 59° | 111km/h | 9306m | -10.6m/s | -40.9°C | 17.2% | 306.4hPa | 2.6V | 00:00:00 | 02:41:06 | 00:00:00 | |
| EDDB2-11 | 2026-08-31 12:58:11 | 49.97247 | 13.43165 | 58° | 111km/h | 9327m | -10.7m/s | -41.1°C | 14.4% | 305.5hPa | 2.6V | 00:00:00 | 00:00:00 | 00:00:00 | |
| DO3MHA-11 | 2026-08-31 12:58:09 | 49.97218 | 13.43090 | 59° | 111km/h | 9348m | -10.5m/s | -41.3°C | 17.7% | 304.5hPa | 2.6V | 00:00:00 | 02:41:02 | 00:00:00 | |
| OE5MMP-10 | 2026-08-31 12:58:08 | 49.97203 | 13.43052 | 60° | 111km/h | 9359m | -10.7m/s | -41.4°C | 18.0% | 304.1hPa | 2.6V | 03:09:00 | 02:41:01 | 00:00:00 | |
| NBG1-10 | 2026-08-31 12:58:04 | 49.97146 | 13.42901 | 60° | 113km/h | 9400m | -9.8m/s | -41.7°C | 18.4% | 302.2hPa | 2.6V | 00:00:00 | 02:40:57 | 00:00:00 | |
| SONDE2-11 | 2026-08-31 12:57:55 | 49.97000 | 13.42523 | 59° | 111km/h | 9504m | -10.3m/s | -42.7°C | 15.8% | 297.5hPa | 2.6V | 00:00:00 | 00:00:00 | 00:00:00 | |
| OE3JTB-15 | 2026-08-31 12:57:53 | 49.96986 | 13.42486 | 60° | 128km/h | 9514m | -10.6m/s | -42.7°C | 19.3% | 297.1hPa | 2.6V | 00:00:00 | 00:00:00 | 00:00:00 | |
| DB0NH | 2026-08-31 12:57:52 | 49.96971 | 13.42447 | 61° | 117km/h | 9525m | -10.7m/s | -42.8°C | 19.3% | 296.6hPa | 2.6V | 03:09:00 | 02:40:45 | 00:00:00 | |
| DO3MHA-11 | 2026-08-31 12:57:49 | 49.96929 | 13.42332 | 61° | 113km/h | 9556m | -10.5m/s | -43.1°C | 19.3% | 295.2hPa | 2.6V | 00:00:00 | 02:40:42 | 00:00:00 | |
| OE5MMP-10 | 2026-08-31 12:57:48 | 49.96914 | 13.42294 | 61° | 113km/h | 9567m | -10.9m/s | -43.2°C | 19.4% | 294.7hPa | 2.6V | 00:00:00 | 02:40:41 | 00:00:00 | |
| OE5DXL-15 | 2026-08-31 12:57:45 | 49.96873 | 13.42178 | 62° | 115km/h | 9599m | -10.4m/s | -43.4°C | 19.5% | 293.4hPa | 2.6V | 00:00:00 | 00:00:00 | 00:00:00 | |
| PG1ADW-2 | 2026-08-31 12:57:44 | 49.96859 | 13.42140 | 61° | 113km/h | 9610m | -10.6m/s | -43.5°C | 19.6% | 292.9hPa | 2.6V | 03:09:00 | 00:00:00 | 00:00:00 | |
| SONCRA | 2026-08-31 12:57:43 | 49.96817 | 13.42024 | 59° | 111km/h | 9641m | -10.4m/s | -43.9°C | 16.0% | 291.6hPa | 2.6V | 00:00:00 | 00:00:00 | 00:00:00 | |
| SP3BTT-10 | 2026-08-31 12:57:41 | 49.96817 | 13.42024 | 60° | 120km/h | 9641m | -10.4m/s | -43.8°C | 19.7% | 291.5hPa | 2.6V | 00:00:00 | 00:00:00 | 00:00:00 | |
| EDDB2-11 | 2026-08-31 12:57:40 | 49.96802 | 13.41986 | 59° | 113km/h | 9652m | -10.8m/s | -44.0°C | 16.0% | 291.1hPa | 2.6V | 00:00:00 | 00:00:00 | 00:00:00 | |
| DO3MHA-11 | 2026-08-31 12:57:39 | 49.96788 | 13.41947 | 59° | 113km/h | 9662m | -10.5m/s | -44.0°C | 19.7% | 290.6hPa | 2.6V | 03:09:00 | 02:40:32 | 00:00:00 | |
| OE5MMP-10 | 2026-08-31 12:57:38 | 49.96773 | 13.41910 | 60° | 113km/h | 9673m | -10.2m/s | -44.1°C | 19.6% | 290.1hPa | 2.6V | 00:00:00 | 02:40:31 | 00:00:00 | |
| DF2AP-13 | 2026-08-31 12:57:34 | 49.96716 | 13.41758 | 61° | 117km/h | 9715m | -10.5m/s | -44.4°C | 19.3% | 288.4hPa | 2.6V | 00:00:00 | 02:40:27 | 00:00:00 | |
| NBG1-10 | 2026-08-31 12:57:31 | 49.96674 | 13.41643 | 61° | 119km/h | 9747m | -10.4m/s | -44.6°C | 18.9% | 287.0hPa | 2.6V | 03:09:00 | 02:40:24 | 00:00:00 | |
| DO3MHA-11 | 2026-08-31 12:57:29 | 49.96646 | 13.41565 | 61° | 113km/h | 9768m | -10.9m/s | -44.7°C | 18.5% | 286.0hPa | 2.6V | 00:00:00 | 02:40:22 | 00:00:00 | |
| DB0UT-7 | 2026-08-31 12:57:28 | 49.96632 | 13.41526 | 62° | 117km/h | 9779m | -10.4m/s | -44.8°C | 18.5% | 285.6hPa | 2.6V | 00:00:00 | 00:00:00 | 00:00:00 | |
| SONDE2-11 | 2026-08-31 12:57:24 | 49.96563 | 13.41330 | 60° | 113km/h | 9832m | -10.9m/s | -45.3°C | 14.8% | 283.4hPa | 2.6V | 00:00:00 | 00:00:00 | 00:00:00 | |
| OE5DRO-10 | 2026-08-31 12:57:22 | 49.96549 | 13.41291 | 62° | 119km/h | 9843m | -10.7m/s | -45.3°C | 18.5% | 282.9hPa | 2.6V | 00:00:00 | 00:00:00 | 00:00:00 | |
| DO3MHA-11 | 2026-08-31 12:57:19 | 49.96506 | 13.41174 | 61° | 119km/h | 9875m | -10.6m/s | -45.5°C | 18.4% | 281.6hPa | 2.6V | 00:00:00 | 02:40:12 | 00:00:00 | |
| OE5MMP-10 | 2026-08-31 12:57:18 | 49.96492 | 13.41134 | 61° | 119km/h | 9886m | -10.8m/s | -45.6°C | 18.6% | 281.1hPa | 2.6V | 00:00:00 | 02:40:11 | 00:00:00 | |
| DB0UT-9 | 2026-08-31 12:57:13 | 49.96433 | 13.40974 | 61° | 119km/h | 9929m | -10.8m/s | -45.9°C | 14.9% | 279.3hPa | 2.6V | 03:10:00 | 00:00:00 | 00:00:00 | |
| DO3MHA-11 | 2026-08-31 12:57:09 | 49.96359 | 13.40770 | 61° | 122km/h | 9983m | -10.9m/s | -46.3°C | 19.0% | 277.0hPa | 2.6V | 00:00:00 | 02:40:02 | 00:00:00 | |
| OE5MMP-10 | 2026-08-31 12:57:08 | 49.96344 | 13.40729 | 61° | 122km/h | 9994m | -10.9m/s | -46.4°C | 19.3% | 276.6hPa | 2.7V | 00:00:00 | 02:40:01 | 00:00:00 | |
| DF2AP-13 | 2026-08-31 12:57:05 | 49.96284 | 13.40563 | 61° | 124km/h | 10038m | -10.6m/s | -46.6°C | 19.8% | 274.8hPa | 2.6V | 00:00:00 | 02:39:57 | 00:00:00 | |
| OE5DRO-10 | 2026-08-31 12:57:03 | 49.96269 | 13.40521 | 62° | 124km/h | 10049m | -10.6m/s | -46.7°C | 20.0% | 274.3hPa | 2.7V | 00:00:00 | 00:00:00 | 00:00:00 | |
| DL6DJ-15 | 2026-08-31 12:56:58 | 49.96195 | 13.40310 | 62° | 122km/h | 10102m | -11.1m/s | -47.2°C | 16.7% | 272.1hPa | 2.7V | 00:00:00 | 00:00:00 | 00:00:00 | |
| SONDE2-11 | 2026-08-31 12:56:52 | 49.96108 | 13.40053 | 63° | 124km/h | 10168m | -11.2m/s | -47.6°C | 17.7% | 269.4hPa | 2.7V | 00:00:00 | 00:00:00 | 00:00:00 | |
| EDDB2-12 | 2026-08-31 12:56:51 | 49.96094 | 13.40009 | 63° | 122km/h | 10180m | -10.9m/s | -47.7°C | 17.9% | 268.9hPa | 2.7V | 00:00:00 | 00:00:00 | 00:00:00 | |
| DO3MHA-11 | 2026-08-31 12:56:49 | 49.96066 | 13.39923 | 64° | 124km/h | 10202m | -10.9m/s | -47.8°C | 22.9% | 267.9hPa | 2.7V | 00:00:00 | 02:39:42 | 00:00:00 | |
| OE5MMP-10 | 2026-08-31 12:56:48 | 49.96052 | 13.39880 | 63° | 124km/h | 10213m | -11.3m/s | -47.9°C | 23.1% | 267.5hPa | 2.7V | 03:10:00 | 02:39:41 | 00:00:00 | |
| PG1ADW-2 | 2026-08-31 12:56:44 | 49.95995 | 13.39706 | 63° | 126km/h | 10258m | -11.1m/s | -48.2°C | 23.7% | 265.7hPa | 2.7V | 00:00:00 | 00:00:00 | 00:00:00 | |
| DO3MHA-11 | 2026-08-31 12:56:39 | 49.95923 | 13.39489 | 62° | 126km/h | 10315m | -11.3m/s | -48.6°C | 24.1% | 263.4hPa | 2.7V | 00:00:00 | 02:39:32 | 00:00:00 | |
| DB0NH | 2026-08-31 12:56:38 | 49.95908 | 13.39445 | 62° | 128km/h | 10326m | -11.3m/s | -48.7°C | 24.1% | 262.9hPa | 2.7V | 00:00:00 | 02:39:31 | 00:00:00 | |
| DL1JEZ-13 | 2026-08-31 12:56:37 | 49.95908 | 13.39445 | 63° | 126km/h | 10326m | -11.3m/s | -48.7°C | 19.2% | 263.0hPa | 2.7V | 00:00:00 | 00:00:00 | 00:00:00 | |
| OE5MMP-10 | 2026-08-31 12:56:34 | 49.95848 | 13.39272 | 62° | 126km/h | 10372m | -11.5m/s | -48.9°C | 24.3% | 261.2hPa | 2.7V | 00:00:00 | 02:39:27 | 00:00:00 | |
| OE5DXL-15 | 2026-08-31 12:56:33 | 49.95833 | 13.39229 | 62° | 130km/h | 10383m | -11.6m/s | -49.0°C | 24.5% | 260.7hPa | 2.7V | 03:10:00 | 00:00:00 | 00:00:00 | |
| DO3MHA-11 | 2026-08-31 12:56:29 | 49.95773 | 13.39057 | 62° | 126km/h | 10430m | -11.3m/s | -49.3°C | 25.2% | 258.9hPa | 2.7V | 00:00:00 | 02:39:22 | 00:00:00 | |
| DF2AP-13 | 2026-08-31 12:56:28 | 49.95758 | 13.39014 | 62° | 131km/h | 10441m | -11.1m/s | -49.3°C | 25.4% | 258.5hPa | 2.7V | 03:10:00 | 02:39:21 | 00:00:00 | |
| DL6DJ-15 | 2026-08-31 12:56:27 | 49.95743 | 13.38971 | 61° | 124km/h | 10452m | -11.6m/s | -49.5°C | 20.4% | 258.1hPa | 2.7V | 00:00:00 | 00:00:00 | 00:00:00 | |
| NBG1-10 | 2026-08-31 12:56:25 | 49.95712 | 13.38885 | 61° | 133km/h | 10475m | -11.4m/s | -49.5°C | 26.0% | 257.1hPa | 2.7V | 00:00:00 | 02:39:18 | 00:00:00 | |
| OE5MMP-10 | 2026-08-31 12:56:24 | 49.95696 | 13.38842 | 61° | 130km/h | 10487m | -11.5m/s | -49.6°C | 26.2% | 256.6hPa | 2.7V | 00:00:00 | 02:39:17 | 00:00:00 | |
| SONDE2-11 | 2026-08-31 12:56:21 | 49.95648 | 13.38711 | 60° | 128km/h | 10521m | -11.5m/s | -49.9°C | 21.0% | 255.3hPa | 2.7V | 00:00:00 | 00:00:00 | 00:00:00 | |
| EDDB2-12 | 2026-08-31 12:56:20 | 49.95632 | 13.38667 | 60° | 128km/h | 10532m | -11.5m/s | -50.0°C | 21.3% | 254.9hPa | 2.7V | 00:00:00 | 00:00:00 | 00:00:00 | |
| DO3MHA-11 | 2026-08-31 12:56:19 | 49.95616 | 13.38622 | 61° | 131km/h | 10544m | -11.6m/s | -49.9°C | 26.9% | 254.5hPa | 2.7V | 03:11:00 | 02:39:12 | 00:00:00 | |
| OE5MMP-10 | 2026-08-31 12:56:14 | 49.95536 | 13.38397 | 62° | 135km/h | 10602m | -11.4m/s | -50.2°C | 27.7% | 252.2hPa | 2.7V | 00:00:00 | 02:39:07 | 00:00:00 | |
| DO3MHA-11 | 2026-08-31 12:56:09 | 49.95457 | 13.38164 | 63° | 137km/h | 10659m | -11.5m/s | -50.5°C | 27.5% | 250.0hPa | 2.7V | 00:00:00 | 02:39:02 | 00:00:00 | |
| DB0NH | 2026-08-31 12:56:08 | 49.95441 | 13.38116 | 64° | 133km/h | 10671m | -11.5m/s | -50.5°C | 27.3% | 249.6hPa | 2.6V | 00:00:00 | 02:39:01 | 00:00:00 | |
| EDDB2-11 | 2026-08-31 12:56:07 | 49.95410 | 13.38020 | 63° | 137km/h | 10694m | -11.5m/s | -50.8°C | 21.7% | 248.7hPa | 2.6V | 00:00:00 | 00:00:00 | 00:00:00 | |
| OE5DRO-10 | 2026-08-31 12:56:06 | 49.95410 | 13.38019 | 64° | 133km/h | 10694m | -11.4m/s | -50.7°C | 27.4% | 248.7hPa | 2.6V | 00:00:00 | 00:00:00 | 00:00:00 | |
| OE5MMP-10 | 2026-08-31 12:56:04 | 49.95380 | 13.37923 | 65° | 133km/h | 10717m | -11.8m/s | -50.9°C | 27.4% | 247.8hPa | 2.7V | 03:11:00 | 02:38:57 | 00:00:00 | |
| OE5DXL-15 | 2026-08-31 12:56:03 | 49.95366 | 13.37875 | 65° | 133km/h | 10729m | -11.6m/s | -51.0°C | 27.4% | 247.3hPa | 2.6V | 00:00:00 | 00:00:00 | 00:00:00 | |
| DF7PN | 2026-08-31 12:55:56 | 49.95225 | 13.37400 | 65° | 131km/h | 10844m | -11.7m/s | -51.8°C | 21.3% | 243.0hPa | 2.6V | 00:00:00 | 00:00:00 | 00:00:00 | |
| DL1NUX | 2026-08-31 12:55:54 | 49.95196 | 13.37306 | 64° | 133km/h | 10867m | -11.6m/s | -52°C | 27.1% | 242.2hPa | 2.6V | 03:11:33 | 02:38:44 | 00:00:00 | |
| SONDE2-11 | 2026-08-31 12:55:51 | 49.95181 | 13.37258 | 64° | 131km/h | 10879m | -11.5m/s | -52.1°C | 21.1% | 241.7hPa | 2.6V | 00:00:00 | 00:00:00 | 00:00:00 | |
| DO3MHA-11 | 2026-08-31 12:55:49 | 49.95167 | 13.37212 | 65° | 131km/h | 10890m | -11.2m/s | -52.1°C | 27.1% | 241.3hPa | 2.6V | 00:00:00 | 02:38:42 | 00:00:00 | |
| OE5DRO-10 | 2026-08-31 12:55:47 | 49.95138 | 13.37118 | 64° | 133km/h | 10913m | -11.5m/s | -52.2°C | 26.9% | 240.4hPa | 2.6V | 00:00:00 | 00:00:00 | 00:00:00 | |
| DL1NUX | 2026-08-31 12:55:45 | 49.95034 | 13.36798 | 62° | 131km/h | 10994m | -11.9m/s | -52.6°C | 26% | 237.4hPa | 2.6V | 03:11:44 | 02:38:33 | 00:00:00 | |
| OE5MMP-10 | 2026-08-31 12:55:44 | 49.95094 | 13.36980 | 64° | 131km/h | 10948m | -11.3m/s | -52.4°C | 26.5% | 239.1hPa | 2.6V | 00:00:00 | 02:38:37 | 00:00:00 | |
| DO3MHA-11 | 2026-08-31 12:55:39 | 49.95019 | 13.36752 | 63° | 133km/h | 11006m | -11.9m/s | -52.7°C | 26.0% | 236.9hPa | 2.6V | 03:11:00 | 02:38:32 | 00:00:00 | |
| DB0NH | 2026-08-31 12:55:38 | 49.95003 | 13.36706 | 63° | 141km/h | 11018m | -11.7m/s | -52.7°C | 25.9% | 236.5hPa | 2.7V | 03:11:00 | 02:38:31 | 00:00:00 | |
| EDDB2-11 | 2026-08-31 12:55:36 | 49.94956 | 13.36568 | 62° | 133km/h | 11054m | -11.8m/s | -52.9°C | 19.4% | 235.2hPa | 2.7V | 00:00:00 | 00:00:00 | 00:00:00 | |
| DL1NUX | 2026-08-31 12:55:34 | 49.94877 | 13.36335 | 61° | 135km/h | 11112m | -12.1m/s | -53.1°C | 24.8% | 233.1hPa | 2.7V | 03:11:54 | 02:38:23 | 00:00:00 | |
| OE5MMP-10 | 2026-08-31 12:55:34 | 49.94940 | 13.36521 | 63° | 135km/h | 11065m | -11.7m/s | -53.0°C | 25.3% | 234.8hPa | 2.6V | 00:00:00 | 02:38:27 | 00:00:00 | |
| OE5DXL-15 | 2026-08-31 12:55:33 | 49.94925 | 13.36475 | 63° | 146km/h | 11077m | -11.5m/s | -53.1°C | 25.2% | 234.4hPa | 2.6V | 00:00:00 | 00:00:00 | 00:00:00 | |
| DB0UT-9 | 2026-08-31 12:55:32 | 49.94909 | 13.36428 | 63° | 135km/h | 11089m | -11.9m/s | -53.2°C | 19.3% | 234.0hPa | 2.6V | 03:12:00 | 00:00:00 | 00:00:00 | |
| AM1SDL-15 | 2026-08-31 12:55:31 | 49.94893 | 13.36382 | 62° | 137km/h | 11101m | -11.7m/s | 0°C | 0% | 0hPa | 2.6V | 00:00:00 | 02:38:24 | 00:00:00 | |
| DO3MHA-11 | 2026-08-31 12:55:29 | 49.94860 | 13.36289 | 62° | 139km/h | 11125m | -11.8m/s | -53.1°C | 24.6% | 232.7hPa | 2.6V | 00:00:00 | 02:38:22 | 00:00:00 | |
| DF2AP-13 | 2026-08-31 12:55:28 | 49.94844 | 13.36243 | 62° | 161km/h | 11136m | -11.7m/s | -53.2°C | 24.4% | 232.2hPa | 2.6V | 00:00:00 | 02:38:21 | 00:00:00 | |
| DL6DJ-15 | 2026-08-31 12:55:25 | 49.94777 | 13.36057 | 59° | 137km/h | 11183m | -11.8m/s | -53.2°C | 17.2% | 230.6hPa | 2.6V | 00:00:00 | 00:00:00 | 00:00:00 | |
| DL1NUX | 2026-08-31 12:55:24 | 49.94685 | 13.35820 | 58° | 142km/h | 11242m | -11.9m/s | -53.4°C | 21% | 228.5hPa | 2.6V | 03:12:05 | 02:38:12 | 00:00:00 | |
| SP3BTT-10 | 2026-08-31 12:55:24 | 49.94777 | 13.36057 | 60° | 126km/h | 11183m | -11.8m/s | -53.2°C | 22.8% | 230.5hPa | 2.7V | 03:12:00 | 00:00:00 | 00:00:00 | |
| OE5MMP-10 | 2026-08-31 12:55:23 | 49.94759 | 13.36010 | 60° | 144km/h | 11195m | -11.7m/s | -53.2°C | 22.4% | 230.1hPa | 2.6V | 03:12:00 | 02:38:16 | 00:00:00 | |
| DO3MHA-11 | 2026-08-31 12:55:19 | 49.94685 | 13.35820 | 59° | 150km/h | 11242m | -11.9m/s | -53.3°C | 21.0% | 228.5hPa | 2.6V | 00:00:00 | 02:38:12 | 00:00:00 | |
| NBG1-10 | 2026-08-31 12:55:18 | 49.94666 | 13.35771 | 59° | 159km/h | 11254m | -11.8m/s | -53.1°C | 20.4% | 228.0hPa | 2.6V | 03:12:00 | 02:38:11 | 00:00:00 | |
| DB0UT-7 | 2026-08-31 12:55:14 | 49.94589 | 13.35574 | 59° | 153km/h | 11300m | -11.7m/s | -52.5°C | 18.7% | 226.4hPa | 2.6V | 00:00:00 | 02:38:07 | 00:00:00 | |
| OE5MMP-10 | 2026-08-31 12:55:13 | 49.94569 | 13.35524 | 60° | 157km/h | 11312m | -11.6m/s | -52.3°C | 18.3% | 226.0hPa | 2.6V | 00:00:00 | 02:38:06 | 00:00:00 | |
| DL1NUX | 2026-08-31 12:55:10 | 49.94488 | 13.35315 | 58° | 159km/h | 11359m | -11.9m/s | -52.4°C | 17.1% | 224.3hPa | 2.6V | 03:12:15 | 02:38:02 | 00:00:00 | |
| DO3MHA-11 | 2026-08-31 12:55:09 | 49.94488 | 13.35315 | 59° | 164km/h | 11359m | -11.9m/s | -52.3°C | 17.1% | 224.3hPa | 2.6V | 00:00:00 | 02:38:02 | 00:00:00 | |
| DB0NH | 2026-08-31 12:55:08 | 49.94468 | 13.35261 | 60° | 157km/h | 11371m | -12.1m/s | -52.4°C | 16.9% | 223.9hPa | 2.6V | 00:00:00 | 02:38:01 | 00:00:00 | |
| SONCRA | 2026-08-31 12:55:07 | 49.94447 | 13.35207 | 59° | 161km/h | 11383m | -11.8m/s | -52.5°C | 12.1% | 223.5hPa | 2.6V | 00:00:00 | 00:00:00 | 00:00:00 | |
| EDDB2-11 | 2026-08-31 12:55:05 | 49.94384 | 13.35041 | 59° | 164km/h | 11418m | -11.8m/s | -52.7°C | 11.6% | 222.3hPa | 2.6V | 00:00:00 | 00:00:00 | 00:00:00 | |
| PG1ADW-2 | 2026-08-31 12:55:04 | 49.94384 | 13.35041 | 60° | 162km/h | 11418m | -11.8m/s | -52.7°C | 16.1% | 222.3hPa | 2.6V | 03:12:00 | 00:00:00 | 00:00:00 | |
| OE5MMP-10 | 2026-08-31 12:55:03 | 49.94363 | 13.34985 | 61° | 166km/h | 11430m | -11.9m/s | -52.7°C | 16.0% | 221.9hPa | 2.6V | 00:00:00 | 02:37:56 | 00:00:00 | |
| DF7PN | 2026-08-31 12:54:54 | 49.94056 | 13.34154 | 60° | 157km/h | 11608m | -11.9m/s | -52.3°C | 8.1% | 215.9hPa | 2.7V | 00:00:00 | 00:00:00 | 00:00:00 | |
| SONDE2-11 | 2026-08-31 12:54:48 | 49.94056 | 13.34154 | 60° | 157km/h | 11608m | -11.9m/s | -52.3°C | 8.1% | 215.9hPa | 2.7V | 00:00:00 | 00:00:00 | 00:00:00 | |
| EDDB2-12 | 2026-08-31 12:54:47 | 49.94036 | 13.34101 | 60° | 159km/h | 11620m | -12.1m/s | -52.3°C | 8.0% | 215.6hPa | 2.7V | 00:00:00 | 00:00:00 | 00:00:00 | |
| NBG1-10 | 2026-08-31 12:54:45 | 49.93997 | 13.33992 | 62° | 155km/h | 11644m | -12.1m/s | -52.3°C | 11.5% | 214.7hPa | 2.7V | 00:00:00 | 02:37:38 | 00:00:00 | |
| PG1ADW-2 | 2026-08-31 12:54:44 | 49.93978 | 13.33937 | 62° | 153km/h | 11656m | -11.7m/s | -52.4°C | 11.4% | 214.3hPa | 2.7V | 00:00:00 | 00:00:00 | 00:00:00 | |
| OE5MMP-10 | 2026-08-31 12:54:43 | 49.93959 | 13.33882 | 63° | 155km/h | 11668m | -12.2m/s | -52.4°C | 11.2% | 213.9hPa | 2.7V | 03:12:00 | 02:37:36 | 00:00:00 | |
| DO3MHA-11 | 2026-08-31 12:54:39 | 49.93887 | 13.33664 | 63° | 153km/h | 11715m | -11.8m/s | -52.1°C | 10.4% | 212.3hPa | 2.7V | 00:00:00 | 02:37:32 | 00:00:00 | |
| DL9SK-14 | 2026-08-31 12:54:37 | 49.93851 | 13.33556 | 63° | 153km/h | 11739m | -11.7m/s | -52.0°C | 6.6% | 211.6hPa | 2.7V | 00:00:00 | 00:00:00 | 00:00:00 | |
| SONCRA | 2026-08-31 12:54:36 | 49.93834 | 13.33501 | 63° | 155km/h | 11751m | -12.1m/s | -52.0°C | 6.5% | 211.2hPa | 2.7V | 00:00:00 | 00:00:00 | 00:00:00 | |
| EDDB2-11 | 2026-08-31 12:54:34 | 49.93783 | 13.33337 | 65° | 153km/h | 11787m | -12.0m/s | -51.8°C | 6.2% | 210.0hPa | 2.7V | 00:00:00 | 00:00:00 | 00:00:00 | |
| OE5MMP-10 | 2026-08-31 12:54:33 | 49.93783 | 13.33337 | 66° | 151km/h | 11788m | -12.0m/s | -51.7°C | 9.6% | 210.0hPa | 2.7V | 00:00:00 | 02:37:26 | 00:00:00 | |
| OE5DRO-10 | 2026-08-31 12:54:31 | 49.93750 | 13.33229 | 65° | 153km/h | 11812m | -12.1m/s | -51.8°C | 9.6% | 209.2hPa | 2.6V | 00:00:00 | 00:00:00 | 00:00:00 | |
| DO3MHA-11 | 2026-08-31 12:54:29 | 49.93718 | 13.33121 | 65° | 151km/h | 11836m | -12.4m/s | -52.0°C | 9.6% | 208.4hPa | 2.6V | 00:00:00 | 02:37:22 | 00:00:00 | |
| DF2AP-13 | 2026-08-31 12:54:24 | 49.93636 | 13.32853 | 65° | 150km/h | 11897m | -11.8m/s | -52.2°C | 9.1% | 206.4hPa | 2.6V | 03:13:00 | 02:37:17 | 00:00:00 | |
| DF7PN | 2026-08-31 12:54:23 | 49.93602 | 13.32746 | 63° | 153km/h | 11921m | -12.1m/s | 0°C | -1.0% | 205.7hPa | 2.6V | 00:00:00 | 00:00:00 | 00:00:00 | |
| DO3MHA-11 | 2026-08-31 12:54:19 | 49.93549 | 13.32585 | 64° | 153km/h | 11958m | -12.4m/s | -52.3°C | 8.7% | 204.5hPa | 2.6V | 03:13:00 | 02:37:12 | 00:00:00 | |
| SONDE2-11 | 2026-08-31 12:54:17 | 49.93514 | 13.32476 | 63° | 155km/h | 11982m | -12.2m/s | -52.1°C | 5.0% | 203.8hPa | 2.6V | 00:00:00 | 00:00:00 | 00:00:00 | |
| EDDB2-12 | 2026-08-31 12:54:16 | 49.93496 | 13.32422 | 63° | 155km/h | 11994m | -12.1m/s | -52.0°C | 4.9% | 203.4hPa | 2.6V | 00:00:00 | 00:00:00 | 00:00:00 | |
| OE5MMP-10 | 2026-08-31 12:54:13 | 49.93444 | 13.32259 | 65° | 148km/h | 12031m | -12.2m/s | -52.0°C | 7.8% | 202.2hPa | 2.6V | 00:00:00 | 02:37:06 | 00:00:00 | |
| DO3MHA-11 | 2026-08-31 12:54:09 | 49.93380 | 13.32043 | 67° | 146km/h | 12080m | -12.3m/s | -51.9°C | 7.5% | 200.6hPa | 2.6V | 00:00:00 | 02:37:02 | 00:00:00 | |
| DB0UT-9 | 2026-08-31 12:54:08 | 49.93381 | 13.32043 | 68° | 150km/h | 12080m | -12.3m/s | -51.9°C | 4.4% | 200.7hPa | 2.6V | 03:13:00 | 00:00:00 | 00:00:00 | |
| DB0UT-7 | 2026-08-31 12:54:07 | 49.93352 | 13.31936 | 68° | 146km/h | 12105m | -12.3m/s | -51.7°C | 7.4% | 199.9hPa | 2.6V | 00:00:00 | 00:00:00 | 00:00:00 | |
| SONCRA | 2026-08-31 12:54:06 | 49.93310 | 13.31777 | 67° | 144km/h | 12141m | -12.7m/s | -51.8°C | 4.3% | 198.8hPa | 2.6V | 00:00:00 | 00:00:00 | 00:00:00 | |
| DB0NH | 2026-08-31 12:54:04 | 49.93310 | 13.31777 | 68° | 139km/h | 12141m | -12.6m/s | -51.7°C | 7.3% | 198.8hPa | 2.6V | 00:00:00 | 02:36:57 | 00:00:00 | |
| OE5MMP-10 | 2026-08-31 12:54:03 | 49.93296 | 13.31725 | 68° | 148km/h | 12154m | -12.3m/s | -51.8°C | 7.3% | 198.4hPa | 2.6V | 03:13:00 | 02:36:56 | 00:00:00 | |
| EDDB2-11 | 2026-08-31 12:54:02 | 49.93282 | 13.31673 | 67° | 142km/h | 12166m | -12.3m/s | -51.9°C | 4.2% | 198.1hPa | 2.7V | 00:00:00 | 00:00:00 | 00:00:00 | |
| DL6DJ-15 | 2026-08-31 12:53:52 | 49.93127 | 13.31079 | 67° | 151km/h | 12304m | -12.8m/s | -52.1°C | 3.7% | 193.9hPa | 2.7V | 00:00:00 | 00:00:00 | 00:00:00 | |
| DF7PN | 2026-08-31 12:53:51 | 49.93127 | 13.31079 | 67° | 151km/h | 12304m | -12.8m/s | 0°C | -1.0% | 193.9hPa | 2.7V | 00:00:00 | 00:00:00 | 00:00:00 | |
| DO3MHA-11 | 2026-08-31 12:53:49 | 49.93098 | 13.30970 | 67° | 144km/h | 12329m | -12.7m/s | -52.0°C | 6.6% | 193.1hPa | 2.7V | 00:00:00 | 02:36:42 | 00:00:00 | |
| DM0DOS-11 | 2026-08-31 12:53:48 | 49.93012 | 13.30652 | 68° | 142km/h | 12405m | -12.3m/s | -51.7°C | 6.5% | 191hPa | 2.7V | 03:13:41 | 02:36:36 | 00:00:00 | |
| SONDE2-11 | 2026-08-31 12:53:47 | 49.93054 | 13.30809 | 67° | 146km/h | 12367m | -12.6m/s | -52.2°C | 3.6% | 192.0hPa | 2.7V | 00:00:00 | 00:00:00 | 00:00:00 | |
| EDDB2-12 | 2026-08-31 12:53:45 | 49.93026 | 13.30704 | 67° | 144km/h | 12392m | -12.8m/s | -51.9°C | 3.5% | 191.3hPa | 2.7V | 00:00:00 | 00:00:00 | 00:00:00 | |
| PG1ADW-2 | 2026-08-31 12:53:44 | 49.93026 | 13.30704 | 68° | 139km/h | 12393m | -12.8m/s | -51.8°C | 6.5% | 191.2hPa | 2.7V | 03:13:00 | 00:00:00 | 00:00:00 | |
| OE5MMP-10 | 2026-08-31 12:53:42 | 49.92999 | 13.30601 | 68° | 141km/h | 12418m | -12.8m/s | -51.6°C | 6.5% | 190.5hPa | 2.6V | 00:00:00 | 02:36:35 | 00:00:00 | |
| NBG1-10 | 2026-08-31 12:53:39 | 49.92959 | 13.30446 | 70° | 130km/h | 12456m | -12.4m/s | -51.5°C | 6.4% | 189.4hPa | 2.6V | 00:00:00 | 02:36:32 | 00:00:00 | |
| DM0DOS-11 | 2026-08-31 12:53:37 | 49.92856 | 13.30036 | 68° | 137km/h | 12559m | -12.3m/s | -51.5°C | 6.1% | 186.4hPa | 2.6V | 03:13:53 | 02:36:24 | 00:00:00 | |
| DL1JEZ-13 | 2026-08-31 12:53:36 | 49.92933 | 13.30343 | 70° | 142km/h | 12482m | -13.0m/s | -51.5°C | 3.5% | 188.7hPa | 2.6V | 00:00:00 | 00:00:00 | 00:00:00 | |
| DL9SK-14 | 2026-08-31 12:53:35 | 49.92907 | 13.30240 | 68° | 141km/h | 12507m | -13.0m/s | -51.5°C | 3.4% | 187.9hPa | 2.6V | 00:00:00 | 00:00:00 | 00:00:00 | |
| OE5DRO-10 | 2026-08-31 12:53:34 | 49.92894 | 13.30188 | 70° | 130km/h | 12520m | -12.4m/s | -51.5°C | 6.3% | 187.5hPa | 2.6V | 00:00:00 | 00:00:00 | 00:00:00 | |
| OE5DXL-15 | 2026-08-31 12:53:33 | 49.92882 | 13.30137 | 69° | 126km/h | 12533m | -13.1m/s | -51.4°C | 6.2% | 187.1hPa | 2.6V | 00:00:00 | 00:00:00 | 00:00:00 | |
| EDDB2-11 | 2026-08-31 12:53:32 | 49.92856 | 13.30036 | 68° | 135km/h | 12559m | -12.3m/s | -51.5°C | 3.3% | 186.4hPa | 2.6V | 00:00:00 | 00:00:00 | 00:00:00 | |
| DO3MHA-11 | 2026-08-31 12:53:29 | 49.92830 | 13.29937 | 68° | 128km/h | 12585m | -13.3m/s | -51.6°C | 6.1% | 185.6hPa | 2.6V | 00:00:00 | 02:36:22 | 00:00:00 | |
| DM0DOS-11 | 2026-08-31 12:53:25 | 49.92718 | 13.29520 | 66° | 124km/h | 12703m | -13.4m/s | -51.7°C | 5.9% | 182.3hPa | 2.6V | 03:14:04 | 02:36:13 | 00:00:00 | |
| DB0NH | 2026-08-31 12:53:24 | 49.92767 | 13.29700 | 68° | 124km/h | 12651m | -13.1m/s | -51.6°C | 6.0% | 183.8hPa | 2.6V | 03:14:00 | 02:36:17 | 00:00:00 | |
| DL1NUX | 2026-08-31 12:53:23 | 49.92693 | 13.29432 | 65° | 122km/h | 12730m | -13.4m/s | -51.8°C | 5.9% | 181.6hPa | 2.6V | 03:14:06 | 02:36:11 | 00:00:00 | |
| OE5MMP-10 | 2026-08-31 12:53:22 | 49.92742 | 13.29610 | 67° | 120km/h | 12677m | -13.2m/s | -51.7°C | 6.0% | 183.0hPa | 2.7V | 03:14:00 | 02:36:15 | 00:00:00 | |
| DL6DJ-15 | 2026-08-31 12:53:21 | 49.92718 | 13.29520 | 66° | 122km/h | 12703m | -13.4m/s | -51.7°C | 3.1% | 182.3hPa | 2.7V | 00:00:00 | 00:00:00 | 00:00:00 | |
| DO3MHA-11 | 2026-08-31 12:53:19 | 49.92706 | 13.29476 | 67° | 120km/h | 12717m | -13.4m/s | -51.7°C | 6.0% | 181.9hPa | 2.7V | 00:00:00 | 02:36:12 | 00:00:00 | |
| OE5DRO-10 | 2026-08-31 12:53:15 | 49.92655 | 13.29304 | 66° | 124km/h | 12770m | -13.6m/s | -51.8°C | 5.9% | 180.4hPa | 2.7V | 00:00:00 | 00:00:00 | 00:00:00 | |
| DM0DOS-11 | 2026-08-31 12:53:14 | 49.92591 | 13.29091 | 64° | 122km/h | 12838m | -13.8m/s | -52.2°C | 6% | 178.6hPa | 2.7V | 03:14:14 | 02:36:03 | 00:00:00 | |
| EDDB2-12 | 2026-08-31 12:53:14 | 49.92630 | 13.29219 | 64° | 119km/h | 12797m | -13.4m/s | -51.9°C | 3.0% | 179.7hPa | 2.6V | 00:00:00 | 00:00:00 | 00:00:00 | |
| OE5MMP-10 | 2026-08-31 12:53:12 | 49.92617 | 13.29177 | 66° | 124km/h | 12811m | -13.3m/s | -52.0°C | 6.0% | 179.3hPa | 2.6V | 00:00:00 | 02:36:05 | 00:00:00 | |
| DO3MHA-11 | 2026-08-31 12:53:09 | 49.92578 | 13.29047 | 66° | 126km/h | 12852m | -13.5m/s | -52.2°C | 6.0% | 178.2hPa | 2.6V | 00:00:00 | 02:36:02 | 00:00:00 | |
| DL1NUX | 2026-08-31 12:53:08 | 49.92552 | 13.28960 | 66° | 122km/h | 12878m | -13m/s | -52.4°C | 5.9% | 177.4hPa | 2.7V | 03:14:17 | 02:36:00 | 00:00:00 | |
| SO1NDE-10 | 2026-08-31 12:53:07 | 49.92552 | 13.28960 | 67° | 122km/h | 12878m | -13.0m/s | -52.4°C | 5.9% | 177.4hPa | 2.7V | 03:14:00 | 02:36:00 | 00:00:00 | |
| NBG1-10 | 2026-08-31 12:53:06 | 49.92540 | 13.28915 | 67° | 120km/h | 12892m | -13.1m/s | -52.4°C | 5.9% | 177.0hPa | 2.7V | 03:14:00 | 02:35:59 | 00:00:00 | |
| PG1ADW-2 | 2026-08-31 12:53:04 | 49.92515 | 13.28825 | 67° | 124km/h | 12918m | -13.9m/s | -52.5°C | 5.9% | 176.3hPa | 2.6V | 00:00:00 | 02:35:57 | 00:00:00 | |
| DL1NUX | 2026-08-31 12:53:03 | 49.92427 | 13.28502 | 67° | 128km/h | 13015m | -14.2m/s | -52°C | 5.5% | 173.7hPa | 2.6V | 03:14:27 | 02:35:50 | 00:00:00 | |
| EDDB2-11 | 2026-08-31 12:53:02 | 49.92464 | 13.28640 | 66° | 126km/h | 12974m | -13.9m/s | -52.5°C | 2.8% | 174.8hPa | 2.6V | 00:00:00 | 00:00:00 | 00:00:00 | |
| DO8TBO-1 | 2026-08-31 12:53:01 | 49.92452 | 13.28594 | 68° | 119km/h | 12988m | -13.6m/s | -52.3°C | 5.7% | 174.4hPa | 2.6V | 00:00:00 | 02:35:52 | 00:00:00 | |
| DO3MHA-11 | 2026-08-31 12:53:00 | 49.92452 | 13.28594 | 68° | 126km/h | 12988m | -13.6m/s | -52.3°C | 5.7% | 174.4hPa | 2.6V | 03:14:00 | 02:35:52 | 00:00:00 | |
| DM0DOS-11 | 2026-08-31 12:52:57 | 49.92365 | 13.28273 | 66° | 126km/h | 13085m | -14.4m/s | -51.6°C | 5.3% | 171.8hPa | 2.6V | 03:14:32 | 02:35:45 | 00:00:00 | |
| DL6DJ-15 | 2026-08-31 12:52:51 | 49.92328 | 13.28141 | 66° | 119km/h | 13128m | -14.3m/s | -51.7°C | 2.5% | 170.7hPa | 2.6V | 00:00:00 | 00:00:00 | 00:00:00 | |
| DL1NUX | 2026-08-31 12:52:50 | 49.92304 | 13.28057 | 66° | 115km/h | 13156m | -13.5m/s | -51.9°C | 5.3% | 170hPa | 2.6V | 03:14:37 | 02:35:40 | 00:00:00 | |
| DO3MHA-11 | 2026-08-31 12:52:50 | 49.92328 | 13.28141 | 67° | 113km/h | 13128m | -14.3m/s | -51.7°C | 5.3% | 170.7hPa | 2.6V | 00:00:00 | 02:35:42 | 00:00:00 | |
| DM0DOS-11 | 2026-08-31 12:52:45 | 49.92243 | 13.27857 | 64° | 111km/h | 13226m | -14.6m/s | -52.4°C | 5.4% | 168.2hPa | 2.6V | 03:14:42 | 02:35:35 | 00:00:00 | |
| PG1ADW-2 | 2026-08-31 12:52:44 | 49.92268 | 13.27936 | 65° | 113km/h | 13198m | -14.3m/s | -52.2°C | 5.4% | 168.8hPa | 2.7V | 00:00:00 | 00:00:00 | 00:00:00 | |
| EDDB2-12 | 2026-08-31 12:52:43 | 49.92243 | 13.27857 | 64° | 110km/h | 13226m | -14.6m/s | -52.4°C | 2.5% | 168.2hPa | 2.7V | 00:00:00 | 00:00:00 | 00:00:00 | |
| DO3MHA-11 | 2026-08-31 12:52:39 | 49.92206 | 13.27740 | 63° | 113km/h | 13270m | -14.5m/s | -51.9°C | 5.2% | 167.0hPa | 2.7V | 00:00:00 | 02:35:32 | 00:00:00 | |
| DL1NUX | 2026-08-31 12:52:38 | 49.92181 | 13.27663 | 63° | 111km/h | 13299m | -14.4m/s | -52°C | 5.2% | 166.3hPa | 2.6V | 03:14:47 | 02:35:30 | 00:00:00 | |
| SO1NDE-10 | 2026-08-31 12:52:37 | 49.92181 | 13.27663 | 64° | 95km/h | 13299m | -14.3m/s | -52.0°C | 5.2% | 166.3hPa | 2.6V | 00:00:00 | 02:35:30 | 00:00:00 | |
| OE5MMP-10 | 2026-08-31 12:52:36 | 49.92169 | 13.27623 | 65° | 113km/h | 13313m | -13.9m/s | -52.0°C | 5.2% | 165.9hPa | 2.6V | 03:14:00 | 02:35:29 | 00:00:00 | |
| DB0ND-19 | 2026-08-31 12:52:35 | 49.92146 | 13.27544 | 65° | 113km/h | 13341m | -14.4m/s | -51.8°C | 2.3% | 165.2hPa | 2.6V | 00:00:00 | 00:00:00 | 00:00:00 | |
| DM0DOS-11 | 2026-08-31 12:52:34 | 49.92123 | 13.27461 | 67° | 117km/h | 13370m | -14.5m/s | -52°C | 5.1% | 164.5hPa | 2.6V | 03:14:52 | 02:35:25 | 00:00:00 | |
| NBG1-10 | 2026-08-31 12:52:33 | 49.92134 | 13.27503 | 67° | 104km/h | 13356m | -14.5m/s | -51.8°C | 5.0% | 164.8hPa | 2.6V | 00:00:00 | 02:35:26 | 00:00:00 | |
| DL1JHR | 2026-08-31 12:52:31 | 49.92112 | 13.27419 | 70° | 119km/h | 13385m | -14.7m/s | -52.0°C | 2.3% | 164.2hPa | 2.6V | 00:00:00 | 00:00:00 | 00:00:00 | |
| DO8TBO-1 | 2026-08-31 12:52:30 | 49.92090 | 13.27333 | 69° | 102km/h | 13414m | -14.7m/s | -52.0°C | 5.0% | 163.3hPa | 2.6V | 00:00:00 | 02:35:22 | 00:00:00 | |
| DO3MHA-11 | 2026-08-31 12:52:29 | 49.92090 | 13.27333 | 69° | 113km/h | 13414m | -14.7m/s | -52.0°C | 5.0% | 163.3hPa | 2.6V | 00:00:00 | 02:35:22 | 00:00:00 | |
| DM0DOS-11 | 2026-08-31 12:52:27 | 49.92017 | 13.27039 | 69° | 111km/h | 13517m | -15m/s | -52.2°C | 5% | 160.8hPa | 2.6V | 03:15:02 | 02:35:15 | 00:00:00 | |
| OE5MMP-10 | 2026-08-31 12:52:26 | 49.92058 | 13.27205 | 70° | 110km/h | 13458m | -14.6m/s | -52.1°C | 5.1% | 162.3hPa | 2.6V | 00:00:00 | 02:35:19 | 00:00:00 | |
| DB0UT-9 | 2026-08-31 12:52:25 | 49.92058 | 13.27205 | 70° | 115km/h | 13458m | -14.6m/s | -52.2°C | 2.3% | 162.3hPa | 2.7V | 03:15:00 | 00:00:00 | 00:00:00 | |
| DB0NH | 2026-08-31 12:52:24 | 49.92038 | 13.27121 | 70° | 97km/h | 13487m | -14.8m/s | -52.2°C | 5.0% | 161.6hPa | 2.7V | 00:00:00 | 02:35:17 | 00:00:00 | |
| DL6DJ-15 | 2026-08-31 12:52:19 | 49.91980 | 13.26882 | 68° | 102km/h | 13577m | -14.8m/s | -52.0°C | 2.1% | 159.4hPa | 2.7V | 00:00:00 | 00:00:00 | 00:00:00 | |
| DB0UT-7 | 2026-08-31 12:52:18 | 49.91980 | 13.26882 | 69° | 91km/h | 13577m | -14.8m/s | -52.0°C | 4.8% | 159.4hPa | 2.7V | 00:00:00 | 00:00:00 | 00:00:00 | |
| OE5MMP-10 | 2026-08-31 12:52:16 | 49.91961 | 13.26808 | 69° | 97km/h | 13607m | -15.0m/s | -52.0°C | 4.8% | 158.7hPa | 2.7V | 00:00:00 | 02:35:09 | 00:00:00 | |
| DM0DOS-11 | 2026-08-31 12:52:15 | 49.91924 | 13.26664 | 67° | 97km/h | 13666m | -14.9m/s | -52.1°C | 4.7% | 157.2hPa | 2.7V | 03:15:12 | 02:35:05 | 00:00:00 | |
| DL1NUX | 2026-08-31 12:52:14 | 49.91933 | 13.26699 | 68° | 97km/h | 13651m | -14.3m/s | -52°C | 4.7% | 157.6hPa | 2.7V | 03:15:11 | 02:35:06 | 00:00:00 | |
| SONDE2-11 | 2026-08-31 12:52:13 | 49.91934 | 13.26699 | 68° | 97km/h | 13651m | -14.3m/s | -52.1°C | 2.0% | 157.6hPa | 2.6V | 00:00:00 | 00:00:00 | 00:00:00 | |
| EDDB2-12 | 2026-08-31 12:52:12 | 49.91915 | 13.26628 | 68° | 97km/h | 13681m | -15.4m/s | -52.1°C | 2.0% | 156.9hPa | 2.6V | 00:00:00 | 00:00:00 | 00:00:00 | |
| DO3MHA-11 | 2026-08-31 12:52:09 | 49.91897 | 13.26558 | 69° | 91km/h | 13711m | -15.2m/s | -52.0°C | 4.7% | 156.1hPa | 2.6V | 00:00:00 | 02:35:02 | 00:00:00 | |
| SP3BTT-10 | 2026-08-31 12:52:08 | 49.91888 | 13.26523 | 69° | 91km/h | 13726m | -14.5m/s | -52.0°C | 4.6% | 155.8hPa | 2.7V | 00:00:00 | 00:00:00 | 00:00:00 | |
| DL1NUX | 2026-08-31 12:52:06 | 49.91844 | 13.26355 | 66° | 89km/h | 13801m | -15.1m/s | -52.3°C | 4.7% | 154hPa | 2.7V | 03:15:21 | 02:34:56 | 00:00:00 | |
| DM0DOS-11 | 2026-08-31 12:52:04 | 49.91835 | 13.26323 | 66° | 88km/h | 13816m | -14.6m/s | -52.4°C | 4.7% | 153.6hPa | 2.6V | 03:15:22 | 02:34:55 | 00:00:00 | |
| OE5DXL-15 | 2026-08-31 12:52:03 | 49.91835 | 13.26323 | 67° | 88km/h | 13816m | -14.6m/s | -52.4°C | 4.7% | 153.5hPa | 2.6V | 00:00:00 | 00:00:00 | 00:00:00 | |
| DL9SK-14 | 2026-08-31 12:52:02 | 49.91826 | 13.26292 | 65° | 86km/h | 13831m | -15.0m/s | -52.4°C | 2.0% | 153.3hPa | 2.6V | 00:00:00 | 00:00:00 | 00:00:00 | |
| SONCRA | 2026-08-31 12:52:01 | 49.91817 | 13.26261 | 65° | 86km/h | 13846m | -15.5m/s | -52.3°C | 1.9% | 152.9hPa | 2.6V | 00:00:00 | 00:00:00 | 00:00:00 | |
| EDDB2-11 | 2026-08-31 12:51:58 | 49.91799 | 13.26200 | 65° | 82km/h | 13876m | -14.7m/s | -52.3°C | 1.9% | 152.2hPa | 2.6V | 00:00:00 | 00:00:00 | 00:00:00 | |
| OE5MMP-10 | 2026-08-31 12:51:56 | 49.91780 | 13.26141 | 65° | 86km/h | 13907m | -15.5m/s | -52.4°C | 4.6% | 151.5hPa | 2.6V | 03:15:00 | 02:34:49 | 00:00:00 | |
| DL1NUX | 2026-08-31 12:51:54 | 49.91752 | 13.26052 | 63° | 86km/h | 13952m | -15.1m/s | -52.7°C | 4.7% | 150.4hPa | 2.7V | 03:15:31 | 02:34:46 | 00:00:00 | |
| DB0NH | 2026-08-31 12:51:54 | 49.91762 | 13.26082 | 64° | 89km/h | 13937m | -15.2m/s | -52.5°C | 4.6% | 150.7hPa | 2.7V | 00:00:00 | 02:34:47 | 00:00:00 | |
| DM0DOS-11 | 2026-08-31 12:51:53 | 49.91742 | 13.26022 | 62° | 86km/h | 13967m | -15.2m/s | -52.8°C | 4.7% | 150.1hPa | 2.7V | 03:15:32 | 02:34:45 | 00:00:00 | |
| DF7PN | 2026-08-31 12:51:47 | 49.91689 | 13.25871 | 60° | 91km/h | 14044m | -15.3m/s | 0°C | -1.0% | 148.3hPa | 2.7V | 00:00:00 | 00:00:00 | 00:00:00 | |
| OE5MMP-10 | 2026-08-31 12:51:46 | 49.91677 | 13.25840 | 59° | 91km/h | 14059m | -15.0m/s | -52.9°C | 4.7% | 147.9hPa | 2.7V | 00:00:00 | 02:34:39 | 00:00:00 | |
| DB0UT-9 | 2026-08-31 12:51:45 | 49.91666 | 13.25809 | 61° | 89km/h | 14074m | -14.9m/s | -53.0°C | 1.9% | 147.7hPa | 2.7V | 00:00:00 | 00:00:00 | 00:00:00 | |
| PG1ADW-2 | 2026-08-31 12:51:44 | 49.91654 | 13.25779 | 61° | 89km/h | 14089m | -14.9m/s | -53.1°C | 4.7% | 147.3hPa | 2.7V | 00:00:00 | 02:34:37 | 00:00:00 | |
| SONDE2-11 | 2026-08-31 12:51:42 | 49.91631 | 13.25716 | 59° | 89km/h | 14120m | -15.3m/s | -53.3°C | 1.9% | 146.6hPa | 2.7V | 00:00:00 | 00:00:00 | 00:00:00 | |
| DM0DOS-11 | 2026-08-31 12:51:41 | 49.91576 | 13.25563 | 62° | 91km/h | 14195m | -15.5m/s | -53.8°C | 4.9% | 144.9hPa | 2.7V | 03:15:47 | 02:34:30 | 00:00:00 | |
| EDDB2-12 | 2026-08-31 12:51:41 | 49.91609 | 13.25655 | 61° | 89km/h | 14150m | -15.5m/s | -53.4°C | 1.9% | 145.9hPa | 2.6V | 00:00:00 | 00:00:00 | 00:00:00 | |
| OE5DRO-10 | 2026-08-31 12:51:40 | 49.91608 | 13.25655 | 62° | 89km/h | 14150m | -15.5m/s | -53.4°C | 4.8% | 145.9hPa | 2.6V | 03:15:00 | 00:00:00 | 00:00:00 | |
| DO3MHA-11 | 2026-08-31 12:51:39 | 49.91597 | 13.25624 | 61° | 89km/h | 14165m | -14.8m/s | -53.5°C | 4.9% | 145.5hPa | 2.6V | 03:15:00 | 02:34:32 | 00:00:00 | |
| SP3BTT-10 | 2026-08-31 12:51:38 | 49.91586 | 13.25594 | 62° | 68km/h | 14180m | -15.0m/s | -53.6°C | 4.9% | 145.2hPa | 2.7V | 00:00:00 | 00:00:00 | 00:00:00 | |
| OE5MMP-10 | 2026-08-31 12:51:36 | 49.91565 | 13.25531 | 63° | 89km/h | 14211m | -14.9m/s | -53.8°C | 4.9% | 144.5hPa | 2.7V | 00:00:00 | 02:34:29 | 00:00:00 | |
| DM0DOS-11 | 2026-08-31 12:51:33 | 49.91468 | 13.25217 | 64° | 89km/h | 14362m | -15m/s | -54°C | 4.9% | 141.2hPa | 2.7V | 03:15:58 | 02:34:19 | 00:00:00 | |
| OE5DXL-15 | 2026-08-31 12:51:33 | 49.91516 | 13.25374 | 65° | 86km/h | 14287m | -14.9m/s | -53.9°C | 4.9% | 142.8hPa | 2.7V | 00:00:00 | 00:00:00 | 00:00:00 | |
| DL9SK-14 | 2026-08-31 12:51:31 | 49.91507 | 13.25343 | 65° | 86km/h | 14302m | -14.3m/s | -54.0°C | 1.9% | 142.5hPa | 2.6V | 00:00:00 | 00:00:00 | 00:00:00 | |
| DO8TBO-1 | 2026-08-31 12:51:30 | 49.91507 | 13.25343 | 66° | 86km/h | 14302m | -14.2m/s | -53.9°C | 4.9% | 142.5hPa | 2.6V | 03:15:00 | 02:34:23 | 00:00:00 | |
| DO3MHA-11 | 2026-08-31 12:51:29 | 49.91498 | 13.25312 | 65° | 88km/h | 14316m | -14.9m/s | -54.0°C | 4.9% | 142.1hPa | 2.7V | 00:00:00 | 02:34:22 | 00:00:00 | |
| NBG1-10 | 2026-08-31 12:51:27 | 49.91478 | 13.25249 | 65° | 84km/h | 14346m | -15.3m/s | -54.0°C | 4.9% | 141.5hPa | 2.7V | 00:00:00 | 02:34:20 | 00:00:00 | |
| OE5MMP-10 | 2026-08-31 12:51:26 | 49.91468 | 13.25217 | 65° | 86km/h | 14362m | -14.9m/s | -53.9°C | 4.9% | 141.1hPa | 2.7V | 00:00:00 | 02:34:19 | 00:00:00 | |
| DB0NH | 2026-08-31 12:51:24 | 49.91449 | 13.25155 | 66° | 86km/h | 14391m | -15.0m/s | -53.7°C | 4.9% | 140.5hPa | 2.6V | 03:16:00 | 02:34:17 | 00:00:00 | |
| DM0DOS-11 | 2026-08-31 12:51:21 | 49.91380 | 13.24951 | 59° | 84km/h | 14497m | -14.9m/s | -53.7°C | 5% | 138.3hPa | 2.6V | 03:16:07 | 02:34:10 | 00:00:00 | |
| DO3MHA-11 | 2026-08-31 12:51:19 | 49.91401 | 13.25007 | 60° | 88km/h | 14467m | -15.1m/s | -53.4°C | 4.9% | 138.8hPa | 2.6V | 00:00:00 | 02:34:12 | 00:00:00 | |
| DL6DJ-15 | 2026-08-31 12:51:17 | 49.91369 | 13.24922 | 59° | 88km/h | 14512m | -15.3m/s | -53.8°C | 1.9% | 138.0hPa | 2.6V | 00:00:00 | 00:00:00 | 00:00:00 | |
| OE5MMP-10 | 2026-08-31 12:51:16 | 49.91369 | 13.24921 | 60° | 89km/h | 14512m | -15.2m/s | -53.8°C | 5.0% | 137.9hPa | 2.6V | 03:16:00 | 02:34:09 | 00:00:00 | |
| SONDE2-11 | 2026-08-31 12:51:11 | 49.91311 | 13.24769 | 62° | 91km/h | 14588m | -15.8m/s | -54.5°C | 2.0% | 136.3hPa | 2.6V | 00:00:00 | 00:00:00 | 00:00:00 | |
| DM0DOS-11 | 2026-08-31 12:51:09 | 49.91242 | 13.24558 | 63° | 80km/h | 14698m | -15.3m/s | -53.2°C | 4.9% | 134hPa | 2.6V | 03:16:20 | 02:33:57 | 00:00:00 | |
| DO3MHA-11 | 2026-08-31 12:51:09 | 49.91289 | 13.24706 | 64° | 82km/h | 14620m | -15.0m/s | -54.4°C | 5.4% | 135.7hPa | 2.6V | 00:00:00 | 02:34:02 | 00:00:00 | |
| DK5PH-5 | 2026-08-31 12:51:07 | 49.91269 | 13.24645 | 65° | 68km/h | 14651m | -15.5m/s | -53.9°C | 5.2% | 135.0hPa | 2.7V | 03:16:00 | 02:34:00 | 00:00:00 | |
| OE5MMP-10 | 2026-08-31 12:51:06 | 49.91260 | 13.24615 | 64° | 80km/h | 14667m | -15.5m/s | -53.5°C | 5.0% | 134.7hPa | 2.6V | 00:00:00 | 02:33:59 | 00:00:00 | |
| OE3JTB-15 | 2026-08-31 12:51:05 | 49.91233 | 13.24530 | 65° | 64km/h | 14714m | -15.3m/s | 0°C | 0% | 0hPa | 2.6V | 03:16:00 | 00:00:00 | 00:00:00 | |
| PG1ADW-2 | 2026-08-31 12:51:04 | 49.91233 | 13.24530 | 65° | 69km/h | 14714m | -15.3m/s | -53.1°C | 5.0% | 133.7hPa | 2.6V | 03:16:00 | 00:00:00 | 00:00:00 | |
| OE5DRO-10 | 2026-08-31 12:51:02 | 49.91224 | 13.24502 | 64° | 57km/h | 14729m | -15.3m/s | -53.0°C | 5.0% | 133.4hPa | 2.6V | 00:00:00 | 00:00:00 | 00:00:00 | |
| DL9SK-14 | 2026-08-31 12:51:00 | 49.91197 | 13.24419 | 62° | 78km/h | 14777m | -15.8m/s | -52.3°C | 1.8% | 132.4hPa | 2.6V | 00:00:00 | 00:00:00 | 00:00:00 | |
| DM0DOS-11 | 2026-08-31 12:50:59 | 49.91156 | 13.24284 | 66° | 73km/h | 14856m | -15.2m/s | -51.7°C | 4.6% | 130.9hPa | 2.6V | 03:16:30 | 02:33:47 | 00:00:00 | |
| DO3MHA-11 | 2026-08-31 12:50:59 | 49.91197 | 13.24419 | 63° | 73km/h | 14777m | -15.7m/s | -52.2°C | 4.8% | 132.4hPa | 2.7V | 03:16:00 | 02:33:52 | 00:00:00 | |
| OE5MMP-10 | 2026-08-31 12:50:56 | 49.91172 | 13.24337 | 66° | 68km/h | 14825m | -15.6m/s | -51.9°C | 4.7% | 131.4hPa | 2.7V | 00:00:00 | 02:33:49 | 00:00:00 | |
| NBG1-10 | 2026-08-31 12:50:54 | 49.91156 | 13.24284 | 67° | 53km/h | 14856m | -15.1m/s | -51.6°C | 4.6% | 130.8hPa | 2.7V | 03:16:00 | 02:33:47 | 00:00:00 | |
| DM0DOS-11 | 2026-08-31 12:50:49 | 49.91090 | 13.24064 | 56° | 51km/h | 15016m | -16m/s | -51.1°C | 4.3% | 127.7hPa | 2.7V | 03:16:40 | 02:33:37 | 00:00:00 | |
| DO3MHA-11 | 2026-08-31 12:50:49 | 49.91122 | 13.24160 | 66° | 53km/h | 14936m | -16.0m/s | -51.3°C | 4.4% | 129.3hPa | 2.7V | 00:00:00 | 02:33:42 | 00:00:00 | |
| DL1NUX | 2026-08-31 12:50:43 | 49.91042 | 13.23978 | 44° | 46km/h | 15112m | -15.7m/s | -49.8°C | 3.9% | 125.9hPa | 2.7V | 03:16:46 | 02:33:31 | 00:00:00 | |
| PG1ADW-2 | 2026-08-31 12:50:43 | 49.91083 | 13.24048 | 53° | 49km/h | 15033m | -16.4m/s | -51.1°C | 4.3% | 127.4hPa | 2.7V | 00:00:00 | 00:00:00 | 00:00:00 | |
| SONDE2-11 | 2026-08-31 12:50:40 | 49.91051 | 13.23991 | 46° | 47km/h | 15096m | -16.3m/s | -49.9°C | 1.5% | 126.1hPa | 2.6V | 00:00:00 | 00:00:00 | 00:00:00 | |
| DO3MHA-11 | 2026-08-31 12:50:39 | 49.91051 | 13.23991 | 47° | 47km/h | 15096m | -16.2m/s | -49.9°C | 3.9% | 126.1hPa | 2.6V | 00:00:00 | 02:33:32 | 00:00:00 | |
| DM0DOS-11 | 2026-08-31 12:50:38 | 49.90997 | 13.23919 | 41° | 47km/h | 15191m | -16.9m/s | -49.6°C | 3.7% | 124.3hPa | 2.7V | 03:16:51 | 02:33:26 | 00:00:00 | |
| DK5PH-5 | 2026-08-31 12:50:37 | 49.91034 | 13.23966 | 41° | 55km/h | 15128m | -15.4m/s | -49.6°C | 3.8% | 125.2hPa | 2.7V | 00:00:00 | 02:33:30 | 00:00:00 | |
| DL1JEZ-13 | 2026-08-31 12:50:35 | 49.91025 | 13.23954 | 39° | 47km/h | 15143m | -15.9m/s | -49.4°C | 1.5% | 125.2hPa | 2.7V | 00:00:00 | 00:00:00 | 00:00:00 | |
| DL1NUX | 2026-08-31 12:50:33 | 49.90951 | 13.23855 | 41° | 49km/h | 15276m | -16.4m/s | -50.3°C | 3.8% | 122.7hPa | 2.7V | 03:16:56 | 02:33:21 | 00:00:00 | |
| DB0ND-19 | 2026-08-31 12:50:31 | 49.90970 | 13.23881 | 42° | 49km/h | 15242m | -17.1m/s | -50.0°C | 1.4% | 123.3hPa | 2.7V | 00:00:00 | 00:00:00 | 00:00:00 | |
| DO3MHA-11 | 2026-08-31 12:50:29 | 49.90960 | 13.23868 | 42° | 51km/h | 15259m | -16.8m/s | -50.1°C | 3.8% | 123.0hPa | 2.7V | 00:00:00 | 02:33:22 | 00:00:00 | |
| DM0DOS-11 | 2026-08-31 12:50:28 | 49.90902 | 13.23792 | 39° | 53km/h | 15355m | -16.5m/s | -51.1°C | 4% | 121.2hPa | 2.7V | 03:17:01 | 02:33:16 | 00:00:00 | |
| DF8AY | 2026-08-31 12:50:23 | 49.90902 | 13.23791 | 39° | 53km/h | 15355m | -16.5m/s | 0°C | 0% | 0hPa | 2.7V | 03:18:08 | 02:33:16 | 00:00:00 | |
| DL1NUX | 2026-08-31 12:50:23 | 49.90850 | 13.23724 | 39° | 55km/h | 15438m | -17.1m/s | -51.9°C | 4.1% | 119.7hPa | 2.7V | 03:17:06 | 02:33:11 | 00:00:00 | |
| PG1ADW-2 | 2026-08-31 12:50:23 | 49.90902 | 13.23791 | 40° | 60km/h | 15355m | -16.5m/s | -51.1°C | 4.0% | 121.1hPa | 2.6V | 00:00:00 | 02:33:16 | 00:00:00 | |
| DB0UT-9 | 2026-08-31 12:50:22 | 49.90902 | 13.23792 | 40° | 53km/h | 15355m | -16.5m/s | -51.1°C | 1.6% | 121.2hPa | 2.6V | 03:17:00 | 00:00:00 | 00:00:00 | |
| NBG1-10 | 2026-08-31 12:50:21 | 49.90881 | 13.23764 | 41° | 68km/h | 15388m | -16.8m/s | -51.4°C | 4.1% | 120.5hPa | 2.6V | 00:00:00 | 02:33:14 | 00:00:00 | |
| DO3MHA-11 | 2026-08-31 12:50:19 | 49.90860 | 13.23737 | 41° | 58km/h | 15421m | -17.1m/s | -51.7°C | 4.1% | 120.0hPa | 2.6V | 03:17:00 | 02:33:12 | 00:00:00 | |
| DM0DOS-11 | 2026-08-31 12:50:16 | 49.90757 | 13.23610 | 38° | 66km/h | 15571m | -16.6m/s | -53.1°C | 4.4% | 117.2hPa | 2.6V | 03:17:14 | 02:33:03 | 00:00:00 | |
| DB0NH | 2026-08-31 12:50:16 | 49.90828 | 13.23696 | 40° | 69km/h | 15473m | -17.0m/s | -52.1°C | 4.2% | 119.0hPa | 2.7V | 00:00:00 | 02:33:09 | 00:00:00 | |
| OE5MMP-10 | 2026-08-31 12:50:15 | 49.90817 | 13.23682 | 39° | 64km/h | 15490m | -17.0m/s | -52.3°C | 4.3% | 118.7hPa | 2.7V | 00:00:00 | 02:33:08 | 00:00:00 | |
| DF7PN | 2026-08-31 12:50:14 | 49.90782 | 13.23640 | 37° | 60km/h | 15539m | -16.0m/s | 0°C | -1.0% | -1.0hPa | 2.7V | 00:00:00 | 00:00:00 | 00:00:00 | |
| DL1NUX | 2026-08-31 12:50:13 | 49.90730 | 13.23577 | 39° | 68km/h | 15605m | -16.3m/s | -53.2°C | 4.5% | 116.7hPa | 2.7V | 03:17:16 | 02:33:01 | 00:00:00 | |
| DF8AY | 2026-08-31 12:50:13 | 49.90703 | 13.23542 | 41° | 73km/h | 15637m | -16.6m/s | 0°C | 0% | 0hPa | 2.7V | 03:18:08 | 02:32:59 | 00:00:00 | |
| DO3MHA-11 | 2026-08-31 12:50:09 | 49.90743 | 13.23593 | 40° | 71km/h | 15588m | -16.8m/s | -53.1°C | 4.5% | 116.9hPa | 2.6V | 00:00:00 | 02:33:02 | 00:00:00 | |
| OE5DRO-10 | 2026-08-31 12:50:08 | 49.90730 | 13.23577 | 40° | 73km/h | 15605m | -16.2m/s | -53.2°C | 4.5% | 116.6hPa | 2.7V | 03:17:00 | 00:00:00 | 00:00:00 | |
| DK5PH-5 | 2026-08-31 12:50:07 | 49.90717 | 13.23559 | 40° | 75km/h | 15621m | -16.1m/s | -53.2°C | 4.4% | 116.3hPa | 2.6V | 00:00:00 | 02:33:00 | 00:00:00 | |
| DB0UT-7 | 2026-08-31 12:50:06 | 49.90703 | 13.23542 | 41° | 51km/h | 15637m | -16.5m/s | -53.3°C | 4.5% | 116.0hPa | 2.6V | 03:17:00 | 02:32:59 | 00:00:00 | |
| OE5MMP-10 | 2026-08-31 12:50:05 | 49.90690 | 13.23523 | 44° | 73km/h | 15654m | -17.3m/s | -53.3°C | 4.5% | 115.7hPa | 2.6V | 00:00:00 | 02:32:58 | 00:00:00 | |
| DM0DOS-11 | 2026-08-31 12:50:03 | 49.90613 | 13.23402 | 45° | 73km/h | 15754m | -17m/s | -54°C | 4.6% | 114hPa | 2.6V | 03:17:25 | 02:32:52 | 00:00:00 | |
| PG1ADW-2 | 2026-08-31 12:50:03 | 49.90663 | 13.23482 | 46° | 75km/h | 15689m | -16.5m/s | -53.5°C | 4.5% | 115.1hPa | 2.6V | 00:00:00 | 00:00:00 | 00:00:00 | |
| DL1NUX | 2026-08-31 12:50:03 | 49.90600 | 13.23381 | 46° | 73km/h | 15771m | -17.2m/s | -54°C | 4.5% | 113.7hPa | 2.7V | 03:17:26 | 02:32:51 | 00:00:00 | |
| DB0UT-9 | 2026-08-31 12:50:02 | 49.90664 | 13.23482 | 47° | 73km/h | 15689m | -16.6m/s | -53.5°C | 1.7% | 115.2hPa | 2.6V | 00:00:00 | 00:00:00 | 00:00:00 | |
| DL9SK-14 | 2026-08-31 12:49:58 | 49.90588 | 13.23360 | 48° | 71km/h | 15788m | -17.5m/s | -54.1°C | 1.6% | 113.3hPa | 2.6V | 00:00:00 | 00:00:00 | 00:00:00 | |
| SONCRA | 2026-08-31 12:49:57 | 49.90552 | 13.23296 | 49° | 73km/h | 15840m | -18.0m/s | -54.4°C | 1.7% | 112.4hPa | 2.6V | 00:00:00 | 00:00:00 | 00:00:00 | |
| OE5MMP-10 | 2026-08-31 12:49:55 | 49.90564 | 13.23318 | 50° | 75km/h | 15823m | -17.9m/s | -54.2°C | 4.6% | 112.7hPa | 2.6V | 03:17:00 | 02:32:48 | 00:00:00 | |
| DF2AP-13 | 2026-08-31 12:49:54 | 49.90551 | 13.23296 | 50° | 77km/h | 15841m | -17.9m/s | -54.3°C | 4.6% | 112.4hPa | 2.6V | 00:00:00 | 02:32:47 | 00:00:00 | |
| DL1NUX | 2026-08-31 12:49:53 | 49.90477 | 13.23161 | 49° | 77km/h | 15946m | -16.8m/s | -55°C | 4.8% | 110.6hPa | 2.6V | 03:17:36 | 02:32:41 | 00:00:00 | |
| DM0DOS-11 | 2026-08-31 12:49:50 | 49.90452 | 13.23115 | 49° | 77km/h | 15980m | -17m/s | -55.2°C | 4.8% | 110hPa | 2.7V | 03:17:38 | 02:32:39 | 00:00:00 | |
| DO3MHA-11 | 2026-08-31 12:49:49 | 49.90490 | 13.23184 | 51° | 77km/h | 15929m | -16.9m/s | -54.9°C | 4.8% | 110.9hPa | 2.7V | 00:00:00 | 02:32:42 | 00:00:00 | |
| PETON7-10 | 2026-08-31 12:49:48 | 49.90477 | 13.23161 | 50° | 75km/h | 15946m | -16.8m/s | -55.0°C | 4.8% | 110.6hPa | 2.7V | 00:00:00 | 00:00:00 | 00:00:00 | |
| DB0NH | 2026-08-31 12:49:46 | 49.90452 | 13.23115 | 50° | 75km/h | 15980m | -16.9m/s | -55.1°C | 4.8% | 110.0hPa | 2.7V | 00:00:00 | 02:32:39 | 00:00:00 | |
| OE5MMP-10 | 2026-08-31 12:49:45 | 49.90439 | 13.23092 | 50° | 77km/h | 15997m | -17.0m/s | -55.3°C | 4.8% | 109.7hPa | 2.6V | 00:00:00 | 02:32:38 | 00:00:00 | |
| PG1ADW-2 | 2026-08-31 12:49:43 | 49.90413 | 13.23046 | 51° | 77km/h | 16031m | -17.5m/s | -55.5°C | 5.0% | 109.1hPa | 2.6V | 03:17:00 | 00:00:00 | 00:00:00 | |
| DL1NUX | 2026-08-31 12:49:42 | 49.90345 | 13.22900 | 59° | 75km/h | 16139m | -18m/s | -55.6°C | 5% | 107.3hPa | 2.7V | 03:17:47 | 02:32:30 | 00:00:00 | |
| DF8AY | 2026-08-31 12:49:40 | 49.90377 | 13.22975 | 55° | 77km/h | 16083m | -18.4m/s | 0°C | 0% | 0hPa | 2.7V | 03:18:08 | 02:32:33 | 00:00:00 | |
| DO3MHA-11 | 2026-08-31 12:49:39 | 49.90366 | 13.22951 | 56° | 77km/h | 16102m | -18.5m/s | -55.8°C | 5.1% | 107.8hPa | 2.6V | 03:17:00 | 02:32:32 | 00:00:00 | |
| SONDE2-11 | 2026-08-31 12:49:38 | 49.90346 | 13.22901 | 59° | 73km/h | 16139m | -18.0m/s | -55.6°C | 1.7% | 107.3hPa | 2.7V | 00:00:00 | 00:00:00 | 00:00:00 | |
| DM0DOS-11 | 2026-08-31 12:49:36 | 49.90299 | 13.22773 | 61° | 77km/h | 16227m | -18m/s | -55.9°C | 5.1% | 105.8hPa | 2.7V | 03:17:52 | 02:32:25 | 00:00:00 | |
| DF8AY | 2026-08-31 12:49:29 | 49.90272 | 13.22691 | 64° | 80km/h | 16282m | -18.9m/s | 0°C | 0% | 0hPa | 2.6V | 03:18:08 | 02:32:22 | 00:00:00 | |
| DF8AY | 2026-08-31 12:49:18 | 49.90193 | 13.22392 | 70° | 69km/h | 16485m | -18.8m/s | 0°C | 0% | 0hPa | 2.7V | 03:18:08 | 02:32:11 | 00:00:00 | |
| DM0DOS-11 | 2026-08-31 12:49:16 | 49.90165 | 13.22273 | 69° | 58km/h | 16578m | -17.7m/s | -55.8°C | 5.4% | 100.2hPa | 2.7V | 03:18:11 | 02:32:06 | 00:00:00 | |
| DF8AY | 2026-08-31 12:49:08 | 49.90134 | 13.22159 | 66° | 49km/h | 16686m | -19m/s | 0°C | 0% | 0hPa | 2.6V | 18:12:15 | 02:32:00 | 00:00:00 | |
| DL1JHR | 2026-08-31 12:49:06 | 49.90134 | 13.22159 | 67° | 49km/h | 16686m | -19.0m/s | -54.4°C | 1.5% | 98.5hPa | 2.7V | 00:00:00 | 00:00:00 | 00:00:00 | |
| OE5MMP-10 | 2026-08-31 12:49:05 | 49.90123 | 13.22125 | 65° | 44km/h | 16724m | -19.0m/s | -54.3°C | 4.8% | 97.9hPa | 2.7V | 00:00:00 | 02:31:58 | 00:00:00 | |
| DM0DOS-11 | 2026-08-31 12:49:03 | 49.90095 | 13.22052 | 49° | 40km/h | 16816m | -17.8m/s | -53.6°C | 4.5% | 96.6hPa | 2.7V | 03:18:24 | 02:31:53 | 00:00:00 | |
| PG1ADW-2 | 2026-08-31 12:49:03 | 49.90112 | 13.22093 | 62° | 47km/h | 16762m | -18.1m/s | -54.2°C | 4.8% | 97.3hPa | 2.7V | 00:00:00 | 02:31:56 | 00:00:00 | |
| DK5PH-5 | 2026-08-31 12:49:02 | 49.90107 | 13.22079 | 58° | 46km/h | 16781m | -17.9m/s | -54.2°C | 4.8% | 97.1hPa | 2.7V | 03:18:00 | 02:31:55 | 00:00:00 | |
| DB0UT-9 | 2026-08-31 12:49:01 | 49.90107 | 13.22079 | 58° | 42km/h | 16781m | -18.0m/s | -54.3°C | 1.6% | 97.1hPa | 2.7V | 03:18:00 | 00:00:00 | 00:00:00 | |
| DL9SK-14 | 2026-08-31 12:48:56 | 49.90057 | 13.21992 | 44° | 44km/h | 16908m | -19.0m/s | -53.0°C | 1.4% | 95.2hPa | 2.7V | 00:00:00 | 00:00:00 | 00:00:00 | |
| SONCRA | 2026-08-31 12:48:55 | 49.90049 | 13.21980 | 44° | 44km/h | 16928m | -18.8m/s | -52.7°C | 1.4% | 94.9hPa | 2.7V | 00:00:00 | 00:00:00 | 00:00:00 | |
| DF2AP-13 | 2026-08-31 12:48:54 | 49.90049 | 13.21980 | 45° | 46km/h | 16928m | -18.7m/s | -52.7°C | 4.2% | 94.9hPa | 2.7V | 00:00:00 | 02:31:47 | 00:00:00 | |
| DB0UT-7 | 2026-08-31 12:48:53 | 49.90041 | 13.21968 | 45° | 46km/h | 16947m | -18.4m/s | -52.5°C | 4.2% | 94.6hPa | 2.7V | 00:00:00 | 00:00:00 | 00:00:00 | |
| OE5DRO-10 | 2026-08-31 12:48:52 | 49.90032 | 13.21955 | 45° | 47km/h | 16965m | -18.3m/s | -52.5°C | 4.2% | 94.3hPa | 2.7V | 03:18:00 | 00:00:00 | 00:00:00 | |
| DM0DOS-11 | 2026-08-31 12:48:50 | 49.89999 | 13.21896 | 51° | 53km/h | 17040m | -18.2m/s | -53°C | 4.3% | 93.3hPa | 2.7V | 03:18:36 | 02:31:41 | 00:00:00 | |
| DO3MHA-11 | 2026-08-31 12:48:49 | 49.90007 | 13.21912 | 51° | 51km/h | 17021m | -18.3m/s | -52.8°C | 4.3% | 93.5hPa | 2.7V | 00:00:00 | 02:31:42 | 00:00:00 | |
| DL1JHR | 2026-08-31 12:48:46 | 49.89981 | 13.21862 | 52° | 57km/h | 17078m | -19.0m/s | -53.2°C | 1.4% | 92.7hPa | 2.7V | 00:00:00 | 00:00:00 | 00:00:00 | |
| OE5MMP-10 | 2026-08-31 12:48:45 | 49.89973 | 13.21845 | 55° | 46km/h | 17097m | -19.0m/s | -53.2°C | 4.4% | 92.4hPa | 2.7V | 00:00:00 | 02:31:38 | 00:00:00 | |
| DM0DOS-11 | 2026-08-31 12:48:43 | 49.89914 | 13.21711 | 50° | 35km/h | 17267m | -18.7m/s | -53°C | 4.3% | 90hPa | 2.7V | 03:18:48 | 02:31:29 | 00:00:00 | |
| PG1ADW-2 | 2026-08-31 12:48:43 | 49.89958 | 13.21809 | 58° | 42km/h | 17136m | -18.1m/s | -53.4°C | 4.5% | 91.9hPa | 2.7V | 00:00:00 | 00:00:00 | 00:00:00 | |
| NBG1-10 | 2026-08-31 12:48:42 | 49.89951 | 13.21793 | 58° | 40km/h | 17154m | -18.1m/s | -53.6°C | 4.5% | 91.6hPa | 2.6V | 03:18:00 | 02:31:35 | 00:00:00 | |
| DL6DJ-15 | 2026-08-31 12:48:41 | 49.89945 | 13.21777 | 57° | 44km/h | 17173m | -18.1m/s | -53.7°C | 1.5% | 91.4hPa | 2.6V | 00:00:00 | 00:00:00 | 00:00:00 | |
| DB0UT-9 | 2026-08-31 12:48:40 | 49.89945 | 13.21777 | 59° | 46km/h | 17173m | -18.1m/s | -53.7°C | 1.5% | 91.4hPa | 2.6V | 03:18:00 | 00:00:00 | 00:00:00 | |
| DO3MHA-11 | 2026-08-31 12:48:39 | 49.89932 | 13.21749 | 52° | 38km/h | 17210m | -18.7m/s | -53.9°C | 4.7% | 90.8hPa | 2.6V | 00:00:00 | 02:31:32 | 00:00:00 | |
| SONDE2-11 | 2026-08-31 12:48:36 | 49.89908 | 13.21701 | 46° | 35km/h | 17286m | -18.5m/s | -52.6°C | 1.3% | 89.8hPa | 2.7V | 00:00:00 | 00:00:00 | 00:00:00 | |
| OE5MMP-10 | 2026-08-31 12:48:35 | 49.89908 | 13.21701 | 47° | 40km/h | 17286m | -18.5m/s | -52.6°C | 4.2% | 89.7hPa | 2.7V | 03:18:00 | 02:31:28 | 00:00:00 | |
| EDDB2-12 | 2026-08-31 12:48:34 | 49.89901 | 13.21691 | 42° | 37km/h | 17304m | -18.6m/s | -52.5°C | 1.3% | 89.5hPa | 2.7V | 00:00:00 | 00:00:00 | 00:00:00 | |
| OE5DRO-10 | 2026-08-31 12:48:33 | 49.89894 | 13.21681 | 41° | 42km/h | 17323m | -18.5m/s | -52.4°C | 4.1% | 89.2hPa | 2.7V | 00:00:00 | 00:00:00 | 00:00:00 | |
| DK5PH-5 | 2026-08-31 12:48:32 | 49.89887 | 13.21672 | 41° | 38km/h | 17341m | -18.5m/s | -52.4°C | 4.1% | 89.0hPa | 2.7V | 00:00:00 | 02:31:25 | 00:00:00 | |
| DM0DOS-11 | 2026-08-31 12:48:31 | 49.89832 | 13.21597 | 41° | 46km/h | 17474m | -19m/s | -52.4°C | 4% | 87.2hPa | 2.7V | 03:18:59 | 02:31:18 | 00:00:00 | |
| DO3MHA-11 | 2026-08-31 12:48:29 | 49.89865 | 13.21642 | 42° | 44km/h | 17397m | -19.4m/s | -52.0°C | 4.0% | 88.1hPa | 2.7V | 00:00:00 | 02:31:22 | 00:00:00 | |
| DO8TBO-1 | 2026-08-31 12:48:28 | 49.89857 | 13.21632 | 43° | 35km/h | 17417m | -19.8m/s | -52.0°C | 3.9% | 87.9hPa | 2.7V | 00:00:00 | 02:31:21 | 00:00:00 | |
| DB0ND-19 | 2026-08-31 12:48:27 | 49.89840 | 13.21609 | 40° | 44km/h | 17456m | -19.0m/s | -52.2°C | 1.3% | 87.4hPa | 2.7V | 00:00:00 | 00:00:00 | 00:00:00 | |
| DL9SK-14 | 2026-08-31 12:48:25 | 49.89823 | 13.21585 | 43° | 44km/h | 17494m | -18.9m/s | -52.5°C | 1.3% | 86.9hPa | 2.7V | 00:00:00 | 00:00:00 | 00:00:00 | |
| SONCRA | 2026-08-31 12:48:24 | 49.89816 | 13.21573 | 47° | 42km/h | 17512m | -18.7m/s | -52.7°C | 1.3% | 86.6hPa | 2.7V | 00:00:00 | 00:00:00 | 00:00:00 | |
| DB0UT-7 | 2026-08-31 12:48:23 | 49.89816 | 13.21573 | 48° | 31km/h | 17512m | -18.7m/s | -52.7°C | 4.2% | 86.6hPa | 2.7V | 00:00:00 | 02:31:16 | 00:00:00 | |
| DB0NH | 2026-08-31 12:48:22 | 49.89808 | 13.21560 | 50° | 29km/h | 17531m | -18.6m/s | -52.8°C | 4.2% | 86.3hPa | 2.7V | 00:00:00 | 02:31:15 | 00:00:00 | |
| EDDB2-11 | 2026-08-31 12:48:21 | 49.89802 | 13.21548 | 52° | 42km/h | 17550m | -19.3m/s | -53.0°C | 1.3% | 86.1hPa | 2.7V | 00:00:00 | 00:00:00 | 00:00:00 | |
| DO3MHA-11 | 2026-08-31 12:48:19 | 49.89789 | 13.21521 | 55° | 40km/h | 17589m | -20.0m/s | -53.0°C | 4.3% | 85.5hPa | 2.7V | 03:19:00 | 02:31:12 | 00:00:00 | |
| ANDY1245 | 2026-08-31 12:48:17 | 49.89782 | 13.21507 | 56° | 42km/h | 17609m | -20.0m/s | -53.0°C | 1.4% | 85.4hPa | 2.7V | 00:00:00 | 00:00:00 | 00:00:00 | |
| OE5MMP-10 | 2026-08-31 12:48:15 | 49.89764 | 13.21468 | 50° | 35km/h | 17669m | -19.0m/s | -53.0°C | 4.3% | 84.6hPa | 2.7V | 00:00:00 | 02:31:08 | 00:00:00 | |
| OE5DRO-10 | 2026-08-31 12:48:14 | 49.89757 | 13.21456 | 50° | 27km/h | 17688m | -18.9m/s | -53.1°C | 4.4% | 84.3hPa | 2.7V | 00:00:00 | 00:00:00 | 00:00:00 | |
| DM0DOS-11 | 2026-08-31 12:48:11 | 49.89728 | 13.21401 | 47° | 33km/h | 17785m | -19.6m/s | -52.9°C | 4.2% | 83.1hPa | 2.6V | 03:19:15 | 02:31:02 | 00:00:00 | |
| DL6DJ-15 | 2026-08-31 12:48:10 | 49.89734 | 13.21411 | 48° | 35km/h | 17765m | -19.8m/s | -52.9°C | 1.3% | 83.3hPa | 2.6V | 00:00:00 | 00:00:00 | 00:00:00 | |
| DO3MHA-11 | 2026-08-31 12:48:09 | 49.89728 | 13.21401 | 48° | 26km/h | 17785m | -19.6m/s | -52.9°C | 4.2% | 83.0hPa | 2.6V | 00:00:00 | 02:31:02 | 00:00:00 | |
| SP3BTT-10 | 2026-08-31 12:48:07 | 49.89717 | 13.21383 | 51° | 24km/h | 17825m | -19.3m/s | -53.1°C | 4.3% | 82.5hPa | 2.7V | 00:00:00 | 00:00:00 | 00:00:00 | |
| OE5MMP-10 | 2026-08-31 12:48:06 | 49.89710 | 13.21366 | 57° | 20km/h | 17864m | -20.0m/s | -53.2°C | 4.3% | 82.0hPa | 2.7V | 00:00:00 | 02:30:58 | 00:00:00 | |
| SONDE2-11 | 2026-08-31 12:48:05 | 49.89706 | 13.21358 | 56° | 26km/h | 17884m | -20.1m/s | -53.3°C | 1.3% | 81.8hPa | 2.7V | 00:00:00 | 00:00:00 | 00:00:00 | |
| DM0DOS-11 | 2026-08-31 12:48:05 | 49.89692 | 13.21323 | 66° | 15km/h | 17984m | -19.6m/s | -53°C | 4.2% | 80.6hPa | 2.6V | 03:19:25 | 02:30:52 | 00:00:00 | |
| PG1ADW-2 | 2026-08-31 12:48:03 | 49.89703 | 13.21349 | 58° | 22km/h | 17904m | -19.9m/s | -53.3°C | 4.3% | 81.6hPa | 2.7V | 00:00:00 | 00:00:00 | 00:00:00 | |
| DK5PH-5 | 2026-08-31 12:48:02 | 49.89699 | 13.21342 | 57° | 20km/h | 17924m | -19.8m/s | -53.3°C | 4.3% | 81.3hPa | 2.7V | 00:00:00 | 02:30:55 | 00:00:00 | |
| DB0ND-19 | 2026-08-31 12:47:56 | 49.89678 | 13.21294 | 33° | 16km/h | 18103m | -19.8m/s | -53.0°C | 1.3% | 79.1hPa | 2.7V | 00:00:00 | 00:00:00 | 00:00:00 | |
| DL9SK-14 | 2026-08-31 12:47:54 | 49.89678 | 13.21294 | 33° | 16km/h | 18103m | -19.8m/s | -53.0°C | 1.3% | 79.1hPa | 2.7V | 00:00:00 | 00:00:00 | 00:00:00 | |
| SONCRA | 2026-08-31 12:47:52 | 49.89674 | 13.21290 | 30° | 18km/h | 18123m | -19.7m/s | -53.0°C | 1.3% | 78.8hPa | 2.7V | 00:00:00 | 00:00:00 | 00:00:00 | |
| EDDB2-11 | 2026-08-31 12:47:50 | 49.89664 | 13.21282 | 28° | 26km/h | 18162m | -19.9m/s | -53.0°C | 1.3% | 78.3hPa | 2.7V | 00:00:00 | 00:00:00 | 00:00:00 | |
| DM0DOS-11 | 2026-08-31 12:47:49 | 49.89653 | 13.21271 | 35° | 27km/h | 18203m | -20.9m/s | -53°C | 4.1% | 77.8hPa | 2.7V | 03:19:36 | 02:30:41 | 00:00:00 | |
| DO3MHA-11 | 2026-08-31 12:47:49 | 49.89659 | 13.21277 | 34° | 26km/h | 18183m | -20.3m/s | -53.0°C | 4.2% | 78.0hPa | 2.7V | 00:00:00 | 02:30:42 | 00:00:00 | |
| OE5MMP-10 | 2026-08-31 12:47:45 | 49.89637 | 13.21251 | 44° | 22km/h | 18266m | -20.9m/s | -53.2°C | 4.3% | 77.1hPa | 2.7V | 00:00:00 | 02:30:38 | 00:00:00 | |
| AA1-15 | 2026-08-31 12:47:26 | 49.89585 | 13.21117 | 52° | 22km/h | 18658m | -21.4m/s | -53.8°C | 0.9% | 72.5hPa | 2.7V | 03:20:41 | 02:30:19 | 00:00:00 | |
| OE5DXL-15 | 2026-08-31 12:47:26 | 49.89577 | 13.21103 | 46° | 26km/h | 18701m | -21.5m/s | -53.7°C | 4.6% | 72.0hPa | 2.7V | 00:00:00 | 00:00:00 | 00:00:00 | |
| OE5MMP-10 | 2026-08-31 12:47:24 | 49.89577 | 13.21103 | 46° | 18km/h | 18701m | -21.5m/s | -53.7°C | 4.6% | 72.0hPa | 2.7V | 00:00:00 | 02:30:17 | 00:00:00 | |
| SP3BTT-10 | 2026-08-31 12:47:23 | 49.89573 | 13.21097 | 40° | 16km/h | 18722m | -21.1m/s | -53.8°C | 4.6% | 71.8hPa | 2.7V | 00:00:00 | 00:00:00 | 00:00:00 | |
| DM0DOS-11 | 2026-08-31 12:47:22 | 49.89561 | 13.21083 | 43° | 16km/h | 18785m | -21m/s | -53.1°C | 4.4% | 71.1hPa | 2.7V | 03:20:04 | 02:30:13 | 00:00:00 | |
| AA1-15 | 2026-08-31 12:47:11 | 49.89526 | 13.21061 | 7° | 22km/h | 18977m | -21.7m/s | -53°C | 0.9% | 69.1hPa | 2.6V | 03:20:41 | 02:30:04 | 00:00:00 | |
| DO3MHA-11 | 2026-08-31 12:47:09 | 49.89513 | 13.21059 | 7° | 33km/h | 19019m | -21.4m/s | -52.6°C | 4.2% | 68.5hPa | 2.6V | 00:00:00 | 02:30:02 | 00:00:00 | |
| DL6DJ-15 | 2026-08-31 12:47:08 | 49.89507 | 13.21058 | 11° | 26km/h | 19041m | -21.8m/s | -52.4°C | 1.2% | 68.3hPa | 2.6V | 00:00:00 | 00:00:00 | 00:00:00 | |
| OE5MMP-10 | 2026-08-31 12:47:04 | 49.89475 | 13.21044 | 20° | 33km/h | 19128m | -21.3m/s | -52.5°C | 4.2% | 67.3hPa | 2.6V | 00:00:00 | 02:29:57 | 00:00:00 | |
| SONDE2-11 | 2026-08-31 12:47:03 | 49.89459 | 13.21033 | 29° | 33km/h | 19170m | -22.1m/s | -52.6°C | 1.2% | 67.0hPa | 2.6V | 00:00:00 | 00:00:00 | 00:00:00 | |
| DK5PH-5 | 2026-08-31 12:47:02 | 49.89459 | 13.21033 | 30° | 24km/h | 19171m | -22.1m/s | -52.5°C | 4.2% | 66.9hPa | 2.6V | 03:20:00 | 02:29:55 | 00:00:00 | |
| EDDB2-12 | 2026-08-31 12:47:01 | 49.89452 | 13.21026 | 34° | 35km/h | 19193m | -22.6m/s | -52.7°C | 1.3% | 66.8hPa | 2.6V | 00:00:00 | 00:00:00 | 00:00:00 | |
| DM0DOS-11 | 2026-08-31 12:46:59 | 49.89430 | 13.21001 | 43° | 31km/h | 19260m | -22.6m/s | -52.7°C | 4.3% | 66hPa | 2.6V | 03:20:26 | 02:29:51 | 00:00:00 | |
| DO3MHA-11 | 2026-08-31 12:46:59 | 49.89437 | 13.21009 | 37° | 26km/h | 19238m | -22.4m/s | -52.6°C | 4.3% | 66.2hPa | 2.6V | 03:20:00 | 02:29:52 | 00:00:00 | |
| PETON7-10 | 2026-08-31 12:46:58 | 49.89430 | 13.21001 | 44° | 22km/h | 19261m | -22.6m/s | -52.6°C | 4.3% | 66.0hPa | 2.6V | 00:00:00 | 00:00:00 | 00:00:00 | |
| OE5DXL-15 | 2026-08-31 12:46:56 | 49.89414 | 13.20964 | 60° | 22km/h | 19352m | -23.4m/s | -52.4°C | 4.1% | 65.1hPa | 2.7V | 00:00:00 | 00:00:00 | 00:00:00 | |
| OE5MMP-10 | 2026-08-31 12:46:54 | 49.89414 | 13.20964 | 60° | 18km/h | 19352m | -23.4m/s | -52.4°C | 4.1% | 65.1hPa | 2.7V | 00:00:00 | 02:29:47 | 00:00:00 | |
| DM0DOS-11 | 2026-08-31 12:46:53 | 49.89397 | 13.20931 | 35° | 15km/h | 19487m | -23.1m/s | -52.2°C | 4% | 63.8hPa | 2.7V | 03:20:36 | 02:29:41 | 00:00:00 | |
| DL9SK-14 | 2026-08-31 12:46:51 | 49.89405 | 13.20943 | 47° | 16km/h | 19421m | -22.2m/s | -52.7°C | 1.2% | 64.5hPa | 2.7V | 00:00:00 | 00:00:00 | 00:00:00 | |
| EDDB2-11 | 2026-08-31 12:46:48 | 49.89393 | 13.20928 | 22° | 16km/h | 19511m | -22.7m/s | -52.0°C | 1.2% | 63.6hPa | 2.7V | 00:00:00 | 00:00:00 | 00:00:00 | |
| AA1-15 | 2026-08-31 12:46:39 | 49.89343 | 13.20907 | 19° | 26km/h | 19714m | -22.7m/s | -52.8°C | 0.8% | 61.6hPa | 2.7V | 03:21:32 | 02:29:31 | 00:00:00 | |
| DO3MHA-11 | 2026-08-31 12:46:39 | 49.89349 | 13.20911 | 22° | 20km/h | 19691m | -23.2m/s | -52.6°C | 4.2% | 61.8hPa | 2.6V | 00:00:00 | 02:29:32 | 00:00:00 | |
| ANDY1245 | 2026-08-31 12:46:36 | 49.89337 | 13.20904 | 15° | 24km/h | 19737m | -22.6m/s | -52.9°C | 1.3% | 61.4hPa | 2.7V | 00:00:00 | 00:00:00 | 00:00:00 | |
| OE5MMP-10 | 2026-08-31 12:46:34 | 49.89321 | 13.20898 | 17° | 18km/h | 19804m | -23.1m/s | -53.4°C | 4.5% | 60.7hPa | 2.7V | 03:20:00 | 02:29:27 | 00:00:00 | |
| DK5PH-5 | 2026-08-31 12:46:32 | 49.89311 | 13.20894 | 10° | 20km/h | 19850m | -22.9m/s | -53.4°C | 4.5% | 60.3hPa | 2.7V | 00:00:00 | 02:29:25 | 00:00:00 | |
| SONDE2-11 | 2026-08-31 12:46:31 | 49.89307 | 13.20893 | 14° | 16km/h | 19873m | -23.0m/s | -53.4°C | 1.3% | 60.1hPa | 2.7V | 00:00:00 | 00:00:00 | 00:00:00 | |
| NBG1-10 | 2026-08-31 12:46:30 | 49.89303 | 13.20891 | 23° | 20km/h | 19896m | -23.0m/s | -53.2°C | 4.5% | 59.8hPa | 2.7V | 03:20:00 | 02:29:23 | 00:00:00 | |
| PETON7-10 | 2026-08-31 12:46:28 | 49.89297 | 13.20884 | 43° | 18km/h | 19943m | -23.9m/s | -53.0°C | 4.4% | 59.4hPa | 2.6V | 00:00:00 | 02:29:21 | 00:00:00 | |
| DM0DOS-11 | 2026-08-31 12:46:26 | 49.89287 | 13.20834 | 96° | 18km/h | 20111m | -23.4m/s | -53.2°C | 4.4% | 58hPa | 2.6V | 03:21:03 | 02:29:14 | 00:00:00 | |
| AA1-15 | 2026-08-31 12:46:19 | 49.89289 | 13.20819 | 108° | 18km/h | 20157m | -23.5m/s | -53.1°C | 0.9% | 57.5hPa | 2.7V | 03:21:32 | 02:29:12 | 00:00:00 | |
| AA1-15 | 2026-08-31 12:46:09 | 49.89281 | 13.20771 | 39° | 22km/h | 20398m | -24m/s | -52.9°C | 0.9% | 55.4hPa | 2.6V | 03:21:32 | 02:29:02 | 00:00:00 | |
| DO3MHA-11 | 2026-08-31 12:46:09 | 49.89281 | 13.20771 | 39° | 27km/h | 20398m | -23.9m/s | -52.8°C | 4.3% | 55.4hPa | 2.6V | 00:00:00 | 02:29:02 | 00:00:00 | |
| DL6DJ-15 | 2026-08-31 12:46:06 | 49.89261 | 13.20743 | 53° | 27km/h | 20494m | -24.2m/s | -52.5°C | 1.2% | 54.6hPa | 2.6V | 00:00:00 | 00:00:00 | 00:00:00 | |
| OE5MMP-10 | 2026-08-31 12:46:04 | 49.89257 | 13.20733 | 60° | 24km/h | 20519m | -24.7m/s | -52.4°C | 4.2% | 54.4hPa | 2.6V | 00:00:00 | 02:28:57 | 00:00:00 | |
| PG1ADW-2 | 2026-08-31 12:46:03 | 49.89253 | 13.20723 | 63° | 20km/h | 20544m | -25.2m/s | -52.5°C | 4.2% | 54.2hPa | 2.6V | 00:00:00 | 00:00:00 | 00:00:00 | |
| DK5PH-5 | 2026-08-31 12:46:02 | 49.89250 | 13.20712 | 63° | 16km/h | 20569m | -25.2m/s | -52.5°C | 4.2% | 53.9hPa | 2.6V | 00:00:00 | 02:28:55 | 00:00:00 | |
| ANDY1245 | 2026-08-31 12:46:01 | 49.89250 | 13.20712 | 64° | 33km/h | 20569m | -25.3m/s | -52.6°C | 1.3% | 54.0hPa | 2.6V | 00:00:00 | 00:00:00 | 00:00:00 | |
| SONDE2-11 | 2026-08-31 12:46:00 | 49.89244 | 13.20692 | 67° | 24km/h | 20620m | -24.9m/s | -52.6°C | 1.2% | 53.6hPa | 2.6V | 00:00:00 | 00:00:00 | 00:00:00 | |
| DO3MHA-11 | 2026-08-31 12:45:59 | 49.89242 | 13.20683 | 79° | 16km/h | 20645m | -25.0m/s | -52.6°C | 4.2% | 53.3hPa | 2.6V | 00:00:00 | 02:28:52 | 00:00:00 | |
| DL1XH1-15 | 2026-08-31 12:45:58 | 49.89240 | 13.20667 | 78° | 20km/h | 20695m | -25.5m/s | -52.6°C | 4.2% | 52.9hPa | 2.6V | 03:21:27 | 02:28:50 | 00:00:00 | |
| DM0DOS-11 | 2026-08-31 12:45:58 | 49.89234 | 13.20648 | 39° | 11km/h | 20796m | -25.6m/s | -52.3°C | 4.2% | 52.1hPa | 2.7V | 03:21:31 | 02:28:46 | 00:00:00 | |
| AA1-15 | 2026-08-31 12:45:55 | 49.89238 | 13.20655 | 57° | 13km/h | 20746m | -25m/s | -52.5°C | 0.8% | 52.5hPa | 2.7V | 03:21:32 | 02:28:48 | 00:00:00 | |
| DL1XH-west | 2026-08-31 12:45:49 | 49.89219 | 13.20642 | 3° | 20km/h | 20899m | -25.3m/s | -52.5°C | 0.8% | 51.3hPa | 2.7V | 03:22:23 | 02:28:42 | 00:00:00 | |
| SONCRA | 2026-08-31 12:45:48 | 49.89214 | 13.20641 | 3° | 18km/h | 20925m | -25.4m/s | -52.7°C | 1.2% | 51.1hPa | 2.7V | 00:00:00 | 00:00:00 | 00:00:00 | |
| DM0DOS-11 | 2026-08-31 12:45:47 | 49.89187 | 13.20628 | 24° | 16km/h | 21080m | -25.9m/s | -53.1°C | 4.5% | 49.8hPa | 2.7V | 03:21:42 | 02:28:35 | 00:00:00 | |
| DL1XH1-15 | 2026-08-31 12:45:46 | 49.89200 | 13.20637 | 21° | 18km/h | 21001m | -26.7m/s | -52.9°C | 4.4% | 50.5hPa | 2.6V | 03:21:39 | 02:28:38 | 00:00:00 | |
| AA1-15 | 2026-08-31 12:45:44 | 49.89195 | 13.20634 | 25° | 20km/h | 21028m | -26.4m/s | -53°C | 0.9% | 50.3hPa | 2.6V | 03:22:23 | 02:28:37 | 00:00:00 | |
| DL1XH-west | 2026-08-31 12:45:39 | 49.89179 | 13.20619 | 52° | 13km/h | 21157m | -26m/s | -53.1°C | 1% | 49.3hPa | 2.6V | 03:22:23 | 02:28:32 | 00:00:00 | |
| DB0NH | 2026-08-31 12:45:39 | 49.89179 | 13.20619 | 53° | 15km/h | 21157m | -25.9m/s | -53.1°C | 4.5% | 49.2hPa | 2.7V | 00:00:00 | 02:28:32 | 00:00:00 | |
| DM0DOS-11 | 2026-08-31 12:45:37 | 49.89160 | 13.20595 | 17° | 13km/h | 21364m | -26m/s | -52.1°C | 4% | 47.7hPa | 2.7V | 03:21:53 | 02:28:24 | 00:00:00 | |
| AA1-15 | 2026-08-31 12:45:33 | 49.89165 | 13.20599 | 36° | 11km/h | 21312m | -25.6m/s | -52.5°C | 0.9% | 48.1hPa | 2.6V | 03:22:23 | 02:28:26 | 00:00:00 | |
| DK5PH-5 | 2026-08-31 12:45:32 | 49.89162 | 13.20597 | 35° | 13km/h | 21338m | -26.2m/s | -52.2°C | 4.1% | 47.9hPa | 2.7V | 00:00:00 | 02:28:25 | 00:00:00 | |
| DO3MHA-11 | 2026-08-31 12:45:29 | 49.89155 | 13.20592 | 44° | 5km/h | 21416m | -26.6m/s | -52.0°C | 4.0% | 47.3hPa | 2.7V | 00:00:00 | 02:28:22 | 00:00:00 | |
| DB0UT-7 | 2026-08-31 12:45:28 | 49.89154 | 13.20590 | 41° | 13km/h | 21443m | -27.0m/s | -51.9°C | 4.0% | 47.1hPa | 2.7V | 00:00:00 | 00:00:00 | 00:00:00 | |
| DJ2DS-15 | 2026-08-31 12:45:25 | 49.89151 | 13.20588 | 63° | 5km/h | 21523m | -26.0m/s | -51.9°C | 4.0% | 46.5hPa | 2.7V | 00:00:00 | 02:28:18 | 00:00:00 | |
| DM0DOS-11 | 2026-08-31 12:45:24 | 49.89152 | 13.20591 | 237° | 7km/h | 21629m | -26.7m/s | -51.9°C | 3.9% | 45.8hPa | 2.7V | 03:22:03 | 02:28:14 | 00:00:00 | |
| AA1-15 | 2026-08-31 12:45:23 | 49.89151 | 13.20587 | 277° | 2km/h | 21576m | -26.4m/s | -51.9°C | 0.7% | 46.2hPa | 2.6V | 03:22:23 | 02:28:16 | 00:00:00 | |
| OE5DRO-10 | 2026-08-31 12:45:23 | 49.89151 | 13.20587 | 278° | 16km/h | 21577m | -26.4m/s | -51.9°C | 4.0% | 46.2hPa | 2.6V | 00:00:00 | 00:00:00 | 00:00:00 | |
| DB0ND-19 | 2026-08-31 12:45:20 | 49.89154 | 13.20599 | 268° | 11km/h | 21710m | -26.3m/s | -52.3°C | 1.2% | 45.2hPa | 2.7V | 00:00:00 | 00:00:00 | 00:00:00 | |
| DL9SK-14 | 2026-08-31 12:45:19 | 49.89154 | 13.20599 | 268° | 11km/h | 21710m | -26.3m/s | -52.3°C | 1.2% | 45.2hPa | 2.7V | 00:00:00 | 00:00:00 | 00:00:00 | |
| SONCRA | 2026-08-31 12:45:18 | 49.89154 | 13.20604 | 270° | 11km/h | 21736m | -26.8m/s | -52.4°C | 1.2% | 45.1hPa | 2.7V | 00:00:00 | 00:00:00 | 00:00:00 | |
| EDDB2-11 | 2026-08-31 12:45:15 | 49.89150 | 13.20618 | 304° | 16km/h | 21818m | -27.0m/s | -52.7°C | 1.2% | 44.5hPa | 2.7V | 00:00:00 | 00:00:00 | 00:00:00 | |
| OE5MMP-10 | 2026-08-31 12:45:14 | 49.89149 | 13.20618 | 305° | 22km/h | 21818m | -27.0m/s | -52.6°C | 4.2% | 44.5hPa | 2.7V | 03:22:00 | 02:28:07 | 00:00:00 | |
| DM0DOS-11 | 2026-08-31 12:45:12 | 49.89140 | 13.20633 | 328° | 22km/h | 21900m | -27.5m/s | -53°C | 4.2% | 44hPa | 2.7V | 03:22:13 | 02:28:04 | 00:00:00 | |
| AA1-15 | 2026-08-31 12:45:12 | 49.89144 | 13.20629 | 322° | 18km/h | 21872m | -27.6m/s | -52.9°C | 0.7% | 44.2hPa | 2.6V | 03:22:23 | 02:28:05 | 00:00:00 | |
| DL1XH-west | 2026-08-31 12:45:03 | 49.89095 | 13.20650 | 3° | 16km/h | 22122m | -27.9m/s | -53.2°C | 0.9% | 42.5hPa | 2.6V | 03:22:23 | 02:27:56 | 00:00:00 | |
| AA1-15 | 2026-08-31 12:45:01 | 49.89089 | 13.20647 | 23° | 13km/h | 22178m | -29m/s | -53.1°C | 0.8% | 42.1hPa | 2.7V | 03:22:23 | 02:27:54 | 00:00:00 | |
| DM0DOS-11 | 2026-08-31 12:45:01 | 49.89083 | 13.20644 | 24° | 11km/h | 22235m | -28.1m/s | -53.2°C | 4.3% | 41.7hPa | 2.7V | 03:22:25 | 02:27:52 | 00:00:00 | |
| DL1XH1-15 | 2026-08-31 12:45:01 | 49.89086 | 13.20646 | 20° | 13km/h | 22207m | -28.2m/s | -53°C | 4.2% | 41.9hPa | 2.7V | 03:22:24 | 02:27:53 | 00:00:00 | |
| HSKMA3-T | 2026-08-31 12:44:58 | 49.89080 | 13.20642 | 32° | 9km/h | 22263m | -27.9m/s | -53.3°C | 0.9% | 41.6hPa | 2.6V | 03:23:14 | 02:27:51 | 00:00:00 | |
| EDDB2-12 | 2026-08-31 12:44:57 | 49.89079 | 13.20640 | 57° | 7km/h | 22290m | -28.3m/s | -53.4°C | 1.3% | 41.4hPa | 2.6V | 00:00:00 | 00:00:00 | 00:00:00 | |
| DL1XH1-15 | 2026-08-31 12:44:55 | 49.89075 | 13.20601 | 101° | 16km/h | 22518m | -28.5m/s | -53.2°C | 4.3% | 39.9hPa | 2.6V | 03:22:35 | 02:27:42 | 00:00:00 | |
| DL1XH-west | 2026-08-31 12:44:52 | 49.89074 | 13.20619 | 86° | 13km/h | 22433m | -28.1m/s | -53.1°C | 0.9% | 40.5hPa | 2.7V | 03:23:14 | 02:27:45 | 00:00:00 | |
| AA1-15 | 2026-08-31 12:44:51 | 49.89074 | 13.20614 | 93° | 16km/h | 22461m | -28.5m/s | -53.1°C | 0.9% | 40.3hPa | 2.6V | 03:23:14 | 02:27:44 | 00:00:00 | |
| DB0ND-19 | 2026-08-31 12:44:49 | 49.89075 | 13.20601 | 101° | 15km/h | 22518m | -28.5m/s | -53.2°C | 1.2% | 39.9hPa | 2.7V | 00:00:00 | 00:00:00 | 00:00:00 | |
| DL9SK-14 | 2026-08-31 12:44:47 | 49.89078 | 13.20592 | 136° | 13km/h | 22576m | -27.7m/s | -53.3°C | 1.2% | 39.6hPa | 2.7V | 00:00:00 | 00:00:00 | 00:00:00 | |
| HSKMA3-T | 2026-08-31 12:44:42 | 49.89091 | 13.20588 | 210° | 13km/h | 22717m | -28.1m/s | -53.5°C | 1% | 38.7hPa | 2.7V | 03:23:14 | 02:27:35 | 00:00:00 | |
| DL1XH-west | 2026-08-31 12:44:42 | 49.89093 | 13.20590 | 214° | 13km/h | 22746m | -28.6m/s | -53.3°C | 0.9% | 38.5hPa | 2.7V | 03:23:14 | 02:27:34 | 00:00:00 | |
| DL1XH1-15 | 2026-08-31 12:44:41 | 49.89098 | 13.20596 | 236° | 7km/h | 22803m | -29.2m/s | -53°C | 4.3% | 38.2hPa | 2.6V | 03:22:45 | 02:27:32 | 00:00:00 | |
| AA1-15 | 2026-08-31 12:44:40 | 49.89096 | 13.20593 | 220° | 11km/h | 22774m | -29m/s | -53.2°C | 0.9% | 38.3hPa | 2.7V | 03:23:14 | 02:27:33 | 00:00:00 | |
| HSKMA3-T | 2026-08-31 12:44:32 | 49.89098 | 13.20601 | 80° | 4km/h | 23007m | -30m/s | -53.1°C | 0.8% | 37hPa | 2.7V | 03:23:14 | 02:27:25 | 00:00:00 | |
| AA1-15 | 2026-08-31 12:44:30 | 49.89097 | 13.20599 | 304° | 2km/h | 23067m | -29.5m/s | -53.2°C | 0.9% | 36.7hPa | 2.6V | 03:23:14 | 02:27:23 | 00:00:00 | |
| DM0DOS-11 | 2026-08-31 12:44:29 | 49.89098 | 13.20605 | 262° | 7km/h | 23155m | -30.1m/s | -53.3°C | 4.6% | 36.2hPa | 2.7V | 03:22:57 | 02:27:20 | 00:00:00 | |
| DO3MHA-11 | 2026-08-31 12:44:29 | 49.89097 | 13.20600 | 253° | 13km/h | 23097m | -29.2m/s | -53.2°C | 4.4% | 36.4hPa | 2.7V | 00:00:00 | 02:27:22 | 00:00:00 | |
| DJ2DS-15 | 2026-08-31 12:44:28 | 49.89098 | 13.20602 | 248° | 5km/h | 23125m | -29.6m/s | -53.3°C | 1.3% | 36.3hPa | 2.7V | 00:00:00 | 00:00:00 | 00:00:00 | |
| SONDE2-11 | 2026-08-31 12:44:27 | 49.89098 | 13.20605 | 262° | 5km/h | 23155m | -30.1m/s | -53.3°C | 1.3% | 36.2hPa | 2.7V | 00:00:00 | 00:00:00 | 00:00:00 | |
| OE5DRO-10 | 2026-08-31 12:44:26 | 49.89098 | 13.20608 | 277° | 18km/h | 23185m | -30.1m/s | -53.4°C | 4.6% | 36.0hPa | 2.7V | 00:00:00 | 00:00:00 | 00:00:00 | |
| DL1XH1-15 | 2026-08-31 12:44:24 | 49.89093 | 13.20628 | 304° | 15km/h | 23304m | -29.9m/s | -53.3°C | 4.6% | 35.3hPa | 2.7V | 03:23:02 | 02:27:15 | 00:00:00 | |
| HSKMA3-T | 2026-08-31 12:44:21 | 49.89090 | 13.20633 | 316° | 15km/h | 23334m | -30m/s | -53.2°C | 1% | 35.2hPa | 2.7V | 03:23:14 | 02:27:14 | 00:00:00 | |
| SP3BTT-10 | 2026-08-31 12:44:20 | 49.89087 | 13.20636 | 333° | 26km/h | 23364m | -30.2m/s | -53.2°C | 4.6% | 35.0hPa | 2.7V | 00:00:00 | 00:00:00 | 00:00:00 | |
| DM0DOS-11 | 2026-08-31 12:44:19 | 49.89070 | 13.20648 | 338° | 18km/h | 23485m | -30m/s | -53°C | 4.5% | 34.4hPa | 2.7V | 03:23:08 | 02:27:09 | 00:00:00 | |
| DL1XH-west | 2026-08-31 12:44:19 | 49.89083 | 13.20639 | 338° | 18km/h | 23394m | -30.3m/s | -53.2°C | 1% | 34.9hPa | 2.6V | 03:23:14 | 02:27:12 | 00:00:00 | |
| DO3MHA-11 | 2026-08-31 12:44:19 | 49.89083 | 13.20639 | 338° | 18km/h | 23394m | -30.2m/s | -53.1°C | 4.6% | 34.8hPa | 2.7V | 03:23:00 | 02:27:12 | 00:00:00 | |
| DB0ND-19 | 2026-08-31 12:44:18 | 49.89079 | 13.20642 | 337° | 18km/h | 23424m | -30.4m/s | -53.1°C | 1.2% | 34.7hPa | 2.7V | 00:00:00 | 00:00:00 | 00:00:00 | |
| NBG1-10 | 2026-08-31 12:44:17 | 49.89075 | 13.20645 | 339° | 24km/h | 23455m | -30.1m/s | -53.0°C | 4.5% | 34.5hPa | 2.7V | 03:23:00 | 02:27:10 | 00:00:00 | |
| DB0NH | 2026-08-31 12:44:16 | 49.89070 | 13.20647 | 339° | 15km/h | 23485m | -29.9m/s | -53.0°C | 4.5% | 34.3hPa | 2.7V | 03:23:00 | 02:27:09 | 00:00:00 | |
| SONCRA | 2026-08-31 12:44:15 | 49.89066 | 13.20650 | 341° | 16km/h | 23515m | -30.8m/s | -53.0°C | 1.3% | 34.2hPa | 2.7V | 00:00:00 | 00:00:00 | 00:00:00 | |
| DL1XH1-15 | 2026-08-31 12:44:14 | 49.89054 | 13.20658 | 322° | 20km/h | 23608m | -31.6m/s | -52.6°C | 4.4% | 33.7hPa | 2.7V | 03:23:12 | 02:27:05 | 00:00:00 | |
| HSKMA3-T | 2026-08-31 12:44:11 | 49.89047 | 13.20669 | 313° | 20km/h | 23670m | -32.1m/s | -52.4°C | 0.8% | 33.4hPa | 2.7V | 03:23:14 | 02:27:03 | 00:00:00 | |
| AA1-15 | 2026-08-31 12:44:08 | 49.89040 | 13.20680 | 319° | 22km/h | 23735m | -32.6m/s | -52°C | 0.7% | 33.1hPa | 2.6V | 03:24:05 | 02:27:01 | 00:00:00 | |
| OE5DRO-10 | 2026-08-31 12:44:07 | 49.89035 | 13.20686 | 322° | 27km/h | 23767m | -32.1m/s | -51.9°C | 4.1% | 32.8hPa | 2.7V | 00:00:00 | 00:00:00 | 00:00:00 | |
| DM0DOS-11 | 2026-08-31 12:44:06 | 49.89026 | 13.20696 | 321° | 24km/h | 23831m | -31.8m/s | -51.8°C | 4.1% | 32.6hPa | 2.7V | 03:23:19 | 02:26:58 | 00:00:00 | |
| HSKMA3-T | 2026-08-31 12:43:59 | 49.88981 | 13.20734 | 333° | 26km/h | 24087m | -31.9m/s | -51.7°C | 0.7% | 31.3hPa | 2.6V | 03:24:05 | 02:26:50 | 00:00:00 | |
| AA1-15 | 2026-08-31 12:43:58 | 49.88987 | 13.20730 | 336° | 27km/h | 24055m | -31.8m/s | -51.7°C | 0.7% | 31.4hPa | 2.6V | 03:24:05 | 02:26:51 | 00:00:00 | |
| EDDB2-12 | 2026-08-31 12:43:55 | 49.88969 | 13.20742 | 337° | 27km/h | 24151m | -32.8m/s | -51.5°C | 1.1% | 31.0hPa | 2.6V | 00:00:00 | 00:00:00 | 00:00:00 | |
| DM0DOS-11 | 2026-08-31 12:43:54 | 49.88924 | 13.20753 | 7° | 29km/h | 24345m | -32.9m/s | -51.8°C | 4.1% | 30.1hPa | 2.6V | 03:23:35 | 02:26:42 | 00:00:00 | |
| AA1-15 | 2026-08-31 12:43:48 | 49.88917 | 13.20751 | 10° | 29km/h | 24378m | -32.5m/s | -51.8°C | 0.8% | 29.9hPa | 2.6V | 03:24:05 | 02:26:41 | 00:00:00 | |
| HSKMA3-T | 2026-08-31 12:43:46 | 49.88903 | 13.20746 | 19° | 26km/h | 24443m | -32m/s | -51.8°C | 0.7% | 29.6hPa | 2.7V | 03:24:05 | 02:26:39 | 00:00:00 | |
| DB0UT-7 | 2026-08-31 12:43:45 | 49.88898 | 13.20742 | 30° | 9km/h | 24475m | -31.6m/s | -51.7°C | 4.1% | 29.4hPa | 2.7V | 00:00:00 | 00:00:00 | 00:00:00 | |
| OE5MMP-10 | 2026-08-31 12:43:44 | 49.88894 | 13.20738 | 40° | 7km/h | 24506m | -31.5m/s | -51.7°C | 4.1% | 29.3hPa | 2.6V | 00:00:00 | 02:26:37 | 00:00:00 | |
| DM0DOS-11 | 2026-08-31 12:43:43 | 49.88885 | 13.20716 | 45° | 2km/h | 24699m | -31.9m/s | -52°C | 4.3% | 28.5hPa | 2.6V | 03:23:46 | 02:26:31 | 00:00:00 | |
| DL1XH-west | 2026-08-31 12:43:37 | 49.88885 | 13.20716 | 21° | 2km/h | 24730m | -32.4m/s | -51.8°C | 0.8% | 28.3hPa | 2.6V | 03:24:05 | 02:26:30 | 00:00:00 | |
| HSKMA3-T | 2026-08-31 12:43:36 | 49.88884 | 13.20716 | 24° | 4km/h | 24763m | -32.8m/s | -51.9°C | 0.8% | 28.1hPa | 2.6V | 03:24:05 | 02:26:29 | 00:00:00 | |
| DL1XH1-15 | 2026-08-31 12:43:34 | 49.88877 | 13.20712 | 44° | 11km/h | 24891m | -32.7m/s | -51.7°C | 4.3% | 27.6hPa | 2.6V | 03:23:52 | 02:26:25 | 00:00:00 | |
| OE5MMP-10 | 2026-08-31 12:43:34 | 49.88881 | 13.20714 | 6° | 11km/h | 24828m | -31.2m/s | -51.7°C | 4.3% | 27.8hPa | 2.7V | 00:00:00 | 02:26:27 | 00:00:00 | |
| ANDY1245 | 2026-08-31 12:43:33 | 49.88881 | 13.20714 | 7° | 7km/h | 24828m | -31.3m/s | -51.8°C | 1.2% | 27.9hPa | 2.7V | 00:00:00 | 00:00:00 | 00:00:00 | |
| DM0DOS-11 | 2026-08-31 12:43:32 | 49.88870 | 13.20695 | 82° | 13km/h | 25025m | -35.7m/s | -51.6°C | 4.3% | 27.1hPa | 2.7V | 03:23:56 | 02:26:21 | 00:00:00 | |
| AA1-15 | 2026-08-31 12:43:27 | 49.88870 | 13.20687 | 108° | 9km/h | 25098m | -36.2m/s | -51.5°C | 0.8% | 26.8hPa | 2.6V | 03:24:05 | 02:26:19 | 00:00:00 | |
| HSKMA3-T | 2026-08-31 12:43:25 | 49.88871 | 13.20684 | 111° | 9km/h | 25135m | -37m/s | -51.4°C | 0.8% | 26.6hPa | 2.6V | 03:24:05 | 02:26:18 | 00:00:00 | |
| DF8AY | 2026-08-31 12:43:25 | 49.88872 | 13.20682 | 153° | 4km/h | 25172m | -36.7m/s | -51.3°C | 0.8% | 26.5hPa | 2.7V | 03:24:56 | 02:26:17 | 00:00:00 | |
| OE5MMP-10 | 2026-08-31 12:43:24 | 49.88872 | 13.20682 | 154° | 7km/h | 25173m | -36.6m/s | -51.3°C | 4.2% | 26.4hPa | 2.7V | 00:00:00 | 02:26:17 | 00:00:00 | |
| PG1ADW-2 | 2026-08-31 12:43:23 | 49.88873 | 13.20681 | 165° | 15km/h | 25208m | -36.3m/s | -51.1°C | 4.2% | 26.3hPa | 2.7V | 00:00:00 | 00:00:00 | 00:00:00 | |
| DM0DOS-11 | 2026-08-31 12:43:21 | 49.88871 | 13.20691 | 310° | 11km/h | 25396m | -38m/s | -50.4°C | 3.9% | 25.6hPa | 2.7V | 03:24:06 | 02:26:11 | 00:00:00 | |
| DL1XH-west | 2026-08-31 12:43:16 | 49.88859 | 13.20700 | 1° | 18km/h | 25550m | -38.5m/s | -50.1°C | 0.6% | 25hPa | 2.6V | 03:24:56 | 02:26:07 | 00:00:00 | |
| HSKMA3-T | 2026-08-31 12:43:15 | 49.88863 | 13.20699 | 345° | 15km/h | 25512m | -38.5m/s | -50.2°C | 0.6% | 25.1hPa | 2.6V | 03:24:56 | 02:26:08 | 00:00:00 | |
| DB0UT-7 | 2026-08-31 12:43:15 | 49.88863 | 13.20699 | 345° | 11km/h | 25512m | -38.5m/s | -50.2°C | 3.9% | 25.1hPa | 2.7V | 03:24:00 | 02:26:08 | 00:00:00 | |
| DL1XH1-15 | 2026-08-31 12:43:14 | 49.88848 | 13.20699 | 10° | 22km/h | 25627m | -38.3m/s | -49.9°C | 3.8% | 24.7hPa | 2.7V | 03:24:12 | 02:26:05 | 00:00:00 | |
| DF8AY | 2026-08-31 12:43:11 | 49.88819 | 13.20702 | 325° | 13km/h | 25855m | -37.7m/s | -49.9°C | 0.5% | 23.8hPa | 2.7V | 03:24:56 | 02:25:59 | 00:00:00 | |
| NBG1-10 | 2026-08-31 12:43:11 | 49.88843 | 13.20697 | 13° | 11km/h | 25665m | -38.8m/s | -49.9°C | 3.8% | 24.5hPa | 2.7V | 00:00:00 | 02:26:04 | 00:00:00 | |
| EDDB2-11 | 2026-08-31 12:43:10 | 49.88838 | 13.20696 | 10° | 22km/h | 25704m | -38.7m/s | -50.0°C | 1.0% | 24.4hPa | 2.6V | 00:00:00 | 00:00:00 | 00:00:00 | |
| DO3MHA-11 | 2026-08-31 12:43:09 | 49.88832 | 13.20695 | 2° | 13km/h | 25742m | -37.8m/s | -49.9°C | 3.8% | 24.2hPa | 2.6V | 00:00:00 | 02:26:02 | 00:00:00 | |
| DL1XH1-15 | 2026-08-31 12:43:07 | 49.88811 | 13.20715 | 271° | 7km/h | 26044m | -37.4m/s | -49.9°C | 3.8% | 23.1hPa | 2.7V | 03:24:23 | 02:25:54 | 00:00:00 | |
| HSKMA3-T | 2026-08-31 12:43:05 | 49.88816 | 13.20705 | 324° | 13km/h | 25893m | -38.1m/s | -50°C | 0.6% | 23.7hPa | 2.6V | 03:24:56 | 02:25:58 | 00:00:00 | |
| AA1-15 | 2026-08-31 12:43:04 | 49.88814 | 13.20708 | 315° | 11km/h | 25931m | -38.6m/s | -50°C | 0.6% | 23.6hPa | 2.6V | 03:24:56 | 02:25:57 | 00:00:00 | |
| DL1XH-west | 2026-08-31 12:43:03 | 49.88812 | 13.20710 | 294° | 7km/h | 25969m | -37.7m/s | -49.8°C | 0.5% | 23.4hPa | 2.6V | 03:24:56 | 02:25:56 | 00:00:00 | |
| PG1ADW-2 | 2026-08-31 12:43:03 | 49.88812 | 13.20710 | 294° | 9km/h | 25969m | -37.7m/s | -49.8°C | 3.8% | 23.4hPa | 2.7V | 03:24:00 | 00:00:00 | 00:00:00 | |
| DK5PH-5 | 2026-08-31 12:43:02 | 49.88812 | 13.20713 | 278° | 9km/h | 26007m | -38.1m/s | -49.8°C | 3.8% | 23.3hPa | 2.7V | 03:24:00 | 02:25:55 | 00:00:00 | |
| DM0DOS-11 | 2026-08-31 12:43:01 | 49.88813 | 13.20723 | 335° | 2km/h | 26194m | -38.1m/s | -50°C | 3.9% | 22.6hPa | 2.7V | 03:24:27 | 02:25:50 | 00:00:00 | |
| DF8AY | 2026-08-31 12:42:57 | 49.88813 | 13.20723 | 336° | 2km/h | 26194m | -38.1m/s | -50°C | 0.6% | 22.6hPa | 2.7V | 03:24:56 | 02:25:50 | 00:00:00 | |
| HSKMA3-T | 2026-08-31 12:42:54 | 49.88808 | 13.20723 | 12° | 11km/h | 26307m | -37.4m/s | -49.9°C | 0.6% | 22.2hPa | 2.6V | 03:24:56 | 02:25:47 | 00:00:00 | |
| DL1XH1-15 | 2026-08-31 12:42:54 | 49.88797 | 13.20721 | 9° | 16km/h | 26423m | -40.2m/s | -49.4°C | 3.7% | 21.9hPa | 2.7V | 03:24:33 | 02:25:44 | 00:00:00 | |
| AA1-15 | 2026-08-31 12:42:53 | 49.88805 | 13.20722 | 5° | 15km/h | 26345m | -38.7m/s | -49.6°C | 0.6% | 22.1hPa | 2.6V | 03:24:56 | 02:25:46 | 00:00:00 | |
| DL1XH-west | 2026-08-31 12:42:52 | 49.88801 | 13.20722 | 6° | 15km/h | 26383m | -39.1m/s | -49.5°C | 0.5% | 22hPa | 2.6V | 03:24:56 | 02:25:45 | 00:00:00 | |
| DJ2DS-15 | 2026-08-31 12:42:51 | 49.88797 | 13.20721 | 10° | 9km/h | 26423m | -40.2m/s | -49.4°C | 3.7% | 21.8hPa | 2.7V | 00:00:00 | 02:25:44 | 00:00:00 | |
| OE5DRO-10 | 2026-08-31 12:42:50 | 49.88793 | 13.20719 | 19° | 11km/h | 26463m | -40.4m/s | -49.4°C | 3.7% | 21.7hPa | 2.6V | 00:00:00 | 00:00:00 | 00:00:00 | |
| DM0DOS-11 | 2026-08-31 12:42:49 | 49.88777 | 13.20712 | 46° | 9km/h | 26661m | -39.4m/s | -49.3°C | 3.8% | 21.1hPa | 2.6V | 03:24:39 | 02:25:38 | 00:00:00 | |
| HSKMA3-T | 2026-08-31 12:42:44 | 49.88776 | 13.20710 | 71° | 7km/h | 26700m | -38.6m/s | -49.3°C | 0.6% | 20.9hPa | 2.7V | 03:24:56 | 02:25:37 | 00:00:00 | |
| DL1XH1-15 | 2026-08-31 12:42:44 | 49.88776 | 13.20704 | 140° | 7km/h | 26813m | -38.1m/s | -49.3°C | 3.9% | 20.6hPa | 2.6V | 03:24:43 | 02:25:34 | 00:00:00 | |
| DL1XH-west | 2026-08-31 12:42:42 | 49.88776 | 13.20705 | 89° | 4km/h | 26776m | -37.4m/s | -49.3°C | 0.6% | 20.7hPa | 2.7V | 03:24:56 | 02:25:35 | 00:00:00 | |
| SONCRA | 2026-08-31 12:42:42 | 49.88776 | 13.20704 | 140° | 5km/h | 26813m | -38.1m/s | -49.3°C | 1.0% | 20.6hPa | 2.7V | 00:00:00 | 00:00:00 | 00:00:00 | |
| DO3MHA-11 | 2026-08-31 12:42:39 | 49.88778 | 13.20701 | 183° | 9km/h | 26890m | -38.3m/s | -49.3°C | 3.9% | 20.3hPa | 2.7V | 00:00:00 | 02:25:32 | 00:00:00 | |
| NBG1-10 | 2026-08-31 12:42:38 | 49.88779 | 13.20701 | 175° | 9km/h | 26929m | -40.1m/s | -49.5°C | 4.0% | 20.2hPa | 2.7V | 00:00:00 | 02:25:31 | 00:00:00 | |
| DM0DOS-11 | 2026-08-31 12:42:37 | 49.88769 | 13.20706 | 348° | 18km/h | 27132m | -42.5m/s | -49.2°C | 4% | 19.6hPa | 2.7V | 03:24:51 | 02:25:26 | 00:00:00 | |
| HSKMA3-T | 2026-08-31 12:42:34 | 49.88773 | 13.20704 | 342° | 13km/h | 27091m | -41.2m/s | -49.3°C | 0.7% | 19.7hPa | 2.6V | 03:24:56 | 02:25:27 | 00:00:00 | |
| DL1XH-west | 2026-08-31 12:42:32 | 49.88765 | 13.20707 | 358° | 16km/h | 27174m | -42.4m/s | -49°C | 0.7% | 19.5hPa | 2.7V | 03:24:56 | 02:25:25 | 00:00:00 | |
| DK5PH-5 | 2026-08-31 12:42:32 | 49.88765 | 13.20707 | 358° | 9km/h | 27175m | -42.3m/s | -49.0°C | 4.0% | 19.4hPa | 2.6V | 00:00:00 | 02:25:25 | 00:00:00 | |
| DJ2DS-15 | 2026-08-31 12:42:31 | 49.88761 | 13.20707 | 360° | 7km/h | 27217m | -42.5m/s | -48.7°C | 3.9% | 19.3hPa | 2.6V | 00:00:00 | 02:25:24 | 00:00:00 | |
| OE5DRO-10 | 2026-08-31 12:42:30 | 49.88758 | 13.20708 | 360° | 7km/h | 27258m | -41.1m/s | -48.3°C | 3.8% | 19.2hPa | 2.6V | 03:24:00 | 00:00:00 | 00:00:00 | |
| DL6DJ-15 | 2026-08-31 12:42:29 | 49.88753 | 13.20708 | 327° | 4km/h | 27340m | -41.4m/s | -47.7°C | 1.0% | 19.0hPa | 2.6V | 00:00:00 | 00:00:00 | 00:00:00 | |
| DM0DOS-11 | 2026-08-31 12:42:27 | 49.88760 | 13.20710 | 194° | 9km/h | 27543m | -40.4m/s | -47.9°C | 3.7% | 18.4hPa | 2.6V | 03:25:01 | 02:25:16 | 00:00:00 | |
| DL1XH1-15 | 2026-08-31 12:42:27 | 49.88763 | 13.20710 | 206° | 2km/h | 27627m | -44.3m/s | -47.8°C | 3.7% | 18.2hPa | 2.7V | 03:25:03 | 02:25:14 | 00:00:00 | |
| HSKMA3-T | 2026-08-31 12:42:24 | 49.88757 | 13.20709 | 179° | 11km/h | 27503m | -39.9m/s | -48°C | 0.5% | 18.5hPa | 2.6V | 03:25:47 | 02:25:17 | 00:00:00 | |
| AA1-15 | 2026-08-31 12:42:23 | 49.88763 | 13.20710 | 206° | 2km/h | 27627m | -44.3m/s | -47.8°C | 0.5% | 18.2hPa | 2.7V | 03:25:47 | 02:25:14 | 00:00:00 | |
| DL1XH-west | 2026-08-31 12:42:22 | 49.88762 | 13.20710 | 180° | 9km/h | 27584m | -42.3m/s | -47.8°C | 0.5% | 18.2hPa | 2.7V | 03:25:47 | 02:25:15 | 00:00:00 | |
| DF8AY | 2026-08-31 12:42:18 | 49.88758 | 13.20708 | 11° | 9km/h | 27888m | -43.1m/s | -46.5°C | 0.3% | 17.4hPa | 2.7V | 03:25:47 | 02:25:08 | 00:00:00 | |
| HSKMA3-T | 2026-08-31 12:42:13 | 49.88755 | 13.20705 | 44° | 7km/h | 27977m | -46.4m/s | -46.3°C | 0.3% | 17.3hPa | 2.7V | 03:25:47 | 02:25:06 | 00:00:00 | |
| DL1XH1-15 | 2026-08-31 12:42:13 | 49.88753 | 13.20700 | 77° | 9km/h | 28069m | -45.6m/s | -46.2°C | 3.4% | 17hPa | 2.6V | 03:25:13 | 02:25:04 | 00:00:00 | |
| DL1XH-west | 2026-08-31 12:42:12 | 49.88753 | 13.20700 | 77° | 9km/h | 28069m | -45.6m/s | -46.2°C | 0.3% | 17hPa | 2.6V | 03:25:47 | 02:25:04 | 00:00:00 | |
| DF8AY | 2026-08-31 12:42:06 | 49.88751 | 13.20648 | 83° | 7km/h | 28525m | -47.7m/s | -45.5°C | 0.2% | 15.9hPa | 2.6V | 03:25:47 | 02:24:54 | 00:00:00 | |
| NBG1-10 | 2026-08-31 12:42:05 | 49.88753 | 13.20671 | 89° | 15km/h | 28344m | -45.0m/s | -45.6°C | 3.2% | 16.3hPa | 2.6V | 03:25:00 | 02:24:58 | 00:00:00 | |
| DL1XH1-15 | 2026-08-31 12:42:04 | 49.88750 | 13.20648 | 82° | 7km/h | 28525m | -47.7m/s | -45.5°C | 3.2% | 15.9hPa | 2.6V | 03:25:23 | 02:24:54 | 00:00:00 | |
| AA1-15 | 2026-08-31 12:42:02 | 49.88751 | 13.20652 | 77° | 15km/h | 28478m | -46.2m/s | -45.6°C | 0.2% | 16hPa | 2.7V | 03:25:47 | 02:24:55 | 00:00:00 | |
| DL1XH-west | 2026-08-31 12:42:00 | 49.88751 | 13.20645 | 119° | 7km/h | 28573m | -47.8m/s | -45.3°C | 0.2% | 15.8hPa | 2.6V | 03:25:47 | 02:24:53 | 00:00:00 | |
| DF7PN | 2026-08-31 12:41:57 | 49.88754 | 13.20631 | 54° | 9km/h | 28898m | -41.9m/s | 0°C | -1.0% | -1.0hPa | 2.6V | 00:00:00 | 00:00:00 | 00:00:00 | |
| OE5MMP-10 | 2026-08-31 12:41:54 | 49.88755 | 13.20634 | 75° | 18km/h | 28855m | -44.5m/s | -44.9°C | 3.2% | 15.0hPa | 2.6V | 03:25:00 | 02:24:47 | 00:00:00 | |
| DL1XH1-15 | 2026-08-31 12:41:53 | 49.88749 | 13.20623 | 52° | 18km/h | 28981m | -40.5m/s | -44.6°C | 3% | 14.8hPa | 2.7V | 03:25:33 | 02:24:44 | 00:00:00 | |
| HSKMA3-T | 2026-08-31 12:41:52 | 49.88752 | 13.20628 | 51° | 15km/h | 28940m | -42m/s | -44.7°C | 0.1% | 14.9hPa | 2.7V | 03:25:47 | 02:24:45 | 00:00:00 | |
| AA1-15 | 2026-08-31 12:41:52 | 49.88749 | 13.20623 | 53° | 18km/h | 28981m | -40.5m/s | -44.6°C | 0% | 14.8hPa | 2.7V | 03:25:47 | 02:24:44 | 00:00:00 | |
| DL1XH-west | 2026-08-31 12:41:50 | 49.88746 | 13.20616 | 53° | 22km/h | 29022m | -40.1m/s | -44.4°C | 0.1% | 14.7hPa | 2.7V | 03:25:47 | 02:24:43 | 00:00:00 | |
| DF8AY | 2026-08-31 12:41:44 | 49.88721 | 13.20580 | 30° | 15km/h | 29272m | -43.2m/s | -44.1°C | 0% | 14.2hPa | 2.7V | 03:25:47 | 02:24:37 | 00:00:00 | |
| OE5MMP-10 | 2026-08-31 12:41:44 | 49.88721 | 13.20580 | 31° | 13km/h | 29272m | -43.1m/s | -44.1°C | 3.0% | 14.1hPa | 2.6V | 00:00:00 | 02:24:37 | 00:00:00 | |
| PG1ADW-2 | 2026-08-31 12:41:43 | 49.88718 | 13.20577 | 32° | 18km/h | 29316m | -43.8m/s | -44.0°C | 3.0% | 14.0hPa | 2.6V | 03:25:00 | 00:00:00 | 00:00:00 | |
| DL1XH1-15 | 2026-08-31 12:41:42 | 49.88713 | 13.20573 | 36° | 11km/h | 29402m | -44.1m/s | -44.2°C | 3.1% | 13.9hPa | 2.7V | 03:25:43 | 02:24:34 | 00:00:00 | |
| HSKMA3-T | 2026-08-31 12:41:41 | 49.88711 | 13.20570 | 47° | 9km/h | 29446m | -44.3m/s | -44.3°C | 0.1% | 13.8hPa | 2.7V | 03:25:47 | 02:24:33 | 00:00:00 | |
| DL1XH-west | 2026-08-31 12:41:39 | 49.88710 | 13.20568 | 56° | 7km/h | 29492m | -45.9m/s | -44.4°C | 0.2% | 13.7hPa | 2.7V | 03:25:47 | 02:24:32 | 00:00:00 | |
| DO3MHA-11 | 2026-08-31 12:41:39 | 49.88710 | 13.20568 | 57° | 20km/h | 29492m | -45.8m/s | -44.3°C | 3.2% | 13.7hPa | 2.7V | 03:25:00 | 02:24:32 | 00:00:00 | |
| EDDB2-11 | 2026-08-31 12:41:37 | 49.88707 | 13.20562 | 58° | 9km/h | 29586m | -48.3m/s | -44.5°C | 0.8% | 13.6hPa | 2.6V | 00:00:00 | 00:00:00 | 00:00:00 | |
| DM0DOS-11 | 2026-08-31 12:41:36 | 49.88694 | 13.20518 | 71° | 27km/h | 29885m | -49.9m/s | -43.9°C | 3.1% | 12.9hPa | 2.6V | 03:25:53 | 02:24:24 | 00:00:00 | |
| DF8AY | 2026-08-31 12:41:33 | 49.88696 | 13.20528 | 70° | 27km/h | 29835m | -51.2m/s | -44°C | 0.1% | 13.1hPa | 2.7V | 03:29:11 | 02:24:25 | 00:00:00 | |
| HSKMA3-T | 2026-08-31 12:41:30 | 49.88691 | 13.20508 | 72° | 29km/h | 29934m | -48.7m/s | -43.8°C | 0.1% | 12.8hPa | 2.6V | 03:26:38 | 02:24:23 | 00:00:00 | |
| DL1XH-west | 2026-08-31 12:41:29 | 49.88690 | 13.20497 | 77° | 26km/h | 29982m | -45.5m/s | -43.7°C | 0.1% | 12.7hPa | 2.6V | 03:26:38 | 02:24:22 | 00:00:00 | |
| DO3MHA-11 | 2026-08-31 12:41:29 | 49.88690 | 13.20497 | 77° | 16km/h | 29982m | -45.5m/s | -43.6°C | 3.1% | 12.7hPa | 2.6V | 00:00:00 | 02:24:22 | 00:00:00 | |
| DJ2DS-15 | 2026-08-31 12:41:28 | 49.88689 | 13.20480 | 98° | 18km/h | 30078m | -50.9m/s | -43.1°C | 0.7% | 12.6hPa | 2.6V | 00:00:00 | 00:00:00 | 00:00:00 | |
| DL6DJ-15 | 2026-08-31 12:41:26 | 49.88690 | 13.20473 | 118° | 18km/h | 30128m | -50.5m/s | -42.9°C | 0.7% | 12.5hPa | 2.6V | 00:00:00 | 00:00:00 | 00:00:00 | |
| SFWM-10 | 2026-08-31 12:41:25 | 49.88693 | 13.20467 | 128° | 16km/h | 30178m | -47.8m/s | -42.6°C | 0.8% | 12.4hPa | 2.6V | 03:26:00 | 00:00:00 | 00:00:00 | |
| OE5MMP-10 | 2026-08-31 12:41:24 | 49.88695 | 13.20463 | 144° | 11km/h | 30225m | -45.6m/s | -42.4°C | 2.8% | 12.2hPa | 2.6V | 00:00:00 | 02:24:17 | 00:00:00 | |
| DL1XH1-15 | 2026-08-31 12:41:23 | 49.88705 | 13.20456 | 164° | 13km/h | 30364m | -47.1m/s | -42.1°C | 2.8% | 12hPa | 2.7V | 03:26:03 | 02:24:14 | 00:00:00 | |
| HSKMA3-T | 2026-08-31 12:41:20 | 49.88710 | 13.20453 | 153° | 9km/h | 30455m | -44.1m/s | -42.1°C | 0% | 11.8hPa | 2.6V | 03:26:38 | 02:24:12 | 00:00:00 | |
| DF8AY | 2026-08-31 12:41:19 | 49.88705 | 13.20428 | 47° | 16km/h | 30745m | -41.6m/s | -41.8°C | 0% | 11.3hPa | 2.7V | 03:29:11 | 02:24:05 | 00:00:00 | |
| DO3MHA-11 | 2026-08-31 12:41:19 | 49.88710 | 13.20453 | 153° | 13km/h | 30456m | -44.0m/s | -42.1°C | 2.9% | 11.8hPa | 2.7V | 00:00:00 | 02:24:12 | 00:00:00 | |
| DL1XH-15 | 2026-08-31 12:41:18 | 49.88705 | 13.20428 | 46° | 16km/h | 30745m | -41.6m/s | -41.8°C | 2.9% | 11.3hPa | 2.7V | 03:26:12 | 02:24:05 | 00:00:00 | |
| DL1XH-west | 2026-08-31 12:41:18 | 49.88711 | 13.20451 | 140° | 5km/h | 30499m | -43m/s | -42°C | 0% | 11.8hPa | 2.6V | 03:26:38 | 02:24:11 | 00:00:00 | |
| DB0NH | 2026-08-31 12:41:18 | 49.88711 | 13.20451 | 141° | 15km/h | 30499m | -42.9m/s | -42.0°C | 2.9% | 11.7hPa | 2.7V | 00:00:00 | 02:24:11 | 00:00:00 | |
| PETON7-10 | 2026-08-31 12:41:17 | 49.88712 | 13.20449 | 84° | 16km/h | 30541m | -42.0m/s | -41.9°C | 2.9% | 11.6hPa | 2.7V | 00:00:00 | 00:00:00 | 00:00:00 | |
| DL1XH1-15 | 2026-08-31 12:41:15 | 49.88702 | 13.20424 | 39° | 16km/h | 30787m | -44.5m/s | -41.5°C | 2.8% | 11.3hPa | 2.7V | 03:26:13 | 02:24:04 | 00:00:00 | |
| DB0ND-19 | 2026-08-31 12:41:13 | 49.88705 | 13.20428 | 46° | 15km/h | 30745m | -41.6m/s | -41.8°C | 0.7% | 11.3hPa | 2.7V | 00:00:00 | 00:00:00 | 00:00:00 | |
| BAUMI2-15 | 2026-08-31 12:41:12 | 49.88705 | 13.20428 | 47° | 13km/h | 30745m | -41.5m/s | -41.7°C | 2.9% | 11.3hPa | 2.7V | 03:26:00 | 02:24:05 | 00:00:00 | |
| DJ2DS-15 | 2026-08-31 12:41:11 | 49.88702 | 13.20423 | 40° | 20km/h | 30788m | -44.4m/s | -41.5°C | 2.8% | 11.2hPa | 2.6V | 00:00:00 | 02:24:04 | 00:00:00 | |
| DM0DOS-11 | 2026-08-31 12:41:10 | 49.88696 | 13.20415 | 35° | 16km/h | 30880m | -49m/s | -41.1°C | 2.7% | 11.1hPa | 2.6V | 03:26:15 | 02:24:02 | 00:00:00 | |
| HSKMA3-T | 2026-08-31 12:41:09 | 49.88696 | 13.20415 | 35° | 16km/h | 30880m | -49m/s | -41.1°C | 0% | 11.1hPa | 2.6V | 03:26:38 | 02:24:02 | 00:00:00 | |
| AA1-15 | 2026-08-31 12:41:08 | 49.88693 | 13.20412 | 27° | 15km/h | 30930m | -50.4m/s | -40.9°C | 0% | 11.1hPa | 2.6V | 03:26:38 | 02:24:01 | 00:00:00 | |
| EDDB2-11 | 2026-08-31 12:41:06 | 49.88687 | 13.20406 | 31° | 15km/h | 31032m | -52.7m/s | -40.2°C | 0.6% | 10.9hPa | 2.7V | 00:00:00 | 00:00:00 | 00:00:00 | |
| OE5DXL-15 | 2026-08-31 12:41:05 | 49.88675 | 13.20398 | 31° | 18km/h | 31188m | -52.7m/s | -39.9°C | 2.5% | 10.6hPa | 2.7V | 00:00:00 | 00:00:00 | 00:00:00 | |
| DM0DOS-11 | 2026-08-31 12:41:04 | 49.88652 | 13.20381 | 25° | 26km/h | 31395m | -49.5m/s | -40°C | 2.6% | 10.3hPa | 2.7V | 03:26:25 | 02:23:52 | 00:00:00 | |
| DF8AY | 2026-08-31 12:41:03 | 49.88669 | 13.20394 | 24° | 26km/h | 31242m | -54.5m/s | -40°C | 0% | 10.6hPa | 2.6V | 03:29:11 | 02:23:55 | 00:00:00 | |
| DL1XH-15 | 2026-08-31 12:41:02 | 49.88658 | 13.20385 | 29° | 26km/h | 31345m | -48.9m/s | -40°C | 2.6% | 10.4hPa | 2.6V | 03:26:24 | 02:23:53 | 00:00:00 | |
| HSKMA3-T | 2026-08-31 12:40:59 | 49.88646 | 13.20376 | 30° | 26km/h | 31444m | -49.5m/s | -40°C | 0% | 10.2hPa | 2.7V | 03:26:38 | 02:23:51 | 00:00:00 | |
| DL1XH-west | 2026-08-31 12:40:57 | 49.88636 | 13.20365 | 40° | 22km/h | 31543m | -48.3m/s | -39.8°C | 0% | 10.1hPa | 2.6V | 03:26:38 | 02:23:49 | 00:00:00 | |
| OE5DRO-10 | 2026-08-31 12:40:55 | 49.88632 | 13.20360 | 39° | 15km/h | 31589m | -43.3m/s | -39.7°C | 2.6% | 9.9hPa | 2.6V | 00:00:00 | 00:00:00 | 00:00:00 | |
| DL1XH1-15 | 2026-08-31 12:40:53 | 49.88621 | 13.20336 | 71° | 18km/h | 31766m | -46.9m/s | -39°C | 2.5% | 9.7hPa | 2.6V | 03:26:33 | 02:23:44 | 00:00:00 | |
| DF8AY | 2026-08-31 12:40:52 | 49.88622 | 13.20342 | 74° | 16km/h | 31719m | -48.2m/s | -39.3°C | 0% | 9.8hPa | 2.7V | 03:29:11 | 02:23:45 | 00:00:00 | |
| HSKMA3-T | 2026-08-31 12:40:49 | 49.88618 | 13.20316 | 88° | 16km/h | 31891m | -40.4m/s | -38.1°C | 0% | 9.5hPa | 2.7V | 03:26:38 | 02:23:41 | 00:00:00 | |
| DF8AY | 2026-08-31 12:40:47 | 49.88612 | 13.20285 | 48° | 11km/h | 32168m | -39.8m/s | -36.9°C | 0% | 9.1hPa | 2.7V | 03:29:11 | 02:23:34 | 00:00:00 | |
| DL1XH-west | 2026-08-31 12:40:46 | 49.88618 | 13.20305 | 81° | 13km/h | 31970m | -40.6m/s | -37.5°C | 0% | 9.4hPa | 2.7V | 03:26:38 | 02:23:39 | 00:00:00 | |
| AA1-15 | 2026-08-31 12:40:46 | 49.88617 | 13.20299 | 79° | 15km/h | 32010m | -38.5m/s | -37.3°C | 0% | 9.3hPa | 2.6V | 03:27:29 | 02:23:38 | 00:00:00 | |
| DM0DOS-11 | 2026-08-31 12:40:44 | 49.88608 | 13.20280 | 46° | 11km/h | 32248m | -41.2m/s | -36.9°C | 2% | 9hPa | 2.6V | 03:26:45 | 02:23:32 | 00:00:00 | |
| HSKMA3-T | 2026-08-31 12:40:38 | 49.88606 | 13.20276 | 49° | 15km/h | 32288m | -40.6m/s | -37°C | 0% | 9hPa | 2.6V | 03:27:29 | 02:23:31 | 00:00:00 | |
| DL1XH-west | 2026-08-31 12:40:36 | 49.88600 | 13.20268 | 41° | 16km/h | 32365m | -38m/s | -37.1°C | 0% | 8.9hPa | 2.7V | 03:27:29 | 02:23:29 | 00:00:00 | |
| AA1-15 | 2026-08-31 12:40:36 | 49.88589 | 13.20252 | 42° | 24km/h | 32474m | -37.5m/s | -37.5°C | 0% | 8.7hPa | 2.6V | 03:27:29 | 02:23:26 | 00:00:00 | |
| DF8AY | 2026-08-31 12:40:29 | 49.88562 | 13.20219 | 39° | 26km/h | 32654m | -33.7m/s | -38°C | 0% | 8.5hPa | 2.6V | 03:29:11 | 02:23:21 | 00:00:00 | |
| HSKMA3-T | 2026-08-31 12:40:27 | 49.88557 | 13.20214 | 37° | 22km/h | 32689m | -35.7m/s | -38.1°C | 0% | 8.4hPa | 2.6V | 03:27:29 | 02:23:20 | 00:00:00 | |
| DL1XH-west | 2026-08-31 12:40:26 | 49.88553 | 13.20209 | 37° | 20km/h | 32724m | -35.2m/s | -38.3°C | 0% | 8.4hPa | 2.7V | 03:27:29 | 02:23:19 | 00:00:00 | |
| AA1-15 | 2026-08-31 12:40:25 | 49.88549 | 13.20204 | 44° | 18km/h | 32757m | -31.6m/s | -38.4°C | 0% | 8.3hPa | 2.7V | 03:27:29 | 02:23:18 | 00:00:00 | |
| DL6DJ-15 | 2026-08-31 12:40:24 | 49.88546 | 13.20200 | 32° | 13km/h | 32788m | -29.7m/s | -38.4°C | 0.6% | 8.3hPa | 2.7V | 00:00:00 | 00:00:00 | 00:00:00 | |
| DL1XH1-15 | 2026-08-31 12:40:22 | 49.88539 | 13.20194 | 44° | 11km/h | 32880m | -29.9m/s | -38.4°C | 2.2% | 8.2hPa | 2.7V | 03:27:03 | 02:23:14 | 00:00:00 | |
| OE5MMP-10 | 2026-08-31 12:40:22 | 49.88541 | 13.20196 | 28° | 26km/h | 32850m | -31.2m/s | -38.4°C | 2.3% | 8.2hPa | 2.6V | 00:00:00 | 02:23:15 | 00:00:00 | |
| DM0DOS-11 | 2026-08-31 12:40:21 | 49.88535 | 13.20185 | 62° | 20km/h | 32936m | -27.3m/s | -38.5°C | 2.2% | 8.1hPa | 2.7V | 03:27:05 | 02:23:12 | 00:00:00 | |
| DL1XH-west | 2026-08-31 12:40:16 | 49.88527 | 13.20150 | 75° | 42km/h | 33015m | -24.7m/s | -38.5°C | 0% | 8hPa | 2.6V | 03:27:29 | 02:23:09 | 00:00:00 | |
| AA1-15 | 2026-08-31 12:40:15 | 49.88525 | 13.20134 | 77° | 44km/h | 33039m | -22.8m/s | -38.4°C | 0% | 7.9hPa | 2.7V | 03:27:29 | 02:23:08 | 00:00:00 | |
| DF8AY | 2026-08-31 12:40:13 | 49.88521 | 13.20099 | 84° | 44km/h | 33085m | -21.3m/s | -38.3°C | 0% | 7.9hPa | 2.7V | 03:29:11 | 02:23:06 | 00:00:00 | |
| PETON7-10 | 2026-08-31 12:40:12 | 49.88520 | 13.20086 | 89° | 18km/h | 33115m | -38.0m/s | -38.0°C | 2.3% | 7.9hPa | 2.6V | 00:00:00 | 02:23:05 | 00:00:00 | |
| DM0DOS-11 | 2026-08-31 12:40:11 | 49.88521 | 13.20061 | 104° | 20km/h | 33205m | -19m/s | -38°C | 2.3% | 7.7hPa | 2.6V | 03:27:15 | 02:23:02 | 00:00:00 | |
| OE5MMP-10 | 2026-08-31 12:40:10 | 49.88520 | 13.20069 | 98° | 15km/h | 33182m | -27.6m/s | -37.9°C | 2.3% | 7.7hPa | 2.6V | 00:00:00 | 02:23:03 | 00:00:00 | |
| DO3MHA-11 | 2026-08-31 12:40:09 | 49.88521 | 13.20061 | 105° | 15km/h | 33206m | -19.0m/s | -38.0°C | 2.3% | 7.7hPa | 2.6V | 00:00:00 | 02:23:02 | 00:00:00 | |
| DL9SK-14 | 2026-08-31 12:40:08 | 49.88523 | 13.20045 | 98° | 18km/h | 33224m | 0.3m/s | -37.9°C | 0.6% | 7.7hPa | 2.7V | 00:00:00 | 00:00:00 | 00:00:00 | |
| DL1XH1-15 | 2026-08-31 12:40:07 | 49.88520 | 13.20017 | 76° | 15km/h | 33189m | 4.8m/s | -37.9°C | 2.3% | 7.7hPa | 2.7V | 03:27:23 | 02:22:54 | 00:00:00 | |
| HSKMA3-T | 2026-08-31 12:40:06 | 49.88524 | 13.20038 | 99° | 18km/h | 33218m | 10.4m/s | -38.1°C | 0% | 7.7hPa | 2.7V | 03:27:29 | 02:22:59 | 00:00:00 | |
| AA1-15 | 2026-08-31 12:40:05 | 49.88523 | 13.20028 | 66° | 9km/h | 33204m | 5.7m/s | -37.9°C | 0% | 7.7hPa | 2.6V | 03:27:29 | 02:22:57 | 00:00:00 | |
| EDDB2-11 | 2026-08-31 12:40:04 | 49.88523 | 13.20028 | 66° | 9km/h | 33204m | 5.7m/s | -37.9°C | 0.6% | 7.7hPa | 2.7V | 00:00:00 | 00:00:00 | 00:00:00 | |
| DK5PH-5 | 2026-08-31 12:40:02 | 49.88521 | 13.20022 | 60° | 20km/h | 33194m | 4.6m/s | -37.9°C | 2.3% | 7.7hPa | 2.7V | 00:00:00 | 02:22:55 | 00:00:00 | |
| OE5MMP-10 | 2026-08-31 12:40:00 | 49.88519 | 13.20011 | 89° | 16km/h | 33184m | 6.5m/s | -37.9°C | 2.3% | 7.7hPa | 2.7V | 00:00:00 | 02:22:53 | 00:00:00 | |
| DO3MHA-11 | 2026-08-31 12:39:59 | 49.88520 | 13.20002 | 96° | 18km/h | 33177m | 6.8m/s | -37.9°C | 2.3% | 7.7hPa | 2.7V | 00:00:00 | 02:22:52 | 00:00:00 | |
| OE5DRO-10 | 2026-08-31 12:39:58 | 49.88521 | 13.19991 | 101° | 22km/h | 33171m | 5.6m/s | -37.9°C | 2.3% | 7.7hPa | 2.7V | 03:27:00 | 00:00:00 | 00:00:00 | |
| PETON7-10 | 2026-08-31 12:39:57 | 49.88522 | 13.19979 | 102° | 20km/h | 33166m | 4.6m/s | -38.0°C | 2.3% | 7.7hPa | 2.7V | 03:27:00 | 00:00:00 | 00:00:00 | |
| DL1XH1-15 | 2026-08-31 12:39:56 | 49.88520 | 13.19938 | 61° | 9km/h | 33127m | 5.3m/s | -38.3°C | 2.3% | 7.8hPa | 2.7V | 03:27:34 | 02:22:43 | 00:00:00 | |
| HSKMA3-T | 2026-08-31 12:39:55 | 49.88525 | 13.19958 | 97° | 22km/h | 33155m | 6.1m/s | -38.1°C | 0% | 7.8hPa | 2.7V | 03:27:29 | 02:22:48 | 00:00:00 | |
| AA1-15 | 2026-08-31 12:39:54 | 49.88525 | 13.19950 | 87° | 16km/h | 33149m | 6.4m/s | -38.1°C | 0% | 7.8hPa | 2.6V | 03:28:20 | 02:22:47 | 00:00:00 | |
| DL6DJ-15 | 2026-08-31 12:39:53 | 49.88524 | 13.19946 | 65° | 9km/h | 33143m | 5.8m/s | -38.2°C | 0.6% | 7.8hPa | 2.7V | 00:00:00 | 00:00:00 | 00:00:00 | |
| SONDE2-11 | 2026-08-31 12:39:48 | 49.88519 | 13.19917 | 88° | 27km/h | 33109m | 5.7m/s | -38.4°C | 0.6% | 7.9hPa | 2.7V | 00:00:00 | 00:00:00 | 00:00:00 | |
| DB0UT-9 | 2026-08-31 12:39:46 | 49.88519 | 13.19917 | 90° | 27km/h | 33110m | 5.7m/s | -38.4°C | 0.6% | 7.9hPa | 2.7V | 00:00:00 | 00:00:00 | 00:00:00 | |
| DL1XH1-15 | 2026-08-31 12:39:45 | 49.88504 | 13.19855 | 49° | 24km/h | 33075m | 5m/s | -38.5°C | 2.4% | 7.9hPa | 2.7V | 03:27:43 | 02:22:34 | 00:00:00 | |
| HSKMA3-T | 2026-08-31 12:39:44 | 49.88515 | 13.19882 | 71° | 31km/h | 33092m | 6.4m/s | -38.4°C | 0% | 7.9hPa | 2.7V | 03:28:20 | 02:22:37 | 00:00:00 | |
| AA1-15 | 2026-08-31 12:39:44 | 49.88512 | 13.19872 | 61° | 27km/h | 33086m | 6.2m/s | -38.5°C | 0% | 7.9hPa | 2.6V | 03:28:20 | 02:22:36 | 00:00:00 | |
| DL1XH-15 | 2026-08-31 12:39:42 | 49.88498 | 13.19841 | 63° | 20km/h | 33063m | 6.7m/s | -38.5°C | 2.4% | 7.9hPa | 2.7V | 03:27:45 | 02:22:32 | 00:00:00 | |
| DF8AY | 2026-08-31 12:39:35 | 49.88494 | 13.19814 | 60° | 11km/h | 33033m | 6.1m/s | -38.4°C | 0% | 7.9hPa | 2.7V | 03:29:11 | 02:22:27 | 00:00:00 | |
| DL1XH1-15 | 2026-08-31 12:39:35 | 49.88488 | 13.19800 | 62° | 18km/h | 33017m | 5.6m/s | -38.3°C | 2.3% | 7.9hPa | 2.6V | 03:27:53 | 02:22:24 | 00:00:00 | |
| HSKMA3-T | 2026-08-31 12:39:34 | 49.88492 | 13.19810 | 51° | 11km/h | 33027m | 5.3m/s | -38.4°C | 0% | 8hPa | 2.7V | 03:28:20 | 02:22:26 | 00:00:00 | |
| AA1-15 | 2026-08-31 12:39:34 | 49.88490 | 13.19806 | 54° | 15km/h | 33022m | 4.9m/s | -38.3°C | 0% | 8hPa | 2.6V | 03:28:20 | 02:22:25 | 00:00:00 | |
| EDDB2-11 | 2026-08-31 12:39:33 | 49.88492 | 13.19810 | 51° | 11km/h | 33027m | 5.3m/s | -38.4°C | 0.6% | 8.0hPa | 2.7V | 00:00:00 | 00:00:00 | 00:00:00 | |
| DK5PH-5 | 2026-08-31 12:39:32 | 49.88490 | 13.19806 | 54° | 20km/h | 33022m | 4.9m/s | -38.2°C | 2.3% | 7.9hPa | 2.7V | 00:00:00 | 02:22:25 | 00:00:00 | |
| DJ2DS-15 | 2026-08-31 12:39:31 | 49.88488 | 13.19800 | 63° | 20km/h | 33017m | 5.5m/s | -38.2°C | 2.3% | 7.9hPa | 2.7V | 00:00:00 | 02:22:24 | 00:00:00 | |
| OE5MMP-10 | 2026-08-31 12:39:30 | 49.88486 | 13.19793 | 70° | 22km/h | 33011m | 6.9m/s | -38.3°C | 2.3% | 7.9hPa | 2.7V | 00:00:00 | 02:22:23 | 00:00:00 | |
| DM0DOS-11 | 2026-08-31 12:39:29 | 49.88482 | 13.19771 | 73° | 33km/h | 32998m | 5.3m/s | -38.4°C | 2.3% | 8hPa | 2.7V | 03:27:56 | 02:22:21 | 00:00:00 | |
| DO3MHA-11 | 2026-08-31 12:39:29 | 49.88484 | 13.19783 | 74° | 20km/h | 33004m | 6.4m/s | -38.3°C | 2.4% | 7.9hPa | 2.6V | 00:00:00 | 02:22:22 | 00:00:00 | |
| PETON7-10 | 2026-08-31 12:39:27 | 49.88479 | 13.19760 | 69° | 18km/h | 32993m | 4.7m/s | -38.4°C | 2.3% | 7.9hPa | 2.6V | 00:00:00 | 02:22:20 | 00:00:00 | |
| DL1JHR | 2026-08-31 12:39:25 | 49.88471 | 13.19741 | 49° | 24km/h | 32982m | 6.4m/s | 0°C | 0% | 8.0hPa | 2.6V | 00:00:00 | 00:00:00 | 00:00:00 | |
| DL1XH1-15 | 2026-08-31 12:39:24 | 49.88459 | 13.19733 | 4° | 4km/h | 32960m | 5.5m/s | -38.4°C | 2.4% | 8hPa | 2.6V | 03:28:03 | 02:22:14 | 00:00:00 | |
| DM0DOS-11 | 2026-08-31 12:39:24 | 49.88463 | 13.19717 | 106° | 20km/h | 32936m | 4.6m/s | -38.2°C | 2.3% | 8.1hPa | 2.7V | 03:28:07 | 02:22:10 | 00:00:00 | |
| DL1XH-15 | 2026-08-31 12:39:23 | 49.88459 | 13.19729 | 121° | 13km/h | 32947m | 6.2m/s | -38.4°C | 2.4% | 8hPa | 2.7V | 03:28:05 | 02:22:12 | 00:00:00 | |
| AA1-15 | 2026-08-31 12:39:22 | 49.88461 | 13.19733 | 357° | 11km/h | 32965m | 4.6m/s | -38.4°C | 0% | 8hPa | 2.7V | 03:28:20 | 02:22:15 | 00:00:00 | |
| DL6DJ-15 | 2026-08-31 12:39:22 | 49.88461 | 13.19733 | 356° | 9km/h | 32965m | 4.6m/s | -38.4°C | 0.6% | 8.0hPa | 2.6V | 00:00:00 | 00:00:00 | 00:00:00 | |
| OE5MMP-10 | 2026-08-31 12:39:20 | 49.88458 | 13.19732 | 107° | 22km/h | 32954m | 6.5m/s | -38.4°C | 2.4% | 8.0hPa | 2.6V | 00:00:00 | 02:22:13 | 00:00:00 | |
| DO3MHA-11 | 2026-08-31 12:39:19 | 49.88459 | 13.19729 | 122° | 22km/h | 32948m | 6.1m/s | -38.4°C | 2.4% | 8.0hPa | 2.7V | 00:00:00 | 02:22:12 | 00:00:00 | |
| SFWM-10 | 2026-08-31 12:39:18 | 49.88461 | 13.19724 | 118° | 18km/h | 32942m | 5.3m/s | -38.3°C | 0.6% | 8.0hPa | 2.7V | 00:00:00 | 00:00:00 | 00:00:00 | |
| SONDE2-11 | 2026-08-31 12:39:17 | 49.88464 | 13.19709 | 92° | 20km/h | 32932m | 5.2m/s | -38.2°C | 0.6% | 8.1hPa | 2.7V | 00:00:00 | 00:00:00 | 00:00:00 | |
| EDDB2-12 | 2026-08-31 12:39:16 | 49.88463 | 13.19702 | 71° | 20km/h | 32926m | 6.3m/s | -38.3°C | 0.6% | 8.1hPa | 2.7V | 00:00:00 | 00:00:00 | 00:00:00 | |
| DL1XH-15 | 2026-08-31 12:39:14 | 49.88427 | 13.19662 | 38° | 18km/h | 32885m | 5.2m/s | -38.4°C | 2.4% | 8.1hPa | 2.7V | 03:28:16 | 02:22:01 | 00:00:00 | |
| PG1ADW-2 | 2026-08-31 12:39:14 | 49.88460 | 13.19695 | 49° | 26km/h | 32920m | 6.3m/s | -38.3°C | 2.3% | 8.0hPa | 2.7V | 00:00:00 | 00:00:00 | 00:00:00 | |
| DL1XH1-15 | 2026-08-31 12:39:13 | 49.88443 | 13.19677 | 26° | 29km/h | 32902m | 5.4m/s | -38.4°C | 2.4% | 8.1hPa | 2.7V | 03:28:13 | 02:22:04 | 00:00:00 | |
| DL1XH-west | 2026-08-31 12:39:13 | 49.88456 | 13.19688 | 34° | 27km/h | 32913m | 5.9m/s | -38.4°C | 0% | 8.1hPa | 2.7V | 03:28:20 | 02:22:06 | 00:00:00 | |
| HSKMA3-T | 2026-08-31 12:39:12 | 49.88443 | 13.19677 | 27° | 29km/h | 32902m | 5.4m/s | -38.4°C | 0% | 8.1hPa | 2.7V | 03:28:20 | 02:22:04 | 00:00:00 | |
| PETON7-10 | 2026-08-31 12:39:12 | 49.88449 | 13.19683 | 28° | 20km/h | 32908m | 5.4m/s | -38.4°C | 2.4% | 8.0hPa | 2.7V | 00:00:00 | 00:00:00 | 00:00:00 | |
| DJ2DS-15 | 2026-08-31 12:39:11 | 49.88443 | 13.19677 | 27° | 24km/h | 32903m | 5.3m/s | -38.3°C | 2.4% | 8.0hPa | 2.6V | 03:28:00 | 02:22:04 | 00:00:00 | |
| OE5MMP-10 | 2026-08-31 12:39:10 | 49.88436 | 13.19672 | 30° | 15km/h | 32897m | 6.0m/s | -38.3°C | 2.4% | 8.0hPa | 2.6V | 03:28:00 | 02:22:03 | 00:00:00 | |
| DO3MHA-11 | 2026-08-31 12:39:09 | 49.88431 | 13.19667 | 35° | 15km/h | 32891m | 5.6m/s | -38.3°C | 2.4% | 8.1hPa | 2.6V | 00:00:00 | 02:22:02 | 00:00:00 | |
| DB0ND-19 | 2026-08-31 12:39:08 | 49.88427 | 13.19662 | 38° | 16km/h | 32885m | 5.2m/s | -38.4°C | 0.6% | 8.1hPa | 2.6V | 00:00:00 | 00:00:00 | 00:00:00 | |
| DL9SK-14 | 2026-08-31 12:39:06 | 49.88420 | 13.19655 | 10° | 7km/h | 32868m | 6.6m/s | -38.3°C | 0.6% | 8.1hPa | 2.6V | 00:00:00 | 00:00:00 | 00:00:00 | |
| ANDY1245 | 2026-08-31 12:39:04 | 49.88420 | 13.19655 | 11° | 7km/h | 32868m | 6.6m/s | -38.3°C | 0.6% | 8.1hPa | 2.6V | 03:28:00 | 00:00:00 | 00:00:00 | |
| DL1XH-15 | 2026-08-31 12:39:03 | 49.88400 | 13.19633 | 55° | 33km/h | 32835m | 6.5m/s | -38.4°C | 2.4% | 8.2hPa | 2.6V | 03:28:25 | 02:21:52 | 00:00:00 | |
| DL1XH1-15 | 2026-08-31 12:39:02 | 49.88408 | 13.19649 | 41° | 20km/h | 32848m | 5.3m/s | -38.3°C | 2.3% | 8.2hPa | 2.7V | 03:28:23 | 02:21:54 | 00:00:00 | |
| HSKMA3-T | 2026-08-31 12:39:00 | 49.88404 | 13.19642 | 52° | 27km/h | 32842m | 7m/s | -38.3°C | 0% | 8.2hPa | 2.7V | 03:29:11 | 02:21:53 | 00:00:00 | |
| DF8AY | 2026-08-31 12:38:53 | 49.88344 | 13.19595 | 341° | 24km/h | 32791m | 4.4m/s | -38.3°C | 0% | 8.2hPa | 2.7V | 03:29:11 | 02:21:44 | 00:00:00 | |
| DL1XH-15 | 2026-08-31 12:38:53 | 49.88336 | 13.19597 | 29° | 11km/h | 32780m | 6.1m/s | -38.2°C | 2.4% | 8.2hPa | 2.7V | 03:28:35 | 02:21:42 | 00:00:00 | |
| DL1XH1-15 | 2026-08-31 12:38:52 | 49.88344 | 13.19595 | 341° | 24km/h | 32791m | 4.4m/s | -38.3°C | 2.4% | 8.2hPa | 2.7V | 03:28:33 | 02:21:44 | 00:00:00 | |
| DL1XH-west | 2026-08-31 12:38:50 | 49.88339 | 13.19597 | 351° | 16km/h | 32786m | 5.5m/s | -38.3°C | 0% | 8.2hPa | 2.7V | 03:29:11 | 02:21:43 | 00:00:00 | |
| DM0DOS-11 | 2026-08-31 12:38:50 | 49.88339 | 13.19598 | 350° | 16km/h | 32786m | 5.5m/s | -38.3°C | 2.4% | 8.2hPa | 2.7V | 03:28:34 | 02:21:43 | 00:00:00 | |
| HSKMA3-T | 2026-08-31 12:38:49 | 49.88336 | 13.19597 | 29° | 11km/h | 32780m | 6.1m/s | -38.3°C | 0% | 8.2hPa | 2.7V | 03:29:11 | 02:21:42 | 00:00:00 | |
| DO3MHA-11 | 2026-08-31 12:38:49 | 49.88336 | 13.19597 | 30° | 29km/h | 32780m | 6.1m/s | -38.2°C | 2.4% | 8.2hPa | 2.6V | 00:00:00 | 02:21:42 | 00:00:00 | |
| DB0NH | 2026-08-31 12:38:48 | 49.88334 | 13.19593 | 70° | 27km/h | 32775m | 5.6m/s | -38.2°C | 2.4% | 8.2hPa | 2.6V | 00:00:00 | 02:21:41 | 00:00:00 | |
| NBG1-10 | 2026-08-31 12:38:47 | 49.88332 | 13.19586 | 78° | 27km/h | 32769m | 4.6m/s | -38.2°C | 2.4% | 8.2hPa | 2.6V | 00:00:00 | 02:21:40 | 00:00:00 | |
| DL1XH1-15 | 2026-08-31 12:38:46 | 49.88301 | 13.19532 | 21° | 38km/h | 32737m | 5.3m/s | -38.1°C | 2.3% | 8.3hPa | 2.6V | 03:28:43 | 02:21:34 | 00:00:00 | |
| SONDE2-11 | 2026-08-31 12:38:46 | 49.88328 | 13.19565 | 63° | 29km/h | 32760m | 5.6m/s | -38.1°C | 0.6% | 8.3hPa | 2.7V | 00:00:00 | 00:00:00 | 00:00:00 | |
| DM0DOS-11 | 2026-08-31 12:38:45 | 49.88292 | 13.19527 | 20° | 38km/h | 32731m | 5.7m/s | -38.1°C | 2.4% | 8.3hPa | 2.7V | 03:28:44 | 02:21:33 | 00:00:00 | |
| EDDB2-12 | 2026-08-31 12:38:45 | 49.88323 | 13.19555 | 49° | 31km/h | 32754m | 6.1m/s | -38.2°C | 0.6% | 8.3hPa | 2.7V | 00:00:00 | 00:00:00 | 00:00:00 | |
| DL1XH-west | 2026-08-31 12:38:40 | 49.88291 | 13.19527 | 20° | 38km/h | 32731m | 5.7m/s | -38.1°C | 0% | 8.3hPa | 2.7V | 03:29:11 | 02:21:33 | 00:00:00 | |
| AA1-15 | 2026-08-31 12:38:38 | 49.88267 | 13.19510 | 31° | 31km/h | 32714m | 5.4m/s | -38°C | 0% | 8.3hPa | 2.6V | 03:29:11 | 02:21:30 | 00:00:00 | |
| HSKMA3-T | 2026-08-31 12:38:38 | 49.88274 | 13.19516 | 26° | 35km/h | 32720m | 5.6m/s | -38°C | 0% | 8.3hPa | 2.7V | 03:29:11 | 02:21:31 | 00:00:00 | |
| BAUMI2-15 | 2026-08-31 12:38:37 | 49.88267 | 13.19510 | 31° | 24km/h | 32714m | 5.3m/s | -38.0°C | 2.3% | 8.3hPa | 2.6V | 00:00:00 | 02:21:30 | 00:00:00 | |
| DL1XH1-15 | 2026-08-31 12:38:36 | 49.88237 | 13.19485 | 16° | 22km/h | 32681m | 4.9m/s | -37.9°C | 2.3% | 8.4hPa | 2.6V | 03:28:53 | 02:21:24 | 00:00:00 | |
| DL9SK-14 | 2026-08-31 12:38:35 | 49.88252 | 13.19494 | 31° | 20km/h | 32698m | 5.4m/s | -37.9°C | 0.6% | 8.3hPa | 2.6V | 00:00:00 | 00:00:00 | 00:00:00 | |
| DM0DOS-11 | 2026-08-31 12:38:34 | 49.88231 | 13.19482 | 22° | 24km/h | 32676m | 4.5m/s | -37.9°C | 2.3% | 8.4hPa | 2.6V | 03:28:54 | 02:21:23 | 00:00:00 | |
| SONCRA | 2026-08-31 12:38:33 | 49.88247 | 13.19490 | 24° | 20km/h | 32693m | 6.4m/s | -37.9°C | 0.6% | 8.3hPa | 2.7V | 00:00:00 | 00:00:00 | 00:00:00 | |
| DL1XH-15 | 2026-08-31 12:38:32 | 49.88226 | 13.19477 | 33° | 24km/h | 32671m | 5.5m/s | -37.8°C | 2.3% | 8.4hPa | 2.7V | 03:28:55 | 02:21:22 | 00:00:00 | |
| DL1XH-west | 2026-08-31 12:38:30 | 49.88226 | 13.19477 | 34° | 24km/h | 32671m | 5.5m/s | -37.8°C | 0% | 8.4hPa | 2.7V | 03:29:11 | 02:21:22 | 00:00:00 | |
| DF8AY | 2026-08-31 12:38:29 | 49.88197 | 13.19431 | 26° | 27km/h | 32636m | 6.4m/s | -37.9°C | 0% | 8.4hPa | 2.7V | 03:29:11 | 02:21:16 | 00:00:00 | |
| HSKMA3-T | 2026-08-31 12:38:28 | 49.88221 | 13.19471 | 46° | 26km/h | 32665m | 6.9m/s | -37.9°C | 0% | 8.4hPa | 2.7V | 03:29:11 | 02:21:21 | 00:00:00 | |
| AA1-15 | 2026-08-31 12:38:27 | 49.88213 | 13.19454 | 55° | 29km/h | 32653m | 4.9m/s | -37.8°C | 0% | 8.4hPa | 2.6V | 03:29:11 | 02:21:19 | 00:00:00 | |
| BAUMI2-15 | 2026-08-31 12:38:27 | 49.88217 | 13.19463 | 55° | 27km/h | 32659m | 6.1m/s | -37.8°C | 2.3% | 8.4hPa | 2.6V | 00:00:00 | 02:21:20 | 00:00:00 | |
| DL1XH1-15 | 2026-08-31 12:38:26 | 49.88184 | 13.19426 | 9° | 26km/h | 32625m | 5m/s | -37.9°C | 2.3% | 8.4hPa | 2.6V | 03:29:03 | 02:21:14 | 00:00:00 | |
| DB0UT-9 | 2026-08-31 12:38:24 | 49.88208 | 13.19445 | 50° | 29km/h | 32648m | 4.7m/s | -37.8°C | 0.6% | 8.4hPa | 2.7V | 03:29:00 | 00:00:00 | 00:00:00 | |
| DM0DOS-11 | 2026-08-31 12:38:23 | 49.88179 | 13.19424 | 10° | 22km/h | 32620m | 5.3m/s | -37.9°C | 2.3% | 8.4hPa | 2.7V | 03:29:04 | 02:21:13 | 00:00:00 | |
| DL1XH-west | 2026-08-31 12:38:18 | 49.88170 | 13.19419 | 38° | 18km/h | 32608m | 5.8m/s | -37.8°C | 0% | 8.5hPa | 2.7V | 03:29:11 | 02:21:11 | 00:00:00 | |
| HSKMA3-T | 2026-08-31 12:38:17 | 49.88167 | 13.19414 | 52° | 18km/h | 32603m | 5m/s | -37.8°C | 0% | 8.5hPa | 2.6V | 03:29:11 | 02:21:10 | 00:00:00 | |
| BAUMI2-15 | 2026-08-31 12:38:16 | 49.88164 | 13.19407 | 59° | 24km/h | 32598m | 4.6m/s | -37.8°C | 2.3% | 8.4hPa | 2.6V | 00:00:00 | 02:21:09 | 00:00:00 | |
| SONDE2-11 | 2026-08-31 12:38:15 | 49.88157 | 13.19394 | 46° | 22km/h | 32588m | 5.9m/s | -37.9°C | 0.6% | 8.5hPa | 2.7V | 00:00:00 | 00:00:00 | 00:00:00 | |
| NBG1-10 | 2026-08-31 12:38:14 | 49.88157 | 13.19394 | 47° | 20km/h | 32588m | 5.8m/s | -37.9°C | 2.3% | 8.4hPa | 2.7V | 00:00:00 | 02:21:07 | 00:00:00 | |
| DM0DOS-11 | 2026-08-31 12:38:13 | 49.88136 | 13.19368 | 40° | 29km/h | 32566m | 4.7m/s | -37.8°C | 2.3% | 8.5hPa | 2.6V | 03:29:14 | 02:21:03 | 00:00:00 | |
| DL1XH1-15 | 2026-08-31 12:38:12 | 49.88141 | 13.19375 | 35° | 29km/h | 32571m | 4.5m/s | -37.9°C | 2.3% | 8.5hPa | 2.7V | 03:29:13 | 02:21:04 | 00:00:00 | |
| DL1XH-west | 2026-08-31 12:38:08 | 49.88126 | 13.19351 | 61° | 27km/h | 32555m | 5.9m/s | -37.8°C | 0% | 8.5hPa | 2.6V | 03:30:02 | 02:21:01 | 00:00:00 | |
| AA1-15 | 2026-08-31 12:38:07 | 49.88124 | 13.19342 | 69° | 24km/h | 32549m | 5m/s | -37.7°C | 0% | 8.5hPa | 2.7V | 03:30:02 | 02:21:00 | 00:00:00 | |
| DF8AY | 2026-08-31 12:38:07 | 49.88114 | 13.19323 | 12° | 9km/h | 32516m | 4.4m/s | -37.5°C | 0% | 8.6hPa | 2.7V | 03:30:02 | 02:20:54 | 00:00:00 | |
| HSKMA3-T | 2026-08-31 12:38:06 | 49.88122 | 13.19334 | 73° | 18km/h | 32544m | 4.8m/s | -37.7°C | 0% | 8.6hPa | 2.7V | 03:30:02 | 02:20:59 | 00:00:00 | |
| BAUMI2-15 | 2026-08-31 12:38:06 | 49.88122 | 13.19334 | 73° | 11km/h | 32545m | 4.7m/s | -37.7°C | 2.3% | 8.5hPa | 2.7V | 00:00:00 | 02:20:59 | 00:00:00 | |
| OE5DRO-10 | 2026-08-31 12:38:05 | 49.88119 | 13.19325 | 51° | 18km/h | 32533m | 6.7m/s | -37.5°C | 2.3% | 8.5hPa | 2.7V | 00:00:00 | 00:00:00 | 00:00:00 | |
| DL9SK-14 | 2026-08-31 12:38:04 | 49.88118 | 13.19323 | 11° | 5km/h | 32527m | 6.2m/s | -37.6°C | 0.6% | 8.6hPa | 2.7V | 00:00:00 | 00:00:00 | 00:00:00 | |
| DM0DOS-11 | 2026-08-31 12:38:03 | 49.88111 | 13.19321 | 37° | 13km/h | 32511m | 5.3m/s | -37.5°C | 2.2% | 8.6hPa | 2.7V | 03:29:24 | 02:20:53 | 00:00:00 | |
| DL1XH-west | 2026-08-31 12:37:58 | 49.88101 | 13.19300 | 57° | 33km/h | 32494m | 4.6m/s | -37.4°C | 0% | 8.6hPa | 2.6V | 03:30:02 | 02:20:50 | 00:00:00 | |
| DL1XH-15 | 2026-08-31 12:37:57 | 49.88069 | 13.19262 | 12° | 26km/h | 32468m | 4.8m/s | -37.3°C | 2.2% | 8.6hPa | 2.7V | 03:29:32 | 02:20:45 | 00:00:00 | |
| PETON7-10 | 2026-08-31 12:37:57 | 49.88101 | 13.19299 | 57° | 18km/h | 32495m | 4.6m/s | -37.3°C | 2.2% | 8.6hPa | 2.6V | 03:29:00 | 02:20:50 | 00:00:00 | |
| BAUMI2-15 | 2026-08-31 12:37:56 | 49.88096 | 13.19289 | 51° | 33km/h | 32490m | 4.4m/s | -37.4°C | 2.2% | 8.5hPa | 2.6V | 00:00:00 | 02:20:49 | 00:00:00 | |
| HSKMA3-T | 2026-08-31 12:37:56 | 49.88096 | 13.19289 | 51° | 35km/h | 32490m | 4.5m/s | -37.4°C | 0% | 8.6hPa | 2.6V | 03:30:02 | 02:20:49 | 00:00:00 | |
| DL1XH1-15 | 2026-08-31 12:37:55 | 49.88064 | 13.19260 | 6° | 20km/h | 32463m | 4.9m/s | -37.3°C | 2.2% | 8.6hPa | 2.6V | 03:29:33 | 02:20:44 | 00:00:00 | |
| DF8AY | 2026-08-31 12:37:54 | 49.88058 | 13.19259 | 31° | 5km/h | 32451m | 6.4m/s | -37.2°C | 0% | 8.7hPa | 2.6V | 03:30:02 | 02:20:42 | 00:00:00 | |
| DJ2DS-15 | 2026-08-31 12:37:51 | 49.88064 | 13.19260 | 6° | 18km/h | 32463m | 4.9m/s | -37.3°C | 0.6% | 8.6hPa | 2.6V | 00:00:00 | 00:00:00 | 00:00:00 | |
| DL6DJ-15 | 2026-08-31 12:37:49 | 49.88057 | 13.19257 | 121° | 4km/h | 32445m | 5.6m/s | -37.2°C | 0.6% | 8.7hPa | 2.6V | 00:00:00 | 00:00:00 | 00:00:00 | |
| DF8AY | 2026-08-31 12:37:48 | 49.88057 | 13.19248 | 15° | 15km/h | 32419m | 5.7m/s | -37.3°C | 0% | 8.7hPa | 2.6V | 03:30:02 | 02:20:36 | 00:00:00 | |
| DL1XH-west | 2026-08-31 12:37:47 | 49.88060 | 13.19253 | 123° | 7km/h | 32435m | 4.4m/s | -37.2°C | 0% | 8.7hPa | 2.7V | 03:30:02 | 02:20:39 | 00:00:00 | |
| DL1XH-15 | 2026-08-31 12:37:46 | 49.88052 | 13.19246 | 15° | 20km/h | 32413m | 5.1m/s | -37.3°C | 2.2% | 8.7hPa | 2.6V | 03:29:42 | 02:20:35 | 00:00:00 | |
| AA1-15 | 2026-08-31 12:37:45 | 49.88060 | 13.19251 | 84° | 5km/h | 32430m | 5.6m/s | -37.2°C | 0% | 8.7hPa | 2.7V | 03:30:02 | 02:20:38 | 00:00:00 | |
| DL1XH1-15 | 2026-08-31 12:37:45 | 49.88047 | 13.19244 | 22° | 22km/h | 32408m | 5.1m/s | -37.4°C | 2.2% | 8.7hPa | 2.7V | 03:29:43 | 02:20:34 | 00:00:00 | |
| OE5DRO-10 | 2026-08-31 12:37:45 | 49.88060 | 13.19251 | 85° | 11km/h | 32431m | 5.5m/s | -37.2°C | 2.2% | 8.6hPa | 2.7V | 00:00:00 | 00:00:00 | 00:00:00 | |
| EDDB2-12 | 2026-08-31 12:37:43 | 49.88052 | 13.19246 | 15° | 18km/h | 32413m | 5.1m/s | -37.3°C | 0.6% | 8.7hPa | 2.7V | 00:00:00 | 00:00:00 | 00:00:00 | |
| PETON7-10 | 2026-08-31 12:37:41 | 49.88047 | 13.19243 | 23° | 13km/h | 32408m | 5.0m/s | -37.3°C | 2.2% | 8.7hPa | 2.7V | 00:00:00 | 00:00:00 | 00:00:00 | |
| DO3MHA-11 | 2026-08-31 12:37:39 | 49.88037 | 13.19234 | 41° | 11km/h | 32397m | 5.8m/s | -37.3°C | 2.2% | 8.7hPa | 2.7V | 03:29:00 | 02:20:32 | 00:00:00 | |
| OE5MMP-10 | 2026-08-31 12:37:38 | 49.88034 | 13.19229 | 48° | 9km/h | 32391m | 4.7m/s | -37.3°C | 2.3% | 8.7hPa | 2.7V | 00:00:00 | 02:20:31 | 00:00:00 | |
| SFWM-10 | 2026-08-31 12:37:37 | 49.88034 | 13.19229 | 48° | 20km/h | 32391m | 4.8m/s | -37.4°C | 0.6% | 8.7hPa | 2.7V | 00:00:00 | 00:00:00 | 00:00:00 | |
| DL1XH-15 | 2026-08-31 12:37:36 | 49.88020 | 13.19220 | 322° | 7km/h | 32359m | 4m/s | -37.2°C | 2.2% | 8.8hPa | 2.7V | 03:29:52 | 02:20:25 | 00:00:00 | |
| HSKMA3-T | 2026-08-31 12:37:35 | 49.88024 | 13.19218 | 350° | 9km/h | 32369m | 5.8m/s | -37.2°C | 0% | 8.8hPa | 2.7V | 03:30:02 | 02:20:27 | 00:00:00 | |
| AA1-15 | 2026-08-31 12:37:35 | 49.88020 | 13.19220 | 323° | 7km/h | 32360m | 4m/s | -37.2°C | 0% | 8.8hPa | 2.7V | 03:30:02 | 02:20:25 | 00:00:00 | |
| DM0DOS-11 | 2026-08-31 12:37:34 | 49.88018 | 13.19222 | 100° | 0km/h | 32350m | 5.7m/s | -37.2°C | 2.2% | 8.8hPa | 2.6V | 03:29:54 | 02:20:23 | 00:00:00 | |
| DL1XH1-15 | 2026-08-31 12:37:34 | 49.88019 | 13.19222 | 321° | 4km/h | 32355m | 4.5m/s | -37.2°C | 2.2% | 8.8hPa | 2.6V | 03:29:53 | 02:20:24 | 00:00:00 | |
| DF8AY | 2026-08-31 12:37:30 | 49.88019 | 13.19222 | 101° | 0km/h | 32350m | 5.7m/s | -37.2°C | 0% | 8.8hPa | 2.6V | 03:30:02 | 02:20:23 | 00:00:00 | |
| EDDB2-11 | 2026-08-31 12:37:29 | 49.88019 | 13.19221 | 122° | 4km/h | 32344m | 6.1m/s | -37.2°C | 0.6% | 8.8hPa | 2.7V | 00:00:00 | 00:00:00 | 00:00:00 | |
| OE5MMP-10 | 2026-08-31 12:37:28 | 49.88020 | 13.19219 | 116° | 11km/h | 32339m | 5.4m/s | -37.1°C | 2.2% | 8.8hPa | 2.7V | 00:00:00 | 02:20:21 | 00:00:00 | |
| DL1XH-15 | 2026-08-31 12:37:26 | 49.88007 | 13.19209 | 353° | 18km/h | 32306m | 4.7m/s | -37.2°C | 2.2% | 8.8hPa | 2.7V | 03:30:02 | 02:20:15 | 00:00:00 | |
| HSKMA3-T | 2026-08-31 12:37:24 | 49.88016 | 13.19208 | 8° | 15km/h | 32317m | 6.6m/s | -37.2°C | 0% | 8.8hPa | 2.6V | 03:30:02 | 02:20:17 | 00:00:00 | |
| OE5DXL-15 | 2026-08-31 12:37:24 | 49.88007 | 13.19209 | 354° | 15km/h | 32306m | 4.6m/s | -37.2°C | 2.2% | 8.8hPa | 2.7V | 00:00:00 | 00:00:00 | 00:00:00 | |
| DM0DOS-11 | 2026-08-31 12:37:23 | 49.88000 | 13.19209 | 6° | 9km/h | 32296m | 6m/s | -37.2°C | 2.2% | 8.9hPa | 2.7V | 03:30:04 | 02:20:13 | 00:00:00 | |
| DL1XH1-15 | 2026-08-31 12:37:22 | 49.88003 | 13.19209 | 355° | 15km/h | 32301m | 4.6m/s | -37.3°C | 2.2% | 8.8hPa | 2.7V | 03:30:03 | 02:20:14 | 00:00:00 | |
| AA1-15 | 2026-08-31 12:37:21 | 49.88003 | 13.19209 | 355° | 15km/h | 32301m | 4.6m/s | -37.3°C | 0% | 8.8hPa | 2.7V | 03:30:53 | 02:20:14 | 00:00:00 | |
| DF8AY | 2026-08-31 12:37:18 | 49.88000 | 13.19203 | 125° | 11km/h | 32279m | 5.2m/s | -37.2°C | 0% | 8.9hPa | 2.7V | 03:30:53 | 02:20:10 | 00:00:00 | |
| DL6DJ-15 | 2026-08-31 12:37:18 | 49.88000 | 13.19203 | 125° | 11km/h | 32279m | 5.2m/s | -37.2°C | 0.6% | 8.9hPa | 2.6V | 00:00:00 | 00:00:00 | 00:00:00 | |
| SP3BTT-10 | 2026-08-31 12:37:17 | 49.88000 | 13.19203 | 126° | 24km/h | 32279m | 5.1m/s | -37.2°C | 2.2% | 8.8hPa | 2.6V | 00:00:00 | 00:00:00 | 00:00:00 | |
| DL1XH-15 | 2026-08-31 12:37:16 | 49.88000 | 13.19185 | 49° | 15km/h | 32250m | 5.1m/s | -37.2°C | 2.2% | 8.9hPa | 2.6V | 03:30:12 | 02:20:05 | 00:00:00 | |
| HSKMA3-T | 2026-08-31 12:37:13 | 49.88002 | 13.19189 | 51° | 11km/h | 32255m | 5.1m/s | -37.2°C | 0% | 8.9hPa | 2.6V | 03:30:53 | 02:20:06 | 00:00:00 | |
| DM0DOS-11 | 2026-08-31 12:37:13 | 49.87995 | 13.19175 | 59° | 18km/h | 32239m | 6.2m/s | -37.2°C | 2.2% | 8.9hPa | 2.7V | 03:30:14 | 02:20:03 | 00:00:00 | |
| DL1XH1-15 | 2026-08-31 12:37:12 | 49.87997 | 13.19180 | 53° | 16km/h | 32245m | 5.7m/s | -37.3°C | 2.2% | 8.9hPa | 2.7V | 03:30:13 | 02:20:04 | 00:00:00 | |
| AA1-15 | 2026-08-31 12:37:10 | 49.87995 | 13.19175 | 59° | 18km/h | 32239m | 6.2m/s | -37.2°C | 0% | 8.9hPa | 2.7V | 03:30:53 | 02:20:03 | 00:00:00 | |
| PETON7-10 | 2026-08-31 12:37:10 | 49.87995 | 13.19175 | 60° | 16km/h | 32239m | 6.2m/s | -37.2°C | 2.2% | 8.9hPa | 2.7V | 00:00:00 | 02:20:03 | 00:00:00 | |
| DO3MHA-11 | 2026-08-31 12:37:09 | 49.87993 | 13.19169 | 63° | 15km/h | 32234m | 5.4m/s | -37.1°C | 2.2% | 8.9hPa | 2.7V | 00:00:00 | 02:20:02 | 00:00:00 | |
| OE5MMP-10 | 2026-08-31 12:37:08 | 49.87990 | 13.19162 | 61° | 15km/h | 32228m | 4.8m/s | -37.1°C | 2.2% | 8.9hPa | 2.7V | 03:30:00 | 02:20:01 | 00:00:00 | |
| OE5DRO-10 | 2026-08-31 12:37:07 | 49.87988 | 13.19157 | 51° | 16km/h | 32223m | 5.2m/s | -37.2°C | 2.2% | 8.9hPa | 2.7V | 00:00:00 | 00:00:00 | 00:00:00 | |
| DL1XH-15 | 2026-08-31 12:37:06 | 49.87977 | 13.19144 | 81° | 9km/h | 32196m | 5.9m/s | -37.2°C | 2.2% | 9hPa | 2.7V | 03:30:22 | 02:19:55 | 00:00:00 | |
| HSKMA3-T | 2026-08-31 12:37:03 | 49.87978 | 13.19147 | 44° | 9km/h | 32201m | 4.5m/s | -37.2°C | 0% | 9hPa | 2.6V | 03:30:53 | 02:19:56 | 00:00:00 | |
| DL1XH-west | 2026-08-31 12:37:03 | 49.87977 | 13.19144 | 82° | 9km/h | 32196m | 5.9m/s | -37.2°C | 0% | 9hPa | 2.7V | 03:30:53 | 02:19:55 | 00:00:00 | |
| DF8AY | 2026-08-31 12:37:02 | 49.87983 | 13.19110 | 89° | 18km/h | 32167m | 6.1m/s | -37.1°C | 0% | 9hPa | 2.6V | 03:30:53 | 02:19:50 | 00:00:00 | |
| DL1XH1-15 | 2026-08-31 12:37:02 | 49.87978 | 13.19139 | 106° | 15km/h | 32189m | 6.8m/s | -37.1°C | 2.2% | 9hPa | 2.7V | 03:30:23 | 02:19:54 | 00:00:00 | |
| DK5PH-5 | 2026-08-31 12:37:02 | 49.87977 | 13.19144 | 82° | 18km/h | 32196m | 5.8m/s | -37.2°C | 2.2% | 8.9hPa | 2.7V | 03:30:00 | 02:19:55 | 00:00:00 | |
| DM0DOS-11 | 2026-08-31 12:37:01 | 49.87979 | 13.19133 | 113° | 20km/h | 32183m | 6.1m/s | -37°C | 2.2% | 9hPa | 2.7V | 03:30:24 | 02:19:53 | 00:00:00 | |
| AA1-15 | 2026-08-31 12:36:59 | 49.87981 | 13.19126 | 111° | 22km/h | 32177m | 4.9m/s | -37.1°C | 0% | 9hPa | 2.6V | 03:30:53 | 02:19:52 | 00:00:00 | |
| DO3MHA-11 | 2026-08-31 12:36:59 | 49.87981 | 13.19125 | 112° | 18km/h | 32178m | 4.8m/s | -37.0°C | 2.2% | 9.0hPa | 2.7V | 03:30:00 | 02:19:52 | 00:00:00 | |
| OE5MMP-10 | 2026-08-31 12:36:58 | 49.87983 | 13.19117 | 104° | 18km/h | 32173m | 4.5m/s | -37.1°C | 2.2% | 9.0hPa | 2.7V | 00:00:00 | 02:19:51 | 00:00:00 | |
| DL1XH1-15 | 2026-08-31 12:36:55 | 49.87969 | 13.19077 | 68° | 18km/h | 32133m | 5.4m/s | -37.1°C | 2.1% | 9.1hPa | 2.7V | 03:30:33 | 02:19:44 | 00:00:00 | |
| DM0DOS-11 | 2026-08-31 12:36:55 | 49.87968 | 13.19071 | 81° | 16km/h | 32128m | 4.9m/s | -37.2°C | 2.1% | 9.1hPa | 2.7V | 03:30:34 | 02:19:43 | 00:00:00 | |
| PETON7-10 | 2026-08-31 12:36:54 | 49.87977 | 13.19093 | 42° | 16km/h | 32150m | 5.0m/s | -37.1°C | 2.1% | 9.0hPa | 2.7V | 03:30:00 | 00:00:00 | 00:00:00 | |
| DL1XH-15 | 2026-08-31 12:36:53 | 49.87971 | 13.19083 | 55° | 18km/h | 32139m | 6m/s | -37.2°C | 2.2% | 9.1hPa | 2.6V | 03:30:32 | 02:19:45 | 00:00:00 | |
| HSKMA3-T | 2026-08-31 12:36:52 | 49.87971 | 13.19083 | 55° | 18km/h | 32139m | 6m/s | -37.2°C | 0% | 9.1hPa | 2.6V | 03:30:53 | 02:19:45 | 00:00:00 | |
| DL1XH-west | 2026-08-31 12:36:52 | 49.87969 | 13.19077 | 68° | 18km/h | 32133m | 5.4m/s | -37.1°C | 0% | 9.1hPa | 2.7V | 03:30:53 | 02:19:44 | 00:00:00 | |
| AA1-15 | 2026-08-31 12:36:48 | 49.87968 | 13.19059 | 98° | 15km/h | 32117m | 6.2m/s | -37.4°C | 0% | 9.1hPa | 2.6V | 03:30:53 | 02:19:41 | 00:00:00 | |
| DL6DJ-15 | 2026-08-31 12:36:47 | 49.87969 | 13.19050 | 103° | 11km/h | 32105m | 5.3m/s | -37.2°C | 0.6% | 9.1hPa | 2.7V | 00:00:00 | 00:00:00 | 00:00:00 | |
| DF7PN | 2026-08-31 12:36:46 | 49.87969 | 13.19050 | 103° | 11km/h | 32105m | 5.3m/s | 0°C | -1.0% | -1.0hPa | 2.7V | 00:00:00 | 00:00:00 | 00:00:00 | |
| DL1XH1-15 | 2026-08-31 12:36:45 | 49.87976 | 13.19010 | 107° | 33km/h | 32078m | 6.8m/s | -37.1°C | 2.1% | 9.2hPa | 2.7V | 03:30:43 | 02:19:34 | 00:00:00 | |
| HSKMA3-T | 2026-08-31 12:36:42 | 49.87974 | 13.19022 | 107° | 29km/h | 32085m | 6.8m/s | -37.3°C | 0% | 9.2hPa | 2.6V | 03:30:53 | 02:19:35 | 00:00:00 | |
| DM0DOS-11 | 2026-08-31 12:36:41 | 49.87979 | 13.18997 | 106° | 37km/h | 32072m | 5.3m/s | -37.1°C | 2.1% | 9.2hPa | 2.7V | 03:30:44 | 02:19:33 | 00:00:00 | |
| DL1XH-west | 2026-08-31 12:36:41 | 49.87979 | 13.18998 | 106° | 37km/h | 32072m | 5.3m/s | -37.1°C | 0% | 9.2hPa | 2.7V | 03:30:53 | 02:19:33 | 00:00:00 | |
| AA1-15 | 2026-08-31 12:36:37 | 49.87982 | 13.18963 | 87° | 22km/h | 32057m | 6.8m/s | -37.4°C | 0% | 9.2hPa | 2.6V | 03:30:53 | 02:19:30 | 00:00:00 | |
| ANDY1245 | 2026-08-31 12:36:36 | 49.87982 | 13.18963 | 88° | 22km/h | 32057m | 6.8m/s | -37.4°C | 0.6% | 9.2hPa | 2.7V | 00:00:00 | 00:00:00 | 00:00:00 | |
| NBG1-10 | 2026-08-31 12:36:35 | 49.87980 | 13.18952 | 63° | 26km/h | 32045m | 4.7m/s | -37.3°C | 2.1% | 9.1hPa | 2.7V | 00:00:00 | 02:19:28 | 00:00:00 | |
| DL1XH-15 | 2026-08-31 12:36:33 | 49.87983 | 13.18943 | 139° | 16km/h | 32029m | 6.6m/s | -37.5°C | 2.2% | 9.2hPa | 2.6V | 03:30:52 | 02:19:25 | 00:00:00 | |
| DB0ND-19 | 2026-08-31 12:36:33 | 49.87981 | 13.18947 | 125° | 7km/h | 32035m | 5.5m/s | -37.4°C | 0.6% | 9.2hPa | 2.7V | 00:00:00 | 00:00:00 | 00:00:00 | |
| DK5PH-5 | 2026-08-31 12:36:32 | 49.87983 | 13.18943 | 140° | 26km/h | 32030m | 6.5m/s | -37.4°C | 2.2% | 9.2hPa | 2.7V | 00:00:00 | 02:19:25 | 00:00:00 | |
| DM0DOS-11 | 2026-08-31 12:36:31 | 49.87992 | 13.18931 | 135° | 31km/h | 32016m | 5.6m/s | -37.5°C | 2.2% | 9.2hPa | 2.7V | 03:30:54 | 02:19:23 | 00:00:00 | |
| HSKMA3-T | 2026-08-31 12:36:31 | 49.87987 | 13.18938 | 140° | 24km/h | 32023m | 6.3m/s | -37.5°C | 0% | 9.2hPa | 2.6V | 03:30:53 | 02:19:24 | 00:00:00 | |
| DL1XH-west | 2026-08-31 12:36:30 | 49.87997 | 13.18921 | 129° | 35km/h | 32011m | 5.2m/s | -37.6°C | 0% | 9.2hPa | 2.7V | 03:31:44 | 02:19:22 | 00:00:00 | |
| SONCRA | 2026-08-31 12:36:30 | 49.87997 | 13.18921 | 129° | 35km/h | 32012m | 5.2m/s | -37.6°C | 0.6% | 9.2hPa | 2.7V | 00:00:00 | 00:00:00 | 00:00:00 | |
| DL1XH-15 | 2026-08-31 12:36:28 | 49.88001 | 13.18839 | 78° | 29km/h | 31971m | 6.2m/s | -37.8°C | 2.2% | 9.3hPa | 2.7V | 03:31:02 | 02:19:15 | 00:00:00 | |
| AA1-15 | 2026-08-31 12:36:26 | 49.88007 | 13.18886 | 94° | 31km/h | 31994m | 6.5m/s | -37.7°C | 0% | 9.3hPa | 2.6V | 03:31:44 | 02:19:19 | 00:00:00 | |
| DB0UT-7 | 2026-08-31 12:36:25 | 49.88007 | 13.18874 | 81° | 18km/h | 31988m | 5.9m/s | -37.7°C | 2.2% | 9.2hPa | 2.6V | 03:30:00 | 02:19:18 | 00:00:00 | |
| DL1XH1-15 | 2026-08-31 12:36:24 | 49.88000 | 13.18828 | 87° | 29km/h | 31965m | 6.4m/s | -37.9°C | 2.2% | 9.3hPa | 2.6V | 03:31:03 | 02:19:14 | 00:00:00 | |
| HSKMA3-T | 2026-08-31 12:36:21 | 49.88000 | 13.18828 | 88° | 29km/h | 31965m | 6.4m/s | -37.9°C | 0% | 9.3hPa | 2.6V | 03:31:44 | 02:19:14 | 00:00:00 | |
| DL1XH-west | 2026-08-31 12:36:19 | 49.88002 | 13.18807 | 107° | 24km/h | 31953m | 5.5m/s | -38°C | 0% | 9.3hPa | 2.7V | 03:31:44 | 02:19:12 | 00:00:00 | |
| DF8AY | 2026-08-31 12:36:18 | 49.88004 | 13.18799 | 113° | 20km/h | 31948m | 6m/s | -37.9°C | 0% | 9.3hPa | 2.7V | 03:32:35 | 02:19:11 | 00:00:00 | |
| DB0NH | 2026-08-31 12:36:18 | 49.88003 | 13.18799 | 114° | 24km/h | 31948m | 6.0m/s | -37.8°C | 2.2% | 9.3hPa | 2.7V | 00:00:00 | 02:19:11 | 00:00:00 | |
| DL1XH-15 | 2026-08-31 12:36:16 | 49.88003 | 13.18761 | 74° | 26km/h | 31912m | 6.8m/s | -38.2°C | 2.2% | 9.4hPa | 2.7V | 03:31:12 | 02:19:05 | 00:00:00 | |
| AA1-15 | 2026-08-31 12:36:15 | 49.88007 | 13.18782 | 83° | 13km/h | 31928m | 5.2m/s | -38°C | 0% | 9.4hPa | 2.6V | 03:31:44 | 02:19:08 | 00:00:00 | |
| DF7PN | 2026-08-31 12:36:15 | 49.88004 | 13.18770 | 71° | 20km/h | 31919m | 5.5m/s | 0°C | -1.0% | -1.0hPa | 2.7V | 00:00:00 | 00:00:00 | 00:00:00 | |
| DL1XH1-15 | 2026-08-31 12:36:14 | 49.88001 | 13.18750 | 76° | 33km/h | 31906m | 6.5m/s | -38.3°C | 2.2% | 9.4hPa | 2.7V | 03:31:13 | 02:19:04 | 00:00:00 | |
| HSKMA3-T | 2026-08-31 12:36:11 | 49.88001 | 13.18750 | 77° | 33km/h | 31906m | 6.5m/s | -38.3°C | 0% | 9.4hPa | 2.7V | 03:31:44 | 02:19:04 | 00:00:00 | |
| DL1XH-west | 2026-08-31 12:36:09 | 49.87997 | 13.18724 | 73° | 35km/h | 31895m | 4.1m/s | -38.6°C | 0% | 9.4hPa | 2.6V | 03:31:44 | 02:19:02 | 00:00:00 | |
| PETON7-10 | 2026-08-31 12:36:09 | 49.87997 | 13.18724 | 73° | 26km/h | 31895m | 4.1m/s | -38.5°C | 2.3% | 9.3hPa | 2.6V | 00:00:00 | 00:00:00 | 00:00:00 | |
| OE5MMP-10 | 2026-08-31 12:36:08 | 49.87993 | 13.18712 | 66° | 22km/h | 31891m | 4.5m/s | -38.5°C | 2.3% | 9.4hPa | 2.6V | 00:00:00 | 02:19:01 | 00:00:00 | |
| DL1XH-15 | 2026-08-31 12:36:06 | 49.87965 | 13.18690 | 14° | 16km/h | 31853m | 6.3m/s | -38.7°C | 2.3% | 9.5hPa | 2.6V | 03:31:22 | 02:18:55 | 00:00:00 | |
| AA1-15 | 2026-08-31 12:36:04 | 49.87975 | 13.18691 | 2° | 20km/h | 31865m | 5.7m/s | -38.8°C | 0% | 9.5hPa | 2.7V | 03:31:44 | 02:18:57 | 00:00:00 | |
| DL1XH1-15 | 2026-08-31 12:36:03 | 49.87962 | 13.18687 | 38° | 18km/h | 31847m | 6.1m/s | -38.8°C | 2.3% | 9.5hPa | 2.6V | 03:31:23 | 02:18:54 | 00:00:00 | |
| DK5PH-5 | 2026-08-31 12:36:02 | 49.87966 | 13.18690 | 15° | 22km/h | 31854m | 6.3m/s | -38.7°C | 2.3% | 9.4hPa | 2.6V | 00:00:00 | 02:18:55 | 00:00:00 | |
| DM0DOS-11 | 2026-08-31 12:36:01 | 49.87959 | 13.18682 | 54° | 22km/h | 31841m | 5.7m/s | -38.9°C | 2.3% | 9.5hPa | 2.7V | 03:31:24 | 02:18:53 | 00:00:00 | |
| DF8AY | 2026-08-31 12:36:00 | 49.87958 | 13.18682 | 54° | 22km/h | 31842m | 5.7m/s | -38.9°C | 0% | 9.5hPa | 2.7V | 03:32:35 | 02:18:53 | 00:00:00 | |
| DL1XH-west | 2026-08-31 12:35:59 | 49.87951 | 13.18664 | 55° | 31km/h | 31830m | 5.3m/s | -38.9°C | 0% | 9.5hPa | 2.7V | 03:31:44 | 02:18:51 | 00:00:00 | |
| OE5MMP-10 | 2026-08-31 12:35:59 | 49.87951 | 13.18664 | 55° | 26km/h | 31831m | 5.3m/s | -38.9°C | 2.3% | 9.5hPa | 2.6V | 00:00:00 | 02:18:51 | 00:00:00 | |
| DL1XH1-15 | 2026-08-31 12:35:57 | 49.87908 | 13.18624 | 27° | 20km/h | 31789m | 6.5m/s | -39.3°C | 2.4% | 9.6hPa | 2.6V | 03:31:33 | 02:18:44 | 00:00:00 | |
| DL1XH-15 | 2026-08-31 12:35:56 | 49.87914 | 13.18627 | 21° | 24km/h | 31795m | 6.3m/s | -39.3°C | 2.4% | 9.6hPa | 2.7V | 03:31:32 | 02:18:45 | 00:00:00 | |
| EDDB2-11 | 2026-08-31 12:35:56 | 49.87940 | 13.18647 | 37° | 31km/h | 31818m | 6.5m/s | -39.2°C | 0.6% | 9.5hPa | 2.6V | 00:00:00 | 00:00:00 | 00:00:00 | |
| DM0DOS-11 | 2026-08-31 12:35:55 | 49.87904 | 13.18620 | 33° | 16km/h | 31782m | 5.9m/s | -39.2°C | 2.4% | 9.6hPa | 2.6V | 03:31:34 | 02:18:43 | 00:00:00 | |
| AA1-15 | 2026-08-31 12:35:54 | 49.87926 | 13.18635 | 22° | 31km/h | 31806m | 5.3m/s | -39.1°C | 0% | 9.5hPa | 2.7V | 03:31:44 | 02:18:47 | 00:00:00 | |
| HSKMA3-T | 2026-08-31 12:35:50 | 49.87901 | 13.18617 | 32° | 15km/h | 31777m | 5.5m/s | -39.3°C | 0% | 9.6hPa | 2.7V | 03:31:44 | 02:18:42 | 00:00:00 | |
| DL1XH-west | 2026-08-31 12:35:48 | 49.87898 | 13.18614 | 21° | 13km/h | 31771m | 5.7m/s | -39.4°C | 0% | 9.6hPa | 2.7V | 03:31:44 | 02:18:41 | 00:00:00 | |
| OE5MMP-10 | 2026-08-31 12:35:48 | 49.87898 | 13.18614 | 22° | 18km/h | 31771m | 5.7m/s | -39.4°C | 2.4% | 9.5hPa | 2.7V | 03:31:00 | 02:18:41 | 00:00:00 | |
| DL1XH1-15 | 2026-08-31 12:35:46 | 49.87867 | 13.18608 | 32° | 22km/h | 31728m | 5.8m/s | -39.6°C | 2.4% | 9.7hPa | 2.6V | 03:31:43 | 02:18:34 | 00:00:00 | |
| DL6DJ-15 | 2026-08-31 12:35:45 | 49.87881 | 13.18615 | 0° | 18km/h | 31747m | 5.2m/s | -39.6°C | 0.6% | 9.6hPa | 2.6V | 00:00:00 | 00:00:00 | 00:00:00 | |
| DM0DOS-11 | 2026-08-31 12:35:44 | 49.87862 | 13.18604 | 30° | 22km/h | 31722m | 5.3m/s | -39.7°C | 2.4% | 9.7hPa | 2.6V | 03:31:44 | 02:18:33 | 00:00:00 | |
| AA1-15 | 2026-08-31 12:35:43 | 49.87876 | 13.18614 | 11° | 20km/h | 31741m | 6.5m/s | -39.6°C | 0% | 9.6hPa | 2.7V | 03:31:44 | 02:18:36 | 00:00:00 | |
| HSKMA3-T | 2026-08-31 12:35:39 | 49.87857 | 13.18600 | 21° | 20km/h | 31717m | 5.6m/s | -39.7°C | 0% | 9.7hPa | 2.7V | 03:32:35 | 02:18:32 | 00:00:00 | |
| DL1XH-west | 2026-08-31 12:35:38 | 49.87852 | 13.18598 | 7° | 20km/h | 31710m | 6.9m/s | -39.7°C | 0% | 9.7hPa | 2.7V | 03:32:35 | 02:18:31 | 00:00:00 | |
| OE5MMP-10 | 2026-08-31 12:35:38 | 49.87852 | 13.18598 | 7° | 16km/h | 31711m | 6.9m/s | -39.6°C | 2.4% | 9.6hPa | 2.6V | 00:00:00 | 02:18:31 | 00:00:00 | |
| DL1XH1-15 | 2026-08-31 12:35:34 | 49.87829 | 13.18602 | 77° | 13km/h | 31668m | 6.1m/s | -39.8°C | 2.4% | 9.7hPa | 2.6V | 03:31:53 | 02:18:24 | 00:00:00 | |
| DM0DOS-11 | 2026-08-31 12:35:33 | 49.87826 | 13.18584 | 63° | 15km/h | 31651m | 6.5m/s | -39.8°C | 2.4% | 9.7hPa | 2.7V | 03:31:56 | 02:18:21 | 00:00:00 | |
| AA1-15 | 2026-08-31 12:35:33 | 49.87832 | 13.18607 | 358° | 9km/h | 31682m | 6.9m/s | -39.7°C | 0% | 9.7hPa | 2.7V | 03:32:35 | 02:18:26 | 00:00:00 | |
| DF8AY | 2026-08-31 12:35:32 | 49.87804 | 13.18550 | 71° | 11km/h | 31596m | 6.9m/s | -39.9°C | 0% | 9.8hPa | 2.6V | 03:32:35 | 02:18:12 | 00:00:00 | |
| DK5PH-5 | 2026-08-31 12:35:32 | 49.87830 | 13.18606 | 55° | 16km/h | 31675m | 6.7m/s | -39.7°C | 2.4% | 9.7hPa | 2.7V | 00:00:00 | 02:18:25 | 00:00:00 | |
| DL1XH-15 | 2026-08-31 12:35:31 | 49.87828 | 13.18596 | 81° | 16km/h | 31663m | 5.4m/s | -39.7°C | 2.4% | 9.7hPa | 2.7V | 03:31:54 | 02:18:23 | 00:00:00 | |
| HSKMA3-T | 2026-08-31 12:35:28 | 49.87826 | 13.18584 | 63° | 15km/h | 31652m | 6.5m/s | -39.8°C | 0% | 9.8hPa | 2.7V | 03:32:35 | 02:18:21 | 00:00:00 | |
| DL1XH-west | 2026-08-31 12:35:27 | 49.87821 | 13.18577 | 23° | 15km/h | 31639m | 5.8m/s | -39.7°C | 0% | 9.8hPa | 2.6V | 03:32:35 | 02:18:19 | 00:00:00 | |
| DL1XH-15 | 2026-08-31 12:35:26 | 49.87806 | 13.18555 | 67° | 13km/h | 31602m | 6.2m/s | -39.9°C | 2.4% | 9.8hPa | 2.6V | 03:32:04 | 02:18:13 | 00:00:00 | |
| PG1ADW-2 | 2026-08-31 12:35:25 | 49.87818 | 13.18575 | 20° | 16km/h | 31633m | 5.2m/s | -39.7°C | 2.4% | 9.7hPa | 2.6V | 00:00:00 | 02:18:18 | 00:00:00 | |
| DL1XH1-15 | 2026-08-31 12:35:24 | 49.87807 | 13.18560 | 63° | 15km/h | 31608m | 5.7m/s | -39.8°C | 2.5% | 9.8hPa | 2.6V | 03:32:03 | 02:18:14 | 00:00:00 | |
| PETON7-10 | 2026-08-31 12:35:24 | 49.87814 | 13.18573 | 27° | 18km/h | 31628m | 6.2m/s | -39.8°C | 2.4% | 9.7hPa | 2.7V | 00:00:00 | 00:00:00 | 00:00:00 | |
| DM0DOS-11 | 2026-08-31 12:35:23 | 49.87803 | 13.18546 | 69° | 11km/h | 31589m | 5.7m/s | -39.8°C | 2.4% | 9.8hPa | 2.7V | 03:32:06 | 02:18:11 | 00:00:00 | |
| AA1-15 | 2026-08-31 12:35:22 | 49.87809 | 13.18565 | 56° | 15km/h | 31614m | 6m/s | -39.8°C | 0% | 9.8hPa | 2.7V | 03:32:35 | 02:18:15 | 00:00:00 | |
| HSKMA3-T | 2026-08-31 12:35:18 | 49.87803 | 13.18546 | 70° | 11km/h | 31589m | 5.7m/s | -39.8°C | 0% | 9.8hPa | 2.7V | 03:32:35 | 02:18:11 | 00:00:00 | |
| DL1XH-west | 2026-08-31 12:35:17 | 49.87802 | 13.18537 | 76° | 16km/h | 31579m | 5.6m/s | -39.9°C | 0% | 9.9hPa | 2.7V | 03:32:35 | 02:18:09 | 00:00:00 | |
| ANDY1245 | 2026-08-31 12:35:16 | 49.87802 | 13.18537 | 77° | 16km/h | 31579m | 5.6m/s | -39.9°C | 0.7% | 9.9hPa | 2.7V | 00:00:00 | 00:00:00 | 00:00:00 | |
| DL1XH-15 | 2026-08-31 12:35:14 | 49.87788 | 13.18487 | 39° | 20km/h | 31543m | 6.9m/s | -40.1°C | 2.5% | 9.9hPa | 2.7V | 03:32:14 | 02:18:03 | 00:00:00 | |
| DM0DOS-11 | 2026-08-31 12:35:13 | 49.87780 | 13.18482 | 359° | 16km/h | 31530m | 5.9m/s | -40.1°C | 2.5% | 9.9hPa | 2.6V | 03:32:16 | 02:18:01 | 00:00:00 | |
| AA1-15 | 2026-08-31 12:35:11 | 49.87792 | 13.18493 | 55° | 24km/h | 31550m | 5.3m/s | -40.1°C | 0% | 9.9hPa | 2.7V | 03:32:35 | 02:18:04 | 00:00:00 | |
| DF8AY | 2026-08-31 12:35:07 | 49.87776 | 13.18482 | 356° | 15km/h | 31525m | 4.8m/s | -40.1°C | 0% | 9.9hPa | 2.6V | 03:32:35 | 02:18:00 | 00:00:00 | |
| DL1XH-west | 2026-08-31 12:35:06 | 49.87773 | 13.18482 | 13° | 11km/h | 31520m | 5m/s | -40.2°C | 0% | 9.9hPa | 2.6V | 03:32:35 | 02:17:59 | 00:00:00 | |
| PG1ADW-2 | 2026-08-31 12:35:05 | 49.87771 | 13.18480 | 47° | 22km/h | 31514m | 6.5m/s | -40.2°C | 2.5% | 9.9hPa | 2.6V | 00:00:00 | 00:00:00 | 00:00:00 | |
| BAUMI2-15 | 2026-08-31 12:35:04 | 49.87769 | 13.18475 | 73° | 22km/h | 31507m | 6.8m/s | 0°C | 0% | 0hPa | 2.6V | 00:00:00 | 02:17:57 | 00:00:00 | |
| DM0DOS-11 | 2026-08-31 12:35:02 | 49.87754 | 13.18421 | 38° | 22km/h | 31465m | 6.2m/s | -40.2°C | 2.5% | 10hPa | 2.6V | 03:32:27 | 02:17:50 | 00:00:00 | |
| AA1-15 | 2026-08-31 12:35:00 | 49.87764 | 13.18440 | 68° | 22km/h | 31482m | 6m/s | -40.1°C | 0% | 10hPa | 2.7V | 03:32:35 | 02:17:53 | 00:00:00 | |
| HSKMA3-T | 2026-08-31 12:34:57 | 49.87750 | 13.18416 | 37° | 24km/h | 31459m | 6.8m/s | -40.1°C | 0% | 10.1hPa | 2.7V | 03:32:35 | 02:17:49 | 00:00:00 | |
| DL1XH-west | 2026-08-31 12:34:56 | 49.87745 | 13.18411 | 35° | 24km/h | 31453m | 5.8m/s | -40.2°C | 0% | 10.1hPa | 2.7V | 03:32:35 | 02:17:48 | 00:00:00 | |
| AA1-15 | 2026-08-31 12:34:50 | 49.87724 | 13.18399 | 13° | 13km/h | 31424m | 4.8m/s | -40.2°C | 0% | 10.1hPa | 2.7V | 03:32:35 | 02:17:43 | 00:00:00 | |
| HSKMA3-T | 2026-08-31 12:34:46 | 49.87711 | 13.18373 | 67° | 37km/h | 31400m | 6.5m/s | -40.3°C | 0% | 10.1hPa | 2.6V | 03:33:26 | 02:17:39 | 00:00:00 | |
| DF8AY | 2026-08-31 12:34:46 | 49.87707 | 13.18359 | 65° | 40km/h | 31394m | 5.1m/s | -40.3°C | 0% | 10.2hPa | 2.6V | 03:33:26 | 02:17:38 | 00:00:00 | |
| DL1XH-west | 2026-08-31 12:34:45 | 49.87703 | 13.18345 | 59° | 38km/h | 31389m | 4.4m/s | -40.2°C | 0% | 10.1hPa | 2.7V | 03:33:26 | 02:17:37 | 00:00:00 | |
| AA1-15 | 2026-08-31 12:34:39 | 49.87673 | 13.18319 | 355° | 24km/h | 31359m | 5.5m/s | -40.3°C | 0% | 10.2hPa | 2.7V | 03:33:26 | 02:17:32 | 00:00:00 | |
| DO3MHA-11 | 2026-08-31 12:34:39 | 49.87673 | 13.18319 | 356° | 24km/h | 31360m | 5.5m/s | -40.2°C | 2.5% | 10.2hPa | 2.7V | 00:00:00 | 02:17:32 | 00:00:00 | |
| DM0DOS-11 | 2026-08-31 12:34:38 | 49.87662 | 13.18319 | 9° | 20km/h | 31347m | 5.7m/s | -40.2°C | 2.5% | 10.2hPa | 2.7V | 03:32:47 | 02:17:30 | 00:00:00 | |
| HSKMA3-T | 2026-08-31 12:34:36 | 49.87653 | 13.18312 | 37° | 22km/h | 31336m | 5.4m/s | -40.3°C | 0% | 10.2hPa | 2.6V | 03:33:26 | 02:17:28 | 00:00:00 | |
| DL1XH-west | 2026-08-31 12:34:35 | 49.87649 | 13.18307 | 43° | 22km/h | 31330m | 6.3m/s | -40.3°C | 0% | 10.2hPa | 2.6V | 03:33:26 | 02:17:27 | 00:00:00 | |
| BAUMI2-15 | 2026-08-31 12:34:34 | 49.87649 | 13.18307 | 43° | 29km/h | 31331m | 6.3m/s | 0°C | 0% | 0hPa | 2.6V | 00:00:00 | 02:17:27 | 00:00:00 | |
| DL1XH-15 | 2026-08-31 12:34:33 | 49.87623 | 13.18256 | 55° | 35km/h | 31295m | 5.6m/s | -40.5°C | 2.5% | 10.3hPa | 2.6V | 03:32:56 | 02:17:21 | 00:00:00 | |
| DL1XH1-15 | 2026-08-31 12:34:33 | 49.87637 | 13.18286 | 52° | 27km/h | 31312m | 5.2m/s | -40.4°C | 2.5% | 10.3hPa | 2.7V | 03:32:53 | 02:17:24 | 00:00:00 | |
| DF8AY | 2026-08-31 12:34:33 | 49.87636 | 13.18286 | 52° | 27km/h | 31312m | 5.2m/s | -40.4°C | 0% | 10.3hPa | 2.7V | 03:33:26 | 02:17:24 | 00:00:00 | |
| AA1-15 | 2026-08-31 12:34:29 | 49.87627 | 13.18267 | 57° | 33km/h | 31301m | 6.5m/s | -40.4°C | 0% | 10.3hPa | 2.6V | 03:33:26 | 02:17:22 | 00:00:00 | |
| DB0ND-19 | 2026-08-31 12:34:29 | 49.87623 | 13.18256 | 55° | 35km/h | 31295m | 5.6m/s | -40.5°C | 0.6% | 10.3hPa | 2.7V | 00:00:00 | 00:00:00 | 00:00:00 | |
| OE5MMP-10 | 2026-08-31 12:34:28 | 49.87623 | 13.18256 | 56° | 20km/h | 31295m | 5.5m/s | -40.4°C | 2.5% | 10.2hPa | 2.7V | 03:32:00 | 02:17:21 | 00:00:00 | |
| DM0DOS-11 | 2026-08-31 12:34:27 | 49.87613 | 13.18238 | 36° | 26km/h | 31286m | 4.2m/s | -40.4°C | 2.5% | 10.3hPa | 2.7V | 03:32:58 | 02:17:19 | 00:00:00 | |
| HSKMA3-T | 2026-08-31 12:34:25 | 49.87607 | 13.18233 | 20° | 22km/h | 31281m | 6.6m/s | -40.5°C | 0% | 10.3hPa | 2.7V | 03:33:26 | 02:17:18 | 00:00:00 | |
| DL1XH-west | 2026-08-31 12:34:23 | 49.87598 | 13.18235 | 331° | 18km/h | 31267m | 5.9m/s | -40.4°C | 0% | 10.3hPa | 2.6V | 03:33:26 | 02:17:16 | 00:00:00 | |
| DL1XH1-15 | 2026-08-31 12:34:23 | 49.87592 | 13.18241 | 331° | 11km/h | 31258m | 4.2m/s | -40.4°C | 2.5% | 10.3hPa | 2.7V | 03:33:03 | 02:17:14 | 00:00:00 | |
| BAUMI2-15 | 2026-08-31 12:34:23 | 49.87598 | 13.18234 | 332° | 15km/h | 31268m | 5.9m/s | 0°C | 0% | 0hPa | 2.7V | 00:00:00 | 02:17:16 | 00:00:00 | |
| DL1XH-15 | 2026-08-31 12:34:20 | 49.87587 | 13.18231 | 78° | 26km/h | 31240m | 6.1m/s | -40.4°C | 2.5% | 10.4hPa | 2.7V | 03:33:06 | 02:17:11 | 00:00:00 | |
| AA1-15 | 2026-08-31 12:34:18 | 49.87587 | 13.18231 | 79° | 26km/h | 31240m | 6.1m/s | -40.4°C | 0% | 10.4hPa | 2.7V | 03:33:26 | 02:17:11 | 00:00:00 | |
| HSKMA3-T | 2026-08-31 12:34:15 | 49.87577 | 13.18185 | 56° | 27km/h | 31218m | 5.8m/s | -40.3°C | 0% | 10.4hPa | 2.6V | 03:33:26 | 02:17:07 | 00:00:00 | |
| DL1XH-west | 2026-08-31 12:34:13 | 49.87573 | 13.18178 | 38° | 22km/h | 31212m | 5.6m/s | -40.4°C | 0% | 10.4hPa | 2.6V | 03:33:26 | 02:17:06 | 00:00:00 | |
| AA1-15 | 2026-08-31 12:34:08 | 49.87555 | 13.18171 | 21° | 7km/h | 31175m | 5.7m/s | -40.4°C | 0% | 10.5hPa | 2.6V | 03:33:26 | 02:17:00 | 00:00:00 | |
| DM0DOS-11 | 2026-08-31 12:34:07 | 49.87555 | 13.18171 | 20° | 7km/h | 31175m | 5.7m/s | -40.4°C | 2.5% | 10.5hPa | 2.6V | 03:33:17 | 02:17:00 | 00:00:00 | |
| DF8AY | 2026-08-31 12:34:06 | 49.87517 | 13.18118 | 70° | 18km/h | 31109m | 4.1m/s | -40.5°C | 0% | 10.6hPa | 2.7V | 03:35:08 | 02:16:48 | 00:00:00 | |
| BAUMI2-15 | 2026-08-31 12:34:06 | 49.87553 | 13.18170 | 24° | 13km/h | 31170m | 5.4m/s | 0°C | 0% | 0hPa | 2.6V | 00:00:00 | 02:16:59 | 00:00:00 | |
| DL1XH-15 | 2026-08-31 12:34:05 | 49.87527 | 13.18151 | 45° | 24km/h | 31131m | 4.8m/s | -40.5°C | 2.5% | 10.6hPa | 2.6V | 03:33:25 | 02:16:52 | 00:00:00 | |
| DL1XH-west | 2026-08-31 12:34:03 | 49.87545 | 13.18165 | 19° | 15km/h | 31152m | 5.8m/s | -40.4°C | 0% | 10.5hPa | 2.6V | 03:33:26 | 02:16:56 | 00:00:00 | |
| DK5PH-5 | 2026-08-31 12:34:02 | 49.87541 | 13.18163 | 19° | 22km/h | 31147m | 5.5m/s | -40.4°C | 2.5% | 10.5hPa | 2.7V | 00:00:00 | 02:16:55 | 00:00:00 | |
| DB0ND-19 | 2026-08-31 12:33:58 | 49.87520 | 13.18135 | 69° | 24km/h | 31119m | 6.5m/s | -40.5°C | 0.6% | 10.6hPa | 2.7V | 00:00:00 | 00:00:00 | 00:00:00 | |
| OE5DRO-10 | 2026-08-31 12:33:57 | 49.87520 | 13.18135 | 70° | 24km/h | 31119m | 6.4m/s | -40.4°C | 2.5% | 10.5hPa | 2.7V | 00:00:00 | 00:00:00 | 00:00:00 | |
| DL1XH1-15 | 2026-08-31 12:33:56 | 49.87500 | 13.18120 | 331° | 22km/h | 31082m | 4.7m/s | -40.6°C | 2.5% | 10.6hPa | 2.7V | 03:33:34 | 02:16:43 | 00:00:00 | |
| AA1-15 | 2026-08-31 12:33:56 | 49.87518 | 13.18126 | 76° | 24km/h | 31113m | 4.8m/s | -40.5°C | 0% | 10.6hPa | 2.7V | 03:34:17 | 02:16:49 | 00:00:00 | |
| DL9SK-14 | 2026-08-31 12:33:55 | 49.87517 | 13.18118 | 69° | 16km/h | 31109m | 4.1m/s | -40.5°C | 0.6% | 10.6hPa | 2.6V | 00:00:00 | 00:00:00 | 00:00:00 | |
| PETON7-10 | 2026-08-31 12:33:54 | 49.87515 | 13.18113 | 49° | 24km/h | 31105m | 5.2m/s | -40.5°C | 2.5% | 10.5hPa | 2.6V | 03:33:00 | 00:00:00 | 00:00:00 | |
| DL1XH-15 | 2026-08-31 12:33:53 | 49.87490 | 13.18124 | 5° | 20km/h | 31071m | 5.8m/s | -40.7°C | 2.5% | 10.7hPa | 2.6V | 03:33:36 | 02:16:41 | 00:00:00 | |
| DL1XH-west | 2026-08-31 12:33:52 | 49.87509 | 13.18112 | 336° | 18km/h | 31092m | 6m/s | -40.6°C | 0% | 10.6hPa | 2.6V | 03:34:17 | 02:16:45 | 00:00:00 | |
| EDDB2-11 | 2026-08-31 12:33:52 | 49.87504 | 13.18116 | 329° | 20km/h | 31087m | 4.7m/s | -40.6°C | 0.7% | 10.6hPa | 2.7V | 00:00:00 | 00:00:00 | 00:00:00 | |
| DM0DOS-11 | 2026-08-31 12:33:51 | 49.87475 | 13.18109 | 45° | 29km/h | 31055m | 5.3m/s | -40.9°C | 2.5% | 10.7hPa | 2.7V | 03:33:39 | 02:16:38 | 00:00:00 | |
| DJ2DS-15 | 2026-08-31 12:33:51 | 49.87504 | 13.18116 | 330° | 24km/h | 31087m | 4.6m/s | -40.6°C | 2.5% | 10.6hPa | 2.7V | 03:33:00 | 02:16:44 | 00:00:00 | |
| DO3MHA-11 | 2026-08-31 12:33:49 | 49.87494 | 13.18123 | 344° | 26km/h | 31077m | 5.7m/s | -40.6°C | 2.5% | 10.6hPa | 2.6V | 00:00:00 | 02:16:42 | 00:00:00 | |
| OE5MMP-10 | 2026-08-31 12:33:48 | 49.87490 | 13.18124 | 6° | 26km/h | 31071m | 5.7m/s | -40.7°C | 2.5% | 10.6hPa | 2.6V | 03:33:00 | 02:16:41 | 00:00:00 | |
| ANDY1245 | 2026-08-31 12:33:47 | 49.87490 | 13.18124 | 6° | 20km/h | 31071m | 5.8m/s | -40.7°C | 0.7% | 10.7hPa | 2.7V | 03:34:00 | 00:00:00 | 00:00:00 | |
| BAUMI2-15 | 2026-08-31 12:33:46 | 49.87480 | 13.18117 | 42° | 29km/h | 31060m | 5.1m/s | 0°C | 0% | 0hPa | 2.7V | 00:00:00 | 02:16:39 | 00:00:00 | |
| DL1XH1-15 | 2026-08-31 12:33:45 | 49.87444 | 13.18079 | 14° | 26km/h | 31027m | 4.7m/s | -41°C | 2.5% | 10.7hPa | 2.7V | 03:33:44 | 02:16:33 | 00:00:00 | |
| AA1-15 | 2026-08-31 12:33:45 | 49.87475 | 13.18109 | 46° | 29km/h | 31055m | 5.3m/s | -40.9°C | 0% | 10.7hPa | 2.7V | 03:34:17 | 02:16:38 | 00:00:00 | |
| DL1XH-west | 2026-08-31 12:33:42 | 49.87457 | 13.18087 | 29° | 31km/h | 31037m | 5.5m/s | -41°C | 0% | 10.7hPa | 2.6V | 03:34:17 | 02:16:35 | 00:00:00 | |
| HSKMA3-T | 2026-08-31 12:33:41 | 49.87450 | 13.18082 | 21° | 27km/h | 31032m | 4.9m/s | -41.1°C | 0% | 10.7hPa | 2.6V | 03:34:17 | 02:16:34 | 00:00:00 | |
| BAUMI2-15 | 2026-08-31 12:33:41 | 49.87450 | 13.18082 | 22° | 22km/h | 31033m | 4.9m/s | 0°C | 0% | 0hPa | 2.7V | 00:00:00 | 02:16:34 | 00:00:00 | |
| DL1XH-15 | 2026-08-31 12:33:40 | 49.87423 | 13.18064 | 34° | 18km/h | 31000m | 4.7m/s | -41.2°C | 2.5% | 10.8hPa | 2.7V | 03:33:49 | 02:16:28 | 00:00:00 | |
| DF8AY | 2026-08-31 12:33:37 | 49.87427 | 13.18068 | 39° | 16km/h | 31005m | 5m/s | -41.2°C | 0% | 10.8hPa | 2.7V | 03:35:08 | 02:16:29 | 00:00:00 | |
| AA1-15 | 2026-08-31 12:33:35 | 49.87419 | 13.18060 | 26° | 22km/h | 30995m | 5.6m/s | -41.3°C | 0% | 10.8hPa | 2.7V | 03:34:17 | 02:16:27 | 00:00:00 | |
| HSKMA3-T | 2026-08-31 12:33:31 | 49.87399 | 13.18049 | 20° | 35km/h | 30978m | 4.5m/s | -41.4°C | 0% | 10.8hPa | 2.6V | 03:34:17 | 02:16:24 | 00:00:00 | |
| DJ2DS-15 | 2026-08-31 12:33:31 | 49.87399 | 13.18049 | 20° | 22km/h | 30978m | 4.4m/s | -41.4°C | 2.6% | 10.7hPa | 2.6V | 00:00:00 | 02:16:24 | 00:00:00 | |
| OE5MMP-10 | 2026-08-31 12:33:28 | 49.87377 | 13.18030 | 43° | 20km/h | 30962m | 5.5m/s | -41.4°C | 2.6% | 10.8hPa | 2.6V | 00:00:00 | 02:16:21 | 00:00:00 | |
| DM0DOS-11 | 2026-08-31 12:33:27 | 49.87363 | 13.18007 | 48° | 22km/h | 30947m | 5.6m/s | -41.5°C | 2.6% | 10.8hPa | 2.6V | 03:33:59 | 02:16:18 | 00:00:00 | |
| DF8AY | 2026-08-31 12:33:26 | 49.87367 | 13.18014 | 52° | 26km/h | 30952m | 4.7m/s | -41.6°C | 0% | 10.8hPa | 2.6V | 03:35:08 | 02:16:19 | 00:00:00 | |
| DL1XH-15 | 2026-08-31 12:33:25 | 49.87360 | 13.18001 | 39° | 18km/h | 30941m | 6.2m/s | -41.6°C | 2.7% | 10.8hPa | 2.7V | 03:34:00 | 02:16:17 | 00:00:00 | |
| DL1XH1-15 | 2026-08-31 12:33:25 | 49.87342 | 13.17990 | 32° | 13km/h | 30912m | 6.2m/s | -41.6°C | 2.6% | 10.9hPa | 2.7V | 03:34:05 | 02:16:12 | 00:00:00 | |
| AA1-15 | 2026-08-31 12:33:24 | 49.87356 | 13.17997 | 24° | 18km/h | 30935m | 5.8m/s | -41.5°C | 0% | 10.8hPa | 2.7V | 03:34:17 | 02:16:16 | 00:00:00 | |
| HSKMA3-T | 2026-08-31 12:33:20 | 49.87345 | 13.17993 | 20° | 13km/h | 30918m | 6.1m/s | -41.6°C | 0% | 10.9hPa | 2.6V | 03:34:17 | 02:16:13 | 00:00:00 | |
| DF8AY | 2026-08-31 12:33:16 | 49.87325 | 13.17976 | 15° | 22km/h | 30884m | 5m/s | -41.7°C | 0% | 10.9hPa | 2.7V | 03:35:08 | 02:16:07 | 00:00:00 | |
| DM0DOS-11 | 2026-08-31 12:33:15 | 49.87325 | 13.17976 | 14° | 20km/h | 30884m | 5m/s | -41.6°C | 2.7% | 10.9hPa | 2.7V | 03:34:10 | 02:16:07 | 00:00:00 | |
| AA1-15 | 2026-08-31 12:33:13 | 49.87320 | 13.17974 | 19° | 20km/h | 30880m | 4.5m/s | -41.6°C | 0% | 11hPa | 2.7V | 03:34:17 | 02:16:06 | 00:00:00 | |
| HSKMA3-T | 2026-08-31 12:33:10 | 49.87309 | 13.17962 | 54° | 15km/h | 30863m | 5.8m/s | -41.7°C | 0% | 11hPa | 2.6V | 03:34:17 | 02:16:03 | 00:00:00 | |
| PETON7-10 | 2026-08-31 12:33:09 | 49.87307 | 13.17958 | 62° | 11km/h | 30858m | 4.9m/s | -41.6°C | 2.7% | 10.9hPa | 2.7V | 00:00:00 | 00:00:00 | 00:00:00 | |
| OE5MMP-10 | 2026-08-31 12:33:08 | 49.87305 | 13.17954 | 53° | 9km/h | 30852m | 4.9m/s | -41.6°C | 2.6% | 10.9hPa | 2.6V | 03:34:00 | 02:16:01 | 00:00:00 | |
| DL1XH-15 | 2026-08-31 12:33:06 | 49.87298 | 13.17959 | 308° | 13km/h | 30829m | 4.8m/s | -41.7°C | 2.7% | 11hPa | 2.6V | 03:34:20 | 02:15:57 | 00:00:00 | |
| AA1-15 | 2026-08-31 12:33:03 | 49.87296 | 13.17963 | 308° | 11km/h | 30824m | 5.8m/s | -41.7°C | 0% | 11.1hPa | 2.7V | 03:35:08 | 02:15:56 | 00:00:00 | |
| DL1XH-west | 2026-08-31 12:32:59 | 49.87290 | 13.17967 | 9° | 11km/h | 30803m | 5.1m/s | -41.8°C | 0% | 11.1hPa | 2.6V | 03:35:08 | 02:15:52 | 00:00:00 | |
| DF8AY | 2026-08-31 12:32:58 | 49.87269 | 13.17962 | 32° | 5km/h | 30770m | 6.3m/s | -41.8°C | 0% | 11.1hPa | 2.7V | 03:35:08 | 02:15:46 | 00:00:00 | |
| OE5MMP-10 | 2026-08-31 12:32:58 | 49.87287 | 13.17966 | 7° | 11km/h | 30798m | 6.5m/s | -41.7°C | 2.7% | 11.0hPa | 2.7V | 00:00:00 | 02:15:51 | 00:00:00 | |
| DM0DOS-11 | 2026-08-31 12:32:55 | 49.87271 | 13.17963 | 13° | 11km/h | 30777m | 5.7m/s | -41.9°C | 2.7% | 11.1hPa | 2.7V | 03:34:30 | 02:15:47 | 00:00:00 | |
| DL1XH-15 | 2026-08-31 12:32:54 | 49.87270 | 13.17965 | 298° | 11km/h | 30745m | 6.1m/s | -42°C | 2.7% | 11.2hPa | 2.7V | 03:34:36 | 02:15:41 | 00:00:00 | |
| PETON7-10 | 2026-08-31 12:32:54 | 49.87271 | 13.17963 | 14° | 9km/h | 30777m | 5.7m/s | -41.8°C | 2.7% | 11.1hPa | 2.7V | 03:34:00 | 00:00:00 | 00:00:00 | |
| DL1XH1-15 | 2026-08-31 12:32:53 | 49.87265 | 13.17974 | 318° | 16km/h | 30734m | 4.8m/s | -42°C | 2.7% | 11.2hPa | 2.7V | 03:34:38 | 02:15:39 | 00:00:00 | |
| AA1-15 | 2026-08-31 12:32:52 | 49.87268 | 13.17961 | 116° | 4km/h | 30765m | 5.2m/s | -41.8°C | 0% | 11.1hPa | 2.7V | 03:35:08 | 02:15:45 | 00:00:00 | |
| SONCRA | 2026-08-31 12:32:52 | 49.87268 | 13.17961 | 116° | 2km/h | 30765m | 5.2m/s | -41.8°C | 0.7% | 11.1hPa | 2.6V | 00:00:00 | 00:00:00 | 00:00:00 | |
| DJ2DS-15 | 2026-08-31 12:32:51 | 49.87269 | 13.17960 | 175° | 9km/h | 30761m | 4.2m/s | -41.8°C | 2.7% | 11.1hPa | 2.6V | 00:00:00 | 02:15:44 | 00:00:00 | |
| DM0DOS-11 | 2026-08-31 12:32:50 | 49.87259 | 13.17980 | 331° | 11km/h | 30724m | 5.6m/s | -42°C | 2.7% | 11.2hPa | 2.6V | 03:34:40 | 02:15:37 | 00:00:00 | |
| DL1XH-west | 2026-08-31 12:32:49 | 49.87268 | 13.17969 | 311° | 15km/h | 30739m | 5.8m/s | -42°C | 0% | 11.2hPa | 2.7V | 03:35:08 | 02:15:40 | 00:00:00 | |
| DF8AY | 2026-08-31 12:32:43 | 49.87257 | 13.17980 | 94° | 5km/h | 30712m | 5.6m/s | -42°C | 0% | 11.3hPa | 2.7V | 03:35:08 | 02:15:35 | 00:00:00 | |
| DL1XH1-15 | 2026-08-31 12:32:41 | 49.87257 | 13.17965 | 55° | 9km/h | 30691m | 5.8m/s | -41.9°C | 2.7% | 11.3hPa | 2.6V | 03:34:46 | 02:15:31 | 00:00:00 | |
| AA1-15 | 2026-08-31 12:32:41 | 49.87257 | 13.17977 | 105° | 11km/h | 30707m | 4.8m/s | -41.9°C | 0% | 11.2hPa | 2.7V | 03:35:08 | 02:15:34 | 00:00:00 | |
| OE5DRO-10 | 2026-08-31 12:32:41 | 49.87257 | 13.17977 | 105° | 7km/h | 30707m | 4.8m/s | -41.9°C | 2.7% | 11.2hPa | 2.6V | 00:00:00 | 00:00:00 | 00:00:00 | |
| DO3MHA-11 | 2026-08-31 12:32:39 | 49.87258 | 13.17968 | 85° | 9km/h | 30698m | 5.8m/s | -42.0°C | 2.7% | 11.2hPa | 2.6V | 00:00:00 | 02:15:32 | 00:00:00 | |
| PETON7-10 | 2026-08-31 12:32:38 | 49.87257 | 13.17965 | 56° | 7km/h | 30692m | 5.8m/s | -41.9°C | 2.7% | 11.2hPa | 2.7V | 00:00:00 | 02:15:31 | 00:00:00 | |
| DM0DOS-11 | 2026-08-31 12:32:37 | 49.87252 | 13.17966 | 260° | 5km/h | 30670m | 6.4m/s | -41.9°C | 2.7% | 11.3hPa | 2.7V | 03:34:50 | 02:15:27 | 00:00:00 | |
| DL1XH-west | 2026-08-31 12:32:37 | 49.87256 | 13.17963 | 20° | 7km/h | 30686m | 5.2m/s | -42°C | 0% | 11.3hPa | 2.6V | 03:35:08 | 02:15:30 | 00:00:00 | |
| DJTTGO | 2026-08-31 12:32:34 | 49.87252 | 13.17964 | 311° | 5km/h | 30676m | 5.4m/s | -41.9°C | 0.7% | 11.3hPa | 2.7V | 00:00:00 | 00:00:00 | 00:00:00 | |
| DL1XH-15 | 2026-08-31 12:32:33 | 49.87263 | 13.17972 | 48° | 4km/h | 30626m | 4.9m/s | -41.8°C | 2.7% | 11.4hPa | 2.7V | 03:34:58 | 02:15:19 | 00:00:00 | |
| DK5PH-5 | 2026-08-31 12:32:32 | 49.87255 | 13.17971 | 206° | 9km/h | 30658m | 5.1m/s | -41.8°C | 2.7% | 11.3hPa | 2.6V | 00:00:00 | 02:15:25 | 00:00:00 | |
| DJ2DS-15 | 2026-08-31 12:32:31 | 49.87258 | 13.17973 | 197° | 7km/h | 30653m | 3.8m/s | -41.7°C | 2.7% | 11.3hPa | 2.6V | 03:34:00 | 02:15:24 | 00:00:00 | |
| DL1XH1-15 | 2026-08-31 12:32:30 | 49.87264 | 13.17974 | 127° | 2km/h | 30637m | 6.1m/s | -41.8°C | 2.7% | 11.4hPa | 2.6V | 03:34:56 | 02:15:21 | 00:00:00 | |
| AA1-15 | 2026-08-31 12:32:30 | 49.87261 | 13.17974 | 191° | 11km/h | 30649m | 4.7m/s | -41.8°C | 0% | 11.3hPa | 2.7V | 03:35:08 | 02:15:23 | 00:00:00 | |
| DF8AY | 2026-08-31 12:32:29 | 49.87263 | 13.17974 | 184° | 5km/h | 30643m | 6.2m/s | -41.8°C | 0% | 11.4hPa | 2.6V | 03:35:08 | 02:15:22 | 00:00:00 | |
| DL1XH-west | 2026-08-31 12:32:27 | 49.87263 | 13.17972 | 48° | 4km/h | 30626m | 4.9m/s | -41.8°C | 0% | 11.4hPa | 2.7V | 03:35:08 | 02:15:19 | 00:00:00 | |
| AA1-15 | 2026-08-31 12:32:20 | 49.87271 | 13.17970 | 177° | 5km/h | 30593m | 6m/s | -41.8°C | 0% | 11.4hPa | 2.7V | 03:35:08 | 02:15:13 | 00:00:00 | |
| DO3MHA-11 | 2026-08-31 12:32:19 | 49.87272 | 13.17970 | 143° | 9km/h | 30588m | 6.1m/s | -41.6°C | 2.6% | 11.4hPa | 2.6V | 03:35:00 | 02:15:12 | 00:00:00 | |
| DL1XH-15 | 2026-08-31 12:32:18 | 49.87271 | 13.17969 | 43° | 2km/h | 30577m | 4.3m/s | -41.7°C | 2.7% | 11.4hPa | 2.6V | 03:35:07 | 02:15:10 | 00:00:00 | |
| DL1XH-west | 2026-08-31 12:32:16 | 49.87271 | 13.17968 | 110° | 4km/h | 30572m | 4.7m/s | -41.8°C | 0% | 11.5hPa | 2.6V | 03:35:08 | 02:15:09 | 00:00:00 | |
| DF8AY | 2026-08-31 12:32:16 | 49.87272 | 13.17967 | 142° | 7km/h | 30567m | 6m/s | -41.9°C | 0% | 11.5hPa | 2.7V | 03:35:59 | 02:15:08 | 00:00:00 | |
| DL1XH1-15 | 2026-08-31 12:32:11 | 49.87288 | 13.17940 | 75° | 13km/h | 30526m | 4.8m/s | -41.7°C | 2.7% | 11.6hPa | 2.6V | 03:35:16 | 02:15:01 | 00:00:00 | |
| AA1-15 | 2026-08-31 12:32:09 | 49.87287 | 13.17940 | 75° | 13km/h | 30527m | 4.8m/s | -41.7°C | 0% | 11.6hPa | 2.6V | 03:35:59 | 02:15:01 | 00:00:00 | |
| DO3MHA-11 | 2026-08-31 12:32:09 | 49.87288 | 13.17944 | 91° | 15km/h | 30532m | 5.7m/s | -41.7°C | 2.7% | 11.5hPa | 2.7V | 00:00:00 | 02:15:02 | 00:00:00 | |
| DL1XH-15 | 2026-08-31 12:32:08 | 49.87287 | 13.17935 | 74° | 13km/h | 30522m | 4.8m/s | -41.7°C | 2.7% | 11.6hPa | 2.6V | 03:35:17 | 02:15:00 | 00:00:00 | |
| HSKMA3-T | 2026-08-31 12:32:06 | 49.87286 | 13.17930 | 86° | 13km/h | 30516m | 6.3m/s | -41.8°C | 0% | 11.6hPa | 2.7V | 03:35:59 | 02:14:59 | 00:00:00 | |
| PETON7-10 | 2026-08-31 12:32:06 | 49.87286 | 13.17930 | 87° | 16km/h | 30517m | 6.3m/s | -41.7°C | 2.7% | 11.5hPa | 2.7V | 00:00:00 | 00:00:00 | 00:00:00 | |
| NBG1-10 | 2026-08-31 12:32:05 | 49.87286 | 13.17925 | 106° | 20km/h | 30510m | 5.8m/s | -41.7°C | 2.7% | 11.6hPa | 2.7V | 00:00:00 | 02:14:58 | 00:00:00 | |
| DM0DOS-11 | 2026-08-31 12:32:04 | 49.87295 | 13.17900 | 110° | 16km/h | 30482m | 5.4m/s | -41.7°C | 2.7% | 11.6hPa | 2.7V | 03:35:24 | 02:14:53 | 00:00:00 | |
| DF8AY | 2026-08-31 12:32:02 | 49.87292 | 13.17911 | 121° | 15km/h | 30494m | 5.7m/s | -41.8°C | 0% | 11.6hPa | 2.6V | 03:35:59 | 02:14:55 | 00:00:00 | |
| DK5PH-5 | 2026-08-31 12:32:02 | 49.87292 | 13.17911 | 122° | 20km/h | 30494m | 5.6m/s | -41.7°C | 2.6% | 11.6hPa | 2.7V | 00:00:00 | 02:14:55 | 00:00:00 | |
| DL1XH1-15 | 2026-08-31 12:32:01 | 49.87299 | 13.17888 | 119° | 18km/h | 30472m | 5.2m/s | -41.7°C | 2.6% | 11.7hPa | 2.7V | 03:35:26 | 02:14:51 | 00:00:00 | |
| AA1-15 | 2026-08-31 12:32:00 | 49.87297 | 13.17894 | 112° | 16km/h | 30477m | 4.7m/s | -41.7°C | 0% | 11.7hPa | 2.7V | 03:35:59 | 02:14:52 | 00:00:00 | |
| SP3BTT-10 | 2026-08-31 12:32:00 | 49.87295 | 13.17900 | 111° | 26km/h | 30482m | 5.4m/s | -41.7°C | 2.7% | 11.6hPa | 2.6V | 00:00:00 | 00:00:00 | 00:00:00 | |
| DO3MHA-11 | 2026-08-31 12:31:59 | 49.87297 | 13.17894 | 112° | 18km/h | 30478m | 4.6m/s | -41.7°C | 2.7% | 11.6hPa | 2.6V | 00:00:00 | 02:14:52 | 00:00:00 | |
| DL1XH-15 | 2026-08-31 12:31:57 | 49.87301 | 13.17883 | 129° | 18km/h | 30466m | 6.1m/s | -41.6°C | 2.6% | 11.7hPa | 2.6V | 03:35:27 | 02:14:50 | 00:00:00 | |
| DL1XH-west | 2026-08-31 12:31:56 | 49.87304 | 13.17877 | 137° | 20km/h | 30460m | 5.8m/s | -41.6°C | 0% | 11.7hPa | 2.6V | 03:35:59 | 02:14:49 | 00:00:00 | |
| HSKMA3-T | 2026-08-31 12:31:55 | 49.87308 | 13.17872 | 138° | 20km/h | 30455m | 4.7m/s | -41.6°C | 0% | 11.7hPa | 2.6V | 03:35:59 | 02:14:48 | 00:00:00 | |
| DB0ND-19 | 2026-08-31 12:31:53 | 49.87314 | 13.17861 | 113° | 15km/h | 30446m | 5.0m/s | -41.6°C | 0.7% | 11.7hPa | 2.7V | 00:00:00 | 00:00:00 | 00:00:00 | |
| DL1XH-15 | 2026-08-31 12:31:52 | 49.87307 | 13.17818 | 98° | 26km/h | 30411m | 6.4m/s | -41.8°C | 2.6% | 11.8hPa | 2.7V | 03:35:37 | 02:14:40 | 00:00:00 | |
| DL1XH1-15 | 2026-08-31 12:31:51 | 49.87307 | 13.17828 | 80° | 24km/h | 30418m | 5.8m/s | -41.7°C | 2.6% | 11.7hPa | 2.7V | 03:35:36 | 02:14:41 | 00:00:00 | |
| DL9SK-14 | 2026-08-31 12:31:51 | 49.87311 | 13.17843 | 60° | 20km/h | 30428m | 4.9m/s | -41.9°C | 0.7% | 11.7hPa | 2.6V | 00:00:00 | 00:00:00 | 00:00:00 | |
| SONCRA | 2026-08-31 12:31:50 | 49.87309 | 13.17836 | 66° | 22km/h | 30423m | 4.7m/s | -41.8°C | 0.7% | 11.7hPa | 2.6V | 00:00:00 | 00:00:00 | 00:00:00 | |
| DM0DOS-11 | 2026-08-31 12:31:49 | 49.87309 | 13.17836 | 66° | 22km/h | 30423m | 4.7m/s | -41.8°C | 2.6% | 11.7hPa | 2.6V | 03:35:35 | 02:14:42 | 00:00:00 | |
| AA1-15 | 2026-08-31 12:31:48 | 49.87307 | 13.17828 | 80° | 24km/h | 30418m | 5.8m/s | -41.7°C | 0% | 11.7hPa | 2.7V | 03:35:59 | 02:14:41 | 00:00:00 | |
| DF8AY | 2026-08-31 12:31:47 | 49.87309 | 13.17809 | 113° | 27km/h | 30406m | 5.8m/s | -41.8°C | 0% | 11.8hPa | 2.7V | 03:35:59 | 02:14:39 | 00:00:00 | |
| HSKMA3-T | 2026-08-31 12:31:45 | 49.87312 | 13.17799 | 121° | 29km/h | 30400m | 5m/s | -41.9°C | 0% | 11.8hPa | 2.6V | 03:35:59 | 02:14:38 | 00:00:00 | |
| PG1ADW-2 | 2026-08-31 12:31:45 | 49.87312 | 13.17799 | 121° | 24km/h | 30400m | 4.9m/s | -41.9°C | 2.7% | 11.7hPa | 2.7V | 00:00:00 | 00:00:00 | 00:00:00 | |
| DM0DOS-11 | 2026-08-31 12:31:44 | 49.87323 | 13.17754 | 89° | 16km/h | 30366m | 6.4m/s | -41.9°C | 2.7% | 11.8hPa | 2.7V | 03:35:45 | 02:14:32 | 00:00:00 | |
| OE5DRO-10 | 2026-08-31 12:31:44 | 49.87319 | 13.17780 | 119° | 22km/h | 30389m | 6.2m/s | -41.9°C | 2.7% | 11.8hPa | 2.7V | 00:00:00 | 00:00:00 | 00:00:00 | |
| DL1XH1-15 | 2026-08-31 12:31:41 | 49.87323 | 13.17747 | 85° | 18km/h | 30360m | 5.9m/s | -41.8°C | 2.7% | 11.8hPa | 2.7V | 03:35:46 | 02:14:31 | 00:00:00 | |
| DL1XH-15 | 2026-08-31 12:31:40 | 49.87322 | 13.17740 | 76° | 18km/h | 30354m | 5.2m/s | -41.8°C | 0% | 11.9hPa | 2.7V | 03:35:47 | 02:14:30 | 00:00:00 | |
| AA1-15 | 2026-08-31 12:31:37 | 49.87322 | 13.17740 | 77° | 18km/h | 30354m | 5.2m/s | -41.8°C | 0% | 11.9hPa | 2.7V | 03:35:59 | 02:14:30 | 00:00:00 | |
| DL1XH-west | 2026-08-31 12:31:34 | 49.87314 | 13.17716 | 54° | 27km/h | 30337m | 6.3m/s | -41.9°C | 0% | 11.9hPa | 2.6V | 03:35:59 | 02:14:27 | 00:00:00 | |
| DL1XH1-15 | 2026-08-31 12:31:34 | 49.87310 | 13.17658 | 120° | 29km/h | 30303m | 5m/s | -41.7°C | 2.7% | 11.9hPa | 2.6V | 03:35:56 | 02:14:21 | 00:00:00 | |
| DK5PH-5 | 2026-08-31 12:31:32 | 49.87307 | 13.17699 | 67° | 20km/h | 30327m | 4.2m/s | -41.7°C | 2.7% | 11.9hPa | 2.7V | 00:00:00 | 02:14:25 | 00:00:00 | |
| DJ2DS-15 | 2026-08-31 12:31:31 | 49.87305 | 13.17689 | 81° | 22km/h | 30322m | 5.7m/s | -41.7°C | 2.7% | 11.9hPa | 2.7V | 00:00:00 | 02:14:24 | 00:00:00 | |
| EDDB2-12 | 2026-08-31 12:31:30 | 49.87305 | 13.17679 | 97° | 26km/h | 30316m | 7.1m/s | -41.8°C | 0.7% | 11.9hPa | 2.7V | 00:00:00 | 00:00:00 | 00:00:00 | |
| DO3MHA-11 | 2026-08-31 12:31:29 | 49.87307 | 13.17668 | 113° | 24km/h | 30309m | 6.2m/s | -41.7°C | 2.7% | 11.9hPa | 2.7V | 00:00:00 | 02:14:22 | 00:00:00 | |
| DL1XH-15 | 2026-08-31 12:31:27 | 49.87314 | 13.17649 | 120° | 26km/h | 30298m | 4.6m/s | 0°C | 0% | 0hPa | 2.7V | 03:35:57 | 02:14:20 | 00:00:00 | |
| AA1-15 | 2026-08-31 12:31:26 | 49.87316 | 13.17641 | 112° | 20km/h | 30293m | 6.1m/s | -41.7°C | 0% | 12hPa | 2.7V | 03:35:59 | 02:14:19 | 00:00:00 | |
| DL1XH-west | 2026-08-31 12:31:24 | 49.87316 | 13.17628 | 62° | 16km/h | 30281m | 5.5m/s | -41.6°C | 0% | 12hPa | 2.6V | 03:36:50 | 02:14:17 | 00:00:00 | |
| DL1XH-15 | 2026-08-31 12:31:22 | 49.87298 | 13.17570 | 76° | 26km/h | 30242m | 6m/s | 0°C | 0% | 0hPa | 2.6V | 00:00:00 | 02:14:10 | 00:00:00 | |
| DF8AY | 2026-08-31 12:31:19 | 49.87301 | 13.17590 | 72° | 27km/h | 30253m | 5.1m/s | -41.8°C | 0% | 12.1hPa | 2.7V | 03:36:50 | 02:14:12 | 00:00:00 | |
| AA1-15 | 2026-08-31 12:31:16 | 49.87295 | 13.17553 | 75° | 18km/h | 30230m | 5.7m/s | -41.9°C | 0% | 12.1hPa | 2.7V | 03:36:50 | 02:14:08 | 00:00:00 | |
| HSKMA3-T | 2026-08-31 12:31:14 | 49.87294 | 13.17547 | 81° | 13km/h | 30224m | 5.1m/s | -42°C | 0% | 12.1hPa | 2.6V | 03:36:50 | 02:14:07 | 00:00:00 | |
| DL1XH-west | 2026-08-31 12:31:13 | 49.87294 | 13.17542 | 101° | 11km/h | 30219m | 5.3m/s | -42°C | 0% | 12.1hPa | 2.6V | 03:36:50 | 02:14:06 | 00:00:00 | |
| DL1XH-15 | 2026-08-31 12:31:12 | 49.87305 | 13.17525 | 61° | 9km/h | 30188m | 5.6m/s | 0°C | 0% | 0hPa | 2.7V | 00:00:00 | 02:14:00 | 00:00:00 | |
| DF8AY | 2026-08-31 12:31:08 | 49.87305 | 13.17528 | 119° | 7km/h | 30193m | 4m/s | -42.2°C | 0% | 12.1hPa | 2.7V | 03:36:50 | 02:14:01 | 00:00:00 | |
| AA1-15 | 2026-08-31 12:31:05 | 49.87298 | 13.17518 | 29° | 26km/h | 30174m | 6.6m/s | -42.4°C | 0% | 12.2hPa | 2.6V | 03:36:50 | 02:13:58 | 00:00:00 | |
| HSKMA3-T | 2026-08-31 12:31:03 | 49.87286 | 13.17506 | 37° | 31km/h | 30164m | 4m/s | -42.3°C | 0% | 12.2hPa | 2.6V | 03:36:50 | 02:13:56 | 00:00:00 | |
| DL1XH-west | 2026-08-31 12:31:02 | 49.87280 | 13.17498 | 50° | 27km/h | 30160m | 5.1m/s | -42.3°C | 0% | 12.2hPa | 2.7V | 03:36:50 | 02:13:55 | 00:00:00 | |
| DK5PH-5 | 2026-08-31 12:31:02 | 49.87280 | 13.17498 | 50° | 24km/h | 30160m | 5.1m/s | -42.2°C | 2.7% | 12.2hPa | 2.6V | 03:36:00 | 02:13:55 | 00:00:00 | |
| OE5DXL-15 | 2026-08-31 12:31:01 | 49.87282 | 13.17462 | 128° | 27km/h | 30136m | 4.8m/s | -42.3°C | 2.7% | 12.2hPa | 2.6V | 00:00:00 | 00:00:00 | 00:00:00 | |
| DL1XH-15 | 2026-08-31 12:31:00 | 49.87289 | 13.17444 | 94° | 13km/h | 30120m | 5.3m/s | 0°C | 0% | 0hPa | 2.7V | 00:00:00 | 02:13:48 | 00:00:00 | |
| DF8AY | 2026-08-31 12:30:58 | 49.87288 | 13.17450 | 122° | 16km/h | 30125m | 5.8m/s | -42.4°C | 0% | 12.3hPa | 2.7V | 03:36:50 | 02:13:49 | 00:00:00 | |
| AA1-15 | 2026-08-31 12:30:54 | 49.87289 | 13.17440 | 64° | 15km/h | 30115m | 5m/s | -42.5°C | 0% | 12.3hPa | 2.7V | 03:36:50 | 02:13:47 | 00:00:00 | |
| DL1XH1-15 | 2026-08-31 12:30:53 | 49.87268 | 13.17389 | 65° | 33km/h | 30081m | 5m/s | -42.6°C | 2.7% | 12.4hPa | 2.7V | 03:36:36 | 02:13:41 | 00:00:00 | |
| HSKMA3-T | 2026-08-31 12:30:53 | 49.87286 | 13.17434 | 52° | 18km/h | 30110m | 5.2m/s | -42.5°C | 0% | 12.3hPa | 2.6V | 03:36:50 | 02:13:46 | 00:00:00 | |
| DL1XH-west | 2026-08-31 12:30:52 | 49.87283 | 13.17428 | 52° | 24km/h | 30104m | 6.4m/s | -42.6°C | 0% | 12.3hPa | 2.6V | 03:36:50 | 02:13:45 | 00:00:00 | |
| DL9SK-14 | 2026-08-31 12:30:49 | 49.87269 | 13.17389 | 65° | 31km/h | 30081m | 5.0m/s | -42.6°C | 0.7% | 12.4hPa | 2.6V | 00:00:00 | 00:00:00 | 00:00:00 | |
| SONCRA | 2026-08-31 12:30:48 | 49.87265 | 13.17377 | 63° | 31km/h | 30076m | 5.0m/s | -42.7°C | 0.7% | 12.4hPa | 2.6V | 00:00:00 | 00:00:00 | 00:00:00 | |
| OE5DRO-10 | 2026-08-31 12:30:47 | 49.87265 | 13.17377 | 64° | 26km/h | 30076m | 4.9m/s | -42.6°C | 2.7% | 12.3hPa | 2.6V | 00:00:00 | 00:00:00 | 00:00:00 | |
| DL1XH-15 | 2026-08-31 12:30:46 | 49.87253 | 13.17337 | 99° | 16km/h | 30048m | 6.4m/s | 0°C | 0% | 0hPa | 2.6V | 00:00:00 | 02:13:35 | 00:00:00 | |
| EDDB2-11 | 2026-08-31 12:30:45 | 49.87258 | 13.17358 | 58° | 26km/h | 30064m | 5.9m/s | -42.8°C | 0.7% | 12.4hPa | 2.6V | 00:00:00 | 00:00:00 | 00:00:00 | |
| AA1-15 | 2026-08-31 12:30:43 | 49.87253 | 13.17343 | 77° | 18km/h | 30054m | 4.9m/s | -42.9°C | 0% | 12.4hPa | 2.6V | 03:36:50 | 02:13:36 | 00:00:00 | |
| HSKMA3-T | 2026-08-31 12:30:42 | 49.87253 | 13.17337 | 99° | 16km/h | 30048m | 6.4m/s | -42.9°C | 0% | 12.4hPa | 2.6V | 03:36:50 | 02:13:35 | 00:00:00 | |
| DL1XH-west | 2026-08-31 12:30:41 | 49.87255 | 13.17330 | 119° | 18km/h | 30041m | 7.1m/s | -42.9°C | 0% | 12.4hPa | 2.7V | 03:36:50 | 02:13:34 | 00:00:00 | |
| DM0DOS-11 | 2026-08-31 12:30:40 | 49.87260 | 13.17317 | 120° | 20km/h | 30030m | 4.3m/s | -42.7°C | 2.8% | 12.4hPa | 2.6V | 03:36:45 | 02:13:32 | 00:00:00 | |
| DJTTGO | 2026-08-31 12:30:39 | 49.87260 | 13.17317 | 121° | 20km/h | 30030m | 4.3m/s | -42.7°C | 0.7% | 12.4hPa | 2.6V | 03:36:00 | 00:00:00 | 00:00:00 | |
| OE5MMP-10 | 2026-08-31 12:30:38 | 49.87262 | 13.17310 | 104° | 29km/h | 30026m | 4.8m/s | -42.6°C | 2.8% | 12.4hPa | 2.6V | 00:00:00 | 02:13:31 | 00:00:00 | |
| DM0DOS-11 | 2026-08-31 12:30:34 | 49.87233 | 13.17208 | 97° | 24km/h | 29970m | 5.6m/s | -43.2°C | 2.8% | 12.6hPa | 2.6V | 03:36:56 | 02:13:21 | 00:00:00 | |
| AA1-15 | 2026-08-31 12:30:33 | 49.87244 | 13.17265 | 50° | 37km/h | 29997m | 5.1m/s | -43.1°C | 0% | 12.5hPa | 2.6V | 03:37:41 | 02:13:26 | 00:00:00 | |
| DF8AY | 2026-08-31 12:30:32 | 49.87234 | 13.17199 | 97° | 18km/h | 29964m | 6.3m/s | -43.2°C | 0% | 12.6hPa | 2.6V | 03:38:32 | 02:13:20 | 00:00:00 | |
| HSKMA3-T | 2026-08-31 12:30:31 | 49.87235 | 13.17242 | 72° | 33km/h | 29986m | 5.6m/s | -42.9°C | 0% | 12.5hPa | 2.7V | 03:37:41 | 02:13:24 | 00:00:00 | |
| DL1XH-west | 2026-08-31 12:30:30 | 49.87233 | 13.17229 | 84° | 31km/h | 29980m | 5.1m/s | -43.1°C | 0% | 12.6hPa | 2.7V | 03:37:41 | 02:13:23 | 00:00:00 | |
| AA1-15 | 2026-08-31 12:30:22 | 49.87230 | 13.17183 | 48° | 7km/h | 29935m | 6.2m/s | -43.3°C | 0% | 12.6hPa | 2.6V | 03:37:41 | 02:13:15 | 00:00:00 | |
| DF8AY | 2026-08-31 12:30:21 | 49.87220 | 13.17164 | 47° | 26km/h | 29913m | 7m/s | -43.5°C | 0% | 12.7hPa | 2.7V | 03:38:32 | 02:13:11 | 00:00:00 | |
| DL1XH1-15 | 2026-08-31 12:30:20 | 49.87220 | 13.17164 | 46° | 26km/h | 29913m | 7m/s | -43.4°C | 2.8% | 12.7hPa | 2.7V | 03:37:06 | 02:13:11 | 00:00:00 | |
| DL1XH-west | 2026-08-31 12:30:20 | 49.87227 | 13.17176 | 57° | 16km/h | 29924m | 4.6m/s | -43.2°C | 0% | 12.7hPa | 2.6V | 03:37:41 | 02:13:13 | 00:00:00 | |
| AA1-15 | 2026-08-31 12:30:12 | 49.87206 | 13.17119 | 122° | 18km/h | 29879m | 5.5m/s | -43.5°C | 0% | 12.8hPa | 2.6V | 03:37:41 | 02:13:05 | 00:00:00 | |
| DM0DOS-11 | 2026-08-31 12:30:11 | 49.87214 | 13.17100 | 70° | 11km/h | 29857m | 5.8m/s | -43.5°C | 2.9% | 12.8hPa | 2.6V | 03:37:16 | 02:13:01 | 00:00:00 | |
| HSKMA3-T | 2026-08-31 12:30:10 | 49.87212 | 13.17108 | 130° | 15km/h | 29869m | 5.5m/s | -43.5°C | 0% | 12.8hPa | 2.7V | 03:37:41 | 02:13:03 | 00:00:00 | |
| DL1XH-west | 2026-08-31 12:30:10 | 49.87213 | 13.17104 | 109° | 11km/h | 29863m | 6.1m/s | -43.5°C | 0% | 12.8hPa | 2.7V | 03:37:41 | 02:13:02 | 00:00:00 | |
| AA1-15 | 2026-08-31 12:30:01 | 49.87197 | 13.17047 | 74° | 24km/h | 29817m | 5.7m/s | -43.7°C | 0% | 12.9hPa | 2.6V | 03:37:41 | 02:12:54 | 00:00:00 | |
| DF8AY | 2026-08-31 12:30:00 | 49.87173 | 13.16973 | 74° | 16km/h | 29733m | 5.7m/s | -44°C | 0% | 13hPa | 2.7V | 03:38:32 | 02:12:39 | 00:00:00 | |
| DM0DOS-11 | 2026-08-31 12:29:59 | 49.87193 | 13.17028 | 78° | 11km/h | 29800m | 5.2m/s | -43.8°C | 2.9% | 12.9hPa | 2.7V | 03:37:26 | 02:12:51 | 00:00:00 | |
| HSKMA3-T | 2026-08-31 12:29:59 | 49.87194 | 13.17032 | 70° | 15km/h | 29805m | 5.5m/s | -43.7°C | 0% | 12.9hPa | 2.7V | 03:37:41 | 02:12:52 | 00:00:00 | |
| DL1XH-west | 2026-08-31 12:29:58 | 49.87193 | 13.17028 | 78° | 11km/h | 29800m | 5.2m/s | -43.8°C | 0% | 12.9hPa | 2.7V | 03:37:41 | 02:12:51 | 00:00:00 | |
| SONDE2-11 | 2026-08-31 12:29:58 | 49.87193 | 13.17024 | 98° | 9km/h | 29795m | 6.0m/s | -43.8°C | 0.8% | 12.9hPa | 2.6V | 00:00:00 | 00:00:00 | 00:00:00 | |
| EDDB2-12 | 2026-08-31 12:29:57 | 49.87194 | 13.17020 | 119° | 9km/h | 29788m | 6.5m/s | -43.7°C | 0.8% | 12.9hPa | 2.6V | 00:00:00 | 00:00:00 | 00:00:00 | |
| DB0NH | 2026-08-31 12:29:55 | 49.87195 | 13.17016 | 124° | 15km/h | 29783m | 5.1m/s | -43.7°C | 2.9% | 12.9hPa | 2.6V | 00:00:00 | 02:12:48 | 00:00:00 | |
| DL1XH1-15 | 2026-08-31 12:29:54 | 49.87178 | 13.16985 | 40° | 22km/h | 29745m | 5.6m/s | -43.9°C | 2.9% | 13hPa | 2.7V | 03:37:36 | 02:12:41 | 00:00:00 | |
| AA1-15 | 2026-08-31 12:29:51 | 49.87192 | 13.16999 | 34° | 18km/h | 29760m | 6.5m/s | -43.9°C | 0% | 13hPa | 2.6V | 03:37:41 | 02:12:44 | 00:00:00 | |
| HSKMA3-T | 2026-08-31 12:29:48 | 49.87178 | 13.16985 | 40° | 22km/h | 29745m | 5.6m/s | -43.9°C | 0% | 13hPa | 2.7V | 03:37:41 | 02:12:41 | 00:00:00 | |
| DL1XH-west | 2026-08-31 12:29:48 | 49.87175 | 13.16979 | 56° | 18km/h | 29739m | 6.1m/s | -43.9°C | 0% | 13hPa | 2.7V | 03:37:41 | 02:12:40 | 00:00:00 | |
| DF8AY | 2026-08-31 12:29:46 | 49.87172 | 13.16967 | 90° | 15km/h | 29727m | 5.1m/s | -44°C | 0% | 13hPa | 2.6V | 03:38:32 | 02:12:38 | 00:00:00 | |
| SONCRA | 2026-08-31 12:29:46 | 49.87172 | 13.16967 | 90° | 15km/h | 29728m | 5.1m/s | -44.0°C | 0.8% | 13.0hPa | 2.6V | 00:00:00 | 00:00:00 | 00:00:00 | |
| PG1ADW-2 | 2026-08-31 12:29:45 | 49.87172 | 13.16967 | 91° | 13km/h | 29728m | 5.0m/s | -43.9°C | 2.9% | 13.0hPa | 2.6V | 00:00:00 | 00:00:00 | 00:00:00 | |
| ANDY1245 | 2026-08-31 12:29:44 | 49.87172 | 13.16967 | 91° | 15km/h | 29728m | 5.1m/s | -44.0°C | 0.8% | 13.0hPa | 2.6V | 00:00:00 | 00:00:00 | 00:00:00 | |
| EDDB2-11 | 2026-08-31 12:29:43 | 49.87173 | 13.16958 | 90° | 7km/h | 29718m | 5.6m/s | -43.9°C | 0.8% | 13.0hPa | 2.6V | 00:00:00 | 00:00:00 | 00:00:00 | |
| BAUMI2-15 | 2026-08-31 12:29:42 | 49.87172 | 13.16956 | 45° | 7km/h | 29712m | 6.0m/s | 0°C | 0% | 0hPa | 2.6V | 00:00:00 | 02:12:35 | 00:00:00 | |
| DL1XH1-15 | 2026-08-31 12:29:40 | 49.87163 | 13.16955 | 27° | 11km/h | 29689m | 6.2m/s | -44°C | 2.8% | 13.1hPa | 2.6V | 03:37:46 | 02:12:31 | 00:00:00 | |
| AA1-15 | 2026-08-31 12:29:40 | 49.87168 | 13.16956 | 354° | 11km/h | 29700m | 5.4m/s | -44°C | 0% | 13.1hPa | 2.7V | 03:38:32 | 02:12:33 | 00:00:00 | |
| HSKMA3-T | 2026-08-31 12:29:38 | 49.87163 | 13.16955 | 28° | 11km/h | 29689m | 6.2m/s | -44°C | 0% | 13.1hPa | 2.6V | 03:38:32 | 02:12:31 | 00:00:00 | |
| DL1XH-west | 2026-08-31 12:29:37 | 49.87159 | 13.16946 | 70° | 18km/h | 29677m | 5.3m/s | -44.1°C | 0% | 13.1hPa | 2.7V | 03:38:32 | 02:12:29 | 00:00:00 | |
| DF8AY | 2026-08-31 12:29:35 | 49.87142 | 13.16900 | 24° | 4km/h | 29631m | 5.6m/s | -44.3°C | 0% | 13.2hPa | 2.7V | 03:38:32 | 02:12:21 | 00:00:00 | |
| AA1-15 | 2026-08-31 12:29:29 | 49.87143 | 13.16902 | 59° | 7km/h | 29637m | 5.9m/s | -44.3°C | 0% | 13.2hPa | 2.7V | 03:38:32 | 02:12:22 | 00:00:00 | |
| HSKMA3-T | 2026-08-31 12:29:27 | 49.87141 | 13.16900 | 331° | 5km/h | 29626m | 5.7m/s | -44.4°C | 0.1% | 13.2hPa | 2.6V | 03:38:32 | 02:12:20 | 00:00:00 | |
| DL1XH-west | 2026-08-31 12:29:25 | 49.87136 | 13.16904 | 335° | 13km/h | 29613m | 5.3m/s | -44.4°C | 0% | 13.3hPa | 2.7V | 03:38:32 | 02:12:18 | 00:00:00 | |
| AA1-15 | 2026-08-31 12:29:18 | 49.87116 | 13.16867 | 64° | 27km/h | 29576m | 4.8m/s | -44.6°C | 0% | 13.3hPa | 2.7V | 03:38:32 | 02:12:11 | 00:00:00 | |
| DF8AY | 2026-08-31 12:29:18 | 49.87097 | 13.16858 | 288° | 9km/h | 29542m | 6m/s | -44.7°C | 0.1% | 13.4hPa | 2.7V | 03:38:32 | 02:12:05 | 00:00:00 | |
| HSKMA3-T | 2026-08-31 12:29:17 | 49.87112 | 13.16858 | 50° | 24km/h | 29571m | 6.1m/s | -44.7°C | 0.1% | 13.4hPa | 2.7V | 03:38:32 | 02:12:10 | 00:00:00 | |
| DL1XH-west | 2026-08-31 12:29:14 | 49.87101 | 13.16852 | 337° | 13km/h | 29553m | 5.3m/s | -44.7°C | 0.1% | 13.4hPa | 2.6V | 03:38:32 | 02:12:07 | 00:00:00 | |
| EDDB2-11 | 2026-08-31 12:29:13 | 49.87097 | 13.16858 | 288° | 7km/h | 29542m | 6.0m/s | -44.7°C | 0.8% | 13.4hPa | 2.7V | 00:00:00 | 00:00:00 | 00:00:00 | |
| OE5DRO-10 | 2026-08-31 12:29:12 | 49.87097 | 13.16858 | 289° | 13km/h | 29542m | 5.9m/s | -44.6°C | 3.1% | 13.3hPa | 2.7V | 00:00:00 | 00:00:00 | 00:00:00 | |
| DJ2DS-15 | 2026-08-31 12:29:11 | 49.87097 | 13.16860 | 261° | 11km/h | 29536m | 4.9m/s | -44.5°C | 3.0% | 13.4hPa | 2.6V | 00:00:00 | 02:12:04 | 00:00:00 | |
| DL1XH1-15 | 2026-08-31 12:29:09 | 49.87095 | 13.16859 | 44° | 11km/h | 29520m | 6.3m/s | -44.5°C | 3% | 13.4hPa | 2.6V | 03:38:16 | 02:12:01 | 00:00:00 | |
| AA1-15 | 2026-08-31 12:29:07 | 49.87093 | 13.16855 | 46° | 16km/h | 29514m | 5.9m/s | -44.6°C | 0.1% | 13.5hPa | 2.7V | 03:38:32 | 02:12:00 | 00:00:00 | |
| HSKMA3-T | 2026-08-31 12:29:06 | 49.87090 | 13.16850 | 52° | 22km/h | 29509m | 5.3m/s | -44.6°C | 0.1% | 13.5hPa | 2.7V | 03:38:32 | 02:11:59 | 00:00:00 | |
| DF8AY | 2026-08-31 12:29:04 | 49.87081 | 13.16819 | 77° | 16km/h | 29486m | 4.7m/s | -44.5°C | 0.1% | 13.5hPa | 2.6V | 03:38:32 | 02:11:55 | 00:00:00 | |
| DL1XH-west | 2026-08-31 12:29:03 | 49.87082 | 13.16826 | 75° | 22km/h | 29491m | 5.4m/s | -44.6°C | 0.1% | 13.5hPa | 2.6V | 03:38:32 | 02:11:56 | 00:00:00 | |
| AA1-15 | 2026-08-31 12:28:56 | 49.87068 | 13.16815 | 314° | 9km/h | 29453m | 5.4m/s | -44.5°C | 0.1% | 13.6hPa | 2.6V | 03:38:32 | 02:11:49 | 00:00:00 | |
| DL1XH-west | 2026-08-31 12:28:53 | 49.87067 | 13.16818 | 118° | 5km/h | 29436m | 4.7m/s | -44.5°C | 0.1% | 13.6hPa | 2.7V | 03:38:32 | 02:11:46 | 00:00:00 | |
| DF8AY | 2026-08-31 12:28:52 | 49.87065 | 13.16806 | 48° | 18km/h | 29420m | 6.7m/s | -44.5°C | 0% | 13.7hPa | 2.6V | 03:39:23 | 02:11:43 | 00:00:00 | |
| DM0DOS-11 | 2026-08-31 12:28:51 | 49.87047 | 13.16788 | 29° | 16km/h | 29398m | 6.1m/s | -44.5°C | 3% | 13.7hPa | 2.6V | 03:38:38 | 02:11:39 | 00:00:00 | |
| DL1XH1-15 | 2026-08-31 12:28:51 | 49.87056 | 13.16796 | 30° | 24km/h | 29408m | 5m/s | -44.4°C | 2.9% | 13.7hPa | 2.7V | 03:38:36 | 02:11:41 | 00:00:00 | |
| HSKMA3-T | 2026-08-31 12:28:46 | 49.87047 | 13.16788 | 29° | 16km/h | 29398m | 6.1m/s | -44.5°C | 0.1% | 13.7hPa | 2.6V | 03:39:23 | 02:11:39 | 00:00:00 | |
| AA1-15 | 2026-08-31 12:28:45 | 49.87044 | 13.16785 | 31° | 11km/h | 29392m | 5.6m/s | -44.4°C | 0% | 13.7hPa | 2.6V | 03:39:23 | 02:11:38 | 00:00:00 | |
| PG1ADW-2 | 2026-08-31 12:28:45 | 49.87044 | 13.16785 | 31° | 11km/h | 29392m | 5.6m/s | -44.4°C | 2.9% | 13.7hPa | 2.6V | 00:00:00 | 02:11:38 | 00:00:00 | |
| ANDY1245 | 2026-08-31 12:28:44 | 49.87044 | 13.16785 | 32° | 11km/h | 29392m | 5.6m/s | -44.4°C | 0.8% | 13.7hPa | 2.6V | 03:39:00 | 00:00:00 | 00:00:00 | |
| DL1XH1-15 | 2026-08-31 12:28:43 | 49.87030 | 13.16783 | 40° | 11km/h | 29353m | 5.6m/s | -44.4°C | 2.9% | 13.8hPa | 2.6V | 03:38:46 | 02:11:31 | 00:00:00 | |
| DL1XH-west | 2026-08-31 12:28:43 | 49.87039 | 13.16784 | 340° | 7km/h | 29376m | 6.3m/s | -44.4°C | 0.1% | 13.8hPa | 2.6V | 03:39:23 | 02:11:35 | 00:00:00 | |
| DF8AY | 2026-08-31 12:28:41 | 49.87035 | 13.16786 | 357° | 11km/h | 29364m | 5.4m/s | -44.3°C | 0% | 13.8hPa | 2.7V | 03:39:23 | 02:11:33 | 00:00:00 | |
| EDDB2-11 | 2026-08-31 12:28:41 | 49.87037 | 13.16785 | 342° | 9km/h | 29370m | 6.5m/s | -44.4°C | 0.8% | 13.8hPa | 2.7V | 00:00:00 | 00:00:00 | 00:00:00 | |
| DM0DOS-11 | 2026-08-31 12:28:39 | 49.87027 | 13.16775 | 78° | 15km/h | 29341m | 5.3m/s | -44.5°C | 3% | 13.8hPa | 2.7V | 03:38:48 | 02:11:29 | 00:00:00 | |
| HSKMA3-T | 2026-08-31 12:28:36 | 49.87027 | 13.16775 | 78° | 15km/h | 29341m | 5.3m/s | -44.5°C | 0% | 13.8hPa | 2.7V | 03:39:23 | 02:11:29 | 00:00:00 | |
| AA1-15 | 2026-08-31 12:28:35 | 49.87026 | 13.16770 | 76° | 15km/h | 29336m | 4.2m/s | -44.4°C | 0% | 13.8hPa | 2.7V | 03:39:23 | 02:11:28 | 00:00:00 | |
| DL1XH-west | 2026-08-31 12:28:31 | 49.87015 | 13.16756 | 7° | 18km/h | 29314m | 5.5m/s | -44.7°C | 0.1% | 13.9hPa | 2.7V | 03:39:23 | 02:11:24 | 00:00:00 | |
| DJ2DS-15 | 2026-08-31 12:28:31 | 49.87015 | 13.16756 | 7° | 15km/h | 29314m | 5.5m/s | -44.7°C | 3.0% | 13.8hPa | 2.6V | 03:38:00 | 02:11:24 | 00:00:00 | |
| DL1XH1-15 | 2026-08-31 12:28:30 | 49.87003 | 13.16755 | 10° | 11km/h | 29298m | 6.4m/s | -44.8°C | 3% | 13.9hPa | 2.6V | 03:38:56 | 02:11:21 | 00:00:00 | |
| DF8AY | 2026-08-31 12:28:30 | 49.87006 | 13.16756 | 3° | 16km/h | 29304m | 5.9m/s | -44.7°C | 0.1% | 13.9hPa | 2.6V | 03:39:23 | 02:11:22 | 00:00:00 | |
| DO3MHA-11 | 2026-08-31 12:28:29 | 49.87006 | 13.16756 | 3° | 11km/h | 29304m | 5.8m/s | -44.7°C | 3.0% | 13.8hPa | 2.7V | 00:00:00 | 02:11:22 | 00:00:00 | |
| OE5MMP-10 | 2026-08-31 12:28:28 | 49.87003 | 13.16755 | 11° | 9km/h | 29298m | 6.3m/s | -44.7°C | 3.0% | 13.9hPa | 2.7V | 03:38:00 | 02:11:21 | 00:00:00 | |
| DM0DOS-11 | 2026-08-31 12:28:27 | 49.86999 | 13.16753 | 36° | 5km/h | 29286m | 5.1m/s | -44.8°C | 3% | 13.9hPa | 2.7V | 03:38:58 | 02:11:19 | 00:00:00 | |
| HSKMA3-T | 2026-08-31 12:28:25 | 49.86998 | 13.16752 | 25° | 5km/h | 29281m | 5.3m/s | -44.7°C | 0.1% | 13.9hPa | 2.7V | 03:39:23 | 02:11:18 | 00:00:00 | |
| AA1-15 | 2026-08-31 12:28:24 | 49.86996 | 13.16751 | 3° | 5km/h | 29275m | 6.5m/s | -44.8°C | 0.1% | 14hPa | 2.7V | 03:39:23 | 02:11:17 | 00:00:00 | |
| EDDB2-12 | 2026-08-31 12:28:24 | 49.86994 | 13.16751 | 350° | 9km/h | 29269m | 6.1m/s | -44.8°C | 0.8% | 14.0hPa | 2.7V | 00:00:00 | 00:00:00 | 00:00:00 | |
| DL1XH1-15 | 2026-08-31 12:28:23 | 49.86979 | 13.16750 | 29° | 11km/h | 29239m | 5.6m/s | -44.8°C | 3% | 14hPa | 2.7V | 03:39:06 | 02:11:11 | 00:00:00 | |
| DL1XH-west | 2026-08-31 12:28:21 | 49.86988 | 13.16753 | 355° | 15km/h | 29257m | 5.7m/s | -44.8°C | 0.1% | 14hPa | 2.6V | 03:39:23 | 02:11:14 | 00:00:00 | |
| DF8AY | 2026-08-31 12:28:19 | 49.86979 | 13.16750 | 29° | 11km/h | 29239m | 5.6m/s | -44.8°C | 0% | 14hPa | 2.7V | 03:39:23 | 02:11:11 | 00:00:00 | |
| HSKMA3-T | 2026-08-31 12:28:15 | 49.86970 | 13.16747 | 357° | 15km/h | 29223m | 6.8m/s | -44.8°C | 0.1% | 14.1hPa | 2.6V | 03:39:23 | 02:11:08 | 00:00:00 | |
| AA1-15 | 2026-08-31 12:28:14 | 49.86966 | 13.16748 | 348° | 18km/h | 29216m | 6m/s | -44.7°C | 0.1% | 14.1hPa | 2.7V | 03:39:23 | 02:11:07 | 00:00:00 | |
| DL1XH-west | 2026-08-31 12:28:11 | 49.86954 | 13.16751 | 5° | 13km/h | 29200m | 6.7m/s | -44.7°C | 0% | 14.1hPa | 2.6V | 03:39:23 | 02:11:04 | 00:00:00 | |
| DF8AY | 2026-08-31 12:28:08 | 49.86944 | 13.16739 | 40° | 13km/h | 29178m | 5.6m/s | -44.8°C | 0% | 14.2hPa | 2.7V | 03:39:23 | 02:11:00 | 00:00:00 | |
| HSKMA3-T | 2026-08-31 12:28:04 | 49.86933 | 13.16735 | 355° | 18km/h | 29160m | 5.1m/s | -44.8°C | 0.1% | 14.2hPa | 2.6V | 03:39:23 | 02:10:57 | 00:00:00 | |
| AA1-15 | 2026-08-31 12:28:03 | 49.86929 | 13.16736 | 353° | 15km/h | 29155m | 4.6m/s | -44.9°C | 0% | 14.2hPa | 2.6V | 03:39:23 | 02:10:56 | 00:00:00 | |
| DL1XH-west | 2026-08-31 12:28:00 | 49.86922 | 13.16733 | 58° | 9km/h | 29138m | 6m/s | -45.1°C | 0% | 14.2hPa | 2.7V | 03:40:14 | 02:10:53 | 00:00:00 | |
| DO3MHA-11 | 2026-08-31 12:27:59 | 49.86920 | 13.16730 | 61° | 9km/h | 29132m | 5.7m/s | -45.1°C | 3.0% | 14.2hPa | 2.7V | 00:00:00 | 02:10:52 | 00:00:00 | |
| OE5MMP-10 | 2026-08-31 12:27:58 | 49.86919 | 13.16726 | 56° | 9km/h | 29126m | 6.3m/s | -45.2°C | 3.0% | 14.2hPa | 2.7V | 00:00:00 | 02:10:51 | 00:00:00 | |
| DM0DOS-11 | 2026-08-31 12:27:57 | 49.86914 | 13.16718 | 35° | 15km/h | 29113m | 5.3m/s | -45.2°C | 3% | 14.3hPa | 2.7V | 03:39:28 | 02:10:49 | 00:00:00 | |
| DF8AY | 2026-08-31 12:27:55 | 49.86911 | 13.16715 | 35° | 13km/h | 29108m | 4.7m/s | -45.3°C | 0.1% | 14.3hPa | 2.7V | 03:41:05 | 02:10:48 | 00:00:00 | |
| HSKMA3-T | 2026-08-31 12:27:53 | 49.86907 | 13.16711 | 54° | 5km/h | 29096m | 6.6m/s | -45.4°C | 0.1% | 14.3hPa | 2.6V | 03:40:14 | 02:10:46 | 00:00:00 | |
| AA1-15 | 2026-08-31 12:27:52 | 49.86907 | 13.16710 | 90° | 2km/h | 29090m | 5.8m/s | -45.5°C | 0.1% | 14.3hPa | 2.6V | 03:40:14 | 02:10:45 | 00:00:00 | |
| DL1XH-west | 2026-08-31 12:27:50 | 49.86907 | 13.16710 | 301° | 4km/h | 29079m | 6.1m/s | -45.5°C | 0.1% | 14.4hPa | 2.7V | 03:40:14 | 02:10:43 | 00:00:00 | |
| DO3MHA-11 | 2026-08-31 12:27:49 | 49.86906 | 13.16712 | 321° | 11km/h | 29072m | 6.5m/s | -45.5°C | 3.1% | 14.3hPa | 2.7V | 00:00:00 | 02:10:42 | 00:00:00 | |
| OE5MMP-10 | 2026-08-31 12:27:48 | 49.86904 | 13.16714 | 331° | 13km/h | 29067m | 5.0m/s | -45.5°C | 3.1% | 14.4hPa | 2.7V | 03:39:00 | 02:10:41 | 00:00:00 | |
| DM0DOS-11 | 2026-08-31 12:27:47 | 49.86899 | 13.16716 | 359° | 9km/h | 29057m | 4.8m/s | -45.6°C | 3.1% | 14.4hPa | 2.6V | 03:39:38 | 02:10:39 | 00:00:00 | |
| HSKMA3-T | 2026-08-31 12:27:44 | 49.86896 | 13.16709 | 97° | 13km/h | 29039m | 5.9m/s | -45.7°C | 0.1% | 14.5hPa | 2.7V | 03:40:14 | 02:10:36 | 00:00:00 | |
| AA1-15 | 2026-08-31 12:27:42 | 49.86897 | 13.16703 | 93° | 15km/h | 29033m | 5.3m/s | -45.7°C | 0.2% | 14.5hPa | 2.7V | 03:40:14 | 02:10:35 | 00:00:00 | |
| DL1XH-west | 2026-08-31 12:27:39 | 49.86894 | 13.16687 | 48° | 15km/h | 29016m | 5.9m/s | -45.8°C | 0.1% | 14.5hPa | 2.6V | 03:40:14 | 02:10:32 | 00:00:00 | |
| DO3MHA-11 | 2026-08-31 12:27:39 | 49.86893 | 13.16687 | 49° | 7km/h | 29016m | 5.9m/s | -45.8°C | 3.1% | 14.5hPa | 2.6V | 03:39:00 | 02:10:32 | 00:00:00 | |
| OE5MMP-10 | 2026-08-31 12:27:38 | 49.86891 | 13.16684 | 33° | 7km/h | 29011m | 4.9m/s | -45.8°C | 3.1% | 14.5hPa | 2.7V | 00:00:00 | 02:10:31 | 00:00:00 | |
| DM0DOS-11 | 2026-08-31 12:27:37 | 49.86886 | 13.16680 | 25° | 7km/h | 29000m | 6m/s | -46°C | 3.2% | 14.6hPa | 2.7V | 03:39:48 | 02:10:29 | 00:00:00 | |
| DF8AY | 2026-08-31 12:27:34 | 49.86885 | 13.16678 | 164° | 2km/h | 28987m | 5.9m/s | -46.1°C | 0.2% | 14.6hPa | 2.6V | 03:41:05 | 02:10:27 | 00:00:00 | |
| AA1-15 | 2026-08-31 12:27:32 | 49.86886 | 13.16679 | 265° | 2km/h | 28976m | 5.7m/s | -46.1°C | 0.2% | 14.6hPa | 2.7V | 03:40:14 | 02:10:25 | 00:00:00 | |
| DM0DOS-11 | 2026-08-31 12:27:32 | 49.86874 | 13.16668 | 61° | 20km/h | 28939m | 6.1m/s | -46.1°C | 3.2% | 14.7hPa | 2.7V | 03:39:58 | 02:10:19 | 00:00:00 | |
| DL1XH-west | 2026-08-31 12:27:28 | 49.86876 | 13.16674 | 52° | 16km/h | 28946m | 7.3m/s | -46.1°C | 0.2% | 14.7hPa | 2.6V | 03:40:14 | 02:10:20 | 00:00:00 | |
| DF8AY | 2026-08-31 12:27:24 | 49.86865 | 13.16646 | 46° | 20km/h | 28922m | 6.5m/s | -46.2°C | 0.2% | 14.7hPa | 2.6V | 03:41:05 | 02:10:16 | 00:00:00 | |
| AA1-15 | 2026-08-31 12:27:22 | 49.86862 | 13.16642 | 33° | 18km/h | 28915m | 5.8m/s | -46.2°C | 0.3% | 14.8hPa | 2.6V | 03:40:14 | 02:10:15 | 00:00:00 | |
| DL1XH-west | 2026-08-31 12:27:16 | 49.86857 | 13.16635 | 157° | 9km/h | 28880m | 5.3m/s | -46.2°C | 0.2% | 14.8hPa | 2.6V | 03:40:14 | 02:10:09 | 00:00:00 | |
| DF8AY | 2026-08-31 12:27:13 | 49.86856 | 13.16627 | 37° | 15km/h | 28856m | 5.5m/s | -46.3°C | 0.2% | 14.9hPa | 2.7V | 03:41:05 | 02:10:05 | 00:00:00 | |
| AA1-15 | 2026-08-31 12:27:11 | 49.86853 | 13.16623 | 44° | 18km/h | 28851m | 5.6m/s | -46.3°C | 0.3% | 14.9hPa | 2.6V | 03:40:14 | 02:10:04 | 00:00:00 | |
| DL9SK-14 | 2026-08-31 12:27:11 | 49.86853 | 13.16623 | 43° | 16km/h | 28851m | 5.6m/s | -46.3°C | 0.9% | 14.9hPa | 2.7V | 00:00:00 | 00:00:00 | 00:00:00 | |
| DL1XH1-15 | 2026-08-31 12:27:10 | 49.86845 | 13.16603 | 69° | 18km/h | 28832m | 5.3m/s | -46.4°C | 3.3% | 14.9hPa | 2.7V | 03:40:16 | 02:10:01 | 00:00:00 | |
| DL1XH-west | 2026-08-31 12:27:05 | 49.86842 | 13.16590 | 55° | 4km/h | 28815m | 6.4m/s | -46.4°C | 0.3% | 15hPa | 2.6V | 03:41:05 | 02:09:58 | 00:00:00 | |
| PG1ADW-2 | 2026-08-31 12:27:05 | 49.86842 | 13.16590 | 55° | 15km/h | 28815m | 6.4m/s | -46.3°C | 3.2% | 14.9hPa | 2.6V | 00:00:00 | 00:00:00 | 00:00:00 | |
| DL1XH1-15 | 2026-08-31 12:27:03 | 49.86855 | 13.16587 | 129° | 11km/h | 28774m | 6.5m/s | -46.4°C | 3.2% | 15.1hPa | 2.6V | 03:40:26 | 02:09:51 | 00:00:00 | |
| DF8AY | 2026-08-31 12:27:02 | 49.86844 | 13.16593 | 199° | 9km/h | 28798m | 6.6m/s | -46.4°C | 0.2% | 15hPa | 2.7V | 03:41:05 | 02:09:55 | 00:00:00 | |
| HSKMA3-T | 2026-08-31 12:27:01 | 49.86847 | 13.16593 | 178° | 11km/h | 28791m | 6.9m/s | -46.4°C | 0.2% | 15hPa | 2.7V | 03:41:05 | 02:09:54 | 00:00:00 | |
| AA1-15 | 2026-08-31 12:27:00 | 49.86850 | 13.16592 | 160° | 15km/h | 28785m | 5.9m/s | -46.4°C | 0.3% | 15hPa | 2.7V | 03:41:05 | 02:09:53 | 00:00:00 | |
| DL1XH-west | 2026-08-31 12:26:55 | 49.86856 | 13.16563 | 87° | 22km/h | 28750m | 6.7m/s | -46.5°C | 0.2% | 15.1hPa | 2.7V | 03:41:05 | 02:09:47 | 00:00:00 | |
| SONDE2-11 | 2026-08-31 12:26:51 | 49.86858 | 13.16539 | 117° | 15km/h | 28734m | 4.4m/s | -46.6°C | 0.9% | 15.2hPa | 2.7V | 00:00:00 | 00:00:00 | 00:00:00 | |
| DF8AY | 2026-08-31 12:26:51 | 49.86858 | 13.16539 | 117° | 16km/h | 28734m | 4.4m/s | -46.6°C | 0.2% | 15.2hPa | 2.6V | 03:41:05 | 02:09:44 | 00:00:00 | |
| DL1XH1-15 | 2026-08-31 12:26:50 | 49.86866 | 13.16535 | 208° | 18km/h | 28715m | 5.9m/s | -46.5°C | 3.3% | 15.2hPa | 2.7V | 03:40:36 | 02:09:41 | 00:00:00 | |
| HSKMA3-T | 2026-08-31 12:26:50 | 49.86860 | 13.16535 | 142° | 11km/h | 28729m | 6.7m/s | -46.6°C | 0.3% | 15.2hPa | 2.7V | 03:41:05 | 02:09:43 | 00:00:00 | |
| DM0DOS-11 | 2026-08-31 12:26:50 | 49.86882 | 13.16543 | 177° | 26km/h | 28700m | 6.2m/s | -46.5°C | 3.3% | 15.2hPa | 2.6V | 03:40:39 | 02:09:38 | 00:00:00 | |
| AA1-15 | 2026-08-31 12:26:49 | 49.86863 | 13.16534 | 188° | 11km/h | 28722m | 7.1m/s | -46.6°C | 0.3% | 15.2hPa | 2.7V | 03:41:05 | 02:09:42 | 00:00:00 | |
| DL1XH-west | 2026-08-31 12:26:44 | 49.86888 | 13.16541 | 155° | 29km/h | 28694m | 6.4m/s | -46.5°C | 0.3% | 15.2hPa | 2.7V | 03:41:05 | 02:09:37 | 00:00:00 | |
| DL1XH1-15 | 2026-08-31 12:26:43 | 49.86909 | 13.16479 | 105° | 20km/h | 28659m | 4.8m/s | -46.4°C | 3.2% | 15.3hPa | 2.7V | 03:40:46 | 02:09:31 | 00:00:00 | |
| DF8AY | 2026-08-31 12:26:40 | 49.86906 | 13.16499 | 104° | 31km/h | 28670m | 6.1m/s | -46.4°C | 0.2% | 15.3hPa | 2.6V | 03:41:05 | 02:09:33 | 00:00:00 | |
| DM0DOS-11 | 2026-08-31 12:26:40 | 49.86918 | 13.16465 | 159° | 22km/h | 28642m | 6.8m/s | -46.4°C | 3.3% | 15.4hPa | 2.6V | 03:40:49 | 02:09:28 | 00:00:00 | |
| HSKMA3-T | 2026-08-31 12:26:39 | 49.86908 | 13.16488 | 99° | 26km/h | 28664m | 5.4m/s | -46.5°C | 0.3% | 15.3hPa | 2.6V | 03:41:05 | 02:09:32 | 00:00:00 | |
| AA1-15 | 2026-08-31 12:26:39 | 49.86909 | 13.16479 | 105° | 20km/h | 28659m | 4.8m/s | -46.4°C | 0.2% | 15.3hPa | 2.7V | 03:41:05 | 02:09:31 | 00:00:00 | |
| DL1XH-west | 2026-08-31 12:26:33 | 49.86932 | 13.16459 | 163° | 31km/h | 28630m | 5.4m/s | -46.4°C | 0.2% | 15.4hPa | 2.6V | 03:41:05 | 02:09:26 | 00:00:00 | |
| DK5PH-5 | 2026-08-31 12:26:32 | 49.86939 | 13.16455 | 161° | 18km/h | 28625m | 5.1m/s | -46.3°C | 3.2% | 15.4hPa | 2.7V | 00:00:00 | 02:09:25 | 00:00:00 | |
| OE5DXL-15 | 2026-08-31 12:26:31 | 49.86946 | 13.16451 | 158° | 16km/h | 28620m | 5.4m/s | -46.3°C | 3.3% | 15.4hPa | 2.7V | 00:00:00 | 00:00:00 | 00:00:00 | |
| DL1XH1-15 | 2026-08-31 12:26:30 | 49.86958 | 13.16437 | 119° | 18km/h | 28602m | 5.5m/s | -46.3°C | 3.2% | 15.5hPa | 2.6V | 03:40:56 | 02:09:21 | 00:00:00 | |
| HSKMA3-T | 2026-08-31 12:26:29 | 49.86967 | 13.16406 | 117° | 26km/h | 28578m | 5m/s | -46.3°C | 0.3% | 15.5hPa | 2.7V | 03:41:05 | 02:09:17 | 00:00:00 | |
| AA1-15 | 2026-08-31 12:26:28 | 49.86962 | 13.16423 | 113° | 24km/h | 28590m | 6.8m/s | -46.4°C | 0.3% | 15.5hPa | 2.7V | 03:41:05 | 02:09:19 | 00:00:00 | |
| OE5MMP-10 | 2026-08-31 12:26:28 | 49.86958 | 13.16437 | 120° | 20km/h | 28602m | 5.4m/s | -46.2°C | 3.2% | 15.4hPa | 2.7V | 03:40:00 | 02:09:21 | 00:00:00 | |
| ANDY1245 | 2026-08-31 12:26:27 | 49.86960 | 13.16431 | 113° | 20km/h | 28596m | 5.6m/s | -46.3°C | 0.9% | 15.5hPa | 2.7V | 00:00:00 | 00:00:00 | 00:00:00 | |
| PG1ADW-2 | 2026-08-31 12:26:26 | 49.86964 | 13.16414 | 116° | 16km/h | 28584m | 5.5m/s | -46.2°C | 3.2% | 15.5hPa | 2.7V | 00:00:00 | 00:00:00 | 00:00:00 | |
| DF7PN | 2026-08-31 12:26:25 | 49.86967 | 13.16406 | 116° | 24km/h | 28579m | 5.0m/s | 0°C | -1.0% | -1.0hPa | 2.7V | 00:00:00 | 00:00:00 | 00:00:00 | |
| DL1XH1-15 | 2026-08-31 12:26:23 | 49.86982 | 13.16373 | 147° | 16km/h | 28545m | 6.4m/s | -46.4°C | 3.3% | 15.6hPa | 2.7V | 03:41:06 | 02:09:11 | 00:00:00 | |
| DL1XH-west | 2026-08-31 12:26:23 | 49.86970 | 13.16397 | 119° | 24km/h | 28573m | 5.3m/s | -46.4°C | 0.2% | 15.5hPa | 2.6V | 03:41:05 | 02:09:16 | 00:00:00 | |
| PETON7-10 | 2026-08-31 12:26:23 | 49.86970 | 13.16397 | 119° | 16km/h | 28573m | 5.2m/s | -46.3°C | 3.3% | 15.5hPa | 2.6V | 00:00:00 | 00:00:00 | 00:00:00 | |
| DB0NH | 2026-08-31 12:26:22 | 49.86972 | 13.16390 | 118° | 16km/h | 28568m | 6.8m/s | -46.3°C | 3.3% | 15.5hPa | 2.6V | 00:00:00 | 02:09:15 | 00:00:00 | |
| OE5DRO-10 | 2026-08-31 12:26:21 | 49.86974 | 13.16384 | 123° | 15km/h | 28561m | 5.9m/s | -46.2°C | 3.3% | 15.5hPa | 2.6V | 00:00:00 | 00:00:00 | 00:00:00 | |
| SONDE2-11 | 2026-08-31 12:26:20 | 49.86977 | 13.16380 | 131° | 11km/h | 28555m | 5.0m/s | -46.3°C | 0.9% | 15.6hPa | 2.7V | 00:00:00 | 00:00:00 | 00:00:00 | |
| DM0DOS-11 | 2026-08-31 12:26:19 | 49.87000 | 13.16351 | 125° | 20km/h | 28523m | 5.1m/s | -46.5°C | 3.4% | 15.7hPa | 2.7V | 03:41:10 | 02:09:07 | 00:00:00 | |
| AA1-15 | 2026-08-31 12:26:18 | 49.86991 | 13.16364 | 143° | 26km/h | 28533m | 5.3m/s | -46.4°C | 0.3% | 15.6hPa | 2.6V | 03:41:56 | 02:09:09 | 00:00:00 | |
| DF8AY | 2026-08-31 12:26:17 | 49.86998 | 13.16325 | 68° | 11km/h | 28493m | 5.8m/s | -46.3°C | 0.3% | 15.7hPa | 2.6V | 03:42:47 | 02:09:02 | 00:00:00 | |
| DL1XH-west | 2026-08-31 12:26:13 | 49.87002 | 13.16345 | 109° | 16km/h | 28517m | 6.9m/s | -46.5°C | 0.3% | 15.7hPa | 2.7V | 03:41:56 | 02:09:06 | 00:00:00 | |
| DB0ND-19 | 2026-08-31 12:26:12 | 49.87002 | 13.16339 | 82° | 13km/h | 28510m | 6.6m/s | -46.4°C | 0.9% | 15.7hPa | 2.7V | 00:00:00 | 00:00:00 | 00:00:00 | |
| DL1XH1-15 | 2026-08-31 12:26:10 | 49.86998 | 13.16321 | 93° | 9km/h | 28487m | 6.4m/s | -46.3°C | 3.4% | 15.7hPa | 2.7V | 03:41:16 | 02:09:01 | 00:00:00 | |
| AA1-15 | 2026-08-31 12:26:07 | 49.87000 | 13.16313 | 129° | 13km/h | 28475m | 5.6m/s | -46.3°C | 0.4% | 15.8hPa | 2.7V | 03:41:56 | 02:08:59 | 00:00:00 | |
| PETON7-10 | 2026-08-31 12:26:07 | 49.86998 | 13.16317 | 121° | 11km/h | 28481m | 5.8m/s | -46.2°C | 3.4% | 15.7hPa | 2.6V | 00:00:00 | 02:09:00 | 00:00:00 | |
| DM0DOS-11 | 2026-08-31 12:26:06 | 49.87004 | 13.16306 | 122° | 11km/h | 28463m | 6.4m/s | -46.2°C | 3.3% | 15.8hPa | 2.6V | 03:41:20 | 02:08:57 | 00:00:00 | |
| DL1XH-west | 2026-08-31 12:26:03 | 49.87005 | 13.16302 | 112° | 11km/h | 28457m | 5.5m/s | -46.2°C | 0.3% | 15.8hPa | 2.6V | 03:41:56 | 02:08:56 | 00:00:00 | |
| DF8AY | 2026-08-31 12:25:57 | 49.87013 | 13.16275 | 58° | 9km/h | 28418m | 7.2m/s | -46.1°C | 0.2% | 15.9hPa | 2.7V | 03:42:47 | 02:08:49 | 00:00:00 | |
| DM0DOS-11 | 2026-08-31 12:25:56 | 49.87008 | 13.16269 | 34° | 13km/h | 28406m | 5.3m/s | -46°C | 3.2% | 15.9hPa | 2.7V | 03:41:30 | 02:08:47 | 00:00:00 | |
| AA1-15 | 2026-08-31 12:25:56 | 49.87008 | 13.16269 | 34° | 13km/h | 28406m | 5.3m/s | -46.1°C | 0.2% | 16hPa | 2.7V | 03:41:56 | 02:08:47 | 00:00:00 | |
| DL1XH-west | 2026-08-31 12:25:54 | 49.87005 | 13.16266 | 43° | 13km/h | 28400m | 5.2m/s | -46.1°C | 0.3% | 16hPa | 2.6V | 03:41:56 | 02:08:46 | 00:00:00 | |
| PETON7-10 | 2026-08-31 12:25:52 | 49.87004 | 13.16262 | 64° | 11km/h | 28395m | 6.5m/s | -46.1°C | 3.3% | 15.9hPa | 2.6V | 00:00:00 | 00:00:00 | 00:00:00 | |
| DL1XH1-15 | 2026-08-31 12:25:50 | 49.87005 | 13.16243 | 99° | 13km/h | 28373m | 6.2m/s | -46.1°C | 3.2% | 16hPa | 2.7V | 03:41:36 | 02:08:41 | 00:00:00 | |
| DJ2DS-15 | 2026-08-31 12:25:50 | 49.87003 | 13.16253 | 105° | 11km/h | 28384m | 4.6m/s | -46.0°C | 3.2% | 15.9hPa | 2.7V | 03:41:00 | 02:08:43 | 00:00:00 | |
| DO3MHA-11 | 2026-08-31 12:25:49 | 49.87004 | 13.16247 | 106° | 11km/h | 28379m | 5.2m/s | -46.1°C | 3.2% | 16.0hPa | 2.7V | 00:00:00 | 02:08:42 | 00:00:00 | |
| OE5MMP-10 | 2026-08-31 12:25:48 | 49.87005 | 13.16242 | 100° | 11km/h | 28373m | 6.2m/s | -46.1°C | 3.2% | 16.0hPa | 2.7V | 03:41:00 | 02:08:41 | 00:00:00 | |
| DO8TBO-1 | 2026-08-31 12:25:46 | 49.87005 | 13.16234 | 78° | 13km/h | 28361m | 5.5m/s | -46.1°C | 3.3% | 16.0hPa | 2.7V | 00:00:00 | 02:08:39 | 00:00:00 | |
| DM0DOS-11 | 2026-08-31 12:25:45 | 49.87004 | 13.16227 | 83° | 9km/h | 28349m | 6.4m/s | -46.2°C | 3.3% | 16.1hPa | 2.7V | 03:41:40 | 02:08:37 | 00:00:00 | |
| AA1-15 | 2026-08-31 12:25:44 | 49.87004 | 13.16223 | 92° | 7km/h | 28343m | 6.4m/s | -46.2°C | 0.2% | 16.1hPa | 2.7V | 03:41:56 | 02:08:36 | 00:00:00 | |
| DL1XH-west | 2026-08-31 12:25:43 | 49.87004 | 13.16220 | 88° | 7km/h | 28337m | 5m/s | -46.2°C | 0.3% | 16.1hPa | 2.7V | 03:41:56 | 02:08:35 | 00:00:00 | |
| DM0DOS-11 | 2026-08-31 12:25:40 | 49.86983 | 13.16195 | 79° | 11km/h | 28292m | 5.8m/s | -46.5°C | 3.2% | 16.2hPa | 2.6V | 03:41:50 | 02:08:27 | 00:00:00 | |
| DF8AY | 2026-08-31 12:25:34 | 49.86983 | 13.16195 | 80° | 11km/h | 28292m | 5.8m/s | -46.5°C | 0.3% | 16.2hPa | 2.6V | 03:42:47 | 02:08:27 | 00:00:00 | |
| DL1XH1-15 | 2026-08-31 12:25:34 | 49.86976 | 13.16177 | 27° | 18km/h | 28259m | 4.8m/s | -46.4°C | 3.2% | 16.3hPa | 2.6V | 03:41:56 | 02:08:21 | 00:00:00 | |
| AA1-15 | 2026-08-31 12:25:33 | 49.86983 | 13.16191 | 102° | 9km/h | 28286m | 4.7m/s | -46.4°C | 0.2% | 16.2hPa | 2.6V | 03:41:56 | 02:08:26 | 00:00:00 | |
| HSKMA3-T | 2026-08-31 12:25:31 | 49.86983 | 13.16185 | 79° | 7km/h | 28277m | 5.7m/s | -46.5°C | 0.3% | 16.2hPa | 2.7V | 03:41:56 | 02:08:24 | 00:00:00 | |
| OE5DXL-15 | 2026-08-31 12:25:31 | 49.86983 | 13.16185 | 79° | 11km/h | 28277m | 5.6m/s | -46.5°C | 3.3% | 16.2hPa | 2.7V | 03:41:00 | 00:00:00 | 00:00:00 | |
| DJ2DS-15 | 2026-08-31 12:25:30 | 49.86982 | 13.16182 | 43° | 13km/h | 28271m | 6.2m/s | -46.5°C | 3.2% | 16.2hPa | 2.7V | 00:00:00 | 02:08:23 | 00:00:00 | |
| DO3MHA-11 | 2026-08-31 12:25:29 | 49.86980 | 13.16180 | 28° | 13km/h | 28265m | 5.5m/s | -46.5°C | 3.3% | 16.3hPa | 2.7V | 00:00:00 | 02:08:22 | 00:00:00 | |
| OE5MMP-10 | 2026-08-31 12:25:28 | 49.86976 | 13.16177 | 28° | 13km/h | 28260m | 4.8m/s | -46.4°C | 3.2% | 16.2hPa | 2.7V | 00:00:00 | 02:08:21 | 00:00:00 | |
| DM0DOS-11 | 2026-08-31 12:25:25 | 49.86964 | 13.16160 | 66° | 13km/h | 28237m | 5.1m/s | -46.5°C | 3.3% | 16.4hPa | 2.7V | 03:42:00 | 02:08:17 | 00:00:00 | |
| DF8AY | 2026-08-31 12:25:24 | 49.86963 | 13.16156 | 74° | 9km/h | 28233m | 4.3m/s | -46.6°C | 0.2% | 16.4hPa | 2.6V | 03:42:47 | 02:08:16 | 00:00:00 | |
| AA1-15 | 2026-08-31 12:25:23 | 49.86962 | 13.16153 | 61° | 7km/h | 28228m | 4.9m/s | -46.7°C | 0.3% | 16.4hPa | 2.6V | 03:42:47 | 02:08:15 | 00:00:00 | |
| HSKMA3-T | 2026-08-31 12:25:21 | 49.86961 | 13.16151 | 32° | 7km/h | 28223m | 6.1m/s | -46.8°C | 0.3% | 16.4hPa | 2.6V | 03:42:47 | 02:08:14 | 00:00:00 | |
| DL1XH1-15 | 2026-08-31 12:25:20 | 49.86952 | 13.16147 | 17° | 15km/h | 28206m | 5.1m/s | -46.8°C | 3.3% | 16.4hPa | 2.7V | 03:42:06 | 02:08:11 | 00:00:00 | |
| DL1XH-west | 2026-08-31 12:25:20 | 49.86959 | 13.16150 | 14° | 11km/h | 28217m | 5.9m/s | -46.8°C | 0.3% | 16.4hPa | 2.7V | 03:42:47 | 02:08:13 | 00:00:00 | |
| DM0DOS-11 | 2026-08-31 12:25:19 | 49.86942 | 13.16132 | 59° | 16km/h | 28183m | 4.7m/s | -46.9°C | 3.3% | 16.5hPa | 2.7V | 03:42:10 | 02:08:07 | 00:00:00 | |
| DF8AY | 2026-08-31 12:25:14 | 49.86939 | 13.16127 | 50° | 16km/h | 28178m | 5.4m/s | -46.9°C | 0.3% | 16.5hPa | 2.7V | 03:42:47 | 02:08:06 | 00:00:00 | |
| DL1XH1-15 | 2026-08-31 12:25:13 | 49.86924 | 13.16123 | 324° | 7km/h | 28150m | 6.2m/s | -46.8°C | 3.2% | 16.6hPa | 2.7V | 03:42:16 | 02:08:01 | 00:00:00 | |
| AA1-15 | 2026-08-31 12:25:12 | 49.86933 | 13.16121 | 12° | 15km/h | 28166m | 5.7m/s | -46.8°C | 0.3% | 16.5hPa | 2.6V | 03:42:47 | 02:08:04 | 00:00:00 | |
| DL1XH-west | 2026-08-31 12:25:10 | 49.86930 | 13.16120 | 354° | 13km/h | 28161m | 4.9m/s | -46.7°C | 0.3% | 16.6hPa | 2.6V | 03:42:47 | 02:08:03 | 00:00:00 | |
| DF8AY | 2026-08-31 12:25:03 | 49.86921 | 13.16125 | 27° | 9km/h | 28122m | 5.7m/s | -46.9°C | 0.3% | 16.6hPa | 2.6V | 03:42:47 | 02:07:56 | 00:00:00 | |
| AA1-15 | 2026-08-31 12:25:01 | 49.86915 | 13.16115 | 70° | 13km/h | 28105m | 6.7m/s | -46.8°C | 0.2% | 16.7hPa | 2.7V | 03:42:47 | 02:07:53 | 00:00:00 | |
| DL1XH-west | 2026-08-31 12:24:59 | 49.86914 | 13.16110 | 86° | 13km/h | 28099m | 5.9m/s | -46.8°C | 0.2% | 16.7hPa | 2.6V | 03:42:47 | 02:07:52 | 00:00:00 | |
| DF8AY | 2026-08-31 12:24:53 | 49.86912 | 13.16110 | 289° | 13km/h | 28067m | 4.2m/s | -46.9°C | 0.3% | 16.8hPa | 2.6V | 03:42:47 | 02:07:46 | 00:00:00 | |
| AA1-15 | 2026-08-31 12:24:50 | 49.86910 | 13.16115 | 82° | 7km/h | 28046m | 4.8m/s | -47.1°C | 0.2% | 16.9hPa | 2.7V | 03:42:47 | 02:07:42 | 00:00:00 | |
| DL1XH-west | 2026-08-31 12:24:48 | 49.86910 | 13.16111 | 71° | 11km/h | 28041m | 5.3m/s | -47.1°C | 0.3% | 16.9hPa | 2.7V | 03:42:47 | 02:07:41 | 00:00:00 | |
| SONDE2-11 | 2026-08-31 12:24:47 | 49.86908 | 13.16107 | 56° | 11km/h | 28035m | 6.1m/s | -47.1°C | 0.9% | 16.9hPa | 2.7V | 00:00:00 | 00:00:00 | 00:00:00 | |
| EDDB2-12 | 2026-08-31 12:24:46 | 49.86907 | 13.16104 | 41° | 11km/h | 28029m | 5.1m/s | -47.0°C | 0.9% | 16.9hPa | 2.7V | 00:00:00 | 00:00:00 | 00:00:00 | |
| DF8AY | 2026-08-31 12:24:43 | 49.86903 | 13.16104 | 229° | 9km/h | 28008m | 6.4m/s | -46.9°C | 0.3% | 17hPa | 2.7V | 03:42:47 | 02:07:35 | 00:00:00 | |
| DL1XH1-15 | 2026-08-31 12:24:40 | 49.86909 | 13.16118 | 277° | 9km/h | 27986m | 6.3m/s | -47.2°C | 3.4% | 17hPa | 2.7V | 03:42:46 | 02:07:31 | 00:00:00 | |
| DM0DOS-11 | 2026-08-31 12:24:39 | 49.86905 | 13.16123 | 64° | 2km/h | 27963m | 6m/s | -47.3°C | 3.5% | 17.1hPa | 2.6V | 03:42:50 | 02:07:27 | 00:00:00 | |
| DL1XH-west | 2026-08-31 12:24:38 | 49.86909 | 13.16118 | 277° | 9km/h | 27986m | 6.3m/s | -47.2°C | 0.3% | 17hPa | 2.7V | 03:42:47 | 02:07:31 | 00:00:00 | |
| DF8AY | 2026-08-31 12:24:33 | 49.86906 | 13.16121 | 154° | 4km/h | 27953m | 4.4m/s | -47.2°C | 0.3% | 17.1hPa | 2.7V | 03:43:38 | 02:07:25 | 00:00:00 | |
| DL1XH1-15 | 2026-08-31 12:24:33 | 49.86907 | 13.16125 | 273° | 7km/h | 27932m | 5m/s | -47.1°C | 3.3% | 17.1hPa | 2.6V | 03:42:56 | 02:07:21 | 00:00:00 | |
| DL1XH-west | 2026-08-31 12:24:28 | 49.86907 | 13.16125 | 273° | 7km/h | 27932m | 5m/s | -47.2°C | 0.3% | 17.1hPa | 2.6V | 03:43:38 | 02:07:21 | 00:00:00 | |
| HSKMA3-T | 2026-08-31 12:24:27 | 49.86908 | 13.16129 | 256° | 9km/h | 27927m | 4.6m/s | -47.2°C | 0.2% | 17.2hPa | 2.6V | 03:43:38 | 02:07:20 | 00:00:00 | |
| DB0UT-7 | 2026-08-31 12:24:26 | 49.86909 | 13.16132 | 235° | 15km/h | 27922m | 5.3m/s | -47.1°C | 3.3% | 17.1hPa | 2.7V | 00:00:00 | 02:07:19 | 00:00:00 | |
| DM0DOS-11 | 2026-08-31 12:24:25 | 49.86915 | 13.16139 | 201° | 18km/h | 27910m | 5.7m/s | -47°C | 3.3% | 17.2hPa | 2.7V | 03:43:00 | 02:07:17 | 00:00:00 | |
| PG1ADW-2 | 2026-08-31 12:24:25 | 49.86911 | 13.16136 | 215° | 11km/h | 27916m | 6.4m/s | -46.9°C | 3.3% | 17.1hPa | 2.7V | 00:00:00 | 00:00:00 | 00:00:00 | |
| NBG1-10 | 2026-08-31 12:24:23 | 49.86919 | 13.16141 | 195° | 13km/h | 27905m | 4.4m/s | -46.9°C | 3.3% | 17.2hPa | 2.7V | 03:43:00 | 02:07:16 | 00:00:00 | |
| DB0NH | 2026-08-31 12:24:22 | 49.86924 | 13.16142 | 191° | 11km/h | 27900m | 4.5m/s | -46.9°C | 3.3% | 17.2hPa | 2.7V | 00:00:00 | 02:07:15 | 00:00:00 | |
| DL1XH1-15 | 2026-08-31 12:24:21 | 49.86929 | 13.16142 | 62° | 5km/h | 27877m | 5.3m/s | -47°C | 3.3% | 17.3hPa | 2.7V | 03:43:06 | 02:07:11 | 00:00:00 | |
| DF8AY | 2026-08-31 12:24:20 | 49.86932 | 13.16132 | 151° | 11km/h | 27855m | 4.7m/s | -47.2°C | 0.3% | 17.4hPa | 2.7V | 03:43:38 | 02:07:07 | 00:00:00 | |
| DM0DOS-11 | 2026-08-31 12:24:20 | 49.86932 | 13.16132 | 150° | 11km/h | 27855m | 4.7m/s | -47.2°C | 3.3% | 17.4hPa | 2.7V | 03:43:10 | 02:07:07 | 00:00:00 | |
| DL1XH-west | 2026-08-31 12:24:17 | 49.86929 | 13.16140 | 88° | 7km/h | 27872m | 6.3m/s | -47.2°C | 0.3% | 17.3hPa | 2.6V | 03:43:38 | 02:07:10 | 00:00:00 | |
| AA1-15 | 2026-08-31 12:24:16 | 49.86929 | 13.16137 | 111° | 9km/h | 27865m | 5.9m/s | -47.1°C | 0.3% | 17.3hPa | 2.6V | 03:43:38 | 02:07:09 | 00:00:00 | |
| DO8TBO-1 | 2026-08-31 12:24:16 | 49.86929 | 13.16137 | 112° | 15km/h | 27866m | 5.8m/s | -47.1°C | 3.3% | 17.3hPa | 2.7V | 00:00:00 | 02:07:09 | 00:00:00 | |
| EDDB2-12 | 2026-08-31 12:24:15 | 49.86930 | 13.16134 | 133° | 9km/h | 27860m | 5.0m/s | -47.1°C | 0.9% | 17.3hPa | 2.7V | 00:00:00 | 00:00:00 | 00:00:00 | |
| DL1XH1-15 | 2026-08-31 12:24:13 | 49.86949 | 13.16132 | 160° | 18km/h | 27821m | 5.9m/s | -47.5°C | 3.4% | 17.4hPa | 2.7V | 03:43:16 | 02:07:01 | 00:00:00 | |
| DF8AY | 2026-08-31 12:24:09 | 49.86945 | 13.16133 | 177° | 15km/h | 27827m | 6.3m/s | -47.4°C | 0.3% | 17.4hPa | 2.6V | 03:43:38 | 02:07:02 | 00:00:00 | |
| DL1XH-west | 2026-08-31 12:24:06 | 49.86956 | 13.16125 | 136° | 16km/h | 27811m | 5m/s | -47.5°C | 0.3% | 17.5hPa | 2.7V | 03:43:38 | 02:06:59 | 00:00:00 | |
| AA1-15 | 2026-08-31 12:24:06 | 49.86959 | 13.16120 | 122° | 15km/h | 27805m | 6.7m/s | -47.5°C | 0.3% | 17.5hPa | 2.6V | 03:43:38 | 02:06:58 | 00:00:00 | |
| DM0DOS-11 | 2026-08-31 12:24:05 | 49.86960 | 13.16115 | 107° | 13km/h | 27799m | 5.9m/s | -47.6°C | 3.3% | 17.5hPa | 2.6V | 03:43:20 | 02:06:57 | 00:00:00 | |
| PG1ADW-2 | 2026-08-31 12:24:05 | 49.86959 | 13.16120 | 123° | 18km/h | 27805m | 6.6m/s | -47.5°C | 3.4% | 17.4hPa | 2.6V | 03:43:00 | 00:00:00 | 00:00:00 | |
| SONCRA | 2026-08-31 12:24:04 | 49.86961 | 13.16110 | 98° | 13km/h | 27793m | 5.1m/s | -47.6°C | 0.9% | 17.5hPa | 2.6V | 00:00:00 | 00:00:00 | 00:00:00 | |
| DJ2DS-15 | 2026-08-31 12:24:02 | 49.86963 | 13.16100 | 111° | 15km/h | 27782m | 6.1m/s | -47.6°C | 0.9% | 17.5hPa | 2.6V | 00:00:00 | 00:00:00 | 00:00:00 | |
| OE5DXL-15 | 2026-08-31 12:24:01 | 49.86962 | 13.16100 | 112° | 16km/h | 27782m | 6.1m/s | -47.5°C | 3.3% | 17.5hPa | 2.6V | 00:00:00 | 00:00:00 | 00:00:00 | |
| DL1XH1-15 | 2026-08-31 12:24:00 | 49.86967 | 13.16087 | 131° | 9km/h | 27765m | 6.4m/s | -47.7°C | 3.3% | 17.6hPa | 2.6V | 03:43:26 | 02:06:51 | 00:00:00 | |
| DF8AY | 2026-08-31 12:23:59 | 49.86966 | 13.16090 | 126° | 11km/h | 27771m | 4.7m/s | -47.7°C | 0.3% | 17.6hPa | 2.6V | 03:43:38 | 02:06:52 | 00:00:00 | |
| DL1XH-west | 2026-08-31 12:23:55 | 49.86971 | 13.16083 | 143° | 7km/h | 27749m | 4.8m/s | -48.1°C | 0.4% | 17.6hPa | 2.7V | 03:43:38 | 02:06:48 | 00:00:00 | |
| HSKMA3-T | 2026-08-31 12:23:54 | 49.86973 | 13.16080 | 135° | 11km/h | 27744m | 6.1m/s | -48.1°C | 0.4% | 17.6hPa | 2.7V | 03:43:38 | 02:06:47 | 00:00:00 | |
| DL1XH1-15 | 2026-08-31 12:23:53 | 49.86974 | 13.16027 | 69° | 33km/h | 27708m | 5.3m/s | -48.2°C | 3.5% | 17.7hPa | 2.7V | 03:43:36 | 02:06:41 | 00:00:00 | |
| DF8AY | 2026-08-31 12:23:49 | 49.86972 | 13.16016 | 71° | 31km/h | 27703m | 5.6m/s | -48.3°C | 0.4% | 17.8hPa | 2.6V | 03:43:38 | 02:06:40 | 00:00:00 | |
| OE5MMP-10 | 2026-08-31 12:23:48 | 49.86974 | 13.16027 | 70° | 18km/h | 27708m | 5.3m/s | -48.1°C | 3.5% | 17.7hPa | 2.7V | 03:43:00 | 02:06:41 | 00:00:00 | |
| DM0DOS-11 | 2026-08-31 12:23:47 | 49.86967 | 13.15986 | 79° | 18km/h | 27686m | 4.5m/s | -48.3°C | 3.5% | 17.8hPa | 2.7V | 03:43:40 | 02:06:37 | 00:00:00 | |
| DL1XH-west | 2026-08-31 12:23:45 | 49.86968 | 13.15995 | 80° | 24km/h | 27691m | 4.9m/s | -48.4°C | 0.4% | 17.8hPa | 2.6V | 03:44:29 | 02:06:38 | 00:00:00 | |
| HSKMA3-T | 2026-08-31 12:23:44 | 49.86967 | 13.15986 | 79° | 18km/h | 27686m | 4.5m/s | -48.3°C | 0.4% | 17.8hPa | 2.7V | 03:44:29 | 02:06:37 | 00:00:00 | |
| AA1-15 | 2026-08-31 12:23:43 | 49.86966 | 13.15980 | 75° | 16km/h | 27681m | 6.1m/s | -48.3°C | 0.4% | 17.8hPa | 2.7V | 03:44:29 | 02:06:36 | 00:00:00 | |
| DF8AY | 2026-08-31 12:23:38 | 49.86964 | 13.15962 | 121° | 11km/h | 27651m | 5.9m/s | -48.4°C | 0.4% | 17.9hPa | 2.7V | 03:45:20 | 02:06:31 | 00:00:00 | |
| OE5MMP-10 | 2026-08-31 12:23:38 | 49.86964 | 13.15962 | 121° | 16km/h | 27652m | 5.8m/s | -48.3°C | 3.5% | 17.8hPa | 2.6V | 00:00:00 | 02:06:31 | 00:00:00 | |
| DM0DOS-11 | 2026-08-31 12:23:36 | 49.86966 | 13.15941 | 62° | 18km/h | 27630m | 6.4m/s | -48.4°C | 3.5% | 17.9hPa | 2.6V | 03:43:50 | 02:06:27 | 00:00:00 | |
| DL1XH-west | 2026-08-31 12:23:34 | 49.86965 | 13.15941 | 62° | 18km/h | 27630m | 6.4m/s | -48.4°C | 0.5% | 18hPa | 2.6V | 03:44:29 | 02:06:27 | 00:00:00 | |
| AA1-15 | 2026-08-31 12:23:33 | 49.86963 | 13.15935 | 52° | 22km/h | 27623m | 5.5m/s | -48.5°C | 0.4% | 18hPa | 2.6V | 03:44:29 | 02:06:26 | 00:00:00 | |
| DF8AY | 2026-08-31 12:23:28 | 49.86949 | 13.15903 | 53° | 7km/h | 27591m | 6.5m/s | -48.6°C | 0.5% | 18.1hPa | 2.6V | 03:45:20 | 02:06:20 | 00:00:00 | |
| DM0DOS-11 | 2026-08-31 12:23:26 | 49.86945 | 13.15899 | 54° | 5km/h | 27574m | 4.8m/s | -48.7°C | 3.6% | 18.1hPa | 2.7V | 03:44:00 | 02:06:17 | 00:00:00 | |
| DL1XH-west | 2026-08-31 12:23:24 | 49.86945 | 13.15899 | 55° | 5km/h | 27574m | 4.9m/s | -48.7°C | 0.5% | 18.1hPa | 2.7V | 03:44:29 | 02:06:17 | 00:00:00 | |
| HSKMA3-T | 2026-08-31 12:23:23 | 49.86945 | 13.15897 | 82° | 5km/h | 27569m | 6.2m/s | -48.7°C | 0.5% | 18.1hPa | 2.6V | 03:44:29 | 02:06:16 | 00:00:00 | |
| AA1-15 | 2026-08-31 12:23:22 | 49.86945 | 13.15894 | 89° | 7km/h | 27563m | 5.4m/s | -48.7°C | 0.5% | 18.1hPa | 2.6V | 03:44:29 | 02:06:15 | 00:00:00 | |
| DF8AY | 2026-08-31 12:23:17 | 49.86912 | 13.15858 | 20° | 18km/h | 27519m | 6.3m/s | -48.6°C | 0.4% | 18.3hPa | 2.7V | 03:45:20 | 02:06:07 | 00:00:00 | |
| DM0DOS-11 | 2026-08-31 12:23:16 | 49.86912 | 13.15858 | 19° | 18km/h | 27519m | 6.3m/s | -48.5°C | 3.6% | 18.2hPa | 2.7V | 03:44:10 | 02:06:07 | 00:00:00 | |
| DF3TZ-5 | 2026-08-31 12:23:16 | 49.86912 | 13.15858 | 19° | 16km/h | 27519m | 6.3m/s | -48.6°C | 0.9% | 18.3hPa | 2.7V | 00:00:00 | 00:00:00 | 00:00:00 | |
| DL1XH1-15 | 2026-08-31 12:23:14 | 49.86899 | 13.15844 | 27° | 16km/h | 27486m | 5.9m/s | -48.3°C | 3.6% | 18.4hPa | 2.7V | 03:44:16 | 02:06:01 | 00:00:00 | |
| DL1XH-west | 2026-08-31 12:23:13 | 49.86908 | 13.15856 | 28° | 11km/h | 27513m | 5.7m/s | -48.4°C | 0.4% | 18.3hPa | 2.7V | 03:44:29 | 02:06:06 | 00:00:00 | |
| HSKMA3-T | 2026-08-31 12:23:12 | 49.86906 | 13.15854 | 47° | 7km/h | 27508m | 4.7m/s | -48.4°C | 0.4% | 18.3hPa | 2.7V | 03:44:29 | 02:06:05 | 00:00:00 | |
| AA1-15 | 2026-08-31 12:23:11 | 49.86905 | 13.15852 | 56° | 7km/h | 27503m | 4.8m/s | -48.4°C | 0.4% | 18.3hPa | 2.6V | 03:44:29 | 02:06:04 | 00:00:00 | |
| DF8AY | 2026-08-31 12:23:06 | 49.86890 | 13.15838 | 24° | 20km/h | 27475m | 5m/s | -48.2°C | 0.4% | 18.4hPa | 2.7V | 03:45:20 | 02:05:59 | 00:00:00 | |
| PETON7-10 | 2026-08-31 12:23:06 | 49.86890 | 13.15838 | 24° | 11km/h | 27476m | 5.0m/s | -48.2°C | 3.5% | 18.3hPa | 2.6V | 00:00:00 | 02:05:59 | 00:00:00 | |
| DM0DOS-11 | 2026-08-31 12:23:05 | 49.86880 | 13.15828 | 47° | 11km/h | 27458m | 5.6m/s | -48.2°C | 3.5% | 18.4hPa | 2.6V | 03:44:21 | 02:05:56 | 00:00:00 | |
| DL1XH-west | 2026-08-31 12:23:02 | 49.86878 | 13.15825 | 61° | 9km/h | 27453m | 4.7m/s | -48.2°C | 0.4% | 18.4hPa | 2.7V | 03:44:29 | 02:05:55 | 00:00:00 | |
| DL1XH1-15 | 2026-08-31 12:23:02 | 49.86870 | 13.15816 | 20° | 15km/h | 27430m | 5.4m/s | -48.3°C | 3.4% | 18.5hPa | 2.6V | 03:44:26 | 02:05:51 | 00:00:00 | |
| HSKMA3-T | 2026-08-31 12:23:01 | 49.86877 | 13.15822 | 58° | 9km/h | 27448m | 4.7m/s | -48.3°C | 0.4% | 18.4hPa | 2.7V | 03:44:29 | 02:05:54 | 00:00:00 | |
| AA1-15 | 2026-08-31 12:23:00 | 49.86876 | 13.15820 | 40° | 9km/h | 27443m | 6.3m/s | -48.3°C | 0.3% | 18.5hPa | 2.7V | 03:44:29 | 02:05:53 | 00:00:00 | |
| EDDB2-11 | 2026-08-31 12:23:00 | 49.86873 | 13.15818 | 26° | 11km/h | 27437m | 6.2m/s | -48.3°C | 0.9% | 18.5hPa | 2.6V | 00:00:00 | 00:00:00 | 00:00:00 | |
| DO3MHA-11 | 2026-08-31 12:22:59 | 49.86873 | 13.15818 | 27° | 11km/h | 27437m | 6.2m/s | -48.2°C | 3.4% | 18.4hPa | 2.6V | 03:44:00 | 02:05:52 | 00:00:00 | |
| OE5MMP-10 | 2026-08-31 12:22:58 | 49.86870 | 13.15816 | 21° | 11km/h | 27431m | 5.4m/s | -48.3°C | 3.4% | 18.5hPa | 2.6V | 00:00:00 | 02:05:51 | 00:00:00 | |
| DM0DOS-11 | 2026-08-31 12:22:55 | 49.86859 | 13.15811 | 343° | 5km/h | 27402m | 4.4m/s | -48.3°C | 3.4% | 18.6hPa | 2.6V | 03:44:31 | 02:05:46 | 00:00:00 | |
| DF8AY | 2026-08-31 12:22:54 | 49.86861 | 13.15811 | 3° | 5km/h | 27407m | 4.7m/s | -48.3°C | 0.4% | 18.6hPa | 2.7V | 03:45:20 | 02:05:47 | 00:00:00 | |
| DL1XH-west | 2026-08-31 12:22:51 | 49.86855 | 13.15814 | 334° | 11km/h | 27391m | 6.3m/s | -48.3°C | 0.3% | 18.6hPa | 2.6V | 03:45:20 | 02:05:44 | 00:00:00 | |
| HSKMA3-T | 2026-08-31 12:22:51 | 49.86852 | 13.15816 | 331° | 13km/h | 27385m | 5.7m/s | -48.4°C | 0.3% | 18.6hPa | 2.7V | 03:45:20 | 02:05:43 | 00:00:00 | |
| PETON7-10 | 2026-08-31 12:22:51 | 49.86855 | 13.15814 | 335° | 11km/h | 27391m | 6.2m/s | -48.3°C | 3.4% | 18.6hPa | 2.6V | 00:00:00 | 00:00:00 | 00:00:00 | |
| DL1XH1-15 | 2026-08-31 12:22:50 | 49.86847 | 13.15821 | 318° | 9km/h | 27374m | 5.1m/s | -48.4°C | 3.4% | 18.7hPa | 2.7V | 03:44:36 | 02:05:41 | 00:00:00 | |
| AA1-15 | 2026-08-31 12:22:49 | 49.86850 | 13.15818 | 328° | 13km/h | 27380m | 5.1m/s | -48.4°C | 0.4% | 18.7hPa | 2.7V | 03:45:20 | 02:05:42 | 00:00:00 | |
| DL6DJ-15 | 2026-08-31 12:22:48 | 49.86846 | 13.15823 | 291° | 4km/h | 27369m | 6.8m/s | -48.5°C | 0.9% | 18.7hPa | 2.7V | 00:00:00 | 00:00:00 | 00:00:00 | |
| DF8AY | 2026-08-31 12:22:45 | 49.86847 | 13.15827 | 330° | 5km/h | 27347m | 5.6m/s | -48.9°C | 0.4% | 18.8hPa | 2.7V | 03:45:20 | 02:05:36 | 00:00:00 | |
| DL1XH1-15 | 2026-08-31 12:22:45 | 49.86830 | 13.15844 | 317° | 18km/h | 27317m | 6.2m/s | -49.2°C | 3.6% | 18.8hPa | 2.7V | 03:44:46 | 02:05:31 | 00:00:00 | |
| DL1XH-west | 2026-08-31 12:22:41 | 49.86842 | 13.15831 | 336° | 18km/h | 27335m | 5.8m/s | -49.2°C | 0.5% | 18.8hPa | 2.6V | 03:45:20 | 02:05:34 | 00:00:00 | |
| AA1-15 | 2026-08-31 12:22:39 | 49.86830 | 13.15844 | 317° | 18km/h | 27318m | 6.2m/s | -49.2°C | 0.4% | 18.8hPa | 2.7V | 03:45:20 | 02:05:31 | 00:00:00 | |
| DO3MHA-11 | 2026-08-31 12:22:39 | 49.86834 | 13.15839 | 325° | 11km/h | 27324m | 5.8m/s | -49.2°C | 3.6% | 18.8hPa | 2.6V | 00:00:00 | 02:05:32 | 00:00:00 | |
| OE5MMP-10 | 2026-08-31 12:22:38 | 49.86830 | 13.15844 | 318° | 11km/h | 27318m | 6.2m/s | -49.2°C | 3.6% | 18.8hPa | 2.6V | 00:00:00 | 02:05:31 | 00:00:00 | |
| PETON7-10 | 2026-08-31 12:22:36 | 49.86825 | 13.15852 | 309° | 11km/h | 27307m | 4.8m/s | -49.4°C | 3.7% | 18.8hPa | 2.6V | 03:44:00 | 00:00:00 | 00:00:00 | |
| DB0ND-19 | 2026-08-31 12:22:35 | 49.86821 | 13.15857 | 344° | 7km/h | 27296m | 6.3m/s | -49.4°C | 1.0% | 18.9hPa | 2.6V | 00:00:00 | 00:00:00 | 00:00:00 | |
| DL1XH1-15 | 2026-08-31 12:22:33 | 49.86814 | 13.15847 | 84° | 2km/h | 27261m | 4.4m/s | -49.5°C | 3.8% | 19hPa | 2.6V | 03:44:56 | 02:05:21 | 00:00:00 | |
| DL1XH-west | 2026-08-31 12:22:31 | 49.86814 | 13.15851 | 68° | 7km/h | 27272m | 6.6m/s | -49.7°C | 0.6% | 19hPa | 2.7V | 03:45:20 | 02:05:23 | 00:00:00 | |
| DJ2DS-15 | 2026-08-31 12:22:30 | 49.86814 | 13.15851 | 68° | 11km/h | 27273m | 6.5m/s | -49.6°C | 3.8% | 18.9hPa | 2.6V | 00:00:00 | 02:05:23 | 00:00:00 | |
| EDDB2-11 | 2026-08-31 12:22:29 | 49.86814 | 13.15847 | 84° | 2km/h | 27261m | 4.4m/s | -49.6°C | 1.0% | 19.0hPa | 2.6V | 00:00:00 | 00:00:00 | 00:00:00 | |
| DM0DOS-11 | 2026-08-31 12:22:28 | 49.86800 | 13.15847 | 5° | 20km/h | 27233m | 5.3m/s | -49.7°C | 3.7% | 19.1hPa | 2.6V | 03:45:01 | 02:05:16 | 00:00:00 | |
| DF8AY | 2026-08-31 12:22:28 | 49.86787 | 13.15827 | 68° | 13km/h | 27198m | 6.2m/s | -49.7°C | 0.6% | 19.2hPa | 2.6V | 03:45:20 | 02:05:10 | 00:00:00 | |
| AA1-15 | 2026-08-31 12:22:27 | 49.86813 | 13.15846 | 1° | 4km/h | 27257m | 4.8m/s | -49.6°C | 0.6% | 19hPa | 2.6V | 03:45:20 | 02:05:20 | 00:00:00 | |
| PG1ADW-2 | 2026-08-31 12:22:25 | 49.86808 | 13.15847 | 356° | 9km/h | 27245m | 6.6m/s | -49.7°C | 3.7% | 19.0hPa | 2.7V | 00:00:00 | 00:00:00 | 00:00:00 | |
| DL1XH1-15 | 2026-08-31 12:22:23 | 49.86787 | 13.15832 | 75° | 13km/h | 27204m | 6.2m/s | -49.8°C | 3.8% | 19.2hPa | 2.7V | 03:45:06 | 02:05:11 | 00:00:00 | |
| DL1XH-west | 2026-08-31 12:22:21 | 49.86789 | 13.15841 | 58° | 11km/h | 27215m | 5.6m/s | -49.8°C | 0.5% | 19.1hPa | 2.7V | 03:45:20 | 02:05:13 | 00:00:00 | |
| PETON7-10 | 2026-08-31 12:22:21 | 49.86792 | 13.15844 | 33° | 11km/h | 27221m | 6.4m/s | -49.7°C | 3.7% | 19.1hPa | 2.7V | 00:00:00 | 02:05:14 | 00:00:00 | |
| DO3MHA-11 | 2026-08-31 12:22:19 | 49.86788 | 13.15836 | 75° | 9km/h | 27210m | 5.0m/s | -49.8°C | 3.7% | 19.1hPa | 2.7V | 03:45:00 | 02:05:12 | 00:00:00 | |
| DM0DOS-11 | 2026-08-31 12:22:18 | 49.86781 | 13.15812 | 63° | 7km/h | 27176m | 6.8m/s | -49.7°C | 3.8% | 19.2hPa | 2.7V | 03:45:11 | 02:05:06 | 00:00:00 | |
| AA1-15 | 2026-08-31 12:22:16 | 49.86785 | 13.15823 | 60° | 13km/h | 27192m | 5.4m/s | -49.7°C | 0.6% | 19.2hPa | 2.6V | 03:45:20 | 02:05:09 | 00:00:00 | |
| SONDE2-11 | 2026-08-31 12:22:13 | 49.86780 | 13.15810 | 71° | 4km/h | 27169m | 6.1m/s | -49.7°C | 1.0% | 19.3hPa | 2.7V | 00:00:00 | 00:00:00 | 00:00:00 | |
| NBG1-10 | 2026-08-31 12:22:11 | 49.86780 | 13.15808 | 48° | 11km/h | 27164m | 5.2m/s | -49.6°C | 3.8% | 19.3hPa | 2.7V | 03:45:00 | 02:05:04 | 00:00:00 | |
| DL1XH1-15 | 2026-08-31 12:22:10 | 49.86773 | 13.15804 | 20° | 16km/h | 27146m | 5.5m/s | -49.8°C | 3.8% | 19.3hPa | 2.7V | 03:45:16 | 02:05:01 | 00:00:00 | |
| DL1XH-west | 2026-08-31 12:22:10 | 49.86776 | 13.15806 | 19° | 11km/h | 27152m | 6.8m/s | -49.8°C | 0.6% | 19.3hPa | 2.6V | 03:45:20 | 02:05:02 | 00:00:00 | |
| AA1-15 | 2026-08-31 12:22:05 | 49.86764 | 13.15794 | 68° | 13km/h | 27129m | 6.8m/s | -49.7°C | 0.5% | 19.4hPa | 2.6V | 03:45:20 | 02:04:58 | 00:00:00 | |
| DM0DOS-11 | 2026-08-31 12:22:02 | 49.86766 | 13.15778 | 109° | 13km/h | 27110m | 6.6m/s | -49.8°C | 3.8% | 19.4hPa | 2.7V | 03:45:22 | 02:04:55 | 00:00:00 | |
| DK5PH-5 | 2026-08-31 12:22:02 | 49.86766 | 13.15778 | 110° | 11km/h | 27110m | 6.5m/s | -49.8°C | 3.8% | 19.4hPa | 2.6V | 00:00:00 | 02:04:55 | 00:00:00 | |
| DL9SK-14 | 2026-08-31 12:22:01 | 49.86768 | 13.15771 | 130° | 5km/h | 27099m | 5.1m/s | -49.7°C | 1.0% | 19.5hPa | 2.6V | 00:00:00 | 00:00:00 | 00:00:00 | |
| DL1XH1-15 | 2026-08-31 12:22:00 | 49.86771 | 13.15770 | 204° | 7km/h | 27086m | 7m/s | -49.7°C | 3.8% | 19.5hPa | 2.6V | 03:45:26 | 02:04:51 | 00:00:00 | |
| DF8AY | 2026-08-31 12:21:59 | 49.86771 | 13.15770 | 204° | 7km/h | 27087m | 7m/s | -49.7°C | 0.6% | 19.5hPa | 2.6V | 03:47:02 | 02:04:51 | 00:00:00 | |
| DL1XH-west | 2026-08-31 12:21:59 | 49.86769 | 13.15770 | 174° | 7km/h | 27093m | 5.7m/s | -49.7°C | 0.6% | 19.5hPa | 2.6V | 03:46:11 | 02:04:52 | 00:00:00 | |
| EDDB2-11 | 2026-08-31 12:21:58 | 49.86773 | 13.15772 | 228° | 9km/h | 27081m | 5.3m/s | -49.8°C | 1.0% | 19.6hPa | 2.6V | 00:00:00 | 00:00:00 | 00:00:00 | |
| DM0DOS-11 | 2026-08-31 12:21:57 | 49.86765 | 13.15777 | 37° | 16km/h | 27053m | 5.1m/s | -49.9°C | 3.7% | 19.6hPa | 2.6V | 03:45:32 | 02:04:45 | 00:00:00 | |
| AA1-15 | 2026-08-31 12:21:55 | 49.86773 | 13.15778 | 302° | 7km/h | 27071m | 5.3m/s | -49.8°C | 0.5% | 19.6hPa | 2.7V | 03:46:11 | 02:04:48 | 00:00:00 | |
| OE5DRO-10 | 2026-08-31 12:21:54 | 49.86772 | 13.15780 | 346° | 11km/h | 27065m | 6.8m/s | -49.8°C | 3.7% | 19.5hPa | 2.7V | 00:00:00 | 00:00:00 | 00:00:00 | |
| DB0NH | 2026-08-31 12:21:52 | 49.86765 | 13.15777 | 38° | 11km/h | 27053m | 5.1m/s | -49.8°C | 3.7% | 19.6hPa | 2.7V | 00:00:00 | 02:04:45 | 00:00:00 | |
| PETON7-10 | 2026-08-31 12:21:51 | 49.86762 | 13.15772 | 57° | 11km/h | 27048m | 5.7m/s | -49.7°C | 3.7% | 19.6hPa | 2.7V | 00:00:00 | 00:00:00 | 00:00:00 | |
| DJ2DS-15 | 2026-08-31 12:21:50 | 49.86761 | 13.15766 | 81° | 11km/h | 27042m | 6.0m/s | -49.6°C | 3.7% | 19.6hPa | 2.7V | 03:45:00 | 02:04:43 | 00:00:00 | |
| DL1XH1-15 | 2026-08-31 12:21:49 | 49.86763 | 13.15753 | 123° | 18km/h | 27030m | 5.4m/s | -49.6°C | 3.7% | 19.7hPa | 2.7V | 03:45:36 | 02:04:41 | 00:00:00 | |
| DL1XH-west | 2026-08-31 12:21:49 | 49.86761 | 13.15759 | 105° | 18km/h | 27035m | 5.6m/s | -49.6°C | 0.5% | 19.7hPa | 2.7V | 03:46:11 | 02:04:42 | 00:00:00 | |
| DF8AY | 2026-08-31 12:21:47 | 49.86766 | 13.15747 | 135° | 16km/h | 27024m | 5.3m/s | -49.6°C | 0.5% | 19.7hPa | 2.6V | 03:47:02 | 02:04:40 | 00:00:00 | |
| DM0DOS-11 | 2026-08-31 12:21:47 | 49.86776 | 13.15737 | 164° | 5km/h | 26996m | 6.6m/s | -49.7°C | 3.8% | 19.8hPa | 2.7V | 03:45:42 | 02:04:35 | 00:00:00 | |
| AA1-15 | 2026-08-31 12:21:45 | 49.86771 | 13.15740 | 145° | 11km/h | 27013m | 5.8m/s | -49.7°C | 0.6% | 19.7hPa | 2.6V | 03:46:11 | 02:04:38 | 00:00:00 | |
| DL1XH1-15 | 2026-08-31 12:21:43 | 49.86776 | 13.15733 | 20° | 7km/h | 26972m | 6.8m/s | -49.8°C | 3.8% | 19.9hPa | 2.7V | 03:45:46 | 02:04:31 | 00:00:00 | |
| DL1XH-west | 2026-08-31 12:21:38 | 49.86776 | 13.15733 | 21° | 7km/h | 26972m | 6.8m/s | -49.8°C | 0.5% | 19.9hPa | 2.7V | 03:46:11 | 02:04:31 | 00:00:00 | |
| OE5MMP-10 | 2026-08-31 12:21:38 | 49.86776 | 13.15733 | 21° | 11km/h | 26972m | 6.8m/s | -49.8°C | 3.8% | 19.8hPa | 2.7V | 00:00:00 | 02:04:31 | 00:00:00 | |
| DM0DOS-11 | 2026-08-31 12:21:37 | 49.86781 | 13.15721 | 165° | 18km/h | 26938m | 5.3m/s | -49.8°C | 3.9% | 20hPa | 2.7V | 03:45:52 | 02:04:25 | 00:00:00 | |
| DF8AY | 2026-08-31 12:21:36 | 49.86789 | 13.15719 | 173° | 13km/h | 26926m | 6.2m/s | -49.8°C | 0.7% | 20hPa | 2.7V | 03:47:02 | 02:04:23 | 00:00:00 | |
| HSKMA3-T | 2026-08-31 12:21:35 | 49.86772 | 13.15728 | 100° | 5km/h | 26957m | 6.5m/s | -49.9°C | 0.7% | 19.9hPa | 2.6V | 03:46:11 | 02:04:28 | 00:00:00 | |
| AA1-15 | 2026-08-31 12:21:34 | 49.86773 | 13.15726 | 143° | 11km/h | 26950m | 6.7m/s | -49.8°C | 0.6% | 19.9hPa | 2.6V | 03:46:11 | 02:04:27 | 00:00:00 | |
| DL1XH-west | 2026-08-31 12:21:28 | 49.86792 | 13.15718 | 116° | 2km/h | 26915m | 4.8m/s | -49.8°C | 0.7% | 20.1hPa | 2.6V | 03:46:11 | 02:04:21 | 00:00:00 | |
| DM0DOS-11 | 2026-08-31 12:21:27 | 49.86787 | 13.15705 | 52° | 11km/h | 26882m | 6m/s | -49.5°C | 3.7% | 20.1hPa | 2.6V | 03:46:02 | 02:04:15 | 00:00:00 | |
| HSKMA3-T | 2026-08-31 12:21:25 | 49.86790 | 13.15712 | 67° | 7km/h | 26893m | 5m/s | -49.5°C | 0.6% | 20.1hPa | 2.7V | 03:46:11 | 02:04:17 | 00:00:00 | |
| AA1-15 | 2026-08-31 12:21:24 | 49.86789 | 13.15709 | 62° | 9km/h | 26888m | 4.9m/s | -49.5°C | 0.5% | 20.1hPa | 2.6V | 03:46:11 | 02:04:16 | 00:00:00 | |
| DL1XH1-15 | 2026-08-31 12:21:23 | 49.86781 | 13.15687 | 86° | 16km/h | 26861m | 6.6m/s | -49.4°C | 3.7% | 20.2hPa | 2.7V | 03:46:06 | 02:04:11 | 00:00:00 | |
| DF8AY | 2026-08-31 12:21:19 | 49.86782 | 13.15693 | 70° | 15km/h | 26867m | 4.8m/s | -49.5°C | 0.5% | 20.2hPa | 2.7V | 03:47:02 | 02:04:12 | 00:00:00 | |
| DL1XH-west | 2026-08-31 12:21:17 | 49.86781 | 13.15681 | 102° | 16km/h | 26854m | 6m/s | -49.4°C | 0.6% | 20.2hPa | 2.6V | 03:46:11 | 02:04:10 | 00:00:00 | |
| HSKMA3-T | 2026-08-31 12:21:13 | 49.86784 | 13.15667 | 317° | 4km/h | 26833m | 6.2m/s | -49.4°C | 0.5% | 20.3hPa | 2.7V | 03:46:11 | 02:04:06 | 00:00:00 | |
| AA1-15 | 2026-08-31 12:21:13 | 49.86783 | 13.15669 | 310° | 9km/h | 26828m | 4.9m/s | -49.4°C | 0.5% | 20.3hPa | 2.7V | 03:47:02 | 02:04:05 | 00:00:00 | |
| DL1XH-west | 2026-08-31 12:21:07 | 49.86775 | 13.15677 | 33° | 5km/h | 26800m | 4.6m/s | -49.4°C | 0.6% | 20.4hPa | 2.7V | 03:47:02 | 02:04:00 | 00:00:00 | |
| PETON7-10 | 2026-08-31 12:21:06 | 49.86774 | 13.15675 | 37° | 13km/h | 26796m | 5.9m/s | -49.4°C | 3.7% | 20.4hPa | 2.7V | 00:00:00 | 00:00:00 | 00:00:00 | |
| NBG1-10 | 2026-08-31 12:21:05 | 49.86773 | 13.15674 | 39° | 16km/h | 26789m | 6.3m/s | -49.4°C | 3.7% | 20.4hPa | 2.7V | 00:00:00 | 02:03:58 | 00:00:00 | |
| DM0DOS-11 | 2026-08-31 12:21:04 | 49.86771 | 13.15665 | 89° | 13km/h | 26772m | 6.6m/s | -49.4°C | 3.8% | 20.5hPa | 2.7V | 03:46:22 | 02:03:55 | 00:00:00 | |
| HSKMA3-T | 2026-08-31 12:21:03 | 49.86771 | 13.15669 | 75° | 9km/h | 26778m | 5m/s | -49.3°C | 0.6% | 20.5hPa | 2.6V | 03:47:02 | 02:03:56 | 00:00:00 | |
| AA1-15 | 2026-08-31 12:21:02 | 49.86771 | 13.15660 | 94° | 15km/h | 26766m | 5.9m/s | -49.4°C | 0.5% | 20.5hPa | 2.7V | 03:47:02 | 02:03:54 | 00:00:00 | |
| DF8AY | 2026-08-31 12:21:01 | 49.86771 | 13.15655 | 90° | 13km/h | 26761m | 4.2m/s | -49.3°C | 0.5% | 20.5hPa | 2.7V | 03:47:02 | 02:03:53 | 00:00:00 | |
| DL1XH-west | 2026-08-31 12:20:56 | 49.86762 | 13.15646 | 353° | 18km/h | 26739m | 5.5m/s | -49.3°C | 0.5% | 20.6hPa | 2.7V | 03:47:02 | 02:03:49 | 00:00:00 | |
| PG1ADW-2 | 2026-08-31 12:20:55 | 49.86757 | 13.15647 | 355° | 18km/h | 26733m | 5.1m/s | -49.3°C | 3.7% | 20.5hPa | 2.6V | 00:00:00 | 00:00:00 | 00:00:00 | |
| DM0DOS-11 | 2026-08-31 12:20:54 | 49.86743 | 13.15642 | 41° | 18km/h | 26716m | 5.4m/s | -49.3°C | 3.7% | 20.7hPa | 2.6V | 03:46:32 | 02:03:45 | 00:00:00 | |
| HSKMA3-T | 2026-08-31 12:20:53 | 49.86743 | 13.15642 | 41° | 18km/h | 26716m | 5.4m/s | -49.3°C | 0.5% | 20.7hPa | 2.6V | 03:47:02 | 02:03:45 | 00:00:00 | |
| AA1-15 | 2026-08-31 12:20:50 | 49.86738 | 13.15631 | 67° | 16km/h | 26705m | 6m/s | -49.3°C | 0.5% | 20.7hPa | 2.7V | 03:47:02 | 02:03:43 | 00:00:00 | |
| DF8AY | 2026-08-31 12:20:47 | 49.86736 | 13.15616 | 76° | 13km/h | 26688m | 4.9m/s | -49.4°C | 0.5% | 20.8hPa | 2.6V | 03:47:02 | 02:03:40 | 00:00:00 | |
| DL1XH-west | 2026-08-31 12:20:45 | 49.86733 | 13.15605 | 55° | 16km/h | 26676m | 5.8m/s | -49.3°C | 0.5% | 20.8hPa | 2.6V | 03:47:02 | 02:03:38 | 00:00:00 | |
| HSKMA3-T | 2026-08-31 12:20:42 | 49.86720 | 13.15598 | 353° | 22km/h | 26659m | 7m/s | -49.4°C | 0.5% | 20.8hPa | 2.6V | 03:47:02 | 02:03:35 | 00:00:00 | |
| DM0DOS-11 | 2026-08-31 12:20:42 | 49.86715 | 13.15600 | 343° | 26km/h | 26653m | 5m/s | -49.4°C | 3.7% | 20.9hPa | 2.6V | 03:46:43 | 02:03:34 | 00:00:00 | |
| DL1XH1-15 | 2026-08-31 12:20:42 | 49.86698 | 13.15605 | 7° | 18km/h | 26638m | 6.1m/s | -49.6°C | 3.7% | 20.9hPa | 2.6V | 03:46:46 | 02:03:31 | 00:00:00 | |
| AA1-15 | 2026-08-31 12:20:40 | 49.86703 | 13.15605 | 351° | 22km/h | 26644m | 5.6m/s | -49.5°C | 0.5% | 20.9hPa | 2.7V | 03:47:02 | 02:03:32 | 00:00:00 | |
| DL1XH-west | 2026-08-31 12:20:34 | 49.86688 | 13.15585 | 74° | 18km/h | 26615m | 6.3m/s | -49.5°C | 0.6% | 21hPa | 2.6V | 03:47:02 | 02:03:27 | 00:00:00 | |
| DL1JHR | 2026-08-31 12:20:33 | 49.86688 | 13.15585 | 75° | 18km/h | 26615m | 6.3m/s | 0°C | 0% | 0hPa | 2.6V | 00:00:00 | 00:00:00 | 00:00:00 | |
| DM0DOS-11 | 2026-08-31 12:20:32 | 49.86679 | 13.15561 | 49° | 22km/h | 26593m | 5.8m/s | -49.5°C | 3.7% | 21.1hPa | 2.6V | 03:46:54 | 02:03:23 | 00:00:00 | |
| HSKMA3-T | 2026-08-31 12:20:32 | 49.86685 | 13.15573 | 60° | 16km/h | 26604m | 5m/s | -49.3°C | 0.5% | 21hPa | 2.7V | 03:47:02 | 02:03:25 | 00:00:00 | |
| AA1-15 | 2026-08-31 12:20:28 | 49.86671 | 13.15546 | 48° | 27km/h | 26582m | 5.2m/s | -49.4°C | 0.5% | 21.1hPa | 2.7V | 03:47:02 | 02:03:21 | 00:00:00 | |
| DL1XH-west | 2026-08-31 12:20:23 | 49.86650 | 13.15526 | 14° | 13km/h | 26554m | 5.5m/s | -49.7°C | 0.5% | 21.2hPa | 2.7V | 03:47:02 | 02:03:16 | 00:00:00 | |
| DM0DOS-11 | 2026-08-31 12:20:22 | 49.86642 | 13.15519 | 38° | 15km/h | 26537m | 4.4m/s | -49.5°C | 3.8% | 21.2hPa | 2.6V | 03:47:04 | 02:03:13 | 00:00:00 | |
| HSKMA3-T | 2026-08-31 12:20:21 | 49.86644 | 13.15522 | 36° | 13km/h | 26542m | 5.2m/s | -49.5°C | 0.6% | 21.2hPa | 2.7V | 03:47:53 | 02:03:14 | 00:00:00 | |
| PETON7-10 | 2026-08-31 12:20:21 | 49.86644 | 13.15522 | 37° | 15km/h | 26542m | 5.2m/s | -49.4°C | 3.7% | 21.2hPa | 2.6V | 00:00:00 | 00:00:00 | 00:00:00 | |
| DL1XH1-15 | 2026-08-31 12:20:19 | 49.86636 | 13.15513 | 22° | 15km/h | 26527m | 6.2m/s | -49.7°C | 3.7% | 21.3hPa | 2.6V | 03:47:06 | 02:03:11 | 00:00:00 | |
| DF8AY | 2026-08-31 12:20:18 | 49.86636 | 13.15513 | 22° | 15km/h | 26527m | 6.2m/s | -49.7°C | 0.5% | 21.3hPa | 2.6V | 03:47:53 | 02:03:11 | 00:00:00 | |
| AA1-15 | 2026-08-31 12:20:17 | 49.86632 | 13.15511 | 11° | 16km/h | 26521m | 6m/s | -49.8°C | 0.6% | 21.3hPa | 2.7V | 03:47:53 | 02:03:10 | 00:00:00 | |
| PG1ADW-2 | 2026-08-31 12:20:15 | 49.86622 | 13.15509 | 13° | 13km/h | 26510m | 5.2m/s | -49.6°C | 3.7% | 21.3hPa | 2.7V | 00:00:00 | 00:00:00 | 00:00:00 | |
| DO8TBO-1 | 2026-08-31 12:20:14 | 49.86617 | 13.15506 | 22° | 11km/h | 26504m | 6.1m/s | -49.6°C | 3.7% | 21.3hPa | 2.6V | 00:00:00 | 02:03:07 | 00:00:00 | |
| DL1XH1-15 | 2026-08-31 12:20:13 | 49.86600 | 13.15498 | 310° | 11km/h | 26471m | 4.5m/s | -49.6°C | 3.8% | 21.4hPa | 2.6V | 03:47:16 | 02:03:01 | 00:00:00 | |
| DL1XH-west | 2026-08-31 12:20:13 | 49.86609 | 13.15499 | 37° | 16km/h | 26494m | 4.9m/s | -49.7°C | 0.6% | 21.4hPa | 2.6V | 03:47:53 | 02:03:05 | 00:00:00 | |
| DM0DOS-11 | 2026-08-31 12:20:12 | 49.86604 | 13.15494 | 7° | 9km/h | 26483m | 6.4m/s | -49.7°C | 3.8% | 21.4hPa | 2.7V | 03:47:14 | 02:03:03 | 00:00:00 | |
| HSKMA3-T | 2026-08-31 12:20:10 | 49.86602 | 13.15495 | 326° | 9km/h | 26476m | 6.1m/s | -49.6°C | 0.5% | 21.5hPa | 2.7V | 03:47:53 | 02:03:02 | 00:00:00 | |
| AA1-15 | 2026-08-31 12:20:07 | 49.86598 | 13.15501 | 313° | 13km/h | 26466m | 4.4m/s | -49.7°C | 0.6% | 21.5hPa | 2.6V | 03:47:53 | 02:03:00 | 00:00:00 | |
| EDDB2-12 | 2026-08-31 12:20:07 | 49.86595 | 13.15504 | 328° | 11km/h | 26462m | 5.9m/s | -49.8°C | 1.0% | 21.5hPa | 2.7V | 00:00:00 | 00:00:00 | 00:00:00 | |
| PETON7-10 | 2026-08-31 12:20:06 | 49.86595 | 13.15504 | 329° | 15km/h | 26462m | 5.9m/s | -49.8°C | 3.8% | 21.5hPa | 2.7V | 00:00:00 | 02:02:59 | 00:00:00 | |
| DL1JHR | 2026-08-31 12:20:05 | 49.86595 | 13.15504 | 330° | 11km/h | 26462m | 5.9m/s | 0°C | 0% | 0hPa | 2.7V | 00:00:00 | 00:00:00 | 00:00:00 | |
| ANDY1245 | 2026-08-31 12:20:04 | 49.86592 | 13.15505 | 354° | 13km/h | 26456m | 6.0m/s | -49.8°C | 1.1% | 21.5hPa | 2.7V | 00:00:00 | 00:00:00 | 00:00:00 | |
| DM0DOS-11 | 2026-08-31 12:20:02 | 49.86570 | 13.15499 | 350° | 13km/h | 26424m | 5.2m/s | -49.8°C | 3.7% | 21.6hPa | 2.7V | 03:47:25 | 02:02:52 | 00:00:00 | |
| HSKMA3-T | 2026-08-31 12:20:01 | 49.86574 | 13.15499 | 1° | 15km/h | 26429m | 5.6m/s | -49.9°C | 0.6% | 21.6hPa | 2.6V | 03:47:53 | 02:02:53 | 00:00:00 | |
| DB0ND-19 | 2026-08-31 12:20:00 | 49.86571 | 13.15499 | 350° | 11km/h | 26424m | 5.2m/s | -49.8°C | 1.0% | 21.6hPa | 2.7V | 00:00:00 | 00:00:00 | 00:00:00 | |
| DL1XH1-15 | 2026-08-31 12:19:59 | 49.86568 | 13.15500 | 345° | 9km/h | 26419m | 4.7m/s | -49.8°C | 3.7% | 21.6hPa | 2.7V | 03:47:26 | 02:02:51 | 00:00:00 | |
| AA1-15 | 2026-08-31 12:19:56 | 49.86565 | 13.15500 | 14° | 4km/h | 26407m | 6m/s | -49.9°C | 0.6% | 21.7hPa | 2.6V | 03:47:53 | 02:02:49 | 00:00:00 | |
| DF8AY | 2026-08-31 12:19:53 | 49.86552 | 13.15531 | 353° | 11km/h | 26354m | 5m/s | -49.8°C | 0.5% | 21.9hPa | 2.7V | 03:47:53 | 02:02:39 | 00:00:00 | |
| DL1XH1-15 | 2026-08-31 12:19:53 | 49.86557 | 13.15529 | 325° | 13km/h | 26364m | 6m/s | -49.9°C | 3.8% | 21.8hPa | 2.6V | 03:47:36 | 02:02:41 | 00:00:00 | |
| DL1XH-west | 2026-08-31 12:19:50 | 49.86557 | 13.15529 | 326° | 13km/h | 26364m | 6m/s | -49.9°C | 0.6% | 21.8hPa | 2.6V | 03:47:53 | 02:02:41 | 00:00:00 | |
| HSKMA3-T | 2026-08-31 12:19:49 | 49.86559 | 13.15525 | 303° | 15km/h | 26370m | 5.9m/s | -49.8°C | 0.6% | 21.8hPa | 2.6V | 03:47:53 | 02:02:42 | 00:00:00 | |
| AA1-15 | 2026-08-31 12:19:45 | 49.86549 | 13.15532 | 344° | 9km/h | 26348m | 5.7m/s | -49.8°C | 0.5% | 21.9hPa | 2.7V | 03:47:53 | 02:02:38 | 00:00:00 | |
| DM0DOS-11 | 2026-08-31 12:19:44 | 49.86546 | 13.15543 | 247° | 7km/h | 26316m | 4.5m/s | -50°C | 3.8% | 22hPa | 2.6V | 03:47:45 | 02:02:32 | 00:00:00 | |
| DF8AY | 2026-08-31 12:19:44 | 49.86546 | 13.15537 | 294° | 5km/h | 26333m | 4.7m/s | -49.9°C | 0.6% | 21.9hPa | 2.6V | 03:47:53 | 02:02:35 | 00:00:00 | |
| DL1XH-west | 2026-08-31 12:19:39 | 49.86551 | 13.15559 | 244° | 22km/h | 26300m | 5.8m/s | -49.9°C | 0.6% | 22hPa | 2.7V | 03:47:53 | 02:02:29 | 00:00:00 | |
| HSKMA3-T | 2026-08-31 12:19:39 | 49.86546 | 13.15543 | 247° | 7km/h | 26317m | 4.5m/s | -50°C | 0.6% | 22hPa | 2.6V | 03:47:53 | 02:02:32 | 00:00:00 | |
| AA1-15 | 2026-08-31 12:19:34 | 49.86555 | 13.15574 | 251° | 18km/h | 26291m | 4.1m/s | -50°C | 0.6% | 22.1hPa | 2.6V | 03:47:53 | 02:02:27 | 00:00:00 | |
| DF8AY | 2026-08-31 12:19:33 | 49.86553 | 13.15581 | 37° | 7km/h | 26270m | 4.4m/s | -50.1°C | 0.6% | 22.1hPa | 2.6V | 03:49:35 | 02:02:23 | 00:00:00 | |
| DM0DOS-11 | 2026-08-31 12:19:33 | 49.86552 | 13.15579 | 32° | 7km/h | 26265m | 5.6m/s | -50.1°C | 3.8% | 22.2hPa | 2.7V | 03:47:55 | 02:02:22 | 00:00:00 | |
| DK5PH-5 | 2026-08-31 12:19:33 | 49.86556 | 13.15582 | 302° | 5km/h | 26280m | 5.8m/s | -49.9°C | 3.7% | 22.1hPa | 2.7V | 00:00:00 | 02:02:25 | 00:00:00 | |
| DF2AP-13 | 2026-08-31 12:19:31 | 49.86555 | 13.15582 | 26° | 5km/h | 26275m | 4.9m/s | -49.9°C | 3.7% | 22.1hPa | 2.6V | 00:00:00 | 02:02:24 | 00:00:00 | |
| DL1XH1-15 | 2026-08-31 12:19:29 | 49.86551 | 13.15579 | 0° | 4km/h | 26259m | 5.8m/s | -50°C | 3.8% | 22.2hPa | 2.7V | 03:47:56 | 02:02:21 | 00:00:00 | |
| HSKMA3-T | 2026-08-31 12:19:29 | 49.86552 | 13.15579 | 32° | 7km/h | 26265m | 5.6m/s | -50.1°C | 0.6% | 22.2hPa | 2.7V | 03:48:44 | 02:02:22 | 00:00:00 | |
| DL1XH-west | 2026-08-31 12:19:28 | 49.86550 | 13.15579 | 264° | 4km/h | 26253m | 5.3m/s | -50°C | 0.6% | 22.2hPa | 2.6V | 03:48:44 | 02:02:20 | 00:00:00 | |
| AA1-15 | 2026-08-31 12:19:23 | 49.86554 | 13.15593 | 261° | 9km/h | 26233m | 5.9m/s | -49.9°C | 0.6% | 22.3hPa | 2.7V | 03:48:44 | 02:02:16 | 00:00:00 | |
| DL1XH1-15 | 2026-08-31 12:19:23 | 49.86554 | 13.15607 | 250° | 11km/h | 26206m | 6.1m/s | -50°C | 3.8% | 22.4hPa | 2.7V | 03:48:06 | 02:02:11 | 00:00:00 | |
| DM0DOS-11 | 2026-08-31 12:19:22 | 49.86553 | 13.15603 | 261° | 7km/h | 26212m | 5.9m/s | -50.1°C | 3.9% | 22.4hPa | 2.6V | 03:48:05 | 02:02:12 | 00:00:00 | |
| DF8AY | 2026-08-31 12:19:21 | 49.86553 | 13.15599 | 286° | 5km/h | 26222m | 4.7m/s | -50°C | 0.6% | 22.3hPa | 2.6V | 03:49:35 | 02:02:14 | 00:00:00 | |
| HSKMA3-T | 2026-08-31 12:19:19 | 49.86554 | 13.15607 | 251° | 11km/h | 26206m | 6.1m/s | -50°C | 0.6% | 22.4hPa | 2.7V | 03:48:44 | 02:02:11 | 00:00:00 | |
| DL1XH-west | 2026-08-31 12:19:17 | 49.86556 | 13.15615 | 245° | 11km/h | 26195m | 5.1m/s | -49.9°C | 0.6% | 22.4hPa | 2.7V | 03:48:44 | 02:02:09 | 00:00:00 | |
| AA1-15 | 2026-08-31 12:19:13 | 49.86557 | 13.15619 | 73° | 2km/h | 26172m | 5.1m/s | -49.9°C | 0.5% | 22.5hPa | 2.7V | 03:48:44 | 02:02:05 | 00:00:00 | |
| DM0DOS-11 | 2026-08-31 12:19:12 | 49.86557 | 13.15621 | 273° | 5km/h | 26156m | 4.9m/s | -50°C | 3.7% | 22.5hPa | 2.6V | 03:48:15 | 02:02:02 | 00:00:00 | |
| DF8AY | 2026-08-31 12:19:11 | 49.86557 | 13.15621 | 273° | 5km/h | 26156m | 4.9m/s | -50°C | 0.6% | 22.5hPa | 2.6V | 03:49:35 | 02:02:02 | 00:00:00 | |
| DL1XH1-15 | 2026-08-31 12:19:09 | 49.86557 | 13.15623 | 294° | 7km/h | 26151m | 4.5m/s | -50°C | 3.8% | 22.5hPa | 2.6V | 03:48:16 | 02:02:01 | 00:00:00 | |
| HSKMA3-T | 2026-08-31 12:19:08 | 49.86557 | 13.15623 | 294° | 7km/h | 26151m | 4.6m/s | -50°C | 0.6% | 22.6hPa | 2.6V | 03:48:44 | 02:02:01 | 00:00:00 | |
| DL1XH-west | 2026-08-31 12:19:07 | 49.86555 | 13.15627 | 348° | 7km/h | 26140m | 6.5m/s | -50°C | 0.6% | 22.6hPa | 2.7V | 03:48:44 | 02:01:59 | 00:00:00 | |
| SFWM-10 | 2026-08-31 12:19:07 | 49.86556 | 13.15625 | 322° | 7km/h | 26146m | 5.8m/s | 0°C | 0% | 0hPa | 2.7V | 03:48:00 | 00:00:00 | 00:00:00 | |
| EDDB2-12 | 2026-08-31 12:19:05 | 49.86551 | 13.15626 | 11° | 5km/h | 26128m | 5.4m/s | -50.0°C | 1.0% | 22.6hPa | 2.7V | 00:00:00 | 00:00:00 | 00:00:00 | |
| DL1XH1-15 | 2026-08-31 12:19:04 | 49.86552 | 13.15622 | 84° | 9km/h | 26095m | 5.8m/s | -49.9°C | 3.8% | 22.7hPa | 2.7V | 03:48:26 | 02:01:51 | 00:00:00 | |
| AA1-15 | 2026-08-31 12:19:02 | 49.86549 | 13.15626 | 250° | 2km/h | 26116m | 5.6m/s | -49.9°C | 0.7% | 22.7hPa | 2.6V | 03:48:44 | 02:01:55 | 00:00:00 | |
| DF8AY | 2026-08-31 12:19:00 | 49.86551 | 13.15626 | 150° | 4km/h | 26107m | 4.8m/s | -49.9°C | 0.7% | 22.7hPa | 2.7V | 03:49:35 | 02:01:53 | 00:00:00 | |
| HSKMA3-T | 2026-08-31 12:18:58 | 49.86552 | 13.15622 | 84° | 9km/h | 26095m | 5.8m/s | -49.9°C | 0.6% | 22.7hPa | 2.7V | 03:48:44 | 02:01:51 | 00:00:00 | |
| DL1XH-west | 2026-08-31 12:18:56 | 49.86550 | 13.15616 | 47° | 9km/h | 26085m | 5.2m/s | -50°C | 0.6% | 22.8hPa | 2.6V | 03:48:44 | 02:01:49 | 00:00:00 | |
| DL9SK-14 | 2026-08-31 12:18:54 | 49.86546 | 13.15613 | 357° | 7km/h | 26073m | 5.8m/s | -50.0°C | 1.0% | 22.8hPa | 2.6V | 00:00:00 | 00:00:00 | 00:00:00 | |
| NBG1-10 | 2026-08-31 12:18:53 | 49.86544 | 13.15614 | 352° | 16km/h | 26068m | 4.5m/s | -50.0°C | 3.8% | 22.8hPa | 2.6V | 00:00:00 | 02:01:46 | 00:00:00 | |
| DL1XH1-15 | 2026-08-31 12:18:52 | 49.86536 | 13.15599 | 82° | 15km/h | 26040m | 5.3m/s | -49.9°C | 3.9% | 22.9hPa | 2.6V | 03:48:36 | 02:01:41 | 00:00:00 | |
| AA1-15 | 2026-08-31 12:18:52 | 49.86542 | 13.15614 | 8° | 7km/h | 26063m | 4.8m/s | -50.1°C | 0.6% | 22.9hPa | 2.6V | 03:48:44 | 02:01:45 | 00:00:00 | |
| DM0DOS-11 | 2026-08-31 12:18:51 | 49.86536 | 13.15589 | 99° | 11km/h | 26028m | 5.2m/s | -50°C | 3.8% | 23hPa | 2.7V | 03:48:38 | 02:01:39 | 00:00:00 | |
| DF8AY | 2026-08-31 12:18:49 | 49.86537 | 13.15579 | 87° | 15km/h | 26019m | 5.2m/s | -50°C | 0.6% | 23hPa | 2.6V | 03:49:35 | 02:01:37 | 00:00:00 | |
| HSKMA3-T | 2026-08-31 12:18:47 | 49.86536 | 13.15593 | 91° | 13km/h | 26034m | 6.5m/s | -50°C | 0.6% | 22.9hPa | 2.6V | 03:48:44 | 02:01:40 | 00:00:00 | |
| DL1XH-west | 2026-08-31 12:18:46 | 49.86536 | 13.15589 | 100° | 11km/h | 26028m | 5.2m/s | -50°C | 0.6% | 23hPa | 2.7V | 03:48:44 | 02:01:39 | 00:00:00 | |
| ANDY1245 | 2026-08-31 12:18:45 | 49.86536 | 13.15588 | 101° | 11km/h | 26029m | 5.2m/s | -50.0°C | 1.1% | 23.0hPa | 2.6V | 03:48:00 | 00:00:00 | 00:00:00 | |
| DO8TBO-1 | 2026-08-31 12:18:44 | 49.86536 | 13.15579 | 87° | 16km/h | 26019m | 5.1m/s | -50.0°C | 3.8% | 23.0hPa | 2.6V | 03:48:00 | 02:01:37 | 00:00:00 | |
| DL1XH1-15 | 2026-08-31 12:18:43 | 49.86517 | 13.15551 | 2° | 20km/h | 25985m | 5.7m/s | -49.7°C | 3.6% | 23.1hPa | 2.6V | 03:48:46 | 02:01:31 | 00:00:00 | |
| DM0DOS-11 | 2026-08-31 12:18:41 | 49.86508 | 13.15551 | 8° | 16km/h | 25975m | 4.8m/s | -49.8°C | 3.7% | 23.2hPa | 2.6V | 03:48:48 | 02:01:29 | 00:00:00 | |
| AA1-15 | 2026-08-31 12:18:41 | 49.86531 | 13.15560 | 45° | 20km/h | 26002m | 4.6m/s | -50°C | 0.6% | 23.1hPa | 2.7V | 03:48:44 | 02:01:34 | 00:00:00 | |
| DF8AY | 2026-08-31 12:18:37 | 49.86513 | 13.15551 | 360° | 18km/h | 25980m | 4.8m/s | -49.7°C | 0.6% | 23.2hPa | 2.6V | 03:49:35 | 02:01:30 | 00:00:00 | |
| HSKMA3-T | 2026-08-31 12:18:36 | 49.86508 | 13.15551 | 9° | 16km/h | 25975m | 4.8m/s | -49.8°C | 0.5% | 23.2hPa | 2.6V | 03:49:35 | 02:01:29 | 00:00:00 | |
| DL1XH-west | 2026-08-31 12:18:35 | 49.86501 | 13.15545 | 48° | 16km/h | 25963m | 5.7m/s | -49.9°C | 0.6% | 23.2hPa | 2.7V | 03:49:35 | 02:01:27 | 00:00:00 | |
| PG1ADW-2 | 2026-08-31 12:18:35 | 49.86504 | 13.15549 | 27° | 18km/h | 25970m | 6.3m/s | -49.8°C | 3.8% | 23.1hPa | 2.7V | 03:48:00 | 00:00:00 | 00:00:00 | |
| EDDB2-12 | 2026-08-31 12:18:34 | 49.86499 | 13.15540 | 63° | 16km/h | 25958m | 5.3m/s | -50.0°C | 1.0% | 23.2hPa | 2.7V | 00:00:00 | 00:00:00 | 00:00:00 | |
| DL1XH1-15 | 2026-08-31 12:18:33 | 49.86492 | 13.15514 | 50° | 16km/h | 25930m | 6.2m/s | -50.2°C | 3.9% | 23.4hPa | 2.7V | 03:48:56 | 02:01:21 | 00:00:00 | |
| AA1-15 | 2026-08-31 12:18:30 | 49.86496 | 13.15524 | 74° | 13km/h | 25940m | 5m/s | -50.1°C | 0.6% | 23.3hPa | 2.6V | 03:49:35 | 02:01:23 | 00:00:00 | |
| DJ2DS-15 | 2026-08-31 12:18:29 | 49.86494 | 13.15519 | 62° | 18km/h | 25936m | 4.8m/s | -50.1°C | 3.9% | 23.3hPa | 2.6V | 00:00:00 | 02:01:22 | 00:00:00 | |
| DM0DOS-11 | 2026-08-31 12:18:28 | 49.86485 | 13.15505 | 24° | 24km/h | 25919m | 5m/s | -50.3°C | 3.9% | 23.4hPa | 2.6V | 03:48:58 | 02:01:19 | 00:00:00 | |
| DF8AY | 2026-08-31 12:18:26 | 49.86484 | 13.15505 | 25° | 24km/h | 25919m | 5m/s | -50.3°C | 0.7% | 23.4hPa | 2.6V | 03:49:35 | 02:01:19 | 00:00:00 | |
| DL1XH-west | 2026-08-31 12:18:25 | 49.86479 | 13.15502 | 13° | 24km/h | 25913m | 5.7m/s | -50.3°C | 0.7% | 23.4hPa | 2.6V | 03:49:35 | 02:01:18 | 00:00:00 | |
| AA1-15 | 2026-08-31 12:18:20 | 49.86449 | 13.15501 | 15° | 20km/h | 25885m | 5.8m/s | -50°C | 0.6% | 23.5hPa | 2.6V | 03:49:35 | 02:01:13 | 00:00:00 | |
| DB0NH | 2026-08-31 12:18:20 | 49.86449 | 13.15501 | 16° | 20km/h | 25885m | 5.8m/s | -50.0°C | 3.8% | 23.4hPa | 2.7V | 00:00:00 | 02:01:13 | 00:00:00 | |
| DO3MHA-11 | 2026-08-31 12:18:19 | 49.86445 | 13.15498 | 28° | 16km/h | 25879m | 5.2m/s | -50.0°C | 3.8% | 23.5hPa | 2.7V | 03:49:00 | 02:01:12 | 00:00:00 | |
| DM0DOS-11 | 2026-08-31 12:18:17 | 49.86438 | 13.15490 | 41° | 9km/h | 25862m | 5.2m/s | -49.9°C | 3.8% | 23.6hPa | 2.7V | 03:49:08 | 02:01:09 | 00:00:00 | |
| DF8AY | 2026-08-31 12:18:15 | 49.86436 | 13.15488 | 38° | 9km/h | 25857m | 4.7m/s | -49.9°C | 0.6% | 23.6hPa | 2.7V | 03:49:35 | 02:01:08 | 00:00:00 | |
| HSKMA3-T | 2026-08-31 12:18:14 | 49.86434 | 13.15485 | 36° | 13km/h | 25851m | 5.9m/s | -49.9°C | 0.6% | 23.6hPa | 2.6V | 03:49:35 | 02:01:07 | 00:00:00 | |
| DL1XH1-15 | 2026-08-31 12:18:13 | 49.86403 | 13.15482 | 342° | 26km/h | 25819m | 4.7m/s | -49.9°C | 3.7% | 23.7hPa | 2.6V | 03:49:16 | 02:01:01 | 00:00:00 | |
| AA1-15 | 2026-08-31 12:18:09 | 49.86409 | 13.15479 | 345° | 26km/h | 25824m | 5.9m/s | -49.8°C | 0.6% | 23.7hPa | 2.6V | 03:49:35 | 02:01:02 | 00:00:00 | |
| DO3MHA-11 | 2026-08-31 12:18:09 | 49.86408 | 13.15479 | 345° | 20km/h | 25824m | 5.8m/s | -49.8°C | 3.8% | 23.7hPa | 2.6V | 00:00:00 | 02:01:02 | 00:00:00 | |
| OE5MMP-10 | 2026-08-31 12:18:08 | 49.86402 | 13.15482 | 343° | 20km/h | 25819m | 4.7m/s | -49.8°C | 3.7% | 23.7hPa | 2.7V | 00:00:00 | 02:01:01 | 00:00:00 | |
| DM0DOS-11 | 2026-08-31 12:18:07 | 49.86370 | 13.15479 | 18° | 16km/h | 25785m | 6.5m/s | -49.9°C | 3.7% | 23.8hPa | 2.7V | 03:49:22 | 02:00:55 | 00:00:00 | |
| DF8AY | 2026-08-31 12:18:05 | 49.86362 | 13.15476 | 7° | 15km/h | 25774m | 4.7m/s | -49.8°C | 0.6% | 23.9hPa | 2.6V | 03:49:35 | 02:00:53 | 00:00:00 | |
| DF3TZ-5 | 2026-08-31 12:18:05 | 49.86366 | 13.15477 | 10° | 13km/h | 25779m | 5.1m/s | -49.9°C | 1.0% | 23.9hPa | 2.7V | 00:00:00 | 00:00:00 | 00:00:00 | |
| DL1XH1-15 | 2026-08-31 12:18:03 | 49.86353 | 13.15474 | 11° | 22km/h | 25764m | 6.3m/s | -49.9°C | 3.8% | 23.9hPa | 2.7V | 03:49:26 | 02:00:51 | 00:00:00 | |
| HSKMA3-T | 2026-08-31 12:18:03 | 49.86374 | 13.15481 | 21° | 18km/h | 25791m | 6.3m/s | -49.9°C | 0.6% | 23.8hPa | 2.7V | 03:49:35 | 02:00:56 | 00:00:00 | |
| AA1-15 | 2026-08-31 12:17:59 | 49.86348 | 13.15472 | 12° | 26km/h | 25758m | 5.6m/s | -50°C | 0.6% | 24hPa | 2.7V | 03:49:35 | 02:00:50 | 00:00:00 | |
| DO3MHA-11 | 2026-08-31 12:17:59 | 49.86358 | 13.15475 | 9° | 27km/h | 25769m | 5.0m/s | -49.8°C | 3.7% | 23.9hPa | 2.6V | 00:00:00 | 02:00:52 | 00:00:00 | |
| OE5MMP-10 | 2026-08-31 12:17:58 | 49.86353 | 13.15474 | 12° | 27km/h | 25764m | 6.2m/s | -49.9°C | 3.8% | 23.9hPa | 2.6V | 00:00:00 | 02:00:51 | 00:00:00 | |
| DL1JHR | 2026-08-31 12:17:56 | 49.86341 | 13.15471 | 7° | 27km/h | 25753m | 4.8m/s | 0°C | 0% | 0hPa | 2.6V | 00:00:00 | 00:00:00 | 00:00:00 | |
| PG1ADW-2 | 2026-08-31 12:17:55 | 49.86334 | 13.15470 | 359° | 24km/h | 25747m | 6.1m/s | -50.0°C | 3.8% | 23.9hPa | 2.6V | 00:00:00 | 02:00:48 | 00:00:00 | |
| DL1XH1-15 | 2026-08-31 12:17:53 | 49.86285 | 13.15488 | 346° | 24km/h | 25707m | 6m/s | -50.2°C | 3.9% | 24.1hPa | 2.6V | 03:49:36 | 02:00:41 | 00:00:00 | |
| DL1XH-west | 2026-08-31 12:17:52 | 49.86313 | 13.15478 | 341° | 31km/h | 25730m | 4.6m/s | -50.2°C | 0.7% | 24.1hPa | 2.7V | 03:49:35 | 02:00:45 | 00:00:00 | |
| DF8AY | 2026-08-31 12:17:50 | 49.86291 | 13.15486 | 350° | 27km/h | 25713m | 4.6m/s | -50.2°C | 0.7% | 24.1hPa | 2.6V | 03:49:35 | 02:00:42 | 00:00:00 | |
| AA1-15 | 2026-08-31 12:17:47 | 49.86275 | 13.15493 | 338° | 18km/h | 25695m | 5.4m/s | -50.1°C | 0.6% | 24.2hPa | 2.7V | 03:50:26 | 02:00:39 | 00:00:00 | |
| HSKMA3-T | 2026-08-31 12:17:42 | 49.86258 | 13.15499 | 348° | 20km/h | 25673m | 5m/s | -50°C | 0.6% | 24.3hPa | 2.6V | 03:50:26 | 02:00:35 | 00:00:00 | |
| DL1XH-west | 2026-08-31 12:17:41 | 49.86253 | 13.15501 | 339° | 20km/h | 25667m | 6.2m/s | -50.1°C | 0.6% | 24.3hPa | 2.6V | 03:50:26 | 02:00:34 | 00:00:00 | |
| DM0DOS-11 | 2026-08-31 12:17:41 | 49.86243 | 13.15510 | 322° | 24km/h | 25655m | 5.3m/s | -50.1°C | 3.8% | 24.4hPa | 2.7V | 03:49:45 | 02:00:32 | 00:00:00 | |
| DF8AY | 2026-08-31 12:17:40 | 49.86239 | 13.15516 | 325° | 24km/h | 25650m | 5.1m/s | -50.1°C | 0.6% | 0hPa | 2.7V | 03:50:26 | 02:00:31 | 00:00:00 | |
| AA1-15 | 2026-08-31 12:17:36 | 49.86223 | 13.15527 | 344° | 20km/h | 25633m | 4.5m/s | -50.1°C | 0.5% | 24.4hPa | 2.6V | 03:50:26 | 02:00:28 | 00:00:00 | |
| DB0UT-7 | 2026-08-31 12:17:35 | 49.86223 | 13.15527 | 344° | 11km/h | 25633m | 4.4m/s | -50.0°C | 3.7% | 24.4hPa | 2.7V | 00:00:00 | 02:00:28 | 00:00:00 | |
| DL1JHR | 2026-08-31 12:17:33 | 49.86218 | 13.15529 | 342° | 18km/h | 25628m | 5.2m/s | 0°C | 0% | 0hPa | 2.7V | 00:00:00 | 00:00:00 | 00:00:00 | |
| DK5PH-5 | 2026-08-31 12:17:32 | 49.86211 | 13.15535 | 326° | 15km/h | 25616m | 5.7m/s | -50.0°C | 3.8% | 24.5hPa | 2.7V | 00:00:00 | 02:00:25 | 00:00:00 | |
| DM0DOS-11 | 2026-08-31 12:17:31 | 49.86201 | 13.15541 | 353° | 15km/h | 25599m | 6.1m/s | -50°C | 3.8% | 24.6hPa | 2.7V | 03:49:55 | 02:00:22 | 00:00:00 | |
| HSKMA3-T | 2026-08-31 12:17:31 | 49.86208 | 13.15538 | 330° | 15km/h | 25611m | 5.2m/s | -50°C | 0.6% | 24.5hPa | 2.6V | 03:50:26 | 02:00:24 | 00:00:00 | |
| DL1XH-west | 2026-08-31 12:17:31 | 49.86194 | 13.15542 | 350° | 15km/h | 25589m | 4.4m/s | -50.1°C | 0.7% | 24.6hPa | 2.6V | 03:50:26 | 02:00:20 | 00:00:00 | |
| DF2AP-13 | 2026-08-31 12:17:31 | 49.86208 | 13.15538 | 331° | 15km/h | 25611m | 5.2m/s | -49.9°C | 3.8% | 24.5hPa | 2.6V | 00:00:00 | 02:00:24 | 00:00:00 | |
| DL1XH1-15 | 2026-08-31 12:17:30 | 49.86198 | 13.15542 | 356° | 15km/h | 25593m | 4.5m/s | -50.1°C | 3.8% | 24.6hPa | 2.6V | 03:49:56 | 02:00:21 | 00:00:00 | |
| DF8AY | 2026-08-31 12:17:27 | 49.86181 | 13.15556 | 317° | 18km/h | 25568m | 4.4m/s | -50.1°C | 0.5% | 0hPa | 2.6V | 03:50:26 | 02:00:16 | 00:00:00 | |
| AA1-15 | 2026-08-31 12:17:27 | 49.86187 | 13.15547 | 324° | 16km/h | 25578m | 6m/s | -50.1°C | 0.6% | 24.6hPa | 2.7V | 03:50:26 | 02:00:18 | 00:00:00 | |
| ANDY1245 | 2026-08-31 12:17:25 | 49.86190 | 13.15544 | 340° | 15km/h | 25584m | 6.2m/s | -50.1°C | 1.1% | 24.6hPa | 2.6V | 00:00:00 | 00:00:00 | 00:00:00 | |
| DL1XH1-15 | 2026-08-31 12:17:23 | 49.86156 | 13.15568 | 354° | 20km/h | 25541m | 4.2m/s | -50.1°C | 3.8% | 24.8hPa | 2.6V | 03:50:06 | 02:00:11 | 00:00:00 | |
| DM0DOS-11 | 2026-08-31 12:17:21 | 49.86162 | 13.15567 | 354° | 24km/h | 25546m | 4.7m/s | -50.1°C | 3.7% | 24.8hPa | 2.7V | 03:50:05 | 02:00:12 | 00:00:00 | |
| HSKMA3-T | 2026-08-31 12:17:21 | 49.86173 | 13.15564 | 338° | 20km/h | 25557m | 6.2m/s | -50.3°C | 0.5% | 24.7hPa | 2.7V | 03:50:26 | 02:00:14 | 00:00:00 | |
| DL1XH-west | 2026-08-31 12:17:19 | 49.86162 | 13.15567 | 355° | 24km/h | 25546m | 4.7m/s | -50.2°C | 0.5% | 24.8hPa | 2.7V | 03:50:26 | 02:00:12 | 00:00:00 | |
| DF8AY | 2026-08-31 12:17:16 | 49.86148 | 13.15571 | 335° | 15km/h | 25531m | 6.4m/s | -50.2°C | 0.6% | 0hPa | 2.6V | 03:50:26 | 02:00:09 | 00:00:00 | |
| AA1-15 | 2026-08-31 12:17:15 | 49.86145 | 13.15573 | 315° | 11km/h | 25525m | 5.5m/s | -50.2°C | 0.7% | 24.8hPa | 2.7V | 03:50:26 | 02:00:08 | 00:00:00 | |
| PG1ADW-2 | 2026-08-31 12:17:15 | 49.86145 | 13.15573 | 315° | 11km/h | 25525m | 5.5m/s | -50.1°C | 3.9% | 24.8hPa | 2.7V | 03:50:00 | 00:00:00 | 00:00:00 | |
| DO8TBO-1 | 2026-08-31 12:17:14 | 49.86144 | 13.15576 | 301° | 9km/h | 25520m | 4.7m/s | -50.2°C | 3.9% | 24.8hPa | 2.7V | 00:00:00 | 02:00:07 | 00:00:00 | |
| DL1XH1-15 | 2026-08-31 12:17:13 | 49.86131 | 13.15574 | 357° | 16km/h | 25487m | 5.9m/s | -50.5°C | 3.8% | 25hPa | 2.7V | 03:50:16 | 02:00:01 | 00:00:00 | |
| HSKMA3-T | 2026-08-31 12:17:11 | 49.86141 | 13.15578 | 23° | 9km/h | 25503m | 5.5m/s | -50.3°C | 0.7% | 24.9hPa | 2.6V | 03:50:26 | 02:00:04 | 00:00:00 | |
| DL1XH-west | 2026-08-31 12:17:09 | 49.86135 | 13.15575 | 11° | 15km/h | 25493m | 5.1m/s | -50.5°C | 0.7% | 25hPa | 2.7V | 03:50:26 | 02:00:02 | 00:00:00 | |
| DM0DOS-11 | 2026-08-31 12:17:09 | 49.86135 | 13.15575 | 11° | 15km/h | 25493m | 5.1m/s | -50.5°C | 3.9% | 25hPa | 2.7V | 03:50:15 | 02:00:02 | 00:00:00 | |
| DF8AY | 2026-08-31 12:17:07 | 49.86123 | 13.15578 | 330° | 18km/h | 25475m | 5.4m/s | -50.6°C | 0.6% | 0hPa | 2.6V | 03:50:26 | 01:59:59 | 00:00:00 | |
| AA1-15 | 2026-08-31 12:17:05 | 49.86119 | 13.15582 | 328° | 18km/h | 25470m | 5m/s | -50.6°C | 0.6% | 25.1hPa | 2.6V | 03:50:26 | 01:59:58 | 00:00:00 | |
| DL1XH1-15 | 2026-08-31 12:17:03 | 49.86107 | 13.15586 | 125° | 9km/h | 25426m | 6.3m/s | -50.4°C | 3.8% | 25.2hPa | 2.7V | 03:50:27 | 01:59:50 | 00:00:00 | |
| HSKMA3-T | 2026-08-31 12:17:01 | 49.86104 | 13.15590 | 347° | 2km/h | 25442m | 6.7m/s | -50.4°C | 0.7% | 25.2hPa | 2.6V | 03:50:26 | 01:59:53 | 00:00:00 | |
| DL1XH-west | 2026-08-31 12:16:59 | 49.86105 | 13.15590 | 162° | 4km/h | 25436m | 5.1m/s | -50.3°C | 0.6% | 25.2hPa | 2.6V | 03:50:26 | 01:59:52 | 00:00:00 | |
| DF8AY | 2026-08-31 12:16:55 | 49.86109 | 13.15578 | 105° | 11km/h | 25414m | 5.2m/s | 0°C | 0% | 0hPa | 2.6V | 03:52:59 | 01:59:48 | 00:00:00 | |
| PG1ADW-2 | 2026-08-31 12:16:55 | 49.86109 | 13.15578 | 105° | 9km/h | 25414m | 5.1m/s | -50.4°C | 3.8% | 25.2hPa | 2.7V | 00:00:00 | 00:00:00 | 00:00:00 | |
| DM0DOS-11 | 2026-08-31 12:16:54 | 49.86107 | 13.15570 | 9° | 7km/h | 25380m | 5.9m/s | -50.4°C | 3.8% | 25.4hPa | 2.7V | 03:50:35 | 01:59:42 | 00:00:00 | |
| HSKMA3-T | 2026-08-31 12:16:50 | 49.86109 | 13.15570 | 359° | 5km/h | 25386m | 6.2m/s | -50.3°C | 0.5% | 25.4hPa | 2.6V | 03:51:17 | 01:59:43 | 00:00:00 | |
| DL1XH-west | 2026-08-31 12:16:49 | 49.86105 | 13.15569 | 19° | 7km/h | 25375m | 4.4m/s | -50.4°C | 0.6% | 25.4hPa | 2.7V | 03:51:17 | 01:59:41 | 00:00:00 | |
| EDDB2-11 | 2026-08-31 12:16:47 | 49.86104 | 13.15568 | 28° | 4km/h | 25371m | 4.0m/s | -50.5°C | 1.1% | 25.4hPa | 2.7V | 00:00:00 | 00:00:00 | 00:00:00 | |
| DF8AY | 2026-08-31 12:16:45 | 49.86114 | 13.15550 | 68° | 13km/h | 25322m | 6m/s | 0°C | 0% | 0hPa | 2.7V | 03:52:59 | 01:59:31 | 00:00:00 | |
| AA1-15 | 2026-08-31 12:16:44 | 49.86106 | 13.15569 | 189° | 11km/h | 25354m | 5.2m/s | -50.6°C | 0.6% | 25.5hPa | 2.7V | 03:51:17 | 01:59:37 | 00:00:00 | |
| DO8TBO-1 | 2026-08-31 12:16:44 | 49.86106 | 13.15569 | 189° | 11km/h | 25355m | 5.1m/s | -50.6°C | 3.8% | 25.4hPa | 2.6V | 03:50:00 | 01:59:37 | 00:00:00 | |
| DM0DOS-11 | 2026-08-31 12:16:43 | 49.86115 | 13.15555 | 78° | 13km/h | 25328m | 4.8m/s | -50.8°C | 4% | 25.6hPa | 2.6V | 03:50:45 | 01:59:32 | 00:00:00 | |
| HSKMA3-T | 2026-08-31 12:16:39 | 49.86114 | 13.15555 | 79° | 13km/h | 25328m | 4.8m/s | -50.8°C | 0.7% | 25.6hPa | 2.6V | 03:51:17 | 01:59:32 | 00:00:00 | |
| DL1XH-west | 2026-08-31 12:16:38 | 49.86112 | 13.15547 | 50° | 9km/h | 25317m | 6m/s | -50.9°C | 0.7% | 25.6hPa | 2.7V | 03:51:17 | 01:59:30 | 00:00:00 | |
| AA1-15 | 2026-08-31 12:16:34 | 49.86104 | 13.15539 | 40° | 11km/h | 25295m | 6.3m/s | -50.8°C | 0.6% | 25.7hPa | 2.6V | 03:51:17 | 01:59:26 | 00:00:00 | |
| DF8AY | 2026-08-31 12:16:33 | 49.86102 | 13.15535 | 58° | 13km/h | 25290m | 5.2m/s | 0°C | 0% | 0hPa | 2.7V | 03:52:59 | 01:59:25 | 00:00:00 | |
| DL1XH1-15 | 2026-08-31 12:16:32 | 49.86103 | 13.15518 | 134° | 7km/h | 25262m | 4.8m/s | -50.8°C | 3.9% | 25.9hPa | 2.6V | 03:50:57 | 01:59:20 | 00:00:00 | |
| DK5PH-5 | 2026-08-31 12:16:32 | 49.86102 | 13.15535 | 59° | 11km/h | 25290m | 5.2m/s | -50.8°C | 3.9% | 25.7hPa | 2.7V | 00:00:00 | 01:59:25 | 00:00:00 | |
| DM0DOS-11 | 2026-08-31 12:16:30 | 49.86100 | 13.15522 | 108° | 9km/h | 25273m | 6.3m/s | -50.8°C | 3.8% | 25.8hPa | 2.6V | 03:50:55 | 01:59:22 | 00:00:00 | |
| HSKMA3-T | 2026-08-31 12:16:28 | 49.86101 | 13.15520 | 133° | 7km/h | 25267m | 5.2m/s | -50.8°C | 0.6% | 25.9hPa | 2.6V | 03:51:17 | 01:59:21 | 00:00:00 | |
| OE5MMP-10 | 2026-08-31 12:16:28 | 49.86101 | 13.15519 | 133° | 9km/h | 25268m | 5.2m/s | -50.7°C | 3.9% | 25.8hPa | 2.6V | 03:50:00 | 01:59:21 | 00:00:00 | |
| PETON7-10 | 2026-08-31 12:16:27 | 49.86103 | 13.15518 | 135° | 9km/h | 25262m | 4.8m/s | -50.8°C | 3.9% | 25.8hPa | 2.6V | 00:00:00 | 00:00:00 | 00:00:00 | |
| DM0DOS-11 | 2026-08-31 12:16:24 | 49.86095 | 13.15495 | 30° | 13km/h | 25220m | 5.2m/s | -51°C | 3.8% | 26hPa | 2.6V | 03:51:05 | 01:59:12 | 00:00:00 | |
| DF8AY | 2026-08-31 12:16:22 | 49.86101 | 13.15501 | 53° | 9km/h | 25235m | 6.3m/s | 0°C | 0% | 0hPa | 2.7V | 03:52:59 | 01:59:15 | 00:00:00 | |
| DB0NH | 2026-08-31 12:16:20 | 49.86097 | 13.15497 | 28° | 11km/h | 25225m | 4.4m/s | -50.9°C | 3.9% | 26.0hPa | 2.6V | 00:00:00 | 01:59:13 | 00:00:00 | |
| DL1XH1-15 | 2026-08-31 12:16:18 | 49.86089 | 13.15488 | 40° | 15km/h | 25208m | 5m/s | -51°C | 3.9% | 26.1hPa | 2.7V | 03:51:07 | 01:59:10 | 00:00:00 | |
| DL1XH-west | 2026-08-31 12:16:18 | 49.86092 | 13.15492 | 35° | 15km/h | 25214m | 6.4m/s | -51.1°C | 0.6% | 26.1hPa | 2.7V | 03:51:17 | 01:59:11 | 00:00:00 | |
| HSKMA3-T | 2026-08-31 12:16:17 | 49.86089 | 13.15488 | 40° | 15km/h | 25208m | 5m/s | -51°C | 0.7% | 26.1hPa | 2.7V | 03:51:17 | 01:59:10 | 00:00:00 | |
| EDDB2-11 | 2026-08-31 12:16:16 | 49.86086 | 13.15485 | 43° | 13km/h | 25203m | 5.1m/s | -50.9°C | 1.1% | 26.1hPa | 2.6V | 00:00:00 | 00:00:00 | 00:00:00 | |
| PG1ADW-2 | 2026-08-31 12:16:15 | 49.86084 | 13.15481 | 49° | 11km/h | 25198m | 6.2m/s | -50.9°C | 3.9% | 26.1hPa | 2.6V | 00:00:00 | 00:00:00 | 00:00:00 | |
| DO8TBO-1 | 2026-08-31 12:16:14 | 49.86083 | 13.15479 | 62° | 9km/h | 25192m | 6.0m/s | -50.9°C | 3.9% | 26.1hPa | 2.6V | 00:00:00 | 01:59:07 | 00:00:00 | |
| DL1XH1-15 | 2026-08-31 12:16:12 | 49.86077 | 13.15462 | 21° | 15km/h | 25155m | 6m/s | -51°C | 4.1% | 26.3hPa | 2.7V | 03:51:17 | 01:59:00 | 00:00:00 | |
| DM0DOS-11 | 2026-08-31 12:16:12 | 49.86083 | 13.15468 | 56° | 13km/h | 25166m | 5.3m/s | -51°C | 4.1% | 26.3hPa | 2.6V | 03:51:15 | 01:59:02 | 00:00:00 | |
| DF8AY | 2026-08-31 12:16:11 | 49.86084 | 13.15475 | 101° | 5km/h | 25177m | 5.7m/s | 0°C | 0% | 0hPa | 2.7V | 03:52:59 | 01:59:04 | 00:00:00 | |
| DL1XH-west | 2026-08-31 12:16:08 | 49.86081 | 13.15464 | 39° | 15km/h | 25161m | 4.9m/s | -51°C | 0.7% | 26.3hPa | 2.6V | 03:51:17 | 01:59:01 | 00:00:00 | |
| HSKMA3-T | 2026-08-31 12:16:06 | 49.86073 | 13.15460 | 4° | 16km/h | 25149m | 6.2m/s | -51°C | 0.7% | 26.3hPa | 2.7V | 03:52:08 | 01:58:59 | 00:00:00 | |
| DL6DJ-15 | 2026-08-31 12:16:04 | 49.86065 | 13.15461 | 355° | 16km/h | 25139m | 4.2m/s | -51.1°C | 1.1% | 26.4hPa | 2.6V | 00:00:00 | 00:00:00 | 00:00:00 | |
| DL1XH1-15 | 2026-08-31 12:16:02 | 49.86047 | 13.15446 | 42° | 2km/h | 25100m | 5.3m/s | -51.2°C | 4.1% | 26.5hPa | 2.6V | 03:51:27 | 01:58:50 | 00:00:00 | |
| AA1-15 | 2026-08-31 12:16:00 | 49.86051 | 13.15453 | 45° | 13km/h | 25117m | 5m/s | -51.2°C | 0.6% | 26.5hPa | 2.7V | 03:52:08 | 01:58:53 | 00:00:00 | |
| DM0DOS-11 | 2026-08-31 12:16:00 | 49.86047 | 13.15447 | 51° | 5km/h | 25106m | 6.4m/s | -51.2°C | 4% | 26.5hPa | 2.6V | 03:51:26 | 01:58:51 | 00:00:00 | |
| DL1XH-west | 2026-08-31 12:15:57 | 49.86047 | 13.15446 | 42° | 2km/h | 25100m | 5.3m/s | -51.2°C | 0.7% | 26.5hPa | 2.6V | 03:52:08 | 01:58:50 | 00:00:00 | |
| HSKMA3-T | 2026-08-31 12:15:56 | 49.86047 | 13.15446 | 12° | 2km/h | 25095m | 4.5m/s | -51.2°C | 0.7% | 26.6hPa | 2.6V | 03:52:08 | 01:58:49 | 00:00:00 | |
| PG1ADW-2 | 2026-08-31 12:15:55 | 49.86046 | 13.15445 | 33° | 5km/h | 25090m | 6.0m/s | -51.2°C | 4.1% | 26.5hPa | 2.6V | 03:51:00 | 00:00:00 | 00:00:00 | |
| DB0UT-7 | 2026-08-31 12:15:53 | 49.86044 | 13.15443 | 31° | 11km/h | 25079m | 4.8m/s | -51.3°C | 4.1% | 26.6hPa | 2.6V | 03:51:00 | 01:58:46 | 00:00:00 | |
| DL1XH1-15 | 2026-08-31 12:15:52 | 49.86031 | 13.15440 | 22° | 15km/h | 25045m | 5.7m/s | -51.4°C | 4% | 26.8hPa | 2.7V | 03:51:37 | 01:58:40 | 00:00:00 | |
| AA1-15 | 2026-08-31 12:15:49 | 49.86037 | 13.15442 | 2° | 9km/h | 25057m | 4.5m/s | -51.2°C | 0.7% | 26.7hPa | 2.6V | 03:52:08 | 01:58:42 | 00:00:00 | |
| DM0DOS-11 | 2026-08-31 12:15:49 | 49.86023 | 13.15436 | 358° | 7km/h | 25030m | 6.2m/s | -51.2°C | 4% | 26.8hPa | 2.6V | 03:51:40 | 01:58:37 | 00:00:00 | |
| DL1XH-west | 2026-08-31 12:15:47 | 49.86031 | 13.15440 | 23° | 15km/h | 25045m | 5.7m/s | -51.4°C | 0.7% | 26.8hPa | 2.7V | 03:52:08 | 01:58:40 | 00:00:00 | |
| DF8AY | 2026-08-31 12:15:47 | 49.86020 | 13.15440 | 318° | 2km/h | 25007m | 5.5m/s | 0°C | 0% | 0hPa | 2.7V | 03:52:59 | 01:58:33 | 00:00:00 | |
| OE5WHR-10 | 2026-08-31 12:15:45 | 49.86025 | 13.15436 | 20° | 5km/h | 25036m | 5.0m/s | -51.2°C | 4.0% | 26.7hPa | 2.6V | 00:00:00 | 00:00:00 | 00:00:00 | |
| HSKMA3-T | 2026-08-31 12:15:45 | 49.86025 | 13.15436 | 20° | 11km/h | 25035m | 5.1m/s | -51.3°C | 0.7% | 26.8hPa | 2.6V | 03:52:08 | 01:58:38 | 00:00:00 | |
| DO8TBO-1 | 2026-08-31 12:15:44 | 49.86023 | 13.15436 | 359° | 5km/h | 25030m | 6.2m/s | -51.2°C | 4.0% | 26.8hPa | 2.6V | 00:00:00 | 01:58:37 | 00:00:00 | |
| DL1XH1-15 | 2026-08-31 12:15:42 | 49.86021 | 13.15442 | 205° | 2km/h | 24991m | 6.2m/s | -51.3°C | 4.1% | 27hPa | 2.6V | 03:51:47 | 01:58:30 | 00:00:00 | |
| AA1-15 | 2026-08-31 12:15:39 | 49.86020 | 13.15441 | 320° | 0km/h | 25002m | 4.3m/s | -51.2°C | 0.8% | 26.9hPa | 2.6V | 03:52:08 | 01:58:32 | 00:00:00 | |
| DL1XH-west | 2026-08-31 12:15:36 | 49.86021 | 13.15442 | 152° | 0km/h | 24986m | 4.5m/s | -51.3°C | 0.7% | 27hPa | 2.7V | 03:52:08 | 01:58:29 | 00:00:00 | |
| HSKMA3-T | 2026-08-31 12:15:35 | 49.86021 | 13.15441 | 44° | 4km/h | 24981m | 5m/s | -51.4°C | 0.7% | 27hPa | 2.7V | 03:52:08 | 01:58:28 | 00:00:00 | |
| DM0DOS-11 | 2026-08-31 12:15:34 | 49.86011 | 13.15432 | 22° | 13km/h | 24959m | 5.7m/s | -51.3°C | 4% | 27.1hPa | 2.6V | 03:51:53 | 01:58:24 | 00:00:00 | |
| DL6DJ-15 | 2026-08-31 12:15:33 | 49.86014 | 13.15434 | 28° | 15km/h | 24964m | 4.8m/s | -51.3°C | 1.1% | 27.1hPa | 2.6V | 00:00:00 | 00:00:00 | 00:00:00 | |
| DL1XH1-15 | 2026-08-31 12:15:32 | 49.86005 | 13.15435 | 276° | 7km/h | 24937m | 5.3m/s | -51.1°C | 4% | 27.2hPa | 2.6V | 03:51:57 | 01:58:20 | 00:00:00 | |
| AA1-15 | 2026-08-31 12:15:29 | 49.86005 | 13.15433 | 286° | 5km/h | 24942m | 5m/s | -51.2°C | 0.8% | 27.2hPa | 2.7V | 03:52:08 | 01:58:21 | 00:00:00 | |
| DF8AY | 2026-08-31 12:15:27 | 49.85996 | 13.15425 | 61° | 13km/h | 24886m | 5m/s | 0°C | 0% | 0hPa | 2.6V | 03:52:59 | 01:58:11 | 00:00:00 | |
| DL1XH-west | 2026-08-31 12:15:25 | 49.86004 | 13.15439 | 340° | 4km/h | 24925m | 6.2m/s | -51°C | 0.7% | 27.3hPa | 2.6V | 03:52:08 | 01:58:18 | 00:00:00 | |
| HSKMA3-T | 2026-08-31 12:15:24 | 49.86003 | 13.15438 | 24° | 5km/h | 24920m | 4.8m/s | -51.1°C | 0.7% | 27.3hPa | 2.7V | 03:52:08 | 01:58:17 | 00:00:00 | |
| DL1XH1-15 | 2026-08-31 12:15:22 | 49.85994 | 13.15416 | 98° | 4km/h | 24871m | 6.4m/s | -51.1°C | 3.9% | 27.5hPa | 2.7V | 03:52:09 | 01:58:08 | 00:00:00 | |
| DB0NH | 2026-08-31 12:15:20 | 49.85999 | 13.15433 | 60° | 7km/h | 24898m | 4.9m/s | -51.0°C | 3.9% | 27.3hPa | 2.7V | 03:52:00 | 01:58:13 | 00:00:00 | |
| DO3MHA-11 | 2026-08-31 12:15:19 | 49.85998 | 13.15430 | 60° | 7km/h | 24892m | 6.6m/s | -51.0°C | 3.9% | 27.4hPa | 2.7V | 00:00:00 | 01:58:12 | 00:00:00 | |
| DL9SK-14 | 2026-08-31 12:15:18 | 49.85994 | 13.15418 | 71° | 7km/h | 24877m | 5.2m/s | -51.0°C | 1.0% | 27.5hPa | 2.7V | 00:00:00 | 00:00:00 | 00:00:00 | |
| DM0DOS-11 | 2026-08-31 12:15:16 | 49.85998 | 13.15418 | 127° | 4km/h | 24846m | 5.4m/s | -51.3°C | 4% | 27.6hPa | 2.7V | 03:52:14 | 01:58:03 | 00:00:00 | |
| HSKMA3-T | 2026-08-31 12:15:14 | 49.85994 | 13.15415 | 203° | 4km/h | 24866m | 5.1m/s | -51.2°C | 0.8% | 27.5hPa | 2.6V | 03:52:59 | 01:58:07 | 00:00:00 | |
| DF8AY | 2026-08-31 12:15:07 | 49.85999 | 13.15406 | 91° | 7km/h | 24825m | 6m/s | 0°C | 0% | 0hPa | 2.6V | 03:52:59 | 01:57:59 | 00:00:00 | |
| AA1-15 | 2026-08-31 12:15:06 | 49.85999 | 13.15404 | 83° | 4km/h | 24820m | 5.4m/s | -51.4°C | 0.7% | 27.7hPa | 2.7V | 03:52:59 | 01:57:58 | 00:00:00 | |
| DM0DOS-11 | 2026-08-31 12:15:04 | 49.85995 | 13.15391 | 58° | 11km/h | 24793m | 4.5m/s | -51.4°C | 4% | 27.8hPa | 2.6V | 03:52:24 | 01:57:53 | 00:00:00 | |
| DL1XH-west | 2026-08-31 12:15:03 | 49.85998 | 13.15401 | 76° | 5km/h | 24809m | 5.9m/s | -51.3°C | 0.7% | 27.8hPa | 2.7V | 03:52:59 | 01:57:56 | 00:00:00 | |
| AA1-15 | 2026-08-31 12:14:55 | 49.85986 | 13.15372 | 66° | 13km/h | 24756m | 3.6m/s | -51.6°C | 0.7% | 28hPa | 2.7V | 03:52:59 | 01:57:46 | 00:00:00 | |
| DM0DOS-11 | 2026-08-31 12:14:54 | 49.85978 | 13.15359 | 34° | 13km/h | 24735m | 5.2m/s | -51.6°C | 4.1% | 28.1hPa | 2.7V | 03:52:35 | 01:57:42 | 00:00:00 | |
| DL1XH-west | 2026-08-31 12:14:53 | 49.85983 | 13.15365 | 40° | 11km/h | 24745m | 6m/s | -51.7°C | 0.8% | 28hPa | 2.6V | 03:52:59 | 01:57:44 | 00:00:00 | |
| DL1XH1-15 | 2026-08-31 12:14:52 | 49.85969 | 13.15349 | 29° | 16km/h | 24719m | 4.7m/s | -51.5°C | 4.2% | 28.1hPa | 2.6V | 03:52:38 | 01:57:39 | 00:00:00 | |
| DL9SK-14 | 2026-08-31 12:14:46 | 49.85965 | 13.15346 | 18° | 16km/h | 24714m | 6.1m/s | -51.6°C | 1.1% | 28.2hPa | 2.6V | 00:00:00 | 00:00:00 | 00:00:00 | |
| SONCRA | 2026-08-31 12:14:45 | 49.85961 | 13.15345 | 6° | 16km/h | 24708m | 5.5m/s | -51.5°C | 1.1% | 28.2hPa | 2.6V | 00:00:00 | 00:00:00 | 00:00:00 | |
| DM0DOS-11 | 2026-08-31 12:14:44 | 49.85945 | 13.15338 | 45° | 9km/h | 24683m | 4.6m/s | -51.6°C | 4.1% | 28.3hPa | 2.6V | 03:52:45 | 01:57:32 | 00:00:00 | |
| AA1-15 | 2026-08-31 12:14:44 | 49.85957 | 13.15344 | 3° | 16km/h | 24703m | 4.1m/s | -51.5°C | 0.7% | 28.2hPa | 2.7V | 03:52:59 | 01:57:36 | 00:00:00 | |
| DF8AY | 2026-08-31 12:14:43 | 49.85943 | 13.15336 | 38° | 9km/h | 24678m | 4.3m/s | 0°C | 0% | 0hPa | 2.7V | 03:52:59 | 01:57:31 | 00:00:00 | |
| EDDB2-11 | 2026-08-31 12:14:43 | 49.85953 | 13.15344 | 3° | 15km/h | 24699m | 4.9m/s | -51.6°C | 1.1% | 28.2hPa | 2.7V | 00:00:00 | 00:00:00 | 00:00:00 | |
| DL1XH1-15 | 2026-08-31 12:14:41 | 49.85938 | 13.15334 | 352° | 13km/h | 24668m | 5.5m/s | -51.5°C | 4.1% | 28.4hPa | 2.7V | 03:52:48 | 01:57:29 | 00:00:00 | |
| DL1XH-west | 2026-08-31 12:14:41 | 49.85949 | 13.15343 | 17° | 13km/h | 24693m | 5.5m/s | -51.6°C | 0.8% | 28.2hPa | 2.6V | 03:52:59 | 01:57:34 | 00:00:00 | |
| HSKMA3-T | 2026-08-31 12:14:40 | 49.85947 | 13.15341 | 39° | 11km/h | 24688m | 5.2m/s | -51.7°C | 0.7% | 28.3hPa | 2.6V | 03:52:59 | 01:57:33 | 00:00:00 | |
| DB0UT-7 | 2026-08-31 12:14:40 | 49.85947 | 13.15341 | 39° | 22km/h | 24688m | 5.1m/s | -51.6°C | 4.1% | 28.2hPa | 2.6V | 00:00:00 | 00:00:00 | 00:00:00 | |
| ANDY1245 | 2026-08-31 12:14:39 | 49.85947 | 13.15341 | 40° | 11km/h | 24688m | 5.2m/s | -51.6°C | 1.1% | 28.3hPa | 2.6V | 00:00:00 | 00:00:00 | 00:00:00 | |
| OE5MMP-10 | 2026-08-31 12:14:38 | 49.85943 | 13.15336 | 38° | 18km/h | 24679m | 4.3m/s | -51.6°C | 4.1% | 28.3hPa | 2.6V | 00:00:00 | 01:57:31 | 00:00:00 | |
| OE5DRO-10 | 2026-08-31 12:14:36 | 49.85938 | 13.15334 | 353° | 22km/h | 24668m | 5.5m/s | -51.5°C | 4.1% | 28.3hPa | 2.6V | 03:52:00 | 00:00:00 | 00:00:00 | |
| PG1ADW-2 | 2026-08-31 12:14:35 | 49.85935 | 13.15335 | 349° | 24km/h | 24663m | 4.9m/s | -51.5°C | 4.1% | 28.4hPa | 2.6V | 03:52:00 | 00:00:00 | 00:00:00 | |
| DM0DOS-11 | 2026-08-31 12:14:34 | 49.85901 | 13.15333 | 6° | 27km/h | 24631m | 5.4m/s | -51.4°C | 4.1% | 28.5hPa | 2.6V | 03:52:55 | 01:57:22 | 00:00:00 | |
| AA1-15 | 2026-08-31 12:14:33 | 49.85926 | 13.15337 | 360° | 20km/h | 24652m | 5.8m/s | -51.5°C | 0.7% | 28.4hPa | 2.6V | 03:52:59 | 01:57:26 | 00:00:00 | |
| DK5PH-5 | 2026-08-31 12:14:32 | 49.85921 | 13.15336 | 7° | 26km/h | 24647m | 4.3m/s | -51.5°C | 4.1% | 28.4hPa | 2.7V | 00:00:00 | 01:57:25 | 00:00:00 | |
| DL1XH1-15 | 2026-08-31 12:14:31 | 49.85882 | 13.15325 | 28° | 24km/h | 24615m | 5.8m/s | -51.4°C | 4.1% | 28.6hPa | 2.7V | 03:52:58 | 01:57:19 | 00:00:00 | |
| DL1XH-west | 2026-08-31 12:14:30 | 49.85908 | 13.15334 | 6° | 27km/h | 24637m | 6.1m/s | -51.5°C | 0.7% | 28.5hPa | 2.7V | 03:52:59 | 01:57:23 | 00:00:00 | |
| DF8AY | 2026-08-31 12:14:28 | 49.85877 | 13.15320 | 33° | 22km/h | 24610m | 4.2m/s | 0°C | 0% | 0hPa | 2.7V | 03:52:59 | 01:57:18 | 00:00:00 | |
| DB0UT-9 | 2026-08-31 12:14:27 | 49.85894 | 13.15331 | 11° | 27km/h | 24627m | 4.8m/s | -51.5°C | 1.1% | 28.6hPa | 2.7V | 03:52:00 | 00:00:00 | 00:00:00 | |
| PETON7-10 | 2026-08-31 12:14:26 | 49.85882 | 13.15325 | 29° | 24km/h | 24616m | 5.8m/s | -51.4°C | 4.1% | 28.5hPa | 2.7V | 00:00:00 | 00:00:00 | 00:00:00 | |
| EDDB2-12 | 2026-08-31 12:14:25 | 49.85877 | 13.15320 | 32° | 22km/h | 24610m | 4.2m/s | -51.5°C | 1.1% | 28.6hPa | 2.6V | 00:00:00 | 00:00:00 | 00:00:00 | |
| DM0DOS-11 | 2026-08-31 12:14:24 | 49.85844 | 13.15315 | 352° | 24km/h | 24582m | 5.8m/s | -51.5°C | 4.1% | 28.8hPa | 2.6V | 03:53:05 | 01:57:12 | 00:00:00 | |
| AA1-15 | 2026-08-31 12:14:23 | 49.85868 | 13.15313 | 18° | 20km/h | 24602m | 5.7m/s | -51.5°C | 0.8% | 28.7hPa | 2.6V | 03:53:50 | 01:57:16 | 00:00:00 | |
| DL1XH1-15 | 2026-08-31 12:14:21 | 49.85827 | 13.15312 | 14° | 24km/h | 24566m | 4.6m/s | -51.4°C | 4.1% | 28.8hPa | 2.6V | 03:53:08 | 01:57:09 | 00:00:00 | |
| HSKMA3-T | 2026-08-31 12:14:21 | 49.85851 | 13.15313 | 350° | 26km/h | 24587m | 4.3m/s | -51.5°C | 0.8% | 28.8hPa | 2.6V | 03:53:50 | 01:57:13 | 00:00:00 | |
| DL1XH-west | 2026-08-31 12:14:19 | 49.85845 | 13.15315 | 353° | 24km/h | 24582m | 5.8m/s | -51.5°C | 0.7% | 28.8hPa | 2.6V | 03:53:50 | 01:57:12 | 00:00:00 | |
| AA1-15 | 2026-08-31 12:14:13 | 49.85806 | 13.15307 | 4° | 31km/h | 24550m | 5.5m/s | -51.4°C | 0.8% | 28.9hPa | 2.7V | 03:53:50 | 01:57:06 | 00:00:00 | |
| DM0DOS-11 | 2026-08-31 12:14:12 | 49.85767 | 13.15298 | 3° | 22km/h | 24520m | 6m/s | -51.2°C | 4% | 29hPa | 2.7V | 03:53:17 | 01:57:00 | 00:00:00 | |
| HSKMA3-T | 2026-08-31 12:14:09 | 49.85778 | 13.15301 | 13° | 24km/h | 24529m | 4.5m/s | -51.2°C | 0.7% | 29hPa | 2.6V | 03:53:50 | 01:57:02 | 00:00:00 | |
| DL1XH-west | 2026-08-31 12:14:09 | 49.85761 | 13.15298 | 357° | 24km/h | 24514m | 5.6m/s | -51.2°C | 0.7% | 29.1hPa | 2.7V | 03:53:50 | 01:56:59 | 00:00:00 | |
| DO3MHA-11 | 2026-08-31 12:14:09 | 49.85777 | 13.15301 | 14° | 22km/h | 24530m | 4.5m/s | -51.2°C | 4.0% | 29.0hPa | 2.6V | 00:00:00 | 01:57:02 | 00:00:00 | |
| DL1XH1-15 | 2026-08-31 12:14:08 | 49.85761 | 13.15298 | 357° | 24km/h | 24514m | 5.5m/s | 0°C | 0% | 0hPa | 2.7V | 03:53:18 | 01:56:59 | 00:00:00 | |
| AA1-15 | 2026-08-31 12:14:02 | 49.85739 | 13.15298 | 15° | 20km/h | 24495m | 5.4m/s | -51.2°C | 0.7% | 29.1hPa | 2.6V | 03:53:50 | 01:56:55 | 00:00:00 | |
| HSKMA3-T | 2026-08-31 12:13:59 | 49.85721 | 13.15289 | 16° | 27km/h | 24480m | 5.5m/s | -51.2°C | 0.7% | 29.2hPa | 2.7V | 03:53:50 | 01:56:52 | 00:00:00 | |
| DO3MHA-11 | 2026-08-31 12:13:59 | 49.85721 | 13.15288 | 17° | 24km/h | 24480m | 5.4m/s | -51.1°C | 3.9% | 29.2hPa | 2.6V | 00:00:00 | 01:56:52 | 00:00:00 | |
| DL1XH1-15 | 2026-08-31 12:13:58 | 49.85701 | 13.15284 | 1° | 26km/h | 24465m | 4.9m/s | -51.2°C | 3.9% | 29.3hPa | 2.6V | 03:53:28 | 01:56:49 | 00:00:00 | |
| DL1XH-west | 2026-08-31 12:13:56 | 49.85695 | 13.15284 | 360° | 22km/h | 24459m | 6.2m/s | -51.2°C | 0.7% | 29.3hPa | 2.7V | 03:53:50 | 01:56:48 | 00:00:00 | |
| AA1-15 | 2026-08-31 12:13:51 | 49.85663 | 13.15296 | 347° | 27km/h | 24428m | 4.2m/s | -51.2°C | 0.7% | 29.5hPa | 2.6V | 03:53:50 | 01:56:42 | 00:00:00 | |
| DL1XH1-15 | 2026-08-31 12:13:51 | 49.85643 | 13.15296 | 10° | 27km/h | 24413m | 4.7m/s | -51.3°C | 4% | 29.5hPa | 2.7V | 03:53:38 | 01:56:39 | 00:00:00 | |
| DB0NH | 2026-08-31 12:13:50 | 49.85669 | 13.15293 | 343° | 31km/h | 24433m | 4.4m/s | 0°C | 0% | 0hPa | 2.7V | 00:00:00 | 01:56:43 | 00:00:00 | |
| DM0DOS-11 | 2026-08-31 12:13:49 | 49.85627 | 13.15292 | 8° | 33km/h | 24403m | 6m/s | -51.5°C | 4% | 29.6hPa | 2.7V | 03:53:40 | 01:56:37 | 00:00:00 | |
| HSKMA3-T | 2026-08-31 12:13:49 | 49.85656 | 13.15297 | 354° | 27km/h | 24423m | 5.8m/s | -51.3°C | 0.8% | 29.4hPa | 2.6V | 03:53:50 | 01:56:41 | 00:00:00 | |
| DL1XH-west | 2026-08-31 12:13:45 | 49.85635 | 13.15294 | 11° | 31km/h | 24408m | 4.5m/s | -51.4°C | 0.7% | 29.6hPa | 2.7V | 03:53:50 | 01:56:38 | 00:00:00 | |
| AA1-15 | 2026-08-31 12:13:40 | 49.85586 | 13.15296 | 345° | 27km/h | 24377m | 4.5m/s | -51.4°C | 0.8% | 29.7hPa | 2.7V | 03:53:50 | 01:56:32 | 00:00:00 | |
| OE5WHR-10 | 2026-08-31 12:13:40 | 49.85593 | 13.15294 | 351° | 31km/h | 24382m | 5.7m/s | -51.5°C | 4.1% | 29.6hPa | 2.7V | 03:53:00 | 00:00:00 | 00:00:00 | |
| DO3MHA-11 | 2026-08-31 12:13:39 | 49.85586 | 13.15296 | 345° | 27km/h | 24377m | 4.4m/s | -51.4°C | 4.1% | 29.6hPa | 2.7V | 03:53:00 | 01:56:32 | 00:00:00 | |
| DL1XH1-15 | 2026-08-31 12:13:38 | 49.85566 | 13.15310 | 331° | 33km/h | 24362m | 5.6m/s | -51.5°C | 4.1% | 29.7hPa | 2.6V | 03:53:48 | 01:56:29 | 00:00:00 | |
| HSKMA3-T | 2026-08-31 12:13:38 | 49.85572 | 13.15304 | 334° | 31km/h | 24368m | 5.8m/s | -51.5°C | 0.8% | 29.7hPa | 2.6V | 03:53:50 | 01:56:30 | 00:00:00 | |
| DL1XH-west | 2026-08-31 12:13:34 | 49.85551 | 13.15322 | 333° | 31km/h | 24352m | 4.7m/s | -51.4°C | 0.8% | 29.8hPa | 2.7V | 03:53:50 | 01:56:27 | 00:00:00 | |
| AA1-15 | 2026-08-31 12:13:30 | 49.85527 | 13.15330 | 5° | 26km/h | 24332m | 4.6m/s | -51.4°C | 0.8% | 29.9hPa | 2.6V | 03:54:41 | 01:56:23 | 00:00:00 | |
| HSKMA3-T | 2026-08-31 12:13:27 | 49.85502 | 13.15330 | 354° | 37km/h | 24316m | 4.4m/s | -51.4°C | 0.7% | 30hPa | 2.7V | 03:54:41 | 01:56:20 | 00:00:00 | |
| DL1XH-west | 2026-08-31 12:13:23 | 49.85469 | 13.15345 | 328° | 33km/h | 24296m | 5.1m/s | -51.2°C | 0.6% | 30.1hPa | 2.7V | 03:54:41 | 01:56:16 | 00:00:00 | |
| NBG1-10 | 2026-08-31 12:13:23 | 49.85469 | 13.15345 | 329° | 27km/h | 24296m | 5.0m/s | -51.2°C | 3.9% | 30.0hPa | 2.7V | 03:54:00 | 01:56:16 | 00:00:00 | |
| DL1XH1-15 | 2026-08-31 12:13:21 | 49.85429 | 13.15390 | 347° | 22km/h | 24258m | 4.3m/s | -51.3°C | 4% | 30.2hPa | 2.6V | 03:54:08 | 01:56:09 | 00:00:00 | |
| AA1-15 | 2026-08-31 12:13:20 | 49.85443 | 13.15377 | 319° | 27km/h | 24274m | 5.7m/s | -51.3°C | 0.8% | 30.2hPa | 2.7V | 03:54:41 | 01:56:12 | 00:00:00 | |
| HSKMA3-T | 2026-08-31 12:13:16 | 49.85429 | 13.15390 | 348° | 22km/h | 24258m | 4.3m/s | -51.3°C | 0.7% | 30.2hPa | 2.6V | 03:54:41 | 01:56:09 | 00:00:00 | |
| DL1XH-west | 2026-08-31 12:13:12 | 49.85392 | 13.15405 | 338° | 33km/h | 24233m | 5.7m/s | -51.5°C | 0.7% | 30.4hPa | 2.6V | 03:54:41 | 01:56:04 | 00:00:00 | |
| AA1-15 | 2026-08-31 12:13:09 | 49.85379 | 13.15417 | 322° | 29km/h | 24222m | 4.7m/s | -51.6°C | 0.7% | 30.4hPa | 2.7V | 03:54:41 | 01:56:02 | 00:00:00 | |
| DL1XH1-15 | 2026-08-31 12:13:09 | 49.85363 | 13.15444 | 305° | 35km/h | 24207m | 5.8m/s | -51.7°C | 4% | 30.5hPa | 2.6V | 03:54:18 | 01:55:59 | 00:00:00 | |
| DJ2DS-15 | 2026-08-31 12:13:09 | 49.85379 | 13.15417 | 322° | 27km/h | 24222m | 4.7m/s | -51.5°C | 4.0% | 30.4hPa | 2.7V | 00:00:00 | 01:56:02 | 00:00:00 | |
| OE5MMP-10 | 2026-08-31 12:13:08 | 49.85373 | 13.15424 | 314° | 26km/h | 24218m | 4.6m/s | -51.6°C | 4.0% | 30.4hPa | 2.7V | 03:54:00 | 01:56:01 | 00:00:00 | |
| DM0DOS-11 | 2026-08-31 12:13:07 | 49.85349 | 13.15473 | 312° | 24km/h | 24192m | 5.7m/s | -51.7°C | 4.1% | 30.5hPa | 2.7V | 03:54:21 | 01:55:56 | 00:00:00 | |
| HSKMA3-T | 2026-08-31 12:13:05 | 49.85354 | 13.15465 | 307° | 29km/h | 24197m | 4.1m/s | -51.7°C | 0.8% | 30.5hPa | 2.6V | 03:54:41 | 01:55:57 | 00:00:00 | |
| DL1XH-west | 2026-08-31 12:13:02 | 49.85345 | 13.15479 | 322° | 18km/h | 24186m | 6m/s | -51.6°C | 0.8% | 30.6hPa | 2.7V | 03:54:41 | 01:55:55 | 00:00:00 | |
| AA1-15 | 2026-08-31 12:12:59 | 49.85334 | 13.15487 | 337° | 18km/h | 24172m | 5.4m/s | -51.5°C | 0.7% | 30.6hPa | 2.7V | 03:54:41 | 01:55:52 | 00:00:00 | |
| DO3MHA-11 | 2026-08-31 12:12:59 | 49.85334 | 13.15487 | 337° | 27km/h | 24172m | 5.4m/s | -51.5°C | 4.1% | 30.6hPa | 2.6V | 03:54:00 | 01:55:52 | 00:00:00 | |
| DL1XH1-15 | 2026-08-31 12:12:58 | 49.85319 | 13.15505 | 312° | 31km/h | 24156m | 4.8m/s | -51.8°C | 4.1% | 30.7hPa | 2.6V | 03:54:28 | 01:55:49 | 00:00:00 | |
| DL6DJ-15 | 2026-08-31 12:12:58 | 49.85324 | 13.15497 | 318° | 27km/h | 24161m | 5.2m/s | -51.7°C | 1.1% | 30.7hPa | 2.6V | 00:00:00 | 00:00:00 | 00:00:00 | |
| DM0DOS-11 | 2026-08-31 12:12:57 | 49.85305 | 13.15533 | 305° | 27km/h | 24140m | 5.4m/s | -51.8°C | 4% | 30.8hPa | 2.6V | 03:54:31 | 01:55:46 | 00:00:00 | |
| HSKMA3-T | 2026-08-31 12:12:55 | 49.85309 | 13.15524 | 306° | 31km/h | 24146m | 6m/s | -51.8°C | 0.7% | 30.8hPa | 2.7V | 03:54:41 | 01:55:47 | 00:00:00 | |
| DL1XH-west | 2026-08-31 12:12:51 | 49.85294 | 13.15558 | 305° | 26km/h | 24125m | 6m/s | -51.8°C | 0.8% | 30.9hPa | 2.7V | 03:54:41 | 01:55:43 | 00:00:00 | |
| DL1XH1-15 | 2026-08-31 12:12:51 | 49.85279 | 13.15580 | 337° | 15km/h | 24104m | 6.5m/s | -51.6°C | 4.2% | 31hPa | 2.6V | 03:54:38 | 01:55:39 | 00:00:00 | |
| AA1-15 | 2026-08-31 12:12:49 | 49.85290 | 13.15566 | 308° | 24km/h | 24119m | 5.3m/s | -51.7°C | 0.8% | 30.9hPa | 2.7V | 03:54:41 | 01:55:42 | 00:00:00 | |
| DO3MHA-11 | 2026-08-31 12:12:49 | 49.85290 | 13.15566 | 308° | 20km/h | 24119m | 5.2m/s | -51.6°C | 4.1% | 30.9hPa | 2.7V | 00:00:00 | 01:55:42 | 00:00:00 | |
| OE5MMP-10 | 2026-08-31 12:12:48 | 49.85286 | 13.15572 | 315° | 22km/h | 24114m | 4.1m/s | -51.5°C | 4.1% | 30.9hPa | 2.7V | 00:00:00 | 01:55:41 | 00:00:00 | |
| DM0DOS-11 | 2026-08-31 12:12:47 | 49.85268 | 13.15586 | 332° | 18km/h | 24088m | 5.6m/s | -51.8°C | 4% | 31hPa | 2.7V | 03:54:41 | 01:55:36 | 00:00:00 | |
| HSKMA3-T | 2026-08-31 12:12:44 | 49.85272 | 13.15583 | 343° | 16km/h | 24093m | 4.3m/s | -51.7°C | 0.7% | 31hPa | 2.7V | 03:54:41 | 01:55:37 | 00:00:00 | |
| DO8TBO-1 | 2026-08-31 12:12:44 | 49.85272 | 13.15583 | 343° | 20km/h | 24094m | 4.3m/s | -51.7°C | 4.0% | 31.0hPa | 2.6V | 03:54:00 | 01:55:37 | 00:00:00 | |
| DL9SK-14 | 2026-08-31 12:12:42 | 49.85260 | 13.15598 | 308° | 27km/h | 24077m | 4.7m/s | -51.9°C | 1.1% | 31.1hPa | 2.6V | 00:00:00 | 00:00:00 | 00:00:00 | |
| DL1XH1-15 | 2026-08-31 12:12:41 | 49.85246 | 13.15646 | 290° | 24km/h | 24051m | 4.6m/s | -51.8°C | 4.1% | 31.2hPa | 2.6V | 03:54:48 | 01:55:29 | 00:00:00 | |
| AA1-15 | 2026-08-31 12:12:39 | 49.85252 | 13.15617 | 294° | 29km/h | 24067m | 6.1m/s | -52°C | 0.7% | 31.1hPa | 2.6V | 03:55:32 | 01:55:32 | 00:00:00 | |
| HSKMA3-T | 2026-08-31 12:12:33 | 49.85237 | 13.15665 | 327° | 16km/h | 24035m | 5m/s | -52°C | 0.8% | 31.3hPa | 2.7V | 03:55:32 | 01:55:26 | 00:00:00 | |
| DK5PH-5 | 2026-08-31 12:12:32 | 49.85234 | 13.15667 | 345° | 18km/h | 24030m | 6.4m/s | -52.0°C | 4.2% | 31.3hPa | 2.6V | 00:00:00 | 01:55:25 | 00:00:00 | |
| DL1XH1-15 | 2026-08-31 12:12:31 | 49.85214 | 13.15677 | 315° | 24km/h | 23998m | 4.4m/s | -52.1°C | 4.1% | 31.5hPa | 2.6V | 03:54:58 | 01:55:19 | 00:00:00 | |
| AA1-15 | 2026-08-31 12:12:28 | 49.85214 | 13.15677 | 316° | 24km/h | 23998m | 4.4m/s | -52.1°C | 0.8% | 31.5hPa | 2.6V | 03:55:32 | 01:55:19 | 00:00:00 | |
| HSKMA3-T | 2026-08-31 12:12:22 | 49.85203 | 13.15707 | 282° | 18km/h | 23977m | 5m/s | -52°C | 0.8% | 31.6hPa | 2.6V | 03:55:32 | 01:55:15 | 00:00:00 | |
| DL1XH-west | 2026-08-31 12:12:18 | 49.85196 | 13.15734 | 311° | 20km/h | 23958m | 5.4m/s | -51.9°C | 0.9% | 31.7hPa | 2.7V | 03:55:32 | 01:55:11 | 00:00:00 | |
| AA1-15 | 2026-08-31 12:12:17 | 49.85192 | 13.15740 | 323° | 20km/h | 23952m | 4.9m/s | -51.9°C | 0.8% | 31.7hPa | 2.7V | 03:55:32 | 01:55:10 | 00:00:00 | |
| DF8AY | 2026-08-31 12:12:16 | 49.85183 | 13.15747 | 346° | 18km/h | 23942m | 6.3m/s | -52°C | 0.8% | 0hPa | 2.6V | 18:12:15 | 01:55:08 | 00:00:00 | |
| HSKMA3-T | 2026-08-31 12:12:12 | 49.85171 | 13.15748 | 350° | 15km/h | 23928m | 4.4m/s | -51.9°C | 0.7% | 31.8hPa | 2.7V | 03:55:32 | 01:55:05 | 00:00:00 | |
| DL1XH-west | 2026-08-31 12:12:07 | 49.85152 | 13.15791 | 281° | 20km/h | 23890m | 4.6m/s | -51.9°C | 0.8% | 32hPa | 2.6V | 03:55:32 | 01:54:58 | 00:00:00 | |
| AA1-15 | 2026-08-31 12:12:07 | 49.85153 | 13.15783 | 283° | 20km/h | 23895m | 5.2m/s | -51.9°C | 0.8% | 32hPa | 2.6V | 03:55:32 | 01:54:59 | 00:00:00 | |
| DF8AY | 2026-08-31 12:12:03 | 49.85132 | 13.15837 | 337° | 15km/h | 23849m | 4.1m/s | 0°C | 0% | 0hPa | 2.7V | 18:12:15 | 01:54:50 | 00:00:00 | |
| HSKMA3-T | 2026-08-31 12:12:01 | 49.85144 | 13.15822 | 305° | 20km/h | 23870m | 4.5m/s | -51.8°C | 0.8% | 32.1hPa | 2.6V | 03:55:32 | 01:54:54 | 00:00:00 | |
| DL1XH1-15 | 2026-08-31 12:12:01 | 49.85128 | 13.15840 | 330° | 18km/h | 23845m | 5.4m/s | -51.9°C | 4.1% | 32.2hPa | 2.7V | 03:55:28 | 01:54:49 | 00:00:00 | |
| AA1-15 | 2026-08-31 12:11:56 | 49.85124 | 13.15844 | 325° | 22km/h | 23839m | 6m/s | -51.8°C | 0.7% | 32.3hPa | 2.6V | 03:55:32 | 01:54:48 | 00:00:00 | |
| DL1XH-west | 2026-08-31 12:11:54 | 49.85119 | 13.15850 | 320° | 27km/h | 23833m | 5.3m/s | -51.7°C | 0.8% | 32.3hPa | 2.6V | 03:55:32 | 01:54:47 | 00:00:00 | |
| HSKMA3-T | 2026-08-31 12:11:51 | 49.85104 | 13.15872 | 309° | 24km/h | 23818m | 5.9m/s | -51.7°C | 0.7% | 32.4hPa | 2.7V | 03:56:23 | 01:54:44 | 00:00:00 | |
| SONDE2-11 | 2026-08-31 12:11:51 | 49.85101 | 13.15879 | 309° | 18km/h | 23813m | 5.2m/s | -51.7°C | 1.1% | 32.4hPa | 2.7V | 00:00:00 | 00:00:00 | 00:00:00 | |
| EDDB2-12 | 2026-08-31 12:11:50 | 49.85101 | 13.15879 | 309° | 18km/h | 23813m | 5.2m/s | -51.7°C | 1.1% | 32.4hPa | 2.7V | 00:00:00 | 00:00:00 | 00:00:00 | |
| DL1XH1-15 | 2026-08-31 12:11:49 | 49.85088 | 13.15896 | 327° | 18km/h | 23792m | 4.9m/s | -51.9°C | 4% | 32.5hPa | 2.7V | 03:55:38 | 01:54:39 | 00:00:00 | |
| DF8AY | 2026-08-31 12:11:47 | 49.85092 | 13.15892 | 325° | 16km/h | 23797m | 5.8m/s | 0°C | 0% | 0hPa | 2.6V | 18:12:15 | 01:54:40 | 00:00:00 | |
| AA1-15 | 2026-08-31 12:11:45 | 49.85081 | 13.15903 | 327° | 15km/h | 23783m | 5.3m/s | -51.8°C | 0.7% | 32.6hPa | 2.6V | 03:56:23 | 01:54:37 | 00:00:00 | |
| DL1XH-west | 2026-08-31 12:11:44 | 49.85078 | 13.15906 | 329° | 13km/h | 23777m | 6m/s | -51.8°C | 0.8% | 32.6hPa | 2.6V | 03:56:23 | 01:54:36 | 00:00:00 | |
| HSKMA3-T | 2026-08-31 12:11:41 | 49.85068 | 13.15912 | 343° | 18km/h | 23763m | 4.5m/s | -51.9°C | 0.7% | 32.6hPa | 2.6V | 03:56:23 | 01:54:33 | 00:00:00 | |
| DL1XH1-15 | 2026-08-31 12:11:40 | 49.85044 | 13.15934 | 316° | 33km/h | 23742m | 4.7m/s | -52.3°C | 4.2% | 32.8hPa | 2.7V | 03:55:48 | 01:54:29 | 00:00:00 | |
| AA1-15 | 2026-08-31 12:11:35 | 49.85039 | 13.15943 | 307° | 29km/h | 23738m | 4.9m/s | -52.3°C | 0.9% | 32.8hPa | 2.7V | 03:56:23 | 01:54:28 | 00:00:00 | |
| DL1XH-west | 2026-08-31 12:11:34 | 49.85035 | 13.15952 | 298° | 24km/h | 23732m | 5.4m/s | -52.4°C | 0.9% | 32.8hPa | 2.6V | 03:56:23 | 01:54:27 | 00:00:00 | |
| DF8AY | 2026-08-31 12:11:29 | 49.85028 | 13.15972 | 334° | 11km/h | 23707m | 5m/s | 0°C | 0% | 0hPa | 2.7V | 18:12:15 | 01:54:22 | 00:00:00 | |
| DL1XH1-15 | 2026-08-31 12:11:29 | 49.85018 | 13.15984 | 316° | 22km/h | 23691m | 5.8m/s | -52.6°C | 4.1% | 33hPa | 2.6V | 03:55:58 | 01:54:19 | 00:00:00 | |
| AA1-15 | 2026-08-31 12:11:24 | 49.85009 | 13.15997 | 312° | 26km/h | 23681m | 4.8m/s | -52.6°C | 0.8% | 33.1hPa | 2.7V | 03:56:23 | 01:54:17 | 00:00:00 | |
| DL1XH-west | 2026-08-31 12:11:23 | 49.85005 | 13.16004 | 315° | 24km/h | 23675m | 6m/s | -52.6°C | 0.8% | 33.1hPa | 2.7V | 03:56:23 | 01:54:16 | 00:00:00 | |
| HSKMA3-T | 2026-08-31 12:11:18 | 49.84990 | 13.16034 | 298° | 20km/h | 23649m | 5m/s | -52.8°C | 0.9% | 33.2hPa | 2.7V | 03:56:23 | 01:54:11 | 00:00:00 | |
| DL1XH1-15 | 2026-08-31 12:11:17 | 49.84983 | 13.16048 | 313° | 24km/h | 23640m | 4.8m/s | -52.9°C | 4.2% | 33.3hPa | 2.6V | 03:56:08 | 01:54:09 | 00:00:00 | |
| AA1-15 | 2026-08-31 12:11:13 | 49.84969 | 13.16060 | 351° | 20km/h | 23624m | 4.8m/s | -52.9°C | 0.8% | 33.4hPa | 2.6V | 03:56:23 | 01:54:06 | 00:00:00 | |
| DL1XH-west | 2026-08-31 12:11:12 | 49.84964 | 13.16061 | 353° | 18km/h | 23620m | 5m/s | -52.9°C | 0.8% | 33.4hPa | 2.6V | 03:56:23 | 01:54:05 | 00:00:00 | |
| HSKMA3-T | 2026-08-31 12:11:08 | 49.84952 | 13.16076 | 292° | 20km/h | 23598m | 4.8m/s | -52.8°C | 0.9% | 33.5hPa | 2.7V | 03:56:23 | 01:54:01 | 00:00:00 | |
| DF8AY | 2026-08-31 12:11:07 | 49.84948 | 13.16093 | 298° | 24km/h | 23588m | 5.4m/s | 0°C | 0% | 0hPa | 2.6V | 18:12:15 | 01:53:59 | 00:00:00 | |
| DM0DOS-11 | 2026-08-31 12:11:05 | 49.84945 | 13.16101 | 304° | 24km/h | 23582m | 5.2m/s | -52.8°C | 4.4% | 33.6hPa | 2.6V | 03:56:19 | 01:53:58 | 00:00:00 | |
| AA1-15 | 2026-08-31 12:11:03 | 49.84938 | 13.16115 | 308° | 22km/h | 23573m | 4.9m/s | -52.9°C | 0.9% | 33.6hPa | 2.7V | 03:56:23 | 01:53:56 | 00:00:00 | |
| DL1XH-west | 2026-08-31 12:11:02 | 49.84935 | 13.16121 | 304° | 18km/h | 23567m | 6.2m/s | -53°C | 1% | 33.7hPa | 2.7V | 03:56:23 | 01:53:55 | 00:00:00 | |
| DK5PH-5 | 2026-08-31 12:11:02 | 49.84935 | 13.16121 | 304° | 24km/h | 23567m | 6.2m/s | -52.9°C | 4.4% | 33.6hPa | 2.6V | 03:56:00 | 01:53:55 | 00:00:00 | |
| DO3MHA-11 | 2026-08-31 12:10:59 | 49.84929 | 13.16138 | 303° | 24km/h | 23552m | 5.1m/s | -53.0°C | 4.3% | 33.7hPa | 2.6V | 03:56:00 | 01:53:52 | 00:00:00 | |
| DL1XH1-15 | 2026-08-31 12:10:57 | 49.84920 | 13.16152 | 310° | 20km/h | 23536m | 4.1m/s | -53.2°C | 4.3% | 33.8hPa | 2.6V | 03:56:28 | 01:53:49 | 00:00:00 | |
| HSKMA3-T | 2026-08-31 12:10:57 | 49.84923 | 13.16147 | 317° | 18km/h | 23540m | 4.8m/s | -53.3°C | 0.9% | 33.8hPa | 2.7V | 03:57:14 | 01:53:50 | 00:00:00 | |
| AA1-15 | 2026-08-31 12:10:52 | 49.84911 | 13.16188 | 281° | 29km/h | 23515m | 4.6m/s | -53°C | 0.9% | 33.9hPa | 2.6V | 03:57:14 | 01:53:45 | 00:00:00 | |
| DL1XH-west | 2026-08-31 12:10:51 | 49.84910 | 13.16199 | 285° | 31km/h | 23510m | 6m/s | -53°C | 0.9% | 34hPa | 2.6V | 03:57:14 | 01:53:44 | 00:00:00 | |
| HSKMA3-T | 2026-08-31 12:10:47 | 49.84900 | 13.16242 | 286° | 27km/h | 23488m | 6m/s | -53°C | 0.9% | 34.1hPa | 2.6V | 03:57:14 | 01:53:40 | 00:00:00 | |
| AA1-15 | 2026-08-31 12:10:42 | 49.84885 | 13.16286 | 311° | 27km/h | 23462m | 3.9m/s | -53.1°C | 0.9% | 34.2hPa | 2.6V | 03:57:14 | 01:53:35 | 00:00:00 | |
| PETON7-10 | 2026-08-31 12:10:41 | 49.84877 | 13.16304 | 298° | 22km/h | 23453m | 5.6m/s | -53.2°C | 4.3% | 34.2hPa | 2.6V | 03:56:00 | 00:00:00 | 00:00:00 | |
| DM0DOS-11 | 2026-08-31 12:10:40 | 49.84873 | 13.16350 | 262° | 22km/h | 23425m | 4.3m/s | -53.2°C | 4.5% | 34.4hPa | 2.6V | 03:56:49 | 01:53:28 | 00:00:00 | |
| DL1XH-west | 2026-08-31 12:10:40 | 49.84877 | 13.16304 | 298° | 27km/h | 23453m | 5.7m/s | -53.2°C | 0.9% | 34.3hPa | 2.6V | 03:57:14 | 01:53:33 | 00:00:00 | |
| DO3MHA-11 | 2026-08-31 12:10:39 | 49.84874 | 13.16313 | 286° | 24km/h | 23447m | 5.4m/s | -53.2°C | 4.4% | 34.2hPa | 2.7V | 00:00:00 | 01:53:32 | 00:00:00 | |
| DL1XH1-15 | 2026-08-31 12:10:37 | 49.84873 | 13.16341 | 266° | 22km/h | 23430m | 5.8m/s | -53.2°C | 4.5% | 34.4hPa | 2.6V | 03:56:48 | 01:53:29 | 00:00:00 | |
| HSKMA3-T | 2026-08-31 12:10:36 | 49.84873 | 13.16341 | 267° | 22km/h | 23430m | 5.9m/s | -53.2°C | 1% | 34.4hPa | 2.6V | 03:57:14 | 01:53:29 | 00:00:00 | |
| AA1-15 | 2026-08-31 12:10:31 | 49.84877 | 13.16389 | 268° | 26km/h | 23405m | 4.1m/s | -53.4°C | 0.9% | 34.5hPa | 2.6V | 03:57:14 | 01:53:24 | 00:00:00 | |
| DL1XH-west | 2026-08-31 12:10:30 | 49.84877 | 13.16399 | 276° | 24km/h | 23400m | 5.6m/s | -53.5°C | 0.9% | 34.5hPa | 2.6V | 03:57:14 | 01:53:23 | 00:00:00 | |
| DO3MHA-11 | 2026-08-31 12:10:29 | 49.84875 | 13.16407 | 288° | 16km/h | 23395m | 6.3m/s | -53.4°C | 4.3% | 34.6hPa | 2.6V | 00:00:00 | 01:53:22 | 00:00:00 | |
| DL1XH1-15 | 2026-08-31 12:10:27 | 49.84869 | 13.16427 | 297° | 18km/h | 23379m | 5.6m/s | -53.4°C | 4.4% | 34.7hPa | 2.6V | 03:56:58 | 01:53:19 | 00:00:00 | |
| HSKMA3-T | 2026-08-31 12:10:25 | 49.84867 | 13.16434 | 287° | 18km/h | 23373m | 5.3m/s | -53.3°C | 1% | 34.7hPa | 2.6V | 03:57:14 | 01:53:18 | 00:00:00 | |
| DM0DOS-11 | 2026-08-31 12:10:24 | 49.84866 | 13.16454 | 264° | 15km/h | 23359m | 5.8m/s | -53.3°C | 4.5% | 34.8hPa | 2.7V | 03:57:02 | 01:53:15 | 00:00:00 | |
| PETON7-10 | 2026-08-31 12:10:22 | 49.84866 | 13.16453 | 265° | 16km/h | 23360m | 5.8m/s | -53.2°C | 4.5% | 34.7hPa | 2.7V | 00:00:00 | 00:00:00 | 00:00:00 | |
| DL1XH1-15 | 2026-08-31 12:10:21 | 49.84867 | 13.16488 | 273° | 22km/h | 23328m | 5.3m/s | -53.5°C | 4.4% | 34.9hPa | 2.7V | 03:57:08 | 01:53:09 | 00:00:00 | |
| DL1XH-west | 2026-08-31 12:10:19 | 49.84867 | 13.16468 | 265° | 13km/h | 23344m | 4.1m/s | -53.3°C | 0.9% | 34.9hPa | 2.6V | 03:57:14 | 01:53:12 | 00:00:00 | |
| DF8AY | 2026-08-31 12:10:18 | 49.84867 | 13.16473 | 268° | 16km/h | 23339m | 5.6m/s | 0°C | 0% | 0hPa | 2.7V | 18:12:15 | 01:53:11 | 00:00:00 | |
| HSKMA3-T | 2026-08-31 12:10:15 | 49.84867 | 13.16497 | 281° | 22km/h | 23322m | 5.6m/s | -53.6°C | 0.9% | 35hPa | 2.6V | 03:57:14 | 01:53:08 | 00:00:00 | |
| PG1ADW-2 | 2026-08-31 12:10:15 | 49.84867 | 13.16497 | 281° | 13km/h | 23322m | 5.5m/s | -53.5°C | 4.4% | 34.9hPa | 2.6V | 00:00:00 | 00:00:00 | 00:00:00 | |
| DO8TBO-1 | 2026-08-31 12:10:14 | 49.84865 | 13.16505 | 288° | 13km/h | 23317m | 5.7m/s | -53.5°C | 4.5% | 35.0hPa | 2.6V | 00:00:00 | 01:53:07 | 00:00:00 | |
| DL1XH1-15 | 2026-08-31 12:10:11 | 49.84867 | 13.16540 | 174° | 7km/h | 23275m | 3.8m/s | -53.5°C | 4.5% | 35.2hPa | 2.7V | 03:57:18 | 01:52:59 | 00:00:00 | |
| AA1-15 | 2026-08-31 12:10:09 | 49.84862 | 13.16536 | 244° | 11km/h | 23291m | 4.8m/s | -53.4°C | 1% | 35.1hPa | 2.6V | 03:58:05 | 01:53:02 | 00:00:00 | |
| DL1XH-west | 2026-08-31 12:10:08 | 49.84863 | 13.16539 | 220° | 9km/h | 23286m | 6.1m/s | -53.4°C | 0.9% | 35.2hPa | 2.6V | 03:58:05 | 01:53:01 | 00:00:00 | |
| HSKMA3-T | 2026-08-31 12:10:05 | 49.84869 | 13.16541 | 197° | 5km/h | 23271m | 4.4m/s | -53.5°C | 1% | 35.2hPa | 2.7V | 03:58:05 | 01:52:58 | 00:00:00 | |
| NBG1-10 | 2026-08-31 12:10:05 | 49.84869 | 13.16540 | 198° | 11km/h | 23271m | 4.4m/s | -53.5°C | 4.5% | 35.2hPa | 2.7V | 00:00:00 | 01:52:58 | 00:00:00 | |
| ANDY1245 | 2026-08-31 12:10:04 | 49.84869 | 13.16540 | 198° | 5km/h | 23271m | 4.4m/s | -53.5°C | 1.3% | 35.2hPa | 2.7V | 00:00:00 | 00:00:00 | 00:00:00 | |
| EDDB2-11 | 2026-08-31 12:10:03 | 49.84870 | 13.16545 | 279° | 9km/h | 23261m | 5.0m/s | -53.4°C | 1.3% | 35.3hPa | 2.7V | 00:00:00 | 00:00:00 | 00:00:00 | |
| DK5PH-5 | 2026-08-31 12:10:02 | 49.84869 | 13.16549 | 297° | 11km/h | 23256m | 4.6m/s | -53.3°C | 4.4% | 35.3hPa | 2.7V | 00:00:00 | 01:52:55 | 00:00:00 | |
| DL1XH1-15 | 2026-08-31 12:10:00 | 49.84860 | 13.16581 | 226° | 9km/h | 23219m | 5.4m/s | -53.5°C | 4.5% | 35.5hPa | 2.7V | 03:57:29 | 01:52:48 | 00:00:00 | |
| DF8AY | 2026-08-31 12:09:58 | 49.84860 | 13.16568 | 297° | 15km/h | 23234m | 5.8m/s | 0°C | 0% | 0hPa | 2.6V | 18:12:15 | 01:52:51 | 00:00:00 | |
| DL1XH-west | 2026-08-31 12:09:58 | 49.84859 | 13.16573 | 280° | 13km/h | 23229m | 5.1m/s | -53.5°C | 1% | 35.5hPa | 2.7V | 03:58:05 | 01:52:50 | 00:00:00 | |
| HSKMA3-T | 2026-08-31 12:09:54 | 49.84861 | 13.16582 | 189° | 7km/h | 23214m | 6.1m/s | -53.4°C | 1% | 35.6hPa | 2.6V | 03:58:05 | 01:52:47 | 00:00:00 | |
| AA1-15 | 2026-08-31 12:09:48 | 49.84875 | 13.16589 | 261° | 13km/h | 23186m | 4.4m/s | -53.3°C | 1% | 35.7hPa | 2.6V | 03:58:05 | 01:52:41 | 00:00:00 | |
| DL1XH1-15 | 2026-08-31 12:09:48 | 49.84871 | 13.16602 | 316° | 13km/h | 23170m | 4.9m/s | -53.1°C | 4.3% | 35.8hPa | 2.7V | 03:57:39 | 01:52:38 | 00:00:00 | |
| DL1XH-west | 2026-08-31 12:09:47 | 49.84875 | 13.16594 | 282° | 13km/h | 23181m | 5.6m/s | -53.3°C | 1% | 35.7hPa | 2.6V | 03:58:05 | 01:52:40 | 00:00:00 | |
| DM0DOS-11 | 2026-08-31 12:09:47 | 49.84873 | 13.16598 | 302° | 13km/h | 23175m | 5.5m/s | -53.2°C | 4.4% | 35.8hPa | 2.6V | 03:57:38 | 01:52:39 | 00:00:00 | |
| EDDB2-12 | 2026-08-31 12:09:46 | 49.84871 | 13.16602 | 316° | 13km/h | 23170m | 4.9m/s | -53.2°C | 1.2% | 35.8hPa | 2.7V | 00:00:00 | 00:00:00 | 00:00:00 | |
| DO8TBO-1 | 2026-08-31 12:09:44 | 49.84869 | 13.16606 | 318° | 7km/h | 23165m | 4.9m/s | -53.2°C | 4.3% | 35.8hPa | 2.7V | 00:00:00 | 01:52:37 | 00:00:00 | |
| HSKMA3-T | 2026-08-31 12:09:44 | 49.84869 | 13.16606 | 317° | 15km/h | 23165m | 4.9m/s | -53.2°C | 0.9% | 35.9hPa | 2.7V | 03:58:05 | 01:52:37 | 00:00:00 | |
| DM0DOS-11 | 2026-08-31 12:09:41 | 49.84856 | 13.16623 | 191° | 4km/h | 23125m | 6.3m/s | -53.2°C | 4.4% | 36.1hPa | 2.7V | 03:57:48 | 01:52:29 | 00:00:00 | |
| AA1-15 | 2026-08-31 12:09:38 | 49.84856 | 13.16624 | 192° | 4km/h | 23125m | 6.3m/s | -53.2°C | 1% | 36.1hPa | 2.7V | 03:58:05 | 01:52:29 | 00:00:00 | |
| DF8AY | 2026-08-31 12:09:38 | 49.84856 | 13.16624 | 3° | 4km/h | 23135m | 4.6m/s | 0°C | 0% | 0hPa | 2.6V | 18:12:15 | 01:52:31 | 00:00:00 | |
| OE5MMP-10 | 2026-08-31 12:09:38 | 49.84856 | 13.16623 | 4° | 5km/h | 23136m | 4.6m/s | -53.2°C | 4.4% | 36.0hPa | 2.6V | 00:00:00 | 01:52:31 | 00:00:00 | |
| DL1XH1-15 | 2026-08-31 12:09:36 | 49.84858 | 13.16624 | 199° | 7km/h | 23119m | 5.1m/s | -53.2°C | 4.4% | 36.1hPa | 2.6V | 03:57:49 | 01:52:28 | 00:00:00 | |
| DL1XH-west | 2026-08-31 12:09:36 | 49.84858 | 13.16624 | 200° | 7km/h | 23119m | 5.1m/s | -53.2°C | 0.9% | 36.1hPa | 2.6V | 03:58:05 | 01:52:28 | 00:00:00 | |
| HSKMA3-T | 2026-08-31 12:09:34 | 49.84860 | 13.16626 | 212° | 4km/h | 23109m | 5.7m/s | -53.1°C | 0.9% | 36.2hPa | 2.6V | 03:58:05 | 01:52:26 | 00:00:00 | |
| DF8AY | 2026-08-31 12:09:28 | 49.84858 | 13.16642 | 284° | 15km/h | 23083m | 4m/s | 0°C | 0% | 0hPa | 2.6V | 18:12:15 | 01:52:21 | 00:00:00 | |
| DM0DOS-11 | 2026-08-31 12:09:27 | 49.84856 | 13.16652 | 287° | 11km/h | 23075m | 5.6m/s | -53.1°C | 4.4% | 36.4hPa | 2.7V | 03:57:58 | 01:52:19 | 00:00:00 | |
| AA1-15 | 2026-08-31 12:09:27 | 49.84856 | 13.16652 | 287° | 11km/h | 23075m | 5.6m/s | -53.1°C | 1% | 36.4hPa | 2.7V | 03:58:05 | 01:52:19 | 00:00:00 | |
| DL1XH1-15 | 2026-08-31 12:09:26 | 49.84856 | 13.16655 | 292° | 5km/h | 23069m | 5.5m/s | -53.1°C | 4.5% | 36.4hPa | 2.7V | 03:57:59 | 01:52:18 | 00:00:00 | |
| DL1XH-west | 2026-08-31 12:09:24 | 49.84856 | 13.16656 | 157° | 4km/h | 23059m | 4.6m/s | -53°C | 1% | 36.4hPa | 2.6V | 03:58:05 | 01:52:16 | 00:00:00 | |
| HSKMA3-T | 2026-08-31 12:09:23 | 49.84857 | 13.16655 | 167° | 7km/h | 23054m | 6m/s | -53.1°C | 0.9% | 36.5hPa | 2.6V | 03:58:05 | 01:52:15 | 00:00:00 | |
| AA1-15 | 2026-08-31 12:09:17 | 49.84868 | 13.16656 | 255° | 11km/h | 23018m | 5.9m/s | -53°C | 0.9% | 36.7hPa | 2.7V | 03:58:56 | 01:52:08 | 00:00:00 | |
| DM0DOS-11 | 2026-08-31 12:09:15 | 49.84872 | 13.16676 | 236° | 9km/h | 22998m | 5m/s | -52.9°C | 4.4% | 36.8hPa | 2.7V | 03:58:13 | 01:52:04 | 00:00:00 | |
| DL1XH1-15 | 2026-08-31 12:09:15 | 49.84869 | 13.16661 | 254° | 15km/h | 23013m | 4.2m/s | -52.9°C | 4.3% | 36.7hPa | 2.6V | 03:58:10 | 01:52:07 | 00:00:00 | |
| HSKMA3-T | 2026-08-31 12:09:12 | 49.84871 | 13.16672 | 250° | 13km/h | 23004m | 5.8m/s | -52.9°C | 0.9% | 36.8hPa | 2.6V | 03:58:56 | 01:52:05 | 00:00:00 | |
| DB0NH | 2026-08-31 12:09:11 | 49.84872 | 13.16676 | 237° | 13km/h | 22999m | 4.9m/s | -52.8°C | 4.4% | 36.7hPa | 2.7V | 03:58:00 | 01:52:04 | 00:00:00 | |
| DO3MHA-11 | 2026-08-31 12:09:09 | 49.84875 | 13.16680 | 207° | 13km/h | 22990m | 4.7m/s | -52.8°C | 4.4% | 36.8hPa | 2.7V | 00:00:00 | 01:52:02 | 00:00:00 | |
| DL1XH1-15 | 2026-08-31 12:09:08 | 49.84890 | 13.16689 | 191° | 11km/h | 22963m | 5.3m/s | -53°C | 4.3% | 37hPa | 2.7V | 03:58:20 | 01:51:57 | 00:00:00 | |
| DF8AY | 2026-08-31 12:09:07 | 49.84887 | 13.16688 | 197° | 13km/h | 22969m | 5.9m/s | 0°C | 0% | 0hPa | 2.7V | 18:12:15 | 01:51:58 | 00:00:00 | |
| AA1-15 | 2026-08-31 12:09:06 | 49.84892 | 13.16690 | 201° | 9km/h | 22958m | 4.3m/s | -53.1°C | 0.8% | 37hPa | 2.7V | 03:58:56 | 01:51:56 | 00:00:00 | |
| PETON7-10 | 2026-08-31 12:09:06 | 49.84884 | 13.16686 | 204° | 15km/h | 22974m | 4.3m/s | -53.0°C | 4.4% | 36.9hPa | 2.6V | 00:00:00 | 00:00:00 | 00:00:00 | |
| DM0DOS-11 | 2026-08-31 12:09:05 | 49.84896 | 13.16696 | 233° | 13km/h | 22948m | 6m/s | -53.1°C | 4.3% | 37.1hPa | 2.6V | 03:58:23 | 01:51:54 | 00:00:00 | |
| DL1XH-west | 2026-08-31 12:09:02 | 49.84894 | 13.16692 | 220° | 11km/h | 22953m | 5.3m/s | -53.1°C | 0.9% | 37hPa | 2.6V | 03:58:56 | 01:51:55 | 00:00:00 | |
| HSKMA3-T | 2026-08-31 12:09:01 | 49.84896 | 13.16696 | 234° | 13km/h | 22948m | 6m/s | -53.1°C | 0.9% | 37.1hPa | 2.6V | 03:58:56 | 01:51:54 | 00:00:00 | |
| DO3MHA-11 | 2026-08-31 12:08:59 | 49.84899 | 13.16706 | 248° | 15km/h | 22938m | 5.1m/s | -53.0°C | 4.3% | 37.1hPa | 2.6V | 03:58:00 | 01:51:52 | 00:00:00 | |
| OE5MMP-10 | 2026-08-31 12:08:58 | 49.84901 | 13.16711 | 249° | 15km/h | 22933m | 5.9m/s | -53.0°C | 4.4% | 37.1hPa | 2.6V | 00:00:00 | 01:51:51 | 00:00:00 | |
| DM0DOS-11 | 2026-08-31 12:08:55 | 49.84919 | 13.16740 | 192° | 15km/h | 22896m | 5.4m/s | -52.8°C | 4.3% | 37.4hPa | 2.6V | 03:58:33 | 01:51:44 | 00:00:00 | |
| DF8AY | 2026-08-31 12:08:54 | 49.84909 | 13.16731 | 225° | 18km/h | 22912m | 4.8m/s | 0°C | 0% | 0hPa | 2.7V | 18:12:15 | 01:51:47 | 00:00:00 | |
| AA1-15 | 2026-08-31 12:08:53 | 49.84916 | 13.16738 | 204° | 16km/h | 22902m | 5.9m/s | -52.8°C | 0.9% | 37.4hPa | 2.6V | 03:58:56 | 01:51:45 | 00:00:00 | |
| DL1XH-west | 2026-08-31 12:08:51 | 49.84919 | 13.16740 | 192° | 15km/h | 22896m | 5.4m/s | -52.8°C | 0.9% | 37.4hPa | 2.6V | 03:58:56 | 01:51:44 | 00:00:00 | |
| HSKMA3-T | 2026-08-31 12:08:50 | 49.84923 | 13.16741 | 188° | 13km/h | 22891m | 4.4m/s | -52.8°C | 0.9% | 37.4hPa | 2.7V | 03:58:56 | 01:51:43 | 00:00:00 | |
| DO3MHA-11 | 2026-08-31 12:08:49 | 49.84925 | 13.16742 | 197° | 11km/h | 22887m | 4.4m/s | -52.8°C | 4.3% | 37.4hPa | 2.7V | 00:00:00 | 01:51:42 | 00:00:00 | |
| OE5MMP-10 | 2026-08-31 12:08:48 | 49.84928 | 13.16744 | 212° | 11km/h | 22882m | 5.6m/s | -52.8°C | 4.2% | 37.4hPa | 2.7V | 00:00:00 | 01:51:41 | 00:00:00 | |
| DJ2DS-15 | 2026-08-31 12:08:46 | 49.84934 | 13.16751 | 229° | 11km/h | 22872m | 4.2m/s | -52.8°C | 4.2% | 37.5hPa | 2.6V | 00:00:00 | 01:51:39 | 00:00:00 | |
| DM0DOS-11 | 2026-08-31 12:08:45 | 49.84945 | 13.16768 | 206° | 11km/h | 22840m | 4.5m/s | -52.7°C | 4.3% | 37.7hPa | 2.6V | 03:58:44 | 01:51:33 | 00:00:00 | |
| AA1-15 | 2026-08-31 12:08:42 | 49.84943 | 13.16766 | 217° | 11km/h | 22845m | 5.6m/s | -52.8°C | 0.9% | 37.7hPa | 2.6V | 03:58:56 | 01:51:34 | 00:00:00 | |
| DL1XH-west | 2026-08-31 12:08:40 | 49.84945 | 13.16768 | 207° | 11km/h | 22840m | 4.5m/s | -52.7°C | 0.9% | 37.7hPa | 2.6V | 03:58:56 | 01:51:33 | 00:00:00 | |
| HSKMA3-T | 2026-08-31 12:08:39 | 49.84948 | 13.16769 | 192° | 9km/h | 22836m | 4.7m/s | -52.8°C | 0.9% | 37.7hPa | 2.6V | 03:58:56 | 01:51:32 | 00:00:00 | |
| DO3MHA-11 | 2026-08-31 12:08:39 | 49.84948 | 13.16769 | 193° | 13km/h | 22836m | 4.7m/s | -52.7°C | 4.3% | 37.7hPa | 2.6V | 00:00:00 | 01:51:32 | 00:00:00 | |
| OE5MMP-10 | 2026-08-31 12:08:38 | 49.84950 | 13.16769 | 176° | 13km/h | 22830m | 6.0m/s | -52.7°C | 4.3% | 37.7hPa | 2.6V | 00:00:00 | 01:51:31 | 00:00:00 | |
| PETON7-10 | 2026-08-31 12:08:36 | 49.84956 | 13.16768 | 171° | 13km/h | 22820m | 4.6m/s | -52.8°C | 4.3% | 37.8hPa | 2.6V | 03:58:00 | 01:51:29 | 00:00:00 | |
| DM0DOS-11 | 2026-08-31 12:08:35 | 49.84975 | 13.16767 | 168° | 13km/h | 22790m | 3.8m/s | -52.9°C | 4.2% | 38hPa | 2.6V | 03:58:54 | 01:51:23 | 00:00:00 | |
| AA1-15 | 2026-08-31 12:08:32 | 49.84969 | 13.16768 | 178° | 13km/h | 22800m | 5.8m/s | -53°C | 0.8% | 38hPa | 2.7V | 03:58:56 | 01:51:25 | 00:00:00 | |
| HSKMA3-T | 2026-08-31 12:08:29 | 49.84979 | 13.16766 | 179° | 13km/h | 22785m | 5.3m/s | -52.9°C | 0.8% | 38hPa | 2.6V | 03:58:56 | 01:51:22 | 00:00:00 | |
| DO3MHA-11 | 2026-08-31 12:08:29 | 49.84979 | 13.16766 | 179° | 11km/h | 22785m | 5.3m/s | -52.8°C | 4.2% | 38.0hPa | 2.6V | 00:00:00 | 01:51:22 | 00:00:00 | |
| OE5MMP-10 | 2026-08-31 12:08:28 | 49.84982 | 13.16767 | 192° | 11km/h | 22780m | 5.6m/s | -52.9°C | 4.2% | 38.0hPa | 2.6V | 03:58:00 | 01:51:21 | 00:00:00 | |
| DJ2DS-15 | 2026-08-31 12:08:26 | 49.84987 | 13.16769 | 185° | 11km/h | 22771m | 4.5m/s | -53.0°C | 4.3% | 38.1hPa | 2.6V | 03:58:00 | 01:51:19 | 00:00:00 | |
| DM0DOS-11 | 2026-08-31 12:08:25 | 49.85002 | 13.16759 | 143° | 11km/h | 22739m | 3.6m/s | -53.3°C | 4.4% | 38.3hPa | 2.6V | 03:59:04 | 01:51:13 | 00:00:00 | |
| AA1-15 | 2026-08-31 12:08:22 | 49.84997 | 13.16763 | 154° | 11km/h | 22748m | 6m/s | -53.2°C | 0.9% | 38.3hPa | 2.7V | 03:59:47 | 01:51:15 | 00:00:00 | |
| DL1XH-west | 2026-08-31 12:08:19 | 49.85004 | 13.16756 | 135° | 13km/h | 22734m | 5.7m/s | -53.4°C | 0.9% | 38.4hPa | 2.6V | 03:59:47 | 01:51:12 | 00:00:00 | |
| HSKMA3-T | 2026-08-31 12:08:18 | 49.85006 | 13.16752 | 130° | 13km/h | 22729m | 5.3m/s | -53.4°C | 0.9% | 38.4hPa | 2.6V | 03:59:47 | 01:51:11 | 00:00:00 | |
| AA1-15 | 2026-08-31 12:08:12 | 49.85024 | 13.16742 | 137° | 11km/h | 22694m | 5.6m/s | -53.5°C | 1% | 38.6hPa | 2.7V | 03:59:47 | 01:51:04 | 00:00:00 | |
| DM0DOS-11 | 2026-08-31 12:08:10 | 49.85026 | 13.16734 | 113° | 11km/h | 22683m | 6.1m/s | -53.5°C | 4.6% | 38.6hPa | 2.6V | 03:59:15 | 01:51:02 | 00:00:00 | |
| DL1XH-west | 2026-08-31 12:08:09 | 49.85026 | 13.16734 | 113° | 11km/h | 22683m | 6.1m/s | -53.5°C | 1.1% | 38.6hPa | 2.6V | 03:59:47 | 01:51:02 | 00:00:00 | |
| HSKMA3-T | 2026-08-31 12:08:07 | 49.85028 | 13.16725 | 99° | 15km/h | 22673m | 4.2m/s | -53.6°C | 1.1% | 38.7hPa | 2.7V | 03:59:47 | 01:51:00 | 00:00:00 | |
| AA1-15 | 2026-08-31 12:08:02 | 49.85033 | 13.16691 | 196° | 7km/h | 22634m | 4.7m/s | -53.4°C | 0.9% | 38.9hPa | 2.6V | 03:59:47 | 01:50:52 | 00:00:00 | |
| SONCRA | 2026-08-31 12:08:01 | 49.85032 | 13.16691 | 188° | 5km/h | 22638m | 4.1m/s | -53.4°C | 1.2% | 38.9hPa | 2.6V | 00:00:00 | 00:00:00 | 00:00:00 | |
| DM0DOS-11 | 2026-08-31 12:07:59 | 49.85036 | 13.16691 | 117° | 5km/h | 22623m | 5.2m/s | -53.4°C | 4.5% | 39hPa | 2.6V | 03:59:27 | 01:50:50 | 00:00:00 | |
| DL1XH-west | 2026-08-31 12:07:58 | 49.85035 | 13.16692 | 176° | 5km/h | 22629m | 5.3m/s | -53.4°C | 1% | 39hPa | 2.6V | 03:59:47 | 01:50:51 | 00:00:00 | |
| DL1XH1-15 | 2026-08-31 12:07:58 | 49.85037 | 13.16678 | 97° | 16km/h | 22609m | 5.1m/s | -53.3°C | 4.5% | 39.1hPa | 2.7V | 03:59:30 | 01:50:47 | 00:00:00 | |
| HSKMA3-T | 2026-08-31 12:07:57 | 49.85036 | 13.16691 | 118° | 5km/h | 22624m | 5.2m/s | -53.4°C | 1% | 39hPa | 2.6V | 03:59:47 | 01:50:50 | 00:00:00 | |
| AA1-15 | 2026-08-31 12:07:51 | 49.85041 | 13.16643 | 90° | 20km/h | 22584m | 5.3m/s | -53.5°C | 0.9% | 39.2hPa | 2.7V | 03:59:47 | 01:50:42 | 00:00:00 | |
| DL1XH-west | 2026-08-31 12:07:47 | 49.85041 | 13.16629 | 89° | 15km/h | 22574m | 4.4m/s | -53.4°C | 0.9% | 39.3hPa | 2.6V | 03:59:47 | 01:50:40 | 00:00:00 | |
| DM0DOS-11 | 2026-08-31 12:07:47 | 49.85041 | 13.16621 | 115° | 7km/h | 22563m | 5.1m/s | -53.2°C | 4.4% | 39.4hPa | 2.7V | 03:59:39 | 01:50:38 | 00:00:00 | |
| DL6DJ-15 | 2026-08-31 12:07:47 | 49.85041 | 13.16625 | 97° | 9km/h | 22569m | 6.2m/s | -53.3°C | 1.2% | 39.3hPa | 2.6V | 00:00:00 | 00:00:00 | 00:00:00 | |
| AA1-15 | 2026-08-31 12:07:40 | 49.85040 | 13.16610 | 75° | 11km/h | 22537m | 5.6m/s | -53.1°C | 1% | 39.5hPa | 2.6V | 03:59:47 | 01:50:33 | 00:00:00 | |
| DL1XH-west | 2026-08-31 12:07:36 | 49.85039 | 13.16585 | 81° | 22km/h | 22517m | 5.8m/s | -53°C | 0.9% | 39.7hPa | 2.7V | 04:00:38 | 01:50:29 | 00:00:00 | |
| DM0DOS-11 | 2026-08-31 12:07:35 | 49.85037 | 13.16569 | 80° | 22km/h | 22507m | 4.3m/s | -53°C | 4.2% | 39.7hPa | 2.6V | 03:59:50 | 01:50:27 | 00:00:00 | |
| AA1-15 | 2026-08-31 12:07:30 | 49.85038 | 13.16545 | 90° | 5km/h | 22480m | 5.8m/s | -53°C | 0.9% | 39.9hPa | 2.7V | 04:00:38 | 01:50:22 | 00:00:00 | |
| HSKMA3-T | 2026-08-31 12:07:27 | 49.85037 | 13.16540 | 68° | 7km/h | 22470m | 4.5m/s | -52.9°C | 0.9% | 40hPa | 2.6V | 04:00:38 | 01:50:20 | 00:00:00 | |
| DJ2DS-15 | 2026-08-31 12:07:26 | 49.85037 | 13.16537 | 80° | 16km/h | 22466m | 5.7m/s | -52.9°C | 4.4% | 39.9hPa | 2.6V | 00:00:00 | 01:50:19 | 00:00:00 | |
| DM0DOS-11 | 2026-08-31 12:07:25 | 49.85035 | 13.16519 | 77° | 22km/h | 22450m | 6m/s | -53°C | 4.3% | 40.1hPa | 2.6V | 04:00:01 | 01:50:16 | 00:00:00 | |
| DL1XH-west | 2026-08-31 12:07:25 | 49.85036 | 13.16533 | 86° | 13km/h | 22460m | 4.9m/s | -53°C | 0.9% | 40hPa | 2.7V | 04:00:38 | 01:50:18 | 00:00:00 | |
| AA1-15 | 2026-08-31 12:07:20 | 49.85029 | 13.16493 | 67° | 22km/h | 22435m | 4.4m/s | -53.1°C | 0.9% | 40.2hPa | 2.7V | 04:00:38 | 01:50:13 | 00:00:00 | |
| NBG1-10 | 2026-08-31 12:07:20 | 49.85029 | 13.16493 | 68° | 15km/h | 22435m | 4.4m/s | -53.1°C | 4.3% | 40.1hPa | 2.6V | 04:00:00 | 01:50:13 | 00:00:00 | |
| DO3MHA-11 | 2026-08-31 12:07:19 | 49.85027 | 13.16486 | 72° | 13km/h | 22430m | 5.6m/s | -53.0°C | 4.3% | 40.2hPa | 2.6V | 00:00:00 | 01:50:12 | 00:00:00 | |
| OE5WHR-10 | 2026-08-31 12:07:18 | 49.85026 | 13.16480 | 78° | 15km/h | 22425m | 4.8m/s | -53.0°C | 4.3% | 40.2hPa | 2.6V | 04:00:00 | 00:00:00 | 00:00:00 | |
| DL1XH1-15 | 2026-08-31 12:07:17 | 49.85020 | 13.16451 | 76° | 15km/h | 22396m | 5.2m/s | -53.3°C | 4.4% | 40.4hPa | 2.6V | 04:00:12 | 01:50:05 | 00:00:00 | |
| HSKMA3-T | 2026-08-31 12:07:16 | 49.85024 | 13.16466 | 67° | 13km/h | 22410m | 5.6m/s | -53.3°C | 0.8% | 40.3hPa | 2.7V | 04:00:38 | 01:50:08 | 00:00:00 | |
| DL1XH-west | 2026-08-31 12:07:14 | 49.85023 | 13.16461 | 67° | 13km/h | 22406m | 4.5m/s | -53.3°C | 0.8% | 40.4hPa | 2.7V | 04:00:38 | 01:50:07 | 00:00:00 | |
| AA1-15 | 2026-08-31 12:07:09 | 49.85018 | 13.16437 | 60° | 11km/h | 22382m | 4.5m/s | -53.4°C | 1% | 40.5hPa | 2.7V | 04:00:38 | 01:50:02 | 00:00:00 | |
| DO3MHA-11 | 2026-08-31 12:07:09 | 49.85018 | 13.16437 | 61° | 16km/h | 22382m | 4.4m/s | -53.3°C | 4.4% | 40.5hPa | 2.7V | 00:00:00 | 01:50:02 | 00:00:00 | |
| OE5MMP-10 | 2026-08-31 12:07:08 | 49.85016 | 13.16433 | 50° | 16km/h | 22378m | 5.0m/s | -53.3°C | 4.5% | 40.5hPa | 2.6V | 00:00:00 | 01:50:01 | 00:00:00 | |
| DJ2DS-15 | 2026-08-31 12:07:06 | 49.85010 | 13.16422 | 52° | 16km/h | 22368m | 4.7m/s | -53.5°C | 4.6% | 40.6hPa | 2.6V | 00:00:00 | 01:49:59 | 00:00:00 | |
| DL1XH1-15 | 2026-08-31 12:07:05 | 49.85000 | 13.16396 | 62° | 11km/h | 22348m | 5.1m/s | -53.4°C | 4.5% | 40.7hPa | 2.6V | 04:00:22 | 01:49:55 | 00:00:00 | |
| DM0DOS-11 | 2026-08-31 12:07:05 | 49.85002 | 13.16401 | 64° | 16km/h | 22353m | 4.9m/s | -53.4°C | 4.5% | 40.7hPa | 2.7V | 04:00:21 | 01:49:56 | 00:00:00 | |
| DL1XH-west | 2026-08-31 12:07:04 | 49.85002 | 13.16401 | 65° | 16km/h | 22353m | 4.9m/s | -53.4°C | 1% | 40.7hPa | 2.7V | 04:00:38 | 01:49:56 | 00:00:00 | |
| AA1-15 | 2026-08-31 12:06:59 | 49.84993 | 13.16385 | 41° | 15km/h | 22328m | 5.3m/s | -53.7°C | 1% | 40.9hPa | 2.6V | 04:00:38 | 01:49:51 | 00:00:00 | |
| SONCRA | 2026-08-31 12:06:59 | 49.84993 | 13.16385 | 40° | 15km/h | 22328m | 5.3m/s | -53.7°C | 1.3% | 40.9hPa | 2.6V | 00:00:00 | 00:00:00 | 00:00:00 | |
| DL1XH1-15 | 2026-08-31 12:06:58 | 49.84977 | 13.16355 | 47° | 18km/h | 22298m | 6.3m/s | -53.3°C | 4.5% | 41hPa | 2.6V | 04:00:32 | 01:49:45 | 00:00:00 | |
| HSKMA3-T | 2026-08-31 12:06:53 | 49.84977 | 13.16355 | 48° | 18km/h | 22298m | 6.3m/s | -53.3°C | 1% | 41hPa | 2.6V | 04:00:38 | 01:49:45 | 00:00:00 | |
| AA1-15 | 2026-08-31 12:06:47 | 49.84957 | 13.16338 | 5° | 11km/h | 22268m | 3.8m/s | -53.2°C | 0.9% | 41.2hPa | 2.6V | 04:00:38 | 01:49:39 | 00:00:00 | |
| NBG1-10 | 2026-08-31 12:06:47 | 49.84960 | 13.16338 | 13° | 18km/h | 22272m | 4.2m/s | -53.2°C | 4.5% | 41.2hPa | 2.7V | 00:00:00 | 01:49:40 | 00:00:00 | |
| DL1XH1-15 | 2026-08-31 12:06:46 | 49.84941 | 13.16335 | 8° | 18km/h | 22248m | 5.3m/s | -53.3°C | 4.4% | 41.4hPa | 2.7V | 04:00:42 | 01:49:35 | 00:00:00 | |
| DM0DOS-11 | 2026-08-31 12:06:45 | 49.84950 | 13.16337 | 5° | 16km/h | 22258m | 5.4m/s | -53.3°C | 4.4% | 41.3hPa | 2.6V | 04:00:40 | 01:49:37 | 00:00:00 | |
| DL1XH-west | 2026-08-31 12:06:42 | 49.84941 | 13.16335 | 9° | 18km/h | 22248m | 5.3m/s | -53.4°C | 1% | 41.4hPa | 2.7V | 04:01:29 | 01:49:35 | 00:00:00 | |
| HSKMA3-T | 2026-08-31 12:06:42 | 49.84937 | 13.16334 | 12° | 16km/h | 22243m | 5.4m/s | -53.3°C | 0.9% | 41.4hPa | 2.6V | 04:01:29 | 01:49:34 | 00:00:00 | |
| AA1-15 | 2026-08-31 12:06:36 | 49.84911 | 13.16318 | 30° | 16km/h | 22215m | 4.4m/s | -53.2°C | 0.9% | 41.6hPa | 2.6V | 04:01:29 | 01:49:28 | 00:00:00 | |
| DL1XH1-15 | 2026-08-31 12:06:35 | 49.84903 | 13.16313 | 349° | 7km/h | 22200m | 3.5m/s | -53.2°C | 4.3% | 41.6hPa | 2.7V | 04:00:52 | 01:49:25 | 00:00:00 | |
| DM0DOS-11 | 2026-08-31 12:06:35 | 49.84908 | 13.16315 | 30° | 11km/h | 22209m | 5.9m/s | -53.3°C | 4.3% | 41.6hPa | 2.7V | 04:00:50 | 01:49:27 | 00:00:00 | |
| HSKMA3-T | 2026-08-31 12:06:31 | 49.84898 | 13.16315 | 349° | 16km/h | 22191m | 5.5m/s | -53.2°C | 0.9% | 41.7hPa | 2.6V | 04:01:29 | 01:49:23 | 00:00:00 | |
| AA1-15 | 2026-08-31 12:06:25 | 49.84867 | 13.16316 | 357° | 18km/h | 22162m | 4.4m/s | -53.4°C | 0.9% | 41.9hPa | 2.6V | 04:01:29 | 01:49:17 | 00:00:00 | |
| DL1XH1-15 | 2026-08-31 12:06:25 | 49.84857 | 13.16319 | 347° | 20km/h | 22153m | 5.1m/s | -53.4°C | 4.4% | 42hPa | 2.7V | 04:01:02 | 01:49:15 | 00:00:00 | |
| HSKMA3-T | 2026-08-31 12:06:20 | 49.84846 | 13.16322 | 353° | 22km/h | 22143m | 4.7m/s | -53.5°C | 0.9% | 42hPa | 2.7V | 04:01:29 | 01:49:13 | 00:00:00 | |
| DO3MHA-11 | 2026-08-31 12:06:19 | 49.84841 | 13.16323 | 359° | 22km/h | 22138m | 5.6m/s | -53.5°C | 4.5% | 42.0hPa | 2.6V | 00:00:00 | 01:49:12 | 00:00:00 | |
| OE5MMP-10 | 2026-08-31 12:06:18 | 49.84836 | 13.16322 | 6° | 22km/h | 22132m | 5.1m/s | -53.6°C | 4.5% | 42.1hPa | 2.6V | 00:00:00 | 01:49:11 | 00:00:00 | |
| DL1XH1-15 | 2026-08-31 12:06:15 | 49.84800 | 13.16325 | 342° | 24km/h | 22104m | 5.5m/s | -53.8°C | 4.6% | 42.3hPa | 2.7V | 04:01:12 | 01:49:05 | 00:00:00 | |
| AA1-15 | 2026-08-31 12:06:13 | 49.84806 | 13.16323 | 347° | 26km/h | 22109m | 4.7m/s | -53.8°C | 1% | 42.3hPa | 2.6V | 04:01:29 | 01:49:06 | 00:00:00 | |
| DL1XH-west | 2026-08-31 12:06:10 | 49.84786 | 13.16334 | 337° | 18km/h | 22089m | 4.7m/s | -53.9°C | 1% | 42.4hPa | 2.6V | 04:01:29 | 01:49:02 | 00:00:00 | |
| AA1-15 | 2026-08-31 12:06:03 | 49.84758 | 13.16349 | 342° | 18km/h | 22058m | 4.9m/s | -53.7°C | 1% | 42.6hPa | 2.6V | 04:01:29 | 01:48:56 | 00:00:00 | |
| DL1XH-west | 2026-08-31 12:05:58 | 49.84735 | 13.16366 | 319° | 16km/h | 22033m | 5.5m/s | -53.4°C | 1% | 42.8hPa | 2.6V | 04:01:29 | 01:48:51 | 00:00:00 | |
| AA1-15 | 2026-08-31 12:05:53 | 49.84717 | 13.16397 | 321° | 16km/h | 22004m | 4.7m/s | -53.4°C | 1% | 43hPa | 2.6V | 04:02:20 | 01:48:45 | 00:00:00 | |
| PETON7-10 | 2026-08-31 12:05:51 | 49.84714 | 13.16400 | 326° | 11km/h | 21999m | 5.8m/s | -53.4°C | 4.5% | 43.0hPa | 2.6V | 00:00:00 | 00:00:00 | 00:00:00 | |
| DM0DOS-11 | 2026-08-31 12:05:49 | 49.84707 | 13.16403 | 353° | 11km/h | 21984m | 5.5m/s | -53.3°C | 4.4% | 43.1hPa | 2.6V | 04:01:36 | 01:48:41 | 00:00:00 | |
| HSKMA3-T | 2026-08-31 12:05:49 | 49.84707 | 13.16403 | 354° | 11km/h | 21984m | 5.5m/s | 0°C | 0% | 43.1hPa | 2.6V | 04:02:20 | 01:48:41 | 00:00:00 | |
| DL1XH-west | 2026-08-31 12:05:47 | 49.84704 | 13.16404 | 353° | 15km/h | 21979m | 5.3m/s | -53.3°C | 0.9% | 43.1hPa | 2.7V | 04:02:20 | 01:48:40 | 00:00:00 | |
| DL1XH1-15 | 2026-08-31 12:05:47 | 49.84688 | 13.16410 | 327° | 7km/h | 21954m | 5m/s | -53°C | 4.5% | 43.3hPa | 2.7V | 04:01:42 | 01:48:35 | 00:00:00 | |
| AA1-15 | 2026-08-31 12:05:43 | 49.84688 | 13.16410 | 327° | 7km/h | 21954m | 5m/s | -53°C | 1% | 43.3hPa | 2.7V | 04:02:20 | 01:48:35 | 00:00:00 | |
| DO8TBO-1 | 2026-08-31 12:05:42 | 49.84688 | 13.16410 | 328° | 7km/h | 21955m | 5.0m/s | -52.9°C | 4.5% | 43.2hPa | 2.7V | 00:00:00 | 01:48:35 | 00:00:00 | |
| DB0NH | 2026-08-31 12:05:41 | 49.84686 | 13.16412 | 309° | 7km/h | 21950m | 4.5m/s | -52.9°C | 4.4% | 43.3hPa | 2.7V | 00:00:00 | 01:48:34 | 00:00:00 | |
| DM0DOS-11 | 2026-08-31 12:05:39 | 49.84682 | 13.16422 | 293° | 11km/h | 21933m | 4.2m/s | -52.9°C | 4.4% | 43.4hPa | 2.6V | 04:01:46 | 01:48:31 | 00:00:00 | |
| HSKMA3-T | 2026-08-31 12:05:37 | 49.84681 | 13.16426 | 285° | 9km/h | 21929m | 5.8m/s | 0°C | 0% | 0hPa | 2.6V | 04:02:20 | 01:48:30 | 00:00:00 | |
| DL1XH-west | 2026-08-31 12:05:36 | 49.84681 | 13.16429 | 276° | 9km/h | 21923m | 5.3m/s | -52.9°C | 0.9% | 43.5hPa | 2.7V | 04:02:20 | 01:48:29 | 00:00:00 | |
| AA1-15 | 2026-08-31 12:05:32 | 49.84678 | 13.16442 | 315° | 9km/h | 21903m | 4m/s | -52.7°C | 1% | 43.6hPa | 2.6V | 04:02:20 | 01:48:25 | 00:00:00 | |
| DK5PH-5 | 2026-08-31 12:05:32 | 49.84678 | 13.16442 | 315° | 9km/h | 21903m | 4.0m/s | -52.7°C | 4.4% | 43.6hPa | 2.6V | 00:00:00 | 01:48:25 | 00:00:00 | |
| ANDY1245 | 2026-08-31 12:05:31 | 49.84677 | 13.16442 | 316° | 9km/h | 21903m | 4.0m/s | -52.7°C | 1.3% | 43.6hPa | 2.6V | 04:02:00 | 00:00:00 | 00:00:00 | |
| DM0DOS-11 | 2026-08-31 12:05:29 | 49.84676 | 13.16448 | 202° | 5km/h | 21884m | 5.2m/s | -52.6°C | 4.3% | 43.8hPa | 2.6V | 04:01:56 | 01:48:21 | 00:00:00 | |
| DO3MHA-11 | 2026-08-31 12:05:29 | 49.84675 | 13.16447 | 226° | 9km/h | 21890m | 5.5m/s | -52.6°C | 4.3% | 43.7hPa | 2.6V | 00:00:00 | 01:48:22 | 00:00:00 | |
| OE5MMP-10 | 2026-08-31 12:05:28 | 49.84676 | 13.16448 | 203° | 9km/h | 21884m | 5.1m/s | -52.6°C | 4.3% | 43.7hPa | 2.6V | 00:00:00 | 01:48:21 | 00:00:00 | |
| OE5WHR-10 | 2026-08-31 12:05:27 | 49.84677 | 13.16449 | 217° | 7km/h | 21879m | 4.3m/s | -52.6°C | 4.3% | 43.7hPa | 2.6V | 00:00:00 | 01:48:20 | 00:00:00 | |
| DL1XH1-15 | 2026-08-31 12:05:26 | 49.84680 | 13.16460 | 274° | 13km/h | 21864m | 4m/s | -52.4°C | 4.3% | 43.9hPa | 2.6V | 04:02:00 | 01:48:17 | 00:00:00 | |
| DL1XH-west | 2026-08-31 12:05:26 | 49.84679 | 13.16452 | 236° | 9km/h | 21875m | 5.3m/s | -52.6°C | 0.9% | 43.8hPa | 2.7V | 04:02:20 | 01:48:19 | 00:00:00 | |
| OE5DRO-10 | 2026-08-31 12:05:25 | 49.84680 | 13.16455 | 259° | 9km/h | 21869m | 5.5m/s | -52.5°C | 4.2% | 43.8hPa | 2.7V | 00:00:00 | 00:00:00 | 00:00:00 | |
| EDDB2-11 | 2026-08-31 12:05:24 | 49.84680 | 13.16460 | 274° | 13km/h | 21864m | 4.0m/s | -52.4°C | 1.3% | 43.9hPa | 2.6V | 00:00:00 | 00:00:00 | 00:00:00 | |
| DM0DOS-11 | 2026-08-31 12:05:23 | 49.84678 | 13.16479 | 273° | 5km/h | 21834m | 5.9m/s | -52.5°C | 4.3% | 44.1hPa | 2.6V | 04:02:06 | 01:48:11 | 00:00:00 | |
| AA1-15 | 2026-08-31 12:05:21 | 49.84678 | 13.16473 | 286° | 7km/h | 21850m | 5m/s | -52.3°C | 0.8% | 44hPa | 2.7V | 04:02:20 | 01:48:14 | 00:00:00 | |
| DL1XH-west | 2026-08-31 12:05:15 | 49.84679 | 13.16484 | 198° | 5km/h | 21820m | 5.5m/s | -52.4°C | 0.9% | 44.2hPa | 2.7V | 04:02:20 | 01:48:08 | 00:00:00 | |
| AA1-15 | 2026-08-31 12:05:10 | 49.84688 | 13.16489 | 249° | 11km/h | 21796m | 5m/s | -52.6°C | 0.9% | 44.4hPa | 2.6V | 04:02:20 | 01:48:03 | 00:00:00 | |
| DO3MHA-11 | 2026-08-31 12:05:09 | 49.84688 | 13.16493 | 258° | 11km/h | 21791m | 3.9m/s | -52.6°C | 4.3% | 44.4hPa | 2.7V | 04:02:00 | 01:48:02 | 00:00:00 | |
| DM0DOS-11 | 2026-08-31 12:05:08 | 49.84694 | 13.16510 | 203° | 11km/h | 21772m | 5.2m/s | -52.6°C | 4.3% | 44.5hPa | 2.6V | 04:02:19 | 01:47:58 | 00:00:00 | |
| OE5MMP-10 | 2026-08-31 12:05:08 | 49.84689 | 13.16499 | 256° | 9km/h | 21788m | 3.5m/s | -52.7°C | 4.3% | 44.4hPa | 2.6V | 00:00:00 | 01:48:01 | 00:00:00 | |
| DL1XH1-15 | 2026-08-31 12:05:06 | 49.84697 | 13.16512 | 186° | 11km/h | 21768m | 4.6m/s | -52.6°C | 0% | 44.6hPa | 2.6V | 04:02:20 | 01:47:57 | 00:00:00 | |
| DL1XH-west | 2026-08-31 12:05:05 | 49.84697 | 13.16512 | 187° | 11km/h | 21768m | 4.6m/s | -52.6°C | 0.8% | 44.6hPa | 2.6V | 04:02:20 | 01:47:57 | 00:00:00 | |
| AA1-15 | 2026-08-31 12:04:59 | 49.84705 | 13.16509 | 131° | 5km/h | 21741m | 6.1m/s | -52.6°C | 0.8% | 44.8hPa | 2.7V | 04:03:11 | 01:47:52 | 00:00:00 | |
| DO3MHA-11 | 2026-08-31 12:04:59 | 49.84705 | 13.16509 | 131° | 7km/h | 21742m | 6.1m/s | -52.5°C | 4.3% | 44.7hPa | 2.6V | 00:00:00 | 01:47:52 | 00:00:00 | |
| DM0DOS-11 | 2026-08-31 12:04:58 | 49.84708 | 13.16498 | 80° | 5km/h | 21721m | 5.6m/s | -52.5°C | 4.2% | 44.9hPa | 2.6V | 04:02:29 | 01:47:48 | 00:00:00 | |
| OE5MMP-10 | 2026-08-31 12:04:58 | 49.84706 | 13.16506 | 120° | 7km/h | 21736m | 5.6m/s | -52.5°C | 4.3% | 44.7hPa | 2.7V | 00:00:00 | 01:47:51 | 00:00:00 | |
| DL1XH1-15 | 2026-08-31 12:04:56 | 49.84708 | 13.16497 | 67° | 4km/h | 21716m | 4.4m/s | -52.5°C | 0% | 0hPa | 2.7V | 00:00:00 | 01:47:47 | 00:00:00 | |
| DL1XH-west | 2026-08-31 12:04:54 | 49.84707 | 13.16497 | 68° | 4km/h | 21716m | 4.4m/s | -52.5°C | 0.9% | 0hPa | 2.7V | 04:03:11 | 01:47:47 | 00:00:00 | |
| HSKMA3-T | 2026-08-31 12:04:54 | 49.84707 | 13.16495 | 88° | 5km/h | 21712m | 3.6m/s | 0°C | 0% | 0hPa | 2.7V | 18:12:15 | 01:47:46 | 00:00:00 | |
| AA1-15 | 2026-08-31 12:04:48 | 49.84715 | 13.16481 | 151° | 11km/h | 21690m | 4.7m/s | -52.5°C | 0.9% | 45.1hPa | 2.7V | 04:03:11 | 01:47:41 | 00:00:00 | |
| PETON7-10 | 2026-08-31 12:04:48 | 49.84715 | 13.16481 | 151° | 13km/h | 21690m | 4.7m/s | -52.4°C | 4.3% | 45.1hPa | 2.6V | 04:02:00 | 01:47:41 | 00:00:00 | |
| OE5DRO-10 | 2026-08-31 12:04:47 | 49.84717 | 13.16479 | 154° | 11km/h | 21686m | 4.3m/s | -52.4°C | 4.3% | 45.1hPa | 2.6V | 00:00:00 | 00:00:00 | 00:00:00 | |
| DL1XH1-15 | 2026-08-31 12:04:46 | 49.84717 | 13.16474 | 63° | 11km/h | 21672m | 5.6m/s | -52.4°C | 0% | 0hPa | 2.6V | 00:00:00 | 01:47:37 | 00:00:00 | |
| DL1XH-west | 2026-08-31 12:04:44 | 49.84717 | 13.16474 | 64° | 11km/h | 21672m | 5.6m/s | -52.4°C | 0.9% | 0hPa | 2.6V | 04:03:11 | 01:47:37 | 00:00:00 | |
| HSKMA3-T | 2026-08-31 12:04:44 | 49.84715 | 13.16469 | 69° | 15km/h | 21667m | 4.8m/s | 0°C | 0% | 0hPa | 2.6V | 18:12:15 | 01:47:36 | 00:00:00 | |
| AA1-15 | 2026-08-31 12:04:37 | 49.84715 | 13.16440 | 107° | 11km/h | 21639m | 5.1m/s | -52.4°C | 0.9% | 45.5hPa | 2.7V | 04:03:11 | 01:47:30 | 00:00:00 | |
| DL1XH1-15 | 2026-08-31 12:04:36 | 49.84716 | 13.16426 | 91° | 13km/h | 21623m | 3.9m/s | -52.4°C | 0% | 0hPa | 2.7V | 00:00:00 | 01:47:27 | 00:00:00 | |
| DL1XH-west | 2026-08-31 12:04:33 | 49.84716 | 13.16421 | 92° | 11km/h | 21619m | 5.4m/s | -52.4°C | 0.9% | 0hPa | 2.7V | 04:03:11 | 01:47:26 | 00:00:00 | |
| AA1-15 | 2026-08-31 12:04:26 | 49.84712 | 13.16384 | 91° | 15km/h | 21584m | 5.6m/s | -52.3°C | 0.8% | 45.9hPa | 2.6V | 04:03:11 | 01:47:19 | 00:00:00 | |
| DL1XH1-15 | 2026-08-31 12:04:26 | 49.84713 | 13.16372 | 95° | 15km/h | 21574m | 5m/s | -52.3°C | 0% | 0hPa | 2.6V | 00:00:00 | 01:47:17 | 00:00:00 | |
| DL1XH-west | 2026-08-31 12:04:23 | 49.84713 | 13.16367 | 89° | 15km/h | 21569m | 5.6m/s | -52.3°C | 0.9% | 0hPa | 2.7V | 04:03:11 | 01:47:16 | 00:00:00 | |
| HSKMA3-T | 2026-08-31 12:04:23 | 49.84713 | 13.16356 | 86° | 11km/h | 21559m | 4.1m/s | 0°C | 0% | 0hPa | 2.7V | 18:12:15 | 01:47:14 | 00:00:00 | |
| EDDB2-11 | 2026-08-31 12:04:22 | 49.84713 | 13.16356 | 85° | 11km/h | 21559m | 4.1m/s | -52.3°C | 1.2% | 46.0hPa | 2.7V | 00:00:00 | 00:00:00 | 00:00:00 | |
| ANDY1245 | 2026-08-31 12:04:19 | 49.84712 | 13.16352 | 91° | 9km/h | 21555m | 5.9m/s | -52.4°C | 1.3% | 46.1hPa | 2.7V | 00:00:00 | 00:00:00 | 00:00:00 | |
| DM0DOS-11 | 2026-08-31 12:04:18 | 49.84711 | 13.16343 | 57° | 11km/h | 21540m | 5.7m/s | -52.3°C | 4.3% | 46.2hPa | 2.7V | 04:03:07 | 01:47:10 | 00:00:00 | |
| AA1-15 | 2026-08-31 12:04:16 | 49.84709 | 13.16338 | 53° | 16km/h | 21534m | 5m/s | -52.3°C | 0.8% | 46.2hPa | 2.7V | 04:03:11 | 01:47:09 | 00:00:00 | |
| DL1XH1-15 | 2026-08-31 12:04:15 | 49.84703 | 13.16326 | 57° | 20km/h | 21525m | 4.2m/s | 0°C | 0% | 0hPa | 2.6V | 00:00:00 | 01:47:07 | 00:00:00 | |
| DL1XH-west | 2026-08-31 12:04:12 | 49.84700 | 13.16313 | 79° | 18km/h | 21515m | 5.1m/s | 0°C | 0% | 0hPa | 2.7V | 18:12:15 | 01:47:05 | 00:00:00 | |
| DB0UT-9 | 2026-08-31 12:04:12 | 49.84699 | 13.16313 | 80° | 18km/h | 21516m | 5.1m/s | -52.6°C | 1.3% | 46.3hPa | 2.6V | 00:00:00 | 00:00:00 | 00:00:00 | |
| DO8TBO-1 | 2026-08-31 12:04:11 | 49.84699 | 13.16306 | 87° | 15km/h | 21511m | 4.3m/s | -52.5°C | 4.3% | 46.3hPa | 2.6V | 00:00:00 | 01:47:04 | 00:00:00 | |
| DB0NH | 2026-08-31 12:04:10 | 49.84699 | 13.16299 | 88° | 15km/h | 21506m | 4.4m/s | -52.5°C | 4.3% | 46.4hPa | 2.7V | 00:00:00 | 01:47:03 | 00:00:00 | |
| DO3MHA-11 | 2026-08-31 12:04:09 | 49.84699 | 13.16292 | 82° | 13km/h | 21502m | 5.4m/s | -52.5°C | 4.3% | 46.4hPa | 2.7V | 00:00:00 | 01:47:02 | 00:00:00 | |
| DM0DOS-11 | 2026-08-31 12:04:08 | 49.84689 | 13.16268 | 21° | 11km/h | 21472m | 4.1m/s | -52.5°C | 4.3% | 46.6hPa | 2.7V | 04:03:21 | 01:46:56 | 00:00:00 | |
| HSKMA3-T | 2026-08-31 12:04:07 | 49.84696 | 13.16279 | 66° | 15km/h | 21491m | 5m/s | 0°C | 0% | 0hPa | 2.6V | 18:12:15 | 01:47:00 | 00:00:00 | |
| AA1-15 | 2026-08-31 12:04:06 | 49.84695 | 13.16275 | 57° | 13km/h | 21486m | 5.5m/s | -52.4°C | 0.9% | 46.6hPa | 2.6V | 04:04:02 | 01:46:59 | 00:00:00 | |
| SONDE2-11 | 2026-08-31 12:04:05 | 49.84691 | 13.16269 | 29° | 9km/h | 21476m | 3.4m/s | -52.4°C | 1.2% | 46.6hPa | 2.6V | 00:00:00 | 00:00:00 | 00:00:00 | |
| EDDB2-12 | 2026-08-31 12:04:04 | 49.84691 | 13.16269 | 29° | 9km/h | 21476m | 3.4m/s | -52.4°C | 1.2% | 46.6hPa | 2.6V | 00:00:00 | 00:00:00 | 00:00:00 | |
| NBG1-10 | 2026-08-31 12:04:02 | 49.84686 | 13.16266 | 22° | 16km/h | 21468m | 5.3m/s | -52.5°C | 4.2% | 46.6hPa | 2.6V | 00:00:00 | 01:46:55 | 00:00:00 | |
| PETON7-10 | 2026-08-31 12:04:01 | 49.84683 | 13.16264 | 24° | 18km/h | 21463m | 4.3m/s | -52.4°C | 4.2% | 46.7hPa | 2.6V | 00:00:00 | 01:46:54 | 00:00:00 | |
| DO3MHA-11 | 2026-08-31 12:03:59 | 49.84677 | 13.16260 | 30° | 18km/h | 21454m | 5.2m/s | -52.4°C | 4.2% | 46.7hPa | 2.6V | 00:00:00 | 01:46:52 | 00:00:00 | |
| DM0DOS-11 | 2026-08-31 12:03:58 | 49.84673 | 13.16222 | 88° | 26km/h | 21424m | 5.5m/s | -52.5°C | 4.4% | 47hPa | 2.6V | 04:03:31 | 01:46:46 | 00:00:00 | |
| AA1-15 | 2026-08-31 12:03:55 | 49.84673 | 13.16241 | 86° | 22km/h | 21435m | 5.3m/s | -52.6°C | 0.9% | 47hPa | 2.6V | 04:04:02 | 01:46:48 | 00:00:00 | |
| HSKMA3-T | 2026-08-31 12:03:47 | 49.84666 | 13.16178 | 62° | 15km/h | 21396m | 3.8m/s | 0°C | 0% | 0hPa | 2.7V | 18:12:15 | 01:46:40 | 00:00:00 | |
| AA1-15 | 2026-08-31 12:03:44 | 49.84664 | 13.16167 | 101° | 7km/h | 21382m | 4.2m/s | -52.2°C | 0.8% | 47.3hPa | 2.6V | 04:04:02 | 01:46:37 | 00:00:00 | |
| ANDY1245 | 2026-08-31 12:03:44 | 49.84664 | 13.16170 | 81° | 7km/h | 21387m | 5.3m/s | -52.2°C | 1.2% | 47.3hPa | 2.7V | 00:00:00 | 00:00:00 | 00:00:00 | |
| DM0DOS-11 | 2026-08-31 12:03:43 | 49.84665 | 13.16161 | 93° | 11km/h | 21372m | 5.5m/s | -52.3°C | 4.2% | 47.4hPa | 2.7V | 04:03:42 | 01:46:35 | 00:00:00 | |
| AA1-15 | 2026-08-31 12:03:34 | 49.84658 | 13.16099 | 85° | 20km/h | 21329m | 5.3m/s | -52.2°C | 0.8% | 47.7hPa | 2.6V | 04:04:02 | 01:46:26 | 00:00:00 | |
| SP3BTT-10 | 2026-08-31 12:03:34 | 49.84659 | 13.16107 | 79° | 13km/h | 21334m | 3.7m/s | -52.1°C | 4.2% | 47.6hPa | 2.7V | 04:03:00 | 00:00:00 | 00:00:00 | |
| DM0DOS-11 | 2026-08-31 12:03:33 | 49.84663 | 13.16077 | 123° | 15km/h | 21308m | 5.7m/s | -52.2°C | 4.2% | 47.9hPa | 2.7V | 04:03:55 | 01:46:22 | 00:00:00 | |
| AA1-15 | 2026-08-31 12:03:23 | 49.84673 | 13.16043 | 91° | 18km/h | 21280m | 4.1m/s | -52.3°C | 0.8% | 48.1hPa | 2.6V | 04:04:02 | 01:46:16 | 00:00:00 | |
| DM0DOS-11 | 2026-08-31 12:03:23 | 49.84668 | 13.15990 | 79° | 26km/h | 21256m | 5.1m/s | -52.4°C | 4.2% | 48.2hPa | 2.6V | 04:04:06 | 01:46:11 | 00:00:00 | |
| DL1XH-west | 2026-08-31 12:03:22 | 49.84673 | 13.16035 | 84° | 24km/h | 21275m | 5.5m/s | 0°C | 0% | 0hPa | 2.6V | 04:04:02 | 01:46:15 | 00:00:00 | |
| AA1-15 | 2026-08-31 12:03:13 | 49.84671 | 13.15961 | 126° | 15km/h | 21232m | 4.5m/s | -52.6°C | 0.9% | 48.4hPa | 2.6V | 04:04:53 | 01:46:06 | 00:00:00 | |
| DL1XH-west | 2026-08-31 12:03:11 | 49.84675 | 13.15950 | 106° | 16km/h | 21224m | 4.3m/s | 0°C | 0% | 0hPa | 2.6V | 04:06:35 | 01:46:04 | 00:00:00 | |
| AA1-15 | 2026-08-31 12:03:02 | 49.84663 | 13.15873 | 68° | 24km/h | 21179m | 5.1m/s | -52.6°C | 0.8% | 48.8hPa | 2.6V | 04:04:53 | 01:45:55 | 00:00:00 | |
| DL1XH-west | 2026-08-31 12:03:00 | 49.84660 | 13.15856 | 75° | 22km/h | 21169m | 5.7m/s | 0°C | 0% | 0hPa | 2.7V | 04:06:35 | 01:45:53 | 00:00:00 | |
| AA1-15 | 2026-08-31 12:02:51 | 49.84648 | 13.15805 | 63° | 18km/h | 21124m | 5.7m/s | -52.7°C | 0.9% | 49.3hPa | 2.7V | 04:04:53 | 01:45:44 | 00:00:00 | |
| SONCRA | 2026-08-31 12:02:50 | 49.84645 | 13.15798 | 55° | 18km/h | 21118m | 5.2m/s | -52.8°C | 1.2% | 49.3hPa | 2.6V | 00:00:00 | 00:00:00 | 00:00:00 | |
| EDDB2-11 | 2026-08-31 12:02:49 | 49.84639 | 13.15785 | 55° | 20km/h | 21109m | 4.6m/s | -52.8°C | 1.3% | 49.4hPa | 2.6V | 00:00:00 | 00:00:00 | 00:00:00 | |
| AA1-15 | 2026-08-31 12:02:40 | 49.84626 | 13.15758 | 359° | 5km/h | 21068m | 4.9m/s | -52.9°C | 0.9% | 49.7hPa | 2.6V | 04:04:53 | 01:45:33 | 00:00:00 | |
| AA1-15 | 2026-08-31 12:02:30 | 49.84595 | 13.15728 | 11° | 11km/h | 21021m | 5.2m/s | -52.7°C | 0.9% | 50hPa | 2.7V | 04:05:44 | 01:45:23 | 00:00:00 | |
| AA1-15 | 2026-08-31 12:02:20 | 49.84574 | 13.15705 | 53° | 24km/h | 20972m | 5.6m/s | -52.8°C | 1% | 50.5hPa | 2.6V | 04:05:44 | 01:45:13 | 00:00:00 | |
| AA1-15 | 2026-08-31 12:02:09 | 49.84562 | 13.15691 | 357° | 4km/h | 20918m | 5.2m/s | -52.5°C | 0.9% | 50.9hPa | 2.7V | 04:05:44 | 01:45:02 | 00:00:00 | |
| DO3MHA-11 | 2026-08-31 12:02:09 | 49.84562 | 13.15691 | 358° | 13km/h | 20918m | 5.2m/s | -52.4°C | 4.4% | 50.8hPa | 2.7V | 00:00:00 | 01:45:02 | 00:00:00 | |
| OE5MMP-10 | 2026-08-31 12:02:08 | 49.84560 | 13.15690 | 28° | 15km/h | 20914m | 4.0m/s | -52.4°C | 4.3% | 50.8hPa | 2.7V | 00:00:00 | 01:45:01 | 00:00:00 | |
| DM0DOS-11 | 2026-08-31 12:02:07 | 49.84541 | 13.15667 | 27° | 15km/h | 20885m | 4.2m/s | -52.3°C | 4.2% | 51.1hPa | 2.7V | 04:05:22 | 01:44:55 | 00:00:00 | |
| DL1XH-west | 2026-08-31 12:02:03 | 49.84545 | 13.15670 | 34° | 18km/h | 20890m | 5.4m/s | 0°C | 0% | 0hPa | 2.7V | 04:06:35 | 01:44:56 | 00:00:00 | |
| AA1-15 | 2026-08-31 12:01:58 | 49.84534 | 13.15653 | 91° | 7km/h | 20862m | 4.7m/s | -52.4°C | 0.8% | 51.3hPa | 2.7V | 04:05:44 | 01:44:50 | 00:00:00 | |
| AA1-15 | 2026-08-31 12:01:47 | 49.84518 | 13.15596 | 67° | 22km/h | 20802m | 4m/s | -52.3°C | 0.9% | 51.8hPa | 2.6V | 04:05:44 | 01:44:38 | 00:00:00 | |
| EDDB2-11 | 2026-08-31 12:01:46 | 49.84520 | 13.15604 | 64° | 22km/h | 20806m | 4.9m/s | -52.3°C | 1.3% | 51.8hPa | 2.6V | 00:00:00 | 00:00:00 | 00:00:00 | |
| AA1-15 | 2026-08-31 12:01:35 | 49.84496 | 13.15522 | 62° | 22km/h | 20744m | 5.7m/s | -52.3°C | 0.8% | 52.2hPa | 2.6V | 04:06:35 | 01:44:26 | 00:00:00 | |
| AA1-15 | 2026-08-31 12:01:23 | 49.84468 | 13.15419 | 66° | 22km/h | 20697m | 5.2m/s | -52.3°C | 0.9% | 52.6hPa | 2.7V | 04:06:35 | 01:44:16 | 00:00:00 | |
| DL1XH-west | 2026-08-31 12:01:22 | 49.84466 | 13.15412 | 57° | 20km/h | 20692m | 5.5m/s | 0°C | 0% | 0hPa | 2.7V | 04:06:35 | 01:44:15 | 00:00:00 | |
| AA1-15 | 2026-08-31 12:01:13 | 49.84428 | 13.15342 | 52° | 26km/h | 20643m | 5.9m/s | -52.2°C | 0.8% | 53.1hPa | 2.6V | 04:06:35 | 01:44:05 | 00:00:00 | |
| AA1-15 | 2026-08-31 12:01:00 | 49.84380 | 13.15245 | 39° | 35km/h | 20583m | 4.3m/s | -52°C | 0.8% | 53.6hPa | 2.7V | 04:06:35 | 01:43:53 | 00:00:00 | |
| DL1XH-west | 2026-08-31 12:00:56 | 49.84352 | 13.15207 | 48° | 37km/h | 20565m | 4.7m/s | 0°C | 0% | 0hPa | 2.7V | 04:06:35 | 01:43:49 | 00:00:00 | |
| AA1-15 | 2026-08-31 12:00:48 | 49.84310 | 13.15135 | 46° | 38km/h | 20526m | 3.7m/s | -52°C | 0.7% | 54.1hPa | 2.6V | 04:07:26 | 01:43:41 | 00:00:00 | |
| DL9SK-14 | 2026-08-31 12:00:48 | 49.84303 | 13.15124 | 40° | 38km/h | 20522m | 4.4m/s | -52.0°C | 1.2% | 54.1hPa | 2.7V | 00:00:00 | 00:00:00 | 00:00:00 | |
| SONCRA | 2026-08-31 12:00:46 | 49.84295 | 13.15115 | 35° | 38km/h | 20517m | 5.4m/s | -51.8°C | 1.2% | 54.1hPa | 2.7V | 00:00:00 | 00:00:00 | 00:00:00 | |
| DL1XH-west | 2026-08-31 12:00:41 | 49.84254 | 13.15071 | 46° | 29km/h | 20488m | 4.6m/s | 0°C | 0% | 0hPa | 2.7V | 18:12:15 | 01:43:33 | 00:00:00 | |
| AA1-15 | 2026-08-31 12:00:37 | 49.84237 | 13.15047 | 40° | 27km/h | 20474m | 4.5m/s | -51.8°C | 0.8% | 54.5hPa | 2.6V | 04:07:26 | 01:43:30 | 00:00:00 | |
| DL1XH-west | 2026-08-31 12:00:30 | 49.84194 | 13.14996 | 29° | 33km/h | 20434m | 4.5m/s | 0°C | 0% | 0hPa | 2.7V | 18:12:15 | 01:43:22 | 00:00:00 | |
| AA1-15 | 2026-08-31 12:00:27 | 49.84181 | 13.14987 | 22° | 26km/h | 20424m | 4.8m/s | -52°C | 0.7% | 54.9hPa | 2.6V | 04:07:26 | 01:43:20 | 00:00:00 | |
| AA1-15 | 2026-08-31 12:00:14 | 49.84117 | 13.14934 | 36° | 16km/h | 20362m | 5.3m/s | -52°C | 0.7% | 55.5hPa | 2.7V | 04:07:26 | 01:43:07 | 00:00:00 | |
| AA1-15 | 2026-08-31 12:00:04 | 49.84092 | 13.14921 | 31° | 18km/h | 20309m | 5.7m/s | -52°C | 0.8% | 55.9hPa | 2.7V | 04:07:26 | 01:42:56 | 00:00:00 | |
| AA1-15 | 2026-08-31 11:59:54 | 49.84066 | 13.14893 | 49° | 11km/h | 20266m | 4m/s | -51.9°C | 0.8% | 56.3hPa | 2.6V | 04:08:17 | 01:42:47 | 00:00:00 | |
| DL9SK-14 | 2026-08-31 11:59:45 | 49.84031 | 13.14846 | 45° | 16km/h | 20223m | 4.3m/s | -51.8°C | 1.2% | 56.6hPa | 2.7V | 00:00:00 | 00:00:00 | 00:00:00 | |
| AA1-15 | 2026-08-31 11:59:43 | 49.84027 | 13.14837 | 69° | 13km/h | 20214m | 5.2m/s | -51.9°C | 0.7% | 56.7hPa | 2.7V | 04:08:17 | 01:42:36 | 00:00:00 | |
| AA1-15 | 2026-08-31 11:59:32 | 49.84004 | 13.14766 | 66° | 24km/h | 20165m | 4.4m/s | -52°C | 0.7% | 57.1hPa | 2.7V | 04:08:17 | 01:42:25 | 00:00:00 | |
| DL1XH-west | 2026-08-31 11:59:29 | 49.83994 | 13.14739 | 55° | 18km/h | 20147m | 5.1m/s | 0°C | 0% | 0hPa | 2.6V | 18:12:15 | 01:42:21 | 00:00:00 | |
| AA1-15 | 2026-08-31 11:59:21 | 49.83976 | 13.14690 | 64° | 27km/h | 20115m | 5.6m/s | -52.6°C | 0.8% | 57.6hPa | 2.7V | 04:08:17 | 01:42:14 | 00:00:00 | |
| DM0DOS-11 | 2026-08-31 11:59:21 | 49.83968 | 13.14669 | 60° | 33km/h | 20105m | 4m/s | -52.8°C | 4.3% | 57.7hPa | 2.6V | 04:08:05 | 01:42:12 | 00:00:00 | |
| AA1-15 | 2026-08-31 11:59:10 | 49.83936 | 13.14575 | 69° | 22km/h | 20063m | 3.8m/s | 0°C | 0% | 58.1hPa | 2.7V | 04:08:17 | 01:42:03 | 00:00:00 | |
| AA1-15 | 2026-08-31 11:58:59 | 49.83888 | 13.14501 | 54° | 26km/h | 20013m | 3.8m/s | 0°C | 0% | 58.5hPa | 2.6V | 18:12:15 | 01:41:52 | 00:00:00 | |
| DL6DJ-15 | 2026-08-31 11:58:59 | 49.83885 | 13.14493 | 58° | 22km/h | 20009m | 5.3m/s | -52.3°C | 1.2% | 58.6hPa | 2.7V | 00:00:00 | 00:00:00 | 00:00:00 | |
| DM0DOS-11 | 2026-08-31 11:58:57 | 49.83879 | 13.14479 | 55° | 18km/h | 19999m | 3.5m/s | -52.2°C | 4.1% | 58.6hPa | 2.7V | 04:08:28 | 01:41:49 | 00:00:00 | |
| EDDB2-12 | 2026-08-31 11:58:54 | 49.83868 | 13.14462 | 36° | 24km/h | 19986m | 4.3m/s | -52.0°C | 1.2% | 58.8hPa | 2.6V | 00:00:00 | 00:00:00 | 00:00:00 | |
| DM0DOS-11 | 2026-08-31 11:58:51 | 49.83833 | 13.14430 | 33° | 24km/h | 19954m | 5.2m/s | -52.1°C | 4% | 59.1hPa | 2.6V | 04:08:38 | 01:41:39 | 00:00:00 | |
| AA1-15 | 2026-08-31 11:58:48 | 49.83843 | 13.14439 | 30° | 20km/h | 19964m | 4.4m/s | 0°C | 0% | 0hPa | 2.7V | 18:12:15 | 01:41:41 | 00:00:00 | |
| OE5MMP-10 | 2026-08-31 11:58:48 | 49.83842 | 13.14439 | 31° | 20km/h | 19965m | 4.3m/s | -52.0°C | 4.1% | 58.9hPa | 2.7V | 00:00:00 | 01:41:41 | 00:00:00 | |
| SP3BTT-10 | 2026-08-31 11:58:47 | 49.83838 | 13.14435 | 33° | 26km/h | 19960m | 5.1m/s | -52.0°C | 4.1% | 59.0hPa | 2.7V | 00:00:00 | 00:00:00 | 00:00:00 | |
| DB0UT-7 | 2026-08-31 11:58:46 | 49.83833 | 13.14430 | 34° | 27km/h | 19955m | 5.2m/s | -52.0°C | 4.0% | 59.0hPa | 2.7V | 00:00:00 | 01:41:39 | 00:00:00 | |
| DL9SK-14 | 2026-08-31 11:58:43 | 49.83817 | 13.14409 | 45° | 16km/h | 19936m | 4.3m/s | -52.2°C | 1.2% | 59.2hPa | 2.7V | 00:00:00 | 00:00:00 | 00:00:00 | |
| SONCRA | 2026-08-31 11:58:42 | 49.83814 | 13.14404 | 41° | 16km/h | 19932m | 3.7m/s | -52.3°C | 1.2% | 59.3hPa | 2.7V | 00:00:00 | 00:00:00 | 00:00:00 | |
| PETON7-10 | 2026-08-31 11:58:41 | 49.83814 | 13.14404 | 42° | 18km/h | 19933m | 3.7m/s | 0°C | 0% | 0hPa | 2.7V | 00:00:00 | 00:00:00 | 00:00:00 | |
| DB0NH | 2026-08-31 11:58:40 | 49.83810 | 13.14400 | 40° | 24km/h | 19928m | 4.9m/s | -52.4°C | 4.1% | 59.3hPa | 2.7V | 00:00:00 | 01:41:33 | 00:00:00 | |
| DM0DOS-11 | 2026-08-31 11:58:39 | 49.83788 | 13.14377 | 29° | 16km/h | 19899m | 5.1m/s | -52.8°C | 4.1% | 59.6hPa | 2.7V | 04:08:50 | 01:41:27 | 00:00:00 | |
| AA1-15 | 2026-08-31 11:58:35 | 49.83788 | 13.14377 | 29° | 16km/h | 19899m | 5.1m/s | 0°C | 0% | 0hPa | 2.7V | 18:12:15 | 01:41:27 | 00:00:00 | |
| AA1-15 | 2026-08-31 11:58:25 | 49.83745 | 13.14358 | 4° | 22km/h | 19856m | 5.3m/s | 0°C | 0% | 0hPa | 2.6V | 18:12:15 | 01:41:18 | 00:00:00 | |
| DF3TZ-5 | 2026-08-31 11:58:25 | 49.83740 | 13.14357 | 1° | 22km/h | 19852m | 4.0m/s | -53.0°C | -1.0% | -1.0hPa | 2.7V | 00:00:00 | 00:00:00 | 00:00:00 | |
| EDDB2-12 | 2026-08-31 11:58:23 | 49.83727 | 13.14357 | 1° | 27km/h | 19843m | 5.3m/s | -53.0°C | 1.3% | 60.1hPa | 2.7V | 00:00:00 | 00:00:00 | 00:00:00 | |
| DJTTGO | 2026-08-31 11:58:20 | 49.83720 | 13.14356 | 5° | 29km/h | 19838m | 4.4m/s | 0°C | 0% | 0hPa | 2.7V | 04:09:00 | 00:00:00 | 00:00:00 | |
| DO3MHA-11 | 2026-08-31 11:58:19 | 49.83706 | 13.14354 | 7° | 29km/h | 19830m | 4.9m/s | -53.1°C | 4.4% | 60.2hPa | 2.7V | 00:00:00 | 01:41:12 | 00:00:00 | |
| OE5MMP-10 | 2026-08-31 11:58:18 | 49.83699 | 13.14353 | 8° | 31km/h | 19825m | 4.5m/s | -53.0°C | 4.4% | 60.2hPa | 2.7V | 00:00:00 | 01:41:11 | 00:00:00 | |
| OE5WHR-10 | 2026-08-31 11:58:17 | 49.83693 | 13.14352 | 11° | 33km/h | 19821m | 3.7m/s | -53.0°C | 4.4% | 60.2hPa | 2.7V | 00:00:00 | 00:00:00 | 00:00:00 | |
| PG1ADW-2 | 2026-08-31 11:58:14 | 49.83673 | 13.14343 | 20° | 35km/h | 19807m | 4.7m/s | -53.0°C | 4.4% | 60.4hPa | 2.7V | 00:00:00 | 00:00:00 | 00:00:00 | |
| DF2AP-13 | 2026-08-31 11:58:13 | 49.83657 | 13.14334 | 21° | 33km/h | 19797m | 5.1m/s | -52.9°C | 4.4% | 60.5hPa | 2.7V | 00:00:00 | 01:41:05 | 00:00:00 | |
| DL9SK-14 | 2026-08-31 11:58:12 | 49.83649 | 13.14329 | 18° | 33km/h | 19793m | 3.9m/s | -53.0°C | 1.3% | 60.6hPa | 2.6V | 00:00:00 | 00:00:00 | 00:00:00 | |
| PETON7-10 | 2026-08-31 11:58:11 | 49.83649 | 13.14329 | 19° | 35km/h | 19793m | 3.9m/s | 0°C | 0% | 0hPa | 2.6V | 00:00:00 | 01:41:04 | 00:00:00 | |
| DB0NH | 2026-08-31 11:58:10 | 49.83641 | 13.14325 | 17° | 33km/h | 19789m | 4.0m/s | -52.9°C | 4.4% | 60.6hPa | 2.6V | 00:00:00 | 01:41:03 | 00:00:00 | |
| DO3MHA-11 | 2026-08-31 11:58:09 | 49.83632 | 13.14321 | 15° | 35km/h | 19784m | 5.6m/s | -52.9°C | 4.4% | 60.6hPa | 2.6V | 00:00:00 | 01:41:02 | 00:00:00 | |
| OE5MMP-10 | 2026-08-31 11:58:08 | 49.83623 | 13.14318 | 11° | 35km/h | 19779m | 4.5m/s | -53.0°C | 4.4% | 60.6hPa | 2.6V | 00:00:00 | 01:41:01 | 00:00:00 | |
| DM0DOS-11 | 2026-08-31 11:58:03 | 49.83554 | 13.14316 | 5° | 35km/h | 19743m | 4.6m/s | -52.6°C | 4.4% | 61hPa | 2.6V | 04:09:24 | 01:40:53 | 00:00:00 | |
| DF8AY | 2026-08-31 11:57:46 | 49.83441 | 13.14313 | 354° | 29km/h | 19677m | 4.9m/s | -52.5°C | 0.9% | 61.7hPa | 2.7V | 04:11:41 | 01:40:39 | 00:00:00 | |
| DF8AY | 2026-08-31 11:57:35 | 49.83350 | 13.14300 | 353° | 20km/h | 19611m | 4.2m/s | -52.1°C | 0.7% | 62.3hPa | 2.7V | 04:11:41 | 01:40:25 | 00:00:00 | |
| DM0DOS-11 | 2026-08-31 11:57:35 | 49.83350 | 13.14300 | 353° | 20km/h | 19611m | 4.2m/s | -52.1°C | 4.1% | 62.3hPa | 2.7V | 04:09:52 | 01:40:25 | 00:00:00 | |
| DF8AY | 2026-08-31 11:57:23 | 49.83271 | 13.14288 | 10° | 18km/h | 19547m | 4.3m/s | -52.7°C | 0.8% | 62.9hPa | 2.6V | 04:11:41 | 01:40:11 | 00:00:00 | |
| DF8AY | 2026-08-31 11:57:12 | 49.83238 | 13.14269 | 28° | 20km/h | 19515m | 4.4m/s | -52.5°C | 0.7% | 63.2hPa | 2.7V | 04:11:41 | 01:40:04 | 00:00:00 | |
| DF8AY | 2026-08-31 11:57:01 | 49.83189 | 13.14211 | 54° | 26km/h | 19461m | 4m/s | -52.9°C | 0.8% | 63.8hPa | 2.6V | 04:11:41 | 01:39:53 | 00:00:00 | |
| DF8AY | 2026-08-31 11:56:47 | 49.83120 | 13.14126 | 35° | 29km/h | 19397m | 5.1m/s | -53.3°C | 0.8% | 64.4hPa | 2.6V | 04:11:41 | 01:39:39 | 00:00:00 | |
| DF8AY | 2026-08-31 11:56:37 | 49.83058 | 13.14071 | 21° | 33km/h | 19356m | 3.8m/s | -53.5°C | 0.9% | 64.8hPa | 2.7V | 04:11:41 | 01:39:30 | 00:00:00 | |
| DF8AY | 2026-08-31 11:56:24 | 49.82952 | 13.14014 | 16° | 29km/h | 19296m | 5.3m/s | -53.3°C | 1% | 65.4hPa | 2.6V | 04:11:41 | 01:39:17 | 00:00:00 | |
| DL6DJ-15 | 2026-08-31 11:56:24 | 49.82945 | 13.14011 | 10° | 26km/h | 19291m | 4.0m/s | -53.3°C | 1.3% | 65.5hPa | 2.6V | 00:00:00 | 00:00:00 | 00:00:00 | |
| OE5WHR-10 | 2026-08-31 11:56:20 | 49.82924 | 13.14008 | 4° | 31km/h | 19279m | 4.9m/s | -53.1°C | 4.4% | 65.6hPa | 2.6V | 04:11:00 | 01:39:13 | 00:00:00 | |
| EDDB2-12 | 2026-08-31 11:56:19 | 49.82907 | 13.14006 | 8° | 33km/h | 19269m | 4.4m/s | -53.2°C | 1.3% | 65.7hPa | 2.6V | 00:00:00 | 00:00:00 | 00:00:00 | |
| OE5MMP-10 | 2026-08-31 11:56:18 | 49.82907 | 13.14006 | 9° | 31km/h | 19269m | 4.3m/s | -53.2°C | 4.4% | 65.6hPa | 2.6V | 00:00:00 | 01:39:11 | 00:00:00 | |
| DL1JEZ-13 | 2026-08-31 11:56:14 | 49.82875 | 13.13994 | 15° | 35km/h | 19251m | 5.5m/s | -53.0°C | 1.4% | 65.9hPa | 2.6V | 00:00:00 | 00:00:00 | 00:00:00 | |
| DF2AP-13 | 2026-08-31 11:56:13 | 49.82858 | 13.13989 | 7° | 27km/h | 19242m | 3.8m/s | -53.0°C | 4.4% | 65.9hPa | 2.6V | 00:00:00 | 01:39:05 | 00:00:00 | |
| DM0DOS-11 | 2026-08-31 11:56:11 | 49.82837 | 13.13989 | 350° | 24km/h | 19227m | 4.2m/s | -53°C | 4.4% | 66.1hPa | 2.6V | 04:11:15 | 01:39:02 | 00:00:00 | |
| DF8AY | 2026-08-31 11:56:10 | 49.82773 | 13.13992 | 357° | 29km/h | 19187m | 5.3m/s | -52.8°C | 0.9% | 66.5hPa | 2.7V | 04:11:41 | 01:38:53 | 00:00:00 | |
| DF8AY | 2026-08-31 11:55:58 | 49.82752 | 13.14001 | 334° | 27km/h | 19173m | 5.4m/s | -52.8°C | 0.9% | 66.7hPa | 2.6V | 04:11:41 | 01:38:50 | 00:00:00 | |
| DF8AY | 2026-08-31 11:55:48 | 49.82687 | 13.14027 | 344° | 26km/h | 19123m | 4.1m/s | -52.7°C | 0.7% | 67.2hPa | 2.7V | 04:11:41 | 01:38:39 | 00:00:00 | |
| DF8AY | 2026-08-31 11:55:36 | 49.82639 | 13.14073 | 346° | 18km/h | 19077m | 3.9m/s | -53°C | 0.8% | 67.7hPa | 2.6V | 04:12:32 | 01:38:29 | 00:00:00 | |
| DF8AY | 2026-08-31 11:55:25 | 49.82602 | 13.14100 | 292° | 9km/h | 19027m | 5m/s | -53.4°C | 1% | 68.2hPa | 2.7V | 04:12:32 | 01:38:18 | 00:00:00 | |
| DF8AY | 2026-08-31 11:55:14 | 49.82573 | 13.14101 | 347° | 15km/h | 18974m | 4.6m/s | -53.2°C | 0.9% | 68.8hPa | 2.7V | 04:12:32 | 01:38:07 | 00:00:00 | |
| DF8AY | 2026-08-31 11:55:03 | 49.82536 | 13.14097 | 5° | 18km/h | 18918m | 5.3m/s | -52.8°C | 0.8% | 69.4hPa | 2.6V | 04:12:32 | 01:37:55 | 00:00:00 | |
| DF8AY | 2026-08-31 11:54:53 | 49.82499 | 13.14105 | 18° | 13km/h | 18871m | 5m/s | -53.1°C | 0.9% | 69.9hPa | 2.7V | 04:12:32 | 01:37:45 | 00:00:00 | |
| DL6DJ-15 | 2026-08-31 11:54:50 | 49.82493 | 13.14100 | 32° | 16km/h | 18863m | 4.0m/s | -53.2°C | 1.3% | 70.0hPa | 2.6V | 00:00:00 | 00:00:00 | 00:00:00 | |
| SONDE2-11 | 2026-08-31 11:54:46 | 49.82471 | 13.14086 | 2° | 13km/h | 18841m | 4.7m/s | -53.4°C | 1.3% | 70.2hPa | 2.6V | 00:00:00 | 00:00:00 | 00:00:00 | |
| EDDB2-12 | 2026-08-31 11:54:45 | 49.82471 | 13.14086 | 2° | 13km/h | 18841m | 4.7m/s | -53.4°C | 1.3% | 70.2hPa | 2.6V | 00:00:00 | 00:00:00 | 00:00:00 | |
| DF8AY | 2026-08-31 11:54:41 | 49.82458 | 13.14091 | 356° | 15km/h | 18823m | 3.9m/s | -53.3°C | 0.9% | 70.4hPa | 2.6V | 04:15:05 | 01:37:34 | 00:00:00 | |
| DF8AY | 2026-08-31 11:54:30 | 49.82408 | 13.14042 | 15° | 22km/h | 18774m | 4.7m/s | -53.4°C | 0.8% | 71hPa | 2.6V | 04:15:05 | 01:37:23 | 00:00:00 | |
| DF8AY | 2026-08-31 11:54:20 | 49.82355 | 13.14014 | 32° | 26km/h | 18730m | 4.9m/s | -53.5°C | 0.9% | 71.5hPa | 2.6V | 04:15:05 | 01:37:13 | 00:00:00 | |
| DF8AY | 2026-08-31 11:54:10 | 49.82312 | 13.13990 | 18° | 16km/h | 18684m | 5.3m/s | -53.5°C | 0.8% | 72hPa | 2.7V | 04:15:05 | 01:37:03 | 00:00:00 | |
| DF8AY | 2026-08-31 11:53:59 | 49.82269 | 13.13946 | 24° | 13km/h | 18631m | 4.1m/s | -53.5°C | 0.9% | 72.6hPa | 2.6V | 04:15:05 | 01:36:52 | 00:00:00 | |
| DF8AY | 2026-08-31 11:53:47 | 49.82214 | 13.13878 | 34° | 22km/h | 18575m | 5.4m/s | -54.3°C | 1% | 73.2hPa | 2.6V | 04:15:05 | 01:36:40 | 00:00:00 | |
| DM0DOS-11 | 2026-08-31 11:53:46 | 49.82199 | 13.13862 | 32° | 13km/h | 18552m | 3.9m/s | -54°C | 4.5% | 73.5hPa | 2.7V | 04:13:42 | 01:36:35 | 00:00:00 | |
| DF8AY | 2026-08-31 11:53:36 | 49.82185 | 13.13821 | 63° | 24km/h | 18523m | 5.3m/s | -54.1°C | 1% | 73.8hPa | 2.7V | 04:15:05 | 01:36:29 | 00:00:00 | |
| DF8AY | 2026-08-31 11:53:26 | 49.82136 | 13.13717 | 59° | 27km/h | 18448m | 4.6m/s | -54.4°C | 1.1% | 74.6hPa | 2.7V | 04:15:05 | 01:36:13 | 00:00:00 | |
| DF8AY | 2026-08-31 11:53:09 | 49.82086 | 13.13637 | 50° | 33km/h | 18395m | 4.2m/s | -54°C | 1% | 75.3hPa | 2.7V | 04:15:05 | 01:36:02 | 00:00:00 | |
| DO3MHA-11 | 2026-08-31 11:53:09 | 49.82086 | 13.13637 | 50° | 27km/h | 18395m | 4.1m/s | -54.0°C | 4.6% | 75.2hPa | 2.7V | 00:00:00 | 01:36:02 | 00:00:00 | |
| OE5MMP-10 | 2026-08-31 11:53:08 | 49.82081 | 13.13627 | 54° | 26km/h | 18390m | 4.8m/s | -54.0°C | 4.6% | 75.3hPa | 2.7V | 00:00:00 | 01:36:01 | 00:00:00 | |
| DM0DOS-11 | 2026-08-31 11:53:06 | 49.82058 | 13.13583 | 32° | 26km/h | 18366m | 4.6m/s | -53.6°C | 4.5% | 75.6hPa | 2.7V | 04:14:21 | 01:35:56 | 00:00:00 | |
| DF8AY | 2026-08-31 11:52:59 | 49.82012 | 13.13548 | 37° | 22km/h | 18323m | 5.5m/s | -53.4°C | 0.8% | 76.1hPa | 2.7V | 04:15:05 | 01:35:47 | 00:00:00 | |
| EDDB2-11 | 2026-08-31 11:52:59 | 49.82032 | 13.13566 | 23° | 20km/h | 18343m | 4.7m/s | -53.6°C | 1.4% | 75.9hPa | 2.6V | 00:00:00 | 00:00:00 | 00:00:00 | |
| DL6DJ-15 | 2026-08-31 11:52:46 | 49.81977 | 13.13504 | 42° | 20km/h | 18285m | 5.2m/s | -53.3°C | 1.4% | 76.6hPa | 2.6V | 00:00:00 | 00:00:00 | 00:00:00 | |
| DF8AY | 2026-08-31 11:52:44 | 49.81969 | 13.13494 | 34° | 20km/h | 18275m | 5.1m/s | -53.5°C | 0.9% | 76.7hPa | 2.6V | 04:15:05 | 01:35:37 | 00:00:00 | |
| DF8AY | 2026-08-31 11:52:34 | 49.81918 | 13.13459 | 34° | 24km/h | 18218m | 5.1m/s | -53.6°C | 0.9% | 77.4hPa | 2.7V | 04:15:05 | 01:35:25 | 00:00:00 | |
| DF8AY | 2026-08-31 11:52:20 | 49.81866 | 13.13373 | 56° | 24km/h | 18156m | 5.6m/s | -54.1°C | 1% | 78.1hPa | 2.6V | 04:15:05 | 01:35:12 | 00:00:00 | |
| DO3MHA-11 | 2026-08-31 11:52:19 | 49.81866 | 13.13373 | 57° | 24km/h | 18156m | 5.6m/s | -54.0°C | 4.5% | 78.1hPa | 2.6V | 00:00:00 | 01:35:12 | 00:00:00 | |
| OE5MMP-10 | 2026-08-31 11:52:18 | 49.81862 | 13.13366 | 52° | 24km/h | 18151m | 4.7m/s | -54.1°C | 4.6% | 78.1hPa | 2.6V | 00:00:00 | 01:35:11 | 00:00:00 | |
| ANDY1245 | 2026-08-31 11:52:17 | 49.81862 | 13.13366 | 52° | 24km/h | 18151m | 4.7m/s | -54.2°C | 1.5% | 78.2hPa | 2.6V | 00:00:00 | 00:00:00 | 00:00:00 | |
| DL6DJ-15 | 2026-08-31 11:52:16 | 49.81851 | 13.13345 | 52° | 20km/h | 18137m | 4.7m/s | -54.0°C | 1.4% | 78.4hPa | 2.6V | 00:00:00 | 00:00:00 | 00:00:00 | |
| DM0DOS-11 | 2026-08-31 11:52:13 | 49.81835 | 13.13308 | 65° | 22km/h | 18114m | 5.9m/s | -54.2°C | 4.6% | 78.7hPa | 2.6V | 04:15:14 | 01:35:03 | 00:00:00 | |
| DF8AY | 2026-08-31 11:52:09 | 49.81833 | 13.13300 | 70° | 22km/h | 18109m | 4.3m/s | -54.2°C | 1% | 78.7hPa | 2.6V | 04:16:47 | 01:35:02 | 00:00:00 | |
| DF8AY | 2026-08-31 11:51:59 | 49.81801 | 13.13213 | 58° | 27km/h | 18060m | 5m/s | -53.9°C | 1% | 79.3hPa | 2.7V | 04:16:47 | 01:34:52 | 00:00:00 | |
| DO3MHA-11 | 2026-08-31 11:51:59 | 49.81801 | 13.13213 | 59° | 27km/h | 18061m | 5.0m/s | -53.9°C | 4.6% | 79.2hPa | 2.7V | 00:00:00 | 01:34:52 | 00:00:00 | |
| DM0DOS-11 | 2026-08-31 11:51:58 | 49.81785 | 13.13169 | 59° | 31km/h | 18036m | 4.3m/s | -53.8°C | 4.6% | 79.6hPa | 2.7V | 04:15:30 | 01:34:47 | 00:00:00 | |
| DF8AY | 2026-08-31 11:51:48 | 49.81762 | 13.13107 | 56° | 33km/h | 18008m | 4.8m/s | -53.8°C | 1% | 80hPa | 2.7V | 04:16:47 | 01:34:41 | 00:00:00 | |
| DM0DOS-11 | 2026-08-31 11:51:48 | 49.81736 | 13.13053 | 55° | 27km/h | 17981m | 5.5m/s | -53.7°C | 4.4% | 80.3hPa | 2.6V | 04:15:42 | 01:34:35 | 00:00:00 | |
| DF8AY | 2026-08-31 11:51:34 | 49.81696 | 13.12974 | 47° | 38km/h | 17942m | 3.9m/s | -53.8°C | 1% | 80.8hPa | 2.7V | 04:16:47 | 01:34:27 | 00:00:00 | |
| DM0DOS-11 | 2026-08-31 11:51:34 | 49.81665 | 13.12928 | 44° | 33km/h | 17918m | 5.1m/s | -53.7°C | 4.5% | 81.1hPa | 2.6V | 04:15:55 | 01:34:22 | 00:00:00 | |
| DF8AY | 2026-08-31 11:51:23 | 49.81630 | 13.12876 | 48° | 38km/h | 17889m | 4.9m/s | -53.7°C | 1% | 81.4hPa | 2.7V | 04:16:47 | 01:34:16 | 00:00:00 | |
| NBG1-10 | 2026-08-31 11:51:23 | 49.81630 | 13.12876 | 48° | 42km/h | 17889m | 4.9m/s | -53.6°C | 4.6% | 81.4hPa | 2.6V | 00:00:00 | 01:34:16 | 00:00:00 | |
| ANDY1245 | 2026-08-31 11:51:22 | 49.81630 | 13.12876 | 49° | 38km/h | 17889m | 4.9m/s | -53.7°C | 1.5% | 81.4hPa | 2.6V | 00:00:00 | 00:00:00 | 00:00:00 | |
| DL1JEZ-13 | 2026-08-31 11:51:19 | 49.81609 | 13.12840 | 49° | 42km/h | 17875m | 5.2m/s | -53.6°C | 1.5% | 81.6hPa | 2.6V | 00:00:00 | 00:00:00 | 00:00:00 | |
| DM0DOS-11 | 2026-08-31 11:51:18 | 49.81589 | 13.12804 | 51° | 42km/h | 17861m | 5.5m/s | -53.5°C | 4.5% | 81.8hPa | 2.6V | 04:16:07 | 01:34:10 | 00:00:00 | |
| OE5MMP-10 | 2026-08-31 11:51:18 | 49.81595 | 13.12816 | 50° | 40km/h | 17866m | 4.2m/s | -53.5°C | 4.5% | 81.7hPa | 2.6V | 00:00:00 | 01:34:11 | 00:00:00 | |
| PG1ADW-2 | 2026-08-31 11:51:14 | 49.81571 | 13.12764 | 58° | 42km/h | 17846m | 5.6m/s | -53.3°C | 4.5% | 82.0hPa | 2.7V | 04:16:00 | 01:34:07 | 00:00:00 | |
| DB0NH | 2026-08-31 11:51:12 | 49.81560 | 13.12738 | 58° | 42km/h | 17837m | 4.4m/s | -53.2°C | 4.4% | 82.1hPa | 2.7V | 00:00:00 | 01:34:05 | 00:00:00 | |
| DM0DOS-11 | 2026-08-31 11:51:11 | 49.81527 | 13.12672 | 44° | 44km/h | 17813m | 4.3m/s | -53.1°C | 4.4% | 82.4hPa | 2.7V | 04:16:17 | 01:34:00 | 00:00:00 | |
| DF8AY | 2026-08-31 11:51:11 | 49.81554 | 13.12724 | 57° | 42km/h | 17832m | 5.2m/s | -53.3°C | 1% | 82.2hPa | 2.6V | 04:16:47 | 01:34:04 | 00:00:00 | |
| DF8AY | 2026-08-31 11:51:00 | 49.81439 | 13.12505 | 55° | 40km/h | 17752m | 3.5m/s | -52.9°C | 0.9% | 83.2hPa | 2.7V | 04:16:47 | 01:33:47 | 00:00:00 | |
| SP3BTT-10 | 2026-08-31 11:51:00 | 49.81474 | 13.12583 | 54° | 44km/h | 17779m | 4.0m/s | -52.9°C | 4.4% | 82.8hPa | 2.6V | 00:00:00 | 00:00:00 | 00:00:00 | |
| DM0DOS-11 | 2026-08-31 11:50:58 | 49.81456 | 13.12544 | 56° | 42km/h | 17765m | 3.9m/s | -53°C | 4.4% | 83hPa | 2.6V | 04:16:27 | 01:33:50 | 00:00:00 | |
| DL9SK-14 | 2026-08-31 11:50:57 | 49.81457 | 13.12544 | 56° | 40km/h | 17765m | 3.9m/s | -53.0°C | 1.4% | 83.0hPa | 2.7V | 00:00:00 | 00:00:00 | 00:00:00 | |
| SONCRA | 2026-08-31 11:50:56 | 49.81445 | 13.12518 | 53° | 38km/h | 17756m | 4.2m/s | -53.0°C | 1.3% | 83.2hPa | 2.7V | 00:00:00 | 00:00:00 | 00:00:00 | |
| EDDB2-11 | 2026-08-31 11:50:55 | 49.81439 | 13.12505 | 54° | 40km/h | 17752m | 3.5m/s | -52.9°C | 1.4% | 83.2hPa | 2.7V | 00:00:00 | 00:00:00 | 00:00:00 | |
| PG1ADW-2 | 2026-08-31 11:50:54 | 49.81439 | 13.12505 | 55° | 44km/h | 17752m | 3.5m/s | -52.9°C | 4.3% | 83.2hPa | 2.7V | 00:00:00 | 00:00:00 | 00:00:00 | |
| DM0DOS-11 | 2026-08-31 11:50:51 | 49.81396 | 13.12403 | 56° | 38km/h | 17720m | 4.1m/s | -53.1°C | 4.3% | 83.6hPa | 2.7V | 04:16:37 | 01:33:40 | 00:00:00 | |
| DF8AY | 2026-08-31 11:50:44 | 49.81382 | 13.12364 | 64° | 40km/h | 17705m | 4.6m/s | -53.2°C | 0.9% | 83.8hPa | 2.6V | 04:16:47 | 01:33:37 | 00:00:00 | |
| OE5WHR-10 | 2026-08-31 11:50:43 | 49.81377 | 13.12350 | 62° | 64km/h | 17701m | 4.0m/s | -53.2°C | 4.4% | 83.8hPa | 2.6V | 00:00:00 | 00:00:00 | 00:00:00 | |
| DO3MHA-11 | 2026-08-31 11:50:39 | 49.81353 | 13.12293 | 57° | 46km/h | 17682m | 5.7m/s | -53.2°C | 4.5% | 84.1hPa | 2.6V | 00:00:00 | 01:33:32 | 00:00:00 | |
| DM0DOS-11 | 2026-08-31 11:50:38 | 49.81314 | 13.12201 | 60° | 44km/h | 17654m | 5.4m/s | -53.2°C | 4.4% | 84.5hPa | 2.6V | 04:16:51 | 01:33:26 | 00:00:00 | |
| DF8AY | 2026-08-31 11:50:34 | 49.81303 | 13.12172 | 61° | 42km/h | 17645m | 3.6m/s | -53.1°C | 0.9% | 84.6hPa | 2.7V | 04:18:29 | 01:33:24 | 00:00:00 | |
| DF8AY | 2026-08-31 11:50:23 | 49.81252 | 13.12060 | 51° | 46km/h | 17610m | 5.1m/s | -53°C | 0.9% | 85.1hPa | 2.6V | 04:18:29 | 01:33:16 | 00:00:00 | |
| DF8AY | 2026-08-31 11:50:14 | 49.81141 | 13.11859 | 49° | 53km/h | 17544m | 5.6m/s | -52.8°C | 0.9% | 86hPa | 2.7V | 04:18:29 | 01:33:02 | 00:00:00 | |
| DB0UT-7 | 2026-08-31 11:50:13 | 49.81176 | 13.11917 | 50° | 44km/h | 17563m | 4.5m/s | -52.7°C | 4.3% | 85.6hPa | 2.7V | 00:00:00 | 01:33:06 | 00:00:00 | |
| OE5MMP-10 | 2026-08-31 11:50:12 | 49.81168 | 13.11903 | 48° | 51km/h | 17559m | 4.9m/s | -52.7°C | 4.3% | 85.7hPa | 2.6V | 04:17:00 | 01:33:05 | 00:00:00 | |
| DL6DJ-15 | 2026-08-31 11:50:11 | 49.81150 | 13.11874 | 46° | 51km/h | 17549m | 3.9m/s | -52.8°C | 1.4% | 85.8hPa | 2.7V | 00:00:00 | 00:00:00 | 00:00:00 | |
| DO3MHA-11 | 2026-08-31 11:50:10 | 49.81141 | 13.11859 | 49° | 49km/h | 17544m | 5.6m/s | -52.8°C | 4.3% | 85.9hPa | 2.7V | 04:17:00 | 01:33:02 | 00:00:00 | |
| EDDB2-12 | 2026-08-31 11:50:06 | 49.81115 | 13.11812 | 47° | 51km/h | 17531m | 5.2m/s | -52.9°C | 1.4% | 86.1hPa | 2.6V | 00:00:00 | 00:00:00 | 00:00:00 | |
| DM0DOS-11 | 2026-08-31 11:50:02 | 49.81081 | 13.11756 | 46° | 47km/h | 17512m | 3.9m/s | -52.8°C | 4.3% | 86.4hPa | 2.6V | 04:17:22 | 01:32:55 | 00:00:00 | |
| DF8AY | 2026-08-31 11:49:59 | 49.81046 | 13.11707 | 39° | 47km/h | 17494m | 4.6m/s | -52.7°C | 0.9% | 86.6hPa | 2.7V | 04:18:29 | 01:32:51 | 00:00:00 | |
| DL9SK-14 | 2026-08-31 11:49:55 | 49.81008 | 13.11656 | 40° | 51km/h | 17476m | 5.1m/s | -52.7°C | 1.3% | 86.9hPa | 2.6V | 00:00:00 | 00:00:00 | 00:00:00 | |
| SONCRA | 2026-08-31 11:49:54 | 49.80998 | 13.11643 | 39° | 51km/h | 17471m | 4.6m/s | -52.7°C | 1.3% | 86.9hPa | 2.6V | 00:00:00 | 00:00:00 | 00:00:00 | |
| DM0DOS-11 | 2026-08-31 11:49:52 | 49.80969 | 13.11605 | 42° | 47km/h | 17457m | 4.6m/s | -52.6°C | 4.2% | 87.1hPa | 2.6V | 04:17:34 | 01:32:43 | 00:00:00 | |
| DF8AY | 2026-08-31 11:49:49 | 49.80919 | 13.11542 | 39° | 42km/h | 17429m | 4m/s | -52.5°C | 0.8% | 87.5hPa | 2.7V | 04:18:29 | 01:32:37 | 00:00:00 | |
| DF8AY | 2026-08-31 11:49:43 | 49.80839 | 13.11451 | 41° | 49km/h | 17395m | 3.7m/s | -53.1°C | 0.8% | 88hPa | 2.7V | 04:18:29 | 01:32:29 | 00:00:00 | |
| DM0DOS-11 | 2026-08-31 11:49:42 | 49.80859 | 13.11477 | 39° | 53km/h | 17403m | 4.5m/s | -53.2°C | 4.4% | 87.9hPa | 2.6V | 04:17:46 | 01:32:31 | 00:00:00 | |
| OE5MMP-10 | 2026-08-31 11:49:42 | 49.80901 | 13.11522 | 33° | 49km/h | 17421m | 4.9m/s | -52.7°C | 4.2% | 87.6hPa | 2.6V | 00:00:00 | 01:32:35 | 00:00:00 | |
| DL6DJ-15 | 2026-08-31 11:49:40 | 49.80869 | 13.11490 | 35° | 53km/h | 17408m | 4.9m/s | -53.2°C | 1.4% | 87.8hPa | 2.7V | 00:00:00 | 00:00:00 | 00:00:00 | |
| DO3MHA-11 | 2026-08-31 11:49:39 | 49.80869 | 13.11490 | 36° | 46km/h | 17408m | 4.9m/s | -53.1°C | 4.4% | 87.7hPa | 2.7V | 00:00:00 | 01:32:32 | 00:00:00 | |
| DF2AP-13 | 2026-08-31 11:49:37 | 49.80849 | 13.11464 | 41° | 42km/h | 17399m | 3.5m/s | -53.1°C | 4.4% | 87.9hPa | 2.7V | 04:17:00 | 01:32:30 | 00:00:00 | |
| OE5DRO-10 | 2026-08-31 11:49:35 | 49.80830 | 13.11440 | 38° | 40km/h | 17391m | 4.9m/s | -53.1°C | 4.4% | 88.0hPa | 2.7V | 00:00:00 | 00:00:00 | 00:00:00 | |
| DM0DOS-11 | 2026-08-31 11:49:32 | 49.80775 | 13.11368 | 45° | 38km/h | 17359m | 5.3m/s | -53°C | 4.3% | 88.5hPa | 2.7V | 04:17:56 | 01:32:21 | 00:00:00 | |
| DF8AY | 2026-08-31 11:49:27 | 49.80769 | 13.11358 | 45° | 37km/h | 17354m | 4.2m/s | -52.9°C | 0.8% | 88.5hPa | 2.7V | 04:18:29 | 01:32:20 | 00:00:00 | |
| PG1ADW-2 | 2026-08-31 11:49:27 | 49.80769 | 13.11358 | 45° | 40km/h | 17354m | 4.1m/s | -52.9°C | 4.3% | 88.5hPa | 2.7V | 04:17:00 | 00:00:00 | 00:00:00 | |
| ANDY1245 | 2026-08-31 11:49:24 | 49.80749 | 13.11325 | 50° | 40km/h | 17341m | 4.1m/s | -53.0°C | 1.5% | 88.7hPa | 2.7V | 00:00:00 | 00:00:00 | 00:00:00 | |
| OE5MMP-10 | 2026-08-31 11:49:22 | 49.80736 | 13.11303 | 45° | 40km/h | 17332m | 4.9m/s | -53.0°C | 4.4% | 88.8hPa | 2.7V | 04:18:00 | 01:32:15 | 00:00:00 | |
| DM0DOS-11 | 2026-08-31 11:49:21 | 49.80709 | 13.11258 | 51° | 40km/h | 17314m | 4.4m/s | -53.1°C | 4.4% | 89.1hPa | 2.7V | 04:18:06 | 01:32:11 | 00:00:00 | |
| DF8AY | 2026-08-31 11:49:18 | 49.80702 | 13.11245 | 52° | 42km/h | 17310m | 3.4m/s | -53.1°C | 0.9% | 89.2hPa | 2.6V | 04:18:29 | 01:32:10 | 00:00:00 | |
| DF8AY | 2026-08-31 11:49:05 | 49.80617 | 13.11095 | 45° | 46km/h | 17254m | 4m/s | -52.7°C | 0.9% | 89.9hPa | 2.7V | 04:18:29 | 01:31:58 | 00:00:00 | |
| EDDB2-12 | 2026-08-31 11:49:04 | 49.80608 | 13.11083 | 42° | 44km/h | 17250m | 5.4m/s | -52.7°C | 1.4% | 90.0hPa | 2.7V | 00:00:00 | 00:00:00 | 00:00:00 | |
| DM0DOS-11 | 2026-08-31 11:49:02 | 49.80561 | 13.11009 | 48° | 44km/h | 17222m | 4.1m/s | -52.6°C | 4.2% | 90.4hPa | 2.7V | 04:18:26 | 01:31:51 | 00:00:00 | |
| DF8AY | 2026-08-31 11:48:55 | 49.80522 | 13.10951 | 43° | 46km/h | 17199m | 4.6m/s | -52.7°C | 0.9% | 90.7hPa | 2.7V | 04:19:20 | 01:31:46 | 00:00:00 | |
| OE5DXL-15 | 2026-08-31 11:48:53 | 49.80514 | 13.10938 | 42° | 47km/h | 17194m | 4.6m/s | -52.8°C | 4.4% | 90.7hPa | 2.7V | 00:00:00 | 00:00:00 | 00:00:00 | |
| DM0DOS-11 | 2026-08-31 11:48:52 | 49.80476 | 13.10891 | 40° | 49km/h | 17174m | 5.7m/s | -52.7°C | 4.3% | 91hPa | 2.7V | 04:18:36 | 01:31:41 | 00:00:00 | |
| SONCRA | 2026-08-31 11:48:51 | 49.80505 | 13.10926 | 39° | 47km/h | 17189m | 5.8m/s | -52.8°C | 1.4% | 90.8hPa | 2.7V | 00:00:00 | 00:00:00 | 00:00:00 | |
| EDDB2-11 | 2026-08-31 11:48:50 | 49.80495 | 13.10915 | 37° | 47km/h | 17184m | 4.9m/s | -52.8°C | 1.4% | 90.9hPa | 2.7V | 00:00:00 | 00:00:00 | 00:00:00 | |
| DF8AY | 2026-08-31 11:48:41 | 49.80411 | 13.10810 | 34° | 46km/h | 17142m | 5m/s | -52.5°C | 0.9% | 91.5hPa | 2.7V | 04:19:20 | 01:31:34 | 00:00:00 | |
| OE5MMP-10 | 2026-08-31 11:48:41 | 49.80411 | 13.10810 | 35° | 47km/h | 17142m | 4.9m/s | -52.4°C | 4.3% | 91.4hPa | 2.7V | 00:00:00 | 01:31:34 | 00:00:00 | |
| DO3MHA-11 | 2026-08-31 11:48:39 | 49.80392 | 13.10789 | 35° | 47km/h | 17133m | 4.2m/s | -52.4°C | 4.3% | 91.6hPa | 2.7V | 00:00:00 | 01:31:32 | 00:00:00 | |
| DL6DJ-15 | 2026-08-31 11:48:38 | 49.80372 | 13.10770 | 29° | 46km/h | 17123m | 4.9m/s | -52.5°C | 1.4% | 91.8hPa | 2.7V | 00:00:00 | 00:00:00 | 00:00:00 | |
| DF2AP-13 | 2026-08-31 11:48:36 | 49.80362 | 13.10761 | 30° | 44km/h | 17119m | 4.1m/s | -52.5°C | 4.3% | 91.8hPa | 2.7V | 00:00:00 | 01:31:29 | 00:00:00 | |
| EDDB2-12 | 2026-08-31 11:48:33 | 49.80330 | 13.10731 | 33° | 49km/h | 17104m | 3.9m/s | -52.4°C | 1.4% | 92.0hPa | 2.7V | 00:00:00 | 00:00:00 | 00:00:00 | |
| DM0DOS-11 | 2026-08-31 11:48:32 | 49.80280 | 13.10684 | 30° | 46km/h | 17083m | 4.9m/s | -52.5°C | 4.3% | 92.3hPa | 2.7V | 04:18:56 | 01:31:21 | 00:00:00 | |
| DF8AY | 2026-08-31 11:48:30 | 49.80232 | 13.10637 | 32° | 42km/h | 17058m | 4.7m/s | -52.4°C | 0.9% | 92.7hPa | 2.7V | 04:19:20 | 01:31:16 | 00:00:00 | |
| DB0UT-7 | 2026-08-31 11:48:30 | 49.80299 | 13.10701 | 29° | 51km/h | 17091m | 4.2m/s | -52.4°C | 4.2% | 92.2hPa | 2.7V | 00:00:00 | 01:31:23 | 00:00:00 | |
| DO3MHA-11 | 2026-08-31 11:48:29 | 49.80290 | 13.10693 | 29° | 44km/h | 17087m | 3.5m/s | -52.4°C | 4.3% | 92.2hPa | 2.7V | 04:18:00 | 01:31:22 | 00:00:00 | |
| DB0UT-9 | 2026-08-31 11:48:27 | 49.80270 | 13.10675 | 33° | 46km/h | 17078m | 5.2m/s | -52.5°C | 1.5% | 92.4hPa | 2.7V | 00:00:00 | 00:00:00 | 00:00:00 | |
| OE5DXL-15 | 2026-08-31 11:48:23 | 49.80232 | 13.10637 | 33° | 42km/h | 17058m | 4.7m/s | -52.3°C | 4.3% | 92.7hPa | 2.7V | 00:00:00 | 00:00:00 | 00:00:00 | |
| DM0DOS-11 | 2026-08-31 11:48:22 | 49.80186 | 13.10589 | 35° | 44km/h | 17033m | 4.7m/s | -52.4°C | 4.4% | 93hPa | 2.7V | 04:19:06 | 01:31:11 | 00:00:00 | |
| DL9SK-14 | 2026-08-31 11:48:22 | 49.80214 | 13.10619 | 33° | 44km/h | 17048m | 5.4m/s | -52.4°C | 1.5% | 92.8hPa | 2.7V | 00:00:00 | 00:00:00 | 00:00:00 | |
| SONCRA | 2026-08-31 11:48:20 | 49.80205 | 13.10609 | 34° | 44km/h | 17044m | 4.3m/s | -52.3°C | 1.4% | 92.9hPa | 2.7V | 00:00:00 | 00:00:00 | 00:00:00 | |
| DF8AY | 2026-08-31 11:48:13 | 49.80061 | 13.10409 | 42° | 44km/h | 16961m | 4.7m/s | -52.1°C | 0.8% | 94.1hPa | 2.7V | 04:21:02 | 01:30:55 | 00:00:00 | |
| DB0NH | 2026-08-31 11:48:12 | 49.80137 | 13.10521 | 46° | 62km/h | 17006m | 4.7m/s | -52.1°C | 4.0% | 93.4hPa | 2.7V | 04:19:00 | 01:31:05 | 00:00:00 | |
| DM0DOS-11 | 2026-08-31 11:48:11 | 49.80110 | 13.10474 | 46° | 42km/h | 16987m | 3.8m/s | -52°C | 3.9% | 93.7hPa | 2.7V | 04:19:16 | 01:31:01 | 00:00:00 | |
| DO3MHA-11 | 2026-08-31 11:48:09 | 49.80117 | 13.10486 | 49° | 42km/h | 16992m | 4.9m/s | -52.0°C | 3.9% | 93.6hPa | 2.7V | 00:00:00 | 01:31:02 | 00:00:00 | |
| PG1ADW-2 | 2026-08-31 11:48:07 | 49.80102 | 13.10462 | 44° | 44km/h | 16983m | 4.2m/s | -51.9°C | 3.9% | 93.7hPa | 2.7V | 00:00:00 | 00:00:00 | 00:00:00 | |
| OE5MMP-10 | 2026-08-31 11:48:06 | 49.80094 | 13.10452 | 40° | 44km/h | 16979m | 4.7m/s | -51.8°C | 3.9% | 93.8hPa | 2.7V | 00:00:00 | 01:30:59 | 00:00:00 | |
| NBG1-10 | 2026-08-31 11:48:05 | 49.80086 | 13.10442 | 38° | 46km/h | 16975m | 3.7m/s | -51.8°C | 3.9% | 93.9hPa | 2.6V | 04:19:00 | 01:30:58 | 00:00:00 | |
| SONDE2-11 | 2026-08-31 11:48:03 | 49.80061 | 13.10409 | 42° | 44km/h | 16961m | 4.7m/s | -52.1°C | 1.3% | 94.1hPa | 2.6V | 00:00:00 | 00:00:00 | 00:00:00 | |
| EDDB2-12 | 2026-08-31 11:48:02 | 49.80052 | 13.10398 | 42° | 42km/h | 16956m | 5.4m/s | -52.4°C | 1.3% | 94.2hPa | 2.6V | 00:00:00 | 00:00:00 | 00:00:00 | |
| DM0DOS-11 | 2026-08-31 11:48:01 | 49.80029 | 13.10363 | 45° | 44km/h | 16942m | 5.3m/s | -53.2°C | 4.3% | 94.4hPa | 2.6V | 04:19:26 | 01:30:51 | 00:00:00 | |
| DF8AY | 2026-08-31 11:47:56 | 49.80005 | 13.10328 | 37° | 40km/h | 16928m | 5.5m/s | -54.2°C | 1% | 94.6hPa | 2.7V | 04:21:02 | 01:30:48 | 00:00:00 | |
| OE5DXL-15 | 2026-08-31 11:47:53 | 49.79988 | 13.10312 | 27° | 47km/h | 16919m | 3.3m/s | -54.8°C | 4.6% | 94.7hPa | 2.7V | 00:00:00 | 00:00:00 | 00:00:00 | |
| DM0DOS-11 | 2026-08-31 11:47:50 | 49.79934 | 13.10251 | 52° | 46km/h | 16892m | 5.7m/s | -54.8°C | 4.8% | 95.1hPa | 2.7V | 04:19:37 | 01:30:40 | 00:00:00 | |
| SONCRA | 2026-08-31 11:47:49 | 49.79950 | 13.10277 | 40° | 46km/h | 16903m | 4.1m/s | -55.0°C | 1.6% | 95.0hPa | 2.7V | 00:00:00 | 00:00:00 | 00:00:00 | |
| EDDB2-11 | 2026-08-31 11:47:48 | 49.79941 | 13.10265 | 46° | 46km/h | 16898m | 5.9m/s | -54.9°C | 1.6% | 95.0hPa | 2.7V | 00:00:00 | 00:00:00 | 00:00:00 | |
| DF8AY | 2026-08-31 11:47:44 | 49.79858 | 13.10043 | 63° | 46km/h | 16832m | 4m/s | -54.9°C | 1.3% | 96hPa | 2.7V | 04:21:02 | 01:30:27 | 00:00:00 | |
| DF8AY | 2026-08-31 11:47:39 | 49.79833 | 13.09977 | 60° | 53km/h | 16814m | 3.8m/s | -54.9°C | 1.3% | 96.3hPa | 2.7V | 04:21:02 | 01:30:23 | 00:00:00 | |
| DM0DOS-11 | 2026-08-31 11:47:39 | 49.79875 | 13.10092 | 59° | 49km/h | 16845m | 3.6m/s | -54.8°C | 4.8% | 95.8hPa | 2.8V | 04:19:47 | 01:30:30 | 00:00:00 | |
| DL6DJ-15 | 2026-08-31 11:47:36 | 49.79863 | 13.10059 | 62° | 46km/h | 16837m | 5.1m/s | -54.9°C | 1.6% | 95.9hPa | 2.7V | 00:00:00 | 00:00:00 | 00:00:00 | |
| ANDY1245 | 2026-08-31 11:47:35 | 49.79863 | 13.10059 | 63° | 47km/h | 16837m | 5.1m/s | -54.9°C | 1.7% | 95.9hPa | 2.7V | 00:00:00 | 00:00:00 | 00:00:00 | |
| DM0DOS-11 | 2026-08-31 11:47:33 | 49.79815 | 13.09920 | 65° | 55km/h | 16800m | 4m/s | -54.9°C | 5% | 96.5hPa | 2.7V | 04:19:57 | 01:30:20 | 00:00:00 | |
| DF8AY | 2026-08-31 11:47:20 | 49.79776 | 13.09786 | 64° | 53km/h | 16770m | 5m/s | -55.1°C | 1.4% | 97hPa | 2.7V | 04:21:02 | 01:30:13 | 00:00:00 | |
| DM0DOS-11 | 2026-08-31 11:47:20 | 49.79758 | 13.09729 | 66° | 55km/h | 16758m | 4.8m/s | -55°C | 4.9% | 97.1hPa | 2.8V | 04:20:07 | 01:30:10 | 00:00:00 | |
| DL9SK-14 | 2026-08-31 11:47:20 | 49.79770 | 13.09767 | 63° | 53km/h | 16766m | 3.5m/s | -55.0°C | 1.7% | 97.0hPa | 2.7V | 00:00:00 | 00:00:00 | 00:00:00 | |
| DO3MHA-11 | 2026-08-31 11:47:19 | 49.79770 | 13.09767 | 64° | 60km/h | 16766m | 3.4m/s | -55.0°C | 4.9% | 97.0hPa | 2.7V | 00:00:00 | 01:30:12 | 00:00:00 | |
| DB0UT-7 | 2026-08-31 11:47:18 | 49.79764 | 13.09748 | 65° | 62km/h | 16762m | 3.7m/s | -55.0°C | 4.9% | 97.0hPa | 2.7V | 00:00:00 | 00:00:00 | 00:00:00 | |
| EDDB2-11 | 2026-08-31 11:47:17 | 49.79758 | 13.09729 | 66° | 55km/h | 16758m | 4.8m/s | -55.0°C | 1.7% | 97.1hPa | 2.8V | 00:00:00 | 00:00:00 | 00:00:00 | |
| OE5MMP-10 | 2026-08-31 11:47:16 | 49.79752 | 13.09708 | 69° | 62km/h | 16753m | 4.4m/s | -54.8°C | 4.9% | 97.2hPa | 2.8V | 00:00:00 | 01:30:09 | 00:00:00 | |
| DF8AY | 2026-08-31 11:47:10 | 49.79650 | 13.09307 | 71° | 64km/h | 16675m | 4.5m/s | -55°C | 1.5% | 98.4hPa | 2.8V | 04:21:02 | 01:29:51 | 00:00:00 | |
| DM0DOS-11 | 2026-08-31 11:47:09 | 49.79683 | 13.09440 | 70° | 58km/h | 16700m | 4.4m/s | -54.6°C | 4.8% | 98hPa | 2.7V | 04:20:20 | 01:29:57 | 00:00:00 | |
| DF8AY | 2026-08-31 11:46:55 | 49.79634 | 13.09233 | 71° | 69km/h | 16662m | 4.7m/s | -55°C | 1.4% | 98.6hPa | 2.7V | 04:21:02 | 01:29:48 | 00:00:00 | |
| DM0DOS-11 | 2026-08-31 11:46:55 | 49.79629 | 13.09208 | 70° | 69km/h | 16657m | 3.9m/s | -55.1°C | 4.8% | 98.7hPa | 2.7V | 04:20:30 | 01:29:47 | 00:00:00 | |
| DL9SK-14 | 2026-08-31 11:46:49 | 49.79596 | 13.09064 | 69° | 58km/h | 16631m | 4.5m/s | -55.2°C | 1.7% | 99.1hPa | 2.7V | 00:00:00 | 00:00:00 | 00:00:00 | |
| SONCRA | 2026-08-31 11:46:47 | 49.79591 | 13.09043 | 70° | 57km/h | 16626m | 4.7m/s | -55.2°C | 1.7% | 99.2hPa | 2.7V | 00:00:00 | 00:00:00 | 00:00:00 | |
| EDDB2-11 | 2026-08-31 11:46:46 | 49.79586 | 13.09022 | 70° | 57km/h | 16622m | 3.3m/s | -55.1°C | 1.7% | 99.3hPa | 2.7V | 00:00:00 | 00:00:00 | 00:00:00 | |
| DM0DOS-11 | 2026-08-31 11:46:45 | 49.79575 | 13.08978 | 69° | 62km/h | 16614m | 5m/s | -55.4°C | 4.9% | 99.3hPa | 2.7V | 04:20:40 | 01:29:37 | 00:00:00 | |
| DF8AY | 2026-08-31 11:46:44 | 49.79576 | 13.08978 | 69° | 62km/h | 16614m | 5m/s | -55.4°C | 1.4% | 99.3hPa | 2.7V | 04:21:02 | 01:29:37 | 00:00:00 | |
| DB0UT-9 | 2026-08-31 11:46:44 | 49.79575 | 13.08978 | 70° | 62km/h | 16614m | 5.0m/s | -55.4°C | 1.7% | 99.3hPa | 2.7V | 00:00:00 | 00:00:00 | 00:00:00 | |
| DO3MHA-11 | 2026-08-31 11:46:39 | 49.79547 | 13.08853 | 73° | 64km/h | 16593m | 4.3m/s | -55.9°C | 5.2% | 99.6hPa | 2.7V | 00:00:00 | 01:29:32 | 00:00:00 | |
| DF2AP-13 | 2026-08-31 11:46:36 | 49.79532 | 13.08780 | 72° | 69km/h | 16581m | 4.3m/s | -55.9°C | 5.2% | 99.8hPa | 2.7V | 00:00:00 | 01:29:29 | 00:00:00 | |
| DM0DOS-11 | 2026-08-31 11:46:34 | 49.79518 | 13.08711 | 74° | 60km/h | 16567m | 4.5m/s | -56.2°C | 5.4% | 100.1hPa | 2.7V | 04:20:51 | 01:29:26 | 00:00:00 | |
| DF8AY | 2026-08-31 11:46:33 | 49.79518 | 13.08711 | 74° | 60km/h | 16567m | 4.5m/s | -56.3°C | 1.7% | 100.1hPa | 2.7V | 04:21:02 | 01:29:26 | 00:00:00 | |
| DK5PH-5 | 2026-08-31 11:46:32 | 49.79514 | 13.08688 | 74° | 71km/h | 16563m | 3.7m/s | -56.2°C | 5.4% | 100.1hPa | 2.7V | 00:00:00 | 01:29:25 | 00:00:00 | |
| DO3MHA-11 | 2026-08-31 11:46:29 | 49.79499 | 13.08618 | 70° | 68km/h | 16550m | 3.7m/s | -56.2°C | 5.4% | 100.3hPa | 2.7V | 00:00:00 | 01:29:22 | 00:00:00 | |
| DL1JEZ-13 | 2026-08-31 11:46:28 | 49.79499 | 13.08618 | 71° | 68km/h | 16550m | 3.7m/s | -56.3°C | 2.0% | 100.4hPa | 2.7V | 00:00:00 | 00:00:00 | 00:00:00 | |
| PG1ADW-2 | 2026-08-31 11:46:27 | 49.79487 | 13.08569 | 71° | 73km/h | 16542m | 5.1m/s | -56.3°C | 5.5% | 100.5hPa | 2.7V | 00:00:00 | 00:00:00 | 00:00:00 | |
| NBG1-10 | 2026-08-31 11:46:26 | 49.79482 | 13.08544 | 72° | 75km/h | 16537m | 3.9m/s | -56.2°C | 5.5% | 100.5hPa | 2.7V | 00:00:00 | 01:29:19 | 00:00:00 | |
| OE5DRO-10 | 2026-08-31 11:46:25 | 49.79476 | 13.08519 | 71° | 73km/h | 16533m | 4.0m/s | -56.2°C | 5.4% | 100.6hPa | 2.7V | 00:00:00 | 00:00:00 | 00:00:00 | |
| DM0DOS-11 | 2026-08-31 11:46:23 | 49.79434 | 13.08341 | 68° | 71km/h | 16501m | 5.2m/s | -56°C | 5.3% | 101.1hPa | 2.7V | 04:21:06 | 01:29:11 | 00:00:00 | |
| DF8AY | 2026-08-31 11:46:23 | 49.79464 | 13.08469 | 69° | 69km/h | 16524m | 4.2m/s | -56.2°C | 1.7% | 100.8hPa | 2.7V | 04:21:02 | 01:29:16 | 00:00:00 | |
| DF8AY | 2026-08-31 11:46:13 | 49.79398 | 13.08209 | 67° | 77km/h | 16480m | 4.4m/s | -55.9°C | 1.7% | 101.5hPa | 2.7V | 04:21:53 | 01:29:06 | 00:00:00 | |
| DM0DOS-11 | 2026-08-31 11:46:12 | 49.79361 | 13.08070 | 68° | 75km/h | 16459m | 3.3m/s | -56°C | 5.4% | 101.8hPa | 2.8V | 04:21:16 | 01:29:01 | 00:00:00 | |
| DF8AY | 2026-08-31 11:46:02 | 49.79314 | 13.07910 | 67° | 75km/h | 16435m | 3.6m/s | -56.2°C | 1.7% | 102.2hPa | 2.8V | 04:21:53 | 01:28:55 | 00:00:00 | |
| DF8AY | 2026-08-31 11:45:52 | 49.79232 | 13.07610 | 62° | 68km/h | 16388m | 4.5m/s | -56.2°C | 1.8% | 103hPa | 2.7V | 04:21:53 | 01:28:44 | 00:00:00 | |
| DL9SK-14 | 2026-08-31 11:45:47 | 49.79189 | 13.07494 | 60° | 69km/h | 16367m | 4.6m/s | -56.1°C | 1.9% | 103.3hPa | 2.7V | 00:00:00 | 00:00:00 | 00:00:00 | |
| SONCRA | 2026-08-31 11:45:45 | 49.79181 | 13.07470 | 62° | 69km/h | 16363m | 4.3m/s | -56.2°C | 1.9% | 103.4hPa | 2.7V | 00:00:00 | 00:00:00 | 00:00:00 | |
| DF8AY | 2026-08-31 11:45:41 | 49.79083 | 13.07191 | 55° | 75km/h | 16317m | 4m/s | -56.1°C | 1.8% | 104.1hPa | 2.7V | 04:21:53 | 01:28:27 | 00:00:00 | |
| DO3MHA-11 | 2026-08-31 11:45:39 | 49.79128 | 13.07317 | 63° | 69km/h | 16338m | 4.6m/s | -56.2°C | 5.4% | 103.7hPa | 2.7V | 00:00:00 | 01:28:32 | 00:00:00 | |
| DF2AP-13 | 2026-08-31 11:45:36 | 49.79102 | 13.07241 | 62° | 69km/h | 16327m | 5.0m/s | -56.1°C | 5.4% | 103.9hPa | 2.7V | 00:00:00 | 01:28:29 | 00:00:00 | |
| DB0UT-7 | 2026-08-31 11:45:35 | 49.79093 | 13.07216 | 59° | 69km/h | 16322m | 4.8m/s | -56.1°C | 5.5% | 104.0hPa | 2.7V | 00:00:00 | 00:00:00 | 00:00:00 | |
| DK5PH-5 | 2026-08-31 11:45:32 | 49.79061 | 13.07147 | 52° | 69km/h | 16310m | 4.7m/s | -56.0°C | 5.4% | 104.2hPa | 2.7V | 00:00:00 | 01:28:25 | 00:00:00 | |
| DM0DOS-11 | 2026-08-31 11:45:30 | 49.79033 | 13.07092 | 54° | 57km/h | 16296m | 4.3m/s | -56°C | 5.5% | 104.5hPa | 2.7V | 04:21:55 | 01:28:22 | 00:00:00 | |
| DF8AY | 2026-08-31 11:45:26 | 49.78987 | 13.06987 | 53° | 73km/h | 16274m | 4.9m/s | -56.1°C | 1.7% | 104.8hPa | 2.7V | 04:22:44 | 01:28:17 | 00:00:00 | |
| DM0DOS-11 | 2026-08-31 11:45:25 | 49.78930 | 13.06873 | 53° | 69km/h | 16251m | 3.7m/s | -55.9°C | 5.4% | 105.2hPa | 2.8V | 04:22:05 | 01:28:12 | 00:00:00 | |
| DF8AY | 2026-08-31 11:45:13 | 49.78789 | 13.06638 | 49° | 73km/h | 16196m | 3.8m/s | -55.5°C | 1.7% | 106.1hPa | 2.8V | 04:22:44 | 01:28:00 | 00:00:00 | |
| EDDB2-11 | 2026-08-31 11:45:13 | 49.78864 | 13.06758 | 46° | 66km/h | 16223m | 4.3m/s | -55.7°C | 2.0% | 105.7hPa | 2.8V | 00:00:00 | 00:00:00 | 00:00:00 | |
| DM0DOS-11 | 2026-08-31 11:45:12 | 49.78789 | 13.06638 | 48° | 73km/h | 16196m | 3.8m/s | -55.5°C | 5.3% | 106.1hPa | 2.8V | 04:22:17 | 01:28:00 | 00:00:00 | |
| DF8AY | 2026-08-31 11:45:00 | 49.78700 | 13.06501 | 45° | 68km/h | 16166m | 4.8m/s | -55.3°C | 1.7% | 106.6hPa | 2.7V | 04:22:44 | 01:27:53 | 00:00:00 | |
| DM0DOS-11 | 2026-08-31 11:44:59 | 49.78662 | 13.06445 | 42° | 71km/h | 16153m | 4.2m/s | -55.1°C | 5.2% | 106.8hPa | 2.8V | 04:22:27 | 01:27:50 | 00:00:00 | |
| DF8AY | 2026-08-31 11:44:49 | 49.78544 | 13.06269 | 44° | 68km/h | 16112m | 5m/s | -55°C | 1.7% | 107.5hPa | 2.7V | 04:22:44 | 01:27:41 | 00:00:00 | |
| DM0DOS-11 | 2026-08-31 11:44:48 | 49.78531 | 13.06250 | 44° | 68km/h | 16107m | 4.2m/s | -55°C | 5.1% | 107.6hPa | 2.7V | 04:22:37 | 01:27:40 | 00:00:00 | |
| DF8AY | 2026-08-31 11:44:39 | 49.78426 | 13.06092 | 45° | 80km/h | 16070m | 4.7m/s | -55.1°C | 1.6% | 108.2hPa | 2.8V | 04:23:35 | 01:27:32 | 00:00:00 | |
| DM0DOS-11 | 2026-08-31 11:44:38 | 49.78398 | 13.06048 | 45° | 78km/h | 16061m | 5.5m/s | -55.1°C | 5.1% | 108.4hPa | 2.7V | 04:22:47 | 01:27:30 | 00:00:00 | |
| DF8AY | 2026-08-31 11:44:29 | 49.78205 | 13.05787 | 41° | 73km/h | 15993m | 3.2m/s | -55.1°C | 1.7% | 109.5hPa | 2.7V | 04:23:35 | 01:27:16 | 00:00:00 | |
| DF8AY | 2026-08-31 11:44:12 | 49.78052 | 13.05597 | 41° | 66km/h | 15944m | 5.4m/s | -54.9°C | 1.6% | 110.4hPa | 2.8V | 04:23:35 | 01:27:05 | 00:00:00 | |
| DF8AY | 2026-08-31 11:44:02 | 49.77933 | 13.05419 | 48° | 66km/h | 15897m | 5.5m/s | -54.8°C | 1.7% | 111.2hPa | 2.7V | 04:23:35 | 01:26:55 | 00:00:00 | |
| OE5MMP-10 | 2026-08-31 11:44:02 | 49.77933 | 13.05419 | 48° | 66km/h | 15897m | 5.4m/s | -54.7°C | 5.2% | 111.1hPa | 2.7V | 00:00:00 | 01:26:55 | 00:00:00 | |
| DM0DOS-11 | 2026-08-31 11:44:00 | 49.77888 | 13.05342 | 48° | 66km/h | 15879m | 4.3m/s | -54.5°C | 5.2% | 111.5hPa | 2.7V | 04:23:26 | 01:26:51 | 00:00:00 | |
| DF8AY | 2026-08-31 11:43:51 | 49.77804 | 13.05222 | 40° | 64km/h | 15847m | 4.3m/s | -54.4°C | 1.5% | 112.1hPa | 2.8V | 04:23:35 | 01:26:44 | 00:00:00 | |
| DM0DOS-11 | 2026-08-31 11:43:50 | 49.77766 | 13.05173 | 40° | 66km/h | 15833m | 3.5m/s | -54.3°C | 5.1% | 112.3hPa | 2.7V | 04:23:36 | 01:26:41 | 00:00:00 | |
| DF8AY | 2026-08-31 11:43:40 | 49.77650 | 13.05005 | 43° | 62km/h | 15786m | 5.1m/s | -53.8°C | 1.4% | 113.2hPa | 2.8V | 04:24:26 | 01:26:31 | 00:00:00 | |
| DM0DOS-11 | 2026-08-31 11:43:40 | 49.77650 | 13.05005 | 42° | 62km/h | 15786m | 5.1m/s | -53.8°C | 4.9% | 113.2hPa | 2.8V | 04:23:46 | 01:26:31 | 00:00:00 | |
| DF8AY | 2026-08-31 11:43:30 | 49.77557 | 13.04886 | 39° | 58km/h | 15746m | 5.3m/s | -53.6°C | 1.4% | 113.9hPa | 2.7V | 04:24:26 | 01:26:23 | 00:00:00 | |
| DM0DOS-11 | 2026-08-31 11:43:29 | 49.77534 | 13.04856 | 41° | 58km/h | 15737m | 4.6m/s | -53.5°C | 4.8% | 114hPa | 2.7V | 04:23:56 | 01:26:21 | 00:00:00 | |
| OE5MMP-10 | 2026-08-31 11:43:28 | 49.77534 | 13.04856 | 42° | 58km/h | 15738m | 4.5m/s | -53.5°C | 4.8% | 114.0hPa | 2.7V | 00:00:00 | 01:26:21 | 00:00:00 | |
| PG1ADW-2 | 2026-08-31 11:43:27 | 49.77523 | 13.04840 | 44° | 58km/h | 15733m | 5.6m/s | -53.4°C | 4.9% | 114.1hPa | 2.7V | 00:00:00 | 00:00:00 | 00:00:00 | |
| DB0UT-7 | 2026-08-31 11:43:23 | 49.77477 | 13.04780 | 35° | 49km/h | 15715m | 5.1m/s | -53.4°C | 4.8% | 114.3hPa | 2.7V | 00:00:00 | 01:26:16 | 00:00:00 | |
| DM0DOS-11 | 2026-08-31 11:43:22 | 49.77404 | 13.04708 | 32° | 58km/h | 15685m | 4.6m/s | -53.2°C | 4.7% | 115hPa | 2.7V | 04:24:07 | 01:26:10 | 00:00:00 | |
| DF8AY | 2026-08-31 11:43:20 | 49.77441 | 13.04743 | 33° | 55km/h | 15699m | 4.6m/s | -53.2°C | 1.3% | 114.7hPa | 2.8V | 04:24:26 | 01:26:13 | 00:00:00 | |
| DO3MHA-11 | 2026-08-31 11:43:19 | 49.77429 | 13.04732 | 32° | 60km/h | 15695m | 4.1m/s | -53.1°C | 4.6% | 114.7hPa | 2.7V | 00:00:00 | 01:26:12 | 00:00:00 | |
| OE5MMP-10 | 2026-08-31 11:43:18 | 49.77416 | 13.04720 | 32° | 60km/h | 15690m | 6.0m/s | -53.1°C | 4.6% | 114.8hPa | 2.7V | 04:24:00 | 01:26:11 | 00:00:00 | |
| OE5DRO-10 | 2026-08-31 11:43:15 | 49.77379 | 13.04681 | 39° | 58km/h | 15676m | 4.9m/s | -53.0°C | 4.7% | 115.1hPa | 2.7V | 00:00:00 | 00:00:00 | 00:00:00 | |
| ANDY1245 | 2026-08-31 11:43:13 | 49.77367 | 13.04666 | 40° | 62km/h | 15671m | 3.4m/s | -52.9°C | 1.8% | 115.2hPa | 2.7V | 00:00:00 | 00:00:00 | 00:00:00 | |
| DM0DOS-11 | 2026-08-31 11:43:11 | 49.77268 | 13.04563 | 31° | 58km/h | 15637m | 3.7m/s | -52.7°C | 4.7% | 115.8hPa | 2.7V | 04:24:18 | 01:25:59 | 00:00:00 | |
| DF8AY | 2026-08-31 11:43:09 | 49.77305 | 13.04599 | 31° | 58km/h | 15650m | 4.5m/s | -52.8°C | 1.3% | 115.5hPa | 2.8V | 04:24:26 | 01:26:02 | 00:00:00 | |
| DO3MHA-11 | 2026-08-31 11:43:09 | 49.77305 | 13.04599 | 32° | 58km/h | 15651m | 4.4m/s | -52.7°C | 4.7% | 115.5hPa | 2.7V | 00:00:00 | 01:26:02 | 00:00:00 | |
| NBG1-10 | 2026-08-31 11:43:08 | 49.77292 | 13.04587 | 33° | 55km/h | 15646m | 4.5m/s | -52.7°C | 4.7% | 115.6hPa | 2.7V | 00:00:00 | 01:26:01 | 00:00:00 | |
| PG1ADW-2 | 2026-08-31 11:43:07 | 49.77280 | 13.04575 | 33° | 57km/h | 15642m | 4.0m/s | -52.7°C | 4.7% | 115.7hPa | 2.7V | 00:00:00 | 01:26:00 | 00:00:00 | |
| DF2AP-13 | 2026-08-31 11:43:05 | 49.77255 | 13.04551 | 31° | 55km/h | 15633m | 5.6m/s | -52.6°C | 4.7% | 115.8hPa | 2.7V | 00:00:00 | 01:25:58 | 00:00:00 | |
| DK5PH-5 | 2026-08-31 11:43:02 | 49.77217 | 13.04516 | 34° | 57km/h | 15621m | 5.0m/s | -52.6°C | 4.6% | 116.1hPa | 2.8V | 00:00:00 | 01:25:55 | 00:00:00 | |
| DM0DOS-11 | 2026-08-31 11:42:59 | 49.77149 | 13.04434 | 38° | 55km/h | 15593m | 5.5m/s | -52.3°C | 4.6% | 116.6hPa | 2.8V | 04:24:28 | 01:25:49 | 00:00:00 | |
| DF8AY | 2026-08-31 11:42:59 | 49.77061 | 13.04367 | 24° | 60km/h | 15560m | 5.1m/s | -52.2°C | 1.1% | 117.2hPa | 2.8V | 04:25:17 | 01:25:42 | 00:00:00 | |
| DL6DJ-15 | 2026-08-31 11:42:56 | 49.77139 | 13.04421 | 35° | 51km/h | 15588m | 4.0m/s | -52.3°C | 1.7% | 116.7hPa | 2.8V | 00:00:00 | 00:00:00 | 00:00:00 | |
| EDDB2-12 | 2026-08-31 11:42:51 | 49.77089 | 13.04384 | 19° | 58km/h | 15570m | 4.2m/s | -52.2°C | 1.6% | 117.0hPa | 2.8V | 00:00:00 | 00:00:00 | 00:00:00 | |
| DL1JEZ-13 | 2026-08-31 11:42:50 | 49.77089 | 13.04384 | 21° | 60km/h | 15570m | 4.2m/s | -52.2°C | 1.7% | 117.0hPa | 2.8V | 00:00:00 | 00:00:00 | 00:00:00 | |
| DO3MHA-11 | 2026-08-31 11:42:49 | 49.77060 | 13.04367 | 24° | 55km/h | 15560m | 5.1m/s | -52.1°C | 4.5% | 117.1hPa | 2.8V | 00:00:00 | 01:25:42 | 00:00:00 | |
| OE5MMP-10 | 2026-08-31 11:42:48 | 49.77047 | 13.04356 | 29° | 51km/h | 15556m | 3.3m/s | -52.1°C | 4.5% | 117.2hPa | 2.8V | 00:00:00 | 01:25:41 | 00:00:00 | |
| DM0DOS-11 | 2026-08-31 11:42:46 | 49.77007 | 13.04318 | 33° | 58km/h | 15542m | 6m/s | -52.2°C | 4.6% | 117.5hPa | 2.8V | 04:24:39 | 01:25:38 | 00:00:00 | |
| DF8AY | 2026-08-31 11:42:39 | 49.76941 | 13.04263 | 21° | 44km/h | 15508m | 5m/s | -51.9°C | 1.1% | 118.1hPa | 2.8V | 04:25:17 | 01:25:32 | 00:00:00 | |
| DM0DOS-11 | 2026-08-31 11:42:39 | 49.76892 | 13.04230 | 27° | 60km/h | 15489m | 5.8m/s | -51.8°C | 4.4% | 118.4hPa | 2.7V | 04:24:49 | 01:25:28 | 00:00:00 | |
| DF8AY | 2026-08-31 11:42:29 | 49.76825 | 13.04143 | 44° | 55km/h | 15453m | 7m/s | -51.7°C | 1.1% | 119.1hPa | 2.7V | 04:25:17 | 01:25:22 | 00:00:00 | |
| DO3MHA-11 | 2026-08-31 11:42:29 | 49.76825 | 13.04143 | 44° | 51km/h | 15453m | 6.9m/s | -51.7°C | 4.4% | 119.1hPa | 2.8V | 00:00:00 | 01:25:22 | 00:00:00 | |
| DM0DOS-11 | 2026-08-31 11:42:26 | 49.76781 | 13.04099 | 27° | 51km/h | 15430m | 5.4m/s | -51.5°C | 4.2% | 119.5hPa | 2.8V | 04:24:59 | 01:25:18 | 00:00:00 | |
| DL6DJ-15 | 2026-08-31 11:42:25 | 49.76770 | 13.04090 | 30° | 51km/h | 15424m | 6.5m/s | -51.5°C | 1.5% | 119.6hPa | 2.7V | 00:00:00 | 00:00:00 | 00:00:00 | |
| DF7PN | 2026-08-31 11:42:24 | 49.76759 | 13.04079 | 34° | 53km/h | 15418m | 5.5m/s | -51.5°C | 1.6% | 119.7hPa | 2.7V | 00:00:00 | 00:00:00 | 00:00:00 | |
| OE5DXL-15 | 2026-08-31 11:42:23 | 49.76759 | 13.04079 | 35° | 46km/h | 15419m | 5.4m/s | -51.4°C | 4.3% | 119.7hPa | 2.7V | 04:25:00 | 00:00:00 | 00:00:00 | |
| SONDE2-11 | 2026-08-31 11:42:20 | 49.76729 | 13.04039 | 46° | 49km/h | 15405m | 3.6m/s | -51.3°C | 1.6% | 120.0hPa | 2.8V | 00:00:00 | 00:00:00 | 00:00:00 | |
| DM0DOS-11 | 2026-08-31 11:42:19 | 49.76689 | 13.03971 | 48° | 44km/h | 15380m | 4.2m/s | -51°C | 4.3% | 120.5hPa | 2.8V | 04:25:09 | 01:25:08 | 00:00:00 | |
| DF8AY | 2026-08-31 11:42:18 | 49.76712 | 13.04010 | 48° | 47km/h | 15395m | 5.3m/s | -51.2°C | 1.1% | 120.2hPa | 2.7V | 04:25:17 | 01:25:11 | 00:00:00 | |
| DF8AY | 2026-08-31 11:42:08 | 49.76633 | 13.03886 | 44° | 44km/h | 15351m | 4.8m/s | -51°C | 1% | 121hPa | 2.8V | 04:25:17 | 01:25:01 | 00:00:00 | |
| PG1ADW-2 | 2026-08-31 11:42:07 | 49.76625 | 13.03874 | 47° | 42km/h | 15347m | 3.9m/s | -50.8°C | 4.2% | 121.1hPa | 2.7V | 00:00:00 | 00:00:00 | 00:00:00 | |
| DM0DOS-11 | 2026-08-31 11:42:05 | 49.76604 | 13.03836 | 50° | 40km/h | 15334m | 4.1m/s | -50.9°C | 4.2% | 121.3hPa | 2.7V | 04:25:20 | 01:24:57 | 00:00:00 | |
| DF2AP-13 | 2026-08-31 11:42:05 | 49.76610 | 13.03849 | 49° | 42km/h | 15338m | 5.1m/s | -50.8°C | 4.1% | 121.2hPa | 2.7V | 04:25:00 | 01:24:58 | 00:00:00 | |
| OE5MMP-10 | 2026-08-31 11:42:03 | 49.76597 | 13.03824 | 55° | 42km/h | 15330m | 3.4m/s | -50.8°C | 4.2% | 121.4hPa | 2.7V | 00:00:00 | 01:24:56 | 00:00:00 | |
| NBG1-10 | 2026-08-31 11:42:02 | 49.76592 | 13.03811 | 59° | 44km/h | 15326m | 5.1m/s | -50.7°C | 4.2% | 121.4hPa | 2.7V | 00:00:00 | 01:24:55 | 00:00:00 | |
| DB0NH | 2026-08-31 11:42:01 | 49.76587 | 13.03798 | 61° | 44km/h | 15322m | 3.7m/s | -50.6°C | 4.2% | 121.5hPa | 2.7V | 00:00:00 | 01:24:54 | 00:00:00 | |
| DM0DOS-11 | 2026-08-31 11:41:59 | 49.76540 | 13.03704 | 50° | 46km/h | 15293m | 3.3m/s | -50.7°C | 4.1% | 122.1hPa | 2.7V | 04:25:30 | 01:24:47 | 00:00:00 | |
| DF8AY | 2026-08-31 11:41:57 | 49.76562 | 13.03745 | 49° | 46km/h | 15306m | 4m/s | -50.7°C | 1% | 121.9hPa | 2.8V | 04:26:59 | 01:24:50 | 00:00:00 | |
| DF8AY | 2026-08-31 11:41:46 | 49.76488 | 13.03598 | 59° | 44km/h | 15261m | 4.4m/s | -50.7°C | 1.1% | 122.7hPa | 2.7V | 04:26:59 | 01:24:39 | 00:00:00 | |
| DM0DOS-11 | 2026-08-31 11:41:45 | 49.76471 | 13.03555 | 59° | 42km/h | 15248m | 5m/s | -50.7°C | 4.2% | 123hPa | 2.8V | 04:25:41 | 01:24:36 | 00:00:00 | |
| DF8AY | 2026-08-31 11:41:36 | 49.76421 | 13.03424 | 63° | 44km/h | 15211m | 4.1m/s | -50.8°C | 1.1% | 123.7hPa | 2.7V | 04:26:59 | 01:24:27 | 00:00:00 | |
| DB0UT-9 | 2026-08-31 11:41:35 | 49.76431 | 13.03454 | 63° | 44km/h | 15219m | 3.6m/s | -50.7°C | 1.6% | 123.5hPa | 2.8V | 00:00:00 | 00:00:00 | 00:00:00 | |
| DM0DOS-11 | 2026-08-31 11:41:33 | 49.76416 | 13.03408 | 65° | 44km/h | 15207m | 3.4m/s | -50.7°C | 4.1% | 123.7hPa | 2.8V | 04:25:51 | 01:24:26 | 00:00:00 | |
| OE5MMP-10 | 2026-08-31 11:41:33 | 49.76416 | 13.03408 | 66° | 47km/h | 15208m | 3.4m/s | -50.6°C | 4.1% | 123.7hPa | 2.8V | 04:25:00 | 01:24:26 | 00:00:00 | |
| DK5PH-5 | 2026-08-31 11:41:32 | 49.76412 | 13.03392 | 68° | 53km/h | 15203m | 5.3m/s | -50.6°C | 4.1% | 123.7hPa | 2.8V | 00:00:00 | 01:24:25 | 00:00:00 | |
| DB0NH | 2026-08-31 11:41:31 | 49.76407 | 13.03375 | 69° | 53km/h | 15199m | 4.1m/s | -50.7°C | 4.1% | 123.8hPa | 2.8V | 00:00:00 | 01:24:24 | 00:00:00 | |
| NBG1-10 | 2026-08-31 11:41:29 | 49.76398 | 13.03340 | 68° | 55km/h | 15190m | 5.2m/s | -50.7°C | 4.2% | 124.0hPa | 2.8V | 00:00:00 | 01:24:22 | 00:00:00 | |
| PG1ADW-2 | 2026-08-31 11:41:27 | 49.76388 | 13.03305 | 67° | 51km/h | 15182m | 2.3m/s | -50.8°C | 4.2% | 124.2hPa | 2.8V | 00:00:00 | 00:00:00 | 00:00:00 | |
| DM0DOS-11 | 2026-08-31 11:41:25 | 49.76365 | 13.03197 | 71° | 47km/h | 15158m | 3.8m/s | -51.2°C | 4.2% | 124.7hPa | 2.8V | 04:26:03 | 01:24:14 | 00:00:00 | |
| DF8AY | 2026-08-31 11:41:24 | 49.76376 | 13.03253 | 73° | 49km/h | 15171m | 4.5m/s | -50.9°C | 1.2% | 124.4hPa | 2.7V | 04:26:59 | 01:24:17 | 00:00:00 | |
| DF8AY | 2026-08-31 11:41:14 | 49.76339 | 13.03031 | 82° | 57km/h | 15124m | 3.7m/s | -52°C | 1.4% | 125.4hPa | 2.7V | 04:26:59 | 01:24:05 | 00:00:00 | |
| DF8AY | 2026-08-31 11:41:03 | 49.76304 | 13.02823 | 74° | 60km/h | 15089m | 4.6m/s | -52.1°C | 1.5% | 126hPa | 2.8V | 04:26:59 | 01:23:56 | 00:00:00 | |
| DM0DOS-11 | 2026-08-31 11:41:03 | 49.76275 | 13.02683 | 68° | 62km/h | 15067m | 4.7m/s | -52.1°C | 4.7% | 126.4hPa | 2.8V | 04:26:27 | 01:23:50 | 00:00:00 | |
| DF8AY | 2026-08-31 11:40:52 | 49.76244 | 13.02574 | 68° | 62km/h | 15048m | 3.5m/s | -52.1°C | 1.6% | 126.8hPa | 2.7V | 04:26:59 | 01:23:45 | 00:00:00 | |
| DL6DJ-15 | 2026-08-31 11:40:52 | 49.76237 | 13.02552 | 66° | 62km/h | 15044m | 4.2m/s | -52.1°C | 1.9% | 126.9hPa | 2.8V | 00:00:00 | 00:00:00 | 00:00:00 | |
| DM0DOS-11 | 2026-08-31 11:40:50 | 49.76199 | 13.02413 | 64° | 68km/h | 15023m | 3.4m/s | -52°C | 4.5% | 127.3hPa | 2.8V | 04:26:39 | 01:23:38 | 00:00:00 | |
| SONDE2-11 | 2026-08-31 11:40:47 | 49.76212 | 13.02461 | 67° | 66km/h | 15029m | 3.9m/s | -52.0°C | 1.9% | 127.2hPa | 2.8V | 00:00:00 | 00:00:00 | 00:00:00 | |
| DF8AY | 2026-08-31 11:40:41 | 49.76141 | 13.02232 | 64° | 66km/h | 14992m | 4.2m/s | -52°C | 1.6% | 127.9hPa | 2.8V | 04:26:59 | 01:23:30 | 00:00:00 | |
| DF8AY | 2026-08-31 11:40:31 | 49.76095 | 13.02094 | 63° | 66km/h | 14970m | 3.6m/s | -53°C | 1.9% | 128.3hPa | 2.8V | 04:26:59 | 01:23:24 | 00:00:00 | |
| DF8AY | 2026-08-31 11:40:26 | 49.76015 | 13.01877 | 58° | 68km/h | 14934m | 4.7m/s | 0°C | 0% | 129hPa | 2.8V | 04:27:50 | 01:23:14 | 00:00:00 | |
| DF8AY | 2026-08-31 11:40:10 | 49.75918 | 13.01600 | 65° | 73km/h | 14894m | 4.1m/s | 0°C | 0% | 0hPa | 2.7V | 04:27:50 | 01:23:03 | 00:00:00 | |
| DM0DOS-11 | 2026-08-31 11:40:09 | 49.75877 | 13.01478 | 60° | 69km/h | 14877m | 3.8m/s | -53.7°C | 5.1% | 130.2hPa | 2.7V | 04:27:19 | 01:22:58 | 00:00:00 | |
| DF8AY | 2026-08-31 11:40:00 | 49.75831 | 13.01353 | 59° | 75km/h | 14861m | 2.8m/s | 0°C | 0% | 0hPa | 2.7V | 04:27:50 | 01:22:53 | 00:00:00 | |
| DO3MHA-11 | 2026-08-31 11:39:59 | 49.75821 | 13.01328 | 60° | 75km/h | 14858m | 2.9m/s | -53.7°C | 5.0% | 130.6hPa | 2.7V | 00:00:00 | 01:22:52 | 00:00:00 | |
| DB0UT-7 | 2026-08-31 11:39:57 | 49.75804 | 13.01277 | 64° | 75km/h | 14851m | 3.4m/s | -53.8°C | 5.1% | 130.7hPa | 2.7V | 00:00:00 | 01:22:50 | 00:00:00 | |
| DM0DOS-11 | 2026-08-31 11:39:55 | 49.75741 | 13.01102 | 59° | 78km/h | 14828m | 3.8m/s | -54.2°C | 5.1% | 131.2hPa | 2.8V | 04:27:34 | 01:22:43 | 00:00:00 | |
| DF8AY | 2026-08-31 11:39:50 | 49.75731 | 13.01075 | 61° | 78km/h | 14825m | 2.9m/s | 0°C | 0% | 0hPa | 2.8V | 04:27:50 | 01:22:42 | 00:00:00 | |
| DL6DJ-15 | 2026-08-31 11:39:49 | 49.75731 | 13.01075 | 60° | 78km/h | 14825m | 2.9m/s | -54.3°C | 2.1% | 131.3hPa | 2.8V | 00:00:00 | 00:00:00 | 00:00:00 | |
| SONDE2-11 | 2026-08-31 11:39:45 | 49.75694 | 13.00972 | 61° | 73km/h | 14811m | 3.5m/s | -54.3°C | 2.0% | 131.6hPa | 2.8V | 00:00:00 | 00:00:00 | 00:00:00 | |
| DM0DOS-11 | 2026-08-31 11:39:44 | 49.75631 | 13.00794 | 59° | 80km/h | 14787m | 3.6m/s | -54.5°C | 5.3% | 132.1hPa | 2.8V | 04:27:46 | 01:22:31 | 00:00:00 | |
| DF8AY | 2026-08-31 11:39:37 | 49.75621 | 13.00767 | 61° | 82km/h | 14783m | 3.6m/s | 0°C | 0% | 0hPa | 2.8V | 04:27:50 | 01:22:30 | 00:00:00 | |
| DL9SK-14 | 2026-08-31 11:39:34 | 49.75590 | 13.00680 | 59° | 84km/h | 14773m | 3.6m/s | -54.5°C | 2.1% | 132.4hPa | 2.7V | 00:00:00 | 00:00:00 | 00:00:00 | |
| OE5MMP-10 | 2026-08-31 11:39:33 | 49.75578 | 13.00652 | 58° | 78km/h | 14770m | 3.7m/s | -54.4°C | 5.3% | 132.4hPa | 2.7V | 00:00:00 | 01:22:26 | 00:00:00 | |
| DK5PH-5 | 2026-08-31 11:39:32 | 49.75567 | 13.00625 | 57° | 75km/h | 14766m | 3.4m/s | -54.4°C | 5.3% | 132.5hPa | 2.7V | 00:00:00 | 01:22:25 | 00:00:00 | |
| DB0NH | 2026-08-31 11:39:31 | 49.75556 | 13.00598 | 57° | 75km/h | 14762m | 4.4m/s | -54.4°C | 5.4% | 132.5hPa | 2.7V | 00:00:00 | 01:22:24 | 00:00:00 | |
| DM0DOS-11 | 2026-08-31 11:39:29 | 49.75525 | 13.00523 | 57° | 75km/h | 14750m | 4.9m/s | -54.2°C | 5.3% | 132.8hPa | 2.7V | 04:27:56 | 01:22:21 | 00:00:00 | |
| DF8AY | 2026-08-31 11:39:26 | 49.75505 | 13.00471 | 61° | 77km/h | 14743m | 3.1m/s | 0°C | 0% | 0hPa | 2.8V | 18:12:15 | 01:22:19 | 00:00:00 | |
| OE5MMP-10 | 2026-08-31 11:39:23 | 49.75478 | 13.00388 | 64° | 78km/h | 14732m | 4.2m/s | -54.3°C | 5.1% | 133.2hPa | 2.7V | 00:00:00 | 01:22:16 | 00:00:00 | |
| ANDY1245 | 2026-08-31 11:39:21 | 49.75468 | 13.00358 | 63° | 86km/h | 14728m | 3.9m/s | -54.3°C | 2.1% | 133.3hPa | 2.7V | 04:28:00 | 00:00:00 | 00:00:00 | |
| DM0DOS-11 | 2026-08-31 11:39:17 | 49.75416 | 13.00220 | 58° | 73km/h | 14710m | 4m/s | -54.3°C | 5.3% | 133.7hPa | 2.7V | 04:28:07 | 01:22:10 | 00:00:00 | |
| DF8AY | 2026-08-31 11:39:16 | 49.75406 | 13.00196 | 57° | 71km/h | 14706m | 4m/s | 0°C | 0% | 0hPa | 2.7V | 18:12:15 | 01:22:09 | 00:00:00 | |
| SONDE2-11 | 2026-08-31 11:39:14 | 49.75387 | 13.00150 | 55° | 69km/h | 14698m | 2.7m/s | -54.2°C | 2.2% | 133.9hPa | 2.8V | 00:00:00 | 00:00:00 | 00:00:00 | |
| OE5MMP-10 | 2026-08-31 11:39:13 | 49.75377 | 13.00127 | 58° | 69km/h | 14695m | 3.6m/s | -54.2°C | 5.3% | 133.9hPa | 2.8V | 00:00:00 | 01:22:06 | 00:00:00 | |
| DM0DOS-11 | 2026-08-31 11:39:12 | 49.75329 | 12.99986 | 61° | 69km/h | 14672m | 3.4m/s | -54.1°C | 5.1% | 134.4hPa | 2.8V | 04:28:17 | 01:22:00 | 00:00:00 | |
| DF8AY | 2026-08-31 11:39:06 | 49.75312 | 12.99938 | 63° | 69km/h | 14665m | 4.4m/s | 0°C | 0% | 0hPa | 2.7V | 18:12:15 | 01:21:58 | 00:00:00 | |
| OE5MMP-10 | 2026-08-31 11:39:03 | 49.75296 | 12.99889 | 64° | 75km/h | 14657m | 3.9m/s | -54.0°C | 5.1% | 134.7hPa | 2.8V | 04:28:00 | 01:21:56 | 00:00:00 | |
| EDDB2-11 | 2026-08-31 11:39:01 | 49.75271 | 12.99816 | 62° | 73km/h | 14644m | 3.7m/s | -54.0°C | 2.1% | 135.1hPa | 2.8V | 00:00:00 | 00:00:00 | 00:00:00 | |
| DM0DOS-11 | 2026-08-31 11:38:59 | 49.75245 | 12.99736 | 63° | 77km/h | 14632m | 4.6m/s | -54°C | 5.2% | 135.3hPa | 2.8V | 04:28:27 | 01:21:50 | 00:00:00 | |
| DF8AY | 2026-08-31 11:38:54 | 49.75218 | 12.99656 | 62° | 78km/h | 14620m | 4.4m/s | 0°C | 0% | 0hPa | 2.7V | 18:12:15 | 01:21:47 | 00:00:00 | |
| DM0DOS-11 | 2026-08-31 11:38:53 | 49.75155 | 12.99469 | 62° | 78km/h | 14589m | 3.3m/s | -54.5°C | 5.2% | 136.2hPa | 2.7V | 04:28:37 | 01:21:40 | 00:00:00 | |
| DL6DJ-15 | 2026-08-31 11:38:47 | 49.75155 | 12.99469 | 62° | 77km/h | 14589m | 3.3m/s | -54.5°C | 2.1% | 136.2hPa | 2.8V | 00:00:00 | 00:00:00 | 00:00:00 | |
| ANDY1245 | 2026-08-31 11:38:43 | 49.75118 | 12.99361 | 63° | 78km/h | 14572m | 3.7m/s | -54.8°C | 2.2% | 136.6hPa | 2.8V | 04:28:00 | 00:00:00 | 00:00:00 | |
| DM0DOS-11 | 2026-08-31 11:38:40 | 49.75057 | 12.99192 | 57° | 88km/h | 14547m | 3.9m/s | -55.1°C | 5.6% | 137.1hPa | 2.8V | 04:28:47 | 01:21:30 | 00:00:00 | |
| DO3MHA-11 | 2026-08-31 11:38:39 | 49.75080 | 12.99249 | 61° | 88km/h | 14555m | 4.8m/s | -55.0°C | 5.5% | 136.9hPa | 2.7V | 00:00:00 | 01:21:32 | 00:00:00 | |
| ANDY1245 | 2026-08-31 11:38:36 | 49.75057 | 12.99192 | 58° | 88km/h | 14547m | 3.9m/s | -55.1°C | 2.3% | 137.1hPa | 2.7V | 00:00:00 | 00:00:00 | 00:00:00 | |
| DF2AP-13 | 2026-08-31 11:38:34 | 49.75008 | 12.99073 | 57° | 88km/h | 14529m | 4.8m/s | -55.0°C | 5.6% | 137.5hPa | 2.7V | 00:00:00 | 01:21:26 | 00:00:00 | |
| OE5MMP-10 | 2026-08-31 11:38:33 | 49.75008 | 12.99073 | 57° | 89km/h | 14529m | 4.8m/s | -55.0°C | 5.6% | 137.5hPa | 2.8V | 00:00:00 | 01:21:26 | 00:00:00 | |
| DK5PH-5 | 2026-08-31 11:38:32 | 49.74995 | 12.99045 | 57° | 86km/h | 14525m | 3.2m/s | -55.0°C | 5.7% | 137.5hPa | 2.8V | 04:28:00 | 01:21:25 | 00:00:00 | |
| DB0NH | 2026-08-31 11:38:31 | 49.74983 | 12.99016 | 58° | 88km/h | 14522m | 4.1m/s | -55.0°C | 5.7% | 137.6hPa | 2.8V | 00:00:00 | 01:21:24 | 00:00:00 | |
| OE5DRO-10 | 2026-08-31 11:38:30 | 49.74971 | 12.98986 | 59° | 88km/h | 14517m | 4.9m/s | -54.9°C | 5.7% | 137.7hPa | 2.8V | 00:00:00 | 00:00:00 | 00:00:00 | |
| DM0DOS-11 | 2026-08-31 11:38:28 | 49.74936 | 12.98897 | 58° | 89km/h | 14503m | 4.2m/s | -54.9°C | 5.5% | 138.1hPa | 2.8V | 04:28:57 | 01:21:20 | 00:00:00 | |
| OE5MMP-10 | 2026-08-31 11:38:23 | 49.74890 | 12.98777 | 59° | 88km/h | 14487m | 3.7m/s | -54.7°C | 5.5% | 138.3hPa | 2.7V | 00:00:00 | 01:21:16 | 00:00:00 | |
| DM0DOS-11 | 2026-08-31 11:38:22 | 49.74820 | 12.98607 | 60° | 88km/h | 14462m | 4m/s | -54.6°C | 5.5% | 139hPa | 2.8V | 04:29:07 | 01:21:10 | 00:00:00 | |
| DO8TBO-1 | 2026-08-31 11:38:21 | 49.74866 | 12.98720 | 56° | 86km/h | 14479m | 4.2m/s | -54.6°C | 5.5% | 138.5hPa | 2.8V | 00:00:00 | 01:21:14 | 00:00:00 | |
| DO3MHA-11 | 2026-08-31 11:38:19 | 49.74842 | 12.98664 | 58° | 86km/h | 14471m | 4.5m/s | -54.6°C | 5.5% | 138.7hPa | 2.8V | 00:00:00 | 01:21:12 | 00:00:00 | |
| DL6DJ-15 | 2026-08-31 11:38:17 | 49.74809 | 12.98577 | 60° | 88km/h | 14458m | 3.7m/s | -54.6°C | 2.3% | 139.1hPa | 2.8V | 00:00:00 | 00:00:00 | 00:00:00 | |
| DB0UT-7 | 2026-08-31 11:38:14 | 49.74787 | 12.98518 | 60° | 91km/h | 14449m | 4.4m/s | -54.5°C | 5.4% | 139.2hPa | 2.8V | 04:29:00 | 01:21:07 | 00:00:00 | |
| OE5MMP-10 | 2026-08-31 11:38:13 | 49.74776 | 12.98488 | 61° | 86km/h | 14444m | 4.5m/s | -54.5°C | 5.4% | 139.3hPa | 2.8V | 04:29:00 | 01:21:06 | 00:00:00 | |
| SONDE2-11 | 2026-08-31 11:38:12 | 49.74755 | 12.98430 | 60° | 84km/h | 14435m | 4.2m/s | -54.5°C | 2.3% | 139.6hPa | 2.8V | 00:00:00 | 00:00:00 | 00:00:00 | |
| NBG1-10 | 2026-08-31 11:38:11 | 49.74755 | 12.98430 | 61° | 86km/h | 14435m | 4.2m/s | -54.4°C | 5.5% | 139.5hPa | 2.8V | 00:00:00 | 01:21:04 | 00:00:00 | |
| DM0DOS-11 | 2026-08-31 11:38:10 | 49.74690 | 12.98258 | 62° | 84km/h | 14408m | 4.6m/s | -54.5°C | 5.5% | 140.1hPa | 2.8V | 04:29:19 | 01:20:58 | 00:00:00 | |
| DO3MHA-11 | 2026-08-31 11:38:09 | 49.74733 | 12.98373 | 59° | 84km/h | 14425m | 4.7m/s | -54.5°C | 5.5% | 139.7hPa | 2.7V | 00:00:00 | 01:21:02 | 00:00:00 | |
| ANDY1245 | 2026-08-31 11:38:06 | 49.74711 | 12.98316 | 60° | 84km/h | 14418m | 4.4m/s | -54.5°C | 2.3% | 139.9hPa | 2.7V | 00:00:00 | 00:00:00 | 00:00:00 | |
| OE5MMP-10 | 2026-08-31 11:38:03 | 49.74670 | 12.98200 | 62° | 84km/h | 14399m | 5.1m/s | -54.4°C | 5.5% | 140.3hPa | 2.7V | 00:00:00 | 01:20:56 | 00:00:00 | |
| DK5PH-5 | 2026-08-31 11:38:02 | 49.74660 | 12.98170 | 63° | 88km/h | 14395m | 4.1m/s | -54.4°C | 5.5% | 140.4hPa | 2.7V | 00:00:00 | 01:20:55 | 00:00:00 | |
| DF2AP-13 | 2026-08-31 11:38:01 | 49.74650 | 12.98141 | 63° | 88km/h | 14390m | 4.5m/s | -54.3°C | 5.4% | 140.5hPa | 2.7V | 00:00:00 | 01:20:54 | 00:00:00 | |
| ANDY1245 | 2026-08-31 11:38:00 | 49.74650 | 12.98141 | 64° | 86km/h | 14390m | 4.6m/s | -54.4°C | 2.3% | 140.5hPa | 2.7V | 00:00:00 | 00:00:00 | 00:00:00 | |
| DO3MHA-11 | 2026-08-31 11:37:59 | 49.74631 | 12.98082 | 64° | 88km/h | 14381m | 3.8m/s | -54.3°C | 5.5% | 140.7hPa | 2.7V | 00:00:00 | 01:20:52 | 00:00:00 | |
| DM0DOS-11 | 2026-08-31 11:37:58 | 49.74591 | 12.97966 | 62° | 86km/h | 14365m | 4.8m/s | -54.2°C | 5.4% | 141.1hPa | 2.7V | 04:29:29 | 01:20:48 | 00:00:00 | |
| OE5MMP-10 | 2026-08-31 11:37:53 | 49.74572 | 12.97905 | 65° | 86km/h | 14356m | 3.7m/s | -54.2°C | 5.4% | 141.3hPa | 2.7V | 00:00:00 | 01:20:46 | 00:00:00 | |
| OE5DRO-10 | 2026-08-31 11:37:52 | 49.74562 | 12.97874 | 65° | 89km/h | 14352m | 4.7m/s | -54.1°C | 5.4% | 141.3hPa | 2.7V | 00:00:00 | 00:00:00 | 00:00:00 | |
| DO8TBO-1 | 2026-08-31 11:37:51 | 49.74552 | 12.97842 | 64° | 89km/h | 14348m | 4.0m/s | -54.1°C | 5.4% | 141.4hPa | 2.7V | 04:29:00 | 01:20:44 | 00:00:00 | |
| DO3MHA-11 | 2026-08-31 11:37:49 | 49.74532 | 12.97780 | 65° | 88km/h | 14339m | 5.1m/s | -54.1°C | 5.3% | 141.6hPa | 2.7V | 00:00:00 | 01:20:42 | 00:00:00 | |
| ANDY1245 | 2026-08-31 11:37:48 | 49.74532 | 12.97780 | 65° | 88km/h | 14339m | 5.2m/s | -54.2°C | 2.3% | 141.6hPa | 2.7V | 00:00:00 | 00:00:00 | 00:00:00 | |
| DM0DOS-11 | 2026-08-31 11:37:45 | 49.74484 | 12.97633 | 63° | 86km/h | 14317m | 3.5m/s | -54.3°C | 5.5% | 142.1hPa | 2.7V | 04:29:40 | 01:20:37 | 00:00:00 | |
| OE5MMP-10 | 2026-08-31 11:37:43 | 49.74475 | 12.97603 | 66° | 91km/h | 14313m | 5.1m/s | -54.3°C | 5.4% | 142.2hPa | 2.7V | 00:00:00 | 01:20:36 | 00:00:00 | |
| SONDE2-11 | 2026-08-31 11:37:41 | 49.74449 | 12.97503 | 68° | 95km/h | 14300m | 4.8m/s | -54.3°C | 2.3% | 142.5hPa | 2.7V | 00:00:00 | 00:00:00 | 00:00:00 | |
| DO3MHA-11 | 2026-08-31 11:37:39 | 49.74441 | 12.97468 | 69° | 89km/h | 14296m | 3.9m/s | -54.2°C | 5.5% | 142.5hPa | 2.7V | 04:29:00 | 01:20:32 | 00:00:00 | |
| NBG1-10 | 2026-08-31 11:37:38 | 49.74432 | 12.97434 | 69° | 89km/h | 14291m | 3.9m/s | -54.1°C | 5.4% | 142.7hPa | 2.8V | 00:00:00 | 01:20:31 | 00:00:00 | |
| DM0DOS-11 | 2026-08-31 11:37:35 | 49.74398 | 12.97305 | 66° | 86km/h | 14274m | 4.5m/s | -54.1°C | 5.4% | 143.1hPa | 2.8V | 04:29:50 | 01:20:27 | 00:00:00 | |
| OE5MMP-10 | 2026-08-31 11:37:33 | 49.74389 | 12.97273 | 66° | 89km/h | 14270m | 4.9m/s | -54.2°C | 5.5% | 143.1hPa | 2.7V | 00:00:00 | 01:20:26 | 00:00:00 | |
| DK5PH-5 | 2026-08-31 11:37:32 | 49.74380 | 12.97243 | 65° | 91km/h | 14265m | 3.7m/s | -54.1°C | 5.5% | 143.2hPa | 2.7V | 00:00:00 | 01:20:25 | 00:00:00 | |
| DL9SK-14 | 2026-08-31 11:37:31 | 49.74351 | 12.97150 | 64° | 88km/h | 14252m | 3.8m/s | -54.1°C | 2.4% | 143.6hPa | 2.7V | 00:00:00 | 00:00:00 | 00:00:00 | |
| DM0DOS-11 | 2026-08-31 11:37:29 | 49.74302 | 12.96991 | 66° | 88km/h | 14230m | 3.9m/s | -54.1°C | 5.6% | 144.1hPa | 2.7V | 04:30:00 | 01:20:17 | 00:00:00 | |
| DO3MHA-11 | 2026-08-31 11:37:29 | 49.74351 | 12.97150 | 65° | 89km/h | 14252m | 3.7m/s | -54.1°C | 5.5% | 143.5hPa | 2.7V | 00:00:00 | 01:20:22 | 00:00:00 | |
| SONCRA | 2026-08-31 11:37:28 | 49.74331 | 12.97086 | 63° | 91km/h | 14243m | 3.8m/s | -54.1°C | 2.4% | 143.8hPa | 2.7V | 00:00:00 | 00:00:00 | 00:00:00 | |
| EDDB2-11 | 2026-08-31 11:37:27 | 49.74331 | 12.97086 | 63° | 91km/h | 14243m | 3.8m/s | -54.1°C | 2.4% | 143.8hPa | 2.7V | 00:00:00 | 00:00:00 | 00:00:00 | |
| S52SK | 2026-08-31 11:37:25 | 49.74311 | 12.97022 | 66° | 89km/h | 14234m | 5.1m/s | 0°C | 0% | 0hPa | 2.7V | 00:00:00 | 00:00:00 | 00:00:00 | |
| OE5MMP-10 | 2026-08-31 11:37:23 | 49.74293 | 12.96960 | 67° | 89km/h | 14226m | 3.8m/s | -54.0°C | 5.5% | 144.1hPa | 2.7V | 04:30:00 | 01:20:16 | 00:00:00 | |
| DO8TBO-1 | 2026-08-31 11:37:21 | 49.74275 | 12.96897 | 65° | 95km/h | 14217m | 3.9m/s | -54.0°C | 5.5% | 144.3hPa | 2.7V | 00:00:00 | 01:20:14 | 00:00:00 | |
| DM0DOS-11 | 2026-08-31 11:37:19 | 49.74206 | 12.96674 | 65° | 91km/h | 14188m | 5m/s | -53.9°C | 5.4% | 145hPa | 2.7V | 04:30:10 | 01:20:07 | 00:00:00 | |
| DO3MHA-11 | 2026-08-31 11:37:19 | 49.74255 | 12.96835 | 65° | 91km/h | 14209m | 4.8m/s | -53.9°C | 5.5% | 144.5hPa | 2.8V | 00:00:00 | 01:20:12 | 00:00:00 | |
| ANDY1245 | 2026-08-31 11:37:16 | 49.74236 | 12.96771 | 66° | 91km/h | 14200m | 4.7m/s | -53.9°C | 2.4% | 144.7hPa | 2.8V | 00:00:00 | 00:00:00 | 00:00:00 | |
| OE5DRO-10 | 2026-08-31 11:37:14 | 49.74206 | 12.96674 | 66° | 95km/h | 14188m | 5.0m/s | -53.8°C | 5.4% | 145.0hPa | 2.8V | 04:30:00 | 00:00:00 | 00:00:00 | |
| OE5MMP-10 | 2026-08-31 11:37:13 | 49.74197 | 12.96642 | 67° | 93km/h | 14183m | 4.1m/s | -53.9°C | 5.4% | 145.1hPa | 2.8V | 00:00:00 | 01:20:06 | 00:00:00 | |
| ANDY1245 | 2026-08-31 11:37:11 | 49.74188 | 12.96610 | 68° | 89km/h | 14179m | 4.0m/s | -53.9°C | 2.4% | 145.2hPa | 2.8V | 00:00:00 | 00:00:00 | 00:00:00 | |
| SONDE2-11 | 2026-08-31 11:37:10 | 49.74161 | 12.96511 | 67° | 93km/h | 14166m | 4.0m/s | -53.9°C | 2.3% | 145.5hPa | 2.8V | 00:00:00 | 00:00:00 | 00:00:00 | |
| DM0DOS-11 | 2026-08-31 11:37:09 | 49.74113 | 12.96341 | 63° | 99km/h | 14145m | 3.8m/s | -53.8°C | 5.4% | 146hPa | 2.8V | 04:30:20 | 01:19:57 | 00:00:00 | |
| NBG1-10 | 2026-08-31 11:37:05 | 49.74123 | 12.96376 | 66° | 99km/h | 14149m | 5.0m/s | -53.8°C | 5.4% | 145.8hPa | 2.7V | 04:30:00 | 01:19:58 | 00:00:00 | |
| OE5MMP-10 | 2026-08-31 11:37:03 | 49.74102 | 12.96306 | 65° | 97km/h | 14141m | 4.0m/s | -53.7°C | 5.4% | 146.0hPa | 2.8V | 00:00:00 | 01:19:56 | 00:00:00 | |
| DL9SK-14 | 2026-08-31 11:36:59 | 49.74053 | 12.96132 | 66° | 97km/h | 14120m | 4.4m/s | -53.8°C | 2.5% | 146.5hPa | 2.8V | 00:00:00 | 00:00:00 | 00:00:00 | |
| EDDB2-11 | 2026-08-31 11:36:57 | 49.74033 | 12.96062 | 67° | 97km/h | 14112m | 3.7m/s | -53.8°C | 2.4% | 146.7hPa | 2.8V | 00:00:00 | 00:00:00 | 00:00:00 | |
| DM0DOS-11 | 2026-08-31 11:36:55 | 49.74014 | 12.95992 | 68° | 95km/h | 14104m | 3.9m/s | -53.8°C | 5.6% | 146.9hPa | 2.8V | 04:30:30 | 01:19:47 | 00:00:00 | |
| OE5DRO-10 | 2026-08-31 11:36:55 | 49.74023 | 12.96027 | 68° | 97km/h | 14108m | 4.7m/s | -53.7°C | 5.6% | 146.8hPa | 2.7V | 00:00:00 | 00:00:00 | 00:00:00 | |
| OE5MMP-10 | 2026-08-31 11:36:53 | 49.74005 | 12.95957 | 68° | 97km/h | 14100m | 4.1m/s | -53.8°C | 5.6% | 146.9hPa | 2.7V | 00:00:00 | 01:19:46 | 00:00:00 | |
| DO8TBO-1 | 2026-08-31 11:36:51 | 49.73986 | 12.95887 | 67° | 99km/h | 14092m | 3.6m/s | -53.8°C | 5.6% | 147.1hPa | 2.7V | 00:00:00 | 01:19:44 | 00:00:00 | |
| DM0DOS-11 | 2026-08-31 11:36:49 | 49.73907 | 12.95614 | 67° | 95km/h | 14059m | 3.8m/s | -53.8°C | 5.7% | 147.9hPa | 2.7V | 04:30:41 | 01:19:36 | 00:00:00 | |
| DO3MHA-11 | 2026-08-31 11:36:49 | 49.73967 | 12.95818 | 67° | 97km/h | 14083m | 4.2m/s | -53.8°C | 5.6% | 147.3hPa | 2.8V | 04:30:00 | 01:19:42 | 00:00:00 | |
| S52SK | 2026-08-31 11:36:46 | 49.73947 | 12.95750 | 66° | 97km/h | 14075m | 4.8m/s | 0°C | 0% | 0hPa | 2.8V | 00:00:00 | 00:00:00 | 00:00:00 | |
| OE5MMP-10 | 2026-08-31 11:36:43 | 49.73906 | 12.95614 | 68° | 100km/h | 14059m | 3.8m/s | -53.8°C | 5.7% | 147.9hPa | 2.8V | 00:00:00 | 01:19:36 | 00:00:00 | |
| S52SK | 2026-08-31 11:36:40 | 49.73888 | 12.95544 | 69° | 99km/h | 14052m | 5.2m/s | 0°C | 0% | 0hPa | 2.8V | 00:00:00 | 00:00:00 | 00:00:00 | |
| SONDE2-11 | 2026-08-31 11:36:39 | 49.73860 | 12.95435 | 69° | 100km/h | 14039m | 4.5m/s | -53.8°C | 2.5% | 148.4hPa | 2.8V | 00:00:00 | 00:00:00 | 00:00:00 | |
| ANDY1245 | 2026-08-31 11:36:37 | 49.73859 | 12.95434 | 70° | 100km/h | 14039m | 4.5m/s | -53.8°C | 2.5% | 148.4hPa | 2.8V | 00:00:00 | 00:00:00 | 00:00:00 | |
| DM0DOS-11 | 2026-08-31 11:36:35 | 49.73822 | 12.95286 | 68° | 102km/h | 14022m | 2.5m/s | -53.7°C | 5.6% | 148.8hPa | 2.8V | 04:30:50 | 01:19:27 | 00:00:00 | |
| OE5MMP-10 | 2026-08-31 11:36:33 | 49.73813 | 12.95249 | 69° | 99km/h | 14019m | 4.3m/s | -53.6°C | 5.6% | 148.8hPa | 2.7V | 04:30:00 | 01:19:26 | 00:00:00 | |
| DK5PH-5 | 2026-08-31 11:36:32 | 49.73804 | 12.95212 | 70° | 99km/h | 14015m | 4.1m/s | -53.6°C | 5.6% | 148.9hPa | 2.7V | 00:00:00 | 01:19:25 | 00:00:00 | |
| DB0NH | 2026-08-31 11:36:30 | 49.73786 | 12.95142 | 69° | 99km/h | 14006m | 4.9m/s | -53.6°C | 5.6% | 149.1hPa | 2.7V | 00:00:00 | 01:19:23 | 00:00:00 | |
| DM0DOS-11 | 2026-08-31 11:36:29 | 49.73712 | 12.94896 | 62° | 104km/h | 13976m | 4.3m/s | -53.6°C | 5.7% | 149.9hPa | 2.8V | 04:31:01 | 01:19:16 | 00:00:00 | |
| DO3MHA-11 | 2026-08-31 11:36:29 | 49.73777 | 12.95106 | 67° | 100km/h | 14002m | 4.3m/s | -53.6°C | 5.7% | 149.2hPa | 2.7V | 00:00:00 | 01:19:22 | 00:00:00 | |
| DL9SK-14 | 2026-08-31 11:36:28 | 49.73756 | 12.95036 | 65° | 99km/h | 13994m | 4.7m/s | -53.7°C | 2.5% | 149.5hPa | 2.7V | 00:00:00 | 00:00:00 | 00:00:00 | |
| SONCRA | 2026-08-31 11:36:27 | 49.73735 | 12.94966 | 64° | 99km/h | 13985m | 3.8m/s | -53.6°C | 2.6% | 149.7hPa | 2.7V | 00:00:00 | 00:00:00 | 00:00:00 | |
| EDDB2-11 | 2026-08-31 11:36:25 | 49.73735 | 12.94966 | 64° | 99km/h | 13985m | 3.8m/s | -53.6°C | 2.6% | 149.7hPa | 2.7V | 00:00:00 | 00:00:00 | 00:00:00 | |
| OE5MMP-10 | 2026-08-31 11:36:23 | 49.73712 | 12.94895 | 63° | 100km/h | 13976m | 4.2m/s | -53.6°C | 5.7% | 149.8hPa | 2.7V | 00:00:00 | 01:19:16 | 00:00:00 | |
| DO8TBO-1 | 2026-08-31 11:36:21 | 49.73688 | 12.94823 | 64° | 99km/h | 13969m | 5.0m/s | -53.6°C | 5.7% | 150.0hPa | 2.7V | 00:00:00 | 01:19:14 | 00:00:00 | |
| DO3MHA-11 | 2026-08-31 11:36:19 | 49.73666 | 12.94753 | 66° | 99km/h | 13961m | 3.0m/s | -53.5°C | 5.6% | 150.2hPa | 2.8V | 00:00:00 | 01:19:12 | 00:00:00 | |
| DL1JEZ-13 | 2026-08-31 11:36:18 | 49.73666 | 12.94753 | 66° | 99km/h | 13961m | 3.0m/s | -53.5°C | 2.6% | 150.2hPa | 2.8V | 00:00:00 | 00:00:00 | 00:00:00 | |
| OE5DRO-10 | 2026-08-31 11:36:17 | 49.73644 | 12.94683 | 64° | 99km/h | 13953m | 4.0m/s | -53.5°C | 5.6% | 150.4hPa | 2.8V | 00:00:00 | 00:00:00 | 00:00:00 | |
| DM0DOS-11 | 2026-08-31 11:36:13 | 49.73601 | 12.94546 | 63° | 99km/h | 13937m | 3.3m/s | -53.5°C | 5.5% | 150.8hPa | 2.8V | 04:31:11 | 01:19:06 | 00:00:00 | |
| OE5MMP-10 | 2026-08-31 11:36:13 | 49.73601 | 12.94545 | 64° | 99km/h | 13937m | 3.3m/s | -53.5°C | 5.5% | 150.8hPa | 2.7V | 00:00:00 | 01:19:06 | 00:00:00 | |
| DL6DJ-15 | 2026-08-31 11:36:12 | 49.73577 | 12.94476 | 61° | 100km/h | 13929m | 3.2m/s | -53.4°C | 2.5% | 151.0hPa | 2.7V | 00:00:00 | 00:00:00 | 00:00:00 | |
| DO3MHA-11 | 2026-08-31 11:36:09 | 49.73553 | 12.94407 | 62° | 97km/h | 13923m | 4.1m/s | -53.4°C | 5.6% | 151.1hPa | 2.7V | 00:00:00 | 01:19:02 | 00:00:00 | |
| SONDE2-11 | 2026-08-31 11:36:08 | 49.73530 | 12.94340 | 63° | 97km/h | 13915m | 3.2m/s | -53.5°C | 2.6% | 151.3hPa | 2.7V | 00:00:00 | 00:00:00 | 00:00:00 | |
| DM0DOS-11 | 2026-08-31 11:36:03 | 49.73475 | 12.94170 | 63° | 97km/h | 13897m | 3.9m/s | -53.5°C | 5.7% | 151.7hPa | 2.7V | 04:31:22 | 01:18:55 | 00:00:00 | |
| OE5MMP-10 | 2026-08-31 11:36:03 | 49.73485 | 12.94204 | 63° | 99km/h | 13901m | 3.9m/s | -53.4°C | 5.7% | 151.6hPa | 2.7V | 00:00:00 | 01:18:56 | 00:00:00 | |
| DL9SK-14 | 2026-08-31 11:35:57 | 49.73411 | 12.93962 | 67° | 97km/h | 13874m | 3.4m/s | -53.9°C | 2.8% | 152.3hPa | 2.7V | 00:00:00 | 00:00:00 | 00:00:00 | |
| SONCRA | 2026-08-31 11:35:55 | 49.73392 | 12.93891 | 65° | 99km/h | 13866m | 4.1m/s | -54.0°C | 2.7% | 152.5hPa | 2.7V | 00:00:00 | 00:00:00 | 00:00:00 | |
| EDDB2-11 | 2026-08-31 11:35:54 | 49.73392 | 12.93891 | 65° | 99km/h | 13866m | 4.1m/s | -54.0°C | 2.7% | 152.5hPa | 2.7V | 00:00:00 | 00:00:00 | 00:00:00 | |
| OE5MMP-10 | 2026-08-31 11:35:53 | 49.73381 | 12.93856 | 65° | 97km/h | 13863m | 2.8m/s | -53.9°C | 5.8% | 152.5hPa | 2.7V | 00:00:00 | 01:18:46 | 00:00:00 | |
| DO8TBO-1 | 2026-08-31 11:35:51 | 49.73360 | 12.93788 | 65° | 100km/h | 13856m | 4.0m/s | -54.0°C | 5.9% | 152.7hPa | 2.7V | 00:00:00 | 01:18:44 | 00:00:00 | |
| OE5MMP-10 | 2026-08-31 11:35:43 | 49.73279 | 12.93516 | 68° | 100km/h | 13828m | 4.4m/s | -54.0°C | 5.9% | 153.3hPa | 2.7V | 04:31:00 | 01:18:36 | 00:00:00 | |
| DL6DJ-15 | 2026-08-31 11:35:41 | 49.73250 | 12.93408 | 68° | 99km/h | 13816m | 4.8m/s | -54.1°C | 2.7% | 153.7hPa | 2.7V | 00:00:00 | 00:00:00 | 00:00:00 | |
| DO3MHA-11 | 2026-08-31 11:35:39 | 49.73241 | 12.93371 | 70° | 100km/h | 13812m | 3.6m/s | -54.0°C | 5.8% | 153.7hPa | 2.7V | 00:00:00 | 01:18:32 | 00:00:00 | |
| ANDY1245 | 2026-08-31 11:35:36 | 49.73222 | 12.93299 | 68° | 99km/h | 13804m | 4.1m/s | -54.1°C | 2.8% | 154.0hPa | 2.7V | 00:00:00 | 00:00:00 | 00:00:00 | |
| DM0DOS-11 | 2026-08-31 11:35:34 | 49.73175 | 12.93117 | 69° | 104km/h | 13786m | 4.1m/s | -54.4°C | 6% | 154.4hPa | 2.7V | 04:31:52 | 01:18:25 | 00:00:00 | |
| DK5PH-5 | 2026-08-31 11:35:32 | 49.73175 | 12.93117 | 70° | 111km/h | 13786m | 4.0m/s | -54.4°C | 6.0% | 154.3hPa | 2.7V | 00:00:00 | 01:18:25 | 00:00:00 | |
| ANDY1245 | 2026-08-31 11:35:30 | 49.73166 | 12.93079 | 70° | 104km/h | 13782m | 3.6m/s | -54.4°C | 2.9% | 154.5hPa | 2.7V | 00:00:00 | 00:00:00 | 00:00:00 | |
| DO3MHA-11 | 2026-08-31 11:35:29 | 49.73147 | 12.93003 | 70° | 108km/h | 13776m | 3.5m/s | -54.4°C | 6.0% | 154.6hPa | 2.7V | 00:00:00 | 01:18:22 | 00:00:00 | |
| DF2AP-13 | 2026-08-31 11:35:28 | 49.73138 | 12.92964 | 71° | 113km/h | 13772m | 4.5m/s | -54.4°C | 6.0% | 154.7hPa | 2.7V | 00:00:00 | 01:18:21 | 00:00:00 | |
| DB0UT-9 | 2026-08-31 11:35:27 | 49.73138 | 12.92964 | 72° | 106km/h | 13772m | 4.6m/s | -54.4°C | 2.8% | 154.7hPa | 2.7V | 04:32:00 | 00:00:00 | 00:00:00 | |
| NBG1-10 | 2026-08-31 11:35:26 | 49.73121 | 12.92885 | 72° | 115km/h | 13764m | 4.4m/s | -54.3°C | 5.9% | 154.9hPa | 2.7V | 00:00:00 | 01:18:19 | 00:00:00 | |
| DB0NH | 2026-08-31 11:35:25 | 49.73112 | 12.92846 | 71° | 115km/h | 13759m | 4.1m/s | -54.3°C | 5.9% | 155.0hPa | 2.7V | 00:00:00 | 01:18:18 | 00:00:00 | |
| OE5DXL-15 | 2026-08-31 11:35:24 | 49.73094 | 12.92767 | 72° | 115km/h | 13752m | 4.2m/s | -54.3°C | 5.9% | 155.2hPa | 2.7V | 00:00:00 | 00:00:00 | 00:00:00 | |
| OE5MMP-10 | 2026-08-31 11:35:23 | 49.73094 | 12.92767 | 72° | 111km/h | 13752m | 4.2m/s | -54.3°C | 5.9% | 155.2hPa | 2.7V | 00:00:00 | 01:18:16 | 00:00:00 | |
| DO8TBO-1 | 2026-08-31 11:35:21 | 49.73077 | 12.92685 | 72° | 117km/h | 13744m | 3.5m/s | -54.3°C | 5.9% | 155.4hPa | 2.7V | 04:32:00 | 01:18:14 | 00:00:00 | |
| OE5DRO-10 | 2026-08-31 11:35:20 | 49.73067 | 12.92644 | 72° | 115km/h | 13740m | 4.1m/s | -54.3°C | 5.9% | 155.5hPa | 2.7V | 00:00:00 | 00:00:00 | 00:00:00 | |
| DO3MHA-11 | 2026-08-31 11:35:19 | 49.73058 | 12.92603 | 71° | 113km/h | 13737m | 3.4m/s | -54.3°C | 5.9% | 155.6hPa | 2.7V | 00:00:00 | 01:18:12 | 00:00:00 | |
| OE5MMP-10 | 2026-08-31 11:35:13 | 49.73003 | 12.92357 | 70° | 117km/h | 13716m | 2.6m/s | -54.2°C | 6.0% | 156.1hPa | 2.7V | 00:00:00 | 01:18:06 | 00:00:00 | |
| DL6DJ-15 | 2026-08-31 11:35:10 | 49.72965 | 12.92187 | 71° | 115km/h | 13701m | 4.0m/s | -54.3°C | 2.8% | 156.5hPa | 2.7V | 00:00:00 | 00:00:00 | 00:00:00 | |
| DO3MHA-11 | 2026-08-31 11:35:09 | 49.72965 | 12.92187 | 72° | 119km/h | 13701m | 4.0m/s | -54.2°C | 6.0% | 156.4hPa | 2.7V | 04:32:00 | 01:18:02 | 00:00:00 | |
| DL1JEZ-13 | 2026-08-31 11:35:08 | 49.72965 | 12.92187 | 72° | 117km/h | 13701m | 4.0m/s | -54.3°C | 2.8% | 156.5hPa | 2.8V | 04:32:00 | 00:00:00 | 00:00:00 | |
| EDDB2-12 | 2026-08-31 11:35:06 | 49.72926 | 12.92015 | 70° | 119km/h | 13686m | 3.8m/s | -54.2°C | 2.8% | 156.8hPa | 2.8V | 00:00:00 | 00:00:00 | 00:00:00 | |
| SONDE2-11 | 2026-08-31 11:35:05 | 49.72926 | 12.92015 | 70° | 119km/h | 13686m | 3.8m/s | -54.2°C | 2.8% | 156.8hPa | 2.8V | 00:00:00 | 00:00:00 | 00:00:00 | |
| DM0DOS-11 | 2026-08-31 11:35:03 | 49.72896 | 12.91884 | 69° | 119km/h | 13675m | 3.5m/s | -54.1°C | 5.9% | 157.1hPa | 2.8V | 04:32:22 | 01:17:55 | 00:00:00 | |
| DK5PH-5 | 2026-08-31 11:35:02 | 49.72896 | 12.91884 | 70° | 122km/h | 13676m | 3.5m/s | -54.1°C | 5.9% | 157.1hPa | 2.7V | 00:00:00 | 01:17:55 | 00:00:00 | |
| OE5DRO-10 | 2026-08-31 11:35:01 | 49.72885 | 12.91840 | 70° | 120km/h | 13672m | 3.3m/s | -54.1°C | 5.9% | 157.1hPa | 2.7V | 00:00:00 | 00:00:00 | 00:00:00 | |
| DO3MHA-11 | 2026-08-31 11:34:59 | 49.72865 | 12.91751 | 72° | 120km/h | 13665m | 3.4m/s | -54.0°C | 6.0% | 157.3hPa | 2.7V | 00:00:00 | 01:17:52 | 00:00:00 | |
| DF2AP-13 | 2026-08-31 11:34:58 | 49.72855 | 12.91706 | 72° | 122km/h | 13662m | 3.0m/s | -54.0°C | 5.9% | 157.4hPa | 2.7V | 00:00:00 | 01:17:51 | 00:00:00 | |
| DM0DOS-11 | 2026-08-31 11:34:57 | 49.72785 | 12.91400 | 69° | 122km/h | 13637m | 3.9m/s | -54.1°C | 5.8% | 158.1hPa | 2.7V | 04:32:33 | 01:17:44 | 00:00:00 | |
| DL9SK-14 | 2026-08-31 11:34:55 | 49.72815 | 12.91533 | 70° | 117km/h | 13647m | 3.9m/s | -54.0°C | 2.7% | 157.8hPa | 2.7V | 00:00:00 | 00:00:00 | 00:00:00 | |
| SONCRA | 2026-08-31 11:34:53 | 49.72795 | 12.91445 | 70° | 120km/h | 13640m | 2.9m/s | -54.0°C | 2.7% | 158.0hPa | 2.7V | 00:00:00 | 00:00:00 | 00:00:00 | |
| DO8TBO-1 | 2026-08-31 11:34:52 | 49.72785 | 12.91400 | 70° | 124km/h | 13637m | 3.9m/s | -54.0°C | 5.8% | 158.0hPa | 2.7V | 00:00:00 | 01:17:44 | 00:00:00 | |
| DB0NH | 2026-08-31 11:34:50 | 49.72774 | 12.91355 | 69° | 124km/h | 13633m | 3.7m/s | -54.1°C | 5.9% | 158.1hPa | 2.7V | 04:32:00 | 01:17:43 | 00:00:00 | |
| DB0UT-7 | 2026-08-31 11:34:49 | 49.72762 | 12.91310 | 68° | 126km/h | 13629m | 3.5m/s | -54.1°C | 5.8% | 158.2hPa | 2.7V | 00:00:00 | 01:17:42 | 00:00:00 | |
| ANDY1245 | 2026-08-31 11:34:48 | 49.72750 | 12.91265 | 69° | 126km/h | 13626m | 4.0m/s | -54.3°C | 2.8% | 158.3hPa | 2.7V | 00:00:00 | 00:00:00 | 00:00:00 | |
| OE5MMP-10 | 2026-08-31 11:34:47 | 49.72738 | 12.91220 | 69° | 122km/h | 13622m | 4.0m/s | -54.2°C | 5.9% | 158.4hPa | 2.7V | 04:32:00 | 01:17:40 | 00:00:00 | |
| PG1ADW-2 | 2026-08-31 11:34:46 | 49.72726 | 12.91174 | 69° | 124km/h | 13618m | 3.1m/s | -54.2°C | 5.9% | 158.5hPa | 2.8V | 00:00:00 | 01:17:39 | 00:00:00 | |
| DM0DOS-11 | 2026-08-31 11:34:45 | 49.72669 | 12.90955 | 69° | 122km/h | 13598m | 3.9m/s | -54.1°C | 5.9% | 159hPa | 2.8V | 04:32:43 | 01:17:34 | 00:00:00 | |
| OE5DRO-10 | 2026-08-31 11:34:42 | 49.72680 | 12.90999 | 69° | 124km/h | 13603m | 4.5m/s | -54.2°C | 5.9% | 158.9hPa | 2.8V | 00:00:00 | 00:00:00 | 00:00:00 | |
| DL6DJ-15 | 2026-08-31 11:34:39 | 49.72636 | 12.90820 | 68° | 124km/h | 13587m | 3.5m/s | -54.1°C | 2.8% | 159.3hPa | 2.8V | 00:00:00 | 00:00:00 | 00:00:00 | |
| OE5MMP-10 | 2026-08-31 11:34:37 | 49.72625 | 12.90775 | 70° | 124km/h | 13583m | 3.8m/s | -54.1°C | 6.0% | 159.3hPa | 2.8V | 00:00:00 | 01:17:30 | 00:00:00 | |
| EDDB2-12 | 2026-08-31 11:34:35 | 49.72593 | 12.90636 | 70° | 124km/h | 13571m | 4.1m/s | -54.1°C | 2.9% | 159.7hPa | 2.8V | 00:00:00 | 00:00:00 | 00:00:00 | |
| SONDE2-11 | 2026-08-31 11:34:34 | 49.72593 | 12.90636 | 70° | 124km/h | 13571m | 4.1m/s | -54.1°C | 2.9% | 159.7hPa | 2.8V | 00:00:00 | 00:00:00 | 00:00:00 | |
| DM0DOS-11 | 2026-08-31 11:34:33 | 49.72562 | 12.90499 | 70° | 124km/h | 13560m | 3.4m/s | -54°C | 6.1% | 160hPa | 2.8V | 04:32:53 | 01:17:24 | 00:00:00 | |
| DK5PH-5 | 2026-08-31 11:34:32 | 49.72572 | 12.90544 | 71° | 124km/h | 13564m | 3.0m/s | -54.0°C | 6.2% | 159.9hPa | 2.7V | 00:00:00 | 01:17:25 | 00:00:00 | |
| DO3MHA-11 | 2026-08-31 11:34:29 | 49.72541 | 12.90408 | 71° | 126km/h | 13552m | 3.7m/s | -54.0°C | 6.0% | 160.1hPa | 2.7V | 00:00:00 | 01:17:22 | 00:00:00 | |
| DL1JEZ-13 | 2026-08-31 11:34:28 | 49.72531 | 12.90362 | 71° | 124km/h | 13548m | 4.6m/s | -54.0°C | 2.8% | 160.2hPa | 2.7V | 04:32:00 | 00:00:00 | 00:00:00 | |
| OE5MMP-10 | 2026-08-31 11:34:27 | 49.72520 | 12.90317 | 69° | 126km/h | 13544m | 4.3m/s | -54.0°C | 6.0% | 160.3hPa | 2.7V | 00:00:00 | 01:17:20 | 00:00:00 | |
| DB0ND-19 | 2026-08-31 11:34:26 | 49.72496 | 12.90226 | 68° | 126km/h | 13537m | 4.1m/s | -53.9°C | 2.7% | 160.5hPa | 2.7V | 00:00:00 | 00:00:00 | 00:00:00 | |
| DM0DOS-11 | 2026-08-31 11:34:22 | 49.72448 | 12.90041 | 67° | 126km/h | 13521m | 3.9m/s | -53.8°C | 5.8% | 160.9hPa | 2.7V | 04:33:03 | 01:17:14 | 00:00:00 | |
| SONCRA | 2026-08-31 11:34:22 | 49.72448 | 12.90041 | 67° | 126km/h | 13522m | 3.9m/s | -53.8°C | 2.7% | 160.9hPa | 2.7V | 00:00:00 | 00:00:00 | 00:00:00 | |
| DO8TBO-1 | 2026-08-31 11:34:21 | 49.72447 | 12.90041 | 68° | 122km/h | 13522m | 3.8m/s | -53.8°C | 5.8% | 160.9hPa | 2.7V | 00:00:00 | 01:17:14 | 00:00:00 | |
| ANDY1245 | 2026-08-31 11:34:20 | 49.72436 | 12.89995 | 69° | 126km/h | 13518m | 3.5m/s | -53.8°C | 2.8% | 161.0hPa | 2.7V | 04:33:00 | 00:00:00 | 00:00:00 | |
| DO3MHA-11 | 2026-08-31 11:34:19 | 49.72424 | 12.89950 | 70° | 122km/h | 13514m | 5.1m/s | -53.7°C | 5.8% | 161.1hPa | 2.7V | 04:33:00 | 01:17:12 | 00:00:00 | |
| DB0NH | 2026-08-31 11:34:18 | 49.72413 | 12.89904 | 72° | 124km/h | 13509m | 4.1m/s | -53.6°C | 5.8% | 161.2hPa | 2.7V | 00:00:00 | 01:17:11 | 00:00:00 | |
| OE5MMP-10 | 2026-08-31 11:34:17 | 49.72403 | 12.89858 | 72° | 122km/h | 13505m | 3.0m/s | -53.5°C | 5.7% | 161.3hPa | 2.7V | 00:00:00 | 01:17:10 | 00:00:00 | |
| ANDY1245 | 2026-08-31 11:34:13 | 49.72373 | 12.89723 | 70° | 119km/h | 13493m | 4.1m/s | -53.6°C | 2.8% | 161.7hPa | 2.8V | 04:33:00 | 00:00:00 | 00:00:00 | |
| DM0DOS-11 | 2026-08-31 11:34:12 | 49.72341 | 12.89591 | 70° | 122km/h | 13480m | 4.8m/s | -53.5°C | 5.8% | 162hPa | 2.8V | 04:33:13 | 01:17:04 | 00:00:00 | |
| DO3MHA-11 | 2026-08-31 11:34:09 | 49.72321 | 12.89499 | 73° | 122km/h | 13472m | 3.6m/s | -53.4°C | 5.8% | 162.1hPa | 2.7V | 00:00:00 | 01:17:02 | 00:00:00 | |
| DL6DJ-15 | 2026-08-31 11:34:08 | 49.72303 | 12.89406 | 72° | 122km/h | 13463m | 4.9m/s | -53.5°C | 2.8% | 162.3hPa | 2.7V | 00:00:00 | 00:00:00 | 00:00:00 | |
| OE5MMP-10 | 2026-08-31 11:34:07 | 49.72303 | 12.89406 | 73° | 120km/h | 13464m | 4.8m/s | -53.5°C | 5.9% | 162.3hPa | 2.7V | 00:00:00 | 01:17:00 | 00:00:00 | |
| PG1ADW-2 | 2026-08-31 11:34:06 | 49.72293 | 12.89360 | 72° | 122km/h | 13459m | 4.0m/s | -53.5°C | 5.9% | 162.4hPa | 2.7V | 00:00:00 | 00:00:00 | 00:00:00 | |
| OE5DRO-10 | 2026-08-31 11:34:04 | 49.72274 | 12.89270 | 73° | 122km/h | 13452m | 4.4m/s | -53.5°C | 5.9% | 162.6hPa | 2.7V | 04:33:00 | 00:00:00 | 00:00:00 | |
| DM0DOS-11 | 2026-08-31 11:34:02 | 49.72246 | 12.89135 | 70° | 120km/h | 13439m | 4.8m/s | -53.5°C | 5.9% | 163hPa | 2.7V | 04:33:23 | 01:16:54 | 00:00:00 | |
| DK5PH-5 | 2026-08-31 11:34:02 | 49.72255 | 12.89180 | 73° | 126km/h | 13444m | 3.9m/s | -53.5°C | 5.9% | 162.8hPa | 2.7V | 00:00:00 | 01:16:55 | 00:00:00 | |
| DO3MHA-11 | 2026-08-31 11:33:59 | 49.72225 | 12.89047 | 70° | 122km/h | 13431m | 3.8m/s | -53.4°C | 5.8% | 163.2hPa | 2.7V | 00:00:00 | 01:16:52 | 00:00:00 | |
| OE5MMP-10 | 2026-08-31 11:33:57 | 49.72204 | 12.88959 | 70° | 124km/h | 13423m | 4.1m/s | -53.4°C | 5.8% | 163.4hPa | 2.7V | 04:33:00 | 01:16:50 | 00:00:00 | |
| DM0DOS-11 | 2026-08-31 11:33:56 | 49.72139 | 12.88691 | 69° | 126km/h | 13397m | 4.6m/s | -53.4°C | 5.8% | 164.1hPa | 2.7V | 04:33:33 | 01:16:44 | 00:00:00 | |
| DB0ND-19 | 2026-08-31 11:33:54 | 49.72171 | 12.88827 | 69° | 120km/h | 13409m | 4.1m/s | -53.4°C | 2.8% | 163.7hPa | 2.7V | 00:00:00 | 00:00:00 | 00:00:00 | |
| DL9SK-14 | 2026-08-31 11:33:53 | 49.72150 | 12.88737 | 69° | 124km/h | 13401m | 3.5m/s | -53.4°C | 2.8% | 164.0hPa | 2.7V | 00:00:00 | 00:00:00 | 00:00:00 | |
| SONCRA | 2026-08-31 11:33:51 | 49.72116 | 12.88599 | 69° | 126km/h | 13389m | 3.4m/s | -53.4°C | 2.8% | 164.3hPa | 2.7V | 00:00:00 | 00:00:00 | 00:00:00 | |
| DO8TBO-1 | 2026-08-31 11:33:50 | 49.72127 | 12.88645 | 70° | 128km/h | 13393m | 4.0m/s | -53.4°C | 5.8% | 164.1hPa | 2.7V | 00:00:00 | 01:16:43 | 00:00:00 | |
| DO3MHA-11 | 2026-08-31 11:33:49 | 49.72116 | 12.88599 | 70° | 126km/h | 13389m | 3.3m/s | -53.4°C | 5.9% | 164.2hPa | 2.7V | 00:00:00 | 01:16:42 | 00:00:00 | |
| OE5MMP-10 | 2026-08-31 11:33:47 | 49.72093 | 12.88506 | 70° | 126km/h | 13380m | 3.9m/s | -53.3°C | 5.9% | 164.5hPa | 2.7V | 00:00:00 | 01:16:40 | 00:00:00 | |
| DM0DOS-11 | 2026-08-31 11:33:46 | 49.72026 | 12.88230 | 70° | 128km/h | 13355m | 3.7m/s | -53.2°C | 5.9% | 165.2hPa | 2.8V | 04:33:43 | 01:16:34 | 00:00:00 | |
| DB0NH | 2026-08-31 11:33:46 | 49.72082 | 12.88460 | 70° | 128km/h | 13376m | 3.8m/s | -53.3°C | 5.9% | 164.5hPa | 2.7V | 00:00:00 | 01:16:39 | 00:00:00 | |
| OE5DRO-10 | 2026-08-31 11:33:45 | 49.72071 | 12.88414 | 69° | 130km/h | 13372m | 4.9m/s | -53.3°C | 5.9% | 164.7hPa | 2.7V | 00:00:00 | 00:00:00 | 00:00:00 | |
| DB0UT-9 | 2026-08-31 11:33:43 | 49.72060 | 12.88368 | 69° | 126km/h | 13368m | 3.5m/s | -53.3°C | 2.9% | 164.9hPa | 2.7V | 04:33:00 | 00:00:00 | 00:00:00 | |
| DF9NV-10 | 2026-08-31 11:33:42 | 49.72048 | 12.88322 | 70° | 126km/h | 13364m | 4.2m/s | -53.3°C | 2.9% | 164.9hPa | 2.7V | 04:33:00 | 00:00:00 | 00:00:00 | |
| DO3MHA-11 | 2026-08-31 11:33:39 | 49.72003 | 12.88136 | 70° | 130km/h | 13347m | 4.1m/s | -53.1°C | 5.9% | 165.2hPa | 2.7V | 00:00:00 | 01:16:32 | 00:00:00 | |
| DL6DJ-15 | 2026-08-31 11:33:37 | 49.71969 | 12.87996 | 70° | 130km/h | 13335m | 4.7m/s | -53.1°C | 2.8% | 165.6hPa | 2.8V | 00:00:00 | 00:00:00 | 00:00:00 | |
| DM0DOS-11 | 2026-08-31 11:33:36 | 49.71912 | 12.87757 | 67° | 130km/h | 13315m | 4.5m/s | -53°C | 5.9% | 166.2hPa | 2.8V | 04:33:53 | 01:16:24 | 00:00:00 | |
| DB0UT-7 | 2026-08-31 11:33:36 | 49.71969 | 12.87995 | 71° | 128km/h | 13336m | 4.7m/s | -53.0°C | 5.9% | 165.6hPa | 2.7V | 04:33:00 | 00:00:00 | 00:00:00 | |
| DF7PN | 2026-08-31 11:33:35 | 49.71947 | 12.87899 | 70° | 130km/h | 13328m | 4.3m/s | -53.1°C | 2.8% | 165.8hPa | 2.7V | 00:00:00 | 00:00:00 | 00:00:00 | |
| DK5PH-5 | 2026-08-31 11:33:32 | 49.71924 | 12.87804 | 69° | 128km/h | 13319m | 4.1m/s | -53.0°C | 5.9% | 166.0hPa | 2.7V | 04:33:00 | 01:16:25 | 00:00:00 | |
| DO3MHA-11 | 2026-08-31 11:33:29 | 49.71885 | 12.87662 | 67° | 130km/h | 13306m | 5.1m/s | -52.9°C | 5.9% | 166.4hPa | 2.7V | 04:33:00 | 01:16:22 | 00:00:00 | |
| OE5MMP-10 | 2026-08-31 11:33:27 | 49.71857 | 12.87567 | 66° | 130km/h | 13298m | 4.2m/s | -52.8°C | 5.9% | 166.6hPa | 2.7V | 00:00:00 | 01:16:20 | 00:00:00 | |
| PG1ADW-2 | 2026-08-31 11:33:26 | 49.71843 | 12.87520 | 66° | 126km/h | 13293m | 4.6m/s | -52.8°C | 5.9% | 166.7hPa | 2.7V | 00:00:00 | 01:16:19 | 00:00:00 | |
| DM0DOS-11 | 2026-08-31 11:33:25 | 49.71782 | 12.87294 | 67° | 130km/h | 13272m | 4.7m/s | -52.8°C | 5.8% | 167.3hPa | 2.7V | 04:34:03 | 01:16:14 | 00:00:00 | |
| SP3BTT-10 | 2026-08-31 11:33:24 | 49.71817 | 12.87430 | 67° | 128km/h | 13285m | 3.8m/s | 0°C | 0% | 0hPa | 2.7V | 00:00:00 | 00:00:00 | 00:00:00 | |
| OE5DXL-15 | 2026-08-31 11:33:23 | 49.71805 | 12.87386 | 68° | 126km/h | 13281m | 3.9m/s | -52.8°C | 5.8% | 167.0hPa | 2.7V | 00:00:00 | 00:00:00 | 00:00:00 | |
| DL9SK-14 | 2026-08-31 11:33:22 | 49.71781 | 12.87294 | 67° | 128km/h | 13272m | 4.7m/s | -52.8°C | 2.8% | 167.3hPa | 2.7V | 00:00:00 | 00:00:00 | 00:00:00 | |
| DO8TBO-1 | 2026-08-31 11:33:20 | 49.71769 | 12.87247 | 67° | 126km/h | 13268m | 4.6m/s | -52.7°C | 5.8% | 167.3hPa | 2.7V | 00:00:00 | 01:16:13 | 00:00:00 | |
| DO3MHA-11 | 2026-08-31 11:33:19 | 49.71755 | 12.87199 | 66° | 126km/h | 13264m | 3.8m/s | -52.6°C | 5.7% | 167.4hPa | 2.7V | 00:00:00 | 01:16:12 | 00:00:00 | |
| OE5MMP-10 | 2026-08-31 11:33:17 | 49.71727 | 12.87106 | 65° | 124km/h | 13255m | 4.9m/s | -52.7°C | 5.7% | 167.7hPa | 2.7V | 00:00:00 | 01:16:10 | 00:00:00 | |
| NBG1-10 | 2026-08-31 11:33:14 | 49.71688 | 12.86973 | 66° | 126km/h | 13243m | 4.3m/s | -52.9°C | 5.8% | 167.9hPa | 2.8V | 00:00:00 | 01:16:07 | 00:00:00 | |
| DM0DOS-11 | 2026-08-31 11:33:12 | 49.71649 | 12.86840 | 65° | 126km/h | 13229m | 4.2m/s | -53°C | 5.9% | 168.4hPa | 2.8V | 04:34:13 | 01:16:04 | 00:00:00 | |
| DB0NH | 2026-08-31 11:33:10 | 49.71636 | 12.86796 | 65° | 126km/h | 13225m | 5.1m/s | -53.0°C | 6.0% | 168.4hPa | 2.7V | 00:00:00 | 01:16:03 | 00:00:00 | |
| DO3MHA-11 | 2026-08-31 11:33:09 | 49.71622 | 12.86752 | 64° | 124km/h | 13220m | 4.2m/s | -53.1°C | 6.0% | 168.6hPa | 2.7V | 00:00:00 | 01:16:02 | 00:00:00 | |
| OE5MMP-10 | 2026-08-31 11:33:07 | 49.71592 | 12.86666 | 62° | 124km/h | 13212m | 5.2m/s | -53.3°C | 6.1% | 168.8hPa | 2.7V | 04:34:00 | 01:16:00 | 00:00:00 | |
| DB0UT-7 | 2026-08-31 11:33:06 | 49.71577 | 12.86623 | 61° | 141km/h | 13207m | 3.3m/s | -53.2°C | 6.1% | 168.9hPa | 2.7V | 00:00:00 | 01:15:59 | 00:00:00 | |
| DL6DJ-15 | 2026-08-31 11:33:05 | 49.71561 | 12.86580 | 59° | 126km/h | 13203m | 3.9m/s | -53.3°C | 3.0% | 169.1hPa | 2.7V | 00:00:00 | 00:00:00 | 00:00:00 | |
| ANDY1245 | 2026-08-31 11:33:04 | 49.71561 | 12.86580 | 61° | 126km/h | 13204m | 3.9m/s | -53.3°C | 3.0% | 169.1hPa | 2.7V | 00:00:00 | 00:00:00 | 00:00:00 | |
| DM0DOS-11 | 2026-08-31 11:33:02 | 49.71498 | 12.86413 | 61° | 124km/h | 13185m | 4.4m/s | -53.3°C | 6.1% | 169.5hPa | 2.7V | 04:34:23 | 01:15:54 | 00:00:00 | |
| EDDB2-12 | 2026-08-31 11:33:02 | 49.71498 | 12.86413 | 61° | 122km/h | 13185m | 4.4m/s | -53.3°C | 3.0% | 169.5hPa | 2.7V | 00:00:00 | 00:00:00 | 00:00:00 | |
| SONDE2-11 | 2026-08-31 11:33:01 | 49.71498 | 12.86413 | 61° | 122km/h | 13185m | 4.4m/s | -53.3°C | 3.0% | 169.5hPa | 2.7V | 00:00:00 | 00:00:00 | 00:00:00 | |
| DB0ND-19 | 2026-08-31 11:32:53 | 49.71332 | 12.85946 | 60° | 128km/h | 13138m | 4.1m/s | -53.1°C | 3.0% | 170.7hPa | 2.7V | 00:00:00 | 00:00:00 | 00:00:00 | |
| DM0DOS-11 | 2026-08-31 11:32:52 | 49.71348 | 12.85989 | 59° | 128km/h | 13143m | 4.6m/s | -53.1°C | 6.1% | 170.7hPa | 2.7V | 04:34:33 | 01:15:44 | 00:00:00 | |
| DL9SK-14 | 2026-08-31 11:32:51 | 49.71332 | 12.85946 | 60° | 128km/h | 13138m | 4.1m/s | -53.1°C | 3.0% | 170.7hPa | 2.7V | 00:00:00 | 00:00:00 | 00:00:00 | |
| DO8TBO-1 | 2026-08-31 11:32:50 | 49.71332 | 12.85946 | 61° | 131km/h | 13138m | 4.0m/s | -53.0°C | 6.1% | 170.7hPa | 2.7V | 04:34:00 | 01:15:43 | 00:00:00 | |
| DO3MHA-11 | 2026-08-31 11:32:49 | 49.71316 | 12.85902 | 62° | 128km/h | 13134m | 3.9m/s | -53.0°C | 6.1% | 170.8hPa | 2.7V | 00:00:00 | 01:15:42 | 00:00:00 | |
| OE5DRO-10 | 2026-08-31 11:32:48 | 49.71301 | 12.85858 | 63° | 130km/h | 13130m | 4.9m/s | -53.0°C | 6.1% | 171.0hPa | 2.7V | 00:00:00 | 00:00:00 | 00:00:00 | |
| OE5MMP-10 | 2026-08-31 11:32:47 | 49.71286 | 12.85814 | 64° | 130km/h | 13125m | 4.3m/s | -53.1°C | 6.1% | 171.1hPa | 2.7V | 00:00:00 | 01:15:40 | 00:00:00 | |
| PG1ADW-2 | 2026-08-31 11:32:46 | 49.71272 | 12.85769 | 65° | 131km/h | 13122m | 3.2m/s | -53.1°C | 6.2% | 171.2hPa | 2.7V | 04:34:00 | 00:00:00 | 00:00:00 | |
| DM0DOS-11 | 2026-08-31 11:32:42 | 49.71203 | 12.85542 | 64° | 128km/h | 13100m | 3.5m/s | -52.9°C | 6.2% | 171.8hPa | 2.7V | 04:34:43 | 01:15:34 | 00:00:00 | |
| NBG1-10 | 2026-08-31 11:32:41 | 49.71203 | 12.85542 | 65° | 135km/h | 13100m | 3.5m/s | -52.8°C | 6.2% | 171.7hPa | 2.7V | 00:00:00 | 01:15:34 | 00:00:00 | |
| DB0NH | 2026-08-31 11:32:40 | 49.71188 | 12.85496 | 64° | 135km/h | 13097m | 3.4m/s | -52.8°C | 6.1% | 171.8hPa | 2.7V | 00:00:00 | 01:15:33 | 00:00:00 | |
| DO3MHA-11 | 2026-08-31 11:32:39 | 49.71174 | 12.85451 | 63° | 131km/h | 13093m | 4.6m/s | -52.8°C | 6.2% | 171.9hPa | 2.7V | 04:34:00 | 01:15:32 | 00:00:00 | |
| SP3BTT-10 | 2026-08-31 11:32:38 | 49.71158 | 12.85405 | 63° | 137km/h | 13088m | 3.6m/s | 0°C | 0% | 0hPa | 2.8V | 04:34:00 | 00:00:00 | 00:00:00 | |
| OE5MMP-10 | 2026-08-31 11:32:36 | 49.71127 | 12.85315 | 63° | 133km/h | 13080m | 4.4m/s | -52.8°C | 6.0% | 172.3hPa | 2.8V | 00:00:00 | 01:15:29 | 00:00:00 | |
| DL6DJ-15 | 2026-08-31 11:32:34 | 49.71098 | 12.85225 | 63° | 130km/h | 13072m | 5.2m/s | -52.9°C | 3.0% | 172.5hPa | 2.8V | 00:00:00 | 00:00:00 | 00:00:00 | |
| DM0DOS-11 | 2026-08-31 11:32:31 | 49.71041 | 12.85038 | 66° | 131km/h | 13054m | 4.1m/s | -52.7°C | 6% | 173hPa | 2.8V | 04:34:54 | 01:15:23 | 00:00:00 | |
| DO3MHA-11 | 2026-08-31 11:32:29 | 49.71028 | 12.84990 | 68° | 135km/h | 13050m | 4.9m/s | -52.7°C | 6.0% | 173.0hPa | 2.7V | 00:00:00 | 01:15:22 | 00:00:00 | |
| DF2AP-13 | 2026-08-31 11:32:27 | 49.71001 | 12.84893 | 67° | 141km/h | 13041m | 3.5m/s | -52.6°C | 6.0% | 173.3hPa | 2.7V | 00:00:00 | 01:15:20 | 00:00:00 | |
| DM0DOS-11 | 2026-08-31 11:32:26 | 49.70887 | 12.84510 | 66° | 137km/h | 13009m | 3.3m/s | -52.5°C | 6.2% | 174.2hPa | 2.8V | 04:35:05 | 01:15:12 | 00:00:00 | |
| OE5MMP-10 | 2026-08-31 11:32:25 | 49.70974 | 12.84798 | 66° | 137km/h | 13033m | 3.6m/s | -52.6°C | 6.0% | 173.6hPa | 2.7V | 00:00:00 | 01:15:18 | 00:00:00 | |
| OE5DXL-15 | 2026-08-31 11:32:23 | 49.70946 | 12.84703 | 65° | 141km/h | 13026m | 4.6m/s | -52.5°C | 6.1% | 173.7hPa | 2.7V | 04:35:00 | 00:00:00 | 00:00:00 | |
| DB0ND-19 | 2026-08-31 11:32:21 | 49.70916 | 12.84606 | 64° | 137km/h | 13017m | 4.0m/s | -52.5°C | 3.1% | 174.0hPa | 2.7V | 00:00:00 | 00:00:00 | 00:00:00 | |
| DL9SK-14 | 2026-08-31 11:32:20 | 49.70888 | 12.84510 | 66° | 135km/h | 13009m | 3.3m/s | -52.5°C | 3.1% | 174.2hPa | 2.7V | 00:00:00 | 00:00:00 | 00:00:00 | |
| DO3MHA-11 | 2026-08-31 11:32:19 | 49.70888 | 12.84510 | 67° | 139km/h | 13009m | 3.3m/s | -52.5°C | 6.2% | 174.2hPa | 2.7V | 00:00:00 | 01:15:12 | 00:00:00 | |
| EDDB2-11 | 2026-08-31 11:32:17 | 49.70845 | 12.84361 | 66° | 139km/h | 12997m | 3.5m/s | -52.5°C | 3.0% | 174.6hPa | 2.7V | 00:00:00 | 00:00:00 | 00:00:00 | |
| OE5MMP-10 | 2026-08-31 11:32:15 | 49.70831 | 12.84311 | 67° | 141km/h | 12993m | 4.7m/s | -52.4°C | 5.9% | 174.6hPa | 2.7V | 04:35:00 | 01:15:08 | 00:00:00 | |
| DM0DOS-11 | 2026-08-31 11:32:14 | 49.70760 | 12.84065 | 65° | 139km/h | 12972m | 4.2m/s | -52.6°C | 6% | 175.2hPa | 2.7V | 04:35:14 | 01:15:03 | 00:00:00 | |
| DB0NH | 2026-08-31 11:32:10 | 49.70760 | 12.84065 | 66° | 144km/h | 12972m | 4.2m/s | -52.6°C | 6.0% | 175.2hPa | 2.7V | 04:35:00 | 01:15:03 | 00:00:00 | |
| DO3MHA-11 | 2026-08-31 11:32:09 | 49.70745 | 12.84016 | 66° | 144km/h | 12968m | 3.9m/s | -52.5°C | 6.0% | 175.3hPa | 2.7V | 00:00:00 | 01:15:02 | 00:00:00 | |
| NBG1-10 | 2026-08-31 11:32:08 | 49.70731 | 12.83967 | 66° | 144km/h | 12965m | 3.0m/s | -52.5°C | 6.0% | 175.4hPa | 2.7V | 00:00:00 | 01:15:01 | 00:00:00 | |
| PG1ADW-2 | 2026-08-31 11:32:06 | 49.70702 | 12.83867 | 66° | 146km/h | 12956m | 4.2m/s | -52.4°C | 6.1% | 175.6hPa | 2.7V | 00:00:00 | 01:14:59 | 00:00:00 | |
| AM1SDL-15 | 2026-08-31 11:32:05 | 49.70687 | 12.83816 | 66° | 146km/h | 12953m | 3.1m/s | -52.4°C | 6.0% | 175.7hPa | 2.7V | 00:00:00 | 01:14:58 | 00:00:00 | |
| OE5MMP-10 | 2026-08-31 11:32:03 | 49.70657 | 12.83712 | 66° | 146km/h | 12945m | 4.2m/s | -52.4°C | 6.0% | 175.9hPa | 2.7V | 00:00:00 | 01:14:56 | 00:00:00 | |
| DM0DOS-11 | 2026-08-31 11:32:02 | 49.70611 | 12.83556 | 65° | 146km/h | 12932m | 4.1m/s | -52.3°C | 5.9% | 176.3hPa | 2.7V | 04:35:24 | 01:14:53 | 00:00:00 | |
| DK5PH-5 | 2026-08-31 11:32:02 | 49.70642 | 12.83660 | 66° | 144km/h | 12941m | 3.9m/s | -52.4°C | 5.9% | 176.1hPa | 2.7V | 00:00:00 | 01:14:55 | 00:00:00 | |
| DB0UT-9 | 2026-08-31 11:32:01 | 49.70642 | 12.83660 | 67° | 146km/h | 12941m | 3.9m/s | -52.4°C | 3.0% | 176.1hPa | 2.7V | 04:35:00 | 00:00:00 | 00:00:00 | |
| DO3MHA-11 | 2026-08-31 11:31:59 | 49.70595 | 12.83504 | 66° | 146km/h | 12928m | 3.2m/s | -52.2°C | 5.9% | 176.3hPa | 2.7V | 00:00:00 | 01:14:52 | 00:00:00 | |
| DF2AP-13 | 2026-08-31 11:31:57 | 49.70565 | 12.83401 | 66° | 142km/h | 12920m | 3.7m/s | -52.2°C | 5.8% | 176.6hPa | 2.7V | 04:35:00 | 01:14:50 | 00:00:00 | |
| DM0DOS-11 | 2026-08-31 11:31:55 | 49.70461 | 12.83039 | 65° | 146km/h | 12892m | 4.7m/s | -52.1°C | 5.7% | 177.4hPa | 2.7V | 04:35:34 | 01:14:43 | 00:00:00 | |
| DB0ND-19 | 2026-08-31 11:31:50 | 49.70461 | 12.83039 | 65° | 146km/h | 12892m | 4.7m/s | -52.1°C | 2.9% | 177.4hPa | 2.8V | 00:00:00 | 00:00:00 | 00:00:00 | |
| DL9SK-14 | 2026-08-31 11:31:49 | 49.70430 | 12.82934 | 65° | 146km/h | 12885m | 2.6m/s | -52.0°C | 2.9% | 177.7hPa | 2.8V | 00:00:00 | 00:00:00 | 00:00:00 | |
| PG1ADW-2 | 2026-08-31 11:31:46 | 49.70400 | 12.82832 | 67° | 142km/h | 12877m | 4.2m/s | -51.9°C | 5.7% | 177.8hPa | 2.8V | 00:00:00 | 00:00:00 | 00:00:00 | |
| ANDY1245 | 2026-08-31 11:31:45 | 49.70400 | 12.82832 | 67° | 141km/h | 12877m | 4.3m/s | -52.0°C | 2.9% | 177.8hPa | 2.8V | 00:00:00 | 00:00:00 | 00:00:00 | |
| DM0DOS-11 | 2026-08-31 11:31:44 | 49.70314 | 12.82528 | 64° | 144km/h | 12854m | 5m/s | -51.9°C | 5.4% | 178.4hPa | 2.8V | 04:35:44 | 01:14:33 | 00:00:00 | |
| BIOWL1-15 | 2026-08-31 11:31:43 | 49.70314 | 12.82528 | 65° | 144km/h | 12854m | 5.1m/s | 0°C | 0% | 0hPa | 2.8V | 18:12:15 | 01:14:33 | 00:00:00 | |
| OE5MMP-10 | 2026-08-31 11:31:43 | 49.70358 | 12.82682 | 67° | 144km/h | 12866m | 4.4m/s | -51.9°C | 5.6% | 178.1hPa | 2.7V | 00:00:00 | 01:14:36 | 00:00:00 | |
| DB0UT-9 | 2026-08-31 11:31:42 | 49.70344 | 12.82631 | 68° | 144km/h | 12862m | 3.4m/s | -51.9°C | 2.7% | 178.3hPa | 2.7V | 00:00:00 | 00:00:00 | 00:00:00 | |
| AM1SDL-15 | 2026-08-31 11:31:41 | 49.70330 | 12.82579 | 66° | 142km/h | 12858m | 3.5m/s | -51.9°C | 5.5% | 178.3hPa | 2.7V | 04:35:00 | 01:14:34 | 00:00:00 | |
| DB0NH | 2026-08-31 11:31:40 | 49.70314 | 12.82528 | 65° | 139km/h | 12854m | 5.0m/s | -51.9°C | 5.4% | 178.4hPa | 2.7V | 00:00:00 | 01:14:33 | 00:00:00 | |
| DO3MHA-11 | 2026-08-31 11:31:39 | 49.70299 | 12.82478 | 64° | 142km/h | 12849m | 4.1m/s | -51.9°C | 5.4% | 178.5hPa | 2.7V | 00:00:00 | 01:14:32 | 00:00:00 | |
| NBG1-10 | 2026-08-31 11:31:35 | 49.70230 | 12.82279 | 63° | 137km/h | 12834m | 2.2m/s | -52.1°C | 5.5% | 179.0hPa | 2.8V | 04:35:00 | 01:14:28 | 00:00:00 | |
| DM0DOS-11 | 2026-08-31 11:31:33 | 49.70153 | 12.82034 | 65° | 141km/h | 12816m | 4.1m/s | -52.2°C | 5.5% | 179.5hPa | 2.8V | 04:35:54 | 01:14:23 | 00:00:00 | |
| DK5PH-5 | 2026-08-31 11:31:32 | 49.70182 | 12.82132 | 65° | 137km/h | 12823m | 2.9m/s | -52.2°C | 5.5% | 179.3hPa | 2.7V | 00:00:00 | 01:14:25 | 00:00:00 | |
| DO3MHA-11 | 2026-08-31 11:31:29 | 49.70138 | 12.81984 | 66° | 137km/h | 12812m | 4.0m/s | -52.2°C | 5.5% | 179.6hPa | 2.7V | 00:00:00 | 01:14:22 | 00:00:00 | |
| SONDE2-11 | 2026-08-31 11:31:28 | 49.70123 | 12.81933 | 65° | 141km/h | 12808m | 3.7m/s | -52.2°C | 2.7% | 179.7hPa | 2.7V | 00:00:00 | 00:00:00 | 00:00:00 | |
| DF2AP-13 | 2026-08-31 11:31:27 | 49.70108 | 12.81883 | 65° | 135km/h | 12804m | 3.5m/s | -52.2°C | 5.6% | 179.8hPa | 2.7V | 00:00:00 | 01:14:20 | 00:00:00 | |
| PG1ADW-2 | 2026-08-31 11:31:26 | 49.70093 | 12.81834 | 65° | 135km/h | 12800m | 4.5m/s | -52.2°C | 5.7% | 179.9hPa | 2.7V | 00:00:00 | 00:00:00 | 00:00:00 | |
| DM0DOS-11 | 2026-08-31 11:31:25 | 49.70001 | 12.81552 | 61° | 131km/h | 12775m | 4.5m/s | -52.2°C | 5.5% | 180.7hPa | 2.8V | 04:36:04 | 01:14:13 | 00:00:00 | |
| DB0UT-7 | 2026-08-31 11:31:24 | 49.70062 | 12.81738 | 64° | 150km/h | 12792m | 3.2m/s | -52.2°C | 5.7% | 180.1hPa | 2.7V | 00:00:00 | 01:14:17 | 00:00:00 | |
| OE5MMP-10 | 2026-08-31 11:31:23 | 49.70048 | 12.81691 | 64° | 133km/h | 12788m | 4.6m/s | -52.2°C | 5.6% | 180.3hPa | 2.7V | 04:36:00 | 01:14:16 | 00:00:00 | |
| DO8TBO-1 | 2026-08-31 11:31:20 | 49.70001 | 12.81552 | 62° | 137km/h | 12775m | 4.5m/s | -52.1°C | 5.5% | 180.6hPa | 2.7V | 00:00:00 | 01:14:13 | 00:00:00 | |
| DO3MHA-11 | 2026-08-31 11:31:19 | 49.69985 | 12.81508 | 60° | 133km/h | 12771m | 3.5m/s | -52.1°C | 5.5% | 180.7hPa | 2.7V | 00:00:00 | 01:14:12 | 00:00:00 | |
| DL9SK-14 | 2026-08-31 11:31:17 | 49.69951 | 12.81418 | 60° | 133km/h | 12763m | 4.4m/s | -52.1°C | 2.7% | 181.0hPa | 2.7V | 00:00:00 | 00:00:00 | 00:00:00 | |
| EDDB2-11 | 2026-08-31 11:31:15 | 49.69901 | 12.81281 | 61° | 131km/h | 12752m | 4.3m/s | -52.0°C | 2.7% | 181.3hPa | 2.7V | 00:00:00 | 00:00:00 | 00:00:00 | |
| DM0DOS-11 | 2026-08-31 11:31:14 | 49.69838 | 12.81096 | 63° | 135km/h | 12736m | 3.8m/s | -51.9°C | 5.5% | 181.8hPa | 2.7V | 04:36:14 | 01:14:03 | 00:00:00 | |
| OE5MMP-10 | 2026-08-31 11:31:13 | 49.69885 | 12.81236 | 62° | 135km/h | 12748m | 3.7m/s | -52.0°C | 5.6% | 181.4hPa | 2.7V | 00:00:00 | 01:14:06 | 00:00:00 | |
| DB0NH | 2026-08-31 11:31:10 | 49.69838 | 12.81096 | 64° | 141km/h | 12736m | 3.8m/s | -51.9°C | 5.5% | 181.7hPa | 2.7V | 00:00:00 | 01:14:03 | 00:00:00 | |
| DO3MHA-11 | 2026-08-31 11:31:09 | 49.69822 | 12.81049 | 64° | 137km/h | 12731m | 4.6m/s | -51.9°C | 5.5% | 181.8hPa | 2.7V | 00:00:00 | 01:14:02 | 00:00:00 | |
| PG1ADW-2 | 2026-08-31 11:31:06 | 49.69777 | 12.80908 | 63° | 141km/h | 12720m | 4.1m/s | -51.8°C | 5.5% | 182.1hPa | 2.7V | 04:36:00 | 00:00:00 | 00:00:00 | |
| OE5MMP-10 | 2026-08-31 11:31:03 | 49.69729 | 12.80766 | 62° | 139km/h | 12708m | 3.9m/s | -51.7°C | 5.5% | 182.5hPa | 2.7V | 00:00:00 | 01:13:56 | 00:00:00 | |
| DM0DOS-11 | 2026-08-31 11:31:02 | 49.69679 | 12.80624 | 62° | 139km/h | 12697m | 3.7m/s | -51.7°C | 5.6% | 182.8hPa | 2.7V | 04:36:24 | 01:13:53 | 00:00:00 | |
| DL6DJ-15 | 2026-08-31 11:31:01 | 49.69696 | 12.80671 | 61° | 137km/h | 12700m | 3.2m/s | -51.7°C | 2.8% | 182.7hPa | 2.7V | 00:00:00 | 00:00:00 | 00:00:00 | |
| DF7PN | 2026-08-31 11:31:00 | 49.69679 | 12.80624 | 62° | 139km/h | 12697m | 3.7m/s | -51.7°C | 2.8% | 182.8hPa | 2.7V | 00:00:00 | 00:00:00 | 00:00:00 | |
| DO3MHA-11 | 2026-08-31 11:30:59 | 49.69663 | 12.80575 | 64° | 141km/h | 12693m | 4.5m/s | -51.6°C | 5.6% | 182.9hPa | 2.7V | 04:36:00 | 01:13:52 | 00:00:00 | |
| DF2AP-13 | 2026-08-31 11:30:57 | 49.69631 | 12.80475 | 65° | 144km/h | 12685m | 3.1m/s | -51.5°C | 5.5% | 183.1hPa | 2.7V | 00:00:00 | 01:13:50 | 00:00:00 | |
| OE5DRO-10 | 2026-08-31 11:30:54 | 49.69585 | 12.80329 | 64° | 142km/h | 12674m | 3.0m/s | -51.4°C | 5.5% | 183.4hPa | 2.8V | 04:36:00 | 00:00:00 | 00:00:00 | |
| OE5MMP-10 | 2026-08-31 11:30:53 | 49.69569 | 12.80281 | 64° | 142km/h | 12671m | 3.4m/s | -51.4°C | 5.6% | 183.5hPa | 2.8V | 00:00:00 | 01:13:46 | 00:00:00 | |
| DM0DOS-11 | 2026-08-31 11:30:51 | 49.69522 | 12.80133 | 63° | 144km/h | 12659m | 3.5m/s | -51.4°C | 5.6% | 183.9hPa | 2.8V | 04:36:34 | 01:13:43 | 00:00:00 | |
| DB0ND-19 | 2026-08-31 11:30:48 | 49.69457 | 12.79932 | 63° | 144km/h | 12644m | 4.2m/s | -51.5°C | 2.8% | 184.3hPa | 2.7V | 00:00:00 | 00:00:00 | 00:00:00 | |
| PG1ADW-2 | 2026-08-31 11:30:46 | 49.69457 | 12.79932 | 64° | 146km/h | 12644m | 4.1m/s | -51.5°C | 5.5% | 184.3hPa | 2.7V | 00:00:00 | 01:13:39 | 00:00:00 | |
| DM0DOS-11 | 2026-08-31 11:30:45 | 49.69324 | 12.79538 | 62° | 146km/h | 12614m | 3m/s | -51.5°C | 5.7% | 185.2hPa | 2.7V | 04:36:46 | 01:13:31 | 00:00:00 | |
| EDDB2-11 | 2026-08-31 11:30:44 | 49.69408 | 12.79780 | 62° | 142km/h | 12632m | 4.3m/s | -51.6°C | 2.7% | 184.7hPa | 2.7V | 00:00:00 | 00:00:00 | 00:00:00 | |
| OE5MMP-10 | 2026-08-31 11:30:43 | 49.69408 | 12.79780 | 63° | 146km/h | 12633m | 4.3m/s | -51.5°C | 5.5% | 184.6hPa | 2.7V | 00:00:00 | 01:13:36 | 00:00:00 | |
| ANDY1245 | 2026-08-31 11:30:42 | 49.69408 | 12.79780 | 64° | 142km/h | 12633m | 4.3m/s | -51.6°C | 2.8% | 184.7hPa | 2.7V | 04:37:00 | 00:00:00 | 00:00:00 | |
| DB0NH | 2026-08-31 11:30:40 | 49.69358 | 12.79636 | 62° | 151km/h | 12621m | 4.2m/s | -51.5°C | 5.6% | 184.9hPa | 2.7V | 00:00:00 | 01:13:33 | 00:00:00 | |
| DO3MHA-11 | 2026-08-31 11:30:39 | 49.69342 | 12.79588 | 62° | 150km/h | 12617m | 3.7m/s | -51.5°C | 5.7% | 185.1hPa | 2.7V | 00:00:00 | 01:13:32 | 00:00:00 | |
| OE5DRO-10 | 2026-08-31 11:30:35 | 49.69273 | 12.79382 | 64° | 151km/h | 12603m | 3.2m/s | -51.5°C | 5.6% | 185.5hPa | 2.8V | 00:00:00 | 00:00:00 | 00:00:00 | |
| OE5MMP-10 | 2026-08-31 11:30:33 | 49.69238 | 12.79277 | 63° | 150km/h | 12595m | 4.1m/s | -51.6°C | 5.6% | 185.7hPa | 2.8V | 04:36:00 | 01:13:26 | 00:00:00 | |
| DM0DOS-11 | 2026-08-31 11:30:32 | 49.69168 | 12.79069 | 63° | 150km/h | 12579m | 3.5m/s | -51.5°C | 5.4% | 186.2hPa | 2.8V | 04:36:55 | 01:13:22 | 00:00:00 | |
| DK5PH-5 | 2026-08-31 11:30:32 | 49.69220 | 12.79225 | 63° | 153km/h | 12591m | 3.2m/s | -51.5°C | 5.5% | 185.8hPa | 2.7V | 00:00:00 | 01:13:25 | 00:00:00 | |
| DL6DJ-15 | 2026-08-31 11:30:30 | 49.69185 | 12.79121 | 63° | 150km/h | 12583m | 4.4m/s | -51.5°C | 2.7% | 186.1hPa | 2.7V | 00:00:00 | 00:00:00 | 00:00:00 | |
| DO3MHA-11 | 2026-08-31 11:30:29 | 49.69168 | 12.79069 | 64° | 151km/h | 12579m | 3.4m/s | -51.5°C | 5.4% | 186.1hPa | 2.7V | 00:00:00 | 01:13:22 | 00:00:00 | |
| DF2AP-13 | 2026-08-31 11:30:27 | 49.69135 | 12.78965 | 64° | 153km/h | 12571m | 4.3m/s | -51.4°C | 5.4% | 186.4hPa | 2.7V | 00:00:00 | 01:13:20 | 00:00:00 | |
| PG1ADW-2 | 2026-08-31 11:30:26 | 49.69118 | 12.78913 | 64° | 153km/h | 12567m | 2.9m/s | -51.4°C | 5.4% | 186.5hPa | 2.7V | 00:00:00 | 00:00:00 | 00:00:00 | |
| SP3BTT-10 | 2026-08-31 11:30:24 | 49.69084 | 12.78807 | 65° | 148km/h | 12560m | 4.1m/s | 0°C | 0% | 0hPa | 2.8V | 00:00:00 | 00:00:00 | 00:00:00 | |
| OE5MMP-10 | 2026-08-31 11:30:23 | 49.69067 | 12.78753 | 64° | 153km/h | 12556m | 3.1m/s | -51.4°C | 5.4% | 186.8hPa | 2.8V | 00:00:00 | 01:13:16 | 00:00:00 | |
| DM0DOS-11 | 2026-08-31 11:30:22 | 49.68977 | 12.78486 | 63° | 151km/h | 12537m | 4.3m/s | -51.5°C | 5.5% | 187.4hPa | 2.8V | 04:37:06 | 01:13:11 | 00:00:00 | |
| DO8TBO-1 | 2026-08-31 11:30:20 | 49.69013 | 12.78592 | 63° | 150km/h | 12545m | 3.2m/s | -51.5°C | 5.5% | 187.2hPa | 2.7V | 04:37:00 | 01:13:13 | 00:00:00 | |
| DO3MHA-11 | 2026-08-31 11:30:19 | 49.68995 | 12.78539 | 63° | 153km/h | 12542m | 3.9m/s | -51.5°C | 5.5% | 187.2hPa | 2.8V | 00:00:00 | 01:13:12 | 00:00:00 | |
| DL9SK-14 | 2026-08-31 11:30:16 | 49.68927 | 12.78328 | 63° | 150km/h | 12527m | 4.3m/s | -51.5°C | 2.8% | 187.7hPa | 2.8V | 00:00:00 | 00:00:00 | 00:00:00 | |
| EDDB2-11 | 2026-08-31 11:30:13 | 49.68874 | 12.78169 | 63° | 153km/h | 12516m | 3.6m/s | -51.5°C | 2.8% | 188.0hPa | 2.8V | 00:00:00 | 00:00:00 | 00:00:00 | |
| DM0DOS-11 | 2026-08-31 11:30:12 | 49.68806 | 12.77952 | 63° | 155km/h | 12500m | 4.2m/s | -51.7°C | 5.6% | 188.5hPa | 2.8V | 04:37:16 | 01:13:01 | 00:00:00 | |
| DB0UT-7 | 2026-08-31 11:30:11 | 49.68857 | 12.78115 | 65° | 150km/h | 12512m | 4.0m/s | -51.4°C | 5.5% | 188.1hPa | 2.7V | 00:00:00 | 00:00:00 | 00:00:00 | |
| DB0NH | 2026-08-31 11:30:10 | 49.68840 | 12.78061 | 65° | 150km/h | 12509m | 3.4m/s | -51.5°C | 5.5% | 188.2hPa | 2.7V | 00:00:00 | 01:13:03 | 00:00:00 | |
| DO3MHA-11 | 2026-08-31 11:30:09 | 49.68823 | 12.78006 | 65° | 155km/h | 12505m | 3.9m/s | -51.5°C | 5.5% | 188.3hPa | 2.7V | 04:37:00 | 01:13:02 | 00:00:00 | |
| PG1ADW-2 | 2026-08-31 11:30:06 | 49.68772 | 12.77844 | 64° | 150km/h | 12493m | 4.3m/s | -51.7°C | 5.6% | 188.6hPa | 2.7V | 00:00:00 | 00:00:00 | 00:00:00 | |
| ANDY1245 | 2026-08-31 11:30:05 | 49.68772 | 12.77844 | 65° | 155km/h | 12493m | 4.4m/s | -51.8°C | 2.9% | 188.7hPa | 2.7V | 04:38:00 | 00:00:00 | 00:00:00 | |
| DM0DOS-11 | 2026-08-31 11:30:02 | 49.68637 | 12.77411 | 65° | 150km/h | 12461m | 3.9m/s | -51.8°C | 5.9% | 189.6hPa | 2.7V | 04:37:26 | 01:12:51 | 00:00:00 | |
| DL6DJ-15 | 2026-08-31 11:29:59 | 49.68652 | 12.77464 | 65° | 150km/h | 12464m | 3.5m/s | -51.8°C | 3.0% | 189.5hPa | 2.8V | 00:00:00 | 00:00:00 | 00:00:00 | |
| DF7PN | 2026-08-31 11:29:58 | 49.68637 | 12.77411 | 65° | 148km/h | 12461m | 3.9m/s | -51.8°C | 3.0% | 189.6hPa | 2.8V | 00:00:00 | 00:00:00 | 00:00:00 | |
| SONDE2-11 | 2026-08-31 11:29:55 | 49.68575 | 12.77201 | 65° | 146km/h | 12445m | 4.2m/s | -51.9°C | 3.1% | 190.1hPa | 2.8V | 00:00:00 | 00:00:00 | 00:00:00 | |
| OE5DXL-15 | 2026-08-31 11:29:53 | 49.68559 | 12.77149 | 66° | 148km/h | 12441m | 3.2m/s | -52.0°C | 6.0% | 190.1hPa | 2.8V | 04:37:00 | 00:00:00 | 00:00:00 | |
| DM0DOS-11 | 2026-08-31 11:29:52 | 49.68477 | 12.76894 | 62° | 144km/h | 12421m | 3.5m/s | -51.9°C | 6% | 190.8hPa | 2.8V | 04:37:36 | 01:12:41 | 00:00:00 | |
| DO3MHA-11 | 2026-08-31 11:29:49 | 49.68494 | 12.76944 | 64° | 144km/h | 12425m | 4.4m/s | -51.8°C | 5.9% | 190.7hPa | 2.7V | 00:00:00 | 01:12:42 | 00:00:00 | |
| DO8TBO-1 | 2026-08-31 11:29:48 | 49.68477 | 12.76894 | 63° | 148km/h | 12421m | 3.4m/s | -51.8°C | 6.0% | 190.8hPa | 2.7V | 00:00:00 | 01:12:41 | 00:00:00 | |
| PG1ADW-2 | 2026-08-31 11:29:46 | 49.68443 | 12.76794 | 63° | 150km/h | 12413m | 3.9m/s | -51.7°C | 5.9% | 191.0hPa | 2.7V | 00:00:00 | 00:00:00 | 00:00:00 | |
| DL9SK-14 | 2026-08-31 11:29:44 | 49.68394 | 12.76642 | 64° | 144km/h | 12402m | 4.7m/s | -52.0°C | 3.3% | 191.3hPa | 2.7V | 00:00:00 | 00:00:00 | 00:00:00 | |
| OE5MMP-10 | 2026-08-31 11:29:43 | 49.68393 | 12.76642 | 65° | 148km/h | 12402m | 4.6m/s | -51.9°C | 6.1% | 191.3hPa | 2.7V | 00:00:00 | 01:12:36 | 00:00:00 | |
| EDDB2-11 | 2026-08-31 11:29:42 | 49.68364 | 12.76539 | 66° | 142km/h | 12395m | 3.2m/s | -52.0°C | 3.3% | 191.6hPa | 2.7V | 00:00:00 | 00:00:00 | 00:00:00 | |
| DB0UT-7 | 2026-08-31 11:29:41 | 49.68364 | 12.76539 | 67° | 151km/h | 12395m | 3.2m/s | -51.9°C | 6.1% | 191.6hPa | 2.7V | 04:37:00 | 01:12:34 | 00:00:00 | |
| DO3MHA-11 | 2026-08-31 11:29:39 | 49.68333 | 12.76436 | 65° | 153km/h | 12386m | 4.5m/s | -51.9°C | 6.3% | 191.8hPa | 2.7V | 00:00:00 | 01:12:32 | 00:00:00 | |
| OE5DRO-10 | 2026-08-31 11:29:38 | 49.68317 | 12.76384 | 64° | 151km/h | 12382m | 4.1m/s | -51.9°C | 6.2% | 191.9hPa | 2.7V | 00:00:00 | 00:00:00 | 00:00:00 | |
| DM0DOS-11 | 2026-08-31 11:29:37 | 49.68246 | 12.76172 | 62° | 153km/h | 12362m | 4.9m/s | -52°C | 6.4% | 192.6hPa | 2.7V | 04:37:50 | 01:12:27 | 00:00:00 | |
| DL1JEZ-13 | 2026-08-31 11:29:35 | 49.68282 | 12.76278 | 63° | 155km/h | 12374m | 4.9m/s | -52.0°C | 0% | 0hPa | 2.7V | 04:38:00 | 00:00:00 | 00:00:00 | |
| OE5MMP-10 | 2026-08-31 11:29:33 | 49.68228 | 12.76118 | 63° | 151km/h | 12358m | 3.6m/s | -52.0°C | 6.4% | 192.6hPa | 2.7V | 04:37:00 | 01:12:26 | 00:00:00 | |
| DK5PH-5 | 2026-08-31 11:29:32 | 49.68210 | 12.76065 | 63° | 148km/h | 12354m | 4.8m/s | -52.0°C | 6.4% | 192.7hPa | 2.7V | 00:00:00 | 01:12:25 | 00:00:00 | |
| DO3MHA-11 | 2026-08-31 11:29:29 | 49.68158 | 12.75906 | 65° | 150km/h | 12341m | 4.1m/s | -52.2°C | 6.7% | 193.2hPa | 2.7V | 00:00:00 | 01:12:22 | 00:00:00 | |
| DL6DJ-15 | 2026-08-31 11:29:28 | 49.68142 | 12.75853 | 64° | 150km/h | 12337m | 3.0m/s | -52.2°C | 3.7% | 193.3hPa | 2.7V | 00:00:00 | 00:00:00 | 00:00:00 | |
| DF2AP-13 | 2026-08-31 11:29:27 | 49.68125 | 12.75801 | 64° | 148km/h | 12334m | 4.3m/s | -52.2°C | 6.7% | 193.4hPa | 2.7V | 04:37:00 | 01:12:20 | 00:00:00 | |
| DM0DOS-11 | 2026-08-31 11:29:26 | 49.68072 | 12.75647 | 61° | 148km/h | 12321m | 3.9m/s | -52.3°C | 6.7% | 193.7hPa | 2.8V | 04:38:00 | 01:12:17 | 00:00:00 | |
| PG1ADW-2 | 2026-08-31 11:29:26 | 49.68108 | 12.75749 | 63° | 148km/h | 12329m | 4.3m/s | -52.3°C | 6.7% | 193.5hPa | 2.7V | 04:37:00 | 01:12:19 | 00:00:00 | |
| SONDE2-11 | 2026-08-31 11:29:25 | 49.68054 | 12.75596 | 61° | 148km/h | 12317m | 4.3m/s | -52.3°C | 3.7% | 193.9hPa | 2.8V | 00:00:00 | 00:00:00 | 00:00:00 | |
| NBG1-10 | 2026-08-31 11:29:23 | 49.68054 | 12.75596 | 62° | 148km/h | 12317m | 4.2m/s | -52.3°C | 6.7% | 193.8hPa | 2.8V | 00:00:00 | 01:12:16 | 00:00:00 | |
| ANDY1245 | 2026-08-31 11:29:21 | 49.68036 | 12.75545 | 63° | 148km/h | 12314m | 3.1m/s | -52.3°C | 3.8% | 194.0hPa | 2.8V | 04:38:00 | 00:00:00 | 00:00:00 | |
| DO3MHA-11 | 2026-08-31 11:29:19 | 49.67982 | 12.75394 | 61° | 146km/h | 12301m | 3.8m/s | -52.2°C | 6.7% | 194.4hPa | 2.8V | 04:38:00 | 01:12:12 | 00:00:00 | |
| DO8TBO-1 | 2026-08-31 11:29:18 | 49.67963 | 12.75344 | 62° | 151km/h | 12297m | 3.5m/s | -52.2°C | 6.7% | 194.4hPa | 2.8V | 00:00:00 | 01:12:11 | 00:00:00 | |
| DM0DOS-11 | 2026-08-31 11:29:16 | 49.67894 | 12.75140 | 62° | 146km/h | 12282m | 4.6m/s | -52.2°C | 6.8% | 195hPa | 2.8V | 04:38:10 | 01:12:07 | 00:00:00 | |
| OE5WHR-10 | 2026-08-31 11:29:15 | 49.67911 | 12.75191 | 64° | 155km/h | 12286m | 3.5m/s | -52.2°C | 6.8% | 194.8hPa | 2.7V | 00:00:00 | 00:00:00 | 00:00:00 | |
| DL1JEZ-13 | 2026-08-31 11:29:14 | 49.67912 | 12.75191 | 64° | 148km/h | 12286m | 3.6m/s | -52.2°C | 0% | 0hPa | 2.7V | 00:00:00 | 00:00:00 | 00:00:00 | |
| OE5MMP-10 | 2026-08-31 11:29:13 | 49.67877 | 12.75090 | 62° | 146km/h | 12278m | 3.8m/s | -52.1°C | 6.8% | 195.0hPa | 2.7V | 00:00:00 | 01:12:06 | 00:00:00 | |
| SONCRA | 2026-08-31 11:29:11 | 49.67842 | 12.74991 | 61° | 142km/h | 12270m | 4.0m/s | -52.1°C | 3.8% | 195.3hPa | 2.7V | 00:00:00 | 00:00:00 | 00:00:00 | |
| DB0NH | 2026-08-31 11:29:10 | 49.67825 | 12.74942 | 62° | 150km/h | 12266m | 4.2m/s | -52.0°C | 7.0% | 195.4hPa | 2.7V | 00:00:00 | 01:12:03 | 00:00:00 | |
| DO3MHA-11 | 2026-08-31 11:29:09 | 49.67807 | 12.74892 | 62° | 148km/h | 12262m | 3.8m/s | -52.0°C | 7.0% | 195.5hPa | 2.7V | 00:00:00 | 01:12:02 | 00:00:00 | |
| DM0DOS-11 | 2026-08-31 11:29:04 | 49.67720 | 12.74641 | 63° | 148km/h | 12242m | 3.9m/s | -52°C | 7% | 196.2hPa | 2.7V | 04:38:20 | 01:11:57 | 00:00:00 | |
| OE5MMP-10 | 2026-08-31 11:29:03 | 49.67703 | 12.74589 | 64° | 148km/h | 12239m | 3.9m/s | -52.0°C | 7.1% | 196.2hPa | 2.7V | 00:00:00 | 01:11:56 | 00:00:00 | |
| DK5PH-5 | 2026-08-31 11:29:02 | 49.67686 | 12.74537 | 64° | 151km/h | 12235m | 3.5m/s | -52.0°C | 7.1% | 196.4hPa | 2.8V | 00:00:00 | 01:11:55 | 00:00:00 | |
| OE5DRO-10 | 2026-08-31 11:29:00 | 49.67652 | 12.74432 | 63° | 151km/h | 12227m | 3.9m/s | -52.0°C | 6.9% | 196.5hPa | 2.8V | 00:00:00 | 00:00:00 | 00:00:00 | |
| DM0DOS-11 | 2026-08-31 11:28:59 | 49.67548 | 12.74131 | 60° | 150km/h | 12204m | 4.1m/s | -52°C | 7.1% | 197.3hPa | 2.8V | 04:38:30 | 01:11:47 | 00:00:00 | |
| DL6DJ-15 | 2026-08-31 11:28:57 | 49.67601 | 12.74282 | 62° | 142km/h | 12215m | 3.8m/s | -52.2°C | 4.1% | 197.0hPa | 2.7V | 00:00:00 | 00:00:00 | 00:00:00 | |
| DF7PN | 2026-08-31 11:28:56 | 49.67567 | 12.74182 | 61° | 146km/h | 12208m | 3.9m/s | -52.1°C | 4.1% | 197.2hPa | 2.7V | 00:00:00 | 00:00:00 | 00:00:00 | |
| SONDE2-11 | 2026-08-31 11:28:53 | 49.67511 | 12.74029 | 61° | 150km/h | 12196m | 4.3m/s | -52.0°C | 4.1% | 197.6hPa | 2.7V | 00:00:00 | 00:00:00 | 00:00:00 | |
| NBG1-10 | 2026-08-31 11:28:50 | 49.67476 | 12.73925 | 64° | 153km/h | 12188m | 3.3m/s | -51.9°C | 7.2% | 197.8hPa | 2.7V | 04:38:00 | 01:11:43 | 00:00:00 | |
| DM0DOS-11 | 2026-08-31 11:28:49 | 49.67356 | 12.73546 | 63° | 155km/h | 12159m | 4.6m/s | -52°C | 7.9% | 198.7hPa | 2.8V | 04:38:41 | 01:11:36 | 00:00:00 | |
| PG1ADW-2 | 2026-08-31 11:28:46 | 49.67407 | 12.73708 | 65° | 151km/h | 12172m | 4.6m/s | -52.0°C | 7.5% | 198.3hPa | 2.7V | 00:00:00 | 00:00:00 | 00:00:00 | |
| DB0ND-19 | 2026-08-31 11:28:44 | 49.67374 | 12.73600 | 64° | 153km/h | 12164m | 4.1m/s | -52.1°C | 4.5% | 198.5hPa | 2.7V | 00:00:00 | 00:00:00 | 00:00:00 | |
| OE5MMP-10 | 2026-08-31 11:28:43 | 49.67356 | 12.73546 | 64° | 151km/h | 12159m | 4.6m/s | -52.0°C | 7.9% | 198.7hPa | 2.7V | 04:38:00 | 01:11:36 | 00:00:00 | |
| DB0NH | 2026-08-31 11:28:40 | 49.67303 | 12.73385 | 63° | 155km/h | 12148m | 4.4m/s | -52.0°C | 7.8% | 199.0hPa | 2.7V | 00:00:00 | 01:11:33 | 00:00:00 | |
| DO3MHA-11 | 2026-08-31 11:28:39 | 49.67285 | 12.73333 | 63° | 151km/h | 12144m | 3.9m/s | -52.1°C | 7.8% | 199.1hPa | 2.7V | 00:00:00 | 01:11:32 | 00:00:00 | |
| DM0DOS-11 | 2026-08-31 11:28:38 | 49.67200 | 12.73070 | 63° | 150km/h | 12123m | 4.5m/s | -52°C | 7.7% | 199.9hPa | 2.7V | 04:38:50 | 01:11:27 | 00:00:00 | |
| DB0UT-9 | 2026-08-31 11:28:36 | 49.67251 | 12.73229 | 64° | 151km/h | 12136m | 4.6m/s | -52.1°C | 4.7% | 199.4hPa | 2.7V | 04:38:00 | 00:00:00 | 00:00:00 | |
| OE5MMP-10 | 2026-08-31 11:28:33 | 49.67183 | 12.73017 | 65° | 153km/h | 12119m | 3.0m/s | -51.9°C | 7.7% | 199.9hPa | 2.7V | 00:00:00 | 01:11:26 | 00:00:00 | |
| DK5PH-5 | 2026-08-31 11:28:32 | 49.67167 | 12.72964 | 65° | 157km/h | 12116m | 3.6m/s | 0°C | 0% | 0hPa | 2.8V | 04:38:00 | 01:11:25 | 00:00:00 | |
| DO3MHA-11 | 2026-08-31 11:28:29 | 49.67117 | 12.72803 | 65° | 155km/h | 12103m | 4.6m/s | -52.0°C | 8.0% | 200.4hPa | 2.8V | 04:38:00 | 01:11:22 | 00:00:00 | |
| DM0DOS-11 | 2026-08-31 11:28:28 | 49.67026 | 12.72540 | 60° | 155km/h | 12083m | 3.5m/s | -52°C | 8.2% | 201hPa | 2.8V | 04:39:00 | 01:11:17 | 00:00:00 | |
| DB0UT-7 | 2026-08-31 11:28:28 | 49.67100 | 12.72749 | 63° | 157km/h | 12099m | 3.9m/s | -52.0°C | 8.1% | 200.5hPa | 2.7V | 00:00:00 | 00:00:00 | 00:00:00 | |
| DF2AP-13 | 2026-08-31 11:28:27 | 49.67082 | 12.72697 | 62° | 157km/h | 12095m | 3.2m/s | -51.9°C | 8.1% | 200.7hPa | 2.7V | 00:00:00 | 01:11:20 | 00:00:00 | |
| PG1ADW-2 | 2026-08-31 11:28:26 | 49.67064 | 12.72645 | 62° | 157km/h | 12091m | 4.8m/s | -51.9°C | 8.1% | 200.7hPa | 2.7V | 00:00:00 | 00:00:00 | 00:00:00 | |
| DF7PN | 2026-08-31 11:28:24 | 49.67026 | 12.72540 | 60° | 153km/h | 12083m | 3.5m/s | -52.0°C | 5.0% | 201.0hPa | 2.8V | 00:00:00 | 00:00:00 | 00:00:00 | |
| OE5MMP-10 | 2026-08-31 11:28:23 | 49.67006 | 12.72487 | 61° | 161km/h | 12079m | 4.6m/s | 0°C | 0% | 0hPa | 2.8V | 00:00:00 | 01:11:16 | 00:00:00 | |
| SONDE2-11 | 2026-08-31 11:28:22 | 49.66968 | 12.72380 | 61° | 159km/h | 12070m | 4.5m/s | 0°C | -1.0% | -1.0hPa | 2.8V | 00:00:00 | 00:00:00 | 00:00:00 | |
| SP3BTT-10 | 2026-08-31 11:28:21 | 49.66968 | 12.72380 | 62° | 164km/h | 12071m | 4.5m/s | 0°C | 0% | 0hPa | 2.8V | 00:00:00 | 00:00:00 | 00:00:00 | |
| DO3MHA-11 | 2026-08-31 11:28:19 | 49.66930 | 12.72268 | 64° | 159km/h | 12063m | 2.9m/s | -51.9°C | 8.4% | 201.6hPa | 2.8V | 00:00:00 | 01:11:12 | 00:00:00 | |
| DM0DOS-11 | 2026-08-31 11:28:18 | 49.66842 | 12.71986 | 62° | 159km/h | 12044m | 4m/s | -52°C | 9.1% | 202.3hPa | 2.8V | 04:39:10 | 01:11:07 | 00:00:00 | |
| NBG1-10 | 2026-08-31 11:28:17 | 49.66895 | 12.72154 | 65° | 155km/h | 12055m | 3.9m/s | -51.9°C | 8.7% | 201.9hPa | 2.7V | 00:00:00 | 01:11:10 | 00:00:00 | |
| DB0UT-9 | 2026-08-31 11:28:15 | 49.66877 | 12.72098 | 65° | 159km/h | 12051m | 3.2m/s | -52.0°C | 5.5% | 202.1hPa | 2.7V | 00:00:00 | 00:00:00 | 00:00:00 | |
| OE5MMP-10 | 2026-08-31 11:28:13 | 49.66823 | 12.71932 | 63° | 157km/h | 12040m | 3.5m/s | 0°C | 0% | 0hPa | 2.7V | 00:00:00 | 01:11:06 | 00:00:00 | |
| DL9SK-14 | 2026-08-31 11:28:11 | 49.66767 | 12.71772 | 61° | 153km/h | 12028m | 3.9m/s | -52.2°C | 5.7% | 202.8hPa | 2.7V | 00:00:00 | 00:00:00 | 00:00:00 | |
| DB0NH | 2026-08-31 11:28:10 | 49.66767 | 12.71771 | 62° | 155km/h | 12028m | 3.9m/s | -52.2°C | 9.1% | 202.7hPa | 2.7V | 00:00:00 | 01:11:03 | 00:00:00 | |
| DO3MHA-11 | 2026-08-31 11:28:09 | 49.66748 | 12.71719 | 61° | 159km/h | 12023m | 5.0m/s | -52.1°C | 9.2% | 202.9hPa | 2.7V | 00:00:00 | 01:11:02 | 00:00:00 | |
| DM0DOS-11 | 2026-08-31 11:28:08 | 49.66655 | 12.71448 | 62° | 161km/h | 12002m | 4.7m/s | -52°C | 8.9% | 203.5hPa | 2.7V | 04:39:20 | 01:10:57 | 00:00:00 | |
| PG1ADW-2 | 2026-08-31 11:28:06 | 49.66691 | 12.71558 | 63° | 155km/h | 12011m | 4.3m/s | -51.9°C | 9.2% | 203.3hPa | 2.8V | 00:00:00 | 01:10:59 | 00:00:00 | |
| ANDY1245 | 2026-08-31 11:28:04 | 49.66673 | 12.71503 | 64° | 159km/h | 12007m | 3.5m/s | -52.0°C | 0% | 203.4hPa | 2.8V | 00:00:00 | 00:00:00 | 00:00:00 | |
| OE5MMP-10 | 2026-08-31 11:28:03 | 49.66636 | 12.71392 | 63° | 157km/h | 11998m | 4.0m/s | 0°C | 0% | 0hPa | 2.8V | 00:00:00 | 01:10:56 | 00:00:00 | |
| DK5PH-5 | 2026-08-31 11:28:02 | 49.66618 | 12.71336 | 64° | 155km/h | 11994m | 3.5m/s | 0°C | 0% | 0hPa | 2.8V | 00:00:00 | 01:10:55 | 00:00:00 | |
| DL1NUX | 2026-08-31 11:28:01 | 49.66507 | 12.71013 | 60° | 155km/h | 11971m | 3.6m/s | -52.1°C | 9.9% | 204.6hPa | 2.8V | 04:39:28 | 01:10:49 | 00:00:00 | |
| DO3MHA-11 | 2026-08-31 11:27:59 | 49.66564 | 12.71173 | 63° | 155km/h | 11984m | 3.8m/s | -51.9°C | 9.5% | 204.1hPa | 2.7V | 00:00:00 | 01:10:52 | 00:00:00 | |
| DB0UT-7 | 2026-08-31 11:27:58 | 49.66545 | 12.71119 | 62° | 164km/h | 11979m | 4.7m/s | -52.0°C | 9.6% | 204.3hPa | 2.7V | 00:00:00 | 01:10:51 | 00:00:00 | |
| DF2AP-13 | 2026-08-31 11:27:57 | 49.66526 | 12.71066 | 62° | 155km/h | 11975m | 3.9m/s | -52.0°C | 9.8% | 204.4hPa | 2.7V | 00:00:00 | 01:10:50 | 00:00:00 | |
| DM0DOS-11 | 2026-08-31 11:27:56 | 49.66470 | 12.70908 | 61° | 153km/h | 11962m | 3.7m/s | -52.2°C | 10.2% | 204.8hPa | 2.8V | 04:39:30 | 01:10:47 | 00:00:00 | |
| DL6DJ-15 | 2026-08-31 11:27:55 | 49.66470 | 12.70908 | 61° | 153km/h | 11962m | 3.7m/s | -52.2°C | 6.5% | 204.8hPa | 2.7V | 00:00:00 | 00:00:00 | 00:00:00 | |
| DF7PN | 2026-08-31 11:27:54 | 49.66452 | 12.70855 | 61° | 153km/h | 11958m | 4.6m/s | -52.2°C | 6.5% | -1.0hPa | 2.7V | 00:00:00 | 00:00:00 | 00:00:00 | |
| DL1JEZ-13 | 2026-08-31 11:27:53 | 49.66470 | 12.70908 | 63° | 153km/h | 11962m | 3.7m/s | -52.2°C | 0% | 0hPa | 2.7V | 00:00:00 | 00:00:00 | 00:00:00 | |
| DO8TBO-1 | 2026-08-31 11:27:51 | 49.66415 | 12.70748 | 63° | 157km/h | 11950m | 3.6m/s | -52.2°C | 10.1% | 205.2hPa | 2.7V | 00:00:00 | 01:10:44 | 00:00:00 | |
| DO3MHA-11 | 2026-08-31 11:27:49 | 49.66380 | 12.70643 | 64° | 151km/h | 11942m | 3.9m/s | -52.1°C | 10.0% | 205.4hPa | 2.7V | 00:00:00 | 01:10:42 | 00:00:00 | |
| DM0DOS-11 | 2026-08-31 11:27:48 | 49.66291 | 12.70385 | 61° | 150km/h | 11921m | 4.8m/s | -52.2°C | 10.1% | 206.2hPa | 2.7V | 04:39:40 | 01:10:37 | 00:00:00 | |
| NBG1-10 | 2026-08-31 11:27:44 | 49.66291 | 12.70385 | 62° | 161km/h | 11921m | 4.8m/s | -52.1°C | 10.1% | 206.2hPa | 2.8V | 00:00:00 | 01:10:37 | 00:00:00 | |
| OE5MMP-10 | 2026-08-31 11:27:43 | 49.66273 | 12.70334 | 62° | 155km/h | 11917m | 3.4m/s | 0°C | 0% | 0hPa | 2.8V | 00:00:00 | 01:10:36 | 00:00:00 | |
| DL1NUX | 2026-08-31 11:27:40 | 49.66122 | 12.69905 | 63° | 161km/h | 11880m | 4.2m/s | -51.8°C | 10.3% | 207.5hPa | 2.8V | 04:39:49 | 01:10:28 | 00:00:00 | |
| DB0NH | 2026-08-31 11:27:40 | 49.66217 | 12.70177 | 61° | 162km/h | 11906m | 4.8m/s | -51.9°C | 10.0% | 206.6hPa | 2.8V | 00:00:00 | 01:10:33 | 00:00:00 | |
| DM0DOS-11 | 2026-08-31 11:27:39 | 49.66103 | 12.69849 | 63° | 162km/h | 11875m | 5.5m/s | -51.7°C | 10.3% | 207.7hPa | 2.8V | 04:39:50 | 01:10:27 | 00:00:00 | |
| EDDB2-11 | 2026-08-31 11:27:38 | 49.66159 | 12.70016 | 62° | 159km/h | 11889m | 6.0m/s | -51.9°C | 6.6% | 207.2hPa | 2.7V | 00:00:00 | 00:00:00 | 00:00:00 | |
| ANDY1245 | 2026-08-31 11:27:36 | 49.66159 | 12.70016 | 63° | 159km/h | 11889m | 6.0m/s | -51.9°C | 0% | 207.2hPa | 2.7V | 04:40:00 | 00:00:00 | 00:00:00 | |
| OE5MMP-10 | 2026-08-31 11:27:33 | 49.66084 | 12.69792 | 63° | 162km/h | 11870m | 4.0m/s | 0°C | 0% | 0hPa | 2.7V | 00:00:00 | 01:10:26 | 00:00:00 | |
| DK5PH-5 | 2026-08-31 11:27:32 | 49.66066 | 12.69735 | 64° | 164km/h | 11866m | 4.0m/s | 0°C | 0% | 0hPa | 2.7V | 00:00:00 | 01:10:25 | 00:00:00 | |
| ANDY1245 | 2026-08-31 11:27:31 | 49.66066 | 12.69735 | 65° | 164km/h | 11866m | 4.0m/s | -51.6°C | 0% | 208.0hPa | 2.7V | 04:40:00 | 00:00:00 | 00:00:00 | |
| DM0DOS-11 | 2026-08-31 11:27:29 | 49.65919 | 12.69280 | 62° | 166km/h | 11832m | 4.8m/s | -51.4°C | 10.2% | 209hPa | 2.7V | 04:40:00 | 01:10:17 | 00:00:00 | |
| DO3MHA-11 | 2026-08-31 11:27:29 | 49.66013 | 12.69564 | 65° | 162km/h | 11852m | 2.9m/s | -51.5°C | 10.1% | 208.3hPa | 2.7V | 00:00:00 | 01:10:22 | 00:00:00 | |
| DF2AP-13 | 2026-08-31 11:27:27 | 49.65977 | 12.69450 | 63° | 166km/h | 11844m | 4.3m/s | -51.4°C | 10.0% | 208.6hPa | 2.7V | 00:00:00 | 01:10:20 | 00:00:00 | |
| PG1ADW-2 | 2026-08-31 11:27:26 | 49.65958 | 12.69394 | 63° | 164km/h | 11840m | 3.4m/s | -51.4°C | 10.1% | 208.7hPa | 2.7V | 00:00:00 | 00:00:00 | 00:00:00 | |
| OE5DRO-10 | 2026-08-31 11:27:25 | 49.65938 | 12.69337 | 63° | 164km/h | 11837m | 3.9m/s | -51.4°C | 10.1% | 208.8hPa | 2.7V | 00:00:00 | 00:00:00 | 00:00:00 | |
| DL6DJ-15 | 2026-08-31 11:27:24 | 49.65899 | 12.69224 | 62° | 164km/h | 11828m | 3.7m/s | -51.3°C | 6.8% | 209.2hPa | 2.8V | 00:00:00 | 00:00:00 | 00:00:00 | |
| OE5MMP-10 | 2026-08-31 11:27:23 | 49.65899 | 12.69223 | 63° | 162km/h | 11828m | 3.7m/s | 0°C | 0% | 0hPa | 2.8V | 00:00:00 | 01:10:16 | 00:00:00 | |
| DO8TBO-1 | 2026-08-31 11:27:22 | 49.65860 | 12.69111 | 62° | 166km/h | 11819m | 3.6m/s | -51.2°C | 10.6% | 209.4hPa | 2.8V | 04:40:00 | 01:10:14 | 00:00:00 | |
| DO3MHA-11 | 2026-08-31 11:27:19 | 49.65823 | 12.68999 | 64° | 164km/h | 11811m | 4.9m/s | -51.3°C | 11.1% | 209.7hPa | 2.8V | 00:00:00 | 01:10:12 | 00:00:00 | |
| DM0DOS-11 | 2026-08-31 11:27:18 | 49.65733 | 12.68714 | 63° | 162km/h | 11791m | 2.9m/s | -51.6°C | 11.6% | 210.4hPa | 2.8V | 04:40:10 | 01:10:07 | 00:00:00 | |
| OE5MMP-10 | 2026-08-31 11:27:13 | 49.65714 | 12.68658 | 63° | 168km/h | 11788m | 4.4m/s | 0°C | 0% | 0hPa | 2.7V | 00:00:00 | 01:10:06 | 00:00:00 | |
| NBG1-10 | 2026-08-31 11:27:11 | 49.65675 | 12.68543 | 63° | 164km/h | 11778m | 3.6m/s | -51.6°C | 11.7% | 210.8hPa | 2.7V | 00:00:00 | 01:10:04 | 00:00:00 | |
| DB0NH | 2026-08-31 11:27:10 | 49.65656 | 12.68484 | 63° | 164km/h | 11775m | 3.4m/s | -51.7°C | 11.7% | 210.9hPa | 2.7V | 04:40:00 | 01:10:03 | 00:00:00 | |
| DL9SK-14 | 2026-08-31 11:27:09 | 49.65615 | 12.68369 | 61° | 168km/h | 11766m | 4.0m/s | -51.7°C | 7.9% | 211.2hPa | 2.8V | 00:00:00 | 00:00:00 | 00:00:00 | |
| DM0DOS-11 | 2026-08-31 11:27:08 | 49.65535 | 12.68136 | 62° | 170km/h | 11752m | 3.8m/s | -51.8°C | 12.2% | 211.7hPa | 2.8V | 04:40:20 | 01:09:57 | 00:00:00 | |
| SP3BTT-10 | 2026-08-31 11:27:06 | 49.65575 | 12.68253 | 63° | 166km/h | 11759m | 4.0m/s | 0°C | 0% | 0hPa | 2.8V | 00:00:00 | 00:00:00 | 00:00:00 | |
| OE5MMP-10 | 2026-08-31 11:27:03 | 49.65516 | 12.68077 | 63° | 164km/h | 11748m | 4.5m/s | 0°C | 0% | 0hPa | 2.8V | 00:00:00 | 01:09:56 | 00:00:00 | |
| DM0DOS-11 | 2026-08-31 11:26:59 | 49.65353 | 12.67551 | 64° | 166km/h | 11713m | 4m/s | -51.8°C | 13.1% | 213hPa | 2.8V | 04:40:30 | 01:09:47 | 00:00:00 | |
| DL6DJ-15 | 2026-08-31 11:26:53 | 49.65316 | 12.67436 | 63° | 164km/h | 11706m | 4.5m/s | -51.8°C | 9.1% | 213.2hPa | 2.7V | 00:00:00 | 00:00:00 | 00:00:00 | |
| ANDY1245 | 2026-08-31 11:26:52 | 49.65334 | 12.67493 | 65° | 166km/h | 11710m | 3.1m/s | -51.8°C | 0% | 213.1hPa | 2.7V | 04:40:00 | 00:00:00 | 00:00:00 | |
| DO8TBO-1 | 2026-08-31 11:26:51 | 49.65297 | 12.67379 | 64° | 159km/h | 11702m | 3.9m/s | -51.7°C | 13.2% | 213.3hPa | 2.7V | 00:00:00 | 01:09:44 | 00:00:00 | |
| DO3MHA-11 | 2026-08-31 11:26:49 | 49.65260 | 12.67265 | 64° | 161km/h | 11694m | 4.2m/s | -51.7°C | 13.0% | 213.5hPa | 2.7V | 04:40:00 | 01:09:42 | 00:00:00 | |
| DM0DOS-11 | 2026-08-31 11:26:48 | 49.65166 | 12.66984 | 63° | 159km/h | 11675m | 4m/s | -51.6°C | 13.1% | 214.2hPa | 2.7V | 04:40:40 | 01:09:37 | 00:00:00 | |
| OE5DRO-10 | 2026-08-31 11:26:47 | 49.65222 | 12.67151 | 63° | 159km/h | 11686m | 3.9m/s | -51.7°C | 13.0% | 213.7hPa | 2.7V | 00:00:00 | 00:00:00 | 00:00:00 | |
| DB0UT-7 | 2026-08-31 11:26:46 | 49.65203 | 12.67094 | 63° | 159km/h | 11682m | 4.2m/s | -51.6°C | 13.0% | 213.9hPa | 2.7V | 00:00:00 | 00:00:00 | 00:00:00 | |
| ANDY1245 | 2026-08-31 11:26:41 | 49.65130 | 12.66873 | 65° | 159km/h | 11667m | 3.3m/s | -51.6°C | 0% | 214.5hPa | 2.8V | 04:41:00 | 00:00:00 | 00:00:00 | |
| DB0NH | 2026-08-31 11:26:40 | 49.65095 | 12.66763 | 64° | 157km/h | 11659m | 4.0m/s | -51.6°C | 13.3% | 214.7hPa | 2.8V | 00:00:00 | 01:09:33 | 00:00:00 | |
| DM0DOS-11 | 2026-08-31 11:26:39 | 49.64988 | 12.66430 | 64° | 157km/h | 11637m | 3.5m/s | -51.5°C | 13.6% | 215.4hPa | 2.8V | 04:40:50 | 01:09:27 | 00:00:00 | |
| DO3MHA-11 | 2026-08-31 11:26:39 | 49.65077 | 12.66708 | 64° | 159km/h | 11656m | 3.2m/s | -51.5°C | 13.3% | 214.8hPa | 2.7V | 00:00:00 | 01:09:32 | 00:00:00 | |
| DL9SK-14 | 2026-08-31 11:26:38 | 49.65041 | 12.66598 | 63° | 159km/h | 11648m | 3.6m/s | -51.6°C | 9.3% | 215.1hPa | 2.8V | 00:00:00 | 00:00:00 | 00:00:00 | |
| SONCRA | 2026-08-31 11:26:36 | 49.65006 | 12.66485 | 64° | 159km/h | 11641m | 4.3m/s | -51.6°C | 9.5% | 215.3hPa | 2.8V | 00:00:00 | 00:00:00 | 00:00:00 | |
| EDDB2-11 | 2026-08-31 11:26:35 | 49.65006 | 12.66485 | 64° | 159km/h | 11641m | 4.3m/s | -51.6°C | 9.5% | 215.3hPa | 2.8V | 00:00:00 | 00:00:00 | 00:00:00 | |
| DB0UT-9 | 2026-08-31 11:26:32 | 49.64971 | 12.66375 | 65° | 157km/h | 11634m | 3.8m/s | -51.5°C | 9.7% | 215.6hPa | 2.8V | 00:00:00 | 00:00:00 | 00:00:00 | |
| DM0DOS-11 | 2026-08-31 11:26:29 | 49.64791 | 12.65828 | 63° | 157km/h | 11595m | 3.4m/s | -51.4°C | 14.1% | 216.8hPa | 2.8V | 04:41:01 | 01:09:16 | 00:00:00 | |
| OE5DRO-10 | 2026-08-31 11:26:28 | 49.64881 | 12.66101 | 64° | 155km/h | 11614m | 3.3m/s | -51.4°C | 14.1% | 216.2hPa | 2.7V | 00:00:00 | 00:00:00 | 00:00:00 | |
| DF2AP-13 | 2026-08-31 11:26:27 | 49.64863 | 12.66046 | 63° | 153km/h | 11610m | 4.5m/s | -51.4°C | 14.2% | 216.3hPa | 2.7V | 00:00:00 | 01:09:20 | 00:00:00 | |
| PG1ADW-2 | 2026-08-31 11:26:26 | 49.64845 | 12.65992 | 63° | 155km/h | 11606m | 3.3m/s | -51.5°C | 14.3% | 216.4hPa | 2.7V | 00:00:00 | 00:00:00 | 00:00:00 | |
| OE5DXL-15 | 2026-08-31 11:26:23 | 49.64791 | 12.65828 | 64° | 151km/h | 11595m | 3.3m/s | -51.4°C | 14.1% | 216.8hPa | 2.7V | 00:00:00 | 00:00:00 | 00:00:00 | |
| DL6DJ-15 | 2026-08-31 11:26:22 | 49.64755 | 12.65718 | 63° | 157km/h | 11587m | 4.1m/s | -51.4°C | 10.1% | 217.1hPa | 2.7V | 00:00:00 | 00:00:00 | 00:00:00 | |
| DO8TBO-1 | 2026-08-31 11:26:21 | 49.64755 | 12.65718 | 64° | 151km/h | 11587m | 4.0m/s | -51.4°C | 14.2% | 217.0hPa | 2.7V | 00:00:00 | 01:09:14 | 00:00:00 | |
| DF7PN | 2026-08-31 11:26:20 | 49.64737 | 12.65663 | 62° | 157km/h | 11584m | 3.1m/s | -51.5°C | 10.1% | -1.0hPa | 2.7V | 00:00:00 | 00:00:00 | 00:00:00 | |
| DO3MHA-11 | 2026-08-31 11:26:19 | 49.64719 | 12.65608 | 63° | 153km/h | 11580m | 3.9m/s | -51.4°C | 14.3% | 217.3hPa | 2.7V | 00:00:00 | 01:09:12 | 00:00:00 | |
| DM0DOS-11 | 2026-08-31 11:26:18 | 49.64610 | 12.65290 | 62° | 150km/h | 11556m | 4.9m/s | -51.4°C | 15.1% | 218.1hPa | 2.7V | 04:41:11 | 01:09:06 | 00:00:00 | |
| DB0UT-7 | 2026-08-31 11:26:16 | 49.64665 | 12.65447 | 62° | 153km/h | 11568m | 4.5m/s | -51.4°C | 14.5% | 217.7hPa | 2.7V | 00:00:00 | 01:09:09 | 00:00:00 | |
| DB0UT-9 | 2026-08-31 11:26:12 | 49.64610 | 12.65290 | 63° | 150km/h | 11557m | 4.9m/s | -51.4°C | 10.9% | 218.1hPa | 2.7V | 00:00:00 | 00:00:00 | 00:00:00 | |
| ANDY1245 | 2026-08-31 11:26:10 | 49.64558 | 12.65135 | 65° | 150km/h | 11544m | 4.6m/s | -51.4°C | 0% | 218.6hPa | 2.7V | 04:41:00 | 00:00:00 | 00:00:00 | |
| DO3MHA-11 | 2026-08-31 11:26:09 | 49.64542 | 12.65082 | 65° | 150km/h | 11539m | 3.8m/s | -51.3°C | 15.4% | 218.7hPa | 2.7V | 00:00:00 | 01:09:02 | 00:00:00 | |
| DL9SK-14 | 2026-08-31 11:26:07 | 49.64493 | 12.64920 | 65° | 150km/h | 11527m | 4.5m/s | -51.4°C | 11.5% | 219.1hPa | 2.7V | 00:00:00 | 00:00:00 | 00:00:00 | |
| PG1ADW-2 | 2026-08-31 11:26:06 | 49.64492 | 12.64920 | 66° | 151km/h | 11528m | 4.4m/s | -51.3°C | 15.8% | 219.1hPa | 2.7V | 04:41:00 | 00:00:00 | 00:00:00 | |
| DM0DOS-11 | 2026-08-31 11:26:03 | 49.64445 | 12.64762 | 64° | 148km/h | 11515m | 3.2m/s | -51.4°C | 16.2% | 219.5hPa | 2.7V | 04:41:21 | 01:08:56 | 00:00:00 | |
| DO3MHA-11 | 2026-08-31 11:25:59 | 49.64380 | 12.64558 | 63° | 151km/h | 11500m | 4.5m/s | -51.3°C | 16.9% | 220.0hPa | 2.8V | 04:41:00 | 01:08:52 | 00:00:00 | |
| DM0DOS-11 | 2026-08-31 11:25:58 | 49.64275 | 12.64242 | 63° | 153km/h | 11478m | 4.7m/s | -51.5°C | 17.4% | 220.8hPa | 2.8V | 04:41:31 | 01:08:46 | 00:00:00 | |
| DL6DJ-15 | 2026-08-31 11:25:51 | 49.64225 | 12.64080 | 65° | 151km/h | 11465m | 4.4m/s | -51.6°C | 13.3% | 221.2hPa | 2.8V | 00:00:00 | 00:00:00 | 00:00:00 | |
| OE5DRO-10 | 2026-08-31 11:25:50 | 49.64225 | 12.64080 | 66° | 153km/h | 11465m | 4.3m/s | -51.6°C | 18.0% | 221.2hPa | 2.8V | 00:00:00 | 00:00:00 | 00:00:00 | |
| DO3MHA-11 | 2026-08-31 11:25:49 | 49.64209 | 12.64025 | 66° | 151km/h | 11462m | 3.3m/s | -51.6°C | 18.2% | 221.3hPa | 2.8V | 00:00:00 | 01:08:42 | 00:00:00 | |
| DM0DOS-11 | 2026-08-31 11:25:46 | 49.64109 | 12.63706 | 62° | 150km/h | 11439m | 3.6m/s | -51.6°C | 19.4% | 222.1hPa | 2.8V | 04:41:41 | 01:08:36 | 00:00:00 | |
| PG1ADW-2 | 2026-08-31 11:25:46 | 49.64160 | 12.63863 | 64° | 155km/h | 11450m | 2.9m/s | -51.6°C | 18.9% | 221.7hPa | 2.8V | 00:00:00 | 00:00:00 | 00:00:00 | |
| DL1NUX | 2026-08-31 11:25:42 | 49.64037 | 12.63498 | 62° | 151km/h | 11423m | 4.7m/s | -51.8°C | 20.2% | 222.6hPa | 2.8V | 04:41:45 | 01:08:32 | 00:00:00 | |
| DB0NH | 2026-08-31 11:25:40 | 49.64055 | 12.63551 | 63° | 155km/h | 11427m | 4.0m/s | -51.7°C | 20.1% | 222.5hPa | 2.7V | 00:00:00 | 01:08:33 | 00:00:00 | |
| DO3MHA-11 | 2026-08-31 11:25:39 | 49.64037 | 12.63498 | 63° | 157km/h | 11423m | 4.6m/s | -51.7°C | 20.2% | 222.6hPa | 2.7V | 00:00:00 | 01:08:32 | 00:00:00 | |
| DM0DOS-11 | 2026-08-31 11:25:38 | 49.63910 | 12.63118 | 63° | 161km/h | 11395m | 3.2m/s | -51.7°C | 20.3% | 223.6hPa | 2.7V | 04:41:52 | 01:08:25 | 00:00:00 | |
| DL9SK-14 | 2026-08-31 11:25:36 | 49.63965 | 12.63285 | 62° | 159km/h | 11407m | 4.3m/s | -51.8°C | 15.1% | 223.2hPa | 2.7V | 00:00:00 | 00:00:00 | 00:00:00 | |
| EDDB2-11 | 2026-08-31 11:25:34 | 49.63928 | 12.63174 | 63° | 159km/h | 11398m | 3.6m/s | -51.7°C | 15.2% | 223.5hPa | 2.7V | 00:00:00 | 00:00:00 | 00:00:00 | |
| NBG1-10 | 2026-08-31 11:25:32 | 49.63910 | 12.63118 | 64° | 155km/h | 11395m | 3.1m/s | -51.7°C | 20.3% | 223.6hPa | 2.7V | 00:00:00 | 01:08:25 | 00:00:00 | |
| DL1NUX | 2026-08-31 11:25:30 | 49.63854 | 12.62953 | 62° | 157km/h | 11383m | 4.1m/s | -51.7°C | 20.4% | 224.1hPa | 2.8V | 04:41:55 | 01:08:22 | 00:00:00 | |
| DO3MHA-11 | 2026-08-31 11:25:29 | 49.63854 | 12.62953 | 63° | 155km/h | 11383m | 4.1m/s | -51.7°C | 20.4% | 224.0hPa | 2.8V | 00:00:00 | 01:08:22 | 00:00:00 | |
| DM0DOS-11 | 2026-08-31 11:25:27 | 49.63744 | 12.62638 | 62° | 153km/h | 11358m | 5m/s | -51.6°C | 20.4% | 224.8hPa | 2.8V | 04:42:01 | 01:08:16 | 00:00:00 | |
| OE5WHR-10 | 2026-08-31 11:25:27 | 49.63818 | 12.62847 | 62° | 153km/h | 11375m | 3.7m/s | 0°C | 0% | 0hPa | 2.7V | 00:00:00 | 00:00:00 | 00:00:00 | |
| PG1ADW-2 | 2026-08-31 11:25:26 | 49.63799 | 12.62795 | 62° | 153km/h | 11371m | 4.0m/s | -51.6°C | 20.4% | 224.4hPa | 2.7V | 00:00:00 | 01:08:19 | 00:00:00 | |
| DL1JEZ-13 | 2026-08-31 11:25:25 | 49.63799 | 12.62795 | 62° | 151km/h | 11371m | 4.1m/s | -51.7°C | 0% | 0hPa | 2.8V | 00:00:00 | 00:00:00 | 00:00:00 | |
| DL1NUX | 2026-08-31 11:25:24 | 49.63672 | 12.62420 | 63° | 159km/h | 11343m | 3.4m/s | -51.5°C | 20.9% | 225.4hPa | 2.8V | 04:42:05 | 01:08:12 | 00:00:00 | |
| OE5DXL-15 | 2026-08-31 11:25:23 | 49.63744 | 12.62638 | 63° | 155km/h | 11359m | 4.9m/s | -51.5°C | 20.4% | 224.8hPa | 2.7V | 00:00:00 | 00:00:00 | 00:00:00 | |
| DO8TBO-1 | 2026-08-31 11:25:21 | 49.63708 | 12.62530 | 64° | 153km/h | 11350m | 3.4m/s | -51.5°C | 20.4% | 225.1hPa | 2.7V | 00:00:00 | 01:08:14 | 00:00:00 | |
| SO1NDE-10 | 2026-08-31 11:25:20 | 49.63690 | 12.62475 | 64° | 119km/h | 11346m | 4.4m/s | -51.5°C | 20.7% | 225.2hPa | 2.8V | 00:00:00 | 01:08:13 | 00:00:00 | |
| DO3MHA-11 | 2026-08-31 11:25:19 | 49.63672 | 12.62420 | 64° | 153km/h | 11343m | 3.3m/s | -51.5°C | 20.9% | 225.4hPa | 2.8V | 00:00:00 | 01:08:12 | 00:00:00 | |
| DF7PN | 2026-08-31 11:25:18 | 49.63655 | 12.62365 | 63° | 155km/h | 11339m | 3.2m/s | -51.5°C | -1.0% | -1.0hPa | 2.8V | 00:00:00 | 00:00:00 | 00:00:00 | |
| DM0DOS-11 | 2026-08-31 11:25:17 | 49.63569 | 12.62099 | 62° | 150km/h | 11321m | 3.6m/s | -51.5°C | 21.6% | 226.2hPa | 2.8V | 04:42:11 | 01:08:06 | 00:00:00 | |
| DK5PH-5 | 2026-08-31 11:25:13 | 49.63569 | 12.62099 | 63° | 146km/h | 11321m | 3.6m/s | 0°C | 0% | 0hPa | 2.7V | 04:42:00 | 01:08:06 | 00:00:00 | |
| OE5DRO-10 | 2026-08-31 11:25:12 | 49.63551 | 12.62047 | 63° | 155km/h | 11318m | 3.5m/s | -51.4°C | 21.7% | 226.3hPa | 2.7V | 00:00:00 | 00:00:00 | 00:00:00 | |
| DB0NH | 2026-08-31 11:25:10 | 49.63517 | 12.61942 | 64° | 151km/h | 11310m | 3.5m/s | -51.5°C | 22.2% | 226.6hPa | 2.7V | 00:00:00 | 01:08:03 | 00:00:00 | |
| DO3MHA-11 | 2026-08-31 11:25:09 | 49.63500 | 12.61890 | 64° | 155km/h | 11305m | 4.8m/s | -51.5°C | 22.4% | 226.7hPa | 2.7V | 04:42:00 | 01:08:02 | 00:00:00 | |
| DL1NUX | 2026-08-31 11:25:08 | 49.63430 | 12.61674 | 64° | 155km/h | 11289m | 3.6m/s | -51.5°C | 22.6% | 227.3hPa | 2.8V | 04:42:19 | 01:07:58 | 00:00:00 | |
| DB0ND-19 | 2026-08-31 11:25:07 | 49.63465 | 12.61782 | 63° | 155km/h | 11297m | 3.6m/s | -51.5°C | 17.2% | 227.0hPa | 2.7V | 00:00:00 | 00:00:00 | 00:00:00 | |
| OE5WHR-10 | 2026-08-31 11:25:06 | 49.63447 | 12.61728 | 64° | 153km/h | 11293m | 4.7m/s | 0°C | 0% | 0hPa | 2.7V | 00:00:00 | 01:07:59 | 00:00:00 | |
| DL9SK-14 | 2026-08-31 11:25:05 | 49.63413 | 12.61619 | 64° | 155km/h | 11286m | 3.7m/s | -51.6°C | 17.3% | 227.4hPa | 2.7V | 00:00:00 | 00:00:00 | 00:00:00 | |
| DM0DOS-11 | 2026-08-31 11:25:02 | 49.63361 | 12.61454 | 64° | 157km/h | 11274m | 4.4m/s | -51.8°C | 23.2% | 227.8hPa | 2.7V | 04:42:23 | 01:07:54 | 00:00:00 | |
| DO3MHA-11 | 2026-08-31 11:24:59 | 49.63328 | 12.61345 | 66° | 153km/h | 11266m | 3.3m/s | -51.7°C | 23.3% | 228.1hPa | 2.7V | 00:00:00 | 01:07:52 | 00:00:00 | |
| DF2AP-13 | 2026-08-31 11:24:57 | 49.63295 | 12.61236 | 64° | 146km/h | 11258m | 4.0m/s | -51.7°C | 23.2% | 228.3hPa | 2.7V | 00:00:00 | 01:07:50 | 00:00:00 | |
| DM0DOS-11 | 2026-08-31 11:24:52 | 49.63195 | 12.60912 | 64° | 151km/h | 11235m | 4.6m/s | -51.6°C | 24.1% | 229.2hPa | 2.8V | 04:42:33 | 01:07:44 | 00:00:00 | |
| DL6DJ-15 | 2026-08-31 11:24:48 | 49.63147 | 12.60752 | 66° | 148km/h | 11222m | 4.3m/s | -51.5°C | 19.3% | 229.6hPa | 2.8V | 00:00:00 | 00:00:00 | 00:00:00 | |
| DF7PN | 2026-08-31 11:24:47 | 49.63133 | 12.60699 | 66° | 146km/h | 11218m | 3.5m/s | 0°C | -1.0% | -1.0hPa | 2.8V | 00:00:00 | 00:00:00 | 00:00:00 | |
| PG1ADW-2 | 2026-08-31 11:24:46 | 49.63118 | 12.60646 | 67° | 144km/h | 11214m | 4.5m/s | -51.5°C | 25.2% | 229.9hPa | 2.8V | 00:00:00 | 00:00:00 | 00:00:00 | |
| OE5WHR-10 | 2026-08-31 11:24:45 | 49.63103 | 12.60595 | 66° | 142km/h | 11210m | 4.3m/s | 0°C | 0% | 0hPa | 2.8V | 00:00:00 | 00:00:00 | 00:00:00 | |
| BIOWL1-15 | 2026-08-31 11:24:45 | 49.63072 | 12.60493 | 65° | 144km/h | 11201m | 4.5m/s | -51.6°C | 25.5% | 230.3hPa | 2.8V | 04:43:08 | 01:07:36 | 00:00:00 | |
| DM0DOS-11 | 2026-08-31 11:24:42 | 49.63042 | 12.60390 | 65° | 146km/h | 11193m | 3.2m/s | -51.6°C | 24.9% | 230.7hPa | 2.8V | 04:42:43 | 01:07:34 | 00:00:00 | |
| DB0NH | 2026-08-31 11:24:40 | 49.63026 | 12.60338 | 66° | 144km/h | 11189m | 5.1m/s | -51.6°C | 24.8% | 230.7hPa | 2.7V | 04:42:00 | 01:07:33 | 00:00:00 | |
| DO3MHA-11 | 2026-08-31 11:24:39 | 49.63011 | 12.60287 | 66° | 142km/h | 11184m | 4.7m/s | -51.7°C | 25.0% | 230.9hPa | 2.7V | 00:00:00 | 01:07:32 | 00:00:00 | |
| DB0ND-19 | 2026-08-31 11:24:36 | 49.62967 | 12.60137 | 67° | 141km/h | 11172m | 4.2m/s | -51.9°C | 20.2% | 231.4hPa | 2.9V | 00:00:00 | 00:00:00 | 00:00:00 | |
| OE5DRO-10 | 2026-08-31 11:24:34 | 49.62940 | 12.60034 | 69° | 142km/h | 11164m | 3.8m/s | -51.8°C | 26.8% | 231.6hPa | 2.9V | 04:42:00 | 00:00:00 | 00:00:00 | |
| DM0DOS-11 | 2026-08-31 11:24:32 | 49.62902 | 12.59880 | 68° | 142km/h | 11152m | 3.5m/s | -51.7°C | 27.8% | 232.1hPa | 2.8V | 04:42:53 | 01:07:24 | 00:00:00 | |
| BIOWL1-15 | 2026-08-31 11:24:30 | 49.62862 | 12.59721 | 68° | 146km/h | 11140m | 4.3m/s | -51.8°C | 27.3% | 232.6hPa | 2.8V | 04:43:08 | 01:07:21 | 00:00:00 | |
| DO9HM | 2026-08-31 11:24:29 | 49.62875 | 12.59774 | 70° | 146km/h | 11144m | 3.3m/s | -51.7°C | 22.0% | 232.4hPa | 2.8V | 00:00:00 | 00:00:00 | 00:00:00 | |
| DM0DOS-11 | 2026-08-31 11:24:27 | 49.62769 | 12.59356 | 69° | 141km/h | 11114m | 3.6m/s | -51.9°C | 0% | 233.5hPa | 2.8V | 04:43:03 | 01:07:14 | 00:00:00 | |
| BIOWL1-15 | 2026-08-31 11:24:17 | 49.62722 | 12.59149 | 71° | 141km/h | 11099m | 4.2m/s | -51.8°C | 27.5% | 234.1hPa | 2.9V | 04:43:08 | 01:07:10 | 00:00:00 | |
| BIOWL1-15 | 2026-08-31 11:24:07 | 49.62586 | 12.58620 | 68° | 148km/h | 11061m | 3m/s | -51.8°C | 27.5% | 235.5hPa | 2.9V | 04:43:59 | 01:07:00 | 00:00:00 | |
| PG1ADW-2 | 2026-08-31 11:24:06 | 49.62571 | 12.58568 | 68° | 146km/h | 11057m | 4.4m/s | -51.8°C | 28.0% | 235.5hPa | 2.8V | 00:00:00 | 01:06:59 | 00:00:00 | |
| DM0DOS-11 | 2026-08-31 11:24:04 | 49.62504 | 12.58311 | 67° | 146km/h | 11039m | 3.4m/s | -51.7°C | 0% | 236.2hPa | 2.8V | 04:43:23 | 01:06:54 | 00:00:00 | |
| BIOWL1-15 | 2026-08-31 11:23:56 | 49.62432 | 12.58046 | 68° | 150km/h | 11019m | 4m/s | -51.6°C | 27.4% | 236.9hPa | 2.8V | 04:43:59 | 01:06:49 | 00:00:00 | |
| OE5DRO-10 | 2026-08-31 11:23:56 | 49.62432 | 12.58046 | 68° | 148km/h | 11019m | 4.0m/s | -51.6°C | 28.6% | 236.9hPa | 2.8V | 00:00:00 | 00:00:00 | 00:00:00 | |
| DM0DOS-11 | 2026-08-31 11:23:54 | 49.62358 | 12.57780 | 67° | 150km/h | 10999m | 3.8m/s | -51.5°C | 0% | 237.7hPa | 2.8V | 04:43:33 | 01:06:44 | 00:00:00 | |
| BIOWL1-15 | 2026-08-31 11:23:45 | 49.62269 | 12.57461 | 67° | 148km/h | 10975m | 3.5m/s | -51.4°C | 27.5% | 238.6hPa | 2.8V | 04:43:59 | 01:06:38 | 00:00:00 | |
| DM0DOS-11 | 2026-08-31 11:23:44 | 49.62209 | 12.57249 | 66° | 150km/h | 10960m | 4.4m/s | -51.2°C | 0% | 239.1hPa | 2.9V | 04:43:43 | 01:06:34 | 00:00:00 | |
| DO8TBO-1 | 2026-08-31 11:23:44 | 49.62254 | 12.57408 | 67° | 144km/h | 10972m | 4.5m/s | -51.3°C | 28.4% | 238.6hPa | 2.7V | 00:00:00 | 01:06:37 | 00:00:00 | |
| BIOWL1-15 | 2026-08-31 11:23:35 | 49.61944 | 12.56312 | 66° | 148km/h | 10889m | 3.6m/s | -50.7°C | 26.1% | 241.7hPa | 2.8V | 04:45:41 | 01:06:16 | 00:00:00 | |
| DB0ND-19 | 2026-08-31 11:23:35 | 49.62060 | 12.56727 | 66° | 142km/h | 10920m | 4.0m/s | -50.9°C | 21.2% | 240.6hPa | 2.8V | 00:00:00 | 00:00:00 | 00:00:00 | |
| DM0DOS-11 | 2026-08-31 11:23:34 | 49.61914 | 12.56208 | 65° | 142km/h | 10881m | 3.4m/s | -50.6°C | 0% | 242hPa | 2.8V | 04:44:03 | 01:06:14 | 00:00:00 | |
| BIOWL1-15 | 2026-08-31 11:23:16 | 49.61788 | 12.55746 | 68° | 144km/h | 10846m | 4.1m/s | -50.7°C | 26.1% | 243.3hPa | 2.9V | 04:45:41 | 01:06:05 | 00:00:00 | |
| DL6DJ-15 | 2026-08-31 11:23:15 | 49.61830 | 12.55901 | 67° | 142km/h | 10858m | 4.6m/s | -50.7°C | 21.2% | 242.9hPa | 2.9V | 00:00:00 | 00:00:00 | 00:00:00 | |
| BIOWL1-15 | 2026-08-31 11:23:02 | 49.61572 | 12.54942 | 67° | 139km/h | 10785m | 4.9m/s | -50.3°C | 25.5% | 245.6hPa | 2.9V | 04:45:41 | 01:05:49 | 00:00:00 | |
| BIOWL1-15 | 2026-08-31 11:22:52 | 49.61490 | 12.54633 | 69° | 146km/h | 10762m | 4.4m/s | -50.4°C | 26.1% | 246.4hPa | 2.8V | 04:45:41 | 01:05:43 | 00:00:00 | |
| BIOWL1-15 | 2026-08-31 11:22:41 | 49.61335 | 12.54066 | 67° | 144km/h | 10719m | 4.4m/s | -50.4°C | 27.7% | 248.1hPa | 2.8V | 04:45:41 | 01:05:32 | 00:00:00 | |
| DM0DOS-11 | 2026-08-31 11:22:41 | 49.61321 | 12.54014 | 67° | 144km/h | 10715m | 3.9m/s | -50.3°C | 0% | 248.2hPa | 2.8V | 04:44:46 | 01:05:31 | 00:00:00 | |
| BIOWL1-15 | 2026-08-31 11:22:30 | 49.61209 | 12.53602 | 67° | 141km/h | 10684m | 4.3m/s | -50.2°C | 28.4% | 249.4hPa | 2.9V | 04:45:41 | 01:05:23 | 00:00:00 | |
| DM0DOS-11 | 2026-08-31 11:22:29 | 49.61142 | 12.53351 | 67° | 139km/h | 10665m | 3.9m/s | -50°C | 0% | 250.1hPa | 2.9V | 04:44:59 | 01:05:18 | 00:00:00 | |
| BIOWL1-15 | 2026-08-31 11:22:18 | 49.61050 | 12.53001 | 68° | 139km/h | 10637m | 3.8m/s | -49.9°C | 28.9% | 251.2hPa | 2.9V | 04:45:41 | 01:05:11 | 00:00:00 | |
| ANDY1245 | 2026-08-31 11:22:18 | 49.61062 | 12.53051 | 69° | 139km/h | 10641m | 4.7m/s | 0°C | 0% | 0hPa | 2.9V | 00:00:00 | 00:00:00 | 00:00:00 | |
| DM0DOS-11 | 2026-08-31 11:22:14 | 49.60982 | 12.52757 | 66° | 135km/h | 10619m | 4.7m/s | -49.8°C | 0% | 251.9hPa | 2.9V | 04:45:11 | 01:05:06 | 00:00:00 | |
| BIOWL1-15 | 2026-08-31 11:22:10 | 49.60915 | 12.52514 | 68° | 135km/h | 10599m | 4.6m/s | -49.7°C | 28.9% | 252.7hPa | 2.9V | 04:45:41 | 01:05:01 | 00:00:00 | |
| DB0NH | 2026-08-31 11:22:10 | 49.60941 | 12.52612 | 68° | 133km/h | 10606m | 4.1m/s | -49.7°C | 29.5% | 252.3hPa | 2.9V | 04:45:00 | 01:05:03 | 00:00:00 | |
| DO3MHA-11 | 2026-08-31 11:22:09 | 49.60928 | 12.52563 | 68° | 135km/h | 10603m | 3.5m/s | -49.7°C | 29.4% | 252.5hPa | 2.9V | 00:00:00 | 01:05:02 | 00:00:00 | |
| PG1ADW-2 | 2026-08-31 11:22:06 | 49.60889 | 12.52416 | 69° | 133km/h | 10591m | 3.4m/s | -49.6°C | 28.6% | 253.0hPa | 2.9V | 00:00:00 | 00:00:00 | 00:00:00 | |
| DM0DOS-11 | 2026-08-31 11:22:04 | 49.60852 | 12.52269 | 68° | 135km/h | 10578m | 3.6m/s | -49.5°C | 0% | 253.4hPa | 2.9V | 04:45:21 | 01:04:56 | 00:00:00 | |
| OE5DRO-10 | 2026-08-31 11:22:02 | 49.60839 | 12.52220 | 69° | 131km/h | 10574m | 4.4m/s | -49.5°C | 29.3% | 253.6hPa | 2.8V | 00:00:00 | 00:00:00 | 00:00:00 | |
| DO3MHA-11 | 2026-08-31 11:21:59 | 49.60801 | 12.52075 | 69° | 131km/h | 10562m | 3.9m/s | -49.4°C | 30.1% | 254.0hPa | 2.8V | 00:00:00 | 01:04:52 | 00:00:00 | |
| DM0DOS-11 | 2026-08-31 11:21:58 | 49.60727 | 12.51790 | 69° | 131km/h | 10539m | 3.3m/s | -49.4°C | 0% | 254.9hPa | 2.8V | 04:45:31 | 01:04:46 | 00:00:00 | |
| BIOWL1-15 | 2026-08-31 11:21:57 | 49.60776 | 12.51981 | 68° | 131km/h | 10555m | 4.7m/s | -49.5°C | 29.2% | 254.3hPa | 2.9V | 04:45:41 | 01:04:50 | 00:00:00 | |
| BIOWL1-15 | 2026-08-31 11:21:47 | 49.60655 | 12.51502 | 69° | 131km/h | 10516m | 4.3m/s | -49.4°C | 29.3% | 255.9hPa | 2.9V | 04:45:41 | 01:04:40 | 00:00:00 | |
| DM0DOS-11 | 2026-08-31 11:21:47 | 49.60596 | 12.51267 | 68° | 128km/h | 10495m | 4.6m/s | 0°C | 0% | 0hPa | 2.8V | 04:45:42 | 01:04:35 | 00:00:00 | |
| BIOWL1-15 | 2026-08-31 11:21:36 | 49.60482 | 12.50790 | 71° | 133km/h | 10455m | 4.2m/s | -48.8°C | 28.5% | 258.2hPa | 2.8V | 04:46:32 | 01:04:25 | 00:00:00 | |
| DM0DOS-11 | 2026-08-31 11:21:36 | 49.60471 | 12.50742 | 70° | 133km/h | 10451m | 4.1m/s | 0°C | 0% | 0hPa | 2.8V | 04:45:53 | 01:04:24 | 00:00:00 | |
| DO9HM | 2026-08-31 11:21:35 | 49.60525 | 12.50984 | 71° | 131km/h | 10470m | 4.0m/s | -48.9°C | 24.0% | 257.7hPa | 2.9V | 00:00:00 | 00:00:00 | 00:00:00 | |
| DB0ND-19 | 2026-08-31 11:21:30 | 49.60459 | 12.50692 | 69° | 133km/h | 10447m | 3.0m/s | -48.8°C | 23.6% | 258.6hPa | 2.9V | 00:00:00 | 00:00:00 | 00:00:00 | |
| DO3MHA-11 | 2026-08-31 11:21:29 | 49.60447 | 12.50643 | 70° | 133km/h | 10444m | 4.9m/s | -48.7°C | 29.3% | 258.6hPa | 2.9V | 00:00:00 | 01:04:22 | 00:00:00 | |
| DF2AP-13 | 2026-08-31 11:21:27 | 49.60423 | 12.50546 | 69° | 135km/h | 10435m | 3.7m/s | -48.6°C | 29.1% | 259.0hPa | 2.9V | 00:00:00 | 01:04:20 | 00:00:00 | |
| DM0DOS-11 | 2026-08-31 11:21:26 | 49.60353 | 12.50255 | 71° | 131km/h | 10413m | 3.2m/s | 0°C | 0% | 0hPa | 2.9V | 04:46:03 | 01:04:14 | 00:00:00 | |
| BIOWL1-15 | 2026-08-31 11:21:21 | 49.60331 | 12.50156 | 71° | 137km/h | 10405m | 3.6m/s | -48.4°C | 28.7% | 260.2hPa | 2.8V | 04:46:32 | 01:04:12 | 00:00:00 | |
| DO3MHA-11 | 2026-08-31 11:21:19 | 49.60330 | 12.50156 | 71° | 137km/h | 10405m | 3.5m/s | -48.4°C | 29.3% | 260.1hPa | 2.9V | 00:00:00 | 01:04:12 | 00:00:00 | |
| ANDY1245 | 2026-08-31 11:21:15 | 49.60296 | 12.50007 | 71° | 135km/h | 10395m | 3.7m/s | 0°C | 0% | 0hPa | 2.9V | 00:00:00 | 00:00:00 | 00:00:00 | |
| DO8TBO-1 | 2026-08-31 11:21:14 | 49.60272 | 12.49908 | 69° | 135km/h | 10388m | 4.1m/s | -48.3°C | 29.7% | 260.8hPa | 2.9V | 00:00:00 | 01:04:07 | 00:00:00 | |
| DM0DOS-11 | 2026-08-31 11:21:11 | 49.60171 | 12.49511 | 69° | 135km/h | 10356m | 4.2m/s | 0°C | 0% | 0hPa | 2.9V | 04:46:18 | 01:03:59 | 00:00:00 | |
| BIOWL1-15 | 2026-08-31 11:21:10 | 49.60159 | 12.49462 | 69° | 133km/h | 10353m | 3.7m/s | -48.2°C | 29.3% | 262.3hPa | 2.9V | 04:46:32 | 01:03:58 | 00:00:00 | |
| BIOWL1-15 | 2026-08-31 11:21:02 | 49.60059 | 12.49069 | 68° | 139km/h | 10321m | 3.8m/s | 0°C | 0% | 263.5hPa | 2.8V | 04:46:32 | 01:03:50 | 00:00:00 | |
| DB0ND-19 | 2026-08-31 11:20:59 | 49.60072 | 12.49120 | 68° | 137km/h | 10325m | 4.2m/s | -47.9°C | 23.7% | 263.4hPa | 2.8V | 00:00:00 | 00:00:00 | 00:00:00 | |
| DM0DOS-11 | 2026-08-31 11:20:56 | 49.60046 | 12.49019 | 68° | 139km/h | 10317m | 4.7m/s | 0°C | 0% | 0hPa | 2.8V | 04:46:28 | 01:03:49 | 00:00:00 | |
| EDDB2-11 | 2026-08-31 11:20:54 | 49.60021 | 12.48921 | 67° | 135km/h | 10309m | 4.1m/s | -47.8°C | 23.3% | 264.0hPa | 2.8V | 00:00:00 | 00:00:00 | 00:00:00 | |
| BIOWL1-15 | 2026-08-31 11:20:46 | 49.59891 | 12.48440 | 69° | 137km/h | 10268m | 2.9m/s | 0°C | 0% | 265.6hPa | 2.8V | 18:12:15 | 01:03:37 | 00:00:00 | |
| BIOWL1-15 | 2026-08-31 11:20:36 | 49.59717 | 12.47806 | 67° | 137km/h | 10219m | 4.2m/s | 0°C | 0% | 0hPa | 2.9V | 18:12:15 | 01:03:24 | 00:00:00 | |
| ANDY1245 | 2026-08-31 11:20:36 | 49.59797 | 12.48098 | 68° | 137km/h | 10242m | 4.6m/s | 0°C | 0% | 0hPa | 2.9V | 00:00:00 | 00:00:00 | 00:00:00 | |
| NBG1-10 | 2026-08-31 11:20:35 | 49.59769 | 12.48001 | 67° | 135km/h | 10234m | 3.4m/s | -47.3°C | 29.2% | 266.9hPa | 2.9V | 04:46:00 | 01:03:28 | 00:00:00 | |
| DO9HM | 2026-08-31 11:20:31 | 49.59730 | 12.47854 | 69° | 135km/h | 10223m | 3.8m/s | -47.3°C | 23.6% | 267.5hPa | 2.7V | 00:00:00 | 00:00:00 | 00:00:00 | |
| ANDY1245 | 2026-08-31 11:20:30 | 49.59717 | 12.47806 | 68° | 137km/h | 10219m | 4.2m/s | 0°C | 0% | 0hPa | 2.7V | 00:00:00 | 00:00:00 | 00:00:00 | |
| DO3MHA-11 | 2026-08-31 11:20:29 | 49.59690 | 12.47708 | 68° | 135km/h | 10212m | 4.4m/s | -47.1°C | 29.0% | 267.8hPa | 2.7V | 00:00:00 | 01:03:22 | 00:00:00 | |
| DB0ND-19 | 2026-08-31 11:20:28 | 49.59664 | 12.47611 | 66° | 133km/h | 10203m | 3.5m/s | -47.0°C | 23.6% | 268.3hPa | 2.7V | 00:00:00 | 00:00:00 | 00:00:00 | |
| DF2AP-13 | 2026-08-31 11:20:27 | 49.59664 | 12.47611 | 67° | 133km/h | 10204m | 3.4m/s | -47.0°C | 28.9% | 268.2hPa | 2.7V | 00:00:00 | 01:03:20 | 00:00:00 | |
| DM0DOS-11 | 2026-08-31 11:20:26 | 49.59583 | 12.47323 | 66° | 133km/h | 10181m | 3.9m/s | 0°C | 0% | 0hPa | 2.8V | 04:47:03 | 01:03:14 | 00:00:00 | |
| DL9SK-14 | 2026-08-31 11:20:25 | 49.59636 | 12.47515 | 65° | 135km/h | 10196m | 3.4m/s | -46.9°C | 24.2% | 268.6hPa | 2.7V | 00:00:00 | 00:00:00 | 00:00:00 | |
| ANDY1245 | 2026-08-31 11:20:24 | 49.59636 | 12.47514 | 67° | 135km/h | 10196m | 3.4m/s | 0°C | 0% | 0hPa | 2.7V | 00:00:00 | 00:00:00 | 00:00:00 | |
| OE5DXL-15 | 2026-08-31 11:20:23 | 49.59609 | 12.47419 | 67° | 133km/h | 10188m | 4.3m/s | -46.9°C | 30.0% | 268.8hPa | 2.7V | 00:00:00 | 00:00:00 | 00:00:00 | |
| DO3MHA-11 | 2026-08-31 11:20:19 | 49.59556 | 12.47229 | 67° | 133km/h | 10173m | 3.7m/s | -46.8°C | 29.0% | 269.5hPa | 2.7V | 00:00:00 | 01:03:12 | 00:00:00 | |
| DO8TBO-1 | 2026-08-31 11:20:14 | 49.59487 | 12.46991 | 65° | 133km/h | 10153m | 3.9m/s | -46.7°C | 28.4% | 270.3hPa | 2.7V | 00:00:00 | 01:03:07 | 00:00:00 | |
| DB0NH | 2026-08-31 11:20:10 | 49.59432 | 12.46801 | 68° | 131km/h | 10138m | 3.7m/s | -46.6°C | 27.4% | 270.9hPa | 2.7V | 00:00:00 | 01:03:03 | 00:00:00 | |
| DO3MHA-11 | 2026-08-31 11:20:09 | 49.59418 | 12.46753 | 68° | 135km/h | 10135m | 3.6m/s | -46.7°C | 27.3% | 271.0hPa | 2.7V | 04:47:00 | 01:03:02 | 00:00:00 | |
| OE5DRO-10 | 2026-08-31 11:20:08 | 49.59405 | 12.46705 | 67° | 133km/h | 10131m | 4.8m/s | -46.6°C | 27.3% | 271.2hPa | 2.9V | 00:00:00 | 00:00:00 | 00:00:00 | |
| PG1ADW-2 | 2026-08-31 11:20:06 | 49.59378 | 12.46608 | 68° | 133km/h | 10122m | 4.8m/s | 0°C | 0% | 0hPa | 2.9V | 00:00:00 | 01:02:59 | 00:00:00 | |
| DB0UT-9 | 2026-08-31 11:20:03 | 49.59352 | 12.46511 | 69° | 135km/h | 10115m | 3.4m/s | -46.4°C | 21.7% | 271.9hPa | 2.9V | 04:47:00 | 00:00:00 | 00:00:00 | |
| DB0ND-19 | 2026-08-31 11:19:57 | 49.59247 | 12.46132 | 65° | 128km/h | 10084m | 3.7m/s | -46.2°C | 20.1% | 273.1hPa | 2.9V | 00:00:00 | 00:00:00 | 00:00:00 | |
| DM0DOS-11 | 2026-08-31 11:19:56 | 49.59208 | 12.45994 | 65° | 131km/h | 10072m | 3.7m/s | 0°C | 0% | 0hPa | 2.9V | 04:47:31 | 01:02:46 | 00:00:00 | |
| DL9SK-14 | 2026-08-31 11:19:54 | 49.59221 | 12.46041 | 66° | 128km/h | 10076m | 3.8m/s | -46.2°C | 19.1% | 273.5hPa | 2.9V | 00:00:00 | 00:00:00 | 00:00:00 | |
| EDDB2-11 | 2026-08-31 11:19:52 | 49.59179 | 12.45901 | 64° | 131km/h | 10064m | 3.2m/s | -46.1°C | 18.1% | 274.0hPa | 2.9V | 00:00:00 | 00:00:00 | 00:00:00 | |
| DO3MHA-11 | 2026-08-31 11:19:49 | 49.59151 | 12.45807 | 66° | 131km/h | 10057m | 3.9m/s | -46.0°C | 21.8% | 274.2hPa | 2.9V | 00:00:00 | 01:02:42 | 00:00:00 | |
| PG1ADW-2 | 2026-08-31 11:19:46 | 49.59110 | 12.45666 | 66° | 130km/h | 10045m | 3.5m/s | 0°C | 0% | 0hPa | 2.9V | 00:00:00 | 00:00:00 | 00:00:00 | |
| DO9HM | 2026-08-31 11:19:45 | 49.59110 | 12.45666 | 67° | 131km/h | 10045m | 3.5m/s | -46.0°C | 17.4% | 274.7hPa | 2.9V | 00:00:00 | 00:00:00 | 00:00:00 | |
| DO8TBO-1 | 2026-08-31 11:19:44 | 49.59083 | 12.45573 | 67° | 128km/h | 10038m | 3.9m/s | -45.8°C | 21.1% | 275.0hPa | 2.9V | 00:00:00 | 01:02:37 | 00:00:00 | |
| DM0DOS-11 | 2026-08-31 11:19:41 | 49.59044 | 12.45433 | 65° | 131km/h | 10026m | 3.5m/s | 0°C | 0% | 0hPa | 2.9V | 04:47:43 | 01:02:34 | 00:00:00 | |
| DB0NH | 2026-08-31 11:19:40 | 49.59030 | 12.45387 | 67° | 128km/h | 10023m | 3.4m/s | -45.8°C | 19.2% | 275.6hPa | 2.9V | 04:47:00 | 01:02:33 | 00:00:00 | |
| DO3MHA-11 | 2026-08-31 11:19:39 | 49.59017 | 12.45340 | 67° | 130km/h | 10019m | 4.7m/s | -45.8°C | 18.9% | 275.8hPa | 2.9V | 00:00:00 | 01:02:32 | 00:00:00 | |
| DL6DJ-15 | 2026-08-31 11:19:38 | 49.58992 | 12.45248 | 66° | 128km/h | 10011m | 3.8m/s | -45.9°C | 14.6% | 276.2hPa | 2.8V | 00:00:00 | 00:00:00 | 00:00:00 | |
| DM0DOS-11 | 2026-08-31 11:19:36 | 49.58912 | 12.44971 | 66° | 131km/h | 9989m | 3.4m/s | 0°C | 0% | 0hPa | 2.8V | 04:47:53 | 01:02:24 | 00:00:00 | |
| OE5DRO-10 | 2026-08-31 11:19:30 | 49.58898 | 12.44925 | 66° | 126km/h | 9985m | 4.1m/s | -45.5°C | 16.8% | 277.2hPa | 2.9V | 00:00:00 | 00:00:00 | 00:00:00 | |
| DO3MHA-11 | 2026-08-31 11:19:29 | 49.58885 | 12.44879 | 66° | 128km/h | 9981m | 3.6m/s | -45.5°C | 16.6% | 277.3hPa | 2.9V | 00:00:00 | 01:02:22 | 00:00:00 | |
| DF2AP-13 | 2026-08-31 11:19:27 | 49.58859 | 12.44787 | 68° | 124km/h | 9973m | 4.1m/s | -45.4°C | 16.5% | 277.7hPa | 2.9V | 04:47:00 | 01:02:20 | 00:00:00 | |
| DB0ND-19 | 2026-08-31 11:19:26 | 49.58834 | 12.44696 | 66° | 126km/h | 9967m | 3.6m/s | -45.5°C | 12.8% | 278.0hPa | 2.9V | 00:00:00 | 00:00:00 | 00:00:00 | |
| DM0DOS-11 | 2026-08-31 11:19:25 | 49.58778 | 12.44519 | 63° | 128km/h | 9951m | 3.7m/s | 0°C | 0% | 0hPa | 2.9V | 04:48:03 | 01:02:14 | 00:00:00 | |
| DB0UT-7 | 2026-08-31 11:19:25 | 49.58834 | 12.44696 | 67° | 115km/h | 9967m | 3.5m/s | -45.5°C | 16.3% | 278.0hPa | 2.7V | 00:00:00 | 01:02:18 | 00:00:00 | |
| OE5DXL-15 | 2026-08-31 11:19:23 | 49.58807 | 12.44607 | 64° | 122km/h | 9959m | 3.9m/s | -45.4°C | 16.6% | 278.3hPa | 2.8V | 00:00:00 | 00:00:00 | 00:00:00 | |
| EDDB2-11 | 2026-08-31 11:19:21 | 49.58764 | 12.44475 | 63° | 124km/h | 9947m | 3.8m/s | -45.5°C | 13.1% | 278.8hPa | 2.8V | 00:00:00 | 00:00:00 | 00:00:00 | |
| DO3MHA-11 | 2026-08-31 11:19:19 | 49.58750 | 12.44431 | 64° | 126km/h | 9944m | 4.0m/s | -45.4°C | 16.8% | 278.9hPa | 2.8V | 04:48:00 | 01:02:12 | 00:00:00 | |
| OE5WHR-10 | 2026-08-31 11:19:16 | 49.58709 | 12.44299 | 65° | 119km/h | 9932m | 3.7m/s | 0°C | 0% | 0hPa | 2.8V | 00:00:00 | 00:00:00 | 00:00:00 | |
| DO8TBO-1 | 2026-08-31 11:19:14 | 49.58681 | 12.44209 | 65° | 120km/h | 9925m | 4.8m/s | -45.2°C | 17.1% | 279.7hPa | 2.8V | 04:48:00 | 01:02:07 | 00:00:00 | |
| DK5PH-5 | 2026-08-31 11:19:13 | 49.58668 | 12.44165 | 65° | 117km/h | 9920m | 4.2m/s | 0°C | 0% | 0hPa | 2.8V | 00:00:00 | 01:02:06 | 00:00:00 | |
| OE5DRO-10 | 2026-08-31 11:19:11 | 49.58641 | 12.44078 | 64° | 120km/h | 9911m | 5.3m/s | -45.3°C | 18.1% | 280.2hPa | 2.8V | 00:00:00 | 00:00:00 | 00:00:00 | |
| DM0DOS-11 | 2026-08-31 11:19:10 | 49.58583 | 12.43907 | 61° | 120km/h | 9894m | 2.7m/s | 0°C | 0% | 0hPa | 2.8V | 00:00:00 | 01:02:00 | 00:00:00 | |
| DB0NH | 2026-08-31 11:19:10 | 49.58627 | 12.44034 | 64° | 119km/h | 9907m | 3.6m/s | -45.2°C | 18.4% | 280.4hPa | 2.9V | 00:00:00 | 01:02:03 | 00:00:00 | |
| DO3MHA-11 | 2026-08-31 11:19:09 | 49.58612 | 12.43991 | 63° | 122km/h | 9903m | 4.4m/s | -45.2°C | 18.4% | 280.6hPa | 2.9V | 00:00:00 | 01:02:02 | 00:00:00 | |
| DL6DJ-15 | 2026-08-31 11:19:07 | 49.58569 | 12.43865 | 61° | 122km/h | 9891m | 4.2m/s | -45.2°C | 15.2% | 281.1hPa | 2.7V | 00:00:00 | 00:00:00 | 00:00:00 | |
| DB0ND-19 | 2026-08-31 11:18:55 | 49.58402 | 12.43366 | 61° | 115km/h | 9841m | 4.5m/s | -45.1°C | 16.9% | 283.3hPa | 2.7V | 00:00:00 | 00:00:00 | 00:00:00 | |
| DL9SK-14 | 2026-08-31 11:18:52 | 49.58358 | 12.43245 | 60° | 120km/h | 9830m | 3.4m/s | -45.1°C | 16.8% | 283.8hPa | 2.7V | 00:00:00 | 00:00:00 | 00:00:00 | |
| EDDB2-11 | 2026-08-31 11:18:50 | 49.58329 | 12.43164 | 61° | 117km/h | 9822m | 3.1m/s | -44.9°C | 17.1% | 284.1hPa | 2.7V | 00:00:00 | 00:00:00 | 00:00:00 | |
| DO3MHA-11 | 2026-08-31 11:18:49 | 49.58329 | 12.43164 | 62° | 115km/h | 9823m | 3.0m/s | -44.9°C | 21.2% | 284.0hPa | 2.7V | 00:00:00 | 01:01:42 | 00:00:00 | |
| AM1SDL-15 | 2026-08-31 11:18:47 | 49.58302 | 12.43084 | 65° | 113km/h | 9816m | 4.1m/s | -44.9°C | 21.4% | 284.3hPa | 2.7V | 00:00:00 | 01:01:40 | 00:00:00 | |
| DO8TBO-1 | 2026-08-31 11:18:44 | 49.58266 | 12.42964 | 66° | 113km/h | 9804m | 3.5m/s | -44.7°C | 21.8% | 284.8hPa | 2.9V | 00:00:00 | 01:01:37 | 00:00:00 | |
| DK5PH-5 | 2026-08-31 11:18:42 | 49.58242 | 12.42884 | 65° | 115km/h | 9796m | 3.6m/s | 0°C | 0% | 0hPa | 2.9V | 00:00:00 | 01:01:35 | 00:00:00 | |
| DB0NH | 2026-08-31 11:18:40 | 49.58217 | 12.42803 | 63° | 113km/h | 9789m | 3.9m/s | -44.7°C | 21.6% | 285.5hPa | 2.9V | 00:00:00 | 01:01:33 | 00:00:00 | |
| DO3MHA-11 | 2026-08-31 11:18:39 | 49.58203 | 12.42764 | 63° | 115km/h | 9785m | 3.7m/s | -44.6°C | 21.5% | 285.7hPa | 2.9V | 00:00:00 | 01:01:32 | 00:00:00 | |
| DL6DJ-15 | 2026-08-31 11:18:36 | 49.58151 | 12.42606 | 62° | 115km/h | 9770m | 3.3m/s | -44.5°C | 17.0% | 286.3hPa | 2.9V | 00:00:00 | 00:00:00 | 00:00:00 | |
| AM1SDL-15 | 2026-08-31 11:18:35 | 49.58151 | 12.42606 | 63° | 115km/h | 9770m | 3.2m/s | -44.5°C | 21.0% | 286.3hPa | 2.9V | 00:00:00 | 01:01:28 | 00:00:00 | |
| OE5DRO-10 | 2026-08-31 11:18:33 | 49.58124 | 12.42527 | 62° | 113km/h | 9762m | 3.5m/s | -44.5°C | 21.1% | 286.6hPa | 2.9V | 00:00:00 | 00:00:00 | 00:00:00 | |
| DO3MHA-11 | 2026-08-31 11:18:29 | 49.58071 | 12.42367 | 65° | 113km/h | 9748m | 3.5m/s | -44.3°C | 21.1% | 287.2hPa | 2.9V | 04:48:00 | 01:01:22 | 00:00:00 | |
| DF2AP-13 | 2026-08-31 11:18:25 | 49.58023 | 12.42207 | 66° | 113km/h | 9733m | 3.6m/s | -44.2°C | 21.4% | 287.8hPa | 2.9V | 00:00:00 | 01:01:18 | 00:00:00 | |
| DB0ND-19 | 2026-08-31 11:18:24 | 49.58000 | 12.42126 | 65° | 115km/h | 9725m | 3.5m/s | -44.2°C | 17.5% | 288.3hPa | 2.9V | 00:00:00 | 00:00:00 | 00:00:00 | |
| OE5DXL-15 | 2026-08-31 11:18:23 | 49.57999 | 12.42125 | 66° | 113km/h | 9726m | 3.4m/s | -44.1°C | 21.5% | 288.2hPa | 2.9V | 00:00:00 | 00:00:00 | 00:00:00 | |
| DL9SK-14 | 2026-08-31 11:18:21 | 49.57975 | 12.42045 | 64° | 111km/h | 9717m | 4.2m/s | -44.1°C | 17.5% | 288.6hPa | 2.9V | 00:00:00 | 00:00:00 | 00:00:00 | |
| DO3MHA-11 | 2026-08-31 11:18:19 | 49.57949 | 12.41967 | 63° | 113km/h | 9709m | 4.5m/s | -44.0°C | 21.3% | 288.9hPa | 2.9V | 00:00:00 | 01:01:12 | 00:00:00 | |
| OE5DRO-10 | 2026-08-31 11:18:14 | 49.57883 | 12.41775 | 63° | 115km/h | 9692m | 3.4m/s | -43.9°C | 21.1% | 289.7hPa | 2.9V | 04:49:00 | 00:00:00 | 00:00:00 | |
| DB0UT-7 | 2026-08-31 11:18:12 | 49.57856 | 12.41698 | 63° | 113km/h | 9684m | 3.8m/s | -43.7°C | 20.9% | 290.0hPa | 2.9V | 00:00:00 | 00:00:00 | 00:00:00 | |
| DO9HM | 2026-08-31 11:18:11 | 49.57843 | 12.41658 | 64° | 117km/h | 9680m | 3.4m/s | -43.8°C | 16.8% | 290.2hPa | 2.9V | 00:00:00 | 00:00:00 | 00:00:00 | |
| DB0NH | 2026-08-31 11:18:10 | 49.57830 | 12.41617 | 64° | 113km/h | 9676m | 4.3m/s | -43.8°C | 20.4% | 290.3hPa | 2.9V | 00:00:00 | 01:01:03 | 00:00:00 | |
| DO3MHA-11 | 2026-08-31 11:18:09 | 49.57817 | 12.41577 | 65° | 113km/h | 9673m | 3.7m/s | -43.7°C | 20.6% | 290.5hPa | 2.7V | 00:00:00 | 01:01:02 | 00:00:00 | |
| DL6DJ-15 | 2026-08-31 11:18:05 | 49.57752 | 12.41377 | 62° | 110km/h | 9653m | 4.0m/s | -43.5°C | 16.6% | 291.3hPa | 2.9V | 00:00:00 | 00:00:00 | 00:00:00 | |
| DB0ND-19 | 2026-08-31 11:17:52 | 49.57593 | 12.40903 | 62° | 113km/h | 9609m | 3.6m/s | -43.2°C | 16.6% | 293.3hPa | 2.9V | 00:00:00 | 00:00:00 | 00:00:00 | |
| DL9SK-14 | 2026-08-31 11:17:50 | 49.57553 | 12.40786 | 62° | 111km/h | 9597m | 4.5m/s | -43.2°C | 16.7% | 293.8hPa | 2.9V | 00:00:00 | 00:00:00 | 00:00:00 | |
| EDDB2-11 | 2026-08-31 11:17:48 | 49.57527 | 12.40708 | 62° | 111km/h | 9589m | 3.9m/s | -43.1°C | 16.9% | 294.2hPa | 2.9V | 00:00:00 | 00:00:00 | 00:00:00 | |
| AM1SDL-15 | 2026-08-31 11:17:47 | 49.57527 | 12.40708 | 63° | 115km/h | 9590m | 3.9m/s | -43.0°C | 20.6% | 294.1hPa | 2.9V | 00:00:00 | 01:00:40 | 00:00:00 | |
| DO8TBO-1 | 2026-08-31 11:17:44 | 49.57487 | 12.40592 | 63° | 115km/h | 9578m | 4.3m/s | -43.0°C | 20.8% | 294.6hPa | 2.9V | 00:00:00 | 01:00:37 | 00:00:00 | |
| DB0UT-7 | 2026-08-31 11:17:42 | 49.57460 | 12.40514 | 63° | 113km/h | 9571m | 3.9m/s | -42.9°C | 20.7% | 294.9hPa | 2.9V | 00:00:00 | 01:00:35 | 00:00:00 | |
| DB0NH | 2026-08-31 11:17:40 | 49.57433 | 12.40436 | 62° | 113km/h | 9563m | 3.2m/s | -42.9°C | 20.7% | 295.3hPa | 2.9V | 00:00:00 | 01:00:33 | 00:00:00 | |
| DO3MHA-11 | 2026-08-31 11:17:39 | 49.57419 | 12.40397 | 62° | 115km/h | 9559m | 4.6m/s | -42.8°C | 20.5% | 295.4hPa | 2.9V | 04:49:00 | 01:00:32 | 00:00:00 | |
| DB0UT-9 | 2026-08-31 11:17:38 | 49.57419 | 12.40397 | 63° | 117km/h | 9559m | 4.7m/s | -42.9°C | 16.9% | 295.5hPa | 2.7V | 00:00:00 | 00:00:00 | 00:00:00 | |
| OE5DRO-10 | 2026-08-31 11:17:36 | 49.57377 | 12.40275 | 62° | 115km/h | 9548m | 4.4m/s | -42.7°C | 20.5% | 295.9hPa | 2.7V | 00:00:00 | 00:00:00 | 00:00:00 | |
| OE5WHR-10 | 2026-08-31 11:17:35 | 49.57363 | 12.40235 | 61° | 102km/h | 9545m | 3.5m/s | 0°C | 0% | 0hPa | 2.7V | 00:00:00 | 00:00:00 | 00:00:00 | |
| DL6DJ-15 | 2026-08-31 11:17:34 | 49.57335 | 12.40156 | 62° | 115km/h | 9536m | 4.3m/s | -42.7°C | 16.9% | 296.5hPa | 2.7V | 00:00:00 | 00:00:00 | 00:00:00 | |
| DO3MHA-11 | 2026-08-31 11:17:29 | 49.57281 | 12.40002 | 62° | 115km/h | 9522m | 3.0m/s | -42.5°C | 20.0% | 297.1hPa | 2.7V | 00:00:00 | 01:00:22 | 00:00:00 | |
| DO9HM | 2026-08-31 11:17:28 | 49.57281 | 12.40002 | 63° | 111km/h | 9522m | 3.0m/s | -42.5°C | 16.5% | 297.2hPa | 2.7V | 00:00:00 | 00:00:00 | 00:00:00 | |
| DK5PH-5 | 2026-08-31 11:17:23 | 49.57195 | 12.39768 | 60° | 115km/h | 9500m | 4.1m/s | 0°C | 0% | 0hPa | 2.7V | 00:00:00 | 01:00:16 | 00:00:00 | |
| DB0ND-19 | 2026-08-31 11:17:22 | 49.57166 | 12.39689 | 61° | 113km/h | 9492m | 3.0m/s | -42.3°C | -1.0% | 298.5hPa | 2.7V | 00:00:00 | 00:00:00 | 00:00:00 | |
| DO3MHA-11 | 2026-08-31 11:17:19 | 49.57138 | 12.39613 | 62° | 111km/h | 9486m | 3.7m/s | -42.2°C | 19.0% | 298.8hPa | 2.7V | 00:00:00 | 01:00:12 | 00:00:00 | |
| EDDB2-11 | 2026-08-31 11:17:17 | 49.57099 | 12.39499 | 62° | 110km/h | 9475m | 3.6m/s | -42.1°C | 15.3% | 299.2hPa | 2.7V | 00:00:00 | 00:00:00 | 00:00:00 | |
| DO8TBO-1 | 2026-08-31 11:17:14 | 49.57072 | 12.39422 | 62° | 111km/h | 9467m | 4.6m/s | -42.0°C | 19.0% | 299.6hPa | 2.7V | 00:00:00 | 01:00:07 | 00:00:00 | |
| DB0NH | 2026-08-31 11:17:10 | 49.57017 | 12.39269 | 62° | 111km/h | 9453m | 3.4m/s | -41.8°C | 18.6% | 300.2hPa | 2.9V | 04:50:00 | 01:00:03 | 00:00:00 | |
| DO3MHA-11 | 2026-08-31 11:17:09 | 49.57003 | 12.39230 | 61° | 113km/h | 9449m | 3.9m/s | -41.8°C | 18.4% | 300.3hPa | 2.9V | 00:00:00 | 01:00:02 | 00:00:00 | |
| DO9HM | 2026-08-31 11:17:06 | 49.56974 | 12.39151 | 62° | 115km/h | 9441m | 3.6m/s | -41.7°C | 14.7% | 300.7hPa | 2.9V | 04:50:00 | 00:00:00 | 00:00:00 | |
| DL6DJ-15 | 2026-08-31 11:17:03 | 49.56907 | 12.38957 | 61° | 108km/h | 9423m | 3.1m/s | -41.6°C | 14.5% | 301.6hPa | 2.9V | 00:00:00 | 00:00:00 | 00:00:00 | |
| DB0ND-19 | 2026-08-31 11:16:51 | 49.56753 | 12.38504 | 63° | 111km/h | 9378m | 3.6m/s | -41.2°C | -1.0% | 303.5hPa | 2.9V | 00:00:00 | 00:00:00 | 00:00:00 | |
| DL9SK-14 | 2026-08-31 11:16:48 | 49.56714 | 12.38387 | 62° | 111km/h | 9367m | 3.0m/s | -41.1°C | 12.9% | 304.0hPa | 2.9V | 00:00:00 | 00:00:00 | 00:00:00 | |
| EDDB2-11 | 2026-08-31 11:16:46 | 49.56688 | 12.38309 | 62° | 113km/h | 9359m | 3.3m/s | -41.0°C | 12.8% | 304.3hPa | 2.9V | 00:00:00 | 00:00:00 | 00:00:00 | |
| NBG1-10 | 2026-08-31 11:16:44 | 49.56675 | 12.38270 | 63° | 113km/h | 9356m | 4.3m/s | -41.0°C | 15.6% | 304.5hPa | 2.9V | 00:00:00 | 00:59:37 | 00:00:00 | |
| DB0NH | 2026-08-31 11:16:40 | 49.56622 | 12.38117 | 62° | 113km/h | 9341m | 3.4m/s | -40.9°C | 15.0% | 305.1hPa | 2.9V | 00:00:00 | 00:59:33 | 00:00:00 | |
| DO3MHA-11 | 2026-08-31 11:16:39 | 49.56608 | 12.38078 | 61° | 113km/h | 9338m | 3.5m/s | -40.9°C | 14.8% | 305.2hPa | 2.7V | 00:00:00 | 00:59:32 | 00:00:00 | |
| DB0UT-9 | 2026-08-31 11:16:37 | 49.56594 | 12.38040 | 62° | 113km/h | 9334m | 4.4m/s | -40.9°C | 11.8% | 305.5hPa | 2.9V | 04:50:00 | 00:00:00 | 00:00:00 | |
| AM1SDL-15 | 2026-08-31 11:16:34 | 49.56541 | 12.37886 | 64° | 113km/h | 9320m | 3.8m/s | -40.7°C | 14.3% | 306.1hPa | 2.9V | 00:00:00 | 00:59:27 | 00:00:00 | |
| DL6DJ-15 | 2026-08-31 11:16:31 | 49.56504 | 12.37767 | 65° | 111km/h | 9308m | 3.3m/s | -40.6°C | 11.6% | 306.6hPa | 2.9V | 00:00:00 | 00:00:00 | 00:00:00 | |
| DB0UT-7 | 2026-08-31 11:16:30 | 49.56492 | 12.37727 | 66° | 113km/h | 9305m | 3.3m/s | -40.5°C | 14.4% | 306.8hPa | 2.9V | 04:50:00 | 00:00:00 | 00:00:00 | |
| DO3MHA-11 | 2026-08-31 11:16:29 | 49.56480 | 12.37687 | 65° | 113km/h | 9301m | 4.1m/s | -40.5°C | 14.6% | 306.9hPa | 2.9V | 00:00:00 | 00:59:22 | 00:00:00 | |
| DO9HM | 2026-08-31 11:16:25 | 49.56441 | 12.37570 | 63° | 111km/h | 9291m | 3.4m/s | -40.4°C | 11.7% | 307.4hPa | 2.9V | 00:00:00 | 00:00:00 | 00:00:00 | |
| AM1SDL-15 | 2026-08-31 11:16:22 | 49.56387 | 12.37415 | 63° | 113km/h | 9278m | 2.5m/s | -40.4°C | 14.3% | 308.0hPa | 2.9V | 00:00:00 | 00:59:15 | 00:00:00 | |
| DO3MHA-11 | 2026-08-31 11:16:19 | 49.56346 | 12.37297 | 62° | 113km/h | 9267m | 3.5m/s | -40.2°C | 14.1% | 308.4hPa | 2.7V | 00:00:00 | 00:59:12 | 00:00:00 | |
| DL9SK-14 | 2026-08-31 11:16:17 | 49.56304 | 12.37183 | 60° | 113km/h | 9257m | 2.9m/s | -40.2°C | 11.5% | 309.0hPa | 2.7V | 00:00:00 | 00:00:00 | 00:00:00 | |
| OE5DRO-10 | 2026-08-31 11:16:16 | 49.56304 | 12.37183 | 61° | 113km/h | 9257m | 2.8m/s | 0°C | 0% | 0hPa | 2.7V | 00:00:00 | 00:00:00 | 00:00:00 | |
| EDDB2-11 | 2026-08-31 11:16:15 | 49.56277 | 12.37106 | 61° | 110km/h | 9250m | 3.7m/s | 0°C | -1.0% | -1.0hPa | 2.7V | 00:00:00 | 00:00:00 | 00:00:00 | |
| DO8TBO-1 | 2026-08-31 11:16:14 | 49.56277 | 12.37106 | 62° | 113km/h | 9250m | 3.7m/s | -40.1°C | 14.4% | 309.2hPa | 2.7V | 00:00:00 | 00:59:07 | 00:00:00 | |
| NBG1-10 | 2026-08-31 11:16:11 | 49.56239 | 12.36989 | 65° | 113km/h | 9240m | 3.5m/s | -40.0°C | 14.0% | 309.7hPa | 2.7V | 00:00:00 | 00:59:04 | 00:00:00 | |
| DB0NH | 2026-08-31 11:16:10 | 49.56226 | 12.36949 | 65° | 113km/h | 9237m | 3.2m/s | -40.0°C | 13.9% | 309.9hPa | 2.7V | 00:00:00 | 00:59:03 | 00:00:00 | |
| DO3MHA-11 | 2026-08-31 11:16:09 | 49.56213 | 12.36908 | 65° | 113km/h | 9233m | 4.0m/s | -40.0°C | 13.8% | 310.0hPa | 2.7V | 00:00:00 | 00:59:02 | 00:00:00 | |
| DO9HM | 2026-08-31 11:16:04 | 49.56163 | 12.36751 | 64° | 113km/h | 9218m | 3.4m/s | -39.9°C | 11.0% | 310.7hPa | 2.9V | 00:00:00 | 00:00:00 | 00:00:00 | |
| DL6DJ-15 | 2026-08-31 11:16:00 | 49.56097 | 12.36555 | 62° | 117km/h | 9200m | 3.2m/s | -39.7°C | 10.5% | 311.5hPa | 2.9V | 00:00:00 | 00:00:00 | 00:00:00 | |
| DB0ND-19 | 2026-08-31 11:15:48 | 49.55946 | 12.36075 | 65° | 115km/h | 9160m | 3.6m/s | 0°C | -1.0% | 313.4hPa | 2.9V | 00:00:00 | 00:00:00 | 00:00:00 | |
| DL9SK-14 | 2026-08-31 11:15:46 | 49.55910 | 12.35953 | 64° | 111km/h | 9150m | 3.4m/s | -39.2°C | 10.1% | 313.8hPa | 2.9V | 00:00:00 | 00:00:00 | 00:00:00 | |
| SONCRA | 2026-08-31 11:15:43 | 49.55872 | 12.35834 | 64° | 113km/h | 9140m | 3.6m/s | -39.2°C | 10.0% | -1.0hPa | 2.9V | 00:00:00 | 00:00:00 | 00:00:00 | |
| DO8TBO-1 | 2026-08-31 11:15:42 | 49.55872 | 12.35834 | 65° | 117km/h | 9140m | 3.6m/s | -39.2°C | 12.4% | 314.3hPa | 2.9V | 00:00:00 | 00:58:35 | 00:00:00 | |
| DB0NH | 2026-08-31 11:15:40 | 49.55847 | 12.35753 | 65° | 115km/h | 9133m | 4.0m/s | -39.0°C | 12.3% | 314.5hPa | 2.7V | 00:00:00 | 00:58:33 | 00:00:00 | |
| DO3MHA-11 | 2026-08-31 11:15:39 | 49.55835 | 12.35714 | 65° | 115km/h | 9130m | 3.4m/s | -39.0°C | 12.3% | 314.8hPa | 2.7V | 00:00:00 | 00:58:32 | 00:00:00 | |
| OE5DRO-10 | 2026-08-31 11:15:38 | 49.55823 | 12.35674 | 65° | 115km/h | 9126m | 2.8m/s | 0°C | 0% | 0hPa | 2.7V | 00:00:00 | 00:00:00 | 00:00:00 | |
| AM1SDL-15 | 2026-08-31 11:15:34 | 49.55772 | 12.35512 | 64° | 115km/h | 9114m | 3.9m/s | 0°C | 0% | 0hPa | 2.7V | 00:00:00 | 00:58:27 | 00:00:00 | |
| DO3MHA-11 | 2026-08-31 11:15:29 | 49.55707 | 12.35311 | 64° | 115km/h | 9096m | 3.4m/s | -38.7°C | 11.9% | 316.3hPa | 2.7V | 00:00:00 | 00:58:22 | 00:00:00 | |
| DF2AP-13 | 2026-08-31 11:15:25 | 49.55656 | 12.35150 | 65° | 117km/h | 9082m | 3.7m/s | -38.5°C | 11.7% | 317.0hPa | 2.7V | 00:00:00 | 00:58:18 | 00:00:00 | |
| OE5DXL-15 | 2026-08-31 11:15:23 | 49.55631 | 12.35068 | 65° | 117km/h | 9075m | 3.9m/s | -38.6°C | 11.5% | 317.3hPa | 2.9V | 00:00:00 | 00:00:00 | 00:00:00 | |
| AM1SDL-15 | 2026-08-31 11:15:22 | 49.55619 | 12.35028 | 65° | 117km/h | 9071m | 3.3m/s | 0°C | 0% | 0hPa | 2.9V | 00:00:00 | 00:58:15 | 00:00:00 | |
| OE5DRO-10 | 2026-08-31 11:15:20 | 49.55580 | 12.34906 | 64° | 117km/h | 9061m | 2.9m/s | 0°C | 0% | 0hPa | 2.9V | 00:00:00 | 00:00:00 | 00:00:00 | |
| DO3MHA-11 | 2026-08-31 11:15:19 | 49.55580 | 12.34906 | 64° | 117km/h | 9061m | 2.9m/s | -38.4°C | 11.2% | 317.9hPa | 2.9V | 00:00:00 | 00:58:12 | 00:00:00 | |
| DB0ND-19 | 2026-08-31 11:15:17 | 49.55553 | 12.34824 | 63° | 117km/h | 9054m | 4.1m/s | 0°C | -1.0% | -1.0hPa | 2.9V | 00:00:00 | 00:00:00 | 00:00:00 | |
| DL9SK-14 | 2026-08-31 11:15:14 | 49.55514 | 12.34699 | 64° | 119km/h | 9043m | 3.4m/s | -38.3°C | 8.8% | 318.9hPa | 2.9V | 00:00:00 | 00:00:00 | 00:00:00 | |
| DO9HM | 2026-08-31 11:15:13 | 49.55501 | 12.34658 | 66° | 117km/h | 9040m | 2.6m/s | -38.2°C | 8.8% | 319.0hPa | 2.9V | 00:00:00 | 00:00:00 | 00:00:00 | |
| DO8TBO-1 | 2026-08-31 11:15:12 | 49.55489 | 12.34616 | 66° | 115km/h | 9037m | 3.4m/s | -38.2°C | 10.8% | 319.1hPa | 2.9V | 00:00:00 | 00:58:05 | 00:00:00 | |
| DB0NH | 2026-08-31 11:15:10 | 49.55465 | 12.34536 | 66° | 117km/h | 9030m | 2.9m/s | -38.2°C | 10.9% | 319.4hPa | 2.9V | 00:00:00 | 00:58:03 | 00:00:00 | |
| DO3MHA-11 | 2026-08-31 11:15:09 | 49.55454 | 12.34497 | 66° | 117km/h | 9026m | 4.1m/s | -38.1°C | 11.0% | 319.5hPa | 2.7V | 04:52:00 | 00:58:02 | 00:00:00 | |
| NBG1-10 | 2026-08-31 11:15:05 | 49.55403 | 12.34341 | 62° | 117km/h | 9012m | 3.8m/s | -38.1°C | 11.1% | 320.2hPa | 2.9V | 04:52:00 | 00:57:58 | 00:00:00 | |
| DL6DJ-15 | 2026-08-31 11:14:58 | 49.55304 | 12.34047 | 64° | 120km/h | 8986m | 2.7m/s | -38.0°C | 8.8% | 321.4hPa | 2.9V | 00:00:00 | 00:00:00 | 00:00:00 | |
| DF7PN | 2026-08-31 11:14:57 | 49.55291 | 12.34005 | 65° | 117km/h | 8983m | 3.6m/s | -38.0°C | 8.9% | 321.5hPa | 2.9V | 00:00:00 | 00:00:00 | 00:00:00 | |
| DF2AP-13 | 2026-08-31 11:14:55 | 49.55267 | 12.33925 | 65° | 113km/h | 8975m | 4.7m/s | -37.9°C | 11.4% | 321.8hPa | 2.9V | 00:00:00 | 00:57:48 | 00:00:00 | |
| DL1NUX | 2026-08-31 11:14:53 | 49.55172 | 12.33659 | 61° | 120km/h | 8947m | 3.3m/s | -37.7°C | 12.9% | 323.2hPa | 2.9V | 04:52:36 | 00:57:41 | 00:00:00 | |
| DO9HM | 2026-08-31 11:14:52 | 49.55241 | 12.33850 | 61° | 108km/h | 8967m | 3.1m/s | -37.8°C | 9.7% | 322.3hPa | 2.9V | 00:00:00 | 00:00:00 | 00:00:00 | |
| DO3MHA-11 | 2026-08-31 11:14:49 | 49.55186 | 12.33700 | 62° | 119km/h | 8951m | 3.4m/s | -37.7°C | 12.7% | 323.0hPa | 2.9V | 00:00:00 | 00:57:42 | 00:00:00 | |
| DB0UT-7 | 2026-08-31 11:14:47 | 49.55157 | 12.33618 | 61° | 111km/h | 8943m | 6.3m/s | -37.7°C | 13.2% | 323.3hPa | 2.9V | 00:00:00 | 00:00:00 | 00:00:00 | |
| AM1SDL-15 | 2026-08-31 11:14:46 | 49.55142 | 12.33577 | 60° | 117km/h | 8937m | 4.2m/s | 0°C | 0% | 0hPa | 2.9V | 00:00:00 | 00:57:39 | 00:00:00 | |
| DL9SK-14 | 2026-08-31 11:14:44 | 49.55096 | 12.33456 | 60° | 117km/h | 8922m | 5.1m/s | -37.6°C | 12.3% | 324.3hPa | 2.9V | 00:00:00 | 00:00:00 | 00:00:00 | |
| SONCRA | 2026-08-31 11:14:41 | 49.55068 | 12.33376 | 61° | 113km/h | 8911m | 6.2m/s | -37.6°C | 13.6% | -1.0hPa | 2.9V | 00:00:00 | 00:00:00 | 00:00:00 | |
| DB0NH | 2026-08-31 11:14:40 | 49.55054 | 12.33337 | 63° | 111km/h | 8905m | 5.8m/s | -37.5°C | 17.2% | 325.2hPa | 2.9V | 04:52:00 | 00:57:33 | 00:00:00 | |
| DO3MHA-11 | 2026-08-31 11:14:39 | 49.55040 | 12.33298 | 62° | 111km/h | 8899m | 6.2m/s | -37.5°C | 18.1% | 325.5hPa | 2.9V | 00:00:00 | 00:57:32 | 00:00:00 | |
| DO8TBO-1 | 2026-08-31 11:14:34 | 49.54968 | 12.33106 | 57° | 106km/h | 8867m | 4.7m/s | -37.3°C | 19.9% | 327.0hPa | 2.9V | 00:00:00 | 00:57:27 | 00:00:00 | |
| NBG1-10 | 2026-08-31 11:14:32 | 49.54937 | 12.33038 | 55° | 106km/h | 8855m | 4.9m/s | -37.3°C | 20.3% | 327.5hPa | 2.9V | 00:00:00 | 00:57:25 | 00:00:00 | |
| DL1NUX | 2026-08-31 11:14:31 | 49.54840 | 12.32825 | 58° | 115km/h | 8826m | 4.9m/s | -37.3°C | 20.6% | 328.9hPa | 2.9V | 04:52:58 | 00:57:19 | 00:00:00 | |
| DO9HM | 2026-08-31 11:14:30 | 49.54921 | 12.33004 | 55° | 108km/h | 8851m | 4.0m/s | -37.3°C | 17.6% | 327.7hPa | 2.9V | 00:00:00 | 00:00:00 | 00:00:00 | |
| DO3MHA-11 | 2026-08-31 11:14:29 | 49.54889 | 12.32936 | 55° | 110km/h | 8841m | 5.2m/s | -37.4°C | 20.7% | 328.1hPa | 2.9V | 00:00:00 | 00:57:22 | 00:00:00 | |
| DL6DJ-15 | 2026-08-31 11:14:27 | 49.54856 | 12.32863 | 56° | 115km/h | 8831m | 5.0m/s | -37.4°C | 17.6% | 328.6hPa | 2.9V | 00:00:00 | 00:00:00 | 00:00:00 | |
| DF2AP-13 | 2026-08-31 11:14:25 | 49.54826 | 12.32787 | 60° | 102km/h | 8821m | 5.3m/s | -37.2°C | 20.5% | 329.1hPa | 2.9V | 00:00:00 | 00:57:18 | 00:00:00 | |
| OE5DXL-15 | 2026-08-31 11:14:23 | 49.54799 | 12.32712 | 62° | 102km/h | 8811m | 4.6m/s | -37.1°C | 20.3% | 329.6hPa | 2.9V | 00:00:00 | 00:00:00 | 00:00:00 | |
| AM1SDL-15 | 2026-08-31 11:14:22 | 49.54786 | 12.32675 | 63° | 99km/h | 8805m | 5.3m/s | 0°C | 0% | 0hPa | 2.9V | 00:00:00 | 00:57:15 | 00:00:00 | |
| DO3MHA-11 | 2026-08-31 11:14:19 | 49.54752 | 12.32565 | 65° | 102km/h | 8791m | 5.2m/s | -37.0°C | 20.4% | 330.5hPa | 2.9V | 04:53:00 | 00:57:12 | 00:00:00 | |
| DL1NUX | 2026-08-31 11:14:18 | 49.54688 | 12.32401 | 56° | 104km/h | 8765m | 4.7m/s | -36.8°C | 19.7% | 331.9hPa | 2.9V | 04:53:10 | 00:57:07 | 00:00:00 | |
| DB0UT-7 | 2026-08-31 11:14:17 | 49.54729 | 12.32498 | 59° | 97km/h | 8783m | 4.0m/s | -36.9°C | 20.3% | 331.0hPa | 2.9V | 00:00:00 | 00:57:10 | 00:00:00 | |
| DL9SK-14 | 2026-08-31 11:14:13 | 49.54658 | 12.32333 | 57° | 108km/h | 8753m | 6.4m/s | -36.7°C | 16.6% | 332.5hPa | 2.9V | 00:00:00 | 00:00:00 | 00:00:00 | |
| DB0NH | 2026-08-31 11:14:10 | 49.54630 | 12.32261 | 60° | 100km/h | 8740m | 5.6m/s | -36.6°C | 19.7% | 333.0hPa | 2.9V | 00:00:00 | 00:57:03 | 00:00:00 | |
| DO3MHA-11 | 2026-08-31 11:14:09 | 49.54617 | 12.32226 | 61° | 102km/h | 8735m | 5.4m/s | -36.5°C | 19.8% | 333.3hPa | 2.9V | 00:00:00 | 00:57:02 | 00:00:00 | |
| DL1NUX | 2026-08-31 11:14:07 | 49.54519 | 12.31996 | 53° | 104km/h | 8702m | 4m/s | -36.3°C | 20.6% | 334.9hPa | 2.8V | 04:53:22 | 00:56:55 | 00:00:00 | |
| DO8TBO-1 | 2026-08-31 11:14:04 | 49.54550 | 12.32062 | 55° | 97km/h | 8711m | 6.3m/s | -36.3°C | 20.3% | 334.5hPa | 2.9V | 04:53:00 | 00:56:57 | 00:00:00 | |
| DL6DJ-15 | 2026-08-31 11:13:56 | 49.54438 | 12.31797 | 55° | 95km/h | 8674m | 7.8m/s | -36.1°C | 17.9% | 336.4hPa | 2.7V | 00:00:00 | 00:00:00 | 00:00:00 | |
| DF2AP-13 | 2026-08-31 11:13:55 | 49.54424 | 12.31767 | 53° | 97km/h | 8668m | 4.3m/s | -36.0°C | 20.9% | 336.6hPa | 2.7V | 04:53:00 | 00:56:48 | 00:00:00 | |
| OE5DXL-15 | 2026-08-31 11:13:53 | 49.54394 | 12.31708 | 52° | 97km/h | 8655m | 5.9m/s | -35.9°C | 21.1% | 337.2hPa | 2.9V | 00:00:00 | 00:00:00 | 00:00:00 | |
| DL1NUX | 2026-08-31 11:13:51 | 49.54315 | 12.31506 | 61° | 104km/h | 8625m | 4.3m/s | -35.8°C | 21.2% | 338.6hPa | 2.9V | 04:53:37 | 00:56:40 | 00:00:00 | |
| DO3MHA-11 | 2026-08-31 11:13:49 | 49.54340 | 12.31578 | 63° | 97km/h | 8635m | 6.3m/s | -35.8°C | 21.1% | 338.1hPa | 2.9V | 00:00:00 | 00:56:42 | 00:00:00 | |
| DO9HM | 2026-08-31 11:13:45 | 49.54303 | 12.31471 | 63° | 102km/h | 8620m | 5.8m/s | -35.8°C | 18.2% | 338.9hPa | 2.9V | 04:54:00 | 00:00:00 | 00:00:00 | |
| DL9SK-14 | 2026-08-31 11:13:41 | 49.54235 | 12.31321 | 50° | 89km/h | 8593m | 6.3m/s | -35.5°C | -1.0% | -1.0hPa | 2.9V | 00:00:00 | 00:00:00 | 00:00:00 | |
| DB0NH | 2026-08-31 11:13:40 | 49.54221 | 12.31294 | 52° | 93km/h | 8589m | 2.7m/s | -35.4°C | 20.9% | 340.4hPa | 2.9V | 00:00:00 | 00:56:33 | 00:00:00 | |
| DO3MHA-11 | 2026-08-31 11:13:39 | 49.54206 | 12.31266 | 54° | 95km/h | 8585m | 4.3m/s | -35.4°C | 20.9% | 340.6hPa | 2.9V | 00:00:00 | 00:56:32 | 00:00:00 | |
| DL1NUX | 2026-08-31 11:13:38 | 49.54128 | 12.31087 | 53° | 95km/h | 8555m | 4.2m/s | -35.2°C | 20.6% | 342.1hPa | 2.9V | 04:53:51 | 00:56:26 | 00:00:00 | |
| AM1SDL-15 | 2026-08-31 11:13:36 | 49.54167 | 12.31177 | 58° | 97km/h | 8571m | 6.1m/s | 0°C | 0% | 0hPa | 2.9V | 00:00:00 | 00:56:29 | 00:00:00 | |
| DO8TBO-1 | 2026-08-31 11:13:32 | 49.54114 | 12.31057 | 53° | 99km/h | 8551m | 5.4m/s | -35.1°C | 20.5% | 342.2hPa | 2.9V | 00:00:00 | 00:56:25 | 00:00:00 | |
| DO3MHA-11 | 2026-08-31 11:13:29 | 49.54069 | 12.30966 | 55° | 102km/h | 8535m | 6.1m/s | -35.0°C | 20.5% | 343.0hPa | 2.9V | 04:53:00 | 00:56:22 | 00:00:00 | |
| DL1NUX | 2026-08-31 11:13:27 | 49.53975 | 12.30733 | 56° | 102km/h | 8502m | 5.1m/s | -34.8°C | 20.1% | 344.6hPa | 2.9V | 04:54:02 | 00:56:15 | 00:00:00 | |
| NBG1-10 | 2026-08-31 11:13:26 | 49.54028 | 12.30869 | 61° | 99km/h | 8521m | 5.9m/s | -34.9°C | 20.1% | 343.7hPa | 2.9V | 00:00:00 | 00:56:19 | 00:00:00 | |
| DO9HM | 2026-08-31 11:13:25 | 49.54016 | 12.30835 | 61° | 102km/h | 8516m | 3.8m/s | -34.9°C | 17.6% | 343.9hPa | 2.9V | 04:54:00 | 00:00:00 | 00:00:00 | |
| DF2AP-13 | 2026-08-31 11:13:24 | 49.54003 | 12.30801 | 60° | 99km/h | 8512m | 3.7m/s | -34.8°C | 20.3% | 344.2hPa | 2.9V | 00:00:00 | 00:56:17 | 00:00:00 | |
| OE5DXL-15 | 2026-08-31 11:13:23 | 49.53989 | 12.30767 | 58° | 97km/h | 8508m | 5.3m/s | -34.7°C | 20.2% | 344.3hPa | 2.9V | 00:00:00 | 00:00:00 | 00:00:00 | |
| DO3MHA-11 | 2026-08-31 11:13:19 | 49.53929 | 12.30633 | 53° | 93km/h | 8485m | 4.9m/s | -34.6°C | 20.0% | 345.4hPa | 2.9V | 00:00:00 | 00:56:12 | 00:00:00 | |
| DL1NUX | 2026-08-31 11:13:18 | 49.53826 | 12.30438 | 52° | 86km/h | 8447m | 4.6m/s | -34.3°C | 19.9% | 347.3hPa | 2.9V | 04:54:12 | 00:56:05 | 00:00:00 | |
| DB0UT-9 | 2026-08-31 11:13:12 | 49.53839 | 12.30464 | 52° | 84km/h | 8453m | 5.5m/s | -34.3°C | 17.2% | 347.1hPa | 2.9V | 04:54:00 | 00:00:00 | 00:00:00 | |
| DL9SK-14 | 2026-08-31 11:13:10 | 49.53800 | 12.30380 | 56° | 93km/h | 8438m | 5.9m/s | 0°C | -1.0% | -1.0hPa | 2.9V | 00:00:00 | 00:00:00 | 00:00:00 | |
| DO3MHA-11 | 2026-08-31 11:13:09 | 49.53787 | 12.30349 | 58° | 99km/h | 8433m | 6.0m/s | -34.2°C | 19.7% | 348.0hPa | 2.9V | 00:00:00 | 00:56:02 | 00:00:00 | |
| DB0NH | 2026-08-31 11:13:08 | 49.53774 | 12.30317 | 59° | 93km/h | 8427m | 6.2m/s | -34.1°C | 19.7% | 348.3hPa | 2.9V | 00:00:00 | 00:56:01 | 00:00:00 | |
| DL1NUX | 2026-08-31 11:13:07 | 49.53688 | 12.30126 | 53° | 99km/h | 8388m | 3.6m/s | -33.9°C | 19.9% | 350.2hPa | 2.9V | 04:54:22 | 00:55:55 | 00:00:00 | |
| DB0UT-7 | 2026-08-31 11:13:05 | 49.53733 | 12.30219 | 55° | 93km/h | 8406m | 5.1m/s | -33.9°C | 19.7% | 349.3hPa | 2.9V | 00:00:00 | 00:00:00 | 00:00:00 | |
| DO9HM | 2026-08-31 11:13:03 | 49.53718 | 12.30188 | 55° | 102km/h | 8400m | 7.1m/s | -33.9°C | 17.2% | 349.7hPa | 2.9V | 04:55:00 | 00:00:00 | 00:00:00 | |
| DO8TBO-1 | 2026-08-31 11:13:02 | 49.53688 | 12.30126 | 54° | 93km/h | 8389m | 3.6m/s | -33.8°C | 19.9% | 350.2hPa | 2.9V | 00:00:00 | 00:55:55 | 00:00:00 | |
| DO3MHA-11 | 2026-08-31 11:12:59 | 49.53642 | 12.30035 | 53° | 95km/h | 8372m | 5.7m/s | -33.7°C | 19.3% | 351.1hPa | 2.9V | 00:00:00 | 00:55:52 | 00:00:00 | |
| DL1NUX | 2026-08-31 11:12:57 | 49.53547 | 12.29821 | 57° | 84km/h | 8330m | 5.8m/s | -33.4°C | 19.4% | 0hPa | 2.9V | 04:54:32 | 00:55:45 | 00:00:00 | |
| DF2AP-13 | 2026-08-31 11:12:54 | 49.53570 | 12.29877 | 57° | 93km/h | 8341m | 4.8m/s | -33.4°C | 19.3% | 352.6hPa | 2.9V | 00:00:00 | 00:55:47 | 00:00:00 | |
| NBG1-10 | 2026-08-31 11:12:53 | 49.53558 | 12.29849 | 57° | 93km/h | 8336m | 5.0m/s | -33.3°C | 19.3% | 352.8hPa | 2.9V | 00:00:00 | 00:55:46 | 00:00:00 | |
| DB0UT-9 | 2026-08-31 11:12:51 | 49.53547 | 12.29821 | 58° | 86km/h | 8330m | 5.8m/s | -33.4°C | 16.9% | 353.1hPa | 2.9V | 00:00:00 | 00:00:00 | 00:00:00 | |
| DO3MHA-11 | 2026-08-31 11:12:49 | 49.53508 | 12.29734 | 54° | 93km/h | 8315m | 5.1m/s | -33.2°C | 19.4% | 353.7hPa | 2.9V | 00:00:00 | 00:55:42 | 00:00:00 | |
| DL1NUX | 2026-08-31 11:12:45 | 49.53408 | 12.29525 | 55° | 86km/h | 8278m | 6.9m/s | -32.9°C | 0% | 0hPa | 2.9V | 04:54:42 | 00:55:35 | 00:00:00 | |
| DO9HM | 2026-08-31 11:12:43 | 49.53433 | 12.29582 | 56° | 93km/h | 8290m | 5.4m/s | -33.0°C | 16.6% | 355.0hPa | 2.7V | 04:55:00 | 00:00:00 | 00:00:00 | |
| DO3MHA-11 | 2026-08-31 11:12:39 | 49.53369 | 12.29446 | 53° | 93km/h | 8263m | 5.4m/s | -32.7°C | 18.9% | 356.4hPa | 2.7V | 04:54:00 | 00:55:32 | 00:00:00 | |
| DL1NUX | 2026-08-31 11:12:37 | 49.53266 | 12.29252 | 52° | 97km/h | 8230m | 5.9m/s | -32.5°C | 0% | 0hPa | 2.9V | 04:54:52 | 00:55:25 | 00:00:00 | |
| DB0NH | 2026-08-31 11:12:37 | 49.53342 | 12.29393 | 51° | 93km/h | 8255m | 4.6m/s | -32.6°C | 18.8% | 356.8hPa | 2.9V | 00:00:00 | 00:55:30 | 00:00:00 | |
| DB0UT-7 | 2026-08-31 11:12:35 | 49.53312 | 12.29338 | 50° | 89km/h | 8245m | 4.4m/s | -32.6°C | 18.5% | 357.4hPa | 2.9V | 04:54:00 | 00:55:28 | 00:00:00 | |
| DB0UT-9 | 2026-08-31 11:12:30 | 49.53251 | 12.29221 | 56° | 99km/h | 8225m | 4.1m/s | -32.4°C | 16.4% | 358.3hPa | 2.9V | 00:00:00 | 00:00:00 | 00:00:00 | |
| DO3MHA-11 | 2026-08-31 11:12:29 | 49.53225 | 12.29157 | 61° | 93km/h | 8217m | 4.5m/s | -32.3°C | 18.7% | 358.8hPa | 2.9V | 00:00:00 | 00:55:22 | 00:00:00 | |
| DL1NUX | 2026-08-31 11:12:27 | 49.53133 | 12.28950 | 54° | 91km/h | 8181m | 3.8m/s | 0°C | 0% | 0hPa | 2.9V | 04:55:02 | 00:55:15 | 00:00:00 | |
| DF2AP-13 | 2026-08-31 11:12:24 | 49.53160 | 12.29006 | 53° | 95km/h | 8192m | 6.1m/s | -32.1°C | 18.6% | 360.0hPa | 2.9V | 00:00:00 | 00:55:17 | 00:00:00 | |
| OE5DXL-15 | 2026-08-31 11:12:23 | 49.53146 | 12.28978 | 53° | 95km/h | 8186m | 4.8m/s | -32.1°C | 18.7% | 360.3hPa | 2.9V | 04:55:00 | 00:00:00 | 00:00:00 | |
| OE5WHR-10 | 2026-08-31 11:12:22 | 49.53133 | 12.28950 | 55° | 95km/h | 8181m | 3.7m/s | 0°C | 0% | 0hPa | 2.9V | 00:00:00 | 00:55:15 | 00:00:00 | |
| DF7PN | 2026-08-31 11:12:21 | 49.53119 | 12.28920 | 55° | 93km/h | 8177m | 5.9m/s | -32.0°C | 16.3% | 360.9hPa | 2.9V | 00:00:00 | 00:00:00 | 00:00:00 | |
| NBG1-10 | 2026-08-31 11:12:20 | 49.53105 | 12.28889 | 56° | 95km/h | 8172m | 3.2m/s | -31.9°C | 18.6% | 361.1hPa | 2.9V | 04:55:00 | 00:55:13 | 00:00:00 | |
| DO3MHA-11 | 2026-08-31 11:12:19 | 49.53091 | 12.28857 | 57° | 93km/h | 8167m | 5.9m/s | -31.9°C | 18.4% | 361.4hPa | 2.9V | 00:00:00 | 00:55:12 | 00:00:00 | |
| DO3MHA-11 | 2026-08-31 11:12:09 | 49.52960 | 12.28560 | 63° | 95km/h | 8117m | 4.4m/s | -31.5°C | 18.2% | 364.0hPa | 2.9V | 00:00:00 | 00:55:02 | 00:00:00 | |
| DB0NH | 2026-08-31 11:12:07 | 49.52936 | 12.28493 | 60° | 95km/h | 8108m | 3.1m/s | -31.4°C | 18.7% | 364.4hPa | 2.9V | 04:55:00 | 00:55:00 | 00:00:00 | |
| SONCRA | 2026-08-31 11:12:06 | 49.52923 | 12.28461 | 57° | 97km/h | 8104m | 3.7m/s | 0°C | -1.0% | -1.0hPa | 2.8V | 00:00:00 | 00:00:00 | 00:00:00 | |
| DO9HM | 2026-08-31 11:12:02 | 49.52882 | 12.28369 | 55° | 93km/h | 8089m | 7.9m/s | -31.3°C | 17.1% | 365.5hPa | 2.8V | 04:55:00 | 00:00:00 | 00:00:00 | |
| DL1NUX | 2026-08-31 11:12:00 | 49.52828 | 12.28251 | 54° | 95km/h | 8064m | 5.8m/s | 0°C | 0% | 0hPa | 2.8V | 04:55:25 | 00:54:52 | 00:00:00 | |
| DL6DJ-15 | 2026-08-31 11:11:52 | 49.52720 | 12.28033 | 55° | 95km/h | 8029m | 6.2m/s | -30.8°C | 17.5% | 368.4hPa | 2.9V | 00:00:00 | 00:00:00 | 00:00:00 | |
| DF7PN | 2026-08-31 11:11:50 | 49.52682 | 12.27941 | 58° | 89km/h | 8010m | 5.8m/s | -30.7°C | 17.2% | 369.4hPa | 2.9V | 00:00:00 | 00:00:00 | 00:00:00 | |
| DL1NUX | 2026-08-31 11:11:49 | 49.52658 | 12.27880 | 56° | 93km/h | 7998m | 8.2m/s | 0°C | 0% | 0hPa | 2.9V | 04:55:37 | 00:54:40 | 00:00:00 | |
| DO3MHA-11 | 2026-08-31 11:11:49 | 49.52682 | 12.27941 | 59° | 93km/h | 8010m | 5.8m/s | -30.6°C | 19.5% | 369.4hPa | 2.9V | 04:55:00 | 00:54:42 | 00:00:00 | |
| NBG1-10 | 2026-08-31 11:11:47 | 49.52658 | 12.27880 | 57° | 93km/h | 7998m | 8.2m/s | -30.5°C | 19.1% | 370.1hPa | 2.9V | 00:00:00 | 00:54:40 | 00:00:00 | |
| DO9HM | 2026-08-31 11:11:42 | 49.52605 | 12.27752 | 59° | 99km/h | 7972m | 4.8m/s | -30.3°C | 16.7% | 371.5hPa | 2.9V | 04:55:00 | 00:00:00 | 00:00:00 | |
| DL1NUX | 2026-08-31 11:11:40 | 49.52533 | 12.27576 | 58° | 88km/h | 7942m | 5.7m/s | 0°C | 0% | 0hPa | 2.9V | 04:55:47 | 00:54:30 | 00:00:00 | |
| DO3MHA-11 | 2026-08-31 11:11:39 | 49.52557 | 12.27632 | 58° | 89km/h | 7952m | 6.2m/s | -30.1°C | 18.9% | 372.5hPa | 2.9V | 00:00:00 | 00:54:32 | 00:00:00 | |
| DB0NH | 2026-08-31 11:11:37 | 49.52533 | 12.27576 | 59° | 89km/h | 7942m | 5.6m/s | -30.0°C | 18.7% | 373.0hPa | 2.9V | 00:00:00 | 00:54:30 | 00:00:00 | |
| DL1NUX | 2026-08-31 11:11:31 | 49.52406 | 12.27292 | 53° | 86km/h | 7889m | 5.6m/s | 0°C | 0% | 0hPa | 2.9V | 00:00:00 | 00:54:20 | 00:00:00 | |
| DO3MHA-11 | 2026-08-31 11:11:29 | 49.52432 | 12.27344 | 52° | 89km/h | 7901m | 7.5m/s | -29.7°C | 18.1% | 375.1hPa | 2.8V | 00:00:00 | 00:54:22 | 00:00:00 | |
| SO1NDE-10 | 2026-08-31 11:11:27 | 49.52406 | 12.27292 | 54° | 89km/h | 7889m | 5.5m/s | 0°C | 0% | 0hPa | 2.8V | 00:00:00 | 00:54:20 | 00:00:00 | |
| DF2AP-13 | 2026-08-31 11:11:24 | 49.52368 | 12.27209 | 54° | 89km/h | 7870m | 7.1m/s | -29.4°C | 17.9% | 376.9hPa | 2.8V | 04:56:00 | 00:54:17 | 00:00:00 | |
| OE5DXL-15 | 2026-08-31 11:11:23 | 49.52354 | 12.27180 | 54° | 88km/h | 7863m | 8.0m/s | -29.3°C | 17.9% | 377.3hPa | 2.8V | 00:00:00 | 00:00:00 | 00:00:00 | |
| DL1NUX | 2026-08-31 11:11:22 | 49.52273 | 12.26991 | 57° | 102km/h | 7831m | 5.7m/s | 0°C | 0% | 0hPa | 2.8V | 00:00:00 | 00:54:10 | 00:00:00 | |
| DO9HM | 2026-08-31 11:11:22 | 49.52340 | 12.27151 | 56° | 95km/h | 7856m | 5.6m/s | -29.3°C | 15.8% | 377.7hPa | 2.9V | 04:56:00 | 00:00:00 | 00:00:00 | |
| DL6DJ-15 | 2026-08-31 11:11:21 | 49.52313 | 12.27090 | 57° | 97km/h | 7845m | 5.8m/s | -29.2°C | 15.6% | 378.2hPa | 2.9V | 00:00:00 | 00:00:00 | 00:00:00 | |
| DO3MHA-11 | 2026-08-31 11:11:19 | 49.52300 | 12.27057 | 58° | 91km/h | 7840m | 3.4m/s | -29.1°C | 17.5% | 378.5hPa | 2.9V | 00:00:00 | 00:54:12 | 00:00:00 | |
| NBG1-10 | 2026-08-31 11:11:14 | 49.52230 | 12.26898 | 54° | 84km/h | 7815m | 5.8m/s | -28.9°C | 17.0% | 379.9hPa | 2.9V | 00:00:00 | 00:54:07 | 00:00:00 | |
| DO3MHA-11 | 2026-08-31 11:11:09 | 49.52169 | 12.26766 | 59° | 89km/h | 7784m | 4.9m/s | -28.6°C | 17.2% | 381.6hPa | 2.9V | 00:00:00 | 00:54:02 | 00:00:00 | |
| DL1NUX | 2026-08-31 11:11:08 | 49.52096 | 12.26590 | 57° | 97km/h | 7753m | 6.3m/s | 0°C | 0% | 0hPa | 2.9V | 00:00:00 | 00:53:56 | 00:00:00 | |
| DB0NH | 2026-08-31 11:11:07 | 49.52147 | 12.26711 | 59° | 86km/h | 7772m | 5.2m/s | -28.5°C | 17.7% | 382.0hPa | 2.9V | 00:00:00 | 00:54:00 | 00:00:00 | |
| DO9HM | 2026-08-31 11:11:01 | 49.52083 | 12.26559 | 57° | 93km/h | 7747m | 4.7m/s | -28.4°C | 16.1% | 383.5hPa | 2.9V | 04:56:00 | 00:00:00 | 00:00:00 | |
| DO3MHA-11 | 2026-08-31 11:10:59 | 49.52049 | 12.26475 | 60° | 82km/h | 7732m | 5.3m/s | -28.3°C | 17.9% | 384.3hPa | 2.9V | 04:56:00 | 00:53:52 | 00:00:00 | |
| DL1NUX | 2026-08-31 11:10:57 | 49.51973 | 12.26290 | 56° | 89km/h | 7695m | 6.2m/s | 0°C | 0% | 0hPa | 2.9V | 00:00:00 | 00:53:45 | 00:00:00 | |
| DL6DJ-15 | 2026-08-31 11:10:50 | 49.51934 | 12.26206 | 54° | 84km/h | 7674m | 5.6m/s | -27.9°C | 16.3% | 387.4hPa | 2.7V | 00:00:00 | 00:00:00 | 00:00:00 | |
| DO3MHA-11 | 2026-08-31 11:10:49 | 49.51934 | 12.26206 | 55° | 84km/h | 7674m | 5.6m/s | -27.8°C | 18.2% | 387.4hPa | 2.7V | 00:00:00 | 00:53:42 | 00:00:00 | |
| DB0UT-9 | 2026-08-31 11:10:48 | 49.51934 | 12.26206 | 56° | 86km/h | 7674m | 5.6m/s | -27.9°C | 16.3% | 387.4hPa | 2.7V | 00:00:00 | 00:00:00 | 00:00:00 | |
| DO8TBO-1 | 2026-08-31 11:10:44 | 49.51863 | 12.26044 | 58° | 88km/h | 7639m | 5.3m/s | -27.5°C | 18.1% | 389.3hPa | 2.7V | 04:56:00 | 00:53:36 | 00:00:00 | |
| NBG1-10 | 2026-08-31 11:10:41 | 49.51842 | 12.25990 | 58° | 88km/h | 7626m | 4.9m/s | -27.4°C | 18.4% | 389.9hPa | 2.7V | 00:00:00 | 00:53:34 | 00:00:00 | |
| DO3MHA-11 | 2026-08-31 11:10:39 | 49.51818 | 12.25935 | 58° | 84km/h | 7616m | 6.0m/s | -27.3°C | 18.6% | 390.4hPa | 2.9V | 00:00:00 | 00:53:32 | 00:00:00 | |
| DB0NH | 2026-08-31 11:10:37 | 49.51793 | 12.25879 | 55° | 86km/h | 7605m | 6.5m/s | -27.3°C | 18.5% | 391.0hPa | 2.9V | 00:00:00 | 00:53:30 | 00:00:00 | |
| DO3MHA-11 | 2026-08-31 11:10:29 | 49.51696 | 12.25668 | 53° | 89km/h | 7559m | 4.1m/s | -26.9°C | 18.3% | 393.5hPa | 2.9V | 00:00:00 | 00:53:22 | 00:00:00 | |
| DF2AP-13 | 2026-08-31 11:10:24 | 49.51625 | 12.25536 | 52° | 91km/h | 7533m | 4.2m/s | 0°C | 0% | 0hPa | 2.9V | 00:00:00 | 00:53:17 | 00:00:00 | |
| OE5DXL-15 | 2026-08-31 11:10:23 | 49.51612 | 12.25508 | 54° | 89km/h | 7529m | 5.8m/s | -26.7°C | 19.4% | 395.3hPa | 2.9V | 00:00:00 | 00:00:00 | 00:00:00 | |
| DO9HM | 2026-08-31 11:10:21 | 49.51599 | 12.25480 | 58° | 89km/h | 7524m | 3.8m/s | -26.7°C | 17.6% | 395.5hPa | 2.9V | 04:57:00 | 00:00:00 | 00:00:00 | |
| DL6DJ-15 | 2026-08-31 11:10:19 | 49.51549 | 12.25361 | 53° | 88km/h | 7507m | 5.6m/s | -26.5°C | 17.6% | 396.4hPa | 2.9V | 00:00:00 | 00:00:00 | 00:00:00 | |
| DF7PN | 2026-08-31 11:10:17 | 49.51522 | 12.25308 | 50° | 84km/h | 7498m | 2.7m/s | -26.4°C | 17.6% | 396.9hPa | 2.9V | 00:00:00 | 00:00:00 | 00:00:00 | |
| DO3MHA-11 | 2026-08-31 11:10:09 | 49.51438 | 12.25108 | 62° | 89km/h | 7462m | 5.4m/s | -26.1°C | 19.1% | 398.8hPa | 2.9V | 04:57:00 | 00:53:02 | 00:00:00 | |
| NBG1-10 | 2026-08-31 11:10:08 | 49.51426 | 12.25076 | 62° | 88km/h | 7458m | 2.7m/s | -26.1°C | 19.0% | 399.2hPa | 2.9V | 00:00:00 | 00:53:01 | 00:00:00 | |
| DB0NH | 2026-08-31 11:10:07 | 49.51414 | 12.25044 | 59° | 88km/h | 7454m | 6.2m/s | -26.1°C | 18.9% | 399.4hPa | 2.9V | 00:00:00 | 00:53:00 | 00:00:00 | |
| DL6DJ-15 | 2026-08-31 11:09:48 | 49.51168 | 12.24482 | 60° | 86km/h | 7343m | 5.3m/s | -25.4°C | 18.0% | 405.4hPa | 2.9V | 00:00:00 | 00:00:00 | 00:00:00 | |
| DF7PN | 2026-08-31 11:09:46 | 49.51157 | 12.24454 | 57° | 86km/h | 7338m | 5.4m/s | -25.3°C | 18.0% | 405.8hPa | 2.9V | 00:00:00 | 00:00:00 | 00:00:00 | |
| DB0UT-9 | 2026-08-31 11:09:42 | 49.51118 | 12.24368 | 56° | 89km/h | 7319m | 6.2m/s | -25.2°C | 17.8% | 406.9hPa | 2.9V | 00:00:00 | 00:00:00 | 00:00:00 | |
| DO3MHA-11 | 2026-08-31 11:09:39 | 49.51068 | 12.24257 | 57° | 84km/h | 7298m | 4.7m/s | -24.9°C | 19.1% | 407.9hPa | 2.9V | 00:00:00 | 00:52:32 | 00:00:00 | |
| DB0NH | 2026-08-31 11:09:37 | 49.51045 | 12.24208 | 53° | 84km/h | 7289m | 6.4m/s | -24.9°C | 19.0% | 408.4hPa | 2.9V | 04:57:00 | 00:52:30 | 00:00:00 | |
| DB0ND-19 | 2026-08-31 11:09:36 | 49.51033 | 12.24183 | 53° | 80km/h | 7283m | 4.6m/s | -24.9°C | 17.4% | 408.9hPa | 2.9V | 00:00:00 | 00:00:00 | 00:00:00 | |
| NBG1-10 | 2026-08-31 11:09:35 | 49.51020 | 12.24158 | 53° | 86km/h | 7279m | 3.3m/s | -24.7°C | 19.1% | 409.2hPa | 2.9V | 04:57:00 | 00:52:28 | 00:00:00 | |
| DO3MHA-11 | 2026-08-31 11:09:29 | 49.50948 | 12.23990 | 58° | 84km/h | 7246m | 6.2m/s | -24.5°C | 18.8% | 411.0hPa | 2.9V | 00:00:00 | 00:52:22 | 00:00:00 | |
| OE5DXL-15 | 2026-08-31 11:09:23 | 49.50872 | 12.23840 | 53° | 86km/h | 7215m | 6.4m/s | -24.2°C | 18.7% | 412.7hPa | 2.9V | 00:00:00 | 00:00:00 | 00:00:00 | |
| DB0UT-9 | 2026-08-31 11:09:22 | 49.50871 | 12.23840 | 54° | 82km/h | 7215m | 6.4m/s | -24.2°C | 17.1% | 412.7hPa | 2.9V | 00:00:00 | 00:00:00 | 00:00:00 | |
| DO3MHA-11 | 2026-08-31 11:09:19 | 49.50820 | 12.23732 | 58° | 86km/h | 7187m | 6.8m/s | -24.0°C | 18.3% | 414.1hPa | 2.9V | 04:58:00 | 00:52:12 | 00:00:00 | |
| DL6DJ-15 | 2026-08-31 11:09:16 | 49.50789 | 12.23643 | 63° | 84km/h | 7168m | 5.6m/s | -23.9°C | 16.6% | 415.3hPa | 2.9V | 00:00:00 | 00:00:00 | 00:00:00 | |
| DF7PN | 2026-08-31 11:09:15 | 49.50779 | 12.23613 | 61° | 86km/h | 7163m | 4.3m/s | -23.8°C | 16.6% | 415.6hPa | 2.9V | 00:00:00 | 00:00:00 | 00:00:00 | |
| DO3MHA-11 | 2026-08-31 11:09:09 | 49.50703 | 12.23451 | 52° | 86km/h | 7130m | 4.5m/s | -23.5°C | 17.6% | 417.6hPa | 2.9V | 00:00:00 | 00:52:02 | 00:00:00 | |
| DB0NH | 2026-08-31 11:09:07 | 49.50679 | 12.23396 | 61° | 89km/h | 7118m | 4.6m/s | -23.4°C | 17.3% | 418.1hPa | 2.9V | 00:00:00 | 00:52:00 | 00:00:00 | |
| DL6DJ-15 | 2026-08-31 11:08:45 | 49.50414 | 12.22761 | 52° | 93km/h | 6995m | 7.0m/s | -22.9°C | 17.0% | 425.3hPa | 2.9V | 00:00:00 | 00:00:00 | 00:00:00 | |
| DO3MHA-11 | 2026-08-31 11:08:39 | 49.50337 | 12.22585 | 61° | 88km/h | 6957m | 4.4m/s | -22.5°C | 17.9% | 427.6hPa | 2.9V | 00:00:00 | 00:51:32 | 00:00:00 | |
| DB0NH | 2026-08-31 11:08:37 | 49.50314 | 12.22525 | 59° | 86km/h | 6947m | 4.8m/s | -22.4°C | 18.0% | 428.1hPa | 2.9V | 00:00:00 | 00:51:30 | 00:00:00 | |
| DB0ND-19 | 2026-08-31 11:08:34 | 49.50262 | 12.22413 | 51° | 88km/h | 6927m | 5.7m/s | -22.4°C | 15.9% | 429.4hPa | 2.9V | 00:00:00 | 00:00:00 | 00:00:00 | |
| DO3MHA-11 | 2026-08-31 11:08:29 | 49.50212 | 12.22310 | 55° | 86km/h | 6905m | 4.4m/s | -22.2°C | 16.1% | 430.5hPa | 2.9V | 04:58:00 | 00:51:22 | 00:00:00 | |
| OE5DXL-15 | 2026-08-31 11:08:23 | 49.50137 | 12.22148 | 56° | 86km/h | 6879m | 4.4m/s | -22.1°C | 18.1% | 432.1hPa | 2.9V | 00:00:00 | 00:00:00 | 00:00:00 | |
| DO3MHA-11 | 2026-08-31 11:08:19 | 49.50085 | 12.22035 | 55° | 84km/h | 6861m | 4.7m/s | -22.1°C | 19.2% | 433.0hPa | 2.9V | 00:00:00 | 00:51:12 | 00:00:00 | |
| DO9HM | 2026-08-31 11:08:17 | 49.50072 | 12.22008 | 55° | 82km/h | 6857m | 3.8m/s | -22.2°C | 17.7% | 433.4hPa | 2.9V | 04:59:00 | 00:00:00 | 00:00:00 | |
| DL6DJ-15 | 2026-08-31 11:08:14 | 49.50021 | 12.21907 | 51° | 84km/h | 6842m | 3.8m/s | -22.1°C | 18.4% | 434.3hPa | 2.9V | 00:00:00 | 00:00:00 | 00:00:00 | |
| DF7PN | 2026-08-31 11:08:13 | 49.50007 | 12.21882 | 51° | 86km/h | 6838m | 3.4m/s | -22.1°C | 18.3% | 434.6hPa | 2.9V | 00:00:00 | 00:00:00 | 00:00:00 | |
| DO3MHA-11 | 2026-08-31 11:08:09 | 49.49959 | 12.21775 | 60° | 86km/h | 6823m | 3.3m/s | -21.9°C | 19.2% | 435.3hPa | 2.9V | 00:00:00 | 00:51:02 | 00:00:00 | |
| DB0NH | 2026-08-31 11:08:07 | 49.49938 | 12.21719 | 60° | 84km/h | 6815m | 3.3m/s | -21.9°C | 18.8% | 435.8hPa | 2.9V | 00:00:00 | 00:51:00 | 00:00:00 | |
| DB0ND-19 | 2026-08-31 11:08:03 | 49.49886 | 12.21609 | 48° | 84km/h | 6800m | 3.4m/s | -21.8°C | 15.9% | 436.8hPa | 2.9V | 00:00:00 | 00:00:00 | 00:00:00 | |
| DO3MHA-11 | 2026-08-31 11:07:59 | 49.49825 | 12.21508 | 49° | 84km/h | 6783m | 2.9m/s | -21.6°C | 15.7% | 437.6hPa | 2.9V | 00:00:00 | 00:50:52 | 00:00:00 | |
| NBG1-10 | 2026-08-31 11:07:56 | 49.49782 | 12.21427 | 53° | 80km/h | 6767m | 7.1m/s | -21.5°C | 14.5% | 438.7hPa | 2.9V | 00:00:00 | 00:50:49 | 00:00:00 | |
| OE5DXL-15 | 2026-08-31 11:07:53 | 49.49745 | 12.21350 | 56° | 80km/h | 6747m | 5.0m/s | -21.3°C | 14.2% | 439.9hPa | 2.9V | 00:00:00 | 00:00:00 | 00:00:00 | |
| DO8TBO-1 | 2026-08-31 11:07:50 | 49.49697 | 12.21249 | 53° | 80km/h | 6723m | 5.0m/s | -21.2°C | 14.5% | 441.4hPa | 2.9V | 00:00:00 | 00:50:42 | 00:00:00 | |
| DO3MHA-11 | 2026-08-31 11:07:49 | 49.49697 | 12.21249 | 53° | 84km/h | 6723m | 5.0m/s | -21.2°C | 14.5% | 441.4hPa | 2.9V | 00:00:00 | 00:50:42 | 00:00:00 | |
| DL6DJ-15 | 2026-08-31 11:07:43 | 49.49618 | 12.21093 | 57° | 78km/h | 6693m | 4.5m/s | -21.0°C | 13.4% | 443.1hPa | 2.9V | 00:00:00 | 00:00:00 | 00:00:00 | |
| DF7PN | 2026-08-31 11:07:42 | 49.49607 | 12.21067 | 58° | 78km/h | 6688m | 3.9m/s | -20.9°C | 13.3% | 443.3hPa | 2.9V | 00:00:00 | 00:00:00 | 00:00:00 | |
| DO3MHA-11 | 2026-08-31 11:07:39 | 49.49577 | 12.20984 | 60° | 80km/h | 6676m | 3.7m/s | -20.8°C | 15.2% | 444.0hPa | 2.9V | 04:59:00 | 00:50:32 | 00:00:00 | |
| DB0NH | 2026-08-31 11:07:37 | 49.49554 | 12.20932 | 52° | 78km/h | 6666m | 5.4m/s | -20.7°C | 15.7% | 444.7hPa | 2.9V | 00:00:00 | 00:50:30 | 00:00:00 | |
| DO9HM | 2026-08-31 11:07:35 | 49.49541 | 12.20908 | 48° | 80km/h | 6660m | 5.2m/s | -20.7°C | 14.8% | 445.0hPa | 2.9V | 00:00:00 | 00:00:00 | 00:00:00 | |
| DB0ND-19 | 2026-08-31 11:07:32 | 49.49458 | 12.20775 | 52° | 75km/h | 6623m | 7.1m/s | -20.7°C | 18.2% | 447.3hPa | 2.9V | 00:00:00 | 00:00:00 | 00:00:00 | |
| DO3MHA-11 | 2026-08-31 11:07:29 | 49.49447 | 12.20751 | 55° | 78km/h | 6616m | 7.8m/s | -20.6°C | 19.9% | 447.7hPa | 2.9V | 00:00:00 | 00:50:22 | 00:00:00 | |
| DB0UT-7 | 2026-08-31 11:07:26 | 49.49413 | 12.20674 | 56° | 80km/h | 6599m | 4.5m/s | -20.5°C | 20.3% | 448.7hPa | 2.9V | 00:00:00 | 00:50:19 | 00:00:00 | |
| NBG1-10 | 2026-08-31 11:07:23 | 49.49378 | 12.20601 | 52° | 82km/h | 6587m | 3.0m/s | -20.4°C | 20.6% | 449.5hPa | 2.9V | 05:00:00 | 00:50:16 | 00:00:00 | |
| DO8TBO-1 | 2026-08-31 11:07:21 | 49.49344 | 12.20529 | 56° | 82km/h | 6576m | 2.7m/s | -20.3°C | 21.1% | 450.0hPa | 2.9V | 00:00:00 | 00:50:13 | 00:00:00 | |
| DO9HM | 2026-08-31 11:07:14 | 49.49273 | 12.20377 | 57° | 82km/h | 6556m | 3.4m/s | -20.3°C | 20.1% | 451.4hPa | 2.9V | 05:00:00 | 00:00:00 | 00:00:00 | |
| DF2AP-13 | 2026-08-31 11:07:12 | 49.49250 | 12.20325 | 56° | 82km/h | 6548m | 4.1m/s | 0°C | 0% | 0hPa | 2.9V | 00:00:00 | 00:50:05 | 00:00:00 | |
| DF7PN | 2026-08-31 11:07:11 | 49.49239 | 12.20301 | 54° | 75km/h | 6543m | 4.8m/s | -20.2°C | 19.7% | 452.1hPa | 2.9V | 00:00:00 | 00:00:00 | 00:00:00 | |
| DO3MHA-11 | 2026-08-31 11:07:09 | 49.49217 | 12.20252 | 57° | 82km/h | 6536m | 4.2m/s | -20.1°C | 21.2% | 452.5hPa | 2.9V | 00:00:00 | 00:50:02 | 00:00:00 | |
| DB0NH | 2026-08-31 11:07:07 | 49.49195 | 12.20198 | 61° | 84km/h | 6529m | 3.2m/s | -20.0°C | 21.1% | 453.0hPa | 2.9V | 00:00:00 | 00:50:00 | 00:00:00 | |
| DB0UT-9 | 2026-08-31 11:07:03 | 49.49164 | 12.20109 | 62° | 86km/h | 6519m | 4.3m/s | -19.9°C | 19.5% | 453.6hPa | 2.9V | 05:00:00 | 00:00:00 | 00:00:00 | |
| DB0ND-19 | 2026-08-31 11:07:01 | 49.49133 | 12.20027 | 57° | 78km/h | 6507m | 3.8m/s | -19.8°C | 19.5% | 454.4hPa | 2.9V | 00:00:00 | 00:00:00 | 00:00:00 | |
| SONCRA | 2026-08-31 11:06:56 | 49.48969 | 12.19648 | 58° | 82km/h | 6456m | 2.9m/s | 0°C | -1.0% | -1.0hPa | 2.9V | 00:00:00 | 00:00:00 | 00:00:00 | |
| OE5DXL-15 | 2026-08-31 11:06:53 | 49.49039 | 12.19811 | 57° | 82km/h | 6478m | 3.6m/s | -19.5°C | 20.5% | 456.2hPa | 2.9V | 00:00:00 | 00:00:00 | 00:00:00 | |
| NBG1-10 | 2026-08-31 11:06:50 | 49.49004 | 12.19730 | 56° | 80km/h | 6467m | 4.0m/s | -19.4°C | 20.3% | 456.8hPa | 2.9V | 00:00:00 | 00:49:43 | 00:00:00 | |
| DO3MHA-11 | 2026-08-31 11:06:49 | 49.48992 | 12.19703 | 57° | 82km/h | 6463m | 3.5m/s | -19.4°C | 20.2% | 457.0hPa | 2.9V | 00:00:00 | 00:49:42 | 00:00:00 | |
| DF2AP-13 | 2026-08-31 11:06:42 | 49.48914 | 12.19514 | 59° | 80km/h | 6437m | 3.0m/s | 0°C | 0% | 0hPa | 2.9V | 00:00:00 | 00:49:35 | 00:00:00 | |
| DL6DJ-15 | 2026-08-31 11:06:41 | 49.48903 | 12.19487 | 57° | 80km/h | 6434m | 3.9m/s | -19.1°C | 18.4% | 458.9hPa | 2.9V | 00:00:00 | 00:00:00 | 00:00:00 | |
| DF7PN | 2026-08-31 11:06:40 | 49.48881 | 12.19435 | 56° | 78km/h | 6425m | 3.4m/s | -19.1°C | 18.3% | 459.4hPa | 2.9V | 00:00:00 | 00:00:00 | 00:00:00 | |
| DO3MHA-11 | 2026-08-31 11:06:39 | 49.48881 | 12.19435 | 57° | 80km/h | 6426m | 3.4m/s | -19.0°C | 19.6% | 459.3hPa | 2.9V | 05:00:00 | 00:49:32 | 00:00:00 | |
| DO9HM | 2026-08-31 11:06:32 | 49.48810 | 12.19280 | 57° | 80km/h | 6405m | 2.9m/s | -18.9°C | 18.3% | 460.7hPa | 2.9V | 05:00:00 | 00:00:00 | 00:00:00 | |
| DB0ND-19 | 2026-08-31 11:06:30 | 49.48765 | 12.19177 | 56° | 77km/h | 6390m | 3.3m/s | -18.8°C | 18.0% | 461.7hPa | 2.9V | 00:00:00 | 00:00:00 | 00:00:00 | |
| DO3MHA-11 | 2026-08-31 11:06:29 | 49.48765 | 12.19177 | 57° | 80km/h | 6390m | 3.2m/s | -18.7°C | 19.3% | 461.7hPa | 2.9V | 00:00:00 | 00:49:22 | 00:00:00 | |
| OE5DXL-15 | 2026-08-31 11:06:23 | 49.48696 | 12.19024 | 56° | 82km/h | 6368m | 3.2m/s | -18.5°C | 19.1% | 463.0hPa | 2.9V | 00:00:00 | 00:00:00 | 00:00:00 | |
| DB0UT-9 | 2026-08-31 11:06:22 | 49.48696 | 12.19024 | 56° | 80km/h | 6368m | 3.2m/s | -18.6°C | 17.8% | 463.1hPa | 2.9V | 00:00:00 | 00:00:00 | 00:00:00 | |
| DO8TBO-1 | 2026-08-31 11:06:20 | 49.48660 | 12.18947 | 56° | 82km/h | 6357m | 4.0m/s | -18.5°C | 19.1% | 463.7hPa | 2.9V | 05:01:00 | 00:49:13 | 00:00:00 | |
| DO3MHA-11 | 2026-08-31 11:06:19 | 49.48649 | 12.18921 | 58° | 80km/h | 6353m | 3.7m/s | -18.4°C | 19.2% | 463.9hPa | 2.9V | 00:00:00 | 00:49:12 | 00:00:00 | |
| NBG1-10 | 2026-08-31 11:06:17 | 49.48627 | 12.18868 | 59° | 82km/h | 6346m | 4.4m/s | -18.4°C | 19.1% | 464.3hPa | 2.9V | 00:00:00 | 00:49:10 | 00:00:00 | |
| DB0UT-7 | 2026-08-31 11:06:14 | 49.48594 | 12.18791 | 55° | 84km/h | 6336m | 2.5m/s | -18.2°C | 19.2% | 465.0hPa | 2.9V | 00:00:00 | 00:00:00 | 00:00:00 | |
| DO9HM | 2026-08-31 11:06:12 | 49.48582 | 12.18766 | 56° | 78km/h | 6333m | 4.3m/s | -18.3°C | 18.1% | 465.2hPa | 3.0V | 05:01:00 | 00:00:00 | 00:00:00 | |
| DF7PN | 2026-08-31 11:06:09 | 49.48523 | 12.18633 | 55° | 84km/h | 6316m | 2.6m/s | -18.2°C | 18.3% | 466.3hPa | 3.0V | 00:00:00 | 00:00:00 | 00:00:00 | |
| DF2AP-13 | 2026-08-31 11:06:08 | 49.48523 | 12.18633 | 56° | 84km/h | 6316m | 2.6m/s | 0°C | 0% | 0hPa | 3.0V | 00:00:00 | 00:49:01 | 00:00:00 | |
| DB0UT-9 | 2026-08-31 11:06:01 | 49.48457 | 12.18478 | 59° | 78km/h | 6296m | 3.9m/s | -18.0°C | 18.1% | 467.6hPa | 3.0V | 00:00:00 | 00:00:00 | 00:00:00 | |
| DO3MHA-11 | 2026-08-31 11:05:59 | 49.48423 | 12.18399 | 57° | 86km/h | 6286m | 4.2m/s | -17.9°C | 19.2% | 468.2hPa | 3.0V | 00:00:00 | 00:48:52 | 00:00:00 | |
| OE5DXL-15 | 2026-08-31 11:05:53 | 49.48352 | 12.18229 | 59° | 86km/h | 6265m | 3.8m/s | -17.7°C | 19.5% | 469.4hPa | 3.0V | 00:00:00 | 00:00:00 | 00:00:00 | |
| DO9HM | 2026-08-31 11:05:51 | 49.48342 | 12.18200 | 62° | 84km/h | 6262m | 3.9m/s | -17.7°C | 18.2% | 469.7hPa | 3.0V | 05:01:00 | 00:00:00 | 00:00:00 | |
| DO3MHA-11 | 2026-08-31 11:05:49 | 49.48310 | 12.18114 | 60° | 84km/h | 6250m | 4.3m/s | -17.6°C | 19.6% | 470.5hPa | 3.0V | 00:00:00 | 00:48:42 | 00:00:00 | |
| DO8TBO-1 | 2026-08-31 11:05:47 | 49.48289 | 12.18057 | 61° | 88km/h | 6242m | 4.6m/s | -17.5°C | 19.6% | 470.9hPa | 3.0V | 00:00:00 | 00:48:40 | 00:00:00 | |
| DB0UT-7 | 2026-08-31 11:05:44 | 49.48257 | 12.17971 | 60° | 82km/h | 6230m | 3.1m/s | 0°C | 0% | 0hPa | 3.0V | 00:00:00 | 00:48:37 | 00:00:00 | |
| DB0UT-9 | 2026-08-31 11:05:40 | 49.48225 | 12.17887 | 61° | 84km/h | 6221m | 3.3m/s | -17.4°C | 18.4% | 472.4hPa | 3.0V | 00:00:00 | 00:00:00 | 00:00:00 | |
| DO3MHA-11 | 2026-08-31 11:05:39 | 49.48204 | 12.17831 | 61° | 82km/h | 6213m | 4.2m/s | -17.3°C | 19.5% | 472.8hPa | 3.0V | 05:01:00 | 00:48:32 | 00:00:00 | |
| DF7PN | 2026-08-31 11:05:38 | 49.48184 | 12.17775 | 61° | 82km/h | 6206m | 3.3m/s | -17.3°C | 18.2% | 473.2hPa | 2.9V | 00:00:00 | 00:00:00 | 00:00:00 | |
| DF2AP-13 | 2026-08-31 11:05:36 | 49.48174 | 12.17746 | 64° | 80km/h | 6202m | 4.2m/s | 0°C | 0% | 0hPa | 2.9V | 00:00:00 | 00:48:29 | 00:00:00 | |
| DO9HM | 2026-08-31 11:05:31 | 49.48138 | 12.17634 | 62° | 82km/h | 6187m | 2.3m/s | -17.1°C | 18.2% | 474.4hPa | 2.9V | 05:02:00 | 00:00:00 | 00:00:00 | |
| DO3MHA-11 | 2026-08-31 11:05:29 | 49.48108 | 12.17548 | 62° | 93km/h | 6177m | 3.6m/s | -17.0°C | 19.2% | 475.0hPa | 2.9V | 00:00:00 | 00:48:22 | 00:00:00 | |
| OE5DXL-15 | 2026-08-31 11:05:24 | 49.48030 | 12.17368 | 57° | 86km/h | 6155m | 4.0m/s | 0°C | 0% | 0hPa | 2.9V | 00:00:00 | 00:48:16 | 00:00:00 | |
| DO3MHA-11 | 2026-08-31 11:05:19 | 49.47981 | 12.17242 | 62° | 86km/h | 6133m | 5.5m/s | -16.6°C | 18.8% | 477.6hPa | 2.9V | 00:00:00 | 00:48:12 | 00:00:00 | |
| DO8TBO-1 | 2026-08-31 11:05:17 | 49.47958 | 12.17179 | 60° | 82km/h | 6121m | 6.6m/s | -16.5°C | 18.6% | 478.4hPa | 2.9V | 00:00:00 | 00:48:10 | 00:00:00 | |
| DB0NH | 2026-08-31 11:05:16 | 49.47945 | 12.17147 | 60° | 82km/h | 6115m | 6.0m/s | -16.4°C | 18.5% | 478.7hPa | 2.9V | 00:00:00 | 00:48:09 | 00:00:00 | |
| DO9HM | 2026-08-31 11:05:12 | 49.47897 | 12.17036 | 56° | 77km/h | 6093m | 4.8m/s | -16.3°C | 17.3% | 480.3hPa | 2.9V | 05:02:00 | 00:00:00 | 00:00:00 | |
| NBG1-10 | 2026-08-31 11:05:11 | 49.47887 | 12.17011 | 57° | 82km/h | 6088m | 6.3m/s | -16.2°C | 18.5% | 480.4hPa | 2.9V | 00:00:00 | 00:48:04 | 00:00:00 | |
| DO3MHA-11 | 2026-08-31 11:05:09 | 49.47868 | 12.16962 | 62° | 84km/h | 6076m | 4.9m/s | -16.1°C | 18.5% | 481.2hPa | 2.9V | 00:00:00 | 00:48:02 | 00:00:00 | |
| DL6DJ-15 | 2026-08-31 11:05:08 | 49.47859 | 12.16936 | 66° | 75km/h | 6071m | 6.1m/s | -16.1°C | 17.4% | 481.7hPa | 3.0V | 00:00:00 | 00:00:00 | 00:00:00 | |
| DF7PN | 2026-08-31 11:05:07 | 49.47845 | 12.16878 | 70° | 82km/h | 6059m | 5.5m/s | -16.0°C | 17.1% | 482.4hPa | 3.0V | 00:00:00 | 00:00:00 | 00:00:00 | |
| DF2AP-13 | 2026-08-31 11:05:06 | 49.47845 | 12.16878 | 71° | 82km/h | 6059m | 5.4m/s | 0°C | 0% | 0hPa | 3.0V | 00:00:00 | 00:47:59 | 00:00:00 | |
| DB0UT-9 | 2026-08-31 11:05:00 | 49.47806 | 12.16720 | 66° | 86km/h | 6036m | 5.6m/s | -15.8°C | 17.1% | 484.0hPa | 3.0V | 05:02:00 | 00:00:00 | 00:00:00 | |
| DO3MHA-11 | 2026-08-31 11:04:59 | 49.47786 | 12.16662 | 60° | 80km/h | 6027m | 3.9m/s | -15.7°C | 18.0% | 484.6hPa | 3.0V | 00:00:00 | 00:47:52 | 00:00:00 | |
| OE5DXL-15 | 2026-08-31 11:04:53 | 49.47728 | 12.16497 | 65° | 80km/h | 6002m | 3.9m/s | 0°C | 0% | 0hPa | 3.0V | 00:00:00 | 00:00:00 | 00:00:00 | |
| DO9HM | 2026-08-31 11:04:50 | 49.47710 | 12.16440 | 65° | 80km/h | 5995m | 4.4m/s | -15.5°C | 17.3% | 486.6hPa | 3.0V | 05:02:00 | 00:00:00 | 00:00:00 | |
| DO3MHA-11 | 2026-08-31 11:04:49 | 49.47693 | 12.16383 | 65° | 80km/h | 5987m | 4.1m/s | -15.4°C | 18.4% | 487.1hPa | 3.0V | 00:00:00 | 00:47:42 | 00:00:00 | |
| DO8TBO-1 | 2026-08-31 11:04:47 | 49.47676 | 12.16327 | 66° | 82km/h | 5980m | 3.5m/s | -15.3°C | 18.5% | 487.6hPa | 3.0V | 00:00:00 | 00:47:40 | 00:00:00 | |
| DB0NH | 2026-08-31 11:04:46 | 49.47667 | 12.16299 | 64° | 84km/h | 5976m | 4.3m/s | -15.3°C | 18.5% | 487.8hPa | 2.9V | 00:00:00 | 00:47:39 | 00:00:00 | |
| DB0UT-7 | 2026-08-31 11:04:40 | 49.47616 | 12.16127 | 67° | 84km/h | 5957m | 3.4m/s | 0°C | 0% | 0hPa | 2.9V | 00:00:00 | 00:00:00 | 00:00:00 | |
| DO3MHA-11 | 2026-08-31 11:04:39 | 49.47608 | 12.16097 | 68° | 84km/h | 5953m | 3.6m/s | -15.1°C | 18.8% | 489.4hPa | 2.9V | 05:02:00 | 00:47:32 | 00:00:00 | |
| NBG1-10 | 2026-08-31 11:04:38 | 49.47599 | 12.16066 | 66° | 84km/h | 5950m | 2.4m/s | -15.1°C | 18.9% | 489.6hPa | 2.9V | 00:00:00 | 00:47:31 | 00:00:00 | |
| DL6DJ-15 | 2026-08-31 11:04:37 | 49.47580 | 12.16007 | 61° | 84km/h | 5944m | 4.0m/s | -15.1°C | 17.7% | 490.1hPa | 2.9V | 00:00:00 | 00:00:00 | 00:00:00 | |
| DF7PN | 2026-08-31 11:04:35 | 49.47570 | 12.15979 | 60° | 78km/h | 5940m | 3.9m/s | -15.1°C | 17.8% | 490.3hPa | 2.9V | 00:00:00 | 00:00:00 | 00:00:00 | |
| DF2AP-13 | 2026-08-31 11:04:31 | 49.47529 | 12.15871 | 61° | 93km/h | 5927m | 4.3m/s | 0°C | 0% | 0hPa | 2.9V | 00:00:00 | 00:47:24 | 00:00:00 | |
| DO9HM | 2026-08-31 11:04:30 | 49.47529 | 12.15871 | 61° | 88km/h | 5927m | 4.4m/s | -15.0°C | 17.9% | 491.2hPa | 2.9V | 05:03:00 | 00:00:00 | 00:00:00 | |
| DO3MHA-11 | 2026-08-31 11:04:29 | 49.47506 | 12.15808 | 65° | 84km/h | 5919m | 5.2m/s | -14.9°C | 18.6% | 491.6hPa | 2.9V | 00:00:00 | 00:47:22 | 00:00:00 | |
| DB0ND-19 | 2026-08-31 11:04:26 | 49.47472 | 12.15679 | 69° | 78km/h | 5894m | 5.3m/s | -14.7°C | 16.1% | 493.2hPa | 2.9V | 00:00:00 | 00:00:00 | 00:00:00 | |
| DO3MHA-11 | 2026-08-31 11:04:19 | 49.47435 | 12.15505 | 74° | 86km/h | 5859m | 6.3m/s | -14.3°C | 14.8% | 495.5hPa | 2.9V | 00:00:00 | 00:47:12 | 00:00:00 | |
| DB0UT-9 | 2026-08-31 11:04:18 | 49.47434 | 12.15505 | 74° | 82km/h | 5859m | 6.4m/s | 0°C | 0% | 0hPa | 2.9V | 00:00:00 | 00:00:00 | 00:00:00 | |
| DO8TBO-1 | 2026-08-31 11:04:17 | 49.47414 | 12.15412 | 68° | 84km/h | 5842m | 5.4m/s | -14.2°C | 14.6% | 496.7hPa | 2.9V | 00:00:00 | 00:47:09 | 00:00:00 | |
| DB0NH | 2026-08-31 11:04:16 | 49.47414 | 12.15412 | 68° | 82km/h | 5842m | 5.4m/s | -14.2°C | 14.6% | 496.7hPa | 2.9V | 00:00:00 | 00:47:09 | 00:00:00 | |
| DB0UT-7 | 2026-08-31 11:04:10 | 49.47360 | 12.15227 | 72° | 77km/h | 5817m | 4.0m/s | 0°C | 0% | 0hPa | 2.9V | 00:00:00 | 00:47:03 | 00:00:00 | |
| DO3MHA-11 | 2026-08-31 11:04:09 | 49.47354 | 12.15198 | 75° | 80km/h | 5813m | 4.6m/s | -14.0°C | 14.1% | 498.5hPa | 2.9V | 00:00:00 | 00:47:02 | 00:00:00 | |
| NBG1-10 | 2026-08-31 11:04:05 | 49.47331 | 12.15088 | 66° | 82km/h | 5795m | 4.8m/s | -13.8°C | 14.6% | 499.8hPa | 2.7V | 05:03:00 | 00:46:58 | 00:00:00 | |
| DF7PN | 2026-08-31 11:04:04 | 49.47322 | 12.15061 | 62° | 78km/h | 5790m | 5.9m/s | -13.9°C | 13.7% | 500.1hPa | 2.9V | 00:00:00 | 00:00:00 | 00:00:00 | |
| DB0ND-19 | 2026-08-31 11:03:55 | 49.47218 | 12.14734 | 64° | 86km/h | 5723m | 4.2m/s | -13.3°C | 13.5% | 504.5hPa | 2.9V | 00:00:00 | 00:00:00 | 00:00:00 | |
| DO9HM | 2026-08-31 11:03:50 | 49.47188 | 12.14647 | 63° | 82km/h | 5710m | 2.4m/s | -13.2°C | 13.3% | 505.3hPa | 2.9V | 05:04:00 | 00:00:00 | 00:00:00 | |
| DO3MHA-11 | 2026-08-31 11:03:49 | 49.47179 | 12.14618 | 65° | 80km/h | 5706m | 4.0m/s | -13.1°C | 14.0% | 505.5hPa | 2.9V | 00:00:00 | 00:46:42 | 00:00:00 | |
| DO8TBO-1 | 2026-08-31 11:03:47 | 49.47156 | 12.14527 | 72° | 82km/h | 5694m | 3.9m/s | -13.0°C | 13.8% | 506.3hPa | 2.9V | 00:00:00 | 00:46:39 | 00:00:00 | |
| DB0NH | 2026-08-31 11:03:46 | 49.47156 | 12.14527 | 72° | 82km/h | 5694m | 3.9m/s | -13.0°C | 13.8% | 506.3hPa | 2.9V | 05:03:00 | 00:46:39 | 00:00:00 | |
| DO3MHA-11 | 2026-08-31 11:03:39 | 49.47102 | 12.14335 | 59° | 84km/h | 5662m | 5.3m/s | -12.8°C | 13.4% | 508.4hPa | 3.0V | 05:03:00 | 00:46:32 | 00:00:00 | |
| DF7PN | 2026-08-31 11:03:33 | 49.47051 | 12.14155 | 73° | 86km/h | 5631m | 5.1m/s | 0°C | -1.0% | -1.0hPa | 3.0V | 00:00:00 | 00:00:00 | 00:00:00 | |
| NBG1-10 | 2026-08-31 11:03:32 | 49.47044 | 12.14123 | 74° | 80km/h | 5625m | 6.0m/s | -12.4°C | 12.6% | 510.8hPa | 3.0V | 00:00:00 | 00:46:25 | 00:00:00 | |
| DO9HM | 2026-08-31 11:03:29 | 49.47024 | 12.14034 | 66° | 77km/h | 5610m | 4.4m/s | -12.3°C | 11.6% | 511.9hPa | 3.0V | 05:04:00 | 00:00:00 | 00:00:00 | |
| DO3MHA-11 | 2026-08-31 11:03:19 | 49.46925 | 12.13746 | 63° | 73km/h | 5563m | 4.4m/s | -11.8°C | 10.4% | 514.9hPa | 3.0V | 00:00:00 | 00:46:12 | 00:00:00 | |
| DO8TBO-1 | 2026-08-31 11:03:17 | 49.46907 | 12.13695 | 64° | 78km/h | 5553m | 5.3m/s | -11.8°C | 10.4% | 515.5hPa | 3.0V | 05:04:00 | 00:46:10 | 00:00:00 | |
| DB0NH | 2026-08-31 11:03:16 | 49.46899 | 12.13670 | 65° | 78km/h | 5548m | 4.5m/s | -11.7°C | 10.2% | 515.9hPa | 2.9V | 00:00:00 | 00:46:09 | 00:00:00 | |
| DO3MHA-11 | 2026-08-31 11:03:09 | 49.46851 | 12.13486 | 67° | 82km/h | 5515m | 5.9m/s | -11.5°C | 10.4% | 518.3hPa | 2.9V | 00:00:00 | 00:46:02 | 00:00:00 | |
| DO9HM | 2026-08-31 11:03:07 | 49.46843 | 12.13457 | 67° | 82km/h | 5510m | 4.6m/s | -11.5°C | 10.1% | 518.7hPa | 3.0V | 05:04:00 | 00:00:00 | 00:00:00 | |
| DL6DJ-15 | 2026-08-31 11:03:04 | 49.46802 | 12.13309 | 67° | 78km/h | 5488m | 3.1m/s | -11.2°C | 10.4% | 520.3hPa | 3.0V | 00:00:00 | 00:00:00 | 00:00:00 | |
| DB0UT-9 | 2026-08-31 11:03:02 | 49.46801 | 12.13308 | 68° | 80km/h | 5488m | 3.1m/s | 0°C | 0% | 0hPa | 3.0V | 00:00:00 | 00:00:00 | 00:00:00 | |
| DB0ND-19 | 2026-08-31 11:02:53 | 49.46661 | 12.12828 | 63° | 77km/h | 5425m | 4.2m/s | -10.7°C | 9.8% | 524.6hPa | 3.0V | 00:00:00 | 00:00:00 | 00:00:00 | |
| DO3MHA-11 | 2026-08-31 11:02:49 | 49.46685 | 12.12911 | 67° | 78km/h | 5437m | 3.5m/s | -10.7°C | 10.4% | 523.8hPa | 3.0V | 00:00:00 | 00:45:42 | 00:00:00 | |
| DO8TBO-1 | 2026-08-31 11:02:47 | 49.46669 | 12.12856 | 65° | 78km/h | 5429m | 4.2m/s | -10.6°C | 10.2% | 524.2hPa | 3.0V | 00:00:00 | 00:45:40 | 00:00:00 | |
| DB0NH | 2026-08-31 11:02:46 | 49.46661 | 12.12828 | 64° | 78km/h | 5425m | 4.2m/s | -10.6°C | 10.3% | 524.6hPa | 3.0V | 00:00:00 | 00:45:39 | 00:00:00 | |
| DO3MHA-11 | 2026-08-31 11:02:39 | 49.46603 | 12.12633 | 68° | 80km/h | 5400m | 2.9m/s | -10.4°C | 10.0% | 526.3hPa | 3.0V | 05:04:00 | 00:45:32 | 00:00:00 | |
| DB0UT-9 | 2026-08-31 11:02:38 | 49.46603 | 12.12633 | 68° | 82km/h | 5400m | 2.9m/s | 0°C | 0% | 0hPa | 3.0V | 00:00:00 | 00:00:00 | 00:00:00 | |
| DL6DJ-15 | 2026-08-31 11:02:33 | 49.46548 | 12.12432 | 63° | 78km/h | 5376m | 3.2m/s | -10.2°C | 9.5% | 528.0hPa | 3.0V | 00:00:00 | 00:00:00 | 00:00:00 | |
| DO3MHA-11 | 2026-08-31 11:02:29 | 49.46521 | 12.12345 | 65° | 78km/h | 5365m | 3.0m/s | -10.1°C | 10.1% | 528.7hPa | 3.0V | 00:00:00 | 00:45:22 | 00:00:00 | |
| DO9HM | 2026-08-31 11:02:26 | 49.46495 | 12.12261 | 64° | 77km/h | 5355m | 3.0m/s | -10.0°C | 9.6% | 529.5hPa | 3.0V | 05:05:00 | 00:00:00 | 00:00:00 | |
| DB0ND-19 | 2026-08-31 11:02:22 | 49.46455 | 12.12125 | 65° | 75km/h | 5336m | 4.2m/s | -9.9°C | 10.3% | 530.8hPa | 3.0V | 00:00:00 | 00:00:00 | 00:00:00 | |
| DO3MHA-11 | 2026-08-31 11:02:19 | 49.46440 | 12.12071 | 67° | 80km/h | 5329m | 4.3m/s | -9.7°C | 11.0% | 531.2hPa | 3.0V | 00:00:00 | 00:45:12 | 00:00:00 | |
| DO8TBO-1 | 2026-08-31 11:02:17 | 49.46423 | 12.12016 | 62° | 78km/h | 5322m | 3.7m/s | -9.7°C | 11.1% | 531.7hPa | 3.0V | 00:00:00 | 00:45:10 | 00:00:00 | |
| DB0NH | 2026-08-31 11:02:16 | 49.46413 | 12.11989 | 60° | 77km/h | 5318m | 4.6m/s | -9.7°C | 10.9% | 532.0hPa | 3.0V | 00:00:00 | 00:45:09 | 00:00:00 | |
| DO9HM | 2026-08-31 11:02:05 | 49.46302 | 12.11693 | 76° | 77km/h | 5268m | 5.6m/s | -9.3°C | 9.3% | 535.6hPa | 3.0V | 05:06:00 | 00:00:00 | 00:00:00 | |
| DL6DJ-15 | 2026-08-31 11:02:02 | 49.46278 | 12.11584 | 65° | 71km/h | 5250m | 4.6m/s | -9.1°C | 9.3% | 536.8hPa | 3.0V | 00:00:00 | 00:00:00 | 00:00:00 | |
| DB0ND-19 | 2026-08-31 11:01:51 | 49.46193 | 12.11292 | 62° | 80km/h | 5192m | 3.8m/s | -8.6°C | -1.0% | -1.0hPa | 3.0V | 00:00:00 | 00:00:00 | 00:00:00 | |
| DO3MHA-11 | 2026-08-31 11:01:49 | 49.46183 | 12.11264 | 62° | 78km/h | 5189m | 3.3m/s | -8.5°C | 9.0% | 540.9hPa | 3.0V | 00:00:00 | 00:44:42 | 00:00:00 | |
| DO8TBO-1 | 2026-08-31 11:01:47 | 49.46164 | 12.11208 | 64° | 75km/h | 5181m | 4.4m/s | -8.4°C | 9.0% | 541.5hPa | 3.0V | 00:00:00 | 00:44:40 | 00:00:00 | |
| DB0NH | 2026-08-31 11:01:46 | 49.46156 | 12.11180 | 66° | 77km/h | 5177m | 3.2m/s | -8.4°C | 9.0% | 541.7hPa | 3.0V | 00:00:00 | 00:44:39 | 00:00:00 | |
| DO9HM | 2026-08-31 11:01:43 | 49.46140 | 12.11125 | 69° | 77km/h | 5168m | 4.7m/s | -8.4°C | 8.6% | 542.3hPa | 3.0V | 05:06:00 | 00:00:00 | 00:00:00 | |
| DO3MHA-11 | 2026-08-31 11:01:39 | 49.46098 | 12.10991 | 59° | 69km/h | 5147m | 4.0m/s | -8.1°C | 9.0% | 543.8hPa | 3.0V | 05:05:00 | 00:44:32 | 00:00:00 | |
| DL6DJ-15 | 2026-08-31 11:01:31 | 49.46027 | 12.10777 | 67° | 64km/h | 5104m | 7.0m/s | -7.8°C | 9.0% | 546.9hPa | 3.0V | 00:00:00 | 00:00:00 | 00:00:00 | |
| DO3MHA-11 | 2026-08-31 11:01:29 | 49.46020 | 12.10754 | 63° | 77km/h | 5097m | 6.1m/s | -7.7°C | 9.2% | 547.4hPa | 3.0V | 00:00:00 | 00:44:22 | 00:00:00 | |
| DO9HM | 2026-08-31 11:01:23 | 49.45971 | 12.10600 | 71° | 80km/h | 5062m | 7.1m/s | -7.5°C | 8.1% | 549.8hPa | 3.0V | 05:06:00 | 00:00:00 | 00:00:00 | |
| DB0ND-19 | 2026-08-31 11:01:20 | 49.45942 | 12.10481 | 66° | 82km/h | 5040m | 4.7m/s | 0°C | -1.0% | -1.0hPa | 3.0V | 00:00:00 | 00:00:00 | 00:00:00 | |
| DO3MHA-11 | 2026-08-31 11:01:19 | 49.45942 | 12.10481 | 67° | 80km/h | 5040m | 4.7m/s | -7.2°C | 8.6% | 551.3hPa | 3.0V | 00:00:00 | 00:44:12 | 00:00:00 | |
| DO8TBO-1 | 2026-08-31 11:01:17 | 49.45924 | 12.10423 | 62° | 80km/h | 5031m | 4.8m/s | -7.1°C | 8.4% | 551.9hPa | 3.0V | 00:00:00 | 00:44:10 | 00:00:00 | |
| DB0NH | 2026-08-31 11:01:14 | 49.45893 | 12.10340 | 62° | 78km/h | 5019m | 3.6m/s | -7.0°C | 7.8% | 552.9hPa | 3.0V | 00:00:00 | 00:44:07 | 00:00:00 | |
| DO3MHA-11 | 2026-08-31 11:01:09 | 49.45850 | 12.10208 | 60° | 78km/h | 4994m | 5.9m/s | -6.9°C | 8.0% | 554.6hPa | 3.0V | 00:00:00 | 00:44:02 | 00:00:00 | |
| DO9HM | 2026-08-31 11:01:01 | 49.45780 | 12.10028 | 68° | 84km/h | 4959m | 6.2m/s | -6.7°C | 7.8% | 557.0hPa | 3.0V | 05:06:00 | 00:00:00 | 00:00:00 | |
| DO3MHA-11 | 2026-08-31 11:00:59 | 49.45758 | 12.09939 | 73° | 78km/h | 4941m | 6.3m/s | -6.5°C | 8.1% | 558.3hPa | 3.0V | 00:00:00 | 00:43:52 | 00:00:00 | |
| DB0NH | 2026-08-31 11:00:55 | 49.45651 | 12.09511 | 78° | 80km/h | 4870m | 5.8m/s | -5.9°C | 8.0% | 563.4hPa | 3.0V | 05:06:00 | 00:43:37 | 00:00:00 | |
| DO3MHA-11 | 2026-08-31 11:00:54 | 49.45628 | 12.09370 | 72° | 77km/h | 4847m | 4.8m/s | -5.7°C | 8.3% | 565.1hPa | 3.0V | 05:06:00 | 00:43:32 | 00:00:00 | |
| DO3MHA-11 | 2026-08-31 11:00:49 | 49.45555 | 12.09096 | 73° | 82km/h | 4801m | 4.1m/s | -5.3°C | 7.7% | 568.7hPa | 3.0V | 00:00:00 | 00:43:22 | 00:00:00 | |
| DL6DJ-15 | 2026-08-31 11:00:46 | 49.45550 | 12.09069 | 73° | 71km/h | 4797m | 3.3m/s | -5.3°C | 7.4% | 568.9hPa | 3.0V | 00:00:00 | 00:00:00 | 00:00:00 | |
| DO9HM | 2026-08-31 11:00:20 | 49.45489 | 12.08862 | 64° | 89km/h | 4769m | 3.9m/s | -5.0°C | 7.3% | 570.9hPa | 3.0V | 05:07:00 | 00:00:00 | 00:00:00 | |
| DO3MHA-11 | 2026-08-31 11:00:19 | 49.45470 | 12.08800 | 69° | 84km/h | 4761m | 4.1m/s | -4.9°C | 7.2% | 571.3hPa | 3.0V | 00:00:00 | 00:43:12 | 00:00:00 | |
| DO8TBO-1 | 2026-08-31 11:00:17 | 49.45456 | 12.08737 | 73° | 77km/h | 4751m | 7.0m/s | -4.8°C | 7.1% | 572.1hPa | 3.0V | 05:07:00 | 00:43:10 | 00:00:00 | |
| DB0NH | 2026-08-31 11:00:14 | 49.45439 | 12.08642 | 74° | 77km/h | 4734m | 4.5m/s | -4.7°C | 6.9% | 573.4hPa | 3.0V | 00:00:00 | 00:43:07 | 00:00:00 | |
| DO3MHA-11 | 2026-08-31 11:00:09 | 49.45401 | 12.08495 | 66° | 77km/h | 4702m | 7.1m/s | -4.4°C | 6.6% | 575.7hPa | 3.0V | 00:00:00 | 00:43:02 | 00:00:00 | |
| DL6DJ-15 | 2026-08-31 10:59:57 | 49.45324 | 12.08166 | 73° | 69km/h | 4649m | 3.3m/s | -4.0°C | 6.5% | 579.5hPa | 3.0V | 00:00:00 | 00:00:00 | 00:00:00 | |
| DO3MHA-11 | 2026-08-31 10:59:49 | 49.45262 | 12.07955 | 69° | 75km/h | 4604m | 5.3m/s | -3.7°C | 7.0% | 582.8hPa | 3.0V | 00:00:00 | 00:42:42 | 00:00:00 | |
| DO8TBO-1 | 2026-08-31 10:59:47 | 49.45247 | 12.07901 | 67° | 75km/h | 4593m | 5.3m/s | -3.6°C | 6.8% | 583.5hPa | 3.0V | 00:00:00 | 00:42:40 | 00:00:00 | |
| DB0NH | 2026-08-31 10:59:44 | 49.45222 | 12.07819 | 64° | 75km/h | 4581m | 4.5m/s | -3.5°C | 6.7% | 584.5hPa | 3.0V | 00:00:00 | 00:42:37 | 00:00:00 | |
| NBG1-10 | 2026-08-31 10:59:41 | 49.45199 | 12.07740 | 68° | 73km/h | 4569m | 3.1m/s | -3.5°C | 6.5% | 585.4hPa | 3.0V | 00:00:00 | 00:42:34 | 00:00:00 | |
| DO9HM | 2026-08-31 10:59:40 | 49.45199 | 12.07740 | 69° | 71km/h | 4569m | 3.2m/s | -3.5°C | 6.3% | 585.5hPa | 3.0V | 05:07:00 | 00:00:00 | 00:00:00 | |
| DO3MHA-11 | 2026-08-31 10:59:39 | 49.45185 | 12.07688 | 67° | 82km/h | 4561m | 3.9m/s | -3.5°C | 6.3% | 586.0hPa | 3.0V | 05:07:00 | 00:42:32 | 00:00:00 | |
| DO3MHA-11 | 2026-08-31 10:59:29 | 49.45100 | 12.07400 | 67° | 69km/h | 4524m | 3.8m/s | -3.3°C | 5.6% | 588.7hPa | 3.0V | 00:00:00 | 00:42:22 | 00:00:00 | |
| DL6DJ-15 | 2026-08-31 10:59:26 | 49.45081 | 12.07325 | 71° | 68km/h | 4513m | 3.9m/s | -3.4°C | 5.3% | 589.5hPa | 3.0V | 00:00:00 | 00:00:00 | 00:00:00 | |
| DO9HM | 2026-08-31 10:59:20 | 49.45053 | 12.07198 | 72° | 75km/h | 4495m | 4.6m/s | -3.3°C | 5.2% | 590.9hPa | 3.0V | 05:08:00 | 00:00:00 | 00:00:00 | |
| DO3MHA-11 | 2026-08-31 10:59:19 | 49.45041 | 12.07142 | 74° | 68km/h | 4486m | 5.1m/s | -3.3°C | 5.3% | 591.6hPa | 3.0V | 00:00:00 | 00:42:12 | 00:00:00 | |
| DO8TBO-1 | 2026-08-31 10:59:17 | 49.45031 | 12.07088 | 79° | 66km/h | 4474m | 5.2m/s | -3.3°C | 5.2% | 592.4hPa | 3.0V | 00:00:00 | 00:42:10 | 00:00:00 | |
| DB0NH | 2026-08-31 10:59:14 | 49.45022 | 12.07008 | 80° | 66km/h | 4462m | 3.1m/s | -3.2°C | 5.1% | 593.4hPa | 3.0V | 00:00:00 | 00:42:07 | 00:00:00 | |
| DO3MHA-11 | 2026-08-31 10:59:09 | 49.45009 | 12.06889 | 77° | 71km/h | 4440m | 4.2m/s | -3.2°C | 5.1% | 595.0hPa | 3.0V | 00:00:00 | 00:42:02 | 00:00:00 | |
| Es werden nur die letzten 3500 von 3623 Frames angezeigt. GPX/KML und Diagramme bleiben verfügbar. | |||||||||||||||